{
  "fields": [{"id":"_id","type":"int"},{"id":"code","type":"text"},{"id":"name","type":"text"},{"id":"at_date","type":"timestamp"},{"id":"at_time","type":"numeric"},{"id":"pm25","type":"numeric"},{"id":"pm10","type":"numeric"},{"id":"temperature","type":"numeric"},{"id":"humidity","type":"numeric"}],
  "records": [
    [1,"FF1721AC76217484","กองดิจิทัลเพื่อการควบคุมโรค","2023-08-05T00:00:00",15,10.2,0,40.7,65],
    [2,"FF1721AC76217484","กองดิจิทัลเพื่อการควบคุมโรค","2023-08-05T00:00:00",16,10.3,0,40.7,65],
    [3,"FF1721AC76217494","กรมควบคุมโรค","2023-08-05T00:00:00",15,3.1,0,44.6,40.1],
    [4,"FF1721AC76217494","กรมควบคุมโรค","2023-08-05T00:00:00",16,3.2,0,43.2,41.7],
    [5,"FF1721AC76217484","กองดิจิทัลเพื่อการควบคุมโรค","2023-11-05T00:00:00",16,33,37,22.1,38.8],
    [6,"FF1721AC76217494","กรมควบคุมโรค","2023-11-05T00:00:00",17,30,38,23,36.5],
    [7,"FF1721AC76217483","กรมควบคุมโรค ลานอเนกประสงค์ อาคาร 1","2023-05-19T00:00:00",15,36.4,51.7,36,22.8],
    [8,"FF1721AC76217483","กรมควบคุมโรค ลานอเนกประสงค์ อาคาร 1","2023-05-19T00:00:00",16,34.8,52.8,35.9,22.8],
    [9,"FF1721AC76217483","กรมควบคุมโรค ลานอเนกประสงค์ อาคาร 1","2023-05-22T00:00:00",6,28.9,39.5,38.1,21.7],
    [10,"FF1721AC76217483","กรมควบคุมโรค ลานอเนกประสงค์ อาคาร 1","2023-05-22T00:00:00",7,25.9,35.1,36.8,22.7],
    [11,"FF1721AC76217483","กรมควบคุมโรค ลานอเนกประสงค์ อาคาร 1","2023-05-22T00:00:00",8,24.9,32.6,36.5,22.8],
    [12,"FF1721AC76217483","กรมควบคุมโรค ลานอเนกประสงค์ อาคาร 1","2023-05-22T00:00:00",9,30.8,39.7,35.9,24.9],
    [13,"FF1721AC76217483","กรมควบคุมโรค ลานอเนกประสงค์ อาคาร 1","2023-05-22T00:00:00",10,29.2,40,37,23.5],
    [14,"FF1721AC76217483","กรมควบคุมโรค ลานอเนกประสงค์ อาคาร 1","2023-05-22T00:00:00",11,28.5,38.8,37.6,22.2],
    [15,"FF1721AC76217483","กรมควบคุมโรค ลานอเนกประสงค์ อาคาร 1","2023-05-22T00:00:00",12,30.2,37.7,38.7,21.3],
    [16,"FF1721AC76217483","กรมควบคุมโรค ลานอเนกประสงค์ อาคาร 1","2023-05-22T00:00:00",13,31,40.2,38.4,21.3],
    [17,"FF1721AC76217483","กรมควบคุมโรค ลานอเนกประสงค์ อาคาร 1","2023-05-22T00:00:00",15,25.6,33.3,36.5,22.9],
    [18,"FF1721AC76217483","กรมควบคุมโรค ลานอเนกประสงค์ อาคาร 1","2023-05-22T00:00:00",16,30,41.7,35.3,25.5],
    [19,"FF1721AC76217483","กรมควบคุมโรค ลานอเนกประสงค์ อาคาร 1","2023-05-22T00:00:00",17,25.8,36.1,33.6,27.8],
    [20,"FF1721AC76217483","กรมควบคุมโรค ลานอเนกประสงค์ อาคาร 1","2023-05-22T00:00:00",18,22.5,31,32.3,29.2],
    [21,"FF1721AC76217483","กรมควบคุมโรค ลานอเนกประสงค์ อาคาร 1","2023-05-22T00:00:00",19,22.5,29.6,31.9,29.6],
    [22,"FF1721AC76217483","กรมควบคุมโรค ลานอเนกประสงค์ อาคาร 1","2023-05-22T00:00:00",20,22.6,31.6,31.6,30.4],
    [23,"FF1721AC76217483","กรมควบคุมโรค ลานอเนกประสงค์ อาคาร 1","2023-05-22T00:00:00",21,21.4,29.3,31.4,31],
    [24,"FF1721AC76217483","กรมควบคุมโรค ลานอเนกประสงค์ อาคาร 1","2023-05-22T00:00:00",22,20.7,27.1,31.5,30.1],
    [25,"FF1721AC76217483","กรมควบคุมโรค ลานอเนกประสงค์ อาคาร 1","2023-05-22T00:00:00",23,20.2,30.4,31.5,30.7],
    [26,"FF1721AC76217483","กรมควบคุมโรค ลานอเนกประสงค์ อาคาร 1","2023-05-23T00:00:00",0,19,26,31.4,30.4],
    [27,"FF1721AC76217483","กรมควบคุมโรค ลานอเนกประสงค์ อาคาร 1","2023-05-23T00:00:00",1,22.5,29.8,31.3,30.5],
    [28,"FF1721AC76217483","กรมควบคุมโรค ลานอเนกประสงค์ อาคาร 1","2023-05-23T00:00:00",2,25.9,36.5,31.1,30.8],
    [29,"FF1721AC76217483","กรมควบคุมโรค ลานอเนกประสงค์ อาคาร 1","2023-05-23T00:00:00",3,29.6,42.7,30.8,31.1],
    [30,"FF1721AC76217483","กรมควบคุมโรค ลานอเนกประสงค์ อาคาร 1","2023-05-23T00:00:00",4,31.4,43.3,30.2,29.8],
    [31,"FF1721AC76217483","กรมควบคุมโรค ลานอเนกประสงค์ อาคาร 1","2023-05-23T00:00:00",5,32.5,47.6,29.9,30],
    [32,"FF1721AC76217483","กรมควบคุมโรค ลานอเนกประสงค์ อาคาร 1","2023-05-23T00:00:00",6,34,49.4,29.6,30.5],
    [33,"FF1721AC76217483","กรมควบคุมโรค ลานอเนกประสงค์ อาคาร 1","2023-05-23T00:00:00",7,34.8,51.8,29.9,30.6],
    [34,"FF1721AC76217483","กรมควบคุมโรค ลานอเนกประสงค์ อาคาร 1","2023-05-23T00:00:00",8,35.1,51.5,30.9,29.5],
    [35,"FF1721AC76217483","กรมควบคุมโรค ลานอเนกประสงค์ อาคาร 1","2023-05-23T00:00:00",9,33.8,47.8,32.7,27.9],
    [36,"FF1721AC76217483","กรมควบคุมโรค ลานอเนกประสงค์ อาคาร 1","2023-05-23T00:00:00",10,32.6,47,35.9,24.4],
    [37,"FF1721AC76217483","กรมควบคุมโรค ลานอเนกประสงค์ อาคาร 1","2023-05-23T00:00:00",11,35.5,52.6,37.6,22.5],
    [38,"FF1721AC76217483","กรมควบคุมโรค ลานอเนกประสงค์ อาคาร 1","2023-05-23T00:00:00",12,31.8,42.3,38.9,21.4],
    [39,"FF1721AC76217483","กรมควบคุมโรค ลานอเนกประสงค์ อาคาร 1","2023-05-23T00:00:00",13,31.6,43.7,37.7,22.6],
    [40,"FF1721AC76217483","กรมควบคุมโรค ลานอเนกประสงค์ อาคาร 1","2023-05-23T00:00:00",14,32.9,46.7,36,24.2],
    [41,"FF1721AC76217483","กรมควบคุมโรค ลานอเนกประสงค์ อาคาร 1","2023-05-23T00:00:00",15,32,46.4,34.8,24.9],
    [42,"FF1721AC76217483","กรมควบคุมโรค ลานอเนกประสงค์ อาคาร 1","2023-05-23T00:00:00",16,22.1,31.7,31.9,27.7],
    [43,"FF1721AC76217483","กรมควบคุมโรค ลานอเนกประสงค์ อาคาร 1","2023-05-23T00:00:00",17,9.6,12.6,29.4,29.9],
    [44,"FF1721AC76217483","กรมควบคุมโรค ลานอเนกประสงค์ อาคาร 1","2023-05-23T00:00:00",18,14.7,20.1,28.6,32.5],
    [45,"FF1721AC76217483","กรมควบคุมโรค ลานอเนกประสงค์ อาคาร 1","2023-05-23T00:00:00",19,13.2,17.3,29,31.9],
    [46,"FF1721AC76217483","กรมควบคุมโรค ลานอเนกประสงค์ อาคาร 1","2023-05-23T00:00:00",20,18.5,27.6,28.6,32.3],
    [47,"FF1721AC76217483","กรมควบคุมโรค ลานอเนกประสงค์ อาคาร 1","2023-05-23T00:00:00",21,16.3,25.9,29.6,31.1],
    [48,"FF1721AC76217483","กรมควบคุมโรค ลานอเนกประสงค์ อาคาร 1","2023-05-23T00:00:00",22,18.7,24.5,30.1,30.6],
    [49,"FF1721AC76217483","กรมควบคุมโรค ลานอเนกประสงค์ อาคาร 1","2023-05-23T00:00:00",23,23.2,31.3,29.9,30.9],
    [50,"FF1721AC76217483","กรมควบคุมโรค ลานอเนกประสงค์ อาคาร 1","2023-05-24T00:00:00",0,25.3,33.9,29.9,30.5],
    [51,"FF1721AC76217483","กรมควบคุมโรค ลานอเนกประสงค์ อาคาร 1","2023-05-24T00:00:00",1,25.1,34.9,29.9,30],
    [52,"FF1721AC76217483","กรมควบคุมโรค ลานอเนกประสงค์ อาคาร 1","2023-05-24T00:00:00",2,30.9,44.1,29.6,30.4],
    [53,"FF1721AC76217483","กรมควบคุมโรค ลานอเนกประสงค์ อาคาร 1","2023-05-24T00:00:00",3,30,42.9,29.7,30.5],
    [54,"FF1721AC76217483","กรมควบคุมโรค ลานอเนกประสงค์ อาคาร 1","2023-05-24T00:00:00",4,27.2,33.5,29.9,29.8],
    [55,"FF1721AC76217483","กรมควบคุมโรค ลานอเนกประสงค์ อาคาร 1","2023-05-24T00:00:00",5,28.5,38.8,29.7,30.3],
    [56,"FF1721AC76217483","กรมควบคุมโรค ลานอเนกประสงค์ อาคาร 1","2023-05-24T00:00:00",6,28.7,38.6,30.3,29.7],
    [57,"FF1721AC76217483","กรมควบคุมโรค ลานอเนกประสงค์ อาคาร 1","2023-05-24T00:00:00",7,28.2,40.4,31.4,28.4],
    [58,"FF1721AC76217483","กรมควบคุมโรค ลานอเนกประสงค์ อาคาร 1","2023-05-24T00:00:00",8,26.9,37.2,32.8,27.3],
    [59,"FF1721AC76217483","กรมควบคุมโรค ลานอเนกประสงค์ อาคาร 1","2023-05-24T00:00:00",9,23.4,30.5,33.6,26.7],
    [60,"FF1721AC76217483","กรมควบคุมโรค ลานอเนกประสงค์ อาคาร 1","2023-05-24T00:00:00",10,22.8,28.9,35.6,24.4],
    [61,"FF1721AC76217483","กรมควบคุมโรค ลานอเนกประสงค์ อาคาร 1","2023-05-24T00:00:00",11,25.2,33.3,34,25.5],
    [62,"FF1721AC76217483","กรมควบคุมโรค ลานอเนกประสงค์ อาคาร 1","2023-05-24T00:00:00",12,26.4,34.2,33.8,25.8],
    [63,"FF1721AC76217483","กรมควบคุมโรค ลานอเนกประสงค์ อาคาร 1","2023-05-24T00:00:00",13,26.1,35.7,35.3,24.2],
    [64,"FF1721AC76217483","กรมควบคุมโรค ลานอเนกประสงค์ อาคาร 1","2023-05-24T00:00:00",14,28.4,37,34.3,25.2],
    [65,"FF1721AC76217483","กรมควบคุมโรค ลานอเนกประสงค์ อาคาร 1","2023-05-24T00:00:00",15,29,39,34.5,24.9],
    [66,"FF1721AC76217483","กรมควบคุมโรค ลานอเนกประสงค์ อาคาร 1","2023-05-24T00:00:00",16,30.4,39.7,34.1,26],
    [67,"FF1721AC76217483","กรมควบคุมโรค ลานอเนกประสงค์ อาคาร 1","2023-05-24T00:00:00",17,28.5,37.2,33.5,27.2],
    [68,"FF1721AC76217483","กรมควบคุมโรค ลานอเนกประสงค์ อาคาร 1","2023-05-24T00:00:00",18,24.9,32.7,32,28.9],
    [69,"FF1721AC76217483","กรมควบคุมโรค ลานอเนกประสงค์ อาคาร 1","2023-05-24T00:00:00",19,9.7,13.7,27.7,31.9],
    [70,"FF1721AC76217483","กรมควบคุมโรค ลานอเนกประสงค์ อาคาร 1","2023-05-24T00:00:00",20,4.9,7.4,27,31.9],
    [71,"FF1721AC76217483","กรมควบคุมโรค ลานอเนกประสงค์ อาคาร 1","2023-05-24T00:00:00",21,7.2,9.8,27.9,32.1],
    [72,"FF1721AC76217483","กรมควบคุมโรค ลานอเนกประสงค์ อาคาร 1","2023-05-24T00:00:00",22,18.5,25.9,29.4,32.1],
    [73,"FF1721AC76217483","กรมควบคุมโรค ลานอเนกประสงค์ อาคาร 1","2023-05-24T00:00:00",23,27.3,35.7,30.5,32.5],
    [74,"FF1721AC76217494","กรมควบคุมโรค","2023-05-24T00:00:00",9,21,30,21.5,35],
    [75,"FF1721AC76217483","กรมควบคุมโรค ลานอเนกประสงค์ อาคาร 1","2023-05-25T00:00:00",0,26.4,34.8,30.8,32.3],
    [76,"FF1721AC76217483","กรมควบคุมโรค ลานอเนกประสงค์ อาคาร 1","2023-05-25T00:00:00",1,24,32.3,30.9,31.2],
    [77,"FF1721AC76217483","กรมควบคุมโรค ลานอเนกประสงค์ อาคาร 1","2023-05-25T00:00:00",2,27.3,37.3,29.9,31.7],
    [78,"FF1721AC76217483","กรมควบคุมโรค ลานอเนกประสงค์ อาคาร 1","2023-05-25T00:00:00",3,28.3,38.2,29.3,32],
    [79,"FF1721AC76217483","กรมควบคุมโรค ลานอเนกประสงค์ อาคาร 1","2023-05-25T00:00:00",4,29.5,40.3,28.7,32.4],
    [80,"FF1721AC76217483","กรมควบคุมโรค ลานอเนกประสงค์ อาคาร 1","2023-05-25T00:00:00",5,30.4,40.2,28.8,32],
    [81,"FF1721AC76217483","กรมควบคุมโรค ลานอเนกประสงค์ อาคาร 1","2023-05-25T00:00:00",6,30.5,43.2,29.1,31.4],
    [82,"FF1721AC76217483","กรมควบคุมโรค ลานอเนกประสงค์ อาคาร 1","2023-05-25T00:00:00",7,31.1,43.4,29.5,31.3],
    [83,"FF1721AC76217483","กรมควบคุมโรค ลานอเนกประสงค์ อาคาร 1","2023-05-25T00:00:00",8,30.3,42.2,30.7,30.2],
    [84,"FF1721AC76217483","กรมควบคุมโรค ลานอเนกประสงค์ อาคาร 1","2023-05-25T00:00:00",9,31.9,44.8,29.7,32.4],
    [85,"FF1721AC76217483","กรมควบคุมโรค ลานอเนกประสงค์ อาคาร 1","2023-05-25T00:00:00",10,28.4,39.7,32,28.4],
    [86,"FF1721AC76217483","กรมควบคุมโรค ลานอเนกประสงค์ อาคาร 1","2023-05-25T00:00:00",11,29.8,41.4,33,26.8],
    [87,"FF1721AC76217483","กรมควบคุมโรค ลานอเนกประสงค์ อาคาร 1","2023-05-25T00:00:00",12,27.9,39.1,34.6,25.4],
    [88,"FF1721AC76217483","กรมควบคุมโรค ลานอเนกประสงค์ อาคาร 1","2023-05-25T00:00:00",13,27.9,38.1,34.9,24.9],
    [89,"FF1721AC76217483","กรมควบคุมโรค ลานอเนกประสงค์ อาคาร 1","2023-05-25T00:00:00",14,26.6,35.8,34.1,25.5],
    [90,"FF1721AC76217483","กรมควบคุมโรค ลานอเนกประสงค์ อาคาร 1","2023-05-25T00:00:00",15,27.6,37.3,34.4,24.9],
    [91,"FF1721AC76217483","กรมควบคุมโรค ลานอเนกประสงค์ อาคาร 1","2023-05-25T00:00:00",16,27.2,38.1,34.1,25],
    [92,"FF1721AC76217483","กรมควบคุมโรค ลานอเนกประสงค์ อาคาร 1","2023-05-25T00:00:00",17,30.3,41.7,33.6,26],
    [93,"FF1721AC76217483","กรมควบคุมโรค ลานอเนกประสงค์ อาคาร 1","2023-05-25T00:00:00",18,28.9,39.4,32.5,27.6],
    [94,"FF1721AC76217483","กรมควบคุมโรค ลานอเนกประสงค์ อาคาร 1","2023-05-25T00:00:00",19,28.1,36.8,31.7,29.1],
    [95,"FF1721AC76217483","กรมควบคุมโรค ลานอเนกประสงค์ อาคาร 1","2023-05-25T00:00:00",20,26.4,34.2,30.8,31],
    [96,"FF1721AC76217483","กรมควบคุมโรค ลานอเนกประสงค์ อาคาร 1","2023-05-25T00:00:00",21,25.6,33.3,30.5,32],
    [97,"FF1721AC76217483","กรมควบคุมโรค ลานอเนกประสงค์ อาคาร 1","2023-05-25T00:00:00",22,24.8,32.3,30.7,32.4],
    [98,"FF1721AC76217483","กรมควบคุมโรค ลานอเนกประสงค์ อาคาร 1","2023-05-25T00:00:00",23,24.1,35.2,30.6,32.8],
    [99,"FF1721AC76217483","กรมควบคุมโรค ลานอเนกประสงค์ อาคาร 1","2023-05-26T00:00:00",0,25.2,32.3,30.4,34],
    [100,"FF1721AC76217483","กรมควบคุมโรค ลานอเนกประสงค์ อาคาร 1","2023-05-26T00:00:00",1,26.9,38.3,30.3,34.2],
    [101,"FF1721AC76217483","กรมควบคุมโรค ลานอเนกประสงค์ อาคาร 1","2023-05-26T00:00:00",2,31.1,44.7,29.6,32.5],
    [102,"FF1721AC76217483","กรมควบคุมโรค ลานอเนกประสงค์ อาคาร 1","2023-05-26T00:00:00",3,32.1,45.9,29.1,30.9],
    [103,"FF1721AC76217483","กรมควบคุมโรค ลานอเนกประสงค์ อาคาร 1","2023-05-26T00:00:00",4,33.2,47,28.7,31.2],
    [104,"FF1721AC76217483","กรมควบคุมโรค ลานอเนกประสงค์ อาคาร 1","2023-05-26T00:00:00",5,32.8,49.5,28.5,31.2],
    [105,"FF1721AC76217483","กรมควบคุมโรค ลานอเนกประสงค์ อาคาร 1","2023-05-26T00:00:00",6,33.9,49.4,28.7,31.3],
    [106,"FF1721AC76217483","กรมควบคุมโรค ลานอเนกประสงค์ อาคาร 1","2023-05-26T00:00:00",7,34.5,47.2,29.3,30.5],
    [107,"FF1721AC76217483","กรมควบคุมโรค ลานอเนกประสงค์ อาคาร 1","2023-05-26T00:00:00",8,31.4,43,32.2,27.2],
    [108,"FF1721AC76217483","กรมควบคุมโรค ลานอเนกประสงค์ อาคาร 1","2023-05-26T00:00:00",9,29.5,43.7,33.7,25.7],
    [109,"FF1721AC76217483","กรมควบคุมโรค ลานอเนกประสงค์ อาคาร 1","2023-05-26T00:00:00",10,29.9,39.3,35.5,23.3],
    [110,"FF1721AC76217483","กรมควบคุมโรค ลานอเนกประสงค์ อาคาร 1","2023-05-26T00:00:00",11,29.8,43.3,36.9,21.5],
    [111,"FF1721AC76217483","กรมควบคุมโรค ลานอเนกประสงค์ อาคาร 1","2023-05-26T00:00:00",12,30.5,41.3,38.1,20.8],
    [112,"FF1721AC76217483","กรมควบคุมโรค ลานอเนกประสงค์ อาคาร 1","2023-05-26T00:00:00",13,28,40.2,36.9,21.7],
    [113,"FF1721AC76217483","กรมควบคุมโรค ลานอเนกประสงค์ อาคาร 1","2023-05-26T00:00:00",14,29.6,41.9,35,23.3],
    [114,"FF1721AC76217483","กรมควบคุมโรค ลานอเนกประสงค์ อาคาร 1","2023-05-26T00:00:00",15,29.9,41.4,35,23.5],
    [115,"FF1721AC76217483","กรมควบคุมโรค ลานอเนกประสงค์ อาคาร 1","2023-05-26T00:00:00",16,30,41.2,34.9,23.8],
    [116,"FF1721AC76217483","กรมควบคุมโรค ลานอเนกประสงค์ อาคาร 1","2023-05-26T00:00:00",17,28.9,41.4,35,23.7],
    [117,"FF1721AC76217483","กรมควบคุมโรค ลานอเนกประสงค์ อาคาร 1","2023-05-26T00:00:00",18,29.9,40.8,34.8,24],
    [118,"FF1721AC76217483","กรมควบคุมโรค ลานอเนกประสงค์ อาคาร 1","2023-05-26T00:00:00",19,30.3,44.3,34.3,24.4],
    [119,"FF1721AC76217483","กรมควบคุมโรค ลานอเนกประสงค์ อาคาร 1","2023-05-26T00:00:00",20,32.4,46.3,33.5,26.9],
    [120,"FF1721AC76217483","กรมควบคุมโรค ลานอเนกประสงค์ อาคาร 1","2023-05-26T00:00:00",21,32.2,48,32,30.5],
    [121,"FF1721AC76217483","กรมควบคุมโรค ลานอเนกประสงค์ อาคาร 1","2023-05-26T00:00:00",22,30.4,42.4,31.2,29.6],
    [122,"FF1721AC76217483","กรมควบคุมโรค ลานอเนกประสงค์ อาคาร 1","2023-05-26T00:00:00",23,31.9,46.3,30.7,31.1],
    [123,"FF1721AC76217483","กรมควบคุมโรค ลานอเนกประสงค์ อาคาร 1","2023-05-27T00:00:00",0,29.3,39.5,29.5,32.6],
    [124,"FF1721AC76217483","กรมควบคุมโรค ลานอเนกประสงค์ อาคาร 1","2023-05-27T00:00:00",1,28.9,40.5,30.4,32.8],
    [125,"FF1721AC76217483","กรมควบคุมโรค ลานอเนกประสงค์ อาคาร 1","2023-05-27T00:00:00",2,31.9,44.4,30.8,33.5],
    [126,"FF1721AC76217483","กรมควบคุมโรค ลานอเนกประสงค์ อาคาร 1","2023-05-27T00:00:00",3,29.8,41.8,30.4,29.2],
    [127,"FF1721AC76217483","กรมควบคุมโรค ลานอเนกประสงค์ อาคาร 1","2023-05-27T00:00:00",4,29.8,38.6,29.9,29.3],
    [128,"FF1721AC76217483","กรมควบคุมโรค ลานอเนกประสงค์ อาคาร 1","2023-05-27T00:00:00",5,28,38,29.5,29.3],
    [129,"FF1721AC76217483","กรมควบคุมโรค ลานอเนกประสงค์ อาคาร 1","2023-05-27T00:00:00",6,28.7,39.3,28.6,30.6],
    [130,"FF1721AC76217483","กรมควบคุมโรค ลานอเนกประสงค์ อาคาร 1","2023-05-27T00:00:00",7,29.6,41.4,28.8,30.9],
    [131,"FF1721AC76217483","กรมควบคุมโรค ลานอเนกประสงค์ อาคาร 1","2023-05-27T00:00:00",8,30.5,43.7,29.5,30.6],
    [132,"FF1721AC76217483","กรมควบคุมโรค ลานอเนกประสงค์ อาคาร 1","2023-05-27T00:00:00",9,30.4,43.3,29.8,30.4],
    [133,"FF1721AC76217483","กรมควบคุมโรค ลานอเนกประสงค์ อาคาร 1","2023-05-27T00:00:00",10,29.6,38.1,32,28.5],
    [134,"FF1721AC76217483","กรมควบคุมโรค ลานอเนกประสงค์ อาคาร 1","2023-05-29T00:00:00",14,33,52,32.4,29],
    [135,"FF1721AC76217483","กรมควบคุมโรค ลานอเนกประสงค์ อาคาร 1","2023-05-29T00:00:00",15,40.5,58.8,31.9,29.4],
    [136,"FF1721AC76217483","กรมควบคุมโรค ลานอเนกประสงค์ อาคาร 1","2023-05-29T00:00:00",16,34.3,47.9,32.8,28.1],
    [137,"FF1721AC76217483","กรมควบคุมโรค ลานอเนกประสงค์ อาคาร 1","2023-05-29T00:00:00",17,31.2,42.4,31.3,30.7],
    [138,"FF1721AC76217483","กรมควบคุมโรค ลานอเนกประสงค์ อาคาร 1","2023-05-29T00:00:00",18,27.4,35.7,28,36.1],
    [139,"FF1721AC76217483","กรมควบคุมโรค ลานอเนกประสงค์ อาคาร 1","2023-05-29T00:00:00",19,26.7,34.8,27.1,36.4],
    [140,"FF1721AC76217483","กรมควบคุมโรค ลานอเนกประสงค์ อาคาร 1","2023-05-29T00:00:00",20,30.1,42.6,26,39.3],
    [141,"FF1721AC76217483","กรมควบคุมโรค ลานอเนกประสงค์ อาคาร 1","2023-05-29T00:00:00",21,25.7,36.9,26.6,38.4],
    [142,"FF1721AC76217483","กรมควบคุมโรค ลานอเนกประสงค์ อาคาร 1","2023-05-29T00:00:00",22,14.6,18.5,26.4,37.5],
    [143,"FF1721AC76217483","กรมควบคุมโรค ลานอเนกประสงค์ อาคาร 1","2023-05-29T00:00:00",23,15.3,20.6,26.7,37.7],
    [144,"FF1721AC76217483","กรมควบคุมโรค ลานอเนกประสงค์ อาคาร 1","2023-05-30T00:00:00",0,19.9,26.9,26.3,38.6],
    [145,"FF1721AC76217483","กรมควบคุมโรค ลานอเนกประสงค์ อาคาร 1","2023-05-30T00:00:00",1,16.1,21.4,26.1,38.7],
    [146,"FF1721AC76217483","กรมควบคุมโรค ลานอเนกประสงค์ อาคาร 1","2023-05-30T00:00:00",2,18.3,22.5,26.5,38],
    [147,"FF1721AC76217483","กรมควบคุมโรค ลานอเนกประสงค์ อาคาร 1","2023-05-30T00:00:00",3,21.7,30.8,26.8,37.4],
    [148,"FF1721AC76217483","กรมควบคุมโรค ลานอเนกประสงค์ อาคาร 1","2023-05-30T00:00:00",4,28.7,39.4,26.9,37.3],
    [149,"FF1721AC76217483","กรมควบคุมโรค ลานอเนกประสงค์ อาคาร 1","2023-05-30T00:00:00",5,30.8,46.1,27,37.4],
    [150,"FF1721AC76217483","กรมควบคุมโรค ลานอเนกประสงค์ อาคาร 1","2023-05-30T00:00:00",6,26.5,35.8,26.7,38],
    [151,"FF1721AC76217483","กรมควบคุมโรค ลานอเนกประสงค์ อาคาร 1","2023-05-30T00:00:00",7,26.3,35.3,27.4,36.6],
    [152,"FF1721AC76217483","กรมควบคุมโรค ลานอเนกประสงค์ อาคาร 1","2023-05-30T00:00:00",8,19.9,24.8,30.2,32.3],
    [153,"FF1721AC76217483","กรมควบคุมโรค ลานอเนกประสงค์ อาคาร 1","2023-05-30T00:00:00",9,11.2,14.4,32.2,28.9],
    [154,"FF1721AC76217483","กรมควบคุมโรค ลานอเนกประสงค์ อาคาร 1","2023-05-30T00:00:00",10,10.8,13.9,35.6,25.5],
    [155,"FF1721AC76217483","กรมควบคุมโรค ลานอเนกประสงค์ อาคาร 1","2023-05-30T00:00:00",11,13.5,16.8,36.3,24.7],
    [156,"FF1721AC76217483","กรมควบคุมโรค ลานอเนกประสงค์ อาคาร 1","2023-05-30T00:00:00",12,10.8,14.7,37.5,23.2],
    [157,"FF1721AC76217483","กรมควบคุมโรค ลานอเนกประสงค์ อาคาร 1","2023-05-30T00:00:00",13,13.5,16.9,36.3,23.8],
    [158,"FF1721AC76217483","กรมควบคุมโรค ลานอเนกประสงค์ อาคาร 1","2023-05-30T00:00:00",14,15.6,20.8,35,25.1],
    [159,"FF1721AC76217483","กรมควบคุมโรค ลานอเนกประสงค์ อาคาร 1","2023-05-30T00:00:00",15,17.4,21.9,34.6,25.8],
    [160,"FF1721AC76217483","กรมควบคุมโรค ลานอเนกประสงค์ อาคาร 1","2023-05-30T00:00:00",16,20.7,24.1,34,26.2],
    [161,"FF1721AC76217483","กรมควบคุมโรค ลานอเนกประสงค์ อาคาร 1","2023-05-30T00:00:00",17,25.6,34.7,31.1,31.3],
    [162,"FF1721AC76217483","กรมควบคุมโรค ลานอเนกประสงค์ อาคาร 1","2023-05-30T00:00:00",18,14.2,19.8,26.3,38.3],
    [163,"FF1721AC76217483","กรมควบคุมโรค ลานอเนกประสงค์ อาคาร 1","2023-05-30T00:00:00",19,19.4,25.9,23.7,44.6],
    [164,"FF1721AC76217483","กรมควบคุมโรค ลานอเนกประสงค์ อาคาร 1","2023-05-30T00:00:00",20,20,25.5,25,43],
    [165,"FF1721AC76217483","กรมควบคุมโรค ลานอเนกประสงค์ อาคาร 1","2023-05-30T00:00:00",21,13.3,17.5,25.4,42.6],
    [166,"FF1721AC76217483","กรมควบคุมโรค ลานอเนกประสงค์ อาคาร 1","2023-05-30T00:00:00",22,15.7,21.4,25.9,42.3],
    [167,"FF1721AC76217483","กรมควบคุมโรค ลานอเนกประสงค์ อาคาร 1","2023-05-30T00:00:00",23,20,25,26.5,41.7],
    [168,"FF1721AC76217484","กองดิจิทัลเพื่อการควบคุมโรค","2023-05-30T00:00:00",16,19.3,26.1,33.2,28.6],
    [169,"FF1721AC76217484","กองดิจิทัลเพื่อการควบคุมโรค","2023-05-30T00:00:00",17,25,35.7,31,33.3],
    [170,"FF1721AC76217484","กองดิจิทัลเพื่อการควบคุมโรค","2023-05-30T00:00:00",18,13.6,19.1,24.2,43.4],
    [171,"FF1721AC76217484","กองดิจิทัลเพื่อการควบคุมโรค","2023-05-30T00:00:00",19,18.8,25.8,22.6,48.2],
    [172,"FF1721AC76217484","กองดิจิทัลเพื่อการควบคุมโรค","2023-05-30T00:00:00",20,16,20.6,23.1,48.2],
    [173,"FF1721AC76217484","กองดิจิทัลเพื่อการควบคุมโรค","2023-05-30T00:00:00",21,14.1,18.3,23.8,47.5],
    [174,"FF1721AC76217484","กองดิจิทัลเพื่อการควบคุมโรค","2023-05-30T00:00:00",22,17.4,22.6,24.5,46.9],
    [175,"FF1721AC76217484","กองดิจิทัลเพื่อการควบคุมโรค","2023-05-30T00:00:00",23,20.1,29.4,25,46.5],
    [176,"FF1721AC76217494","กรมควบคุมโรค","2023-05-30T00:00:00",10,13,13,13,13],
    [177,"FF1721AC76217483","กรมควบคุมโรค ลานอเนกประสงค์ อาคาร 1","2023-05-31T00:00:00",0,16.8,24.3,26.8,41.1],
    [178,"FF1721AC76217483","กรมควบคุมโรค ลานอเนกประสงค์ อาคาร 1","2023-05-31T00:00:00",1,24.8,33.5,26.3,42],
    [179,"FF1721AC76217483","กรมควบคุมโรค ลานอเนกประสงค์ อาคาร 1","2023-05-31T00:00:00",2,40.2,63.1,26.8,41.1],
    [180,"FF1721AC76217483","กรมควบคุมโรค ลานอเนกประสงค์ อาคาร 1","2023-05-31T00:00:00",3,41.2,62.3,27.1,40.8],
    [181,"FF1721AC76217483","กรมควบคุมโรค ลานอเนกประสงค์ อาคาร 1","2023-05-31T00:00:00",4,39.2,59.8,27.2,40.6],
    [182,"FF1721AC76217483","กรมควบคุมโรค ลานอเนกประสงค์ อาคาร 1","2023-05-31T00:00:00",5,38.3,56.8,27.2,40.5],
    [183,"FF1721AC76217483","กรมควบคุมโรค ลานอเนกประสงค์ อาคาร 1","2023-05-31T00:00:00",6,41.1,63.1,26.8,41.3],
    [184,"FF1721AC76217483","กรมควบคุมโรค ลานอเนกประสงค์ อาคาร 1","2023-05-31T00:00:00",7,30.6,45.5,28.1,38.4],
    [185,"FF1721AC76217483","กรมควบคุมโรค ลานอเนกประสงค์ อาคาร 1","2023-05-31T00:00:00",8,11.7,15,31.7,31.1],
    [186,"FF1721AC76217483","กรมควบคุมโรค ลานอเนกประสงค์ อาคาร 1","2023-05-31T00:00:00",9,6.5,8.8,35.3,25.9],
    [187,"FF1721AC76217483","กรมควบคุมโรค ลานอเนกประสงค์ อาคาร 1","2023-05-31T00:00:00",10,7.1,9.7,37.3,23.9],
    [188,"FF1721AC76217483","กรมควบคุมโรค ลานอเนกประสงค์ อาคาร 1","2023-05-31T00:00:00",11,8.6,11.3,38,22.4],
    [189,"FF1721AC76217483","กรมควบคุมโรค ลานอเนกประสงค์ อาคาร 1","2023-05-31T00:00:00",12,8.8,10.8,37.2,22.8],
    [190,"FF1721AC76217483","กรมควบคุมโรค ลานอเนกประสงค์ อาคาร 1","2023-05-31T00:00:00",13,8.2,11.7,37.2,22.7],
    [191,"FF1721AC76217483","กรมควบคุมโรค ลานอเนกประสงค์ อาคาร 1","2023-05-31T00:00:00",14,14.8,20.4,34.4,26.2],
    [192,"FF1721AC76217483","กรมควบคุมโรค ลานอเนกประสงค์ อาคาร 1","2023-05-31T00:00:00",15,15.9,20.4,34,26.3],
    [193,"FF1721AC76217483","กรมควบคุมโรค ลานอเนกประสงค์ อาคาร 1","2023-05-31T00:00:00",16,16.8,22,33.9,26.1],
    [194,"FF1721AC76217483","กรมควบคุมโรค ลานอเนกประสงค์ อาคาร 1","2023-05-31T00:00:00",17,21,27.4,33.3,26.9],
    [195,"FF1721AC76217483","กรมควบคุมโรค ลานอเนกประสงค์ อาคาร 1","2023-05-31T00:00:00",18,20.5,30.1,32.3,28.6],
    [196,"FF1721AC76217483","กรมควบคุมโรค ลานอเนกประสงค์ อาคาร 1","2023-05-31T00:00:00",19,21.5,27.8,31.1,30.5],
    [197,"FF1721AC76217483","กรมควบคุมโรค ลานอเนกประสงค์ อาคาร 1","2023-05-31T00:00:00",20,22.6,31.7,30.9,32],
    [198,"FF1721AC76217483","กรมควบคุมโรค ลานอเนกประสงค์ อาคาร 1","2023-05-31T00:00:00",21,21.9,30.7,31.2,31.5],
    [199,"FF1721AC76217483","กรมควบคุมโรค ลานอเนกประสงค์ อาคาร 1","2023-05-31T00:00:00",22,22.5,30.4,31.1,32.2],
    [200,"FF1721AC76217483","กรมควบคุมโรค ลานอเนกประสงค์ อาคาร 1","2023-05-31T00:00:00",23,23.5,30.9,30.3,32.1],
    [201,"FF1721AC76217484","กองดิจิทัลเพื่อการควบคุมโรค","2023-05-31T00:00:00",0,17.8,25,25.3,45.9],
    [202,"FF1721AC76217484","กองดิจิทัลเพื่อการควบคุมโรค","2023-05-31T00:00:00",1,26.9,39.9,25.7,45.6],
    [203,"FF1721AC76217484","กองดิจิทัลเพื่อการควบคุมโรค","2023-05-31T00:00:00",2,42.8,68.3,25.5,45.1],
    [204,"FF1721AC76217484","กองดิจิทัลเพื่อการควบคุมโรค","2023-05-31T00:00:00",3,40.8,65.6,25.6,45.5],
    [205,"FF1721AC76217484","กองดิจิทัลเพื่อการควบคุมโรค","2023-05-31T00:00:00",4,40.2,61.3,25.8,45.2],
    [206,"FF1721AC76217484","กองดิจิทัลเพื่อการควบคุมโรค","2023-05-31T00:00:00",5,38.1,58.2,25.4,45.6],
    [207,"FF1721AC76217484","กองดิจิทัลเพื่อการควบคุมโรค","2023-05-31T00:00:00",6,43,68.2,25.5,46.1],
    [208,"FF1721AC76217484","กองดิจิทัลเพื่อการควบคุมโรค","2023-05-31T00:00:00",7,32.6,51.1,26.8,42],
    [209,"FF1721AC76217484","กองดิจิทัลเพื่อการควบคุมโรค","2023-05-31T00:00:00",8,12.8,17.3,27.2,39],
    [210,"FF1721AC76217484","กองดิจิทัลเพื่อการควบคุมโรค","2023-05-31T00:00:00",9,8.4,10.7,29,34.9],
    [211,"FF1721AC76217484","กองดิจิทัลเพื่อการควบคุมโรค","2023-05-31T00:00:00",10,8.6,11.6,31.2,31.5],
    [212,"FF1721AC76217484","กองดิจิทัลเพื่อการควบคุมโรค","2023-05-31T00:00:00",11,9.5,13,33.1,28],
    [213,"FF1721AC76217484","กองดิจิทัลเพื่อการควบคุมโรค","2023-05-31T00:00:00",12,8.3,14.1,33.3,27.4],
    [214,"FF1721AC76217484","กองดิจิทัลเพื่อการควบคุมโรค","2023-05-31T00:00:00",13,7.9,10.6,34,26.7],
    [215,"FF1721AC76217484","กองดิจิทัลเพื่อการควบคุมโรค","2023-05-31T00:00:00",14,14,18.3,32.7,29.3],
    [216,"FF1721AC76217484","กองดิจิทัลเพื่อการควบคุมโรค","2023-05-31T00:00:00",15,15.6,20.7,33.2,28.3],
    [217,"FF1721AC76217484","กองดิจิทัลเพื่อการควบคุมโรค","2023-05-31T00:00:00",16,16.3,21.6,33.2,28.3],
    [218,"FF1721AC76217484","กองดิจิทัลเพื่อการควบคุมโรค","2023-05-31T00:00:00",17,19.2,25.7,32.5,29.4],
    [219,"FF1721AC76217484","กองดิจิทัลเพื่อการควบคุมโรค","2023-05-31T00:00:00",18,20.4,30.6,30.9,31.8],
    [220,"FF1721AC76217484","กองดิจิทัลเพื่อการควบคุมโรค","2023-05-31T00:00:00",19,21,30.7,29.7,34.1],
    [221,"FF1721AC76217484","กองดิจิทัลเพื่อการควบคุมโรค","2023-05-31T00:00:00",20,23.3,32.8,29.4,36],
    [222,"FF1721AC76217484","กองดิจิทัลเพื่อการควบคุมโรค","2023-05-31T00:00:00",21,22.1,30,29.6,35.5],
    [223,"FF1721AC76217484","กองดิจิทัลเพื่อการควบคุมโรค","2023-05-31T00:00:00",22,22.8,30.6,29.3,36.5],
    [224,"FF1721AC76217484","กองดิจิทัลเพื่อการควบคุมโรค","2023-05-31T00:00:00",23,24.5,35.1,29.1,35.6],
    [225,"FF1721AC76217483","กรมควบคุมโรค ลานอเนกประสงค์ อาคาร 1","2023-01-06T00:00:00",0,19.4,25.4,30,31.1],
    [226,"FF1721AC76217483","กรมควบคุมโรค ลานอเนกประสงค์ อาคาร 1","2023-01-06T00:00:00",1,18.2,22.7,29.6,31],
    [227,"FF1721AC76217483","กรมควบคุมโรค ลานอเนกประสงค์ อาคาร 1","2023-01-06T00:00:00",2,17.9,23.5,29.8,31.1],
    [228,"FF1721AC76217483","กรมควบคุมโรค ลานอเนกประสงค์ อาคาร 1","2023-01-06T00:00:00",3,19.1,26.1,29.3,31.8],
    [229,"FF1721AC76217483","กรมควบคุมโรค ลานอเนกประสงค์ อาคาร 1","2023-01-06T00:00:00",4,19.2,26.9,28.8,32.7],
    [230,"FF1721AC76217483","กรมควบคุมโรค ลานอเนกประสงค์ อาคาร 1","2023-01-06T00:00:00",5,19.6,26.9,28.8,32.6],
    [231,"FF1721AC76217483","กรมควบคุมโรค ลานอเนกประสงค์ อาคาร 1","2023-01-06T00:00:00",6,17.7,23.6,29,32.4],
    [232,"FF1721AC76217483","กรมควบคุมโรค ลานอเนกประสงค์ อาคาร 1","2023-01-06T00:00:00",7,18.9,23.8,29.6,31.4],
    [233,"FF1721AC76217483","กรมควบคุมโรค ลานอเนกประสงค์ อาคาร 1","2023-01-06T00:00:00",8,19.3,28,30.7,29.6],
    [234,"FF1721AC76217483","กรมควบคุมโรค ลานอเนกประสงค์ อาคาร 1","2023-01-06T00:00:00",9,21.6,29.6,32.1,28],
    [235,"FF1721AC76217483","กรมควบคุมโรค ลานอเนกประสงค์ อาคาร 1","2023-01-06T00:00:00",10,24.2,32,34.5,24.9],
    [236,"FF1721AC76217483","กรมควบคุมโรค ลานอเนกประสงค์ อาคาร 1","2023-01-06T00:00:00",11,21.6,30.1,37.2,22.9],
    [237,"FF1721AC76217483","กรมควบคุมโรค ลานอเนกประสงค์ อาคาร 1","2023-01-06T00:00:00",12,22,28.2,38,22],
    [238,"FF1721AC76217483","กรมควบคุมโรค ลานอเนกประสงค์ อาคาร 1","2023-01-06T00:00:00",13,22,29.8,37.6,22.2],
    [239,"FF1721AC76217483","กรมควบคุมโรค ลานอเนกประสงค์ อาคาร 1","2023-01-06T00:00:00",14,23.9,31.1,35.3,23.7],
    [240,"FF1721AC76217483","กรมควบคุมโรค ลานอเนกประสงค์ อาคาร 1","2023-01-06T00:00:00",15,23.2,30.4,35.3,23.4],
    [241,"FF1721AC76217483","กรมควบคุมโรค ลานอเนกประสงค์ อาคาร 1","2023-01-06T00:00:00",16,26.2,35.2,34.6,24.4],
    [242,"FF1721AC76217483","กรมควบคุมโรค ลานอเนกประสงค์ อาคาร 1","2023-01-06T00:00:00",17,28,37.3,33.4,27.3],
    [243,"FF1721AC76217483","กรมควบคุมโรค ลานอเนกประสงค์ อาคาร 1","2023-01-06T00:00:00",18,26.8,36.8,31.7,29.9],
    [244,"FF1721AC76217483","กรมควบคุมโรค ลานอเนกประสงค์ อาคาร 1","2023-01-06T00:00:00",19,26.2,36.7,30.8,32.7],
    [245,"FF1721AC76217483","กรมควบคุมโรค ลานอเนกประสงค์ อาคาร 1","2023-01-06T00:00:00",20,24.5,35.5,30.6,33.7],
    [246,"FF1721AC76217483","กรมควบคุมโรค ลานอเนกประสงค์ อาคาร 1","2023-01-06T00:00:00",21,25.5,31.7,30.8,33.8],
    [247,"FF1721AC76217483","กรมควบคุมโรค ลานอเนกประสงค์ อาคาร 1","2023-01-06T00:00:00",22,23.6,33,30.9,34],
    [248,"FF1721AC76217483","กรมควบคุมโรค ลานอเนกประสงค์ อาคาร 1","2023-01-06T00:00:00",23,23.8,34.5,30.9,34.4],
    [249,"FF1721AC76217484","กองดิจิทัลเพื่อการควบคุมโรค","2023-01-06T00:00:00",0,19.8,27.6,28.5,35.1],
    [250,"FF1721AC76217484","กองดิจิทัลเพื่อการควบคุมโรค","2023-01-06T00:00:00",1,17.5,23.1,28.2,34.9],
    [251,"FF1721AC76217484","กองดิจิทัลเพื่อการควบคุมโรค","2023-01-06T00:00:00",2,18,24.8,28.1,35.4],
    [252,"FF1721AC76217484","กองดิจิทัลเพื่อการควบคุมโรค","2023-01-06T00:00:00",3,18.9,27.2,27.7,35.8],
    [253,"FF1721AC76217484","กองดิจิทัลเพื่อการควบคุมโรค","2023-01-06T00:00:00",4,20.1,29.2,27.4,36.7],
    [254,"FF1721AC76217484","กองดิจิทัลเพื่อการควบคุมโรค","2023-01-06T00:00:00",5,18.8,25.8,27.2,36.7],
    [255,"FF1721AC76217484","กองดิจิทัลเพื่อการควบคุมโรค","2023-01-06T00:00:00",6,17.3,23.2,27.4,36.6],
    [256,"FF1721AC76217484","กองดิจิทัลเพื่อการควบคุมโรค","2023-01-06T00:00:00",7,18.9,25.4,27.8,35.7],
    [257,"FF1721AC76217484","กองดิจิทัลเพื่อการควบคุมโรค","2023-01-06T00:00:00",8,19.4,27.9,28.7,33.8],
    [258,"FF1721AC76217484","กองดิจิทัลเพื่อการควบคุมโรค","2023-01-06T00:00:00",9,22.1,32.3,29.7,32.3],
    [259,"FF1721AC76217484","กองดิจิทัลเพื่อการควบคุมโรค","2023-01-06T00:00:00",10,23.3,31.7,31.1,29.8],
    [260,"FF1721AC76217484","กองดิจิทัลเพื่อการควบคุมโรค","2023-01-06T00:00:00",11,22.2,32.2,33.2,27.7],
    [261,"FF1721AC76217484","กองดิจิทัลเพื่อการควบคุมโรค","2023-01-06T00:00:00",12,22.8,31.5,33.7,27.4],
    [262,"FF1721AC76217484","กองดิจิทัลเพื่อการควบคุมโรค","2023-01-06T00:00:00",13,22.2,33.5,34.2,26.4],
    [263,"FF1721AC76217484","กองดิจิทัลเพื่อการควบคุมโรค","2023-01-06T00:00:00",14,21.8,31.5,34.5,25.2],
    [264,"FF1721AC76217484","กองดิจิทัลเพื่อการควบคุมโรค","2023-01-06T00:00:00",15,21.3,31.4,34.9,24.6],
    [265,"FF1721AC76217484","กองดิจิทัลเพื่อการควบคุมโรค","2023-01-06T00:00:00",16,23.9,33.3,34.1,25.7],
    [266,"FF1721AC76217484","กองดิจิทัลเพื่อการควบคุมโรค","2023-01-06T00:00:00",17,27.4,42.6,32.5,29.8],
    [267,"FF1721AC76217484","กองดิจิทัลเพื่อการควบคุมโรค","2023-01-06T00:00:00",18,26.4,39.1,30.5,33.4],
    [268,"FF1721AC76217484","กองดิจิทัลเพื่อการควบคุมโรค","2023-01-06T00:00:00",19,27.1,40.4,29.3,36.8],
    [269,"FF1721AC76217484","กองดิจิทัลเพื่อการควบคุมโรค","2023-01-06T00:00:00",20,26.1,37.5,29.1,37.5],
    [270,"FF1721AC76217484","กองดิจิทัลเพื่อการควบคุมโรค","2023-01-06T00:00:00",21,24.5,35.4,29.3,37.7],
    [271,"FF1721AC76217484","กองดิจิทัลเพื่อการควบคุมโรค","2023-01-06T00:00:00",22,24.6,37.7,29.3,38.2],
    [272,"FF1721AC76217484","กองดิจิทัลเพื่อการควบคุมโรค","2023-01-06T00:00:00",23,25.6,36.4,29.3,38.6],
    [273,"FF1721AC76217483","กรมควบคุมโรค ลานอเนกประสงค์ อาคาร 1","2023-02-06T00:00:00",0,28.8,38.7,30.3,33.4],
    [274,"FF1721AC76217483","กรมควบคุมโรค ลานอเนกประสงค์ อาคาร 1","2023-02-06T00:00:00",1,30.8,43.9,29.7,31.8],
    [275,"FF1721AC76217483","กรมควบคุมโรค ลานอเนกประสงค์ อาคาร 1","2023-02-06T00:00:00",2,30,43.2,29.5,30.7],
    [276,"FF1721AC76217483","กรมควบคุมโรค ลานอเนกประสงค์ อาคาร 1","2023-02-06T00:00:00",3,29.2,40.2,29.3,30.8],
    [277,"FF1721AC76217483","กรมควบคุมโรค ลานอเนกประสงค์ อาคาร 1","2023-02-06T00:00:00",4,33.9,49.4,28.9,32],
    [278,"FF1721AC76217483","กรมควบคุมโรค ลานอเนกประสงค์ อาคาร 1","2023-02-06T00:00:00",5,35.8,52.2,28.5,32.5],
    [279,"FF1721AC76217483","กรมควบคุมโรค ลานอเนกประสงค์ อาคาร 1","2023-02-06T00:00:00",6,32.8,48,28.9,32],
    [280,"FF1721AC76217483","กรมควบคุมโรค ลานอเนกประสงค์ อาคาร 1","2023-02-06T00:00:00",7,27.1,37.6,30.5,29.7],
    [281,"FF1721AC76217483","กรมควบคุมโรค ลานอเนกประสงค์ อาคาร 1","2023-02-06T00:00:00",8,21.8,30.5,33.3,26.5],
    [282,"FF1721AC76217483","กรมควบคุมโรค ลานอเนกประสงค์ อาคาร 1","2023-02-06T00:00:00",9,19,27.1,36.6,23.4],
    [283,"FF1721AC76217483","กรมควบคุมโรค ลานอเนกประสงค์ อาคาร 1","2023-02-06T00:00:00",10,17.5,23.1,37.2,22.4],
    [284,"FF1721AC76217483","กรมควบคุมโรค ลานอเนกประสงค์ อาคาร 1","2023-02-06T00:00:00",11,17.3,23.1,38.6,21.3],
    [285,"FF1721AC76217483","กรมควบคุมโรค ลานอเนกประสงค์ อาคาร 1","2023-02-06T00:00:00",12,17.8,24.5,37.7,22.1],
    [286,"FF1721AC76217483","กรมควบคุมโรค ลานอเนกประสงค์ อาคาร 1","2023-02-06T00:00:00",13,20.3,26.8,37.7,21.7],
    [287,"FF1721AC76217483","กรมควบคุมโรค ลานอเนกประสงค์ อาคาร 1","2023-02-06T00:00:00",14,20,25.7,35.8,23.2],
    [288,"FF1721AC76217483","กรมควบคุมโรค ลานอเนกประสงค์ อาคาร 1","2023-02-06T00:00:00",15,19.1,24.4,35.7,23.3],
    [289,"FF1721AC76217483","กรมควบคุมโรค ลานอเนกประสงค์ อาคาร 1","2023-02-06T00:00:00",16,27.8,37.3,34.7,25.8],
    [290,"FF1721AC76217483","กรมควบคุมโรค ลานอเนกประสงค์ อาคาร 1","2023-02-06T00:00:00",17,25.8,35.8,33.8,27.4],
    [291,"FF1721AC76217483","กรมควบคุมโรค ลานอเนกประสงค์ อาคาร 1","2023-02-06T00:00:00",18,22.6,30.8,32,29.6],
    [292,"FF1721AC76217483","กรมควบคุมโรค ลานอเนกประสงค์ อาคาร 1","2023-02-06T00:00:00",19,22.8,28.8,31.2,31],
    [293,"FF1721AC76217483","กรมควบคุมโรค ลานอเนกประสงค์ อาคาร 1","2023-02-06T00:00:00",20,18.4,25.9,31.9,30.6],
    [294,"FF1721AC76217483","กรมควบคุมโรค ลานอเนกประสงค์ อาคาร 1","2023-02-06T00:00:00",21,14.3,22.5,31.7,32],
    [295,"FF1721AC76217483","กรมควบคุมโรค ลานอเนกประสงค์ อาคาร 1","2023-02-06T00:00:00",22,13.9,19.7,31.6,32.1],
    [296,"FF1721AC76217483","กรมควบคุมโรค ลานอเนกประสงค์ อาคาร 1","2023-02-06T00:00:00",23,14.6,18.8,31.2,32.2],
    [297,"FF1721AC76217484","กองดิจิทัลเพื่อการควบคุมโรค","2023-02-06T00:00:00",0,28.7,41.5,28.8,37.5],
    [298,"FF1721AC76217484","กองดิจิทัลเพื่อการควบคุมโรค","2023-02-06T00:00:00",1,31.5,44.8,28.4,35.4],
    [299,"FF1721AC76217484","กองดิจิทัลเพื่อการควบคุมโรค","2023-02-06T00:00:00",2,30.6,46.6,28,34.6],
    [300,"FF1721AC76217484","กองดิจิทัลเพื่อการควบคุมโรค","2023-02-06T00:00:00",3,30.3,44.1,27.5,35.3],
    [301,"FF1721AC76217484","กองดิจิทัลเพื่อการควบคุมโรค","2023-02-06T00:00:00",4,33.7,51.2,27,36.5],
    [302,"FF1721AC76217484","กองดิจิทัลเพื่อการควบคุมโรค","2023-02-06T00:00:00",5,35.1,53.8,26.8,36.9],
    [303,"FF1721AC76217484","กองดิจิทัลเพื่อการควบคุมโรค","2023-02-06T00:00:00",6,32.8,47.3,27.2,36.3],
    [304,"FF1721AC76217484","กองดิจิทัลเพื่อการควบคุมโรค","2023-02-06T00:00:00",7,27.9,40.6,28,34.8],
    [305,"FF1721AC76217484","กองดิจิทัลเพื่อการควบคุมโรค","2023-02-06T00:00:00",8,23.9,34,29.1,32.8],
    [306,"FF1721AC76217484","กองดิจิทัลเพื่อการควบคุมโรค","2023-02-06T00:00:00",9,23.6,31.5,30.6,31],
    [307,"FF1721AC76217484","กองดิจิทัลเพื่อการควบคุมโรค","2023-02-06T00:00:00",10,20.1,28.2,31.5,29.6],
    [308,"FF1721AC76217484","กองดิจิทัลเพื่อการควบคุมโรค","2023-02-06T00:00:00",11,17.7,26.2,33.1,27.5],
    [309,"FF1721AC76217484","กองดิจิทัลเพื่อการควบคุมโรค","2023-02-06T00:00:00",12,19.6,29.3,33.8,26.8],
    [310,"FF1721AC76217484","กองดิจิทัลเพื่อการควบคุมโรค","2023-02-06T00:00:00",13,20.1,25.9,34.6,25.4],
    [311,"FF1721AC76217484","กองดิจิทัลเพื่อการควบคุมโรค","2023-02-06T00:00:00",14,18.5,26.2,35.2,24.4],
    [312,"FF1721AC76217484","กองดิจิทัลเพื่อการควบคุมโรค","2023-02-06T00:00:00",15,18.5,24.8,35.2,24.5],
    [313,"FF1721AC76217484","กองดิจิทัลเพื่อการควบคุมโรค","2023-02-06T00:00:00",16,26.2,39.4,34.1,27.6],
    [314,"FF1721AC76217484","กองดิจิทัลเพื่อการควบคุมโรค","2023-02-06T00:00:00",17,26.1,36,32.7,29.9],
    [315,"FF1721AC76217484","กองดิจิทัลเพื่อการควบคุมโรค","2023-02-06T00:00:00",18,21.7,33.4,30.6,33.1],
    [316,"FF1721AC76217484","กองดิจิทัลเพื่อการควบคุมโรค","2023-02-06T00:00:00",19,22.4,33,29.9,34.8],
    [317,"FF1721AC76217484","กองดิจิทัลเพื่อการควบคุมโรค","2023-02-06T00:00:00",20,18.6,26.5,30.2,34.7],
    [318,"FF1721AC76217484","กองดิจิทัลเพื่อการควบคุมโรค","2023-02-06T00:00:00",21,16.6,20.8,29.9,36.2],
    [319,"FF1721AC76217484","กองดิจิทัลเพื่อการควบคุมโรค","2023-02-06T00:00:00",22,14.9,20,29.9,36.4],
    [320,"FF1721AC76217484","กองดิจิทัลเพื่อการควบคุมโรค","2023-02-06T00:00:00",23,14.3,19.8,29.6,36.6],
    [321,"FF1721AC76217483","กรมควบคุมโรค ลานอเนกประสงค์ อาคาร 1","2023-03-06T00:00:00",0,22,30,30.2,32.2],
    [322,"FF1721AC76217483","กรมควบคุมโรค ลานอเนกประสงค์ อาคาร 1","2023-03-06T00:00:00",1,21.1,28.7,29.8,31.4],
    [323,"FF1721AC76217483","กรมควบคุมโรค ลานอเนกประสงค์ อาคาร 1","2023-03-06T00:00:00",2,20.3,29.2,29.2,31.8],
    [324,"FF1721AC76217483","กรมควบคุมโรค ลานอเนกประสงค์ อาคาร 1","2023-03-06T00:00:00",3,20.8,26.2,28.8,32.1],
    [325,"FF1721AC76217483","กรมควบคุมโรค ลานอเนกประสงค์ อาคาร 1","2023-03-06T00:00:00",4,22.1,28.4,28.9,31.8],
    [326,"FF1721AC76217483","กรมควบคุมโรค ลานอเนกประสงค์ อาคาร 1","2023-03-06T00:00:00",5,23.5,32.3,28.7,31.9],
    [327,"FF1721AC76217483","กรมควบคุมโรค ลานอเนกประสงค์ อาคาร 1","2023-03-06T00:00:00",6,24.8,32.9,29.1,31.1],
    [328,"FF1721AC76217483","กรมควบคุมโรค ลานอเนกประสงค์ อาคาร 1","2023-03-06T00:00:00",7,22.8,33.4,30,29.5],
    [329,"FF1721AC76217483","กรมควบคุมโรค ลานอเนกประสงค์ อาคาร 1","2023-03-06T00:00:00",8,23.1,30.3,32.1,27],
    [330,"FF1721AC76217483","กรมควบคุมโรค ลานอเนกประสงค์ อาคาร 1","2023-03-06T00:00:00",9,21.6,28.3,34.4,24.6],
    [331,"FF1721AC76217483","กรมควบคุมโรค ลานอเนกประสงค์ อาคาร 1","2023-03-06T00:00:00",10,25.8,33.9,35.6,24],
    [332,"FF1721AC76217483","กรมควบคุมโรค ลานอเนกประสงค์ อาคาร 1","2023-03-06T00:00:00",11,23.9,31,35.9,23.6],
    [333,"FF1721AC76217483","กรมควบคุมโรค ลานอเนกประสงค์ อาคาร 1","2023-03-06T00:00:00",12,21.3,29.8,36.6,23.4],
    [334,"FF1721AC76217483","กรมควบคุมโรค ลานอเนกประสงค์ อาคาร 1","2023-03-06T00:00:00",13,21.8,30,37.1,22.8],
    [335,"FF1721AC76217483","กรมควบคุมโรค ลานอเนกประสงค์ อาคาร 1","2023-03-06T00:00:00",14,20.8,28.1,34.7,25.1],
    [336,"FF1721AC76217483","กรมควบคุมโรค ลานอเนกประสงค์ อาคาร 1","2023-03-06T00:00:00",15,19.2,25.5,34.2,25.4],
    [337,"FF1721AC76217483","กรมควบคุมโรค ลานอเนกประสงค์ อาคาร 1","2023-03-06T00:00:00",16,15.1,20.8,34.6,23.7],
    [338,"FF1721AC76217483","กรมควบคุมโรค ลานอเนกประสงค์ อาคาร 1","2023-03-06T00:00:00",17,20,25.2,34.6,24.1],
    [339,"FF1721AC76217483","กรมควบคุมโรค ลานอเนกประสงค์ อาคาร 1","2023-03-06T00:00:00",18,20.4,28.7,32.5,28.8],
    [340,"FF1721AC76217483","กรมควบคุมโรค ลานอเนกประสงค์ อาคาร 1","2023-03-06T00:00:00",19,18.9,26.6,31.1,31],
    [341,"FF1721AC76217483","กรมควบคุมโรค ลานอเนกประสงค์ อาคาร 1","2023-03-06T00:00:00",20,15.4,20.9,31,31.1],
    [342,"FF1721AC76217483","กรมควบคุมโรค ลานอเนกประสงค์ อาคาร 1","2023-03-06T00:00:00",21,11.3,15.4,30.6,33.4],
    [343,"FF1721AC76217483","กรมควบคุมโรค ลานอเนกประสงค์ อาคาร 1","2023-03-06T00:00:00",22,8,12.7,30.5,33.1],
    [344,"FF1721AC76217483","กรมควบคุมโรค ลานอเนกประสงค์ อาคาร 1","2023-03-06T00:00:00",23,7.5,10.1,31.1,32.2],
    [345,"FF1721AC76217484","กองดิจิทัลเพื่อการควบคุมโรค","2023-03-06T00:00:00",0,21.5,32.7,28.7,35.9],
    [346,"FF1721AC76217484","กองดิจิทัลเพื่อการควบคุมโรค","2023-03-06T00:00:00",1,22.1,28,28,35.7],
    [347,"FF1721AC76217484","กองดิจิทัลเพื่อการควบคุมโรค","2023-03-06T00:00:00",2,20,31,27.6,35.8],
    [348,"FF1721AC76217484","กองดิจิทัลเพื่อการควบคุมโรค","2023-03-06T00:00:00",3,19.9,32.1,27.2,36.2],
    [349,"FF1721AC76217484","กองดิจิทัลเพื่อการควบคุมโรค","2023-03-06T00:00:00",4,21.2,29.7,27,36.3],
    [350,"FF1721AC76217484","กองดิจิทัลเพื่อการควบคุมโรค","2023-03-06T00:00:00",5,24.1,33.4,27,36.2],
    [351,"FF1721AC76217484","กองดิจิทัลเพื่อการควบคุมโรค","2023-03-06T00:00:00",6,24.4,35.2,27.1,35.7],
    [352,"FF1721AC76217484","กองดิจิทัลเพื่อการควบคุมโรค","2023-03-06T00:00:00",7,24.3,34.8,27.9,34],
    [353,"FF1721AC76217484","กองดิจิทัลเพื่อการควบคุมโรค","2023-03-06T00:00:00",8,23.2,32.8,28.9,32.3],
    [354,"FF1721AC76217484","กองดิจิทัลเพื่อการควบคุมโรค","2023-03-06T00:00:00",9,21.9,34.8,29.8,30.9],
    [355,"FF1721AC76217484","กองดิจิทัลเพื่อการควบคุมโรค","2023-03-06T00:00:00",10,26,38.9,31.4,29.4],
    [356,"FF1721AC76217484","กองดิจิทัลเพื่อการควบคุมโรค","2023-03-06T00:00:00",11,22.7,32.7,33,27.6],
    [357,"FF1721AC76217484","กองดิจิทัลเพื่อการควบคุมโรค","2023-03-06T00:00:00",12,21.5,29.5,33.5,27.3],
    [358,"FF1721AC76217484","กองดิจิทัลเพื่อการควบคุมโรค","2023-03-06T00:00:00",13,22.6,29.1,34.5,25.5],
    [359,"FF1721AC76217484","กองดิจิทัลเพื่อการควบคุมโรค","2023-03-06T00:00:00",14,19.3,24.3,35.5,24.8],
    [360,"FF1721AC76217484","กองดิจิทัลเพื่อการควบคุมโรค","2023-03-06T00:00:00",15,17.4,24.4,34.2,26.2],
    [361,"FF1721AC76217484","กองดิจิทัลเพื่อการควบคุมโรค","2023-03-06T00:00:00",16,13.8,22.1,35.1,23.4],
    [362,"FF1721AC76217484","กองดิจิทัลเพื่อการควบคุมโรค","2023-03-06T00:00:00",17,18.6,28.5,34,25.4],
    [363,"FF1721AC76217484","กองดิจิทัลเพื่อการควบคุมโรค","2023-03-06T00:00:00",18,19,30.1,31.1,32.2],
    [364,"FF1721AC76217484","กองดิจิทัลเพื่อการควบคุมโรค","2023-03-06T00:00:00",19,18.5,28.1,30,34.5],
    [365,"FF1721AC76217484","กองดิจิทัลเพื่อการควบคุมโรค","2023-03-06T00:00:00",20,16,21.7,29.8,34.6],
    [366,"FF1721AC76217484","กองดิจิทัลเพื่อการควบคุมโรค","2023-03-06T00:00:00",21,11.4,17.2,29.4,36.9],
    [367,"FF1721AC76217484","กองดิจิทัลเพื่อการควบคุมโรค","2023-03-06T00:00:00",22,8.2,11.5,29,37.1],
    [368,"FF1721AC76217484","กองดิจิทัลเพื่อการควบคุมโรค","2023-03-06T00:00:00",23,7.8,12,29.4,36.4],
    [369,"FF1721AC76217483","กรมควบคุมโรค ลานอเนกประสงค์ อาคาร 1","2023-04-06T00:00:00",0,8.1,11.2,30.8,32.5],
    [370,"FF1721AC76217483","กรมควบคุมโรค ลานอเนกประสงค์ อาคาร 1","2023-04-06T00:00:00",1,10.8,16.9,30.6,32.6],
    [371,"FF1721AC76217483","กรมควบคุมโรค ลานอเนกประสงค์ อาคาร 1","2023-04-06T00:00:00",2,8.9,13.8,29.8,30.9],
    [372,"FF1721AC76217483","กรมควบคุมโรค ลานอเนกประสงค์ อาคาร 1","2023-04-06T00:00:00",3,9.6,12.9,29.8,31],
    [373,"FF1721AC76217483","กรมควบคุมโรค ลานอเนกประสงค์ อาคาร 1","2023-04-06T00:00:00",4,15.3,21.1,29.6,32.4],
    [374,"FF1721AC76217483","กรมควบคุมโรค ลานอเนกประสงค์ อาคาร 1","2023-04-06T00:00:00",5,13.4,18.3,29.4,32.6],
    [375,"FF1721AC76217483","กรมควบคุมโรค ลานอเนกประสงค์ อาคาร 1","2023-04-06T00:00:00",6,11.1,17.4,30,31.9],
    [376,"FF1721AC76217483","กรมควบคุมโรค ลานอเนกประสงค์ อาคาร 1","2023-04-06T00:00:00",7,9.5,13.8,30.6,31.3],
    [377,"FF1721AC76217483","กรมควบคุมโรค ลานอเนกประสงค์ อาคาร 1","2023-04-06T00:00:00",8,8.3,11.9,32,29.4],
    [378,"FF1721AC76217483","กรมควบคุมโรค ลานอเนกประสงค์ อาคาร 1","2023-04-06T00:00:00",9,7.3,9.4,33.3,27.2],
    [379,"FF1721AC76217483","กรมควบคุมโรค ลานอเนกประสงค์ อาคาร 1","2023-04-06T00:00:00",10,6.3,8.9,35.4,24.5],
    [380,"FF1721AC76217483","กรมควบคุมโรค ลานอเนกประสงค์ อาคาร 1","2023-04-06T00:00:00",11,6.5,8.2,36.6,23.5],
    [381,"FF1721AC76217483","กรมควบคุมโรค ลานอเนกประสงค์ อาคาร 1","2023-04-06T00:00:00",12,5.3,7.7,36.9,22.9],
    [382,"FF1721AC76217483","กรมควบคุมโรค ลานอเนกประสงค์ อาคาร 1","2023-04-06T00:00:00",13,6.4,8.8,36.8,23.3],
    [383,"FF1721AC76217483","กรมควบคุมโรค ลานอเนกประสงค์ อาคาร 1","2023-04-06T00:00:00",14,7.2,8.5,35.2,25.6],
    [384,"FF1721AC76217483","กรมควบคุมโรค ลานอเนกประสงค์ อาคาร 1","2023-04-06T00:00:00",15,5.5,8.4,33.1,28],
    [385,"FF1721AC76217483","กรมควบคุมโรค ลานอเนกประสงค์ อาคาร 1","2023-04-06T00:00:00",16,7.1,9.9,32.6,28.4],
    [386,"FF1721AC76217483","กรมควบคุมโรค ลานอเนกประสงค์ อาคาร 1","2023-04-06T00:00:00",17,5.3,7.1,32.5,28.2],
    [387,"FF1721AC76217483","กรมควบคุมโรค ลานอเนกประสงค์ อาคาร 1","2023-04-06T00:00:00",18,3.9,5.7,31.7,29.3],
    [388,"FF1721AC76217483","กรมควบคุมโรค ลานอเนกประสงค์ อาคาร 1","2023-04-06T00:00:00",19,5.3,7.4,31.3,31.2],
    [389,"FF1721AC76217483","กรมควบคุมโรค ลานอเนกประสงค์ อาคาร 1","2023-04-06T00:00:00",20,7.4,10,30.6,33.2],
    [390,"FF1721AC76217483","กรมควบคุมโรค ลานอเนกประสงค์ อาคาร 1","2023-04-06T00:00:00",21,9.9,15.1,30.9,33.1],
    [391,"FF1721AC76217483","กรมควบคุมโรค ลานอเนกประสงค์ อาคาร 1","2023-04-06T00:00:00",22,8.1,11.9,31.3,32.2],
    [392,"FF1721AC76217483","กรมควบคุมโรค ลานอเนกประสงค์ อาคาร 1","2023-04-06T00:00:00",23,7.6,10.8,30.8,32.4],
    [393,"FF1721AC76217484","กองดิจิทัลเพื่อการควบคุมโรค","2023-04-06T00:00:00",0,8.9,11.6,29.1,36.7],
    [394,"FF1721AC76217484","กองดิจิทัลเพื่อการควบคุมโรค","2023-04-06T00:00:00",1,11.8,16.4,28.9,37],
    [395,"FF1721AC76217484","กองดิจิทัลเพื่อการควบคุมโรค","2023-04-06T00:00:00",2,9.5,12.4,28.5,34.4],
    [396,"FF1721AC76217484","กองดิจิทัลเพื่อการควบคุมโรค","2023-04-06T00:00:00",3,10.4,14.5,28.1,35.4],
    [397,"FF1721AC76217484","กองดิจิทัลเพื่อการควบคุมโรค","2023-04-06T00:00:00",4,15.1,22.3,27.8,36.9],
    [398,"FF1721AC76217484","กองดิจิทัลเพื่อการควบคุมโรค","2023-04-06T00:00:00",5,13,17.4,27.8,36.7],
    [399,"FF1721AC76217484","กองดิจิทัลเพื่อการควบคุมโรค","2023-04-06T00:00:00",6,11.9,17.6,28.2,36.1],
    [400,"FF1721AC76217484","กองดิจิทัลเพื่อการควบคุมโรค","2023-04-06T00:00:00",7,9.4,15,28.6,35.4],
    [401,"FF1721AC76217484","กองดิจิทัลเพื่อการควบคุมโรค","2023-04-06T00:00:00",8,9.2,12.2,29.3,34.7],
    [402,"FF1721AC76217484","กองดิจิทัลเพื่อการควบคุมโรค","2023-04-06T00:00:00",9,8,10.3,30,32.3],
    [403,"FF1721AC76217484","กองดิจิทัลเพื่อการควบคุมโรค","2023-04-06T00:00:00",10,6.8,9.2,31.3,30.2],
    [404,"FF1721AC76217484","กองดิจิทัลเพื่อการควบคุมโรค","2023-04-06T00:00:00",11,6.4,8.1,33.7,27.5],
    [405,"FF1721AC76217484","กองดิจิทัลเพื่อการควบคุมโรค","2023-04-06T00:00:00",12,5.7,6.9,34.7,26.2],
    [406,"FF1721AC76217484","กองดิจิทัลเพื่อการควบคุมโรค","2023-04-06T00:00:00",13,6.2,8.1,34.3,26.3],
    [407,"FF1721AC76217484","กองดิจิทัลเพื่อการควบคุมโรค","2023-04-06T00:00:00",14,6.6,9.1,33.5,28.3],
    [408,"FF1721AC76217484","กองดิจิทัลเพื่อการควบคุมโรค","2023-04-06T00:00:00",15,5.9,7.9,32,30.9],
    [409,"FF1721AC76217484","กองดิจิทัลเพื่อการควบคุมโรค","2023-04-06T00:00:00",16,6.7,9,31.7,31],
    [410,"FF1721AC76217484","กองดิจิทัลเพื่อการควบคุมโรค","2023-04-06T00:00:00",17,6.3,8.5,31.5,30.9],
    [411,"FF1721AC76217484","กองดิจิทัลเพื่อการควบคุมโรค","2023-04-06T00:00:00",18,4.9,6.3,30.3,32.8],
    [412,"FF1721AC76217484","กองดิจิทัลเพื่อการควบคุมโรค","2023-04-06T00:00:00",19,5.8,8.9,29.8,34.7],
    [413,"FF1721AC76217484","กองดิจิทัลเพื่อการควบคุมโรค","2023-04-06T00:00:00",20,7.4,11.3,29.2,37.2],
    [414,"FF1721AC76217484","กองดิจิทัลเพื่อการควบคุมโรค","2023-04-06T00:00:00",21,10.9,15,29.4,37.1],
    [415,"FF1721AC76217484","กองดิจิทัลเพื่อการควบคุมโรค","2023-04-06T00:00:00",22,8.8,12.3,29.7,36.4],
    [416,"FF1721AC76217484","กองดิจิทัลเพื่อการควบคุมโรค","2023-04-06T00:00:00",23,7.7,11.4,29.2,36.5],
    [417,"FF1721AC76217483","กรมควบคุมโรค ลานอเนกประสงค์ อาคาร 1","2023-05-06T00:00:00",0,9.4,13.2,30.5,31.4],
    [418,"FF1721AC76217483","กรมควบคุมโรค ลานอเนกประสงค์ อาคาร 1","2023-05-06T00:00:00",1,5.9,9.5,30,30.6],
    [419,"FF1721AC76217483","กรมควบคุมโรค ลานอเนกประสงค์ อาคาร 1","2023-05-06T00:00:00",2,6.4,8.5,29.5,30.9],
    [420,"FF1721AC76217483","กรมควบคุมโรค ลานอเนกประสงค์ อาคาร 1","2023-05-06T00:00:00",3,5.9,8.1,29.3,31.2],
    [421,"FF1721AC76217483","กรมควบคุมโรค ลานอเนกประสงค์ อาคาร 1","2023-05-06T00:00:00",4,5.9,7.5,29.1,31.2],
    [422,"FF1721AC76217483","กรมควบคุมโรค ลานอเนกประสงค์ อาคาร 1","2023-05-06T00:00:00",5,6.8,9.8,28.8,31.9],
    [423,"FF1721AC76217483","กรมควบคุมโรค ลานอเนกประสงค์ อาคาร 1","2023-05-06T00:00:00",6,10.7,17,29.3,32.3],
    [424,"FF1721AC76217483","กรมควบคุมโรค ลานอเนกประสงค์ อาคาร 1","2023-05-06T00:00:00",7,11.8,17.4,30.5,31.2],
    [425,"FF1721AC76217483","กรมควบคุมโรค ลานอเนกประสงค์ อาคาร 1","2023-05-06T00:00:00",8,7.8,12,31.7,29.4],
    [426,"FF1721AC76217483","กรมควบคุมโรค ลานอเนกประสงค์ อาคาร 1","2023-05-06T00:00:00",9,9.1,13.4,34.1,26.2],
    [427,"FF1721AC76217483","กรมควบคุมโรค ลานอเนกประสงค์ อาคาร 1","2023-05-06T00:00:00",10,9.6,12.6,34.9,24.8],
    [428,"FF1721AC76217483","กรมควบคุมโรค ลานอเนกประสงค์ อาคาร 1","2023-05-06T00:00:00",11,10.5,13.2,35.7,24.2],
    [429,"FF1721AC76217483","กรมควบคุมโรค ลานอเนกประสงค์ อาคาร 1","2023-05-06T00:00:00",12,11.9,16.2,34.1,27.1],
    [430,"FF1721AC76217483","กรมควบคุมโรค ลานอเนกประสงค์ อาคาร 1","2023-05-06T00:00:00",13,9.8,14.2,27.8,35.8],
    [431,"FF1721AC76217483","กรมควบคุมโรค ลานอเนกประสงค์ อาคาร 1","2023-05-06T00:00:00",14,14.9,19.7,29.7,33.7],
    [432,"FF1721AC76217483","กรมควบคุมโรค ลานอเนกประสงค์ อาคาร 1","2023-05-06T00:00:00",15,15.8,20.4,30.8,31.4],
    [433,"FF1721AC76217483","กรมควบคุมโรค ลานอเนกประสงค์ อาคาร 1","2023-05-06T00:00:00",16,14,19.5,32.3,29.7],
    [434,"FF1721AC76217483","กรมควบคุมโรค ลานอเนกประสงค์ อาคาร 1","2023-05-06T00:00:00",17,15.7,21.9,31.7,29.5],
    [435,"FF1721AC76217483","กรมควบคุมโรค ลานอเนกประสงค์ อาคาร 1","2023-05-06T00:00:00",18,8.8,12.2,31.3,27.8],
    [436,"FF1721AC76217483","กรมควบคุมโรค ลานอเนกประสงค์ อาคาร 1","2023-05-06T00:00:00",19,8.5,10.6,30.7,28.2],
    [437,"FF1721AC76217483","กรมควบคุมโรค ลานอเนกประสงค์ อาคาร 1","2023-05-06T00:00:00",20,10.5,14.4,30.5,28.3],
    [438,"FF1721AC76217483","กรมควบคุมโรค ลานอเนกประสงค์ อาคาร 1","2023-05-06T00:00:00",21,14.9,20.9,30.2,28.9],
    [439,"FF1721AC76217483","กรมควบคุมโรค ลานอเนกประสงค์ อาคาร 1","2023-05-06T00:00:00",22,14.3,21.3,30,28.5],
    [440,"FF1721AC76217483","กรมควบคุมโรค ลานอเนกประสงค์ อาคาร 1","2023-05-06T00:00:00",23,16.6,23.1,30.2,28.3],
    [441,"FF1721AC76217484","กองดิจิทัลเพื่อการควบคุมโรค","2023-05-06T00:00:00",0,9.2,14.2,28.9,35.5],
    [442,"FF1721AC76217484","กองดิจิทัลเพื่อการควบคุมโรค","2023-05-06T00:00:00",1,6.4,7.8,28.4,34.4],
    [443,"FF1721AC76217484","กองดิจิทัลเพื่อการควบคุมโรค","2023-05-06T00:00:00",2,5.8,8.1,27.9,34.9],
    [444,"FF1721AC76217484","กองดิจิทัลเพื่อการควบคุมโรค","2023-05-06T00:00:00",3,6.1,6.9,27.8,35.1],
    [445,"FF1721AC76217484","กองดิจิทัลเพื่อการควบคุมโรค","2023-05-06T00:00:00",4,5,9,27.4,35.4],
    [446,"FF1721AC76217484","กองดิจิทัลเพื่อการควบคุมโรค","2023-05-06T00:00:00",5,6.8,9.2,27.5,35.7],
    [447,"FF1721AC76217484","กองดิจิทัลเพื่อการควบคุมโรค","2023-05-06T00:00:00",6,10.4,15.3,27.9,35.8],
    [448,"FF1721AC76217484","กองดิจิทัลเพื่อการควบคุมโรค","2023-05-06T00:00:00",7,11.7,18.8,28.9,35],
    [449,"FF1721AC76217484","กองดิจิทัลเพื่อการควบคุมโรค","2023-05-06T00:00:00",8,8.1,11.4,29.8,33.1],
    [450,"FF1721AC76217484","กองดิจิทัลเพื่อการควบคุมโรค","2023-05-06T00:00:00",9,9.9,14,30.7,31.4],
    [451,"FF1721AC76217484","กองดิจิทัลเพื่อการควบคุมโรค","2023-05-06T00:00:00",10,9.9,14.3,31.7,29.3],
    [452,"FF1721AC76217484","กองดิจิทัลเพื่อการควบคุมโรค","2023-05-06T00:00:00",11,10.4,13.9,33.1,27.9],
    [453,"FF1721AC76217484","กองดิจิทัลเพื่อการควบคุมโรค","2023-05-06T00:00:00",12,10.9,16.9,31.6,30.5],
    [454,"FF1721AC76217484","กองดิจิทัลเพื่อการควบคุมโรค","2023-05-06T00:00:00",13,9.4,17.1,26.2,39.7],
    [455,"FF1721AC76217484","กองดิจิทัลเพื่อการควบคุมโรค","2023-05-06T00:00:00",14,15,22.7,28.9,36.4],
    [456,"FF1721AC76217484","กองดิจิทัลเพื่อการควบคุมโรค","2023-05-06T00:00:00",15,16,23.4,30.4,33.5],
    [457,"FF1721AC76217484","กองดิจิทัลเพื่อการควบคุมโรค","2023-05-06T00:00:00",16,14.1,20.4,30.8,32.8],
    [458,"FF1721AC76217484","กองดิจิทัลเพื่อการควบคุมโรค","2023-05-06T00:00:00",17,15.5,19.7,30.4,32.7],
    [459,"FF1721AC76217484","กองดิจิทัลเพื่อการควบคุมโรค","2023-05-06T00:00:00",18,8.6,12.5,30.2,30.4],
    [460,"FF1721AC76217484","กองดิจิทัลเพื่อการควบคุมโรค","2023-05-06T00:00:00",19,8.3,12.2,29.5,31],
    [461,"FF1721AC76217484","กองดิจิทัลเพื่อการควบคุมโรค","2023-05-06T00:00:00",20,11.7,16.7,29,31.5],
    [462,"FF1721AC76217484","กองดิจิทัลเพื่อการควบคุมโรค","2023-05-06T00:00:00",21,14.6,21.4,28.8,32.1],
    [463,"FF1721AC76217484","กองดิจิทัลเพื่อการควบคุมโรค","2023-05-06T00:00:00",22,14.6,21.7,28.8,31.5],
    [464,"FF1721AC76217484","กองดิจิทัลเพื่อการควบคุมโรค","2023-05-06T00:00:00",23,16.8,23.3,28.6,31.7],
    [465,"FF1721AC76217483","กรมควบคุมโรค ลานอเนกประสงค์ อาคาร 1","2023-06-06T00:00:00",0,17.7,25.3,30.2,28.6],
    [466,"FF1721AC76217483","กรมควบคุมโรค ลานอเนกประสงค์ อาคาร 1","2023-06-06T00:00:00",1,19,27.6,29.8,29.2],
    [467,"FF1721AC76217483","กรมควบคุมโรค ลานอเนกประสงค์ อาคาร 1","2023-06-06T00:00:00",2,21.5,28.7,29.6,29.8],
    [468,"FF1721AC76217483","กรมควบคุมโรค ลานอเนกประสงค์ อาคาร 1","2023-06-06T00:00:00",3,25,33.2,29.2,30.8],
    [469,"FF1721AC76217483","กรมควบคุมโรค ลานอเนกประสงค์ อาคาร 1","2023-06-06T00:00:00",4,38.5,58,29.2,30.8],
    [470,"FF1721AC76217483","กรมควบคุมโรค ลานอเนกประสงค์ อาคาร 1","2023-06-06T00:00:00",5,34.6,49.9,29.3,30.4],
    [471,"FF1721AC76217483","กรมควบคุมโรค ลานอเนกประสงค์ อาคาร 1","2023-06-06T00:00:00",6,31.3,43.4,29.4,31.3],
    [472,"FF1721AC76217483","กรมควบคุมโรค ลานอเนกประสงค์ อาคาร 1","2023-06-06T00:00:00",7,19.2,28.6,30.2,31.6],
    [473,"FF1721AC76217483","กรมควบคุมโรค ลานอเนกประสงค์ อาคาร 1","2023-06-06T00:00:00",8,12.1,17,31.1,30.1],
    [474,"FF1721AC76217483","กรมควบคุมโรค ลานอเนกประสงค์ อาคาร 1","2023-06-06T00:00:00",9,10,12,32.5,28.5],
    [475,"FF1721AC76217483","กรมควบคุมโรค ลานอเนกประสงค์ อาคาร 1","2023-06-06T00:00:00",10,7.3,9,34.8,26.2],
    [476,"FF1721AC76217483","กรมควบคุมโรค ลานอเนกประสงค์ อาคาร 1","2023-06-06T00:00:00",11,10,13.8,35.1,25.9],
    [477,"FF1721AC76217483","กรมควบคุมโรค ลานอเนกประสงค์ อาคาร 1","2023-06-06T00:00:00",12,12.9,19.7,34.6,26.2],
    [478,"FF1721AC76217483","กรมควบคุมโรค ลานอเนกประสงค์ อาคาร 1","2023-06-06T00:00:00",13,17.5,23.4,34.9,26.2],
    [479,"FF1721AC76217483","กรมควบคุมโรค ลานอเนกประสงค์ อาคาร 1","2023-06-06T00:00:00",14,18.2,24.8,33.3,28.2],
    [480,"FF1721AC76217483","กรมควบคุมโรค ลานอเนกประสงค์ อาคาร 1","2023-06-06T00:00:00",15,16.6,23.7,28.9,34.2],
    [481,"FF1721AC76217483","กรมควบคุมโรค ลานอเนกประสงค์ อาคาร 1","2023-06-06T00:00:00",16,14.4,18.2,28.4,34.2],
    [482,"FF1721AC76217483","กรมควบคุมโรค ลานอเนกประสงค์ อาคาร 1","2023-06-06T00:00:00",17,14,21.7,29.4,33.1],
    [483,"FF1721AC76217483","กรมควบคุมโรค ลานอเนกประสงค์ อาคาร 1","2023-06-06T00:00:00",18,13.5,18.6,29.2,35],
    [484,"FF1721AC76217483","กรมควบคุมโรค ลานอเนกประสงค์ อาคาร 1","2023-06-06T00:00:00",19,11.9,15.8,30.1,33.8],
    [485,"FF1721AC76217483","กรมควบคุมโรค ลานอเนกประสงค์ อาคาร 1","2023-06-06T00:00:00",20,12.2,16.7,30.3,31.1],
    [486,"FF1721AC76217483","กรมควบคุมโรค ลานอเนกประสงค์ อาคาร 1","2023-06-06T00:00:00",21,15.3,21.3,30.2,29.7],
    [487,"FF1721AC76217483","กรมควบคุมโรค ลานอเนกประสงค์ อาคาร 1","2023-06-06T00:00:00",22,19.2,25.1,29.7,30.5],
    [488,"FF1721AC76217483","กรมควบคุมโรค ลานอเนกประสงค์ อาคาร 1","2023-06-06T00:00:00",23,21.5,27.8,29.4,30.9],
    [489,"FF1721AC76217484","กองดิจิทัลเพื่อการควบคุมโรค","2023-06-06T00:00:00",0,17.4,24.7,28.5,32.3],
    [490,"FF1721AC76217484","กองดิจิทัลเพื่อการควบคุมโรค","2023-06-06T00:00:00",1,18.1,27.4,28.2,32.8],
    [491,"FF1721AC76217484","กองดิจิทัลเพื่อการควบคุมโรค","2023-06-06T00:00:00",2,20.8,29,28.3,33.3],
    [492,"FF1721AC76217484","กองดิจิทัลเพื่อการควบคุมโรค","2023-06-06T00:00:00",3,25.5,35.3,27.5,34.6],
    [493,"FF1721AC76217484","กองดิจิทัลเพื่อการควบคุมโรค","2023-06-06T00:00:00",4,40,62.8,27.8,34.1],
    [494,"FF1721AC76217484","กองดิจิทัลเพื่อการควบคุมโรค","2023-06-06T00:00:00",5,34.4,54.6,27.7,34.2],
    [495,"FF1721AC76217484","กองดิจิทัลเพื่อการควบคุมโรค","2023-06-06T00:00:00",6,31.8,50.6,27.8,35.1],
    [496,"FF1721AC76217484","กองดิจิทัลเพื่อการควบคุมโรค","2023-06-06T00:00:00",7,19,27.2,28.1,36],
    [497,"FF1721AC76217484","กองดิจิทัลเพื่อการควบคุมโรค","2023-06-06T00:00:00",8,13,18.6,28.7,34.9],
    [498,"FF1721AC76217484","กองดิจิทัลเพื่อการควบคุมโรค","2023-06-06T00:00:00",9,11.7,15.4,29.3,34],
    [499,"FF1721AC76217484","กองดิจิทัลเพื่อการควบคุมโรค","2023-06-06T00:00:00",10,8.2,10.8,30.7,32.1],
    [500,"FF1721AC76217484","กองดิจิทัลเพื่อการควบคุมโรค","2023-06-06T00:00:00",11,10.7,14.7,32.3,30.5],
    [501,"FF1721AC76217484","กองดิจิทัลเพื่อการควบคุมโรค","2023-06-06T00:00:00",12,13,18.2,32.4,30.3],
    [502,"FF1721AC76217484","กองดิจิทัลเพื่อการควบคุมโรค","2023-06-06T00:00:00",13,17.6,24.8,32.6,30.2],
    [503,"FF1721AC76217484","กองดิจิทัลเพื่อการควบคุมโรค","2023-06-06T00:00:00",14,18.3,26.7,31.4,32.3],
    [504,"FF1721AC76217484","กองดิจิทัลเพื่อการควบคุมโรค","2023-06-06T00:00:00",15,18.6,26.1,27.2,38.2],
    [505,"FF1721AC76217484","กองดิจิทัลเพื่อการควบคุมโรค","2023-06-06T00:00:00",16,13.9,18.2,27.1,37.6],
    [506,"FF1721AC76217484","กองดิจิทัลเพื่อการควบคุมโรค","2023-06-06T00:00:00",17,15.1,19.7,28.1,35.9],
    [507,"FF1721AC76217484","กองดิจิทัลเพื่อการควบคุมโรค","2023-06-06T00:00:00",18,12.4,18.5,28.4,37.8],
    [508,"FF1721AC76217484","กองดิจิทัลเพื่อการควบคุมโรค","2023-06-06T00:00:00",19,11.5,16.4,28.8,37.2],
    [509,"FF1721AC76217484","กองดิจิทัลเพื่อการควบคุมโรค","2023-06-06T00:00:00",20,12.7,17,29,34.3],
    [510,"FF1721AC76217484","กองดิจิทัลเพื่อการควบคุมโรค","2023-06-06T00:00:00",21,15.9,23,28.9,32.9],
    [511,"FF1721AC76217484","กองดิจิทัลเพื่อการควบคุมโรค","2023-06-06T00:00:00",22,19.9,27.7,28.6,33.6],
    [512,"FF1721AC76217484","กองดิจิทัลเพื่อการควบคุมโรค","2023-06-06T00:00:00",23,21.8,29.3,28.1,34.3],
    [513,"FF1721AC76217483","กรมควบคุมโรค ลานอเนกประสงค์ อาคาร 1","2023-07-06T00:00:00",0,18.6,26.1,29.6,30.4],
    [514,"FF1721AC76217483","กรมควบคุมโรค ลานอเนกประสงค์ อาคาร 1","2023-07-06T00:00:00",1,18.3,24.6,29.8,30.6],
    [515,"FF1721AC76217483","กรมควบคุมโรค ลานอเนกประสงค์ อาคาร 1","2023-07-06T00:00:00",2,19.5,26.9,29.5,31.8],
    [516,"FF1721AC76217483","กรมควบคุมโรค ลานอเนกประสงค์ อาคาร 1","2023-07-06T00:00:00",3,19.1,25.8,29.1,32.7],
    [517,"FF1721AC76217483","กรมควบคุมโรค ลานอเนกประสงค์ อาคาร 1","2023-07-06T00:00:00",4,18.9,24.5,28.9,33.3],
    [518,"FF1721AC76217483","กรมควบคุมโรค ลานอเนกประสงค์ อาคาร 1","2023-07-06T00:00:00",5,15.8,22.4,28.8,33.8],
    [519,"FF1721AC76217483","กรมควบคุมโรค ลานอเนกประสงค์ อาคาร 1","2023-07-06T00:00:00",6,15.8,22.6,29,33.6],
    [520,"FF1721AC76217483","กรมควบคุมโรค ลานอเนกประสงค์ อาคาร 1","2023-07-06T00:00:00",7,14.6,19.5,30.3,31.7],
    [521,"FF1721AC76217483","กรมควบคุมโรค ลานอเนกประสงค์ อาคาร 1","2023-07-06T00:00:00",8,13,16.7,31.6,29.6],
    [522,"FF1721AC76217483","กรมควบคุมโรค ลานอเนกประสงค์ อาคาร 1","2023-07-06T00:00:00",9,11.2,15.7,33.5,27.3],
    [523,"FF1721AC76217483","กรมควบคุมโรค ลานอเนกประสงค์ อาคาร 1","2023-07-06T00:00:00",10,12.3,16.3,33.6,26.9],
    [524,"FF1721AC76217483","กรมควบคุมโรค ลานอเนกประสงค์ อาคาร 1","2023-07-06T00:00:00",11,12.3,16.2,34.5,26.1],
    [525,"FF1721AC76217483","กรมควบคุมโรค ลานอเนกประสงค์ อาคาร 1","2023-07-06T00:00:00",12,12.5,17.2,34.9,25.7],
    [526,"FF1721AC76217483","กรมควบคุมโรค ลานอเนกประสงค์ อาคาร 1","2023-07-06T00:00:00",13,15.7,21.3,33,27.6],
    [527,"FF1721AC76217483","กรมควบคุมโรค ลานอเนกประสงค์ อาคาร 1","2023-07-06T00:00:00",14,15.2,20,32.9,27.9],
    [528,"FF1721AC76217483","กรมควบคุมโรค ลานอเนกประสงค์ อาคาร 1","2023-07-06T00:00:00",15,13.3,18.6,32.4,28.5],
    [529,"FF1721AC76217483","กรมควบคุมโรค ลานอเนกประสงค์ อาคาร 1","2023-07-06T00:00:00",16,13.2,18.4,31.9,29.1],
    [530,"FF1721AC76217483","กรมควบคุมโรค ลานอเนกประสงค์ อาคาร 1","2023-07-06T00:00:00",17,13,16.8,31,30.2],
    [531,"FF1721AC76217483","กรมควบคุมโรค ลานอเนกประสงค์ อาคาร 1","2023-07-06T00:00:00",18,12.4,16.5,30.1,31.8],
    [532,"FF1721AC76217483","กรมควบคุมโรค ลานอเนกประสงค์ อาคาร 1","2023-07-06T00:00:00",19,12.9,18.8,29.4,33.6],
    [533,"FF1721AC76217483","กรมควบคุมโรค ลานอเนกประสงค์ อาคาร 1","2023-07-06T00:00:00",20,14.2,20.4,29.3,34.6],
    [534,"FF1721AC76217483","กรมควบคุมโรค ลานอเนกประสงค์ อาคาร 1","2023-07-06T00:00:00",21,14.3,19.6,24.3,42.7],
    [535,"FF1721AC76217483","กรมควบคุมโรค ลานอเนกประสงค์ อาคาร 1","2023-07-06T00:00:00",22,17.3,21.6,24.8,42.7],
    [536,"FF1721AC76217483","กรมควบคุมโรค ลานอเนกประสงค์ อาคาร 1","2023-07-06T00:00:00",23,15.1,19.9,24.7,42.9],
    [537,"FF1721AC76217484","กองดิจิทัลเพื่อการควบคุมโรค","2023-07-06T00:00:00",0,19.3,25.6,28.2,33.7],
    [538,"FF1721AC76217484","กองดิจิทัลเพื่อการควบคุมโรค","2023-07-06T00:00:00",1,20,25.7,28.2,34.2],
    [539,"FF1721AC76217484","กองดิจิทัลเพื่อการควบคุมโรค","2023-07-06T00:00:00",2,19.3,30.8,28,35.5],
    [540,"FF1721AC76217484","กองดิจิทัลเพื่อการควบคุมโรค","2023-07-06T00:00:00",3,19.2,27.1,27.7,36.5],
    [541,"FF1721AC76217484","กองดิจิทัลเพื่อการควบคุมโรค","2023-07-06T00:00:00",4,18.5,25.1,27.5,36.8],
    [542,"FF1721AC76217484","กองดิจิทัลเพื่อการควบคุมโรค","2023-07-06T00:00:00",5,16.8,24,27.6,37.1],
    [543,"FF1721AC76217484","กองดิจิทัลเพื่อการควบคุมโรค","2023-07-06T00:00:00",6,16,21.9,27.6,37.1],
    [544,"FF1721AC76217484","กองดิจิทัลเพื่อการควบคุมโรค","2023-07-06T00:00:00",7,13.6,19,28.3,36],
    [545,"FF1721AC76217484","กองดิจิทัลเพื่อการควบคุมโรค","2023-07-06T00:00:00",8,12.7,19.7,29.3,33.8],
    [546,"FF1721AC76217484","กองดิจิทัลเพื่อการควบคุมโรค","2023-07-06T00:00:00",9,11.9,17.9,30,32.7],
    [547,"FF1721AC76217484","กองดิจิทัลเพื่อการควบคุมโรค","2023-07-06T00:00:00",10,12.8,17.6,30.7,31.8],
    [548,"FF1721AC76217484","กองดิจิทัลเพื่อการควบคุมโรค","2023-07-06T00:00:00",11,12.5,17.9,31.8,30.3],
    [549,"FF1721AC76217484","กองดิจิทัลเพื่อการควบคุมโรค","2023-07-06T00:00:00",12,14.6,19.4,31.9,30.2],
    [550,"FF1721AC76217484","กองดิจิทัลเพื่อการควบคุมโรค","2023-07-06T00:00:00",13,16.1,20.6,31.7,30.1],
    [551,"FF1721AC76217484","กองดิจิทัลเพื่อการควบคุมโรค","2023-07-06T00:00:00",14,14.9,20.9,31.3,31],
    [552,"FF1721AC76217484","กองดิจิทัลเพื่อการควบคุมโรค","2023-07-06T00:00:00",15,14,19.3,30.8,32],
    [553,"FF1721AC76217484","กองดิจิทัลเพื่อการควบคุมโรค","2023-07-06T00:00:00",16,14.2,19.7,30.5,32.6],
    [554,"FF1721AC76217484","กองดิจิทัลเพื่อการควบคุมโรค","2023-07-06T00:00:00",17,13.4,16.9,29.8,33.5],
    [555,"FF1721AC76217484","กองดิจิทัลเพื่อการควบคุมโรค","2023-07-06T00:00:00",18,13.4,17.6,28.9,35.4],
    [556,"FF1721AC76217484","กองดิจิทัลเพื่อการควบคุมโรค","2023-07-06T00:00:00",19,13.7,19.9,28.3,37.5],
    [557,"FF1721AC76217484","กองดิจิทัลเพื่อการควบคุมโรค","2023-07-06T00:00:00",20,13.3,19.2,28,38.1],
    [558,"FF1721AC76217484","กองดิจิทัลเพื่อการควบคุมโรค","2023-07-06T00:00:00",21,15.5,23.4,23.3,46.4],
    [559,"FF1721AC76217484","กองดิจิทัลเพื่อการควบคุมโรค","2023-07-06T00:00:00",22,18,24.5,24,46.2],
    [560,"FF1721AC76217484","กองดิจิทัลเพื่อการควบคุมโรค","2023-07-06T00:00:00",23,17.2,25,24.2,45.6],
    [561,"FF1721AC76217483","กรมควบคุมโรค ลานอเนกประสงค์ อาคาร 1","2023-08-06T00:00:00",0,16.1,23.3,24,43.4],
    [562,"FF1721AC76217483","กรมควบคุมโรค ลานอเนกประสงค์ อาคาร 1","2023-08-06T00:00:00",1,16.5,21.7,24.1,43.3],
    [563,"FF1721AC76217483","กรมควบคุมโรค ลานอเนกประสงค์ อาคาร 1","2023-08-06T00:00:00",2,15.1,21.4,24.1,43.1],
    [564,"FF1721AC76217483","กรมควบคุมโรค ลานอเนกประสงค์ อาคาร 1","2023-08-06T00:00:00",3,18.3,22.7,23.7,43.6],
    [565,"FF1721AC76217483","กรมควบคุมโรค ลานอเนกประสงค์ อาคาร 1","2023-08-06T00:00:00",4,21.2,30.3,24.1,42.6],
    [566,"FF1721AC76217483","กรมควบคุมโรค ลานอเนกประสงค์ อาคาร 1","2023-08-06T00:00:00",5,21.3,26.5,23.9,42.2],
    [567,"FF1721AC76217483","กรมควบคุมโรค ลานอเนกประสงค์ อาคาร 1","2023-08-06T00:00:00",6,26,34.5,24.2,41.8],
    [568,"FF1721AC76217483","กรมควบคุมโรค ลานอเนกประสงค์ อาคาร 1","2023-08-06T00:00:00",7,32.3,44.8,25.3,41],
    [569,"FF1721AC76217483","กรมควบคุมโรค ลานอเนกประสงค์ อาคาร 1","2023-08-06T00:00:00",8,32.3,50.8,27.7,38.1],
    [570,"FF1721AC76217483","กรมควบคุมโรค ลานอเนกประสงค์ อาคาร 1","2023-08-06T00:00:00",9,28.7,40.6,30.8,33.1],
    [571,"FF1721AC76217483","กรมควบคุมโรค ลานอเนกประสงค์ อาคาร 1","2023-08-06T00:00:00",10,22.6,30,31.7,30.2],
    [572,"FF1721AC76217483","กรมควบคุมโรค ลานอเนกประสงค์ อาคาร 1","2023-08-06T00:00:00",11,10,13.1,32.7,28.3],
    [573,"FF1721AC76217483","กรมควบคุมโรค ลานอเนกประสงค์ อาคาร 1","2023-08-06T00:00:00",12,9.1,12.4,31.8,28.7],
    [574,"FF1721AC76217483","กรมควบคุมโรค ลานอเนกประสงค์ อาคาร 1","2023-08-06T00:00:00",13,8.8,11.4,33,27.8],
    [575,"FF1721AC76217483","กรมควบคุมโรค ลานอเนกประสงค์ อาคาร 1","2023-08-06T00:00:00",14,10.7,14.5,31.6,29.3],
    [576,"FF1721AC76217483","กรมควบคุมโรค ลานอเนกประสงค์ อาคาร 1","2023-08-06T00:00:00",15,9,12.2,29.7,32.3],
    [577,"FF1721AC76217483","กรมควบคุมโรค ลานอเนกประสงค์ อาคาร 1","2023-08-06T00:00:00",16,6.3,9.4,29.3,32.9],
    [578,"FF1721AC76217483","กรมควบคุมโรค ลานอเนกประสงค์ อาคาร 1","2023-08-06T00:00:00",17,8,9.8,29.3,33.2],
    [579,"FF1721AC76217483","กรมควบคุมโรค ลานอเนกประสงค์ อาคาร 1","2023-08-06T00:00:00",18,8.8,11.9,29.5,32.7],
    [580,"FF1721AC76217483","กรมควบคุมโรค ลานอเนกประสงค์ อาคาร 1","2023-08-06T00:00:00",19,10.6,14,29.6,29.9],
    [581,"FF1721AC76217483","กรมควบคุมโรค ลานอเนกประสงค์ อาคาร 1","2023-08-06T00:00:00",20,13.1,17.2,29.4,29.2],
    [582,"FF1721AC76217483","กรมควบคุมโรค ลานอเนกประสงค์ อาคาร 1","2023-08-06T00:00:00",21,13.6,16.6,29.2,29.1],
    [583,"FF1721AC76217483","กรมควบคุมโรค ลานอเนกประสงค์ อาคาร 1","2023-08-06T00:00:00",22,15.6,24.5,29.3,29.3],
    [584,"FF1721AC76217483","กรมควบคุมโรค ลานอเนกประสงค์ อาคาร 1","2023-08-06T00:00:00",23,18.1,23.6,29.2,29.8],
    [585,"FF1721AC76217484","กองดิจิทัลเพื่อการควบคุมโรค","2023-08-06T00:00:00",0,17.7,24.9,23.9,45.6],
    [586,"FF1721AC76217484","กองดิจิทัลเพื่อการควบคุมโรค","2023-08-06T00:00:00",1,17.9,25.3,23.8,45.5],
    [587,"FF1721AC76217484","กองดิจิทัลเพื่อการควบคุมโรค","2023-08-06T00:00:00",2,17.6,25.5,23.9,45.4],
    [588,"FF1721AC76217484","กองดิจิทัลเพื่อการควบคุมโรค","2023-08-06T00:00:00",3,20.3,27.9,23.4,46.3],
    [589,"FF1721AC76217484","กองดิจิทัลเพื่อการควบคุมโรค","2023-08-06T00:00:00",4,22.9,33.1,23.8,44.9],
    [590,"FF1721AC76217484","กองดิจิทัลเพื่อการควบคุมโรค","2023-08-06T00:00:00",5,22.9,34.6,23.7,44.4],
    [591,"FF1721AC76217484","กองดิจิทัลเพื่อการควบคุมโรค","2023-08-06T00:00:00",6,26.9,42.2,24,43.8],
    [592,"FF1721AC76217484","กองดิจิทัลเพื่อการควบคุมโรค","2023-08-06T00:00:00",7,32.1,51.7,24.6,43.3],
    [593,"FF1721AC76217484","กองดิจิทัลเพื่อการควบคุมโรค","2023-08-06T00:00:00",8,32.6,52.1,26.3,41.4],
    [594,"FF1721AC76217484","กองดิจิทัลเพื่อการควบคุมโรค","2023-08-06T00:00:00",9,30.6,47.7,28.2,38.2],
    [595,"FF1721AC76217484","กองดิจิทัลเพื่อการควบคุมโรค","2023-08-06T00:00:00",10,22.6,30.6,29.5,34.4],
    [596,"FF1721AC76217484","กองดิจิทัลเพื่อการควบคุมโรค","2023-08-06T00:00:00",11,11.7,14.3,30.3,32.8],
    [597,"FF1721AC76217484","กองดิจิทัลเพื่อการควบคุมโรค","2023-08-06T00:00:00",12,10.5,12.4,30.5,32],
    [598,"FF1721AC76217484","กองดิจิทัลเพื่อการควบคุมโรค","2023-08-06T00:00:00",13,9.3,12.6,31.1,30.8],
    [599,"FF1721AC76217484","กองดิจิทัลเพื่อการควบคุมโรค","2023-08-06T00:00:00",14,11.2,16,30.2,32.7],
    [600,"FF1721AC76217484","กองดิจิทัลเพื่อการควบคุมโรค","2023-08-06T00:00:00",15,8.1,11.6,28.2,35.8],
    [601,"FF1721AC76217484","กองดิจิทัลเพื่อการควบคุมโรค","2023-08-06T00:00:00",16,5.7,8.2,28,36.4],
    [602,"FF1721AC76217484","กองดิจิทัลเพื่อการควบคุมโรค","2023-08-06T00:00:00",17,7.3,9.3,28.2,36.3],
    [603,"FF1721AC76217484","กองดิจิทัลเพื่อการควบคุมโรค","2023-08-06T00:00:00",18,8.7,11.2,28.5,35.7],
    [604,"FF1721AC76217484","กองดิจิทัลเพื่อการควบคุมโรค","2023-08-06T00:00:00",19,10.9,13.8,28.4,32.6],
    [605,"FF1721AC76217484","กองดิจิทัลเพื่อการควบคุมโรค","2023-08-06T00:00:00",20,12.4,15.7,28.3,32.2],
    [606,"FF1721AC76217484","กองดิจิทัลเพื่อการควบคุมโรค","2023-08-06T00:00:00",21,13.2,17.5,28,32.2],
    [607,"FF1721AC76217484","กองดิจิทัลเพื่อการควบคุมโรค","2023-08-06T00:00:00",22,16,21.3,27.8,32.7],
    [608,"FF1721AC76217484","กองดิจิทัลเพื่อการควบคุมโรค","2023-08-06T00:00:00",23,18.2,25.3,27.7,33.2],
    [609,"FF1721AC76217483","กรมควบคุมโรค ลานอเนกประสงค์ อาคาร 1","2023-09-06T00:00:00",0,16.9,21.5,29,30.3],
    [610,"FF1721AC76217483","กรมควบคุมโรค ลานอเนกประสงค์ อาคาร 1","2023-09-06T00:00:00",1,16.9,24.5,28.9,30.9],
    [611,"FF1721AC76217483","กรมควบคุมโรค ลานอเนกประสงค์ อาคาร 1","2023-09-06T00:00:00",2,13.2,17.7,28.9,32],
    [612,"FF1721AC76217483","กรมควบคุมโรค ลานอเนกประสงค์ อาคาร 1","2023-09-06T00:00:00",3,17.2,24.3,28,34.5],
    [613,"FF1721AC76217483","กรมควบคุมโรค ลานอเนกประสงค์ อาคาร 1","2023-09-06T00:00:00",4,11.8,16.3,26.2,37.7],
    [614,"FF1721AC76217483","กรมควบคุมโรค ลานอเนกประสงค์ อาคาร 1","2023-09-06T00:00:00",5,10.2,15.4,26.4,36.9],
    [615,"FF1721AC76217483","กรมควบคุมโรค ลานอเนกประสงค์ อาคาร 1","2023-09-06T00:00:00",6,12.4,20.1,27.1,36.4],
    [616,"FF1721AC76217483","กรมควบคุมโรค ลานอเนกประสงค์ อาคาร 1","2023-09-06T00:00:00",7,11,14,28.4,35],
    [617,"FF1721AC76217483","กรมควบคุมโรค ลานอเนกประสงค์ อาคาร 1","2023-09-06T00:00:00",8,6.5,9.2,30.5,32.1],
    [618,"FF1721AC76217483","กรมควบคุมโรค ลานอเนกประสงค์ อาคาร 1","2023-09-06T00:00:00",9,5.6,7.4,30.9,31.7],
    [619,"FF1721AC76217483","กรมควบคุมโรค ลานอเนกประสงค์ อาคาร 1","2023-09-06T00:00:00",10,6,7.1,31.2,30.5],
    [620,"FF1721AC76217483","กรมควบคุมโรค ลานอเนกประสงค์ อาคาร 1","2023-09-06T00:00:00",11,6.7,8.5,29.9,31.5],
    [621,"FF1721AC76217483","กรมควบคุมโรค ลานอเนกประสงค์ อาคาร 1","2023-09-06T00:00:00",12,6.2,9.9,30.2,31],
    [622,"FF1721AC76217483","กรมควบคุมโรค ลานอเนกประสงค์ อาคาร 1","2023-09-06T00:00:00",13,10.8,13.8,30.7,30.6],
    [623,"FF1721AC76217483","กรมควบคุมโรค ลานอเนกประสงค์ อาคาร 1","2023-09-06T00:00:00",14,13.3,17.7,31.4,29.8],
    [624,"FF1721AC76217483","กรมควบคุมโรค ลานอเนกประสงค์ อาคาร 1","2023-09-06T00:00:00",15,9.8,14.1,31.2,29.8],
    [625,"FF1721AC76217483","กรมควบคุมโรค ลานอเนกประสงค์ อาคาร 1","2023-09-06T00:00:00",16,6.9,9.9,30.1,31.3],
    [626,"FF1721AC76217483","กรมควบคุมโรค ลานอเนกประสงค์ อาคาร 1","2023-09-06T00:00:00",17,6,8.8,29.5,31.8],
    [627,"FF1721AC76217483","กรมควบคุมโรค ลานอเนกประสงค์ อาคาร 1","2023-09-06T00:00:00",18,7.4,9.2,29.2,31.8],
    [628,"FF1721AC76217483","กรมควบคุมโรค ลานอเนกประสงค์ อาคาร 1","2023-09-06T00:00:00",19,6.3,8.3,28.8,32.9],
    [629,"FF1721AC76217483","กรมควบคุมโรค ลานอเนกประสงค์ อาคาร 1","2023-09-06T00:00:00",20,5.3,6.3,28.4,33.9],
    [630,"FF1721AC76217483","กรมควบคุมโรค ลานอเนกประสงค์ อาคาร 1","2023-09-06T00:00:00",21,4.4,5.6,28.7,33.4],
    [631,"FF1721AC76217483","กรมควบคุมโรค ลานอเนกประสงค์ อาคาร 1","2023-09-06T00:00:00",22,5.2,6.6,28.6,33.8],
    [632,"FF1721AC76217483","กรมควบคุมโรค ลานอเนกประสงค์ อาคาร 1","2023-09-06T00:00:00",23,5.8,8.1,28.5,34.3],
    [633,"FF1721AC76217484","กองดิจิทัลเพื่อการควบคุมโรค","2023-09-06T00:00:00",0,17,23.4,27.6,33.5],
    [634,"FF1721AC76217484","กองดิจิทัลเพื่อการควบคุมโรค","2023-09-06T00:00:00",1,16.5,24.4,27.5,34.6],
    [635,"FF1721AC76217484","กองดิจิทัลเพื่อการควบคุมโรค","2023-09-06T00:00:00",2,13.2,19.2,27.2,36],
    [636,"FF1721AC76217484","กองดิจิทัลเพื่อการควบคุมโรค","2023-09-06T00:00:00",3,16.3,22.2,26,38.9],
    [637,"FF1721AC76217484","กองดิจิทัลเพื่อการควบคุมโรค","2023-09-06T00:00:00",4,13.8,19,24.7,41.9],
    [638,"FF1721AC76217484","กองดิจิทัลเพื่อการควบคุมโรค","2023-09-06T00:00:00",5,9.5,14,24.6,41.3],
    [639,"FF1721AC76217484","กองดิจิทัลเพื่อการควบคุมโรค","2023-09-06T00:00:00",6,14,18.2,25.9,39.6],
    [640,"FF1721AC76217484","กองดิจิทัลเพื่อการควบคุมโรค","2023-09-06T00:00:00",7,10,14.1,27.2,38.1],
    [641,"FF1721AC76217484","กองดิจิทัลเพื่อการควบคุมโรค","2023-09-06T00:00:00",8,7.2,10.4,28.5,36.6],
    [642,"FF1721AC76217484","กองดิจิทัลเพื่อการควบคุมโรค","2023-09-06T00:00:00",9,6.8,10.1,29.1,35.8],
    [643,"FF1721AC76217484","กองดิจิทัลเพื่อการควบคุมโรค","2023-09-06T00:00:00",10,6.8,9.7,29.5,34.4],
    [644,"FF1721AC76217484","กองดิจิทัลเพื่อการควบคุมโรค","2023-09-06T00:00:00",11,7.8,9.8,28.9,34.5],
    [645,"FF1721AC76217484","กองดิจิทัลเพื่อการควบคุมโรค","2023-09-06T00:00:00",12,7.4,11.5,29.1,34.1],
    [646,"FF1721AC76217484","กองดิจิทัลเพื่อการควบคุมโรค","2023-09-06T00:00:00",13,11.6,14.7,29.1,34],
    [647,"FF1721AC76217484","กองดิจิทัลเพื่อการควบคุมโรค","2023-09-06T00:00:00",14,14.1,18.8,29.4,33.6],
    [648,"FF1721AC76217484","กองดิจิทัลเพื่อการควบคุมโรค","2023-09-06T00:00:00",15,10.6,13.6,29.6,33.4],
    [649,"FF1721AC76217484","กองดิจิทัลเพื่อการควบคุมโรค","2023-09-06T00:00:00",16,6.6,9.3,28.7,34.9],
    [650,"FF1721AC76217484","กองดิจิทัลเพื่อการควบคุมโรค","2023-09-06T00:00:00",17,6,7.4,28.2,35.4],
    [651,"FF1721AC76217484","กองดิจิทัลเพื่อการควบคุมโรค","2023-09-06T00:00:00",18,6.7,8.5,28.1,35.1],
    [652,"FF1721AC76217484","กองดิจิทัลเพื่อการควบคุมโรค","2023-09-06T00:00:00",19,6.1,7.8,27.7,36.2],
    [653,"FF1721AC76217484","กองดิจิทัลเพื่อการควบคุมโรค","2023-09-06T00:00:00",20,4.6,6.1,27.2,37.2],
    [654,"FF1721AC76217484","กองดิจิทัลเพื่อการควบคุมโรค","2023-09-06T00:00:00",21,5.4,6.3,27.3,37],
    [655,"FF1721AC76217484","กองดิจิทัลเพื่อการควบคุมโรค","2023-09-06T00:00:00",22,4.8,7.5,27.3,37.2],
    [656,"FF1721AC76217484","กองดิจิทัลเพื่อการควบคุมโรค","2023-09-06T00:00:00",23,5.2,7.5,27.3,37.5],
    [657,"FF1721AC76217483","กรมควบคุมโรค ลานอเนกประสงค์ อาคาร 1","2023-10-06T00:00:00",0,6.8,8.1,28.5,34.6],
    [658,"FF1721AC76217483","กรมควบคุมโรค ลานอเนกประสงค์ อาคาร 1","2023-10-06T00:00:00",1,5.6,7.4,28.3,35.5],
    [659,"FF1721AC76217483","กรมควบคุมโรค ลานอเนกประสงค์ อาคาร 1","2023-10-06T00:00:00",2,6.4,9.9,28.7,35.2],
    [660,"FF1721AC76217483","กรมควบคุมโรค ลานอเนกประสงค์ อาคาร 1","2023-10-06T00:00:00",3,7.5,9.8,28.7,34.9],
    [661,"FF1721AC76217483","กรมควบคุมโรค ลานอเนกประสงค์ อาคาร 1","2023-10-06T00:00:00",4,5.9,8.5,28.9,34.6],
    [662,"FF1721AC76217483","กรมควบคุมโรค ลานอเนกประสงค์ อาคาร 1","2023-10-06T00:00:00",5,7,8.7,29,34.6],
    [663,"FF1721AC76217483","กรมควบคุมโรค ลานอเนกประสงค์ อาคาร 1","2023-10-06T00:00:00",6,7.6,11.2,29.2,34.4],
    [664,"FF1721AC76217483","กรมควบคุมโรค ลานอเนกประสงค์ อาคาร 1","2023-10-06T00:00:00",7,8.6,11.4,29.7,33.8],
    [665,"FF1721AC76217483","กรมควบคุมโรค ลานอเนกประสงค์ อาคาร 1","2023-10-06T00:00:00",8,11.8,17,29.8,34.1],
    [666,"FF1721AC76217483","กรมควบคุมโรค ลานอเนกประสงค์ อาคาร 1","2023-10-06T00:00:00",9,11.8,16.3,32.4,29.8],
    [667,"FF1721AC76217483","กรมควบคุมโรค ลานอเนกประสงค์ อาคาร 1","2023-10-06T00:00:00",10,9,14.3,32,29.3],
    [668,"FF1721AC76217483","กรมควบคุมโรค ลานอเนกประสงค์ อาคาร 1","2023-10-06T00:00:00",11,7.6,10.2,31.2,30.7],
    [669,"FF1721AC76217483","กรมควบคุมโรค ลานอเนกประสงค์ อาคาร 1","2023-10-06T00:00:00",12,9,12,31.8,30.1],
    [670,"FF1721AC76217483","กรมควบคุมโรค ลานอเนกประสงค์ อาคาร 1","2023-10-06T00:00:00",13,12.5,15.5,33.6,27.1],
    [671,"FF1721AC76217483","กรมควบคุมโรค ลานอเนกประสงค์ อาคาร 1","2023-10-06T00:00:00",14,9,12.8,32.3,27.3],
    [672,"FF1721AC76217483","กรมควบคุมโรค ลานอเนกประสงค์ อาคาร 1","2023-10-06T00:00:00",15,7.9,10.2,32.1,27.1],
    [673,"FF1721AC76217483","กรมควบคุมโรค ลานอเนกประสงค์ อาคาร 1","2023-10-06T00:00:00",16,8.1,11.2,32.2,27.2],
    [674,"FF1721AC76217483","กรมควบคุมโรค ลานอเนกประสงค์ อาคาร 1","2023-10-06T00:00:00",17,10.4,14.2,31.6,27.7],
    [675,"FF1721AC76217483","กรมควบคุมโรค ลานอเนกประสงค์ อาคาร 1","2023-10-06T00:00:00",18,9,9.6,30.1,30.8],
    [676,"FF1721AC76217483","กรมควบคุมโรค ลานอเนกประสงค์ อาคาร 1","2023-10-06T00:00:00",19,8.5,11.6,29.3,32.3],
    [677,"FF1721AC76217483","กรมควบคุมโรค ลานอเนกประสงค์ อาคาร 1","2023-10-06T00:00:00",20,9.6,13.6,29.7,31.9],
    [678,"FF1721AC76217483","กรมควบคุมโรค ลานอเนกประสงค์ อาคาร 1","2023-10-06T00:00:00",21,9.5,11.6,29.2,33.1],
    [679,"FF1721AC76217483","กรมควบคุมโรค ลานอเนกประสงค์ อาคาร 1","2023-10-06T00:00:00",22,9.6,12.8,29.3,33.3],
    [680,"FF1721AC76217483","กรมควบคุมโรค ลานอเนกประสงค์ อาคาร 1","2023-10-06T00:00:00",23,11,13.5,29.2,33.7],
    [681,"FF1721AC76217484","กองดิจิทัลเพื่อการควบคุมโรค","2023-10-06T00:00:00",0,6,9.3,27.4,37.8],
    [682,"FF1721AC76217484","กองดิจิทัลเพื่อการควบคุมโรค","2023-10-06T00:00:00",1,5.8,9.8,27.2,39],
    [683,"FF1721AC76217484","กองดิจิทัลเพื่อการควบคุมโรค","2023-10-06T00:00:00",2,6.8,9.1,27.2,38.9],
    [684,"FF1721AC76217484","กองดิจิทัลเพื่อการควบคุมโรค","2023-10-06T00:00:00",3,7.4,9.9,27.3,38.6],
    [685,"FF1721AC76217484","กองดิจิทัลเพื่อการควบคุมโรค","2023-10-06T00:00:00",4,7.2,9.8,27.5,38.3],
    [686,"FF1721AC76217484","กองดิจิทัลเพื่อการควบคุมโรค","2023-10-06T00:00:00",5,7.5,9.8,27.5,38.3],
    [687,"FF1721AC76217484","กองดิจิทัลเพื่อการควบคุมโรค","2023-10-06T00:00:00",6,7.6,11.4,27.7,38.2],
    [688,"FF1721AC76217484","กองดิจิทัลเพื่อการควบคุมโรค","2023-10-06T00:00:00",7,8.6,14.2,28.2,37.6],
    [689,"FF1721AC76217484","กองดิจิทัลเพื่อการควบคุมโรค","2023-10-06T00:00:00",8,12.4,18.5,28.1,38.2],
    [690,"FF1721AC76217484","กองดิจิทัลเพื่อการควบคุมโรค","2023-10-06T00:00:00",9,11.9,17.3,29.2,35.1],
    [691,"FF1721AC76217484","กองดิจิทัลเพื่อการควบคุมโรค","2023-10-06T00:00:00",10,9.6,15.6,29.9,33.1],
    [692,"FF1721AC76217484","กองดิจิทัลเพื่อการควบคุมโรค","2023-10-06T00:00:00",11,7.5,11.9,29.8,34.1],
    [693,"FF1721AC76217484","กองดิจิทัลเพื่อการควบคุมโรค","2023-10-06T00:00:00",12,8.5,13.4,29.9,34.5],
    [694,"FF1721AC76217484","กองดิจิทัลเพื่อการควบคุมโรค","2023-10-06T00:00:00",13,10.9,14.4,31.7,30.6],
    [695,"FF1721AC76217484","กองดิจิทัลเพื่อการควบคุมโรค","2023-10-06T00:00:00",14,9.5,13.2,31.4,29.4],
    [696,"FF1721AC76217484","กองดิจิทัลเพื่อการควบคุมโรค","2023-10-06T00:00:00",15,9.2,11.8,31,29.4],
    [697,"FF1721AC76217484","กองดิจิทัลเพื่อการควบคุมโรค","2023-10-06T00:00:00",16,8.7,12.9,30.9,29.5],
    [698,"FF1721AC76217484","กองดิจิทัลเพื่อการควบคุมโรค","2023-10-06T00:00:00",17,11,16.3,30.5,30.1],
    [699,"FF1721AC76217484","กองดิจิทัลเพื่อการควบคุมโรค","2023-10-06T00:00:00",18,8.6,11.4,28.9,34],
    [700,"FF1721AC76217484","กองดิจิทัลเพื่อการควบคุมโรค","2023-10-06T00:00:00",19,8.9,12.5,28.1,35.7],
    [701,"FF1721AC76217484","กองดิจิทัลเพื่อการควบคุมโรค","2023-10-06T00:00:00",20,10,13.6,28.1,35.6],
    [702,"FF1721AC76217484","กองดิจิทัลเพื่อการควบคุมโรค","2023-10-06T00:00:00",21,8.9,12,27.8,36.6],
    [703,"FF1721AC76217484","กองดิจิทัลเพื่อการควบคุมโรค","2023-10-06T00:00:00",22,9.5,12.8,27.8,37.2],
    [704,"FF1721AC76217484","กองดิจิทัลเพื่อการควบคุมโรค","2023-10-06T00:00:00",23,10.5,13.9,28,37.2],
    [705,"FF1721AC76217483","กรมควบคุมโรค ลานอเนกประสงค์ อาคาร 1","2023-11-06T00:00:00",0,13,17.1,29,32.7],
    [706,"FF1721AC76217483","กรมควบคุมโรค ลานอเนกประสงค์ อาคาร 1","2023-11-06T00:00:00",1,17.8,24.1,29,31.9],
    [707,"FF1721AC76217483","กรมควบคุมโรค ลานอเนกประสงค์ อาคาร 1","2023-11-06T00:00:00",2,22.1,31.4,28.5,32.4],
    [708,"FF1721AC76217483","กรมควบคุมโรค ลานอเนกประสงค์ อาคาร 1","2023-11-06T00:00:00",3,25.6,33.8,28.3,33],
    [709,"FF1721AC76217483","กรมควบคุมโรค ลานอเนกประสงค์ อาคาร 1","2023-11-06T00:00:00",4,23.4,34,28.5,33.3],
    [710,"FF1721AC76217483","กรมควบคุมโรค ลานอเนกประสงค์ อาคาร 1","2023-11-06T00:00:00",5,16.4,24.8,28.7,33.4],
    [711,"FF1721AC76217483","กรมควบคุมโรค ลานอเนกประสงค์ อาคาร 1","2023-11-06T00:00:00",6,21.3,29.4,28.6,33.9],
    [712,"FF1721AC76217483","กรมควบคุมโรค ลานอเนกประสงค์ อาคาร 1","2023-11-06T00:00:00",7,14.4,20.9,28.9,34.5],
    [713,"FF1721AC76217483","กรมควบคุมโรค ลานอเนกประสงค์ อาคาร 1","2023-11-06T00:00:00",8,8.2,12.1,29.3,33],
    [714,"FF1721AC76217483","กรมควบคุมโรค ลานอเนกประสงค์ อาคาร 1","2023-11-06T00:00:00",9,4.2,5.4,30.1,31.5],
    [715,"FF1721AC76217483","กรมควบคุมโรค ลานอเนกประสงค์ อาคาร 1","2023-11-06T00:00:00",10,3,4,32.6,27.8],
    [716,"FF1721AC76217483","กรมควบคุมโรค ลานอเนกประสงค์ อาคาร 1","2023-11-06T00:00:00",11,2,3.8,34.6,25.6],
    [717,"FF1721AC76217483","กรมควบคุมโรค ลานอเนกประสงค์ อาคาร 1","2023-11-06T00:00:00",12,2.3,3,35.4,24.2],
    [718,"FF1721AC76217483","กรมควบคุมโรค ลานอเนกประสงค์ อาคาร 1","2023-11-06T00:00:00",13,3.4,3.9,35,25],
    [719,"FF1721AC76217483","กรมควบคุมโรค ลานอเนกประสงค์ อาคาร 1","2023-11-06T00:00:00",14,3.5,4.9,32,28.9],
    [720,"FF1721AC76217483","กรมควบคุมโรค ลานอเนกประสงค์ อาคาร 1","2023-11-06T00:00:00",15,4.1,4.9,31.3,29.5],
    [721,"FF1721AC76217483","กรมควบคุมโรค ลานอเนกประสงค์ อาคาร 1","2023-11-06T00:00:00",16,4.6,6.8,31.2,28.9],
    [722,"FF1721AC76217483","กรมควบคุมโรค ลานอเนกประสงค์ อาคาร 1","2023-11-06T00:00:00",17,6.7,8.6,30.7,29.2],
    [723,"FF1721AC76217483","กรมควบคุมโรค ลานอเนกประสงค์ อาคาร 1","2023-11-06T00:00:00",18,6.4,8.9,30.2,29.4],
    [724,"FF1721AC76217483","กรมควบคุมโรค ลานอเนกประสงค์ อาคาร 1","2023-11-06T00:00:00",19,6.2,8.1,29.6,30.3],
    [725,"FF1721AC76217483","กรมควบคุมโรค ลานอเนกประสงค์ อาคาร 1","2023-11-06T00:00:00",20,6.1,8.9,28.9,32],
    [726,"FF1721AC76217483","กรมควบคุมโรค ลานอเนกประสงค์ อาคาร 1","2023-11-06T00:00:00",21,5.3,7.2,28.8,32.4],
    [727,"FF1721AC76217483","กรมควบคุมโรค ลานอเนกประสงค์ อาคาร 1","2023-11-06T00:00:00",22,4.5,5.4,28.8,32],
    [728,"FF1721AC76217483","กรมควบคุมโรค ลานอเนกประสงค์ อาคาร 1","2023-11-06T00:00:00",23,4.7,6.1,28.7,32],
    [729,"FF1721AC76217484","กองดิจิทัลเพื่อการควบคุมโรค","2023-11-06T00:00:00",0,12.9,17.1,27.7,36.7],
    [730,"FF1721AC76217484","กองดิจิทัลเพื่อการควบคุมโรค","2023-11-06T00:00:00",1,17.9,25.6,27.2,35.8],
    [731,"FF1721AC76217484","กองดิจิทัลเพื่อการควบคุมโรค","2023-11-06T00:00:00",2,23,35.4,26.9,36.5],
    [732,"FF1721AC76217484","กองดิจิทัลเพื่อการควบคุมโรค","2023-11-06T00:00:00",3,24.2,34,27,36.6],
    [733,"FF1721AC76217484","กองดิจิทัลเพื่อการควบคุมโรค","2023-11-06T00:00:00",4,22.8,32.5,27.1,36.9],
    [734,"FF1721AC76217484","กองดิจิทัลเพื่อการควบคุมโรค","2023-11-06T00:00:00",5,17.4,23.7,27.1,37.3],
    [735,"FF1721AC76217484","กองดิจิทัลเพื่อการควบคุมโรค","2023-11-06T00:00:00",6,20.7,30.4,27.2,37.7],
    [736,"FF1721AC76217484","กองดิจิทัลเพื่อการควบคุมโรค","2023-11-06T00:00:00",7,14.9,24.6,27.4,38.3],
    [737,"FF1721AC76217484","กองดิจิทัลเพื่อการควบคุมโรค","2023-11-06T00:00:00",8,9,13,28,36.7],
    [738,"FF1721AC76217484","กองดิจิทัลเพื่อการควบคุมโรค","2023-11-06T00:00:00",9,4.2,5.4,28.6,35],
    [739,"FF1721AC76217484","กองดิจิทัลเพื่อการควบคุมโรค","2023-11-06T00:00:00",10,2.8,5.1,30.2,32],
    [740,"FF1721AC76217484","กองดิจิทัลเพื่อการควบคุมโรค","2023-11-06T00:00:00",11,2.7,3.6,31.9,29.5],
    [741,"FF1721AC76217484","กองดิจิทัลเพื่อการควบคุมโรค","2023-11-06T00:00:00",12,2.3,3.3,32.7,28.2],
    [742,"FF1721AC76217484","กองดิจิทัลเพื่อการควบคุมโรค","2023-11-06T00:00:00",13,3,4.2,32.9,28.4],
    [743,"FF1721AC76217484","กองดิจิทัลเพื่อการควบคุมโรค","2023-11-06T00:00:00",14,3.5,4.5,31.7,30.6],
    [744,"FF1721AC76217484","กองดิจิทัลเพื่อการควบคุมโรค","2023-11-06T00:00:00",15,3.3,4.4,31,31.7],
    [745,"FF1721AC76217484","กองดิจิทัลเพื่อการควบคุมโรค","2023-11-06T00:00:00",16,5.7,6.2,30.3,31.5],
    [746,"FF1721AC76217484","กองดิจิทัลเพื่อการควบคุมโรค","2023-11-06T00:00:00",17,6.8,8,29.7,32.3],
    [747,"FF1721AC76217484","กองดิจิทัลเพื่อการควบคุมโรค","2023-11-06T00:00:00",18,6.5,8.7,29,32.6],
    [748,"FF1721AC76217484","กองดิจิทัลเพื่อการควบคุมโรค","2023-11-06T00:00:00",19,6.4,7.7,28.3,33.6],
    [749,"FF1721AC76217484","กองดิจิทัลเพื่อการควบคุมโรค","2023-11-06T00:00:00",20,6.3,9.1,27.6,35.5],
    [750,"FF1721AC76217484","กองดิจิทัลเพื่อการควบคุมโรค","2023-11-06T00:00:00",21,5.1,6.9,27.7,36],
    [751,"FF1721AC76217484","กองดิจิทัลเพื่อการควบคุมโรค","2023-11-06T00:00:00",22,4.4,5.4,27.6,35.4],
    [752,"FF1721AC76217484","กองดิจิทัลเพื่อการควบคุมโรค","2023-11-06T00:00:00",23,4.9,6.7,27.4,35.8],
    [753,"FF1721AC76217483","กรมควบคุมโรค ลานอเนกประสงค์ อาคาร 1","2023-12-06T00:00:00",0,7.1,9.4,28.6,31],
    [754,"FF1721AC76217483","กรมควบคุมโรค ลานอเนกประสงค์ อาคาร 1","2023-12-06T00:00:00",1,9.9,12.3,28.2,30.7],
    [755,"FF1721AC76217483","กรมควบคุมโรค ลานอเนกประสงค์ อาคาร 1","2023-12-06T00:00:00",2,10.9,15.5,27.9,30.7],
    [756,"FF1721AC76217483","กรมควบคุมโรค ลานอเนกประสงค์ อาคาร 1","2023-12-06T00:00:00",3,7,11.4,27.8,31.8],
    [757,"FF1721AC76217483","กรมควบคุมโรค ลานอเนกประสงค์ อาคาร 1","2023-12-06T00:00:00",4,5.2,7.9,28,32],
    [758,"FF1721AC76217483","กรมควบคุมโรค ลานอเนกประสงค์ อาคาร 1","2023-12-06T00:00:00",5,5.7,7.2,28.1,31.8],
    [759,"FF1721AC76217483","กรมควบคุมโรค ลานอเนกประสงค์ อาคาร 1","2023-12-06T00:00:00",6,7.4,8.8,28.4,31.5],
    [760,"FF1721AC76217483","กรมควบคุมโรค ลานอเนกประสงค์ อาคาร 1","2023-12-06T00:00:00",7,6.6,10.9,29.4,30.6],
    [761,"FF1721AC76217483","กรมควบคุมโรค ลานอเนกประสงค์ อาคาร 1","2023-12-06T00:00:00",8,8.9,11.7,30.5,29.4],
    [762,"FF1721AC76217483","กรมควบคุมโรค ลานอเนกประสงค์ อาคาร 1","2023-12-06T00:00:00",9,9.3,13.8,32.1,28],
    [763,"FF1721AC76217483","กรมควบคุมโรค ลานอเนกประสงค์ อาคาร 1","2023-12-06T00:00:00",10,15.5,20.1,32.1,27.7],
    [764,"FF1721AC76217483","กรมควบคุมโรค ลานอเนกประสงค์ อาคาร 1","2023-12-06T00:00:00",11,20.1,28.2,34.4,25.3],
    [765,"FF1721AC76217483","กรมควบคุมโรค ลานอเนกประสงค์ อาคาร 1","2023-12-06T00:00:00",12,23.2,32.2,34.1,25.8],
    [766,"FF1721AC76217483","กรมควบคุมโรค ลานอเนกประสงค์ อาคาร 1","2023-12-06T00:00:00",13,22.8,29.6,33.2,26.9],
    [767,"FF1721AC76217483","กรมควบคุมโรค ลานอเนกประสงค์ อาคาร 1","2023-12-06T00:00:00",14,20.6,25.8,32.4,28.3],
    [768,"FF1721AC76217483","กรมควบคุมโรค ลานอเนกประสงค์ อาคาร 1","2023-12-06T00:00:00",15,19.2,25.3,27.7,37.6],
    [769,"FF1721AC76217483","กรมควบคุมโรค ลานอเนกประสงค์ อาคาร 1","2023-12-06T00:00:00",16,17.4,22.5,28,35.5],
    [770,"FF1721AC76217483","กรมควบคุมโรค ลานอเนกประสงค์ อาคาร 1","2023-12-06T00:00:00",17,11.6,15.3,28.5,34.8],
    [771,"FF1721AC76217483","กรมควบคุมโรค ลานอเนกประสงค์ อาคาร 1","2023-12-06T00:00:00",18,12.3,15.2,28.3,35.1],
    [772,"FF1721AC76217483","กรมควบคุมโรค ลานอเนกประสงค์ อาคาร 1","2023-12-06T00:00:00",19,9.1,13.3,28.3,34.6],
    [773,"FF1721AC76217483","กรมควบคุมโรค ลานอเนกประสงค์ อาคาร 1","2023-12-06T00:00:00",20,5.9,7.7,28.4,34.7],
    [774,"FF1721AC76217483","กรมควบคุมโรค ลานอเนกประสงค์ อาคาร 1","2023-12-06T00:00:00",21,6.2,7.4,28.3,35],
    [775,"FF1721AC76217483","กรมควบคุมโรค ลานอเนกประสงค์ อาคาร 1","2023-12-06T00:00:00",22,5.6,9,28.4,34.7],
    [776,"FF1721AC76217483","กรมควบคุมโรค ลานอเนกประสงค์ อาคาร 1","2023-12-06T00:00:00",23,5.8,7.3,28.4,34.1],
    [777,"FF1721AC76217484","กองดิจิทัลเพื่อการควบคุมโรค","2023-12-06T00:00:00",0,7.1,9,27.4,34.1],
    [778,"FF1721AC76217484","กองดิจิทัลเพื่อการควบคุมโรค","2023-12-06T00:00:00",1,9.8,14,27.1,33.7],
    [779,"FF1721AC76217484","กองดิจิทัลเพื่อการควบคุมโรค","2023-12-06T00:00:00",2,10,14.8,26.8,33.7],
    [780,"FF1721AC76217484","กองดิจิทัลเพื่อการควบคุมโรค","2023-12-06T00:00:00",3,7.2,9.5,26.7,35],
    [781,"FF1721AC76217484","กองดิจิทัลเพื่อการควบคุมโรค","2023-12-06T00:00:00",4,5.5,8.2,26.7,35.3],
    [782,"FF1721AC76217484","กองดิจิทัลเพื่อการควบคุมโรค","2023-12-06T00:00:00",5,6.1,8,26.7,35.3],
    [783,"FF1721AC76217484","กองดิจิทัลเพื่อการควบคุมโรค","2023-12-06T00:00:00",6,8.1,10.1,26.9,35.3],
    [784,"FF1721AC76217484","กองดิจิทัลเพื่อการควบคุมโรค","2023-12-06T00:00:00",7,8,10.2,27.8,34.4],
    [785,"FF1721AC76217484","กองดิจิทัลเพื่อการควบคุมโรค","2023-12-06T00:00:00",8,9.1,13.2,28.6,33.2],
    [786,"FF1721AC76217484","กองดิจิทัลเพื่อการควบคุมโรค","2023-12-06T00:00:00",9,11.3,15.5,29.3,32.3],
    [787,"FF1721AC76217484","กองดิจิทัลเพื่อการควบคุมโรค","2023-12-06T00:00:00",10,16.2,22.4,30,31.3],
    [788,"FF1721AC76217484","กองดิจิทัลเพื่อการควบคุมโรค","2023-12-06T00:00:00",11,22.4,31.8,31.6,29.5],
    [789,"FF1721AC76217484","กองดิจิทัลเพื่อการควบคุมโรค","2023-12-06T00:00:00",12,23.7,35.3,31.9,29.4],
    [790,"FF1721AC76217484","กองดิจิทัลเพื่อการควบคุมโรค","2023-12-06T00:00:00",13,22.5,30.1,31.8,29.9],
    [791,"FF1721AC76217484","กองดิจิทัลเพื่อการควบคุมโรค","2023-12-06T00:00:00",14,18.5,26.7,30.7,31.7],
    [792,"FF1721AC76217484","กองดิจิทัลเพื่อการควบคุมโรค","2023-12-06T00:00:00",15,20,28,25.9,41.9],
    [793,"FF1721AC76217484","กองดิจิทัลเพื่อการควบคุมโรค","2023-12-06T00:00:00",16,16.5,22,26.6,39],
    [794,"FF1721AC76217484","กองดิจิทัลเพื่อการควบคุมโรค","2023-12-06T00:00:00",17,10.9,15.3,27.2,38.4],
    [795,"FF1721AC76217484","กองดิจิทัลเพื่อการควบคุมโรค","2023-12-06T00:00:00",18,11.7,14.6,27.1,38.4],
    [796,"FF1721AC76217484","กองดิจิทัลเพื่อการควบคุมโรค","2023-12-06T00:00:00",19,9.4,12,27,38.2],
    [797,"FF1721AC76217484","กองดิจิทัลเพื่อการควบคุมโรค","2023-12-06T00:00:00",20,5.5,8,27.1,38.3],
    [798,"FF1721AC76217484","กองดิจิทัลเพื่อการควบคุมโรค","2023-12-06T00:00:00",21,6.1,8.6,27.1,38.6],
    [799,"FF1721AC76217484","กองดิจิทัลเพื่อการควบคุมโรค","2023-12-06T00:00:00",22,6.1,9.4,27.2,38],
    [800,"FF1721AC76217484","กองดิจิทัลเพื่อการควบคุมโรค","2023-12-06T00:00:00",23,6.8,8.7,27.1,37.7],
    [801,"FF1721AC76217483","กรมควบคุมโรค ลานอเนกประสงค์ อาคาร 1","2023-06-13T00:00:00",0,5.1,7.3,28.5,34.1],
    [802,"FF1721AC76217483","กรมควบคุมโรค ลานอเนกประสงค์ อาคาร 1","2023-06-13T00:00:00",1,4.3,6.7,28.2,33.7],
    [803,"FF1721AC76217483","กรมควบคุมโรค ลานอเนกประสงค์ อาคาร 1","2023-06-13T00:00:00",2,4,6.4,28.2,33.9],
    [804,"FF1721AC76217483","กรมควบคุมโรค ลานอเนกประสงค์ อาคาร 1","2023-06-13T00:00:00",3,4.6,6.8,28.1,34.1],
    [805,"FF1721AC76217483","กรมควบคุมโรค ลานอเนกประสงค์ อาคาร 1","2023-06-13T00:00:00",4,6,8.1,28.1,33.8],
    [806,"FF1721AC76217483","กรมควบคุมโรค ลานอเนกประสงค์ อาคาร 1","2023-06-13T00:00:00",5,7.5,11.5,28.2,33.9],
    [807,"FF1721AC76217483","กรมควบคุมโรค ลานอเนกประสงค์ อาคาร 1","2023-06-13T00:00:00",6,8.5,11.3,28.3,34.1],
    [808,"FF1721AC76217483","กรมควบคุมโรค ลานอเนกประสงค์ อาคาร 1","2023-06-13T00:00:00",7,7,9.4,28.9,33.7],
    [809,"FF1721AC76217483","กรมควบคุมโรค ลานอเนกประสงค์ อาคาร 1","2023-06-13T00:00:00",8,7.3,10.6,30.4,31.5],
    [810,"FF1721AC76217483","กรมควบคุมโรค ลานอเนกประสงค์ อาคาร 1","2023-06-13T00:00:00",9,8.7,12.8,31.4,30],
    [811,"FF1721AC76217483","กรมควบคุมโรค ลานอเนกประสงค์ อาคาร 1","2023-06-13T00:00:00",10,11.2,16.2,32.8,28.4],
    [812,"FF1721AC76217483","กรมควบคุมโรค ลานอเนกประสงค์ อาคาร 1","2023-06-13T00:00:00",14,5.8,10,27,37.9],
    [813,"FF1721AC76217483","กรมควบคุมโรค ลานอเนกประสงค์ อาคาร 1","2023-06-13T00:00:00",15,7.5,8.9,27.7,37.1],
    [814,"FF1721AC76217483","กรมควบคุมโรค ลานอเนกประสงค์ อาคาร 1","2023-06-13T00:00:00",16,6.9,9.8,28.8,34.6],
    [815,"FF1721AC76217483","กรมควบคุมโรค ลานอเนกประสงค์ อาคาร 1","2023-06-13T00:00:00",17,8,11.4,29.8,33.7],
    [816,"FF1721AC76217483","กรมควบคุมโรค ลานอเนกประสงค์ อาคาร 1","2023-06-13T00:00:00",18,10.3,13.6,29.7,32.8],
    [817,"FF1721AC76217483","กรมควบคุมโรค ลานอเนกประสงค์ อาคาร 1","2023-06-13T00:00:00",19,9.8,12.5,29,33],
    [818,"FF1721AC76217483","กรมควบคุมโรค ลานอเนกประสงค์ อาคาร 1","2023-06-13T00:00:00",20,9.2,12.2,28.8,33.8],
    [819,"FF1721AC76217483","กรมควบคุมโรค ลานอเนกประสงค์ อาคาร 1","2023-06-13T00:00:00",21,6.7,8.6,28.9,33.5],
    [820,"FF1721AC76217483","กรมควบคุมโรค ลานอเนกประสงค์ อาคาร 1","2023-06-13T00:00:00",22,5,8.6,28.7,33.2],
    [821,"FF1721AC76217483","กรมควบคุมโรค ลานอเนกประสงค์ อาคาร 1","2023-06-13T00:00:00",23,3.3,4.4,28.6,33],
    [822,"FF1721AC76217484","กองดิจิทัลเพื่อการควบคุมโรค","2023-06-13T00:00:00",0,5.1,7.4,27,37.7],
    [823,"FF1721AC76217484","กองดิจิทัลเพื่อการควบคุมโรค","2023-06-13T00:00:00",1,4.5,6.6,26.9,37.5],
    [824,"FF1721AC76217484","กองดิจิทัลเพื่อการควบคุมโรค","2023-06-13T00:00:00",2,4.1,6.4,26.8,37.5],
    [825,"FF1721AC76217484","กองดิจิทัลเพื่อการควบคุมโรค","2023-06-13T00:00:00",3,4.5,6.4,26.7,37.7],
    [826,"FF1721AC76217484","กองดิจิทัลเพื่อการควบคุมโรค","2023-06-13T00:00:00",4,6.3,9.7,26.8,37.2],
    [827,"FF1721AC76217484","กองดิจิทัลเพื่อการควบคุมโรค","2023-06-13T00:00:00",5,7.8,10.1,26.9,37.4],
    [828,"FF1721AC76217484","กองดิจิทัลเพื่อการควบคุมโรค","2023-06-13T00:00:00",6,8.1,10.8,27.1,37.5],
    [829,"FF1721AC76217484","กองดิจิทัลเพื่อการควบคุมโรค","2023-06-13T00:00:00",7,6.1,9.7,27.7,37.4],
    [830,"FF1721AC76217484","กองดิจิทัลเพื่อการควบคุมโรค","2023-06-13T00:00:00",8,7.6,10.8,28.9,35.1],
    [831,"FF1721AC76217484","กองดิจิทัลเพื่อการควบคุมโรค","2023-06-13T00:00:00",9,9.4,12.8,29.6,33.8],
    [832,"FF1721AC76217484","กองดิจิทัลเพื่อการควบคุมโรค","2023-06-13T00:00:00",10,12,15.7,29.7,33.1],
    [833,"FF1721AC76217484","กองดิจิทัลเพื่อการควบคุมโรค","2023-06-13T00:00:00",14,7.5,10.8,24.7,42.7],
    [834,"FF1721AC76217484","กองดิจิทัลเพื่อการควบคุมโรค","2023-06-13T00:00:00",15,7.7,9.3,25.8,40.9],
    [835,"FF1721AC76217484","กองดิจิทัลเพื่อการควบคุมโรค","2023-06-13T00:00:00",16,7.1,9.4,27.2,38.5],
    [836,"FF1721AC76217484","กองดิจิทัลเพื่อการควบคุมโรค","2023-06-13T00:00:00",17,8.8,11.4,28.3,37.4],
    [837,"FF1721AC76217484","กองดิจิทัลเพื่อการควบคุมโรค","2023-06-13T00:00:00",18,10.2,14,28.3,36.4],
    [838,"FF1721AC76217484","กองดิจิทัลเพื่อการควบคุมโรค","2023-06-13T00:00:00",19,10.3,13.7,28.1,36],
    [839,"FF1721AC76217484","กองดิจิทัลเพื่อการควบคุมโรค","2023-06-13T00:00:00",20,7.9,11,27.7,36.9],
    [840,"FF1721AC76217484","กองดิจิทัลเพื่อการควบคุมโรค","2023-06-13T00:00:00",21,7.4,9.2,27.7,36.9],
    [841,"FF1721AC76217484","กองดิจิทัลเพื่อการควบคุมโรค","2023-06-13T00:00:00",22,5,7.6,27.8,36.2],
    [842,"FF1721AC76217484","กองดิจิทัลเพื่อการควบคุมโรค","2023-06-13T00:00:00",23,3.6,4.8,27.5,36.3],
    [843,"FF1721AC76217483","กรมควบคุมโรค ลานอเนกประสงค์ อาคาร 1","2023-06-14T00:00:00",0,3.3,3.9,28.5,34.1],
    [844,"FF1721AC76217483","กรมควบคุมโรค ลานอเนกประสงค์ อาคาร 1","2023-06-14T00:00:00",1,2.4,4,28.5,34.1],
    [845,"FF1721AC76217483","กรมควบคุมโรค ลานอเนกประสงค์ อาคาร 1","2023-06-14T00:00:00",2,1.7,2.2,28.4,34.8],
    [846,"FF1721AC76217483","กรมควบคุมโรค ลานอเนกประสงค์ อาคาร 1","2023-06-14T00:00:00",3,2.6,3.2,26.6,37.7],
    [847,"FF1721AC76217483","กรมควบคุมโรค ลานอเนกประสงค์ อาคาร 1","2023-06-14T00:00:00",4,4.3,6.7,26.2,39.2],
    [848,"FF1721AC76217483","กรมควบคุมโรค ลานอเนกประสงค์ อาคาร 1","2023-06-14T00:00:00",5,9.7,14.5,26.3,38.7],
    [849,"FF1721AC76217483","กรมควบคุมโรค ลานอเนกประสงค์ อาคาร 1","2023-06-14T00:00:00",6,17,21.4,26.8,37.9],
    [850,"FF1721AC76217483","กรมควบคุมโรค ลานอเนกประสงค์ อาคาร 1","2023-06-14T00:00:00",7,22.5,29.8,28,36.2],
    [851,"FF1721AC76217483","กรมควบคุมโรค ลานอเนกประสงค์ อาคาร 1","2023-06-14T00:00:00",8,16.5,24,29.3,33.9],
    [852,"FF1721AC76217483","กรมควบคุมโรค ลานอเนกประสงค์ อาคาร 1","2023-06-14T00:00:00",9,13.7,17,30.5,32.1],
    [853,"FF1721AC76217483","กรมควบคุมโรค ลานอเนกประสงค์ อาคาร 1","2023-06-14T00:00:00",10,3,3,31.6,30.1],
    [854,"FF1721AC76217483","กรมควบคุมโรค ลานอเนกประสงค์ อาคาร 1","2023-06-14T00:00:00",11,1.3,1.6,31.2,29.1],
    [855,"FF1721AC76217483","กรมควบคุมโรค ลานอเนกประสงค์ อาคาร 1","2023-06-14T00:00:00",12,2.4,3.7,32.7,27.8],
    [856,"FF1721AC76217483","กรมควบคุมโรค ลานอเนกประสงค์ อาคาร 1","2023-06-14T00:00:00",13,3.7,4,32.9,27.7],
    [857,"FF1721AC76217483","กรมควบคุมโรค ลานอเนกประสงค์ อาคาร 1","2023-06-14T00:00:00",14,3.8,5.4,32.6,28],
    [858,"FF1721AC76217483","กรมควบคุมโรค ลานอเนกประสงค์ อาคาร 1","2023-06-14T00:00:00",15,4.2,6.5,31.9,28.5],
    [859,"FF1721AC76217483","กรมควบคุมโรค ลานอเนกประสงค์ อาคาร 1","2023-06-14T00:00:00",16,3.6,5.6,30.9,29.6],
    [860,"FF1721AC76217483","กรมควบคุมโรค ลานอเนกประสงค์ อาคาร 1","2023-06-14T00:00:00",17,3.2,3.9,30.3,31.2],
    [861,"FF1721AC76217483","กรมควบคุมโรค ลานอเนกประสงค์ อาคาร 1","2023-06-14T00:00:00",18,3.3,4.7,29.2,33.6],
    [862,"FF1721AC76217483","กรมควบคุมโรค ลานอเนกประสงค์ อาคาร 1","2023-06-14T00:00:00",19,4.2,7.5,29.2,32.8],
    [863,"FF1721AC76217483","กรมควบคุมโรค ลานอเนกประสงค์ อาคาร 1","2023-06-14T00:00:00",20,7.6,11.2,29.3,32.1],
    [864,"FF1721AC76217483","กรมควบคุมโรค ลานอเนกประสงค์ อาคาร 1","2023-06-14T00:00:00",21,11.6,15.4,29.3,32.3],
    [865,"FF1721AC76217483","กรมควบคุมโรค ลานอเนกประสงค์ อาคาร 1","2023-06-14T00:00:00",22,11.1,16.1,29.3,32.1],
    [866,"FF1721AC76217483","กรมควบคุมโรค ลานอเนกประสงค์ อาคาร 1","2023-06-14T00:00:00",23,12.2,17.8,29.1,32.4],
    [867,"FF1721AC76217484","กองดิจิทัลเพื่อการควบคุมโรค","2023-06-14T00:00:00",0,2.7,5,27.2,37.7],
    [868,"FF1721AC76217484","กองดิจิทัลเพื่อการควบคุมโรค","2023-06-14T00:00:00",1,1.8,3,27.2,37.7],
    [869,"FF1721AC76217484","กองดิจิทัลเพื่อการควบคุมโรค","2023-06-14T00:00:00",2,1.8,2.6,27,38.3],
    [870,"FF1721AC76217484","กองดิจิทัลเพื่อการควบคุมโรค","2023-06-14T00:00:00",3,2.7,3.9,25.3,41.2],
    [871,"FF1721AC76217484","กองดิจิทัลเพื่อการควบคุมโรค","2023-06-14T00:00:00",4,4.5,6.2,24.6,43.5],
    [872,"FF1721AC76217484","กองดิจิทัลเพื่อการควบคุมโรค","2023-06-14T00:00:00",5,10.8,13.2,24.4,44.2],
    [873,"FF1721AC76217484","กองดิจิทัลเพื่อการควบคุมโรค","2023-06-14T00:00:00",6,16.6,22.5,25.2,42.9],
    [874,"FF1721AC76217484","กองดิจิทัลเพื่อการควบคุมโรค","2023-06-14T00:00:00",7,23.1,31.7,26.2,40.6],
    [875,"FF1721AC76217484","กองดิจิทัลเพื่อการควบคุมโรค","2023-06-14T00:00:00",8,17.8,25.5,27.3,38.3],
    [876,"FF1721AC76217484","กองดิจิทัลเพื่อการควบคุมโรค","2023-06-14T00:00:00",9,13.4,16.3,28.2,36.7],
    [877,"FF1721AC76217484","กองดิจิทัลเพื่อการควบคุมโรค","2023-06-14T00:00:00",10,3.6,5,29.2,34.1],
    [878,"FF1721AC76217484","กองดิจิทัลเพื่อการควบคุมโรค","2023-06-14T00:00:00",11,2.8,2.8,29.7,32.3],
    [879,"FF1721AC76217484","กองดิจิทัลเพื่อการควบคุมโรค","2023-06-14T00:00:00",12,3.6,4.5,30.6,31.1],
    [880,"FF1721AC76217484","กองดิจิทัลเพื่อการควบคุมโรค","2023-06-14T00:00:00",13,4.1,5.8,30.7,31.1],
    [881,"FF1721AC76217484","กองดิจิทัลเพื่อการควบคุมโรค","2023-06-14T00:00:00",14,3.9,5.9,30.9,30.6],
    [882,"FF1721AC76217484","กองดิจิทัลเพื่อการควบคุมโรค","2023-06-14T00:00:00",15,4.4,6.7,30.7,31.3],
    [883,"FF1721AC76217484","กองดิจิทัลเพื่อการควบคุมโรค","2023-06-14T00:00:00",16,3.5,4.7,29.7,32.6],
    [884,"FF1721AC76217484","กองดิจิทัลเพื่อการควบคุมโรค","2023-06-14T00:00:00",17,3.3,4.4,29.3,34.1],
    [885,"FF1721AC76217484","กองดิจิทัลเพื่อการควบคุมโรค","2023-06-14T00:00:00",18,4.3,5.7,28,37.3],
    [886,"FF1721AC76217484","กองดิจิทัลเพื่อการควบคุมโรค","2023-06-14T00:00:00",19,4.7,6.9,28,36],
    [887,"FF1721AC76217484","กองดิจิทัลเพื่อการควบคุมโรค","2023-06-14T00:00:00",20,9,10.6,28,35.4],
    [888,"FF1721AC76217484","กองดิจิทัลเพื่อการควบคุมโรค","2023-06-14T00:00:00",21,11.2,15.3,27.8,36.1],
    [889,"FF1721AC76217484","กองดิจิทัลเพื่อการควบคุมโรค","2023-06-14T00:00:00",22,11.3,15.9,28.1,35.4],
    [890,"FF1721AC76217484","กองดิจิทัลเพื่อการควบคุมโรค","2023-06-14T00:00:00",23,12.5,17.1,27.7,35.9],
    [891,"FF1721AC76217483","กรมควบคุมโรค ลานอเนกประสงค์ อาคาร 1","2023-06-15T00:00:00",0,15.8,19.1,29.1,32.4],
    [892,"FF1721AC76217483","กรมควบคุมโรค ลานอเนกประสงค์ อาคาร 1","2023-06-15T00:00:00",1,12.3,16.9,29,32.7],
    [893,"FF1721AC76217483","กรมควบคุมโรค ลานอเนกประสงค์ อาคาร 1","2023-06-15T00:00:00",2,17.1,25.7,28.6,33.5],
    [894,"FF1721AC76217483","กรมควบคุมโรค ลานอเนกประสงค์ อาคาร 1","2023-06-15T00:00:00",3,18.2,28.1,28.4,34.2],
    [895,"FF1721AC76217483","กรมควบคุมโรค ลานอเนกประสงค์ อาคาร 1","2023-06-15T00:00:00",8,3.2,3.8,31.8,29.3],
    [896,"FF1721AC76217483","กรมควบคุมโรค ลานอเนกประสงค์ อาคาร 1","2023-06-15T00:00:00",9,3.8,5,33.6,27],
    [897,"FF1721AC76217483","กรมควบคุมโรค ลานอเนกประสงค์ อาคาร 1","2023-06-15T00:00:00",10,4.5,5.4,33.8,26.2],
    [898,"FF1721AC76217483","กรมควบคุมโรค ลานอเนกประสงค์ อาคาร 1","2023-06-15T00:00:00",11,3.3,4.1,35.6,24.2],
    [899,"FF1721AC76217483","กรมควบคุมโรค ลานอเนกประสงค์ อาคาร 1","2023-06-15T00:00:00",12,4.8,6.6,33.1,27.1],
    [900,"FF1721AC76217483","กรมควบคุมโรค ลานอเนกประสงค์ อาคาร 1","2023-06-15T00:00:00",13,6.1,8.6,32.7,28.5],
    [901,"FF1721AC76217483","กรมควบคุมโรค ลานอเนกประสงค์ อาคาร 1","2023-06-15T00:00:00",14,7.2,8.5,32.8,28.2],
    [902,"FF1721AC76217483","กรมควบคุมโรค ลานอเนกประสงค์ อาคาร 1","2023-06-15T00:00:00",15,9.1,12.3,32.3,28.1],
    [903,"FF1721AC76217483","กรมควบคุมโรค ลานอเนกประสงค์ อาคาร 1","2023-06-15T00:00:00",16,12.2,15.3,32.2,28.4],
    [904,"FF1721AC76217483","กรมควบคุมโรค ลานอเนกประสงค์ อาคาร 1","2023-06-15T00:00:00",17,13.3,16.9,32.1,28.7],
    [905,"FF1721AC76217483","กรมควบคุมโรค ลานอเนกประสงค์ อาคาร 1","2023-06-15T00:00:00",18,7.7,10.4,31.4,29.8],
    [906,"FF1721AC76217483","กรมควบคุมโรค ลานอเนกประสงค์ อาคาร 1","2023-06-15T00:00:00",19,5,8,30.3,31.6],
    [907,"FF1721AC76217484","กองดิจิทัลเพื่อการควบคุมโรค","2023-06-15T00:00:00",0,14.8,21.3,27.5,36.3],
    [908,"FF1721AC76217484","กองดิจิทัลเพื่อการควบคุมโรค","2023-06-15T00:00:00",1,13.9,18.9,27.6,36.6],
    [909,"FF1721AC76217484","กองดิจิทัลเพื่อการควบคุมโรค","2023-06-15T00:00:00",2,17.1,26.1,27.5,37],
    [910,"FF1721AC76217484","กองดิจิทัลเพื่อการควบคุมโรค","2023-06-15T00:00:00",3,12.9,18.6,27.1,37.5],
    [911,"FF1721AC76217484","กองดิจิทัลเพื่อการควบคุมโรค","2023-06-15T00:00:00",4,2.8,4.5,27.1,37.7],
    [912,"FF1721AC76217484","กองดิจิทัลเพื่อการควบคุมโรค","2023-06-15T00:00:00",5,2.7,3.5,26.8,37.9],
    [913,"FF1721AC76217484","กองดิจิทัลเพื่อการควบคุมโรค","2023-06-15T00:00:00",6,3,3.8,27.1,37.5],
    [914,"FF1721AC76217484","กองดิจิทัลเพื่อการควบคุมโรค","2023-06-15T00:00:00",7,3,4,27.7,36.6],
    [915,"FF1721AC76217484","กองดิจิทัลเพื่อการควบคุมโรค","2023-06-15T00:00:00",8,3.6,4.3,28.5,34.8],
    [916,"FF1721AC76217484","กองดิจิทัลเพื่อการควบคุมโรค","2023-06-15T00:00:00",9,4.7,5.8,29.7,32.6],
    [917,"FF1721AC76217484","กองดิจิทัลเพื่อการควบคุมโรค","2023-06-15T00:00:00",10,5.1,6.8,30.4,30.8],
    [918,"FF1721AC76217484","กองดิจิทัลเพื่อการควบคุมโรค","2023-06-15T00:00:00",11,4.6,5.3,32,28.7],
    [919,"FF1721AC76217484","กองดิจิทัลเพื่อการควบคุมโรค","2023-06-15T00:00:00",12,5.7,6.5,31.3,30.4],
    [920,"FF1721AC76217484","กองดิจิทัลเพื่อการควบคุมโรค","2023-06-15T00:00:00",13,6.5,9.3,30.6,32.1],
    [921,"FF1721AC76217484","กองดิจิทัลเพื่อการควบคุมโรค","2023-06-15T00:00:00",14,6.9,10.1,30.6,31.4],
    [922,"FF1721AC76217484","กองดิจิทัลเพื่อการควบคุมโรค","2023-06-15T00:00:00",15,9.2,11.7,31.9,29.7],
    [923,"FF1721AC76217484","กองดิจิทัลเพื่อการควบคุมโรค","2023-06-15T00:00:00",16,12.4,17.6,31.5,30.3],
    [924,"FF1721AC76217484","กองดิจิทัลเพื่อการควบคุมโรค","2023-06-15T00:00:00",17,13.1,16.6,30.6,31.8],
    [925,"FF1721AC76217484","กองดิจิทัลเพื่อการควบคุมโรค","2023-06-15T00:00:00",18,8.1,10.6,29.8,33.2],
    [926,"FF1721AC76217484","กองดิจิทัลเพื่อการควบคุมโรค","2023-06-15T00:00:00",19,5.9,8.8,28.6,35.9],
    [927,"FF1721AC76217484","กองดิจิทัลเพื่อการควบคุมโรค","2023-06-15T00:00:00",20,6.5,9.2,28.3,36.8],
    [928,"FF1721AC76217484","กองดิจิทัลเพื่อการควบคุมโรค","2023-06-15T00:00:00",21,5.9,9.5,28.5,36.2],
    [929,"FF1721AC76217484","กองดิจิทัลเพื่อการควบคุมโรค","2023-06-15T00:00:00",22,7.6,12,28.8,36.2],
    [930,"FF1721AC76217484","กองดิจิทัลเพื่อการควบคุมโรค","2023-06-15T00:00:00",23,6.8,10.5,28.3,38],
    [931,"FF1721AC76217483","กรมควบคุมโรค ลานอเนกประสงค์ อาคาร 1","2023-06-16T00:00:00",0,6,14,28,37.5],
    [932,"FF1721AC76217484","กองดิจิทัลเพื่อการควบคุมโรค","2023-06-16T00:00:00",0,7.1,10,28.2,37.3],
    [933,"FF1721AC76217484","กองดิจิทัลเพื่อการควบคุมโรค","2023-06-16T00:00:00",1,7.3,12.2,28.2,35.8],
    [934,"FF1721AC76217484","กองดิจิทัลเพื่อการควบคุมโรค","2023-06-16T00:00:00",2,9.2,12.8,27.8,36],
    [935,"FF1721AC76217484","กองดิจิทัลเพื่อการควบคุมโรค","2023-06-16T00:00:00",3,9.4,14.2,27.6,35.9],
    [936,"FF1721AC76217484","กองดิจิทัลเพื่อการควบคุมโรค","2023-06-16T00:00:00",4,13.8,17.7,27,36.8],
    [937,"FF1721AC76217484","กองดิจิทัลเพื่อการควบคุมโรค","2023-06-16T00:00:00",5,17.2,25.8,26.5,37.7],
    [938,"FF1721AC76217484","กองดิจิทัลเพื่อการควบคุมโรค","2023-06-16T00:00:00",6,14.3,19.5,26.9,37.3],
    [939,"FF1721AC76217484","กองดิจิทัลเพื่อการควบคุมโรค","2023-06-16T00:00:00",7,10.1,15.1,27.7,36.8],
    [940,"FF1721AC76217484","กองดิจิทัลเพื่อการควบคุมโรค","2023-06-16T00:00:00",8,9.1,12.3,28.3,35.9],
    [941,"FF1721AC76217484","กองดิจิทัลเพื่อการควบคุมโรค","2023-06-16T00:00:00",9,11,16.4,29.8,33.5],
    [942,"FF1721AC76217484","กองดิจิทัลเพื่อการควบคุมโรค","2023-06-16T00:00:00",10,7.2,10,31,31.8],
    [943,"FF1721AC76217484","กองดิจิทัลเพื่อการควบคุมโรค","2023-06-16T00:00:00",11,9.2,12,32,30.2],
    [944,"FF1721AC76217484","กองดิจิทัลเพื่อการควบคุมโรค","2023-06-16T00:00:00",12,14.3,19.6,32,30.6],
    [945,"FF1721AC76217484","กองดิจิทัลเพื่อการควบคุมโรค","2023-06-16T00:00:00",13,14.6,19.9,30.8,32.7],
    [946,"FF1721AC76217484","กองดิจิทัลเพื่อการควบคุมโรค","2023-06-16T00:00:00",14,9.4,11.8,30.7,32.9],
    [947,"FF1721AC76217484","กองดิจิทัลเพื่อการควบคุมโรค","2023-06-16T00:00:00",15,9.9,12.7,30.5,33.1],
    [948,"FF1721AC76217484","กองดิจิทัลเพื่อการควบคุมโรค","2023-06-16T00:00:00",16,6.6,8.3,30.7,32.8],
    [949,"FF1721AC76217484","กองดิจิทัลเพื่อการควบคุมโรค","2023-06-16T00:00:00",17,5.1,6.9,29.4,35],
    [950,"FF1721AC76217484","กองดิจิทัลเพื่อการควบคุมโรค","2023-06-16T00:00:00",18,3.9,6.2,28.4,37.3],
    [951,"FF1721AC76217484","กองดิจิทัลเพื่อการควบคุมโรค","2023-06-16T00:00:00",19,3.2,4.7,28,37.8],
    [952,"FF1721AC76217484","กองดิจิทัลเพื่อการควบคุมโรค","2023-06-16T00:00:00",20,3.7,6.6,28.2,37.8],
    [953,"FF1721AC76217484","กองดิจิทัลเพื่อการควบคุมโรค","2023-06-16T00:00:00",21,3.6,5,28.2,38.4],
    [954,"FF1721AC76217484","กองดิจิทัลเพื่อการควบคุมโรค","2023-06-16T00:00:00",22,4,6.4,28.2,38.7],
    [955,"FF1721AC76217484","กองดิจิทัลเพื่อการควบคุมโรค","2023-06-16T00:00:00",23,4.3,6.9,28.1,38.9],
    [956,"FF1721AC76217484","กองดิจิทัลเพื่อการควบคุมโรค","2023-06-17T00:00:00",0,4.1,5.7,28.3,37.4],
    [957,"FF1721AC76217484","กองดิจิทัลเพื่อการควบคุมโรค","2023-06-17T00:00:00",1,3.8,5,28.2,35.9],
    [958,"FF1721AC76217484","กองดิจิทัลเพื่อการควบคุมโรค","2023-06-17T00:00:00",2,6.5,7.7,28,35.5],
    [959,"FF1721AC76217484","กองดิจิทัลเพื่อการควบคุมโรค","2023-06-17T00:00:00",3,5.7,7.7,28,35.3],
    [960,"FF1721AC76217484","กองดิจิทัลเพื่อการควบคุมโรค","2023-06-17T00:00:00",4,6,8.9,27.9,35.8],
    [961,"FF1721AC76217484","กองดิจิทัลเพื่อการควบคุมโรค","2023-06-17T00:00:00",5,4.9,7.6,27.8,36.6],
    [962,"FF1721AC76217484","กองดิจิทัลเพื่อการควบคุมโรค","2023-06-17T00:00:00",6,4.4,7,27.8,37.3],
    [963,"FF1721AC76217484","กองดิจิทัลเพื่อการควบคุมโรค","2023-06-17T00:00:00",7,5.4,7.1,28.4,36.1],
    [964,"FF1721AC76217484","กองดิจิทัลเพื่อการควบคุมโรค","2023-06-17T00:00:00",8,5.9,7.9,29,34.8],
    [965,"FF1721AC76217484","กองดิจิทัลเพื่อการควบคุมโรค","2023-06-17T00:00:00",9,5.3,7.4,30.4,31.5],
    [966,"FF1721AC76217484","กองดิจิทัลเพื่อการควบคุมโรค","2023-06-17T00:00:00",10,6.4,9.1,31.7,29.8],
    [967,"FF1721AC76217484","กองดิจิทัลเพื่อการควบคุมโรค","2023-06-17T00:00:00",16,10.7,11,31.5,32],
    [968,"FF1721AC76217484","กองดิจิทัลเพื่อการควบคุมโรค","2023-06-17T00:00:00",17,5.2,9.2,30.3,34.1],
    [969,"FF1721AC76217484","กองดิจิทัลเพื่อการควบคุมโรค","2023-06-17T00:00:00",18,7.2,10.6,26.2,41.1],
    [970,"FF1721AC76217484","กองดิจิทัลเพื่อการควบคุมโรค","2023-06-17T00:00:00",19,2.5,3.4,22.1,46.3],
    [971,"FF1721AC76217484","กองดิจิทัลเพื่อการควบคุมโรค","2023-06-17T00:00:00",20,5.4,7.4,23.5,46.6],
    [972,"FF1721AC76217484","กองดิจิทัลเพื่อการควบคุมโรค","2023-06-17T00:00:00",21,8.6,12.4,24.4,46],
    [973,"FF1721AC76217484","กองดิจิทัลเพื่อการควบคุมโรค","2023-06-17T00:00:00",22,10.7,16.2,25.1,45.7],
    [974,"FF1721AC76217484","กองดิจิทัลเพื่อการควบคุมโรค","2023-06-17T00:00:00",23,12,18.3,25.2,46.7],
    [975,"FF1721AC76217484","กองดิจิทัลเพื่อการควบคุมโรค","2023-06-18T00:00:00",0,11.2,16,24.9,47],
    [976,"FF1721AC76217484","กองดิจิทัลเพื่อการควบคุมโรค","2023-06-18T00:00:00",1,13.8,17.9,24.6,46.7],
    [977,"FF1721AC76217484","กองดิจิทัลเพื่อการควบคุมโรค","2023-06-18T00:00:00",2,15.9,25,25,46.1],
    [978,"FF1721AC76217484","กองดิจิทัลเพื่อการควบคุมโรค","2023-06-18T00:00:00",3,20.7,30.9,25,46],
    [979,"FF1721AC76217484","กองดิจิทัลเพื่อการควบคุมโรค","2023-06-18T00:00:00",4,27.9,37.2,25.1,45.3],
    [980,"FF1721AC76217484","กองดิจิทัลเพื่อการควบคุมโรค","2023-06-18T00:00:00",5,28.6,39.8,25.1,44.9],
    [981,"FF1721AC76217484","กองดิจิทัลเพื่อการควบคุมโรค","2023-06-18T00:00:00",6,26.4,37.6,25.2,44.9],
    [982,"FF1721AC76217484","กองดิจิทัลเพื่อการควบคุมโรค","2023-06-18T00:00:00",7,26.2,37.4,26.5,43],
    [983,"FF1721AC76217484","กองดิจิทัลเพื่อการควบคุมโรค","2023-06-18T00:00:00",8,26.7,38.1,28,39.8],
    [984,"FF1721AC76217484","กองดิจิทัลเพื่อการควบคุมโรค","2023-06-18T00:00:00",9,8.5,13,28.8,36.2],
    [985,"FF1721AC76217484","กองดิจิทัลเพื่อการควบคุมโรค","2023-06-18T00:00:00",10,4.1,5.7,29.8,33.9],
    [986,"FF1721AC76217484","กองดิจิทัลเพื่อการควบคุมโรค","2023-06-18T00:00:00",11,4.9,7,30,33.2],
    [987,"FF1721AC76217484","กองดิจิทัลเพื่อการควบคุมโรค","2023-06-18T00:00:00",12,6.1,11.1,26.4,41.9],
    [988,"FF1721AC76217484","กองดิจิทัลเพื่อการควบคุมโรค","2023-06-18T00:00:00",13,5.2,6.9,28.3,38.1],
    [989,"FF1721AC76217484","กองดิจิทัลเพื่อการควบคุมโรค","2023-06-18T00:00:00",14,4,5.9,29.4,34.7],
    [990,"FF1721AC76217484","กองดิจิทัลเพื่อการควบคุมโรค","2023-06-18T00:00:00",15,3.8,4.7,29.3,33.8],
    [991,"FF1721AC76217484","กองดิจิทัลเพื่อการควบคุมโรค","2023-06-18T00:00:00",16,1.7,3.2,27.7,36.2],
    [992,"FF1721AC76217484","กองดิจิทัลเพื่อการควบคุมโรค","2023-06-18T00:00:00",17,3.2,4.5,26.2,37.7],
    [993,"FF1721AC76217484","กองดิจิทัลเพื่อการควบคุมโรค","2023-06-18T00:00:00",18,3.5,6,25.8,39.4],
    [994,"FF1721AC76217484","กองดิจิทัลเพื่อการควบคุมโรค","2023-06-18T00:00:00",19,4.4,4.2,26.4,38],
    [995,"FF1721AC76217484","กองดิจิทัลเพื่อการควบคุมโรค","2023-06-18T00:00:00",20,3.6,5,26.7,37.4],
    [996,"FF1721AC76217484","กองดิจิทัลเพื่อการควบคุมโรค","2023-06-18T00:00:00",21,2.4,4.2,26.9,36.4],
    [997,"FF1721AC76217484","กองดิจิทัลเพื่อการควบคุมโรค","2023-06-18T00:00:00",22,4.2,5.1,27,36.2],
    [998,"FF1721AC76217484","กองดิจิทัลเพื่อการควบคุมโรค","2023-06-18T00:00:00",23,5,7,26.8,36.5],
    [999,"FF1721AC76217484","กองดิจิทัลเพื่อการควบคุมโรค","2023-06-19T00:00:00",0,4.9,7,26.7,37.3],
    [1000,"FF1721AC76217484","กองดิจิทัลเพื่อการควบคุมโรค","2023-06-19T00:00:00",1,4.9,7.4,26.7,37.2],
    [1001,"FF1721AC76217484","กองดิจิทัลเพื่อการควบคุมโรค","2023-06-19T00:00:00",2,9.7,13.1,26.4,39.3],
    [1002,"FF1721AC76217484","กองดิจิทัลเพื่อการควบคุมโรค","2023-06-19T00:00:00",3,11.7,14.6,25.7,41.1],
    [1003,"FF1721AC76217484","กองดิจิทัลเพื่อการควบคุมโรค","2023-06-19T00:00:00",4,12.5,17.2,25.7,41],
    [1004,"FF1721AC76217484","กองดิจิทัลเพื่อการควบคุมโรค","2023-06-19T00:00:00",5,9.5,13.8,25.8,40.7],
    [1005,"FF1721AC76217484","กองดิจิทัลเพื่อการควบคุมโรค","2023-06-19T00:00:00",6,10.7,15.9,25.7,41.5],
    [1006,"FF1721AC76217484","กองดิจิทัลเพื่อการควบคุมโรค","2023-06-19T00:00:00",7,11.4,15.3,27.1,38.2],
    [1007,"FF1721AC76217484","กองดิจิทัลเพื่อการควบคุมโรค","2023-06-19T00:00:00",8,11.3,16.5,28.2,35],
    [1008,"FF1721AC76217484","กองดิจิทัลเพื่อการควบคุมโรค","2023-06-19T00:00:00",9,9.2,14.1,28.9,33.5],
    [1009,"FF1721AC76217484","กองดิจิทัลเพื่อการควบคุมโรค","2023-06-19T00:00:00",10,10.6,16.1,30.1,31.2],
    [1010,"FF1721AC76217484","กองดิจิทัลเพื่อการควบคุมโรค","2023-06-19T00:00:00",11,7.3,11,31,29.8],
    [1011,"FF1721AC76217484","กองดิจิทัลเพื่อการควบคุมโรค","2023-06-19T00:00:00",12,10.4,14.9,31.8,29.6],
    [1012,"FF1721AC76217484","กองดิจิทัลเพื่อการควบคุมโรค","2023-06-19T00:00:00",13,5.8,8,33,28.3],
    [1013,"FF1721AC76217484","กองดิจิทัลเพื่อการควบคุมโรค","2023-06-19T00:00:00",14,6.7,8.5,32.6,28.2],
    [1014,"FF1721AC76217484","กองดิจิทัลเพื่อการควบคุมโรค","2023-06-19T00:00:00",15,6.2,8.2,32.3,29.4],
    [1015,"FF1721AC76217484","กองดิจิทัลเพื่อการควบคุมโรค","2023-06-19T00:00:00",16,7.5,10.7,31.8,29.4],
    [1016,"FF1721AC76217484","กองดิจิทัลเพื่อการควบคุมโรค","2023-06-19T00:00:00",17,8.4,10.5,31,31.5],
    [1017,"FF1721AC76217484","กองดิจิทัลเพื่อการควบคุมโรค","2023-06-19T00:00:00",18,6.9,8,29.6,34.1],
    [1018,"FF1721AC76217484","กองดิจิทัลเพื่อการควบคุมโรค","2023-06-19T00:00:00",19,4.6,6.7,28.6,35.1],
    [1019,"FF1721AC76217484","กองดิจิทัลเพื่อการควบคุมโรค","2023-06-19T00:00:00",20,3.7,6,28.4,34.9],
    [1020,"FF1721AC76217484","กองดิจิทัลเพื่อการควบคุมโรค","2023-06-19T00:00:00",21,3.3,3.8,28.2,35.9],
    [1021,"FF1721AC76217484","กองดิจิทัลเพื่อการควบคุมโรค","2023-06-19T00:00:00",22,3.4,6.2,27.9,37.3],
    [1022,"FF1721AC76217484","กองดิจิทัลเพื่อการควบคุมโรค","2023-06-19T00:00:00",23,3.6,6.1,27.6,38],
    [1023,"FF1721AC76217484","กองดิจิทัลเพื่อการควบคุมโรค","2023-06-20T00:00:00",0,3.5,6.3,27.7,37.4],
    [1024,"FF1721AC76217484","กองดิจิทัลเพื่อการควบคุมโรค","2023-06-20T00:00:00",1,3.5,6.7,27.6,38.4],
    [1025,"FF1721AC76217484","กองดิจิทัลเพื่อการควบคุมโรค","2023-06-20T00:00:00",2,3.3,7.4,27.5,39.5],
    [1026,"FF1721AC76217484","กองดิจิทัลเพื่อการควบคุมโรค","2023-06-20T00:00:00",3,4.5,6.1,27.4,40.1],
    [1027,"FF1721AC76217484","กองดิจิทัลเพื่อการควบคุมโรค","2023-06-20T00:00:00",4,5.3,7.5,27.5,40.2],
    [1028,"FF1721AC76217484","กองดิจิทัลเพื่อการควบคุมโรค","2023-06-20T00:00:00",5,9.2,13,27,41.2],
    [1029,"FF1721AC76217484","กองดิจิทัลเพื่อการควบคุมโรค","2023-06-20T00:00:00",6,12,17,26.8,39.4],
    [1030,"FF1721AC76217484","กองดิจิทัลเพื่อการควบคุมโรค","2023-06-20T00:00:00",7,8.4,11.7,28,35.5],
    [1031,"FF1721AC76217484","กองดิจิทัลเพื่อการควบคุมโรค","2023-06-20T00:00:00",8,9.6,14.8,28.9,33],
    [1032,"FF1721AC76217484","กองดิจิทัลเพื่อการควบคุมโรค","2023-06-20T00:00:00",9,9.4,13.9,30,31.6],
    [1033,"FF1721AC76217484","กองดิจิทัลเพื่อการควบคุมโรค","2023-06-20T00:00:00",10,7,9.3,31,30],
    [1034,"FF1721AC76217484","กองดิจิทัลเพื่อการควบคุมโรค","2023-06-20T00:00:00",11,8.7,11.6,32.5,28.5],
    [1035,"FF1721AC76217484","กองดิจิทัลเพื่อการควบคุมโรค","2023-06-20T00:00:00",12,8.1,11.6,33.8,27.1],
    [1036,"FF1721AC76217484","กองดิจิทัลเพื่อการควบคุมโรค","2023-06-20T00:00:00",13,8.1,11.3,33.3,27.8],
    [1037,"FF1721AC76217484","กองดิจิทัลเพื่อการควบคุมโรค","2023-06-20T00:00:00",14,8.3,11.4,33.6,27.6],
    [1038,"FF1721AC76217484","กองดิจิทัลเพื่อการควบคุมโรค","2023-06-20T00:00:00",15,7.6,10.5,33,28.6],
    [1039,"FF1721AC76217484","กองดิจิทัลเพื่อการควบคุมโรค","2023-06-20T00:00:00",16,8.9,12.1,26.1,40.5],
    [1040,"FF1721AC76217484","กองดิจิทัลเพื่อการควบคุมโรค","2023-06-20T00:00:00",17,9.4,11.5,26.7,39.7],
    [1041,"FF1721AC76217484","กองดิจิทัลเพื่อการควบคุมโรค","2023-06-20T00:00:00",18,14,19.2,26.9,39.6],
    [1042,"FF1721AC76217484","กองดิจิทัลเพื่อการควบคุมโรค","2023-06-20T00:00:00",19,15.7,22,27.5,38.9],
    [1043,"FF1721AC76217484","กองดิจิทัลเพื่อการควบคุมโรค","2023-06-20T00:00:00",20,12.6,17.8,28,38.7],
    [1044,"FF1721AC76217484","กองดิจิทัลเพื่อการควบคุมโรค","2023-06-20T00:00:00",21,6.5,8.9,27.7,38.6],
    [1045,"FF1721AC76217484","กองดิจิทัลเพื่อการควบคุมโรค","2023-06-20T00:00:00",22,3.5,5.8,27.4,38.7],
    [1046,"FF1721AC76217484","กองดิจิทัลเพื่อการควบคุมโรค","2023-06-20T00:00:00",23,4.9,7,27.4,39],
    [1047,"FF1721AC76217484","กองดิจิทัลเพื่อการควบคุมโรค","2023-06-21T00:00:00",0,6.8,9.3,27.5,39.9],
    [1048,"FF1721AC76217484","กองดิจิทัลเพื่อการควบคุมโรค","2023-06-21T00:00:00",1,7.9,11.8,27.4,40.5],
    [1049,"FF1721AC76217484","กองดิจิทัลเพื่อการควบคุมโรค","2023-06-21T00:00:00",2,11,19.2,27,41],
    [1050,"FF1721AC76217484","กองดิจิทัลเพื่อการควบคุมโรค","2023-06-21T00:00:00",3,12.5,18.8,27.2,39.4],
    [1051,"FF1721AC76217484","กองดิจิทัลเพื่อการควบคุมโรค","2023-06-21T00:00:00",4,12.4,20.1,27.3,39.1],
    [1052,"FF1721AC76217484","กองดิจิทัลเพื่อการควบคุมโรค","2023-06-21T00:00:00",5,11.1,17,27.1,39.4],
    [1053,"FF1721AC76217484","กองดิจิทัลเพื่อการควบคุมโรค","2023-06-21T00:00:00",6,10.5,15.1,27.3,39.2],
    [1054,"FF1721AC76217484","กองดิจิทัลเพื่อการควบคุมโรค","2023-06-21T00:00:00",7,14.6,23.3,27.7,38.1],
    [1055,"FF1721AC76217484","กองดิจิทัลเพื่อการควบคุมโรค","2023-06-21T00:00:00",8,16.8,23.8,28.2,35.8],
    [1056,"FF1721AC76217484","กองดิจิทัลเพื่อการควบคุมโรค","2023-06-21T00:00:00",9,8.9,13.5,29.7,31.7],
    [1057,"FF1721AC76217484","กองดิจิทัลเพื่อการควบคุมโรค","2023-06-21T00:00:00",10,8,11.4,30.9,30],
    [1058,"FF1721AC76217484","กองดิจิทัลเพื่อการควบคุมโรค","2023-06-21T00:00:00",11,6.6,11.7,32,28.6],
    [1059,"FF1721AC76217484","กองดิจิทัลเพื่อการควบคุมโรค","2023-06-21T00:00:00",12,7,10.8,33.1,27.9],
    [1060,"FF1721AC76217484","กองดิจิทัลเพื่อการควบคุมโรค","2023-06-21T00:00:00",13,8.9,13.5,33.3,27.6],
    [1061,"FF1721AC76217484","กองดิจิทัลเพื่อการควบคุมโรค","2023-06-21T00:00:00",14,7.7,12,34.4,26.3],
    [1062,"FF1721AC76217484","กองดิจิทัลเพื่อการควบคุมโรค","2023-06-21T00:00:00",15,7.3,10.2,34.1,26.4],
    [1063,"FF1721AC76217484","กองดิจิทัลเพื่อการควบคุมโรค","2023-06-21T00:00:00",16,8.6,11.8,33.6,26.2],
    [1064,"FF1721AC76217484","กองดิจิทัลเพื่อการควบคุมโรค","2023-06-21T00:00:00",17,9,13.8,32.9,27.5],
    [1065,"FF1721AC76217484","กองดิจิทัลเพื่อการควบคุมโรค","2023-06-21T00:00:00",18,14,21.1,31.8,30.5],
    [1066,"FF1721AC76217484","กองดิจิทัลเพื่อการควบคุมโรค","2023-06-21T00:00:00",19,12.3,18.3,29.5,34.7],
    [1067,"FF1721AC76217484","กองดิจิทัลเพื่อการควบคุมโรค","2023-06-21T00:00:00",20,12.6,18,28.1,37.4],
    [1068,"FF1721AC76217484","กองดิจิทัลเพื่อการควบคุมโรค","2023-06-21T00:00:00",21,12,14.3,28.3,36.7],
    [1069,"FF1721AC76217484","กองดิจิทัลเพื่อการควบคุมโรค","2023-06-21T00:00:00",22,14.3,20.9,27.8,39.1],
    [1070,"FF1721AC76217484","กองดิจิทัลเพื่อการควบคุมโรค","2023-06-21T00:00:00",23,12.1,15.6,26.5,40.6],
    [1071,"FF1721AC76217484","กองดิจิทัลเพื่อการควบคุมโรค","2023-06-22T00:00:00",0,7.9,9.1,25.7,41.9],
    [1072,"FF1721AC76217484","กองดิจิทัลเพื่อการควบคุมโรค","2023-06-22T00:00:00",1,4.3,4.6,25.5,41.7],
    [1073,"FF1721AC76217484","กองดิจิทัลเพื่อการควบคุมโรค","2023-06-22T00:00:00",2,3.8,4.9,24.5,43.1],
    [1074,"FF1721AC76217484","กองดิจิทัลเพื่อการควบคุมโรค","2023-06-22T00:00:00",3,5.3,7.3,24.4,43.4],
    [1075,"FF1721AC76217484","กองดิจิทัลเพื่อการควบคุมโรค","2023-06-22T00:00:00",4,12.9,17.5,24.7,43.6],
    [1076,"FF1721AC76217484","กองดิจิทัลเพื่อการควบคุมโรค","2023-06-22T00:00:00",5,12.6,17.4,24.7,43.5],
    [1077,"FF1721AC76217484","กองดิจิทัลเพื่อการควบคุมโรค","2023-06-22T00:00:00",6,10.5,14.1,24.9,43.8],
    [1078,"FF1721AC76217484","กองดิจิทัลเพื่อการควบคุมโรค","2023-06-22T00:00:00",7,15.5,21.5,25.7,42.7],
    [1079,"FF1721AC76217484","กองดิจิทัลเพื่อการควบคุมโรค","2023-06-22T00:00:00",8,17.1,24.6,26.8,39.6],
    [1080,"FF1721AC76217484","กองดิจิทัลเพื่อการควบคุมโรค","2023-06-22T00:00:00",9,12.8,18.1,28.4,35.7],
    [1081,"FF1721AC76217484","กองดิจิทัลเพื่อการควบคุมโรค","2023-06-22T00:00:00",10,11.3,16,29.8,32.8],
    [1082,"FF1721AC76217484","กองดิจิทัลเพื่อการควบคุมโรค","2023-06-22T00:00:00",11,13.3,18,31.9,29.1],
    [1083,"FF1721AC76217484","กองดิจิทัลเพื่อการควบคุมโรค","2023-06-22T00:00:00",12,10.8,17.4,33.6,27],
    [1084,"FF1721AC76217484","กองดิจิทัลเพื่อการควบคุมโรค","2023-06-22T00:00:00",13,7.6,11,34.4,24.5],
    [1085,"FF1721AC76217484","กองดิจิทัลเพื่อการควบคุมโรค","2023-06-22T00:00:00",14,7.8,10.9,34.5,24.3],
    [1086,"FF1721AC76217484","กองดิจิทัลเพื่อการควบคุมโรค","2023-06-22T00:00:00",15,8.7,12.7,34.7,24.1],
    [1087,"FF1721AC76217484","กองดิจิทัลเพื่อการควบคุมโรค","2023-06-22T00:00:00",16,9.1,13.1,34.1,24.4],
    [1088,"FF1721AC76217484","กองดิจิทัลเพื่อการควบคุมโรค","2023-06-22T00:00:00",17,15.1,22.9,33.1,27.8],
    [1089,"FF1721AC76217484","กองดิจิทัลเพื่อการควบคุมโรค","2023-06-22T00:00:00",18,19.7,28.9,30.8,33.4],
    [1090,"FF1721AC76217484","กองดิจิทัลเพื่อการควบคุมโรค","2023-06-22T00:00:00",19,20.3,29.4,30.1,34.6],
    [1091,"FF1721AC76217484","กองดิจิทัลเพื่อการควบคุมโรค","2023-06-22T00:00:00",20,21,30.8,29.8,33.7],
    [1092,"FF1721AC76217484","กองดิจิทัลเพื่อการควบคุมโรค","2023-06-22T00:00:00",21,15.8,21.4,29.3,33.4],
    [1093,"FF1721AC76217484","กองดิจิทัลเพื่อการควบคุมโรค","2023-06-22T00:00:00",22,9,12.3,28.8,35.1],
    [1094,"FF1721AC76217484","กองดิจิทัลเพื่อการควบคุมโรค","2023-06-22T00:00:00",23,6.7,10.6,28.2,37.1],
    [1095,"FF1721AC76217484","กองดิจิทัลเพื่อการควบคุมโรค","2023-06-23T00:00:00",0,6.4,11.5,28.3,37.1],
    [1096,"FF1721AC76217484","กองดิจิทัลเพื่อการควบคุมโรค","2023-06-23T00:00:00",1,7.4,11.7,28,36.5],
    [1097,"FF1721AC76217484","กองดิจิทัลเพื่อการควบคุมโรค","2023-06-23T00:00:00",2,8.3,10.6,28,36.6],
    [1098,"FF1721AC76217484","กองดิจิทัลเพื่อการควบคุมโรค","2023-06-23T00:00:00",3,9.6,13.4,27.7,38.4],
    [1099,"FF1721AC76217484","กองดิจิทัลเพื่อการควบคุมโรค","2023-06-23T00:00:00",4,16.6,25.1,27.4,39.2],
    [1100,"FF1721AC76217484","กองดิจิทัลเพื่อการควบคุมโรค","2023-06-23T00:00:00",5,13.5,22,26.8,38.1],
    [1101,"FF1721AC76217484","กองดิจิทัลเพื่อการควบคุมโรค","2023-06-23T00:00:00",6,12,16.1,26.7,37.2],
    [1102,"FF1721AC76217484","กองดิจิทัลเพื่อการควบคุมโรค","2023-06-23T00:00:00",7,9.7,14.6,27,36.1],
    [1103,"FF1721AC76217484","กองดิจิทัลเพื่อการควบคุมโรค","2023-06-23T00:00:00",8,8.2,13.4,28.3,34.2],
    [1104,"FF1721AC76217484","กองดิจิทัลเพื่อการควบคุมโรค","2023-06-23T00:00:00",9,8.5,13.3,29.4,32.6],
    [1105,"FF1721AC76217484","กองดิจิทัลเพื่อการควบคุมโรค","2023-06-23T00:00:00",10,8.1,13.5,30.8,30.8],
    [1106,"FF1721AC76217484","กองดิจิทัลเพื่อการควบคุมโรค","2023-06-23T00:00:00",11,8.8,12,32.1,29.2],
    [1107,"FF1721AC76217484","กองดิจิทัลเพื่อการควบคุมโรค","2023-06-23T00:00:00",12,6.2,9.7,34.3,25.9],
    [1108,"FF1721AC76217484","กองดิจิทัลเพื่อการควบคุมโรค","2023-06-23T00:00:00",13,7.7,9,35.3,23.8],
    [1109,"FF1721AC76217484","กองดิจิทัลเพื่อการควบคุมโรค","2023-06-23T00:00:00",14,5.6,7.4,35.7,22.5],
    [1110,"FF1721AC76217484","กองดิจิทัลเพื่อการควบคุมโรค","2023-06-23T00:00:00",15,5.7,7.3,35.9,22.3],
    [1111,"FF1721AC76217484","กองดิจิทัลเพื่อการควบคุมโรค","2023-06-23T00:00:00",16,6.1,8.9,36.1,22.3],
    [1112,"FF1721AC76217484","กองดิจิทัลเพื่อการควบคุมโรค","2023-06-23T00:00:00",17,6.3,8.6,35.1,23],
    [1113,"FF1721AC76217484","กองดิจิทัลเพื่อการควบคุมโรค","2023-06-23T00:00:00",18,11.7,16.8,33.9,27.1],
    [1114,"FF1721AC76217484","กองดิจิทัลเพื่อการควบคุมโรค","2023-06-23T00:00:00",19,15.4,21.3,32.5,30.3],
    [1115,"FF1721AC76217484","กองดิจิทัลเพื่อการควบคุมโรค","2023-06-23T00:00:00",20,12.7,16.2,30.9,33.6],
    [1116,"FF1721AC76217484","กองดิจิทัลเพื่อการควบคุมโรค","2023-06-23T00:00:00",21,8.7,12,29.7,34.2],
    [1117,"FF1721AC76217484","กองดิจิทัลเพื่อการควบคุมโรค","2023-06-23T00:00:00",22,7.2,8.7,26.5,38.7],
    [1118,"FF1721AC76217484","กองดิจิทัลเพื่อการควบคุมโรค","2023-06-23T00:00:00",23,4.2,5.5,26.6,38.3],
    [1119,"FF1721AC76217484","กองดิจิทัลเพื่อการควบคุมโรค","2023-06-24T00:00:00",0,4.3,6.3,26.9,37.9],
    [1120,"FF1721AC76217484","กองดิจิทัลเพื่อการควบคุมโรค","2023-06-24T00:00:00",1,7,8.8,26.7,39.2],
    [1121,"FF1721AC76217484","กองดิจิทัลเพื่อการควบคุมโรค","2023-06-24T00:00:00",2,8.8,13.2,25.6,42.6],
    [1122,"FF1721AC76217484","กองดิจิทัลเพื่อการควบคุมโรค","2023-06-24T00:00:00",3,6.9,9.8,25.6,41.6],
    [1123,"FF1721AC76217484","กองดิจิทัลเพื่อการควบคุมโรค","2023-06-24T00:00:00",4,5.9,8.1,25.8,40.1],
    [1124,"FF1721AC76217484","กองดิจิทัลเพื่อการควบคุมโรค","2023-06-24T00:00:00",5,6.2,8.2,25.8,40.1],
    [1125,"FF1721AC76217484","กองดิจิทัลเพื่อการควบคุมโรค","2023-06-24T00:00:00",6,6.5,8.9,26.1,39.5],
    [1126,"FF1721AC76217484","กองดิจิทัลเพื่อการควบคุมโรค","2023-06-24T00:00:00",7,5.3,6.5,27,37.1],
    [1127,"FF1721AC76217484","กองดิจิทัลเพื่อการควบคุมโรค","2023-06-24T00:00:00",8,5.1,8.8,27.8,35.6],
    [1128,"FF1721AC76217484","กองดิจิทัลเพื่อการควบคุมโรค","2023-06-24T00:00:00",9,11.2,19.3,28.3,34],
    [1129,"FF1721AC76217484","กองดิจิทัลเพื่อการควบคุมโรค","2023-06-24T00:00:00",10,4.4,8.9,29.8,31.5],
    [1130,"FF1721AC76217484","กองดิจิทัลเพื่อการควบคุมโรค","2023-06-24T00:00:00",11,3.4,5.8,30.8,29.9],
    [1131,"FF1721AC76217484","กองดิจิทัลเพื่อการควบคุมโรค","2023-06-24T00:00:00",12,4,6.1,31.9,28.8],
    [1132,"FF1721AC76217484","กองดิจิทัลเพื่อการควบคุมโรค","2023-06-24T00:00:00",13,2.2,3.4,32.3,27.8],
    [1133,"FF1721AC76217484","กองดิจิทัลเพื่อการควบคุมโรค","2023-06-24T00:00:00",14,1.4,1.9,32.8,26.5],
    [1134,"FF1721AC76217484","กองดิจิทัลเพื่อการควบคุมโรค","2023-06-24T00:00:00",15,1.8,2,32.8,26.9],
    [1135,"FF1721AC76217484","กองดิจิทัลเพื่อการควบคุมโรค","2023-06-24T00:00:00",16,1.9,4.3,32.2,27.6],
    [1136,"FF1721AC76217484","กองดิจิทัลเพื่อการควบคุมโรค","2023-06-24T00:00:00",17,3.1,3.9,32,27.2],
    [1137,"FF1721AC76217484","กองดิจิทัลเพื่อการควบคุมโรค","2023-06-24T00:00:00",18,3.5,4.9,30.9,27.6],
    [1138,"FF1721AC76217484","กองดิจิทัลเพื่อการควบคุมโรค","2023-06-24T00:00:00",19,5.8,6,30.5,27.6],
    [1139,"FF1721AC76217484","กองดิจิทัลเพื่อการควบคุมโรค","2023-06-24T00:00:00",20,6.9,9.9,30.3,27.8],
    [1140,"FF1721AC76217484","กองดิจิทัลเพื่อการควบคุมโรค","2023-06-24T00:00:00",21,8.3,10.2,29.4,29.3],
    [1141,"FF1721AC76217484","กองดิจิทัลเพื่อการควบคุมโรค","2023-06-24T00:00:00",22,8.3,10.8,28.9,30],
    [1142,"FF1721AC76217484","กองดิจิทัลเพื่อการควบคุมโรค","2023-06-24T00:00:00",23,8.4,12,28.4,30.9],
    [1143,"FF1721AC76217484","กองดิจิทัลเพื่อการควบคุมโรค","2023-06-25T00:00:00",0,6.7,9.6,27.7,32.6],
    [1144,"FF1721AC76217484","กองดิจิทัลเพื่อการควบคุมโรค","2023-06-25T00:00:00",1,2.5,4.3,27.6,32.9],
    [1145,"FF1721AC76217484","กองดิจิทัลเพื่อการควบคุมโรค","2023-06-25T00:00:00",2,2.5,3.5,27.1,33.6],
    [1146,"FF1721AC76217484","กองดิจิทัลเพื่อการควบคุมโรค","2023-06-25T00:00:00",3,2.3,2.5,27,34.2],
    [1147,"FF1721AC76217484","กองดิจิทัลเพื่อการควบคุมโรค","2023-06-25T00:00:00",4,2.9,5.1,26.8,34.8],
    [1148,"FF1721AC76217484","กองดิจิทัลเพื่อการควบคุมโรค","2023-06-25T00:00:00",5,4.3,6.2,26.7,35.3],
    [1149,"FF1721AC76217484","กองดิจิทัลเพื่อการควบคุมโรค","2023-06-25T00:00:00",6,5.3,7,26.6,35.7],
    [1150,"FF1721AC76217484","กองดิจิทัลเพื่อการควบคุมโรค","2023-06-25T00:00:00",7,5.4,7.1,26.8,36.1],
    [1151,"FF1721AC76217484","กองดิจิทัลเพื่อการควบคุมโรค","2023-06-25T00:00:00",8,5.4,8.1,28.1,34.8],
    [1152,"FF1721AC76217484","กองดิจิทัลเพื่อการควบคุมโรค","2023-06-25T00:00:00",9,5.8,9,29.4,32.6],
    [1153,"FF1721AC76217484","กองดิจิทัลเพื่อการควบคุมโรค","2023-06-25T00:00:00",10,4,6.5,30.5,30.4],
    [1154,"FF1721AC76217484","กองดิจิทัลเพื่อการควบคุมโรค","2023-06-25T00:00:00",11,2.8,4.9,31.9,28.7],
    [1155,"FF1721AC76217484","กองดิจิทัลเพื่อการควบคุมโรค","2023-06-25T00:00:00",12,4.5,5.8,33.1,27],
    [1156,"FF1721AC76217484","กองดิจิทัลเพื่อการควบคุมโรค","2023-06-25T00:00:00",13,4,6.4,32.5,27.8],
    [1157,"FF1721AC76217484","กองดิจิทัลเพื่อการควบคุมโรค","2023-06-25T00:00:00",14,3.9,5.1,32.9,26.8],
    [1158,"FF1721AC76217484","กองดิจิทัลเพื่อการควบคุมโรค","2023-06-25T00:00:00",15,3.8,5.8,32.9,26.8],
    [1159,"FF1721AC76217484","กองดิจิทัลเพื่อการควบคุมโรค","2023-06-25T00:00:00",16,5,6.9,32.6,27.3],
    [1160,"FF1721AC76217484","กองดิจิทัลเพื่อการควบคุมโรค","2023-06-25T00:00:00",17,7.4,11.4,30.9,30.1],
    [1161,"FF1721AC76217484","กองดิจิทัลเพื่อการควบคุมโรค","2023-06-25T00:00:00",18,19.9,28.4,29.3,32],
    [1162,"FF1721AC76217484","กองดิจิทัลเพื่อการควบคุมโรค","2023-06-25T00:00:00",19,15.2,22,28.9,32.7],
    [1163,"FF1721AC76217484","กองดิจิทัลเพื่อการควบคุมโรค","2023-06-25T00:00:00",20,19.8,29.9,29.2,31.4],
    [1164,"FF1721AC76217484","กองดิจิทัลเพื่อการควบคุมโรค","2023-06-25T00:00:00",21,23.6,34.5,28.7,32],
    [1165,"FF1721AC76217484","กองดิจิทัลเพื่อการควบคุมโรค","2023-06-25T00:00:00",22,15,22.1,28.5,32.7],
    [1166,"FF1721AC76217484","กองดิจิทัลเพื่อการควบคุมโรค","2023-06-25T00:00:00",23,6.4,9.2,28.1,33],
    [1167,"FF1721AC76217484","กองดิจิทัลเพื่อการควบคุมโรค","2023-06-26T00:00:00",0,4.8,7.2,27.8,33.6],
    [1168,"FF1721AC76217484","กองดิจิทัลเพื่อการควบคุมโรค","2023-06-26T00:00:00",1,4.6,6.5,27.5,34],
    [1169,"FF1721AC76217484","กองดิจิทัลเพื่อการควบคุมโรค","2023-06-26T00:00:00",2,4.5,6.3,27.2,34.2],
    [1170,"FF1721AC76217484","กองดิจิทัลเพื่อการควบคุมโรค","2023-06-26T00:00:00",3,4.1,7.1,27.1,34.5],
    [1171,"FF1721AC76217484","กองดิจิทัลเพื่อการควบคุมโรค","2023-06-26T00:00:00",4,3.5,5.6,27,33.7],
    [1172,"FF1721AC76217484","กองดิจิทัลเพื่อการควบคุมโรค","2023-06-26T00:00:00",5,2.8,5.1,26.7,34.4],
    [1173,"FF1721AC76217484","กองดิจิทัลเพื่อการควบคุมโรค","2023-06-26T00:00:00",6,3.2,3.5,26.5,35.2],
    [1174,"FF1721AC76217484","กองดิจิทัลเพื่อการควบคุมโรค","2023-06-26T00:00:00",7,3.3,3.9,26.9,34.2],
    [1175,"FF1721AC76217484","กองดิจิทัลเพื่อการควบคุมโรค","2023-06-26T00:00:00",8,4.1,5.7,28,32.8],
    [1176,"FF1721AC76217484","กองดิจิทัลเพื่อการควบคุมโรค","2023-06-26T00:00:00",9,2.3,3.9,28.9,31.8],
    [1177,"FF1721AC76217484","กองดิจิทัลเพื่อการควบคุมโรค","2023-06-26T00:00:00",10,1.9,2.3,29.6,30.6],
    [1178,"FF1721AC76217484","กองดิจิทัลเพื่อการควบคุมโรค","2023-06-26T00:00:00",11,2.1,4.1,30.5,29.1],
    [1179,"FF1721AC76217484","กองดิจิทัลเพื่อการควบคุมโรค","2023-06-26T00:00:00",12,2.3,3.9,31.6,27.9],
    [1180,"FF1721AC76217484","กองดิจิทัลเพื่อการควบคุมโรค","2023-06-26T00:00:00",13,2.3,2.4,32,27.3],
    [1181,"FF1721AC76217484","กองดิจิทัลเพื่อการควบคุมโรค","2023-06-26T00:00:00",14,3,4.9,32.5,26.6],
    [1182,"FF1721AC76217484","กองดิจิทัลเพื่อการควบคุมโรค","2023-06-26T00:00:00",15,3.7,4.6,31.9,26.8],
    [1183,"FF1721AC76217484","กองดิจิทัลเพื่อการควบคุมโรค","2023-06-26T00:00:00",16,4.2,6.5,31.7,26.2],
    [1184,"FF1721AC76217484","กองดิจิทัลเพื่อการควบคุมโรค","2023-06-26T00:00:00",17,6.3,8.8,31.6,27],
    [1185,"FF1721AC76217484","กองดิจิทัลเพื่อการควบคุมโรค","2023-06-26T00:00:00",18,5.5,7.3,31.2,27.1],
    [1186,"FF1721AC76217484","กองดิจิทัลเพื่อการควบคุมโรค","2023-06-26T00:00:00",19,7.1,9.1,30.7,28],
    [1187,"FF1721AC76217484","กองดิจิทัลเพื่อการควบคุมโรค","2023-06-26T00:00:00",20,9.7,12.1,30.3,29.3],
    [1188,"FF1721AC76217484","กองดิจิทัลเพื่อการควบคุมโรค","2023-06-26T00:00:00",21,11.9,16.1,29.7,30],
    [1189,"FF1721AC76217484","กองดิจิทัลเพื่อการควบคุมโรค","2023-06-26T00:00:00",22,11,17.1,28.8,33.1],
    [1190,"FF1721AC76217484","กองดิจิทัลเพื่อการควบคุมโรค","2023-06-26T00:00:00",23,10.3,14.4,28.4,34.3],
    [1191,"FF1721AC76217484","กองดิจิทัลเพื่อการควบคุมโรค","2023-06-27T00:00:00",0,11.2,14,27.8,34.5],
    [1192,"FF1721AC76217484","กองดิจิทัลเพื่อการควบคุมโรค","2023-06-27T00:00:00",1,6.2,10,27.5,34.4],
    [1193,"FF1721AC76217484","กองดิจิทัลเพื่อการควบคุมโรค","2023-06-27T00:00:00",2,2,2.7,26.9,34.6],
    [1194,"FF1721AC76217484","กองดิจิทัลเพื่อการควบคุมโรค","2023-06-27T00:00:00",3,1.1,2.2,26.3,35.4],
    [1195,"FF1721AC76217484","กองดิจิทัลเพื่อการควบคุมโรค","2023-06-27T00:00:00",4,1.4,1.8,26.5,34.6],
    [1196,"FF1721AC76217484","กองดิจิทัลเพื่อการควบคุมโรค","2023-06-27T00:00:00",5,1.9,2.4,26.3,35.1],
    [1197,"FF1721AC76217484","กองดิจิทัลเพื่อการควบคุมโรค","2023-06-27T00:00:00",6,2.3,3.6,26.3,35.3],
    [1198,"FF1721AC76217484","กองดิจิทัลเพื่อการควบคุมโรค","2023-06-27T00:00:00",7,2.5,3.8,26.9,34.5],
    [1199,"FF1721AC76217484","กองดิจิทัลเพื่อการควบคุมโรค","2023-06-27T00:00:00",8,3,4.9,27.8,33.6],
    [1200,"FF1721AC76217484","กองดิจิทัลเพื่อการควบคุมโรค","2023-06-27T00:00:00",9,3.8,5.9,29.1,32.1],
    [1201,"FF1721AC76217484","กองดิจิทัลเพื่อการควบคุมโรค","2023-06-27T00:00:00",10,4.4,6.5,30,30.5],
    [1202,"FF1721AC76217484","กองดิจิทัลเพื่อการควบคุมโรค","2023-06-27T00:00:00",11,5.9,8.4,31.7,28.5],
    [1203,"FF1721AC76217484","กองดิจิทัลเพื่อการควบคุมโรค","2023-06-27T00:00:00",12,4.1,6.2,33,26.3],
    [1204,"FF1721AC76217484","กองดิจิทัลเพื่อการควบคุมโรค","2023-06-27T00:00:00",13,2.9,5,33.7,25.5],
    [1205,"FF1721AC76217484","กองดิจิทัลเพื่อการควบคุมโรค","2023-06-27T00:00:00",14,3.4,4.7,33.7,26.2],
    [1206,"FF1721AC76217484","กองดิจิทัลเพื่อการควบคุมโรค","2023-06-27T00:00:00",15,6.5,5.5,33.2,26.7],
    [1207,"FF1721AC76217484","กองดิจิทัลเพื่อการควบคุมโรค","2023-06-27T00:00:00",16,3.9,6,33.2,26.3],
    [1208,"FF1721AC76217484","กองดิจิทัลเพื่อการควบคุมโรค","2023-06-27T00:00:00",17,4.2,5.8,33.1,25.6],
    [1209,"FF1721AC76217484","กองดิจิทัลเพื่อการควบคุมโรค","2023-06-27T00:00:00",18,8.1,11.8,32,29.9],
    [1210,"FF1721AC76217484","กองดิจิทัลเพื่อการควบคุมโรค","2023-06-27T00:00:00",19,7.9,10.7,30.5,32.8],
    [1211,"FF1721AC76217484","กองดิจิทัลเพื่อการควบคุมโรค","2023-06-27T00:00:00",20,4.3,6.6,29.2,35.6],
    [1212,"FF1721AC76217484","กองดิจิทัลเพื่อการควบคุมโรค","2023-06-27T00:00:00",21,4.9,6,29,35.3],
    [1213,"FF1721AC76217484","กองดิจิทัลเพื่อการควบคุมโรค","2023-06-27T00:00:00",22,5.5,7.8,29,34.5],
    [1214,"FF1721AC76217484","กองดิจิทัลเพื่อการควบคุมโรค","2023-06-27T00:00:00",23,7.1,9.5,28.5,35.1],
    [1215,"FF1721AC76217484","กองดิจิทัลเพื่อการควบคุมโรค","2023-06-28T00:00:00",0,8.5,12.3,28.1,35.7],
    [1216,"FF1721AC76217484","กองดิจิทัลเพื่อการควบคุมโรค","2023-06-28T00:00:00",1,6.6,8.8,27.5,36.8],
    [1217,"FF1721AC76217484","กองดิจิทัลเพื่อการควบคุมโรค","2023-06-28T00:00:00",2,3.8,5.9,27.6,36.4],
    [1218,"FF1721AC76217484","กองดิจิทัลเพื่อการควบคุมโรค","2023-06-28T00:00:00",3,7.9,9.8,27.6,36.5],
    [1219,"FF1721AC76217484","กองดิจิทัลเพื่อการควบคุมโรค","2023-06-28T00:00:00",4,10.8,16,27.5,36.8],
    [1220,"FF1721AC76217484","กองดิจิทัลเพื่อการควบคุมโรค","2023-06-28T00:00:00",5,12.5,18.2,27.1,37.7],
    [1221,"FF1721AC76217484","กองดิจิทัลเพื่อการควบคุมโรค","2023-06-28T00:00:00",6,12.4,18,27.3,37.3],
    [1222,"FF1721AC76217484","กองดิจิทัลเพื่อการควบคุมโรค","2023-06-28T00:00:00",7,8.8,12,27.6,36.5],
    [1223,"FF1721AC76217484","กองดิจิทัลเพื่อการควบคุมโรค","2023-06-28T00:00:00",8,7.9,12.3,28.6,34.6],
    [1224,"FF1721AC76217484","กองดิจิทัลเพื่อการควบคุมโรค","2023-06-28T00:00:00",9,8.4,12.2,29.6,33.2],
    [1225,"FF1721AC76217484","กองดิจิทัลเพื่อการควบคุมโรค","2023-06-28T00:00:00",10,7.6,13.5,30.9,30.7],
    [1226,"FF1721AC76217484","กองดิจิทัลเพื่อการควบคุมโรค","2023-06-28T00:00:00",11,9.1,14.2,32.6,28.4],
    [1227,"FF1721AC76217484","กองดิจิทัลเพื่อการควบคุมโรค","2023-06-28T00:00:00",12,8.7,12.9,34.1,27],
    [1228,"FF1721AC76217484","กองดิจิทัลเพื่อการควบคุมโรค","2023-06-28T00:00:00",13,8.6,12.1,34.8,25.9],
    [1229,"FF1721AC76217484","กองดิจิทัลเพื่อการควบคุมโรค","2023-06-28T00:00:00",14,7.2,11.4,34.9,25.4],
    [1230,"FF1721AC76217484","กองดิจิทัลเพื่อการควบคุมโรค","2023-06-28T00:00:00",15,8.7,11.2,35.4,24.3],
    [1231,"FF1721AC76217484","กองดิจิทัลเพื่อการควบคุมโรค","2023-06-28T00:00:00",16,10.9,13,33.9,26.1],
    [1232,"FF1721AC76217484","กองดิจิทัลเพื่อการควบคุมโรค","2023-06-28T00:00:00",17,9,12.1,33.7,26.4],
    [1233,"FF1721AC76217484","กองดิจิทัลเพื่อการควบคุมโรค","2023-06-28T00:00:00",18,10.9,18.2,32,30.3],
    [1234,"FF1721AC76217484","กองดิจิทัลเพื่อการควบคุมโรค","2023-06-28T00:00:00",19,8.1,9.8,25.5,41.6],
    [1235,"FF1721AC76217484","กองดิจิทัลเพื่อการควบคุมโรค","2023-06-28T00:00:00",20,10.8,14.4,24,46],
    [1236,"FF1721AC76217484","กองดิจิทัลเพื่อการควบคุมโรค","2023-06-28T00:00:00",21,10.3,12.9,24.3,45.8],
    [1237,"FF1721AC76217484","กองดิจิทัลเพื่อการควบคุมโรค","2023-06-28T00:00:00",22,8.9,12.1,24.9,45.2],
    [1238,"FF1721AC76217484","กองดิจิทัลเพื่อการควบคุมโรค","2023-06-28T00:00:00",23,8.1,10.6,25,44.9],
    [1239,"FF1721AC76217484","กองดิจิทัลเพื่อการควบคุมโรค","2023-06-29T00:00:00",0,12.2,17.9,25.1,44.5],
    [1240,"FF1721AC76217484","กองดิจิทัลเพื่อการควบคุมโรค","2023-06-29T00:00:00",1,16.2,23.5,25.3,43.4],
    [1241,"FF1721AC76217484","กองดิจิทัลเพื่อการควบคุมโรค","2023-06-29T00:00:00",2,17.8,23.6,25.8,42.4],
    [1242,"FF1721AC76217484","กองดิจิทัลเพื่อการควบคุมโรค","2023-06-29T00:00:00",3,16.5,21.4,25.6,42.4],
    [1243,"FF1721AC76217484","กองดิจิทัลเพื่อการควบคุมโรค","2023-06-29T00:00:00",4,14.1,17.5,26.2,41.4],
    [1244,"FF1721AC76217484","กองดิจิทัลเพื่อการควบคุมโรค","2023-06-29T00:00:00",5,16.5,21.2,25.7,42],
    [1245,"FF1721AC76217484","กองดิจิทัลเพื่อการควบคุมโรค","2023-06-29T00:00:00",6,20.3,29.2,26,41.3],
    [1246,"FF1721AC76217484","กองดิจิทัลเพื่อการควบคุมโรค","2023-06-29T00:00:00",7,19.1,26.4,27.3,38.5],
    [1247,"FF1721AC76217484","กองดิจิทัลเพื่อการควบคุมโรค","2023-06-29T00:00:00",8,9.8,13.2,28.6,34.5],
    [1248,"FF1721AC76217484","กองดิจิทัลเพื่อการควบคุมโรค","2023-06-29T00:00:00",9,6.2,9.9,29.2,32.7],
    [1249,"FF1721AC76217484","กองดิจิทัลเพื่อการควบคุมโรค","2023-06-29T00:00:00",10,7.7,11.7,30.5,31.1],
    [1250,"FF1721AC76217484","กองดิจิทัลเพื่อการควบคุมโรค","2023-06-29T00:00:00",11,8.7,11.7,32.1,28.9],
    [1251,"FF1721AC76217484","กองดิจิทัลเพื่อการควบคุมโรค","2023-06-29T00:00:00",12,8.1,11.4,33.8,27],
    [1252,"FF1721AC76217484","กองดิจิทัลเพื่อการควบคุมโรค","2023-06-29T00:00:00",13,12.5,18.1,34.4,26.7],
    [1253,"FF1721AC76217484","กองดิจิทัลเพื่อการควบคุมโรค","2023-06-29T00:00:00",14,10.8,15,35.4,25.1],
    [1254,"FF1721AC76217484","กองดิจิทัลเพื่อการควบคุมโรค","2023-06-29T00:00:00",15,14.4,20,34.8,26],
    [1255,"FF1721AC76217484","กองดิจิทัลเพื่อการควบคุมโรค","2023-06-29T00:00:00",16,23.2,32.9,29.8,35.6],
    [1256,"FF1721AC76217484","กองดิจิทัลเพื่อการควบคุมโรค","2023-06-29T00:00:00",17,24.6,34.9,29.8,36.6],
    [1257,"FF1721AC76217484","กองดิจิทัลเพื่อการควบคุมโรค","2023-06-29T00:00:00",18,13.7,18.9,30.2,33.7],
    [1258,"FF1721AC76217484","กองดิจิทัลเพื่อการควบคุมโรค","2023-06-29T00:00:00",19,9.7,13.3,29.5,34.4],
    [1259,"FF1721AC76217484","กองดิจิทัลเพื่อการควบคุมโรค","2023-06-29T00:00:00",20,3.3,5.4,29.1,35.3],
    [1260,"FF1721AC76217484","กองดิจิทัลเพื่อการควบคุมโรค","2023-06-29T00:00:00",21,3.9,6.3,28.9,36.7],
    [1261,"FF1721AC76217484","กองดิจิทัลเพื่อการควบคุมโรค","2023-06-29T00:00:00",22,4.3,5.8,28.7,36.8],
    [1262,"FF1721AC76217484","กองดิจิทัลเพื่อการควบคุมโรค","2023-06-29T00:00:00",23,7.8,11.3,28.3,37.4],
    [1263,"FF1721AC76217484","กองดิจิทัลเพื่อการควบคุมโรค","2023-06-30T00:00:00",0,12.1,18.7,27.9,38],
    [1264,"FF1721AC76217484","กองดิจิทัลเพื่อการควบคุมโรค","2023-06-30T00:00:00",1,11.1,17.1,27.3,38.2],
    [1265,"FF1721AC76217484","กองดิจิทัลเพื่อการควบคุมโรค","2023-06-30T00:00:00",2,6,7.2,27.2,37.3],
    [1266,"FF1721AC76217484","กองดิจิทัลเพื่อการควบคุมโรค","2023-06-30T00:00:00",3,4.7,6.6,27.1,37],
    [1267,"FF1721AC76217484","กองดิจิทัลเพื่อการควบคุมโรค","2023-06-30T00:00:00",4,6.3,7.4,27,37.6],
    [1268,"FF1721AC76217484","กองดิจิทัลเพื่อการควบคุมโรค","2023-06-30T00:00:00",5,11.8,16,26.5,38.9],
    [1269,"FF1721AC76217484","กองดิจิทัลเพื่อการควบคุมโรค","2023-06-30T00:00:00",6,15.1,21.5,27.2,37.9],
    [1270,"FF1721AC76217484","กองดิจิทัลเพื่อการควบคุมโรค","2023-06-30T00:00:00",7,10.3,13.8,27.6,37.2],
    [1271,"FF1721AC76217484","กองดิจิทัลเพื่อการควบคุมโรค","2023-06-30T00:00:00",8,6.9,11.7,28.9,34.9],
    [1272,"FF1721AC76217484","กองดิจิทัลเพื่อการควบคุมโรค","2023-06-30T00:00:00",9,7.1,9.2,30.3,32.3],
    [1273,"FF1721AC76217484","กองดิจิทัลเพื่อการควบคุมโรค","2023-06-30T00:00:00",10,8.4,11.9,31.1,31.1],
    [1274,"FF1721AC76217484","กองดิจิทัลเพื่อการควบคุมโรค","2023-06-30T00:00:00",11,10,12.1,32.5,29.5],
    [1275,"FF1721AC76217484","กองดิจิทัลเพื่อการควบคุมโรค","2023-06-30T00:00:00",12,8.5,11.9,33.1,29.4],
    [1276,"FF1721AC76217484","กองดิจิทัลเพื่อการควบคุมโรค","2023-06-30T00:00:00",13,7.1,10.7,33.1,30.2],
    [1277,"FF1721AC76217484","กองดิจิทัลเพื่อการควบคุมโรค","2023-06-30T00:00:00",14,6.7,9.5,34.3,27.9],
    [1278,"FF1721AC76217484","กองดิจิทัลเพื่อการควบคุมโรค","2023-06-30T00:00:00",15,6.4,8.1,31.3,32],
    [1279,"FF1721AC76217484","กองดิจิทัลเพื่อการควบคุมโรค","2023-06-30T00:00:00",16,4.3,6.5,30.1,32.1],
    [1280,"FF1721AC76217484","กองดิจิทัลเพื่อการควบคุมโรค","2023-06-30T00:00:00",17,4.9,6.6,30.3,31.9],
    [1281,"FF1721AC76217484","กองดิจิทัลเพื่อการควบคุมโรค","2023-06-30T00:00:00",18,5.4,8,29.9,33.9],
    [1282,"FF1721AC76217484","กองดิจิทัลเพื่อการควบคุมโรค","2023-06-30T00:00:00",19,4,5.1,29.1,36.1],
    [1283,"FF1721AC76217484","กองดิจิทัลเพื่อการควบคุมโรค","2023-06-30T00:00:00",20,3.3,4.8,28.9,36.9],
    [1284,"FF1721AC76217484","กองดิจิทัลเพื่อการควบคุมโรค","2023-06-30T00:00:00",21,2.5,3.7,28.7,37.8],
    [1285,"FF1721AC76217484","กองดิจิทัลเพื่อการควบคุมโรค","2023-06-30T00:00:00",22,2.6,4,28.7,38.2],
    [1286,"FF1721AC76217484","กองดิจิทัลเพื่อการควบคุมโรค","2023-06-30T00:00:00",23,2.9,3.9,28.9,37.6],
    [1287,"FF1721AC76217484","กองดิจิทัลเพื่อการควบคุมโรค","2023-01-07T00:00:00",0,2.8,3.2,28.6,38.5],
    [1288,"FF1721AC76217484","กองดิจิทัลเพื่อการควบคุมโรค","2023-01-07T00:00:00",1,2.7,4.1,28.5,39.5],
    [1289,"FF1721AC76217484","กองดิจิทัลเพื่อการควบคุมโรค","2023-01-07T00:00:00",2,3.2,5.2,28.7,39.6],
    [1290,"FF1721AC76217484","กองดิจิทัลเพื่อการควบคุมโรค","2023-01-07T00:00:00",3,3.6,5.8,27.4,42.8],
    [1291,"FF1721AC76217484","กองดิจิทัลเพื่อการควบคุมโรค","2023-01-07T00:00:00",4,6,8.6,26,43.5],
    [1292,"FF1721AC76217484","กองดิจิทัลเพื่อการควบคุมโรค","2023-01-07T00:00:00",5,6.5,8.4,25,45.9],
    [1293,"FF1721AC76217484","กองดิจิทัลเพื่อการควบคุมโรค","2023-01-07T00:00:00",6,5.5,8.2,25.6,45.2],
    [1294,"FF1721AC76217484","กองดิจิทัลเพื่อการควบคุมโรค","2023-01-07T00:00:00",7,11.5,13.7,26.3,43.7],
    [1295,"FF1721AC76217484","กองดิจิทัลเพื่อการควบคุมโรค","2023-01-07T00:00:00",8,10,14.1,27.6,40.2],
    [1296,"FF1721AC76217484","กองดิจิทัลเพื่อการควบคุมโรค","2023-01-07T00:00:00",9,7.2,10.3,28.1,38],
    [1297,"FF1721AC76217484","กองดิจิทัลเพื่อการควบคุมโรค","2023-01-07T00:00:00",10,7.3,9.2,30.1,34.1],
    [1298,"FF1721AC76217484","กองดิจิทัลเพื่อการควบคุมโรค","2023-01-07T00:00:00",11,7.1,10.2,32.3,31.2],
    [1299,"FF1721AC76217484","กองดิจิทัลเพื่อการควบคุมโรค","2023-01-07T00:00:00",12,8.5,11.9,33.7,28.2],
    [1300,"FF1721AC76217484","กองดิจิทัลเพื่อการควบคุมโรค","2023-01-07T00:00:00",13,21.2,30.2,31,32.6],
    [1301,"FF1721AC76217484","กองดิจิทัลเพื่อการควบคุมโรค","2023-01-07T00:00:00",14,25.2,33.2,26.1,42],
    [1302,"FF1721AC76217484","กองดิจิทัลเพื่อการควบคุมโรค","2023-01-07T00:00:00",15,7.1,9.3,26.8,39.2],
    [1303,"FF1721AC76217484","กองดิจิทัลเพื่อการควบคุมโรค","2023-01-07T00:00:00",16,13.7,16.5,28.5,37.3],
    [1304,"FF1721AC76217484","กองดิจิทัลเพื่อการควบคุมโรค","2023-01-07T00:00:00",17,6.9,8.8,29.5,34.8],
    [1305,"FF1721AC76217484","กองดิจิทัลเพื่อการควบคุมโรค","2023-01-07T00:00:00",18,3.8,3.9,28.8,36.1],
    [1306,"FF1721AC76217484","กองดิจิทัลเพื่อการควบคุมโรค","2023-01-07T00:00:00",19,2.3,3.3,28,37.6],
    [1307,"FF1721AC76217484","กองดิจิทัลเพื่อการควบคุมโรค","2023-01-07T00:00:00",20,2.7,2.7,27.9,38.5],
    [1308,"FF1721AC76217484","กองดิจิทัลเพื่อการควบคุมโรค","2023-01-07T00:00:00",21,3.4,5.6,28.2,39],
    [1309,"FF1721AC76217484","กองดิจิทัลเพื่อการควบคุมโรค","2023-01-07T00:00:00",22,4.1,6.1,28.6,38.4],
    [1310,"FF1721AC76217484","กองดิจิทัลเพื่อการควบคุมโรค","2023-01-07T00:00:00",23,3.9,6.1,28.5,38.3],
    [1311,"FF1721AC76217484","กองดิจิทัลเพื่อการควบคุมโรค","2023-02-07T00:00:00",0,4.9,6.6,28.2,38.8],
    [1312,"FF1721AC76217484","กองดิจิทัลเพื่อการควบคุมโรค","2023-02-07T00:00:00",1,2.7,2.3,28.1,38.3],
    [1313,"FF1721AC76217484","กองดิจิทัลเพื่อการควบคุมโรค","2023-02-07T00:00:00",2,1,1.3,27.8,38.2],
    [1314,"FF1721AC76217484","กองดิจิทัลเพื่อการควบคุมโรค","2023-02-07T00:00:00",3,1,2,27.3,39],
    [1315,"FF1721AC76217484","กองดิจิทัลเพื่อการควบคุมโรค","2023-02-07T00:00:00",4,1.4,1.8,27.3,38.5],
    [1316,"FF1721AC76217484","กองดิจิทัลเพื่อการควบคุมโรค","2023-02-07T00:00:00",5,1.4,2,27.5,38.7],
    [1317,"FF1721AC76217484","กองดิจิทัลเพื่อการควบคุมโรค","2023-02-07T00:00:00",6,1.3,1.8,27.7,38.7],
    [1318,"FF1721AC76217484","กองดิจิทัลเพื่อการควบคุมโรค","2023-02-07T00:00:00",7,1,1.1,28,37.6],
    [1319,"FF1721AC76217484","กองดิจิทัลเพื่อการควบคุมโรค","2023-02-07T00:00:00",8,1,2,28.7,35.7],
    [1320,"FF1721AC76217484","กองดิจิทัลเพื่อการควบคุมโรค","2023-02-07T00:00:00",9,1.3,1.4,29.9,33.1],
    [1321,"FF1721AC76217484","กองดิจิทัลเพื่อการควบคุมโรค","2023-02-07T00:00:00",10,1.4,1.9,30.7,32.5],
    [1322,"FF1721AC76217484","กองดิจิทัลเพื่อการควบคุมโรค","2023-02-07T00:00:00",11,2.8,3.2,31.1,32],
    [1323,"FF1721AC76217484","กองดิจิทัลเพื่อการควบคุมโรค","2023-02-07T00:00:00",12,3.3,3.8,32.3,30.5],
    [1324,"FF1721AC76217484","กองดิจิทัลเพื่อการควบคุมโรค","2023-02-07T00:00:00",13,3.2,4,32.9,29.6],
    [1325,"FF1721AC76217484","กองดิจิทัลเพื่อการควบคุมโรค","2023-02-07T00:00:00",14,4,3.9,31.8,31.2],
    [1326,"FF1721AC76217484","กองดิจิทัลเพื่อการควบคุมโรค","2023-02-07T00:00:00",15,3.3,4.9,31,31.8],
    [1327,"FF1721AC76217484","กองดิจิทัลเพื่อการควบคุมโรค","2023-02-07T00:00:00",16,4.3,6,28.9,35.8],
    [1328,"FF1721AC76217484","กองดิจิทัลเพื่อการควบคุมโรค","2023-02-07T00:00:00",17,2.4,3.1,27.2,38.9],
    [1329,"FF1721AC76217484","กองดิจิทัลเพื่อการควบคุมโรค","2023-02-07T00:00:00",18,1.5,2,23.5,43.6],
    [1330,"FF1721AC76217484","กองดิจิทัลเพื่อการควบคุมโรค","2023-02-07T00:00:00",19,1.7,2.6,23.8,43.7],
    [1331,"FF1721AC76217484","กองดิจิทัลเพื่อการควบคุมโรค","2023-02-07T00:00:00",20,1.6,1.5,24.5,42.9],
    [1332,"FF1721AC76217484","กองดิจิทัลเพื่อการควบคุมโรค","2023-02-07T00:00:00",21,1.9,2.5,25,42.1],
    [1333,"FF1721AC76217484","กองดิจิทัลเพื่อการควบคุมโรค","2023-02-07T00:00:00",22,1.5,2.5,24.5,43.4],
    [1334,"FF1721AC76217484","กองดิจิทัลเพื่อการควบคุมโรค","2023-02-07T00:00:00",23,2.5,3.2,25.2,42.1],
    [1335,"FF1721AC76217484","กองดิจิทัลเพื่อการควบคุมโรค","2023-03-07T00:00:00",0,3.4,5.3,24.9,44.4],
    [1336,"FF1721AC76217484","กองดิจิทัลเพื่อการควบคุมโรค","2023-03-07T00:00:00",1,6.4,8.5,25.6,43.4],
    [1337,"FF1721AC76217484","กองดิจิทัลเพื่อการควบคุมโรค","2023-03-07T00:00:00",2,1.4,2.2,24.5,43.3],
    [1338,"FF1721AC76217484","กองดิจิทัลเพื่อการควบคุมโรค","2023-03-07T00:00:00",3,2.1,3.3,24.6,44.5],
    [1339,"FF1721AC76217484","กองดิจิทัลเพื่อการควบคุมโรค","2023-03-07T00:00:00",4,3.4,4.8,25,44.7],
    [1340,"FF1721AC76217484","กองดิจิทัลเพื่อการควบคุมโรค","2023-03-07T00:00:00",5,5.8,7.2,25.5,44.1],
    [1341,"FF1721AC76217484","กองดิจิทัลเพื่อการควบคุมโรค","2023-03-07T00:00:00",6,8.9,14.1,25.9,43.9],
    [1342,"FF1721AC76217484","กองดิจิทัลเพื่อการควบคุมโรค","2023-03-07T00:00:00",7,8.6,13,26.6,42.6],
    [1343,"FF1721AC76217484","กองดิจิทัลเพื่อการควบคุมโรค","2023-03-07T00:00:00",8,4.6,6.3,27.5,38.9],
    [1344,"FF1721AC76217484","กองดิจิทัลเพื่อการควบคุมโรค","2023-03-07T00:00:00",9,3.3,4.2,28.3,36.7],
    [1345,"FF1721AC76217484","กองดิจิทัลเพื่อการควบคุมโรค","2023-03-07T00:00:00",10,3.8,5.5,29.6,33.1],
    [1346,"FF1721AC76217484","กองดิจิทัลเพื่อการควบคุมโรค","2023-03-07T00:00:00",11,5.2,7.2,30.6,31.5],
    [1347,"FF1721AC76217484","กองดิจิทัลเพื่อการควบคุมโรค","2023-03-07T00:00:00",12,3,4.5,31.4,28.9],
    [1348,"FF1721AC76217484","กองดิจิทัลเพื่อการควบคุมโรค","2023-03-07T00:00:00",13,3.2,4.3,31.3,28.4],
    [1349,"FF1721AC76217484","กองดิจิทัลเพื่อการควบคุมโรค","2023-03-07T00:00:00",14,2.7,3.7,30.6,29.4],
    [1350,"FF1721AC76217484","กองดิจิทัลเพื่อการควบคุมโรค","2023-03-07T00:00:00",15,3.6,5.6,30.8,29.9],
    [1351,"FF1721AC76217484","กองดิจิทัลเพื่อการควบคุมโรค","2023-03-07T00:00:00",16,4.4,6.7,30.5,30.3],
    [1352,"FF1721AC76217484","กองดิจิทัลเพื่อการควบคุมโรค","2023-03-07T00:00:00",17,4.6,6.2,29.9,32.3],
    [1353,"FF1721AC76217484","กองดิจิทัลเพื่อการควบคุมโรค","2023-03-07T00:00:00",18,4.1,5.3,29.4,32.2],
    [1354,"FF1721AC76217484","กองดิจิทัลเพื่อการควบคุมโรค","2023-03-07T00:00:00",19,4,6,29.1,31.7],
    [1355,"FF1721AC76217484","กองดิจิทัลเพื่อการควบคุมโรค","2023-03-07T00:00:00",20,6.2,8.3,28.9,32.8],
    [1356,"FF1721AC76217484","กองดิจิทัลเพื่อการควบคุมโรค","2023-03-07T00:00:00",21,8.6,11.7,28.5,33.5],
    [1357,"FF1721AC76217484","กองดิจิทัลเพื่อการควบคุมโรค","2023-03-07T00:00:00",22,9.8,14.2,28.4,33.6],
    [1358,"FF1721AC76217484","กองดิจิทัลเพื่อการควบคุมโรค","2023-03-07T00:00:00",23,7.6,10.3,28,34.2],
    [1359,"FF1721AC76217484","กองดิจิทัลเพื่อการควบคุมโรค","2023-04-07T00:00:00",0,8.5,10.9,27.6,34.9],
    [1360,"FF1721AC76217484","กองดิจิทัลเพื่อการควบคุมโรค","2023-04-07T00:00:00",1,9.1,12.3,27.3,35.5],
    [1361,"FF1721AC76217484","กองดิจิทัลเพื่อการควบคุมโรค","2023-04-07T00:00:00",2,10.2,14.4,27.3,35.8],
    [1362,"FF1721AC76217484","กองดิจิทัลเพื่อการควบคุมโรค","2023-04-07T00:00:00",3,13.7,17.3,27.1,36.2],
    [1363,"FF1721AC76217484","กองดิจิทัลเพื่อการควบคุมโรค","2023-04-07T00:00:00",4,17.4,23.7,27.1,36.6],
    [1364,"FF1721AC76217484","กองดิจิทัลเพื่อการควบคุมโรค","2023-04-07T00:00:00",5,16.9,23.9,26.8,37.2],
    [1365,"FF1721AC76217484","กองดิจิทัลเพื่อการควบคุมโรค","2023-04-07T00:00:00",6,18.5,27.8,27.1,37.2],
    [1366,"FF1721AC76217484","กองดิจิทัลเพื่อการควบคุมโรค","2023-04-07T00:00:00",7,16.5,22.7,28.6,35.4],
    [1367,"FF1721AC76217484","กองดิจิทัลเพื่อการควบคุมโรค","2023-04-07T00:00:00",8,6.1,9.8,28.3,36.4],
    [1368,"FF1721AC76217484","กองดิจิทัลเพื่อการควบคุมโรค","2023-04-07T00:00:00",9,6.5,9.4,29.8,33.7],
    [1369,"FF1721AC76217484","กองดิจิทัลเพื่อการควบคุมโรค","2023-04-07T00:00:00",10,5.5,8.9,30.4,31.2],
    [1370,"FF1721AC76217484","กองดิจิทัลเพื่อการควบคุมโรค","2023-04-07T00:00:00",11,5.8,8.5,30.9,29.5],
    [1371,"FF1721AC76217484","กองดิจิทัลเพื่อการควบคุมโรค","2023-04-07T00:00:00",12,7.1,10.7,30.2,29.9],
    [1372,"FF1721AC76217484","กองดิจิทัลเพื่อการควบคุมโรค","2023-04-07T00:00:00",13,6,9.6,29.6,32.1],
    [1373,"FF1721AC76217484","กองดิจิทัลเพื่อการควบคุมโรค","2023-04-07T00:00:00",14,6.9,12,27.9,37.4],
    [1374,"FF1721AC76217484","กองดิจิทัลเพื่อการควบคุมโรค","2023-04-07T00:00:00",15,7.8,12.3,27.8,37.6],
    [1375,"FF1721AC76217484","กองดิจิทัลเพื่อการควบคุมโรค","2023-04-07T00:00:00",16,9.3,12.4,26.5,38.4],
    [1376,"FF1721AC76217484","กองดิจิทัลเพื่อการควบคุมโรค","2023-04-07T00:00:00",17,6.6,9.4,27.7,35.7],
    [1377,"FF1721AC76217484","กองดิจิทัลเพื่อการควบคุมโรค","2023-04-07T00:00:00",18,6.6,11,27.9,34.3],
    [1378,"FF1721AC76217484","กองดิจิทัลเพื่อการควบคุมโรค","2023-04-07T00:00:00",19,8,11.6,27.6,34.6],
    [1379,"FF1721AC76217484","กองดิจิทัลเพื่อการควบคุมโรค","2023-04-07T00:00:00",20,8.4,11.5,27.4,34.8],
    [1380,"FF1721AC76217484","กองดิจิทัลเพื่อการควบคุมโรค","2023-04-07T00:00:00",21,13.4,17,27,37.3],
    [1381,"FF1721AC76217484","กองดิจิทัลเพื่อการควบคุมโรค","2023-04-07T00:00:00",22,14,19.7,26.8,37.8],
    [1382,"FF1721AC76217484","กองดิจิทัลเพื่อการควบคุมโรค","2023-04-07T00:00:00",23,17.4,25.2,26.7,39.2],
    [1383,"FF1721AC76217484","กองดิจิทัลเพื่อการควบคุมโรค","2023-05-07T00:00:00",0,19.9,26.9,25.7,42.1],
    [1384,"FF1721AC76217484","กองดิจิทัลเพื่อการควบคุมโรค","2023-05-07T00:00:00",1,19,28,25.1,43.5],
    [1385,"FF1721AC76217484","กองดิจิทัลเพื่อการควบคุมโรค","2023-05-07T00:00:00",2,18,28,25.9,42.3],
    [1386,"FF1721AC76217484","กองดิจิทัลเพื่อการควบคุมโรค","2023-05-07T00:00:00",3,18.7,28.4,26,42.2],
    [1387,"FF1721AC76217484","กองดิจิทัลเพื่อการควบคุมโรค","2023-05-07T00:00:00",4,18.9,26.6,25.8,41.9],
    [1388,"FF1721AC76217484","กองดิจิทัลเพื่อการควบคุมโรค","2023-05-07T00:00:00",5,20.8,28.9,25.8,42.4],
    [1389,"FF1721AC76217484","กองดิจิทัลเพื่อการควบคุมโรค","2023-05-07T00:00:00",6,20.1,33,26,41.3],
    [1390,"FF1721AC76217484","กองดิจิทัลเพื่อการควบคุมโรค","2023-05-07T00:00:00",7,20.7,27.9,26.3,40.2],
    [1391,"FF1721AC76217484","กองดิจิทัลเพื่อการควบคุมโรค","2023-05-07T00:00:00",8,18.8,25,27.5,37.4],
    [1392,"FF1721AC76217484","กองดิจิทัลเพื่อการควบคุมโรค","2023-05-07T00:00:00",9,13.7,18.1,28.1,34.9],
    [1393,"FF1721AC76217484","กองดิจิทัลเพื่อการควบคุมโรค","2023-05-07T00:00:00",10,20.4,29.5,29.9,32.9],
    [1394,"FF1721AC76217484","กองดิจิทัลเพื่อการควบคุมโรค","2023-05-07T00:00:00",11,24.1,32.5,30.2,31.6],
    [1395,"FF1721AC76217484","กองดิจิทัลเพื่อการควบคุมโรค","2023-05-07T00:00:00",12,17.9,25.3,31.2,28.9],
    [1396,"FF1721AC76217484","กองดิจิทัลเพื่อการควบคุมโรค","2023-05-07T00:00:00",13,17.3,23,32.7,27.5],
    [1397,"FF1721AC76217484","กองดิจิทัลเพื่อการควบคุมโรค","2023-05-07T00:00:00",14,7.2,9.7,33,26.5],
    [1398,"FF1721AC76217484","กองดิจิทัลเพื่อการควบคุมโรค","2023-05-07T00:00:00",15,9.5,12.4,32.5,27.1],
    [1399,"FF1721AC76217484","กองดิจิทัลเพื่อการควบคุมโรค","2023-05-07T00:00:00",16,26.1,35.9,31.1,31.3],
    [1400,"FF1721AC76217484","กองดิจิทัลเพื่อการควบคุมโรค","2023-05-07T00:00:00",17,26,38.6,28.8,36],
    [1401,"FF1721AC76217484","กองดิจิทัลเพื่อการควบคุมโรค","2023-05-07T00:00:00",18,8.4,11.3,22.1,47.5],
    [1402,"FF1721AC76217484","กองดิจิทัลเพื่อการควบคุมโรค","2023-05-07T00:00:00",19,8.5,11.8,22.7,47.4],
    [1403,"FF1721AC76217484","กองดิจิทัลเพื่อการควบคุมโรค","2023-05-07T00:00:00",20,10,14,23.5,46.3],
    [1404,"FF1721AC76217484","กองดิจิทัลเพื่อการควบคุมโรค","2023-05-07T00:00:00",21,10.2,13.8,23.3,47.2],
    [1405,"FF1721AC76217484","กองดิจิทัลเพื่อการควบคุมโรค","2023-05-07T00:00:00",22,11,15.4,23.9,46.8],
    [1406,"FF1721AC76217484","กองดิจิทัลเพื่อการควบคุมโรค","2023-05-07T00:00:00",23,16.1,20.6,24.1,46.5],
    [1407,"FF1721AC76217484","กองดิจิทัลเพื่อการควบคุมโรค","2023-06-07T00:00:00",0,23.8,31.1,24.2,46.6],
    [1408,"FF1721AC76217484","กองดิจิทัลเพื่อการควบคุมโรค","2023-06-07T00:00:00",1,27.5,39.7,24.2,46.1],
    [1409,"FF1721AC76217484","กองดิจิทัลเพื่อการควบคุมโรค","2023-06-07T00:00:00",2,31.8,45.5,24,46],
    [1410,"FF1721AC76217484","กองดิจิทัลเพื่อการควบคุมโรค","2023-06-07T00:00:00",3,33.4,47.7,23.5,45.6],
    [1411,"FF1721AC76217484","กองดิจิทัลเพื่อการควบคุมโรค","2023-06-07T00:00:00",4,28.9,40.6,23.9,44.8],
    [1412,"FF1721AC76217484","กองดิจิทัลเพื่อการควบคุมโรค","2023-06-07T00:00:00",5,23,29.7,24.3,44],
    [1413,"FF1721AC76217484","กองดิจิทัลเพื่อการควบคุมโรค","2023-06-07T00:00:00",6,17.9,24.2,24.1,44],
    [1414,"FF1721AC76217484","กองดิจิทัลเพื่อการควบคุมโรค","2023-06-07T00:00:00",7,10.9,13.8,24.4,42.4],
    [1415,"FF1721AC76217484","กองดิจิทัลเพื่อการควบคุมโรค","2023-06-07T00:00:00",8,5,6.5,25.8,38.6],
    [1416,"FF1721AC76217484","กองดิจิทัลเพื่อการควบคุมโรค","2023-06-07T00:00:00",9,4.6,5.7,27.5,35.1],
    [1417,"FF1721AC76217484","กองดิจิทัลเพื่อการควบคุมโรค","2023-06-07T00:00:00",10,4,6.3,29.3,31.5],
    [1418,"FF1721AC76217484","กองดิจิทัลเพื่อการควบคุมโรค","2023-06-07T00:00:00",11,5.8,7.9,31.1,29.5],
    [1419,"FF1721AC76217484","กองดิจิทัลเพื่อการควบคุมโรค","2023-06-07T00:00:00",12,3.5,8.2,32.5,28.4],
    [1420,"FF1721AC76217484","กองดิจิทัลเพื่อการควบคุมโรค","2023-06-07T00:00:00",13,4.9,7.3,33,27.3],
    [1421,"FF1721AC76217484","กองดิจิทัลเพื่อการควบคุมโรค","2023-06-07T00:00:00",14,5,7.3,32.9,27.5],
    [1422,"FF1721AC76217484","กองดิจิทัลเพื่อการควบคุมโรค","2023-06-07T00:00:00",15,4.8,6.3,33.8,27],
    [1423,"FF1721AC76217484","กองดิจิทัลเพื่อการควบคุมโรค","2023-06-07T00:00:00",16,5.7,7.1,33.2,27.2],
    [1424,"FF1721AC76217484","กองดิจิทัลเพื่อการควบคุมโรค","2023-06-07T00:00:00",17,6.9,10,33,27.1],
    [1425,"FF1721AC76217484","กองดิจิทัลเพื่อการควบคุมโรค","2023-06-07T00:00:00",18,15.6,21.4,31.4,30.5],
    [1426,"FF1721AC76217484","กองดิจิทัลเพื่อการควบคุมโรค","2023-06-07T00:00:00",19,11.8,15.3,29.2,34.8],
    [1427,"FF1721AC76217484","กองดิจิทัลเพื่อการควบคุมโรค","2023-06-07T00:00:00",20,16.1,22.3,26.1,42.1],
    [1428,"FF1721AC76217484","กองดิจิทัลเพื่อการควบคุมโรค","2023-06-07T00:00:00",21,9.5,12.9,27.2,39.6],
    [1429,"FF1721AC76217484","กองดิจิทัลเพื่อการควบคุมโรค","2023-06-07T00:00:00",22,5.4,8.3,28.1,38],
    [1430,"FF1721AC76217484","กองดิจิทัลเพื่อการควบคุมโรค","2023-06-07T00:00:00",23,8,11.7,28,38.2],
    [1431,"FF1721AC76217484","กองดิจิทัลเพื่อการควบคุมโรค","2023-07-07T00:00:00",0,15.2,23.4,27.9,38.2],
    [1432,"FF1721AC76217484","กองดิจิทัลเพื่อการควบคุมโรค","2023-07-07T00:00:00",1,13.2,19.5,27.8,37.9],
    [1433,"FF1721AC76217484","กองดิจิทัลเพื่อการควบคุมโรค","2023-07-07T00:00:00",2,13.7,19.5,27.4,37.8],
    [1434,"FF1721AC76217484","กองดิจิทัลเพื่อการควบคุมโรค","2023-07-07T00:00:00",3,12.1,16.5,27.3,37.1],
    [1435,"FF1721AC76217484","กองดิจิทัลเพื่อการควบคุมโรค","2023-07-07T00:00:00",4,9.8,13.3,26.9,36.4],
    [1436,"FF1721AC76217484","กองดิจิทัลเพื่อการควบคุมโรค","2023-07-07T00:00:00",5,8,11.7,26.7,36.1],
    [1437,"FF1721AC76217484","กองดิจิทัลเพื่อการควบคุมโรค","2023-07-07T00:00:00",6,8.8,11.8,26.6,36.2],
    [1438,"FF1721AC76217484","กองดิจิทัลเพื่อการควบคุมโรค","2023-07-07T00:00:00",7,7.8,10.9,26.8,36],
    [1439,"FF1721AC76217484","กองดิจิทัลเพื่อการควบคุมโรค","2023-07-07T00:00:00",8,7.8,10.2,27.5,35.4],
    [1440,"FF1721AC76217484","กองดิจิทัลเพื่อการควบคุมโรค","2023-07-07T00:00:00",9,7.1,9.8,28.9,32.9],
    [1441,"FF1721AC76217484","กองดิจิทัลเพื่อการควบคุมโรค","2023-07-07T00:00:00",10,8.4,13.5,30.5,30.9],
    [1442,"FF1721AC76217484","กองดิจิทัลเพื่อการควบคุมโรค","2023-07-07T00:00:00",11,8,10.1,34,27.2],
    [1443,"FF1721AC76217484","กองดิจิทัลเพื่อการควบคุมโรค","2023-07-07T00:00:00",12,6.8,9.5,35.5,24.7],
    [1444,"FF1721AC76217484","กองดิจิทัลเพื่อการควบคุมโรค","2023-07-07T00:00:00",13,6.1,8.5,35.7,24.3],
    [1445,"FF1721AC76217484","กองดิจิทัลเพื่อการควบคุมโรค","2023-07-07T00:00:00",14,7,9.9,36,23.5],
    [1446,"FF1721AC76217484","กองดิจิทัลเพื่อการควบคุมโรค","2023-07-07T00:00:00",15,7.3,12.3,35.3,24.7],
    [1447,"FF1721AC76217484","กองดิจิทัลเพื่อการควบคุมโรค","2023-07-07T00:00:00",16,12.4,15.2,34,28],
    [1448,"FF1721AC76217484","กองดิจิทัลเพื่อการควบคุมโรค","2023-07-07T00:00:00",17,15.2,21,32.8,30.2],
    [1449,"FF1721AC76217484","กองดิจิทัลเพื่อการควบคุมโรค","2023-07-07T00:00:00",18,17.4,26,32.1,30.3],
    [1450,"FF1721AC76217484","กองดิจิทัลเพื่อการควบคุมโรค","2023-07-07T00:00:00",19,6.7,9.1,30.6,32.3],
    [1451,"FF1721AC76217484","กองดิจิทัลเพื่อการควบคุมโรค","2023-07-07T00:00:00",20,4.8,6.9,29.6,35.3],
    [1452,"FF1721AC76217484","กองดิจิทัลเพื่อการควบคุมโรค","2023-07-07T00:00:00",21,4.8,7,29,37.6],
    [1453,"FF1721AC76217484","กองดิจิทัลเพื่อการควบคุมโรค","2023-07-07T00:00:00",22,3.6,4.4,28.5,38.1],
    [1454,"FF1721AC76217484","กองดิจิทัลเพื่อการควบคุมโรค","2023-07-07T00:00:00",23,1.9,2.9,28.3,36.1],
    [1455,"FF1721AC76217484","กองดิจิทัลเพื่อการควบคุมโรค","2023-08-07T00:00:00",0,2.6,3.8,28.1,36.7],
    [1456,"FF1721AC76217484","กองดิจิทัลเพื่อการควบคุมโรค","2023-08-07T00:00:00",1,3.1,3.3,28,38.1],
    [1457,"FF1721AC76217484","กองดิจิทัลเพื่อการควบคุมโรค","2023-08-07T00:00:00",2,3.3,5.4,27.9,39.4],
    [1458,"FF1721AC76217484","กองดิจิทัลเพื่อการควบคุมโรค","2023-08-07T00:00:00",3,5.2,6.9,27.9,40.2],
    [1459,"FF1721AC76217484","กองดิจิทัลเพื่อการควบคุมโรค","2023-08-07T00:00:00",4,7.7,12.1,27.6,40.7],
    [1460,"FF1721AC76217484","กองดิจิทัลเพื่อการควบคุมโรค","2023-08-07T00:00:00",5,7.7,12.2,27.6,40.6],
    [1461,"FF1721AC76217484","กองดิจิทัลเพื่อการควบคุมโรค","2023-08-07T00:00:00",6,7.5,11.5,27.9,40.1],
    [1462,"FF1721AC76217484","กองดิจิทัลเพื่อการควบคุมโรค","2023-08-07T00:00:00",7,8.8,12.5,29,38],
    [1463,"FF1721AC76217484","กองดิจิทัลเพื่อการควบคุมโรค","2023-08-07T00:00:00",8,8.9,12,29.9,35.6],
    [1464,"FF1721AC76217484","กองดิจิทัลเพื่อการควบคุมโรค","2023-08-07T00:00:00",9,5.3,9.6,30.2,32.9],
    [1465,"FF1721AC76217484","กองดิจิทัลเพื่อการควบคุมโรค","2023-08-07T00:00:00",10,8,11.7,29.9,34.9],
    [1466,"FF1721AC76217484","กองดิจิทัลเพื่อการควบคุมโรค","2023-08-07T00:00:00",11,20.6,26.8,29.5,38.5],
    [1467,"FF1721AC76217484","กองดิจิทัลเพื่อการควบคุมโรค","2023-08-07T00:00:00",12,23.8,31.7,31.7,34.3],
    [1468,"FF1721AC76217484","กองดิจิทัลเพื่อการควบคุมโรค","2023-08-07T00:00:00",13,25.7,35.4,32.3,32.3],
    [1469,"FF1721AC76217484","กองดิจิทัลเพื่อการควบคุมโรค","2023-08-07T00:00:00",14,23,33.3,32.4,32],
    [1470,"FF1721AC76217484","กองดิจิทัลเพื่อการควบคุมโรค","2023-08-07T00:00:00",15,16,20.6,32.8,30.2],
    [1471,"FF1721AC76217484","กองดิจิทัลเพื่อการควบคุมโรค","2023-08-07T00:00:00",16,15.4,18.3,32.4,30],
    [1472,"FF1721AC76217484","กองดิจิทัลเพื่อการควบคุมโรค","2023-08-07T00:00:00",17,6.5,9.7,30.9,31.7],
    [1473,"FF1721AC76217484","กองดิจิทัลเพื่อการควบคุมโรค","2023-08-07T00:00:00",18,5.4,8.7,29.8,33.1],
    [1474,"FF1721AC76217484","กองดิจิทัลเพื่อการควบคุมโรค","2023-08-07T00:00:00",19,4.1,5.9,28.7,36.7],
    [1475,"FF1721AC76217484","กองดิจิทัลเพื่อการควบคุมโรค","2023-08-07T00:00:00",20,4.6,7.9,28.1,38.8],
    [1476,"FF1721AC76217484","กองดิจิทัลเพื่อการควบคุมโรค","2023-08-07T00:00:00",21,5.2,7.7,28.2,39],
    [1477,"FF1721AC76217484","กองดิจิทัลเพื่อการควบคุมโรค","2023-08-07T00:00:00",22,11.3,14.8,26,41.6],
    [1478,"FF1721AC76217484","กองดิจิทัลเพื่อการควบคุมโรค","2023-08-07T00:00:00",23,11.3,16.2,24.6,45.2],
    [1479,"FF1721AC76217484","กองดิจิทัลเพื่อการควบคุมโรค","2023-09-07T00:00:00",0,10.7,13.7,24.6,45.6],
    [1480,"FF1721AC76217484","กองดิจิทัลเพื่อการควบคุมโรค","2023-09-07T00:00:00",1,11.1,14.2,24.5,45.2],
    [1481,"FF1721AC76217484","กองดิจิทัลเพื่อการควบคุมโรค","2023-09-07T00:00:00",2,14.1,17.3,25.2,44.5],
    [1482,"FF1721AC76217484","กองดิจิทัลเพื่อการควบคุมโรค","2023-09-07T00:00:00",3,15.2,20.8,24.9,44.8],
    [1483,"FF1721AC76217484","กองดิจิทัลเพื่อการควบคุมโรค","2023-09-07T00:00:00",4,12.8,16.6,25,44.1],
    [1484,"FF1721AC76217484","กองดิจิทัลเพื่อการควบคุมโรค","2023-09-07T00:00:00",5,11.5,14.5,24.8,44.2],
    [1485,"FF1721AC76217484","กองดิจิทัลเพื่อการควบคุมโรค","2023-09-07T00:00:00",6,14.3,18,25.3,44],
    [1486,"FF1721AC76217484","กองดิจิทัลเพื่อการควบคุมโรค","2023-09-07T00:00:00",7,13.8,17.8,26.6,41.4],
    [1487,"FF1721AC76217484","กองดิจิทัลเพื่อการควบคุมโรค","2023-09-07T00:00:00",8,8.6,11.3,27,39.9],
    [1488,"FF1721AC76217484","กองดิจิทัลเพื่อการควบคุมโรค","2023-09-07T00:00:00",9,10.3,14,28.9,37.5],
    [1489,"FF1721AC76217484","กองดิจิทัลเพื่อการควบคุมโรค","2023-09-07T00:00:00",10,10.2,14.5,28.4,37.2],
    [1490,"FF1721AC76217484","กองดิจิทัลเพื่อการควบคุมโรค","2023-09-07T00:00:00",11,11.9,17.2,24.4,43.7],
    [1491,"FF1721AC76217484","กองดิจิทัลเพื่อการควบคุมโรค","2023-09-07T00:00:00",12,13.2,19.4,23.5,46.8],
    [1492,"FF1721AC76217484","กองดิจิทัลเพื่อการควบคุมโรค","2023-09-07T00:00:00",13,7.1,10.2,25.3,43],
    [1493,"FF1721AC76217484","กองดิจิทัลเพื่อการควบคุมโรค","2023-09-07T00:00:00",14,6.5,9,28.1,38.1],
    [1494,"FF1721AC76217484","กองดิจิทัลเพื่อการควบคุมโรค","2023-09-07T00:00:00",15,7.3,8.4,28.8,35.8],
    [1495,"FF1721AC76217484","กองดิจิทัลเพื่อการควบคุมโรค","2023-09-07T00:00:00",16,6.7,8.2,27.8,37.6],
    [1496,"FF1721AC76217484","กองดิจิทัลเพื่อการควบคุมโรค","2023-09-07T00:00:00",17,8.4,11.5,26.6,41.1],
    [1497,"FF1721AC76217484","กองดิจิทัลเพื่อการควบคุมโรค","2023-09-07T00:00:00",18,10.4,12.2,26,42.3],
    [1498,"FF1721AC76217484","กองดิจิทัลเพื่อการควบคุมโรค","2023-09-07T00:00:00",19,12.6,17.8,25.7,42.4],
    [1499,"FF1721AC76217484","กองดิจิทัลเพื่อการควบคุมโรค","2023-09-07T00:00:00",20,14.4,18.1,25.8,42.4],
    [1500,"FF1721AC76217484","กองดิจิทัลเพื่อการควบคุมโรค","2023-09-07T00:00:00",21,16,20.4,25.7,42.7],
    [1501,"FF1721AC76217484","กองดิจิทัลเพื่อการควบคุมโรค","2023-09-07T00:00:00",22,19.3,27.1,25.6,42.9],
    [1502,"FF1721AC76217484","กองดิจิทัลเพื่อการควบคุมโรค","2023-09-07T00:00:00",23,19.9,28.1,25.6,42.6],
    [1503,"FF1721AC76217484","กองดิจิทัลเพื่อการควบคุมโรค","2023-10-07T00:00:00",0,16.4,22.4,25,43],
    [1504,"FF1721AC76217484","กองดิจิทัลเพื่อการควบคุมโรค","2023-10-07T00:00:00",1,17.7,25.8,25.1,43.3],
    [1505,"FF1721AC76217484","กองดิจิทัลเพื่อการควบคุมโรค","2023-10-07T00:00:00",2,15.3,22.2,25,43.5],
    [1506,"FF1721AC76217484","กองดิจิทัลเพื่อการควบคุมโรค","2023-10-07T00:00:00",3,14.1,20.5,25,43.6],
    [1507,"FF1721AC76217484","กองดิจิทัลเพื่อการควบคุมโรค","2023-10-07T00:00:00",4,14.7,20.6,25,43.5],
    [1508,"FF1721AC76217484","กองดิจิทัลเพื่อการควบคุมโรค","2023-10-07T00:00:00",5,16,24.8,25.1,43.7],
    [1509,"FF1721AC76217484","กองดิจิทัลเพื่อการควบคุมโรค","2023-10-07T00:00:00",6,15.5,22.9,24.1,46],
    [1510,"FF1721AC76217484","กองดิจิทัลเพื่อการควบคุมโรค","2023-10-07T00:00:00",7,5.5,7.8,23.8,46.1],
    [1511,"FF1721AC76217484","กองดิจิทัลเพื่อการควบคุมโรค","2023-10-07T00:00:00",8,14.8,19.8,25.7,43.5],
    [1512,"FF1721AC76217484","กองดิจิทัลเพื่อการควบคุมโรค","2023-10-07T00:00:00",9,17.4,25,24.3,45.4],
    [1513,"FF1721AC76217484","กองดิจิทัลเพื่อการควบคุมโรค","2023-10-07T00:00:00",10,12.6,16.7,24.6,45.9],
    [1514,"FF1721AC76217484","กองดิจิทัลเพื่อการควบคุมโรค","2023-10-07T00:00:00",11,13,18.5,26.4,43],
    [1515,"FF1721AC76217484","กองดิจิทัลเพื่อการควบคุมโรค","2023-10-07T00:00:00",12,7.5,11.2,27.9,38.8],
    [1516,"FF1721AC76217484","กองดิจิทัลเพื่อการควบคุมโรค","2023-10-07T00:00:00",13,2.5,3.3,29.2,36],
    [1517,"FF1721AC76217484","กองดิจิทัลเพื่อการควบคุมโรค","2023-10-07T00:00:00",14,2.7,3.6,31,31.9],
    [1518,"FF1721AC76217484","กองดิจิทัลเพื่อการควบคุมโรค","2023-10-07T00:00:00",15,3.8,5.3,30.3,32.5],
    [1519,"FF1721AC76217484","กองดิจิทัลเพื่อการควบคุมโรค","2023-10-07T00:00:00",16,3.3,4,30.3,31.9],
    [1520,"FF1721AC76217484","กองดิจิทัลเพื่อการควบคุมโรค","2023-10-07T00:00:00",17,4.1,5.4,29.8,33.3],
    [1521,"FF1721AC76217484","กองดิจิทัลเพื่อการควบคุมโรค","2023-10-07T00:00:00",18,3.4,4.7,28.9,34.1],
    [1522,"FF1721AC76217484","กองดิจิทัลเพื่อการควบคุมโรค","2023-10-07T00:00:00",19,3.1,5.2,28.3,35.1],
    [1523,"FF1721AC76217484","กองดิจิทัลเพื่อการควบคุมโรค","2023-10-07T00:00:00",20,2.5,3.4,27.8,34.7],
    [1524,"FF1721AC76217484","กองดิจิทัลเพื่อการควบคุมโรค","2023-10-07T00:00:00",21,3.8,4.4,27.5,36.9],
    [1525,"FF1721AC76217484","กองดิจิทัลเพื่อการควบคุมโรค","2023-10-07T00:00:00",22,3.1,4.5,27.4,37.8],
    [1526,"FF1721AC76217484","กองดิจิทัลเพื่อการควบคุมโรค","2023-10-07T00:00:00",23,2.7,4.4,27.3,38.5],
    [1527,"FF1721AC76217484","กองดิจิทัลเพื่อการควบคุมโรค","2023-11-07T00:00:00",0,4.1,5.3,27.3,38.9],
    [1528,"FF1721AC76217484","กองดิจิทัลเพื่อการควบคุมโรค","2023-11-07T00:00:00",1,3.2,3.7,27.1,39.1],
    [1529,"FF1721AC76217484","กองดิจิทัลเพื่อการควบคุมโรค","2023-11-07T00:00:00",2,2.5,3.8,27.2,39.3],
    [1530,"FF1721AC76217484","กองดิจิทัลเพื่อการควบคุมโรค","2023-11-07T00:00:00",3,2.5,3.4,25.7,42.3],
    [1531,"FF1721AC76217484","กองดิจิทัลเพื่อการควบคุมโรค","2023-11-07T00:00:00",4,1.3,3.7,23.5,45.6],
    [1532,"FF1721AC76217484","กองดิจิทัลเพื่อการควบคุมโรค","2023-11-07T00:00:00",5,4.4,4.5,23.7,46.9],
    [1533,"FF1721AC76217484","กองดิจิทัลเพื่อการควบคุมโรค","2023-11-07T00:00:00",6,6.1,8.1,24.4,46.4],
    [1534,"FF1721AC76217484","กองดิจิทัลเพื่อการควบคุมโรค","2023-11-07T00:00:00",7,7.8,9.9,25.4,45.3],
    [1535,"FF1721AC76217484","กองดิจิทัลเพื่อการควบคุมโรค","2023-11-07T00:00:00",8,15.7,22,25.6,44.8],
    [1536,"FF1721AC76217484","กองดิจิทัลเพื่อการควบคุมโรค","2023-11-07T00:00:00",9,22.2,31.9,26.4,43.2],
    [1537,"FF1721AC76217484","กองดิจิทัลเพื่อการควบคุมโรค","2023-11-07T00:00:00",10,14.9,20,27.1,40.7],
    [1538,"FF1721AC76217484","กองดิจิทัลเพื่อการควบคุมโรค","2023-11-07T00:00:00",11,6.2,10.3,29,36.5],
    [1539,"FF1721AC76217484","กองดิจิทัลเพื่อการควบคุมโรค","2023-11-07T00:00:00",12,11.9,15.9,31.2,32.6],
    [1540,"FF1721AC76217484","กองดิจิทัลเพื่อการควบคุมโรค","2023-11-07T00:00:00",13,14.5,19.7,31.8,30.3],
    [1541,"FF1721AC76217484","กองดิจิทัลเพื่อการควบคุมโรค","2023-11-07T00:00:00",14,13.7,18.4,31.6,31],
    [1542,"FF1721AC76217484","กองดิจิทัลเพื่อการควบคุมโรค","2023-11-07T00:00:00",15,4.7,7,31.2,30.1],
    [1543,"FF1721AC76217484","กองดิจิทัลเพื่อการควบคุมโรค","2023-11-07T00:00:00",16,2.6,3.6,31.3,29.6],
    [1544,"FF1721AC76217484","กองดิจิทัลเพื่อการควบคุมโรค","2023-11-07T00:00:00",17,2.4,3.8,30.1,31.8],
    [1545,"FF1721AC76217484","กองดิจิทัลเพื่อการควบคุมโรค","2023-11-07T00:00:00",18,2.2,2.5,29,34.5],
    [1546,"FF1721AC76217484","กองดิจิทัลเพื่อการควบคุมโรค","2023-11-07T00:00:00",19,2.7,3.1,28.2,36.9],
    [1547,"FF1721AC76217484","กองดิจิทัลเพื่อการควบคุมโรค","2023-11-07T00:00:00",20,4,6.1,26.1,38],
    [1548,"FF1721AC76217484","กองดิจิทัลเพื่อการควบคุมโรค","2023-11-07T00:00:00",21,3.6,5.5,26.2,38.1],
    [1549,"FF1721AC76217484","กองดิจิทัลเพื่อการควบคุมโรค","2023-11-07T00:00:00",22,5.4,6.8,26.2,38.2],
    [1550,"FF1721AC76217484","กองดิจิทัลเพื่อการควบคุมโรค","2023-11-07T00:00:00",23,4.9,7.3,26,37.7],
    [1551,"FF1721AC76217484","กองดิจิทัลเพื่อการควบคุมโรค","2023-12-07T00:00:00",0,3.1,3.8,26.1,37.4],
    [1552,"FF1721AC76217484","กองดิจิทัลเพื่อการควบคุมโรค","2023-12-07T00:00:00",1,4,6.3,26,37.9],
    [1553,"FF1721AC76217484","กองดิจิทัลเพื่อการควบคุมโรค","2023-12-07T00:00:00",2,4,5.4,25.7,38.5],
    [1554,"FF1721AC76217484","กองดิจิทัลเพื่อการควบคุมโรค","2023-12-07T00:00:00",3,4.6,5.5,25.6,39.4],
    [1555,"FF1721AC76217484","กองดิจิทัลเพื่อการควบคุมโรค","2023-12-07T00:00:00",4,11.4,16.4,25,41.1],
    [1556,"FF1721AC76217484","กองดิจิทัลเพื่อการควบคุมโรค","2023-12-07T00:00:00",5,13.8,18.4,25.2,41.1],
    [1557,"FF1721AC76217484","กองดิจิทัลเพื่อการควบคุมโรค","2023-12-07T00:00:00",6,16.3,22.7,25.7,40.5],
    [1558,"FF1721AC76217484","กองดิจิทัลเพื่อการควบคุมโรค","2023-12-07T00:00:00",7,16.7,21.9,26.1,39.9],
    [1559,"FF1721AC76217484","กองดิจิทัลเพื่อการควบคุมโรค","2023-12-07T00:00:00",8,15.8,23.2,27.3,37.7],
    [1560,"FF1721AC76217484","กองดิจิทัลเพื่อการควบคุมโรค","2023-12-07T00:00:00",9,15.4,19.2,28.8,35.1],
    [1561,"FF1721AC76217484","กองดิจิทัลเพื่อการควบคุมโรค","2023-12-07T00:00:00",10,11.7,17.7,29.9,32.9],
    [1562,"FF1721AC76217484","กองดิจิทัลเพื่อการควบคุมโรค","2023-12-07T00:00:00",11,10.9,13.7,31.7,29.8],
    [1563,"FF1721AC76217484","กองดิจิทัลเพื่อการควบคุมโรค","2023-12-07T00:00:00",12,8.5,11.5,34,27.6],
    [1564,"FF1721AC76217484","กองดิจิทัลเพื่อการควบคุมโรค","2023-12-07T00:00:00",13,7.1,9.5,34.3,26.2],
    [1565,"FF1721AC76217484","กองดิจิทัลเพื่อการควบคุมโรค","2023-12-07T00:00:00",14,9.4,11.9,34,26.3],
    [1566,"FF1721AC76217484","กองดิจิทัลเพื่อการควบคุมโรค","2023-12-07T00:00:00",15,22.9,29.1,34,27.1],
    [1567,"FF1721AC76217484","กองดิจิทัลเพื่อการควบคุมโรค","2023-12-07T00:00:00",16,9.8,12.9,33.2,28.1],
    [1568,"FF1721AC76217484","กองดิจิทัลเพื่อการควบคุมโรค","2023-12-07T00:00:00",17,9.5,15,32.1,29.2],
    [1569,"FF1721AC76217484","กองดิจิทัลเพื่อการควบคุมโรค","2023-12-07T00:00:00",18,11.3,13.9,31.6,29.9],
    [1570,"FF1721AC76217484","กองดิจิทัลเพื่อการควบคุมโรค","2023-12-07T00:00:00",19,12.1,16.9,31.3,31.7],
    [1571,"FF1721AC76217484","กองดิจิทัลเพื่อการควบคุมโรค","2023-12-07T00:00:00",20,11,15.1,30.2,34.2],
    [1572,"FF1721AC76217484","กองดิจิทัลเพื่อการควบคุมโรค","2023-12-07T00:00:00",21,10.5,14.2,29.8,35],
    [1573,"FF1721AC76217484","กองดิจิทัลเพื่อการควบคุมโรค","2023-12-07T00:00:00",22,7.4,11,29.4,36.1],
    [1574,"FF1721AC76217484","กองดิจิทัลเพื่อการควบคุมโรค","2023-12-07T00:00:00",23,5.5,7.6,29.2,36.9],
    [1575,"FF1721AC76217484","กองดิจิทัลเพื่อการควบคุมโรค","2023-07-13T00:00:00",0,4.4,6.6,28.8,37.8],
    [1576,"FF1721AC76217484","กองดิจิทัลเพื่อการควบคุมโรค","2023-07-13T00:00:00",1,6.8,9.1,28.4,38.6],
    [1577,"FF1721AC76217484","กองดิจิทัลเพื่อการควบคุมโรค","2023-07-13T00:00:00",2,10.2,14.9,27.8,39.6],
    [1578,"FF1721AC76217484","กองดิจิทัลเพื่อการควบคุมโรค","2023-07-13T00:00:00",3,15,21.2,26.9,40.8],
    [1579,"FF1721AC76217484","กองดิจิทัลเพื่อการควบคุมโรค","2023-07-13T00:00:00",4,10.9,14.9,26.6,38.4],
    [1580,"FF1721AC76217484","กองดิจิทัลเพื่อการควบคุมโรค","2023-07-13T00:00:00",5,9.3,14.1,26.2,37.4],
    [1581,"FF1721AC76217484","กองดิจิทัลเพื่อการควบคุมโรค","2023-07-13T00:00:00",6,9.3,13.9,26.2,37.2],
    [1582,"FF1721AC76217484","กองดิจิทัลเพื่อการควบคุมโรค","2023-07-13T00:00:00",7,7.6,11.7,26.8,36.1],
    [1583,"FF1721AC76217484","กองดิจิทัลเพื่อการควบคุมโรค","2023-07-13T00:00:00",8,7.5,11,27.9,34.4],
    [1584,"FF1721AC76217484","กองดิจิทัลเพื่อการควบคุมโรค","2023-07-13T00:00:00",9,7.1,9.6,29.3,32.4],
    [1585,"FF1721AC76217484","กองดิจิทัลเพื่อการควบคุมโรค","2023-07-13T00:00:00",10,7.3,11.4,30.6,30.6],
    [1586,"FF1721AC76217484","กองดิจิทัลเพื่อการควบคุมโรค","2023-07-13T00:00:00",11,6.5,8.3,32.7,28.3],
    [1587,"FF1721AC76217484","กองดิจิทัลเพื่อการควบคุมโรค","2023-07-13T00:00:00",12,4.9,7.2,33.4,27.1],
    [1588,"FF1721AC76217484","กองดิจิทัลเพื่อการควบคุมโรค","2023-07-13T00:00:00",13,5.2,7.4,34,26.5],
    [1589,"FF1721AC76217484","กองดิจิทัลเพื่อการควบคุมโรค","2023-07-13T00:00:00",14,5.5,7.7,34.7,25.1],
    [1590,"FF1721AC76217484","กองดิจิทัลเพื่อการควบคุมโรค","2023-07-13T00:00:00",15,5.3,6.8,34.6,25.4],
    [1591,"FF1721AC76217484","กองดิจิทัลเพื่อการควบคุมโรค","2023-07-13T00:00:00",16,6.5,8.6,33.5,27],
    [1592,"FF1721AC76217484","กองดิจิทัลเพื่อการควบคุมโรค","2023-07-13T00:00:00",17,5.7,7.7,32.6,28.6],
    [1593,"FF1721AC76217484","กองดิจิทัลเพื่อการควบคุมโรค","2023-07-13T00:00:00",18,8.9,11,27.6,38],
    [1594,"FF1721AC76217484","กองดิจิทัลเพื่อการควบคุมโรค","2023-07-13T00:00:00",19,7.5,11,27.4,37.7],
    [1595,"FF1721AC76217484","กองดิจิทัลเพื่อการควบคุมโรค","2023-07-13T00:00:00",20,7.5,11.5,27.8,37.8],
    [1596,"FF1721AC76217484","กองดิจิทัลเพื่อการควบคุมโรค","2023-07-13T00:00:00",21,6.8,9.7,28,38.2],
    [1597,"FF1721AC76217484","กองดิจิทัลเพื่อการควบคุมโรค","2023-07-13T00:00:00",22,10.7,17.8,28.1,38.3],
    [1598,"FF1721AC76217484","กองดิจิทัลเพื่อการควบคุมโรค","2023-07-13T00:00:00",23,11.3,15.8,28.3,36.1],
    [1599,"FF1721AC76217484","กองดิจิทัลเพื่อการควบคุมโรค","2023-07-14T00:00:00",0,13.8,20.7,27.9,36.3],
    [1600,"FF1721AC76217484","กองดิจิทัลเพื่อการควบคุมโรค","2023-07-14T00:00:00",1,14,20.3,27.7,36],
    [1601,"FF1721AC76217484","กองดิจิทัลเพื่อการควบคุมโรค","2023-07-14T00:00:00",2,9.2,12.6,27,36.5],
    [1602,"FF1721AC76217484","กองดิจิทัลเพื่อการควบคุมโรค","2023-07-14T00:00:00",3,6.8,8.8,26.8,36.8],
    [1603,"FF1721AC76217484","กองดิจิทัลเพื่อการควบคุมโรค","2023-07-14T00:00:00",4,6.8,9,26.6,37.1],
    [1604,"FF1721AC76217484","กองดิจิทัลเพื่อการควบคุมโรค","2023-07-14T00:00:00",5,6.2,8.2,26.5,37.2],
    [1605,"FF1721AC76217484","กองดิจิทัลเพื่อการควบคุมโรค","2023-07-14T00:00:00",6,7,10.1,26.5,37.6],
    [1606,"FF1721AC76217484","กองดิจิทัลเพื่อการควบคุมโรค","2023-07-14T00:00:00",7,6.2,8.5,27.2,36.5],
    [1607,"FF1721AC76217484","กองดิจิทัลเพื่อการควบคุมโรค","2023-07-14T00:00:00",8,6,8.6,28.3,34.8],
    [1608,"FF1721AC76217484","กองดิจิทัลเพื่อการควบคุมโรค","2023-07-14T00:00:00",9,4.8,6.7,29,33.4],
    [1609,"FF1721AC76217484","กองดิจิทัลเพื่อการควบคุมโรค","2023-07-14T00:00:00",10,7.6,11.4,29.9,32.1],
    [1610,"FF1721AC76217484","กองดิจิทัลเพื่อการควบคุมโรค","2023-07-14T00:00:00",11,6.4,9.4,31.1,30.9],
    [1611,"FF1721AC76217484","กองดิจิทัลเพื่อการควบคุมโรค","2023-07-14T00:00:00",12,7.6,9.5,31.6,30.2],
    [1612,"FF1721AC76217484","กองดิจิทัลเพื่อการควบคุมโรค","2023-07-14T00:00:00",13,4.1,5.6,32.5,28.3],
    [1613,"FF1721AC76217484","กองดิจิทัลเพื่อการควบคุมโรค","2023-07-14T00:00:00",14,2.5,3.8,33,27.5],
    [1614,"FF1721AC76217484","กองดิจิทัลเพื่อการควบคุมโรค","2023-07-14T00:00:00",15,3.6,5.6,32.9,27.8],
    [1615,"FF1721AC76217484","กองดิจิทัลเพื่อการควบคุมโรค","2023-07-14T00:00:00",16,4.1,5,32.3,27.6],
    [1616,"FF1721AC76217484","กองดิจิทัลเพื่อการควบคุมโรค","2023-07-14T00:00:00",17,5.4,8.1,31.9,28.4],
    [1617,"FF1721AC76217484","กองดิจิทัลเพื่อการควบคุมโรค","2023-07-14T00:00:00",18,10.8,14.9,31.3,29.9],
    [1618,"FF1721AC76217484","กองดิจิทัลเพื่อการควบคุมโรค","2023-07-14T00:00:00",19,14.4,19.8,30.5,31.3],
    [1619,"FF1721AC76217484","กองดิจิทัลเพื่อการควบคุมโรค","2023-07-14T00:00:00",20,16,23,29.7,32.1],
    [1620,"FF1721AC76217484","กองดิจิทัลเพื่อการควบคุมโรค","2023-07-14T00:00:00",21,13.5,21,28.9,32.4],
    [1621,"FF1721AC76217484","กองดิจิทัลเพื่อการควบคุมโรค","2023-07-14T00:00:00",22,13,19.7,28.4,30.8],
    [1622,"FF1721AC76217484","กองดิจิทัลเพื่อการควบคุมโรค","2023-07-14T00:00:00",23,12,18.7,27.9,31.2],
    [1623,"FF1721AC76217484","กองดิจิทัลเพื่อการควบคุมโรค","2023-07-15T00:00:00",0,11.3,17.2,27.5,32],
    [1624,"FF1721AC76217484","กองดิจิทัลเพื่อการควบคุมโรค","2023-07-15T00:00:00",1,12.6,19.5,27,33.2],
    [1625,"FF1721AC76217484","กองดิจิทัลเพื่อการควบคุมโรค","2023-07-15T00:00:00",2,13.8,23.4,26.7,34],
    [1626,"FF1721AC76217484","กองดิจิทัลเพื่อการควบคุมโรค","2023-07-15T00:00:00",3,14.9,24.2,26.6,34.5],
    [1627,"FF1721AC76217484","กองดิจิทัลเพื่อการควบคุมโรค","2023-07-15T00:00:00",4,16,23.5,26.3,35.4],
    [1628,"FF1721AC76217484","กองดิจิทัลเพื่อการควบคุมโรค","2023-07-15T00:00:00",5,15,21.9,26.1,35.6],
    [1629,"FF1721AC76217484","กองดิจิทัลเพื่อการควบคุมโรค","2023-07-15T00:00:00",6,16.7,23.8,26,36.1],
    [1630,"FF1721AC76217484","กองดิจิทัลเพื่อการควบคุมโรค","2023-07-15T00:00:00",7,15.4,21.7,26.8,34.9],
    [1631,"FF1721AC76217484","กองดิจิทัลเพื่อการควบคุมโรค","2023-07-15T00:00:00",8,12.4,19.3,27.7,33.8],
    [1632,"FF1721AC76217484","กองดิจิทัลเพื่อการควบคุมโรค","2023-07-15T00:00:00",9,11,16.9,28.6,32.7],
    [1633,"FF1721AC76217484","กองดิจิทัลเพื่อการควบคุมโรค","2023-07-15T00:00:00",10,9.8,14.2,29.9,30.8],
    [1634,"FF1721AC76217484","กองดิจิทัลเพื่อการควบคุมโรค","2023-07-15T00:00:00",11,7.5,10.4,31.4,28.6],
    [1635,"FF1721AC76217484","กองดิจิทัลเพื่อการควบคุมโรค","2023-07-15T00:00:00",12,7,11.3,32.6,27.8],
    [1636,"FF1721AC76217484","กองดิจิทัลเพื่อการควบคุมโรค","2023-07-15T00:00:00",13,7.2,10.1,32.7,27.8],
    [1637,"FF1721AC76217484","กองดิจิทัลเพื่อการควบคุมโรค","2023-07-15T00:00:00",14,8.4,12.1,32.3,28.3],
    [1638,"FF1721AC76217484","กองดิจิทัลเพื่อการควบคุมโรค","2023-07-15T00:00:00",15,6.3,9.7,32.1,28],
    [1639,"FF1721AC76217484","กองดิจิทัลเพื่อการควบคุมโรค","2023-07-15T00:00:00",16,7.8,11,31.7,28.9],
    [1640,"FF1721AC76217484","กองดิจิทัลเพื่อการควบคุมโรค","2023-07-15T00:00:00",17,9.9,13,31.5,29.4],
    [1641,"FF1721AC76217484","กองดิจิทัลเพื่อการควบคุมโรค","2023-07-15T00:00:00",18,14,20.7,31,29.4],
    [1642,"FF1721AC76217484","กองดิจิทัลเพื่อการควบคุมโรค","2023-07-15T00:00:00",19,12.1,17.4,30.6,29.4],
    [1643,"FF1721AC76217484","กองดิจิทัลเพื่อการควบคุมโรค","2023-07-15T00:00:00",20,15,20.7,30.1,30.9],
    [1644,"FF1721AC76217484","กองดิจิทัลเพื่อการควบคุมโรค","2023-07-15T00:00:00",21,15.8,26,29.4,34.1],
    [1645,"FF1721AC76217484","กองดิจิทัลเพื่อการควบคุมโรค","2023-07-15T00:00:00",22,16.3,26.8,28.9,34.8],
    [1646,"FF1721AC76217484","กองดิจิทัลเพื่อการควบคุมโรค","2023-07-15T00:00:00",23,14.6,23.4,28.6,33.4],
    [1647,"FF1721AC76217484","กองดิจิทัลเพื่อการควบคุมโรค","2023-07-16T00:00:00",0,15.6,23.1,28.3,33.6],
    [1648,"FF1721AC76217484","กองดิจิทัลเพื่อการควบคุมโรค","2023-07-16T00:00:00",1,15.5,22.3,27.9,34.4],
    [1649,"FF1721AC76217484","กองดิจิทัลเพื่อการควบคุมโรค","2023-07-16T00:00:00",2,12,20.3,27.6,34.8],
    [1650,"FF1721AC76217484","กองดิจิทัลเพื่อการควบคุมโรค","2023-07-16T00:00:00",3,11.6,17.7,27.1,35.7],
    [1651,"FF1721AC76217484","กองดิจิทัลเพื่อการควบคุมโรค","2023-07-16T00:00:00",4,11.5,17.6,26.7,36.4],
    [1652,"FF1721AC76217484","กองดิจิทัลเพื่อการควบคุมโรค","2023-07-16T00:00:00",5,12.4,18.7,26.4,36.9],
    [1653,"FF1721AC76217484","กองดิจิทัลเพื่อการควบคุมโรค","2023-07-16T00:00:00",6,11.9,17.8,26.3,37.2],
    [1654,"FF1721AC76217484","กองดิจิทัลเพื่อการควบคุมโรค","2023-07-16T00:00:00",7,12.5,19.6,26.7,36.8],
    [1655,"FF1721AC76217484","กองดิจิทัลเพื่อการควบคุมโรค","2023-07-16T00:00:00",8,12.6,21.2,27.5,35.2],
    [1656,"FF1721AC76217484","กองดิจิทัลเพื่อการควบคุมโรค","2023-07-16T00:00:00",9,12.5,20.2,27.8,34.5],
    [1657,"FF1721AC76217484","กองดิจิทัลเพื่อการควบคุมโรค","2023-07-16T00:00:00",10,14.6,22.8,28.4,33.6],
    [1658,"FF1721AC76217484","กองดิจิทัลเพื่อการควบคุมโรค","2023-07-16T00:00:00",11,17,25.6,29.4,31.5],
    [1659,"FF1721AC76217484","กองดิจิทัลเพื่อการควบคุมโรค","2023-07-16T00:00:00",12,16.8,24.4,30.6,31],
    [1660,"FF1721AC76217484","กองดิจิทัลเพื่อการควบคุมโรค","2023-07-16T00:00:00",13,18.3,25.9,31,31],
    [1661,"FF1721AC76217484","กองดิจิทัลเพื่อการควบคุมโรค","2023-07-16T00:00:00",14,16.9,23.5,31.5,29.6],
    [1662,"FF1721AC76217484","กองดิจิทัลเพื่อการควบคุมโรค","2023-07-16T00:00:00",15,17,24.5,31,31],
    [1663,"FF1721AC76217484","กองดิจิทัลเพื่อการควบคุมโรค","2023-07-16T00:00:00",16,13.4,19.8,31.2,29.9],
    [1664,"FF1721AC76217484","กองดิจิทัลเพื่อการควบคุมโรค","2023-07-16T00:00:00",17,12.7,15.4,31.1,29.8],
    [1665,"FF1721AC76217484","กองดิจิทัลเพื่อการควบคุมโรค","2023-07-16T00:00:00",18,15,19.9,30.6,30.8],
    [1666,"FF1721AC76217484","กองดิจิทัลเพื่อการควบคุมโรค","2023-07-16T00:00:00",19,8.7,12.3,30,31.1],
    [1667,"FF1721AC76217484","กองดิจิทัลเพื่อการควบคุมโรค","2023-07-16T00:00:00",20,8.3,11.7,29.3,32.3],
    [1668,"FF1721AC76217484","กองดิจิทัลเพื่อการควบคุมโรค","2023-07-16T00:00:00",21,1.8,3.3,28.6,32.3],
    [1669,"FF1721AC76217484","กองดิจิทัลเพื่อการควบคุมโรค","2023-07-16T00:00:00",22,2.5,3.4,28.1,33.8],
    [1670,"FF1721AC76217484","กองดิจิทัลเพื่อการควบคุมโรค","2023-07-16T00:00:00",23,4.2,5.1,27.7,34.5],
    [1671,"FF1721AC76217484","กองดิจิทัลเพื่อการควบคุมโรค","2023-07-17T00:00:00",0,2.8,4.1,27.4,34.5],
    [1672,"FF1721AC76217484","กองดิจิทัลเพื่อการควบคุมโรค","2023-07-17T00:00:00",1,2.3,2.8,27.1,35.2],
    [1673,"FF1721AC76217484","กองดิจิทัลเพื่อการควบคุมโรค","2023-07-17T00:00:00",2,1.5,1.8,26.5,35.7],
    [1674,"FF1721AC76217484","กองดิจิทัลเพื่อการควบคุมโรค","2023-07-17T00:00:00",3,1,1.4,26.2,36.1],
    [1675,"FF1721AC76217484","กองดิจิทัลเพื่อการควบคุมโรค","2023-07-17T00:00:00",4,1,1.3,26.2,36.2],
    [1676,"FF1721AC76217484","กองดิจิทัลเพื่อการควบคุมโรค","2023-07-17T00:00:00",5,1.6,1.1,26,36.6],
    [1677,"FF1721AC76217484","กองดิจิทัลเพื่อการควบคุมโรค","2023-07-17T00:00:00",6,1.5,2.3,26,36.4],
    [1678,"FF1721AC76217484","กองดิจิทัลเพื่อการควบคุมโรค","2023-07-17T00:00:00",7,2.6,2.6,26.6,35.8],
    [1679,"FF1721AC76217484","กองดิจิทัลเพื่อการควบคุมโรค","2023-07-17T00:00:00",8,3.2,4.6,27,35.3],
    [1680,"FF1721AC76217484","กองดิจิทัลเพื่อการควบคุมโรค","2023-07-17T00:00:00",9,4.5,6,27.7,34.3],
    [1681,"FF1721AC76217484","กองดิจิทัลเพื่อการควบคุมโรค","2023-07-17T00:00:00",10,4.1,6.3,29.1,32.4],
    [1682,"FF1721AC76217484","กองดิจิทัลเพื่อการควบคุมโรค","2023-07-17T00:00:00",11,5.7,9.6,29,32.2],
    [1683,"FF1721AC76217484","กองดิจิทัลเพื่อการควบคุมโรค","2023-07-17T00:00:00",12,5.6,8,30.1,30.9],
    [1684,"FF1721AC76217484","กองดิจิทัลเพื่อการควบคุมโรค","2023-07-17T00:00:00",13,5.7,8,31.7,28.9],
    [1685,"FF1721AC76217484","กองดิจิทัลเพื่อการควบคุมโรค","2023-07-17T00:00:00",14,3.6,4.5,32.1,28.3],
    [1686,"FF1721AC76217484","กองดิจิทัลเพื่อการควบคุมโรค","2023-07-17T00:00:00",15,3.4,4.3,31.9,27.9],
    [1687,"FF1721AC76217484","กองดิจิทัลเพื่อการควบคุมโรค","2023-07-17T00:00:00",16,3.4,4.3,31.5,28.7],
    [1688,"FF1721AC76217484","กองดิจิทัลเพื่อการควบคุมโรค","2023-07-17T00:00:00",17,2.9,3.7,30.8,29.7],
    [1689,"FF1721AC76217484","กองดิจิทัลเพื่อการควบคุมโรค","2023-07-17T00:00:00",18,4.7,6.8,29.7,31.3],
    [1690,"FF1721AC76217484","กองดิจิทัลเพื่อการควบคุมโรค","2023-07-17T00:00:00",19,6,8.1,29,31.6],
    [1691,"FF1721AC76217484","กองดิจิทัลเพื่อการควบคุมโรค","2023-07-17T00:00:00",20,5.8,9,28.3,32.8],
    [1692,"FF1721AC76217484","กองดิจิทัลเพื่อการควบคุมโรค","2023-07-17T00:00:00",21,5.2,6.9,28,33],
    [1693,"FF1721AC76217484","กองดิจิทัลเพื่อการควบคุมโรค","2023-07-17T00:00:00",22,1.4,1.6,27.5,31.6],
    [1694,"FF1721AC76217484","กองดิจิทัลเพื่อการควบคุมโรค","2023-07-17T00:00:00",23,2,3.1,27.4,32.6],
    [1695,"FF1721AC76217484","กองดิจิทัลเพื่อการควบคุมโรค","2023-07-18T00:00:00",0,1.7,1.8,27.1,33.8],
    [1696,"FF1721AC76217484","กองดิจิทัลเพื่อการควบคุมโรค","2023-07-18T00:00:00",1,1.5,2,26.7,34.3],
    [1697,"FF1721AC76217484","กองดิจิทัลเพื่อการควบคุมโรค","2023-07-18T00:00:00",2,2.1,3.1,26.4,35.3],
    [1698,"FF1721AC76217484","กองดิจิทัลเพื่อการควบคุมโรค","2023-07-18T00:00:00",3,6,7.6,26.1,35.9],
    [1699,"FF1721AC76217484","กองดิจิทัลเพื่อการควบคุมโรค","2023-07-18T00:00:00",4,8.7,10.9,26.1,35.9],
    [1700,"FF1721AC76217484","กองดิจิทัลเพื่อการควบคุมโรค","2023-07-18T00:00:00",5,5,6.4,26,35.9],
    [1701,"FF1721AC76217484","กองดิจิทัลเพื่อการควบคุมโรค","2023-07-18T00:00:00",6,4.9,7.5,26.1,35.6],
    [1702,"FF1721AC76217484","กองดิจิทัลเพื่อการควบคุมโรค","2023-07-18T00:00:00",7,5.6,8.6,26.5,35.3],
    [1703,"FF1721AC76217484","กองดิจิทัลเพื่อการควบคุมโรค","2023-07-18T00:00:00",8,6.5,10.1,27.6,34.1],
    [1704,"FF1721AC76217484","กองดิจิทัลเพื่อการควบคุมโรค","2023-07-18T00:00:00",9,6.2,10.5,28.8,32.3],
    [1705,"FF1721AC76217484","กองดิจิทัลเพื่อการควบคุมโรค","2023-07-18T00:00:00",10,6.6,10.7,30.1,30.3],
    [1706,"FF1721AC76217484","กองดิจิทัลเพื่อการควบคุมโรค","2023-07-18T00:00:00",11,9.8,13.5,30.2,30.4],
    [1707,"FF1721AC76217484","กองดิจิทัลเพื่อการควบคุมโรค","2023-07-18T00:00:00",12,9,12.8,30.3,30.6],
    [1708,"FF1721AC76217484","กองดิจิทัลเพื่อการควบคุมโรค","2023-07-18T00:00:00",13,2.6,3.6,29.6,31.2],
    [1709,"FF1721AC76217484","กองดิจิทัลเพื่อการควบคุมโรค","2023-07-18T00:00:00",14,2.8,3.7,29,32.3],
    [1710,"FF1721AC76217484","กองดิจิทัลเพื่อการควบคุมโรค","2023-07-18T00:00:00",15,4.7,9.1,30.1,30.3],
    [1711,"FF1721AC76217484","กองดิจิทัลเพื่อการควบคุมโรค","2023-07-18T00:00:00",16,5.7,9.1,29.6,30.4],
    [1712,"FF1721AC76217484","กองดิจิทัลเพื่อการควบคุมโรค","2023-07-18T00:00:00",17,5.6,8.2,29.2,31.3],
    [1713,"FF1721AC76217484","กองดิจิทัลเพื่อการควบคุมโรค","2023-07-18T00:00:00",18,5.6,7.9,28.7,32.2],
    [1714,"FF1721AC76217484","กองดิจิทัลเพื่อการควบคุมโรค","2023-07-18T00:00:00",19,5.9,8.4,28.3,32.5],
    [1715,"FF1721AC76217484","กองดิจิทัลเพื่อการควบคุมโรค","2023-07-18T00:00:00",20,8.2,11.2,27.9,33],
    [1716,"FF1721AC76217484","กองดิจิทัลเพื่อการควบคุมโรค","2023-07-18T00:00:00",21,10.4,13.6,27.4,33.9],
    [1717,"FF1721AC76217484","กองดิจิทัลเพื่อการควบคุมโรค","2023-07-18T00:00:00",22,5.9,8.9,27.1,34],
    [1718,"FF1721AC76217484","กองดิจิทัลเพื่อการควบคุมโรค","2023-07-18T00:00:00",23,9.8,12.5,27.3,34.3],
    [1719,"FF1721AC76217484","กองดิจิทัลเพื่อการควบคุมโรค","2023-07-19T00:00:00",0,11.6,17.7,27.1,34.6],
    [1720,"FF1721AC76217484","กองดิจิทัลเพื่อการควบคุมโรค","2023-07-19T00:00:00",1,12.8,18.2,26.9,35],
    [1721,"FF1721AC76217484","กองดิจิทัลเพื่อการควบคุมโรค","2023-07-19T00:00:00",2,12.4,16.6,26.8,35.4],
    [1722,"FF1721AC76217484","กองดิจิทัลเพื่อการควบคุมโรค","2023-07-19T00:00:00",3,14.3,21.4,27.1,35.2],
    [1723,"FF1721AC76217484","กองดิจิทัลเพื่อการควบคุมโรค","2023-07-19T00:00:00",4,19.1,27.3,26.6,35.4],
    [1724,"FF1721AC76217484","กองดิจิทัลเพื่อการควบคุมโรค","2023-07-19T00:00:00",5,13.4,20.8,26.6,35.8],
    [1725,"FF1721AC76217484","กองดิจิทัลเพื่อการควบคุมโรค","2023-07-19T00:00:00",6,5.8,7.3,26.4,35.8],
    [1726,"FF1721AC76217484","กองดิจิทัลเพื่อการควบคุมโรค","2023-07-19T00:00:00",7,1.5,2.3,26.1,35.9],
    [1727,"FF1721AC76217484","กองดิจิทัลเพื่อการควบคุมโรค","2023-07-19T00:00:00",8,4.1,5.1,26.8,35.1],
    [1728,"FF1721AC76217484","กองดิจิทัลเพื่อการควบคุมโรค","2023-07-19T00:00:00",9,3.3,5.7,27.3,34],
    [1729,"FF1721AC76217484","กองดิจิทัลเพื่อการควบคุมโรค","2023-07-19T00:00:00",10,4.3,7.9,28.4,32.5],
    [1730,"FF1721AC76217484","กองดิจิทัลเพื่อการควบคุมโรค","2023-07-19T00:00:00",11,7,8.2,30.3,29.8],
    [1731,"FF1721AC76217484","กองดิจิทัลเพื่อการควบคุมโรค","2023-07-19T00:00:00",12,5.5,7.7,31.2,28],
    [1732,"FF1721AC76217484","กองดิจิทัลเพื่อการควบคุมโรค","2023-07-19T00:00:00",13,7.7,10.7,31.9,27.7],
    [1733,"FF1721AC76217484","กองดิจิทัลเพื่อการควบคุมโรค","2023-07-19T00:00:00",14,8.7,13.2,31.9,27.8],
    [1734,"FF1721AC76217484","กองดิจิทัลเพื่อการควบคุมโรค","2023-07-19T00:00:00",15,12.7,18.3,31.1,29.1],
    [1735,"FF1721AC76217484","กองดิจิทัลเพื่อการควบคุมโรค","2023-07-19T00:00:00",16,9.1,12.8,30.7,29.7],
    [1736,"FF1721AC76217484","กองดิจิทัลเพื่อการควบคุมโรค","2023-07-19T00:00:00",17,7.9,11.3,30.1,30.5],
    [1737,"FF1721AC76217484","กองดิจิทัลเพื่อการควบคุมโรค","2023-07-19T00:00:00",18,11,16.2,29.4,31.5],
    [1738,"FF1721AC76217484","กองดิจิทัลเพื่อการควบคุมโรค","2023-07-19T00:00:00",19,10.9,15.9,28.9,31.5],
    [1739,"FF1721AC76217484","กองดิจิทัลเพื่อการควบคุมโรค","2023-07-19T00:00:00",20,8.1,10.1,28.6,31.3],
    [1740,"FF1721AC76217484","กองดิจิทัลเพื่อการควบคุมโรค","2023-07-19T00:00:00",21,12.2,17.5,28.4,31.6],
    [1741,"FF1721AC76217484","กองดิจิทัลเพื่อการควบคุมโรค","2023-07-19T00:00:00",22,13.7,19,28.2,32.4],
    [1742,"FF1721AC76217484","กองดิจิทัลเพื่อการควบคุมโรค","2023-07-19T00:00:00",23,11.8,16,28,33.1],
    [1743,"FF1721AC76217484","กองดิจิทัลเพื่อการควบคุมโรค","2023-07-20T00:00:00",0,12,18.3,27.7,33.6],
    [1744,"FF1721AC76217484","กองดิจิทัลเพื่อการควบคุมโรค","2023-07-20T00:00:00",1,10.3,14,27.4,33.4],
    [1745,"FF1721AC76217484","กองดิจิทัลเพื่อการควบคุมโรค","2023-07-20T00:00:00",2,9,16.5,27.4,32.9],
    [1746,"FF1721AC76217484","กองดิจิทัลเพื่อการควบคุมโรค","2023-07-20T00:00:00",3,12.2,17.7,27.5,33.1],
    [1747,"FF1721AC76217484","กองดิจิทัลเพื่อการควบคุมโรค","2023-07-20T00:00:00",4,10.9,18.6,26.9,33.7],
    [1748,"FF1721AC76217484","กองดิจิทัลเพื่อการควบคุมโรค","2023-07-20T00:00:00",5,10.7,17,26.8,34.2],
    [1749,"FF1721AC76217484","กองดิจิทัลเพื่อการควบคุมโรค","2023-07-20T00:00:00",6,10.4,15.1,26.4,36],
    [1750,"FF1721AC76217484","กองดิจิทัลเพื่อการควบคุมโรค","2023-07-20T00:00:00",7,10.4,16.7,26.5,36.7],
    [1751,"FF1721AC76217484","กองดิจิทัลเพื่อการควบคุมโรค","2023-07-20T00:00:00",8,14.4,19.1,26.4,37.4],
    [1752,"FF1721AC76217484","กองดิจิทัลเพื่อการควบคุมโรค","2023-07-20T00:00:00",9,10.7,15.1,28.8,34.1],
    [1753,"FF1721AC76217484","กองดิจิทัลเพื่อการควบคุมโรค","2023-07-20T00:00:00",10,9.9,15.2,30.5,31.1],
    [1754,"FF1721AC76217484","กองดิจิทัลเพื่อการควบคุมโรค","2023-07-20T00:00:00",11,13.4,20.8,30.6,31.2],
    [1755,"FF1721AC76217484","กองดิจิทัลเพื่อการควบคุมโรค","2023-07-20T00:00:00",12,14.7,21.3,31.6,29.5],
    [1756,"FF1721AC76217484","กองดิจิทัลเพื่อการควบคุมโรค","2023-07-20T00:00:00",13,12,16.7,32.7,28.4],
    [1757,"FF1721AC76217484","กองดิจิทัลเพื่อการควบคุมโรค","2023-07-20T00:00:00",14,10.6,16.1,32.8,28],
    [1758,"FF1721AC76217484","กองดิจิทัลเพื่อการควบคุมโรค","2023-07-20T00:00:00",15,15.2,21.5,29.1,35.1],
    [1759,"FF1721AC76217484","กองดิจิทัลเพื่อการควบคุมโรค","2023-07-20T00:00:00",16,12.5,17.1,23.6,45.1],
    [1760,"FF1721AC76217484","กองดิจิทัลเพื่อการควบคุมโรค","2023-07-20T00:00:00",17,17.6,25.9,25.1,43.9],
    [1761,"FF1721AC76217484","กองดิจิทัลเพื่อการควบคุมโรค","2023-07-20T00:00:00",18,18.5,29.1,25.7,42.5],
    [1762,"FF1721AC76217484","กองดิจิทัลเพื่อการควบคุมโรค","2023-07-20T00:00:00",19,16.4,26.5,25.4,42.8],
    [1763,"FF1721AC76217484","กองดิจิทัลเพื่อการควบคุมโรค","2023-07-20T00:00:00",20,12.2,18.2,25.5,42.3],
    [1764,"FF1721AC76217484","กองดิจิทัลเพื่อการควบคุมโรค","2023-07-20T00:00:00",21,6.9,10.8,25.8,41.5],
    [1765,"FF1721AC76217484","กองดิจิทัลเพื่อการควบคุมโรค","2023-07-20T00:00:00",22,6.7,9.4,26,41.3],
    [1766,"FF1721AC76217484","กองดิจิทัลเพื่อการควบคุมโรค","2023-07-20T00:00:00",23,10.1,14.9,26.3,39.6],
    [1767,"FF1721AC76217484","กองดิจิทัลเพื่อการควบคุมโรค","2023-07-21T00:00:00",0,13.5,21.1,26.2,39.6],
    [1768,"FF1721AC76217484","กองดิจิทัลเพื่อการควบคุมโรค","2023-07-21T00:00:00",1,15,18.5,26.2,39.3],
    [1769,"FF1721AC76217484","กองดิจิทัลเพื่อการควบคุมโรค","2023-07-21T00:00:00",2,14.6,21,26.2,39.1],
    [1770,"FF1721AC76217484","กองดิจิทัลเพื่อการควบคุมโรค","2023-07-21T00:00:00",3,13.8,20.4,25.3,41.2],
    [1771,"FF1721AC76217484","กองดิจิทัลเพื่อการควบคุมโรค","2023-07-21T00:00:00",4,13.6,21.5,25.6,39.9],
    [1772,"FF1721AC76217484","กองดิจิทัลเพื่อการควบคุมโรค","2023-07-21T00:00:00",5,14.8,21.2,25.8,39.2],
    [1773,"FF1721AC76217484","กองดิจิทัลเพื่อการควบคุมโรค","2023-07-21T00:00:00",6,16.8,23.2,26,38.9],
    [1774,"FF1721AC76217484","กองดิจิทัลเพื่อการควบคุมโรค","2023-07-21T00:00:00",7,16.9,23.3,26.8,37.8],
    [1775,"FF1721AC76217484","กองดิจิทัลเพื่อการควบคุมโรค","2023-07-21T00:00:00",8,13.7,20.8,27.3,36.6],
    [1776,"FF1721AC76217484","กองดิจิทัลเพื่อการควบคุมโรค","2023-07-21T00:00:00",9,12.6,20.2,28.4,35],
    [1777,"FF1721AC76217484","กองดิจิทัลเพื่อการควบคุมโรค","2023-07-21T00:00:00",10,10.6,15.7,29.1,33.4],
    [1778,"FF1721AC76217484","กองดิจิทัลเพื่อการควบคุมโรค","2023-07-21T00:00:00",11,9.5,14.4,29.8,32.4],
    [1779,"FF1721AC76217484","กองดิจิทัลเพื่อการควบคุมโรค","2023-07-21T00:00:00",12,10.8,15.4,31,31.4],
    [1780,"FF1721AC76217484","กองดิจิทัลเพื่อการควบคุมโรค","2023-07-21T00:00:00",13,10.3,16.3,31.2,30.8],
    [1781,"FF1721AC76217484","กองดิจิทัลเพื่อการควบคุมโรค","2023-07-21T00:00:00",14,10.6,14.5,32,29.2],
    [1782,"FF1721AC76217484","กองดิจิทัลเพื่อการควบคุมโรค","2023-07-21T00:00:00",15,12.1,19.3,32.1,29.5],
    [1783,"FF1721AC76217484","กองดิจิทัลเพื่อการควบคุมโรค","2023-07-21T00:00:00",16,15,18.6,31.3,30.9],
    [1784,"FF1721AC76217484","กองดิจิทัลเพื่อการควบคุมโรค","2023-07-21T00:00:00",17,16.4,23.6,31.2,32],
    [1785,"FF1721AC76217484","กองดิจิทัลเพื่อการควบคุมโรค","2023-07-21T00:00:00",18,13.1,21.5,29.5,34.4],
    [1786,"FF1721AC76217484","กองดิจิทัลเพื่อการควบคุมโรค","2023-07-21T00:00:00",19,10.3,15.2,28.4,36],
    [1787,"FF1721AC76217484","กองดิจิทัลเพื่อการควบคุมโรค","2023-07-21T00:00:00",20,8.7,14.9,28.1,37.1],
    [1788,"FF1721AC76217484","กองดิจิทัลเพื่อการควบคุมโรค","2023-07-21T00:00:00",21,9.2,13.2,28,37.9],
    [1789,"FF1721AC76217484","กองดิจิทัลเพื่อการควบคุมโรค","2023-07-21T00:00:00",22,9.1,13.6,26.9,41.8],
    [1790,"FF1721AC76217484","กองดิจิทัลเพื่อการควบคุมโรค","2023-07-21T00:00:00",23,9.2,14.3,25.5,46.3],
    [1791,"FF1721AC76217484","กองดิจิทัลเพื่อการควบคุมโรค","2023-07-22T00:00:00",0,7.5,11.6,25.1,46.6],
    [1792,"FF1721AC76217484","กองดิจิทัลเพื่อการควบคุมโรค","2023-07-22T00:00:00",1,2.1,3.3,22.3,48.2],
    [1793,"FF1721AC76217484","กองดิจิทัลเพื่อการควบคุมโรค","2023-07-22T00:00:00",2,4.5,7,23,48.5],
    [1794,"FF1721AC76217484","กองดิจิทัลเพื่อการควบคุมโรค","2023-07-22T00:00:00",3,7.5,12.1,23.3,47.6],
    [1795,"FF1721AC76217484","กองดิจิทัลเพื่อการควบคุมโรค","2023-07-22T00:00:00",4,8.7,11.5,23.3,47.1],
    [1796,"FF1721AC76217484","กองดิจิทัลเพื่อการควบคุมโรค","2023-07-22T00:00:00",5,9.2,13.7,23,47.7],
    [1797,"FF1721AC76217484","กองดิจิทัลเพื่อการควบคุมโรค","2023-07-22T00:00:00",6,8.4,13,23.4,46.9],
    [1798,"FF1721AC76217484","กองดิจิทัลเพื่อการควบคุมโรค","2023-07-22T00:00:00",7,9.6,12.9,24.2,44.8],
    [1799,"FF1721AC76217484","กองดิจิทัลเพื่อการควบคุมโรค","2023-07-22T00:00:00",8,8.2,11,25.3,42.8],
    [1800,"FF1721AC76217484","กองดิจิทัลเพื่อการควบคุมโรค","2023-07-22T00:00:00",9,8,12.2,26.9,39.8],
    [1801,"FF1721AC76217484","กองดิจิทัลเพื่อการควบคุมโรค","2023-07-22T00:00:00",10,5.9,8,29.1,35.4],
    [1802,"FF1721AC76217484","กองดิจิทัลเพื่อการควบคุมโรค","2023-07-22T00:00:00",11,7.6,10,30,34.2],
    [1803,"FF1721AC76217484","กองดิจิทัลเพื่อการควบคุมโรค","2023-07-22T00:00:00",12,9.8,14.5,30.3,34],
    [1804,"FF1721AC76217484","กองดิจิทัลเพื่อการควบคุมโรค","2023-07-22T00:00:00",13,11.7,15.9,32.1,32.1],
    [1805,"FF1721AC76217484","กองดิจิทัลเพื่อการควบคุมโรค","2023-07-22T00:00:00",14,17.6,23.7,30.4,34.9],
    [1806,"FF1721AC76217484","กองดิจิทัลเพื่อการควบคุมโรค","2023-07-22T00:00:00",15,22.9,32,29.6,36.6],
    [1807,"FF1721AC76217484","กองดิจิทัลเพื่อการควบคุมโรค","2023-07-22T00:00:00",16,21.5,30.5,28.4,38],
    [1808,"FF1721AC76217484","กองดิจิทัลเพื่อการควบคุมโรค","2023-07-22T00:00:00",17,16.5,21.2,26.8,40.9],
    [1809,"FF1721AC76217484","กองดิจิทัลเพื่อการควบคุมโรค","2023-07-22T00:00:00",18,27.6,39,25.7,45],
    [1810,"FF1721AC76217484","กองดิจิทัลเพื่อการควบคุมโรค","2023-07-22T00:00:00",19,40.9,64.2,26.2,44.6],
    [1811,"FF1721AC76217484","กองดิจิทัลเพื่อการควบคุมโรค","2023-07-22T00:00:00",20,40,62.2,26.2,44.9],
    [1812,"FF1721AC76217484","กองดิจิทัลเพื่อการควบคุมโรค","2023-07-22T00:00:00",21,28.6,41.2,25.9,45],
    [1813,"FF1721AC76217484","กองดิจิทัลเพื่อการควบคุมโรค","2023-07-22T00:00:00",22,15.8,22.8,26.2,43.5],
    [1814,"FF1721AC76217484","กองดิจิทัลเพื่อการควบคุมโรค","2023-07-22T00:00:00",23,10.8,16.2,26.3,43.6],
    [1815,"FF1721AC76217484","กองดิจิทัลเพื่อการควบคุมโรค","2023-07-23T00:00:00",0,12.5,19.4,26.1,44.5],
    [1816,"FF1721AC76217484","กองดิจิทัลเพื่อการควบคุมโรค","2023-07-23T00:00:00",1,12.2,16.9,26.1,44.2],
    [1817,"FF1721AC76217484","กองดิจิทัลเพื่อการควบคุมโรค","2023-07-23T00:00:00",2,14.2,21.9,26.3,43.7],
    [1818,"FF1721AC76217484","กองดิจิทัลเพื่อการควบคุมโรค","2023-07-23T00:00:00",3,21.6,32.7,26,44.2],
    [1819,"FF1721AC76217484","กองดิจิทัลเพื่อการควบคุมโรค","2023-07-23T00:00:00",4,32,53.6,25.8,44.6],
    [1820,"FF1721AC76217484","กองดิจิทัลเพื่อการควบคุมโรค","2023-07-23T00:00:00",5,11.4,16.1,24.4,43.8],
    [1821,"FF1721AC76217484","กองดิจิทัลเพื่อการควบคุมโรค","2023-07-23T00:00:00",6,3.2,4.7,23.7,43.8],
    [1822,"FF1721AC76217484","กองดิจิทัลเพื่อการควบคุมโรค","2023-07-23T00:00:00",7,4.2,5.7,25,41.3],
    [1823,"FF1721AC76217484","กองดิจิทัลเพื่อการควบคุมโรค","2023-07-23T00:00:00",8,5.1,6.9,26.2,39.5],
    [1824,"FF1721AC76217484","กองดิจิทัลเพื่อการควบคุมโรค","2023-07-23T00:00:00",9,4.8,5.9,27.5,38.4],
    [1825,"FF1721AC76217484","กองดิจิทัลเพื่อการควบคุมโรค","2023-07-23T00:00:00",10,5.9,8.7,28.4,37.3],
    [1826,"FF1721AC76217484","กองดิจิทัลเพื่อการควบคุมโรค","2023-07-23T00:00:00",11,3.6,4.1,30,34.7],
    [1827,"FF1721AC76217484","กองดิจิทัลเพื่อการควบคุมโรค","2023-07-23T00:00:00",12,2.6,3.4,30.6,33.5],
    [1828,"FF1721AC76217484","กองดิจิทัลเพื่อการควบคุมโรค","2023-07-23T00:00:00",13,3.1,4.5,31.4,32.4],
    [1829,"FF1721AC76217484","กองดิจิทัลเพื่อการควบคุมโรค","2023-07-23T00:00:00",14,4.9,7.4,31.5,31.6],
    [1830,"FF1721AC76217484","กองดิจิทัลเพื่อการควบคุมโรค","2023-07-23T00:00:00",15,5.7,7.6,31.4,32.3],
    [1831,"FF1721AC76217484","กองดิจิทัลเพื่อการควบคุมโรค","2023-07-23T00:00:00",16,6.4,8.4,30.1,34.1],
    [1832,"FF1721AC76217484","กองดิจิทัลเพื่อการควบคุมโรค","2023-07-23T00:00:00",17,5.8,8.5,25.8,41.5],
    [1833,"FF1721AC76217484","กองดิจิทัลเพื่อการควบคุมโรค","2023-07-23T00:00:00",18,7,9.2,24.6,43],
    [1834,"FF1721AC76217484","กองดิจิทัลเพื่อการควบคุมโรค","2023-07-23T00:00:00",19,6.2,7.5,23.2,46.6],
    [1835,"FF1721AC76217484","กองดิจิทัลเพื่อการควบคุมโรค","2023-07-23T00:00:00",20,7.9,10.2,23.5,46.5],
    [1836,"FF1721AC76217484","กองดิจิทัลเพื่อการควบคุมโรค","2023-07-23T00:00:00",21,9.3,12.9,24.1,45.5],
    [1837,"FF1721AC76217484","กองดิจิทัลเพื่อการควบคุมโรค","2023-07-23T00:00:00",22,8.4,10,24.7,44.8],
    [1838,"FF1721AC76217484","กองดิจิทัลเพื่อการควบคุมโรค","2023-07-23T00:00:00",23,8.4,11.5,24.6,44.7],
    [1839,"FF1721AC76217484","กองดิจิทัลเพื่อการควบคุมโรค","2023-07-24T00:00:00",0,10.7,13.2,24.6,44.6],
    [1840,"FF1721AC76217484","กองดิจิทัลเพื่อการควบคุมโรค","2023-07-24T00:00:00",1,13,16.5,24.7,44.4],
    [1841,"FF1721AC76217484","กองดิจิทัลเพื่อการควบคุมโรค","2023-07-24T00:00:00",2,9.3,11.1,24.4,44.6],
    [1842,"FF1721AC76217484","กองดิจิทัลเพื่อการควบคุมโรค","2023-07-24T00:00:00",3,14.4,18.2,23.8,44.9],
    [1843,"FF1721AC76217484","กองดิจิทัลเพื่อการควบคุมโรค","2023-07-24T00:00:00",4,17.5,22.6,23.9,45.2],
    [1844,"FF1721AC76217484","กองดิจิทัลเพื่อการควบคุมโรค","2023-07-24T00:00:00",5,19.2,27.9,24,45.1],
    [1845,"FF1721AC76217484","กองดิจิทัลเพื่อการควบคุมโรค","2023-07-24T00:00:00",6,23.6,33.6,23.7,46],
    [1846,"FF1721AC76217484","กองดิจิทัลเพื่อการควบคุมโรค","2023-07-24T00:00:00",7,25.2,38.7,24.6,44.5],
    [1847,"FF1721AC76217484","กองดิจิทัลเพื่อการควบคุมโรค","2023-07-24T00:00:00",8,11.7,17.9,25.7,41.2],
    [1848,"FF1721AC76217484","กองดิจิทัลเพื่อการควบคุมโรค","2023-07-24T00:00:00",9,6.1,8.4,26.4,38.4],
    [1849,"FF1721AC76217484","กองดิจิทัลเพื่อการควบคุมโรค","2023-07-24T00:00:00",10,4.6,6.4,28.6,34.1],
    [1850,"FF1721AC76217484","กองดิจิทัลเพื่อการควบคุมโรค","2023-07-24T00:00:00",11,4.3,7.2,29.7,31.7],
    [1851,"FF1721AC76217484","กองดิจิทัลเพื่อการควบคุมโรค","2023-07-24T00:00:00",12,5.8,7.9,30.5,31],
    [1852,"FF1721AC76217484","กองดิจิทัลเพื่อการควบคุมโรค","2023-07-24T00:00:00",13,4.6,7.4,31.3,29.3],
    [1853,"FF1721AC76217484","กองดิจิทัลเพื่อการควบคุมโรค","2023-07-24T00:00:00",14,5.7,8.6,32,28.6],
    [1854,"FF1721AC76217484","กองดิจิทัลเพื่อการควบคุมโรค","2023-07-24T00:00:00",15,7.2,11.2,31.2,30.7],
    [1855,"FF1721AC76217484","กองดิจิทัลเพื่อการควบคุมโรค","2023-07-24T00:00:00",16,6.5,9.4,31.4,30.5],
    [1856,"FF1721AC76217484","กองดิจิทัลเพื่อการควบคุมโรค","2023-07-24T00:00:00",17,6,7.8,30.8,31.5],
    [1857,"FF1721AC76217484","กองดิจิทัลเพื่อการควบคุมโรค","2023-07-24T00:00:00",18,6.8,8.9,29.6,33.3],
    [1858,"FF1721AC76217484","กองดิจิทัลเพื่อการควบคุมโรค","2023-07-24T00:00:00",19,8,12.5,28.7,34.9],
    [1859,"FF1721AC76217484","กองดิจิทัลเพื่อการควบคุมโรค","2023-07-24T00:00:00",20,6.7,10.7,28.1,36.2],
    [1860,"FF1721AC76217484","กองดิจิทัลเพื่อการควบคุมโรค","2023-07-24T00:00:00",21,6.4,10,27.9,37.4],
    [1861,"FF1721AC76217484","กองดิจิทัลเพื่อการควบคุมโรค","2023-07-24T00:00:00",22,4.8,7.7,27.7,38.1],
    [1862,"FF1721AC76217484","กองดิจิทัลเพื่อการควบคุมโรค","2023-07-24T00:00:00",23,7.4,9.8,27.3,38.5],
    [1863,"FF1721AC76217484","กองดิจิทัลเพื่อการควบคุมโรค","2023-07-25T00:00:00",0,7.6,11,27.1,37.1],
    [1864,"FF1721AC76217484","กองดิจิทัลเพื่อการควบคุมโรค","2023-07-25T00:00:00",1,7.7,10.7,26.9,36.8],
    [1865,"FF1721AC76217484","กองดิจิทัลเพื่อการควบคุมโรค","2023-07-25T00:00:00",2,7.6,12,26.7,36.8],
    [1866,"FF1721AC76217484","กองดิจิทัลเพื่อการควบคุมโรค","2023-07-25T00:00:00",3,8.9,13.1,25.8,39.1],
    [1867,"FF1721AC76217484","กองดิจิทัลเพื่อการควบคุมโรค","2023-07-25T00:00:00",4,9.5,13.7,25.8,39.3],
    [1868,"FF1721AC76217484","กองดิจิทัลเพื่อการควบคุมโรค","2023-07-25T00:00:00",5,9.7,15.3,26,38.1],
    [1869,"FF1721AC76217484","กองดิจิทัลเพื่อการควบคุมโรค","2023-07-25T00:00:00",6,13.9,21.2,25.9,38.1],
    [1870,"FF1721AC76217484","กองดิจิทัลเพื่อการควบคุมโรค","2023-07-25T00:00:00",7,15.3,21.9,26.9,37.1],
    [1871,"FF1721AC76217484","กองดิจิทัลเพื่อการควบคุมโรค","2023-07-25T00:00:00",8,8.8,15,27.9,35.4],
    [1872,"FF1721AC76217484","กองดิจิทัลเพื่อการควบคุมโรค","2023-07-25T00:00:00",9,5.3,8.4,28.3,34.3],
    [1873,"FF1721AC76217484","กองดิจิทัลเพื่อการควบคุมโรค","2023-07-25T00:00:00",10,4.2,5.7,29.7,32.7],
    [1874,"FF1721AC76217484","กองดิจิทัลเพื่อการควบคุมโรค","2023-07-25T00:00:00",11,4.2,5.4,30.4,31.7],
    [1875,"FF1721AC76217484","กองดิจิทัลเพื่อการควบคุมโรค","2023-07-25T00:00:00",12,3.2,5.1,31.3,30.4],
    [1876,"FF1721AC76217484","กองดิจิทัลเพื่อการควบคุมโรค","2023-07-25T00:00:00",13,2.4,2.6,31.8,29.3],
    [1877,"FF1721AC76217484","กองดิจิทัลเพื่อการควบคุมโรค","2023-07-25T00:00:00",14,2.7,3.3,32.7,28.3],
    [1878,"FF1721AC76217484","กองดิจิทัลเพื่อการควบคุมโรค","2023-07-25T00:00:00",15,2.7,4.3,32,28.5],
    [1879,"FF1721AC76217484","กองดิจิทัลเพื่อการควบคุมโรค","2023-07-25T00:00:00",16,5.9,7.8,32,28.8],
    [1880,"FF1721AC76217484","กองดิจิทัลเพื่อการควบคุมโรค","2023-07-25T00:00:00",17,4.7,6.3,31.2,30.4],
    [1881,"FF1721AC76217484","กองดิจิทัลเพื่อการควบคุมโรค","2023-07-25T00:00:00",18,4.9,7.3,30.8,30.4],
    [1882,"FF1721AC76217484","กองดิจิทัลเพื่อการควบคุมโรค","2023-07-25T00:00:00",19,7.4,10.7,30.2,32.2],
    [1883,"FF1721AC76217484","กองดิจิทัลเพื่อการควบคุมโรค","2023-07-25T00:00:00",20,7.3,10.8,29.4,35.6],
    [1884,"FF1721AC76217484","กองดิจิทัลเพื่อการควบคุมโรค","2023-07-25T00:00:00",21,11.9,18.3,28.9,33.4],
    [1885,"FF1721AC76217484","กองดิจิทัลเพื่อการควบคุมโรค","2023-07-25T00:00:00",22,12,19.1,28.4,33.6],
    [1886,"FF1721AC76217484","กองดิจิทัลเพื่อการควบคุมโรค","2023-07-25T00:00:00",23,8.7,14.5,28.1,34.1],
    [1887,"FF1721AC76217484","กองดิจิทัลเพื่อการควบคุมโรค","2023-07-26T00:00:00",0,4.9,9.7,27.6,34.8],
    [1888,"FF1721AC76217484","กองดิจิทัลเพื่อการควบคุมโรค","2023-07-26T00:00:00",1,4,7.8,27,35.5],
    [1889,"FF1721AC76217484","กองดิจิทัลเพื่อการควบคุมโรค","2023-07-26T00:00:00",2,4.8,10,26.7,36.1],
    [1890,"FF1721AC76217484","กองดิจิทัลเพื่อการควบคุมโรค","2023-07-26T00:00:00",3,5,7,26.4,36.3],
    [1891,"FF1721AC76217484","กองดิจิทัลเพื่อการควบคุมโรค","2023-07-26T00:00:00",4,6.1,8.4,26.4,36.6],
    [1892,"FF1721AC76217484","กองดิจิทัลเพื่อการควบคุมโรค","2023-07-26T00:00:00",5,6.2,9.7,26.3,36.4],
    [1893,"FF1721AC76217484","กองดิจิทัลเพื่อการควบคุมโรค","2023-07-26T00:00:00",6,7.8,12.4,26.2,36.8],
    [1894,"FF1721AC76217484","กองดิจิทัลเพื่อการควบคุมโรค","2023-07-26T00:00:00",7,9.5,17.6,26.5,36.4],
    [1895,"FF1721AC76217484","กองดิจิทัลเพื่อการควบคุมโรค","2023-07-26T00:00:00",8,6.8,12.1,27.4,35.4],
    [1896,"FF1721AC76217484","กองดิจิทัลเพื่อการควบคุมโรค","2023-07-26T00:00:00",9,6.2,9.9,29,33.2],
    [1897,"FF1721AC76217484","กองดิจิทัลเพื่อการควบคุมโรค","2023-07-26T00:00:00",10,4.6,7.4,30,31.9],
    [1898,"FF1721AC76217484","กองดิจิทัลเพื่อการควบคุมโรค","2023-07-26T00:00:00",11,7.2,10.5,30.3,32.3],
    [1899,"FF1721AC76217484","กองดิจิทัลเพื่อการควบคุมโรค","2023-07-26T00:00:00",12,8.6,13.3,30.5,31.9],
    [1900,"FF1721AC76217484","กองดิจิทัลเพื่อการควบคุมโรค","2023-07-26T00:00:00",13,7.9,11.3,31.7,30.2],
    [1901,"FF1721AC76217484","กองดิจิทัลเพื่อการควบคุมโรค","2023-07-26T00:00:00",14,5.8,7.6,32.5,29],
    [1902,"FF1721AC76217484","กองดิจิทัลเพื่อการควบคุมโรค","2023-07-26T00:00:00",15,3.5,4.8,32.4,28.8],
    [1903,"FF1721AC76217484","กองดิจิทัลเพื่อการควบคุมโรค","2023-07-26T00:00:00",16,3.1,4.4,32.3,28.7],
    [1904,"FF1721AC76217484","กองดิจิทัลเพื่อการควบคุมโรค","2023-07-26T00:00:00",17,3.3,4.9,31.7,29],
    [1905,"FF1721AC76217484","กองดิจิทัลเพื่อการควบคุมโรค","2023-07-26T00:00:00",18,4.6,7,31.1,30.3],
    [1906,"FF1721AC76217484","กองดิจิทัลเพื่อการควบคุมโรค","2023-07-26T00:00:00",19,6.3,9.6,30.6,30.5],
    [1907,"FF1721AC76217484","กองดิจิทัลเพื่อการควบคุมโรค","2023-07-26T00:00:00",20,3.5,5.1,29.4,31.6],
    [1908,"FF1721AC76217484","กองดิจิทัลเพื่อการควบคุมโรค","2023-07-26T00:00:00",21,3,4.4,28.8,32.4],
    [1909,"FF1721AC76217484","กองดิจิทัลเพื่อการควบคุมโรค","2023-07-26T00:00:00",22,2.3,3.3,28.5,33.3],
    [1910,"FF1721AC76217484","กองดิจิทัลเพื่อการควบคุมโรค","2023-07-26T00:00:00",23,3.1,4.4,27.9,34],
    [1911,"FF1721AC76217484","กองดิจิทัลเพื่อการควบคุมโรค","2023-07-27T00:00:00",0,3.6,6.2,27.6,34.5],
    [1912,"FF1721AC76217484","กองดิจิทัลเพื่อการควบคุมโรค","2023-07-27T00:00:00",1,3.9,7.4,27.3,34.7],
    [1913,"FF1721AC76217484","กองดิจิทัลเพื่อการควบคุมโรค","2023-07-27T00:00:00",2,4.6,6.8,26.9,35],
    [1914,"FF1721AC76217484","กองดิจิทัลเพื่อการควบคุมโรค","2023-07-27T00:00:00",3,5.9,9.2,26.8,35.3],
    [1915,"FF1721AC76217484","กองดิจิทัลเพื่อการควบคุมโรค","2023-07-27T00:00:00",4,5.4,8.2,26.5,36.1],
    [1916,"FF1721AC76217484","กองดิจิทัลเพื่อการควบคุมโรค","2023-07-27T00:00:00",5,4.6,7,26.4,35.5],
    [1917,"FF1721AC76217484","กองดิจิทัลเพื่อการควบคุมโรค","2023-07-27T00:00:00",6,5.5,8.9,26.8,34.4],
    [1918,"FF1721AC76217484","กองดิจิทัลเพื่อการควบคุมโรค","2023-07-27T00:00:00",7,6.6,9.5,27.4,34],
    [1919,"FF1721AC76217484","กองดิจิทัลเพื่อการควบคุมโรค","2023-07-27T00:00:00",8,6.5,8.5,28.5,33.1],
    [1920,"FF1721AC76217484","กองดิจิทัลเพื่อการควบคุมโรค","2023-07-27T00:00:00",9,6.7,9.8,29.4,32],
    [1921,"FF1721AC76217484","กองดิจิทัลเพื่อการควบคุมโรค","2023-07-27T00:00:00",10,6,9.3,31.1,30.1],
    [1922,"FF1721AC76217484","กองดิจิทัลเพื่อการควบคุมโรค","2023-07-27T00:00:00",11,4.2,6.7,31.9,28.5],
    [1923,"FF1721AC76217484","กองดิจิทัลเพื่อการควบคุมโรค","2023-07-27T00:00:00",12,3.4,5.5,31.9,28.2],
    [1924,"FF1721AC76217484","กองดิจิทัลเพื่อการควบคุมโรค","2023-07-27T00:00:00",13,4.1,7.7,31.9,28.4],
    [1925,"FF1721AC76217484","กองดิจิทัลเพื่อการควบคุมโรค","2023-07-27T00:00:00",14,4.5,7.1,33,27.6],
    [1926,"FF1721AC76217484","กองดิจิทัลเพื่อการควบคุมโรค","2023-07-27T00:00:00",15,4,5.6,32.6,28],
    [1927,"FF1721AC76217484","กองดิจิทัลเพื่อการควบคุมโรค","2023-07-27T00:00:00",16,4.7,6.6,31.8,28.3],
    [1928,"FF1721AC76217484","กองดิจิทัลเพื่อการควบคุมโรค","2023-07-27T00:00:00",17,4.9,6.6,31.7,28],
    [1929,"FF1721AC76217484","กองดิจิทัลเพื่อการควบคุมโรค","2023-07-27T00:00:00",18,5.2,8.3,30.6,29],
    [1930,"FF1721AC76217484","กองดิจิทัลเพื่อการควบคุมโรค","2023-07-27T00:00:00",19,6.4,10,29.7,30.4],
    [1931,"FF1721AC76217484","กองดิจิทัลเพื่อการควบคุมโรค","2023-07-27T00:00:00",20,7,12,29.3,31.6],
    [1932,"FF1721AC76217484","กองดิจิทัลเพื่อการควบคุมโรค","2023-07-27T00:00:00",21,12,17.2,29.1,32.5],
    [1933,"FF1721AC76217484","กองดิจิทัลเพื่อการควบคุมโรค","2023-07-27T00:00:00",22,4.7,8.3,28.4,33.6],
    [1934,"FF1721AC76217484","กองดิจิทัลเพื่อการควบคุมโรค","2023-07-27T00:00:00",23,2.2,3.3,27.7,34.4],
    [1935,"FF1721AC76217484","กองดิจิทัลเพื่อการควบคุมโรค","2023-07-28T00:00:00",0,2.7,4.6,27,35.3],
    [1936,"FF1721AC76217484","กองดิจิทัลเพื่อการควบคุมโรค","2023-07-28T00:00:00",1,2.6,4.5,27,35.2],
    [1937,"FF1721AC76217484","กองดิจิทัลเพื่อการควบคุมโรค","2023-07-28T00:00:00",2,2.3,3,26.7,35.7],
    [1938,"FF1721AC76217484","กองดิจิทัลเพื่อการควบคุมโรค","2023-07-28T00:00:00",3,2.5,4.4,26.5,36],
    [1939,"FF1721AC76217484","กองดิจิทัลเพื่อการควบคุมโรค","2023-07-28T00:00:00",4,3.7,5,26.3,36.5],
    [1940,"FF1721AC76217484","กองดิจิทัลเพื่อการควบคุมโรค","2023-07-28T00:00:00",5,5,8.3,26.2,36.8],
    [1941,"FF1721AC76217484","กองดิจิทัลเพื่อการควบคุมโรค","2023-07-28T00:00:00",6,7,9.3,26.4,36.9],
    [1942,"FF1721AC76217484","กองดิจิทัลเพื่อการควบคุมโรค","2023-07-28T00:00:00",7,7,11.6,26.9,36.6],
    [1943,"FF1721AC76217484","กองดิจิทัลเพื่อการควบคุมโรค","2023-07-28T00:00:00",8,7.9,12.3,27.8,35.4],
    [1944,"FF1721AC76217484","กองดิจิทัลเพื่อการควบคุมโรค","2023-07-28T00:00:00",9,6.9,9.6,29.2,33.9],
    [1945,"FF1721AC76217484","กองดิจิทัลเพื่อการควบคุมโรค","2023-07-28T00:00:00",10,4.5,6.8,30.3,31.7],
    [1946,"FF1721AC76217484","กองดิจิทัลเพื่อการควบคุมโรค","2023-07-28T00:00:00",11,2.8,3.8,30.7,30.7],
    [1947,"FF1721AC76217484","กองดิจิทัลเพื่อการควบคุมโรค","2023-07-28T00:00:00",12,2.7,3.5,30.6,30.9],
    [1948,"FF1721AC76217484","กองดิจิทัลเพื่อการควบคุมโรค","2023-07-28T00:00:00",13,3.6,5.4,31.3,29.9],
    [1949,"FF1721AC76217484","กองดิจิทัลเพื่อการควบคุมโรค","2023-07-28T00:00:00",14,4.3,5.8,31.6,30.2],
    [1950,"FF1721AC76217484","กองดิจิทัลเพื่อการควบคุมโรค","2023-07-28T00:00:00",15,6,9.4,31.2,30.1],
    [1951,"FF1721AC76217484","กองดิจิทัลเพื่อการควบคุมโรค","2023-07-28T00:00:00",16,6.4,9.5,30.6,29.2],
    [1952,"FF1721AC76217484","กองดิจิทัลเพื่อการควบคุมโรค","2023-07-28T00:00:00",17,5.4,7.6,29.8,30],
    [1953,"FF1721AC76217484","กองดิจิทัลเพื่อการควบคุมโรค","2023-07-28T00:00:00",18,4.2,6.4,29.2,30.8],
    [1954,"FF1721AC76217484","กองดิจิทัลเพื่อการควบคุมโรค","2023-07-28T00:00:00",19,6.6,8.7,28.5,32.3],
    [1955,"FF1721AC76217484","กองดิจิทัลเพื่อการควบคุมโรค","2023-07-28T00:00:00",20,9.1,14.1,28.4,32.7],
    [1956,"FF1721AC76217484","กองดิจิทัลเพื่อการควบคุมโรค","2023-07-28T00:00:00",21,10.9,17,28.1,32.9],
    [1957,"FF1721AC76217484","กองดิจิทัลเพื่อการควบคุมโรค","2023-07-28T00:00:00",22,10.6,16.1,28,33.3],
    [1958,"FF1721AC76217484","กองดิจิทัลเพื่อการควบคุมโรค","2023-07-28T00:00:00",23,14.3,21.2,27.7,34.1],
    [1959,"FF1721AC76217484","กองดิจิทัลเพื่อการควบคุมโรค","2023-07-29T00:00:00",0,13.5,18.5,27.4,34.8],
    [1960,"FF1721AC76217484","กองดิจิทัลเพื่อการควบคุมโรค","2023-07-29T00:00:00",1,11,17.1,27.3,35.1],
    [1961,"FF1721AC76217484","กองดิจิทัลเพื่อการควบคุมโรค","2023-07-29T00:00:00",2,14,22.8,27.2,35.2],
    [1962,"FF1721AC76217484","กองดิจิทัลเพื่อการควบคุมโรค","2023-07-29T00:00:00",3,13.4,20.1,27.1,35.7],
    [1963,"FF1721AC76217484","กองดิจิทัลเพื่อการควบคุมโรค","2023-07-29T00:00:00",4,12.1,18.3,27,35.9],
    [1964,"FF1721AC76217484","กองดิจิทัลเพื่อการควบคุมโรค","2023-07-29T00:00:00",5,11.4,18.5,26.9,36],
    [1965,"FF1721AC76217484","กองดิจิทัลเพื่อการควบคุมโรค","2023-07-29T00:00:00",6,13.8,19.4,26.9,36.4],
    [1966,"FF1721AC76217484","กองดิจิทัลเพื่อการควบคุมโรค","2023-07-29T00:00:00",7,12.5,18.9,27.6,35.8],
    [1967,"FF1721AC76217484","กองดิจิทัลเพื่อการควบคุมโรค","2023-07-29T00:00:00",8,9,11.6,28.2,35],
    [1968,"FF1721AC76217484","กองดิจิทัลเพื่อการควบคุมโรค","2023-07-29T00:00:00",9,5.8,8.8,29.2,33.9],
    [1969,"FF1721AC76217484","กองดิจิทัลเพื่อการควบคุมโรค","2023-07-29T00:00:00",10,6,8,30.4,32.3],
    [1970,"FF1721AC76217484","กองดิจิทัลเพื่อการควบคุมโรค","2023-07-29T00:00:00",11,4.6,6.9,31,30.4],
    [1971,"FF1721AC76217484","กองดิจิทัลเพื่อการควบคุมโรค","2023-07-29T00:00:00",12,4,6.5,32,28.4],
    [1972,"FF1721AC76217484","กองดิจิทัลเพื่อการควบคุมโรค","2023-07-29T00:00:00",13,5.3,7.3,32.6,27.8],
    [1973,"FF1721AC76217484","กองดิจิทัลเพื่อการควบคุมโรค","2023-07-29T00:00:00",14,7.7,8.3,32,28.7],
    [1974,"FF1721AC76217484","กองดิจิทัลเพื่อการควบคุมโรค","2023-07-29T00:00:00",15,8,8.2,31.8,29.6],
    [1975,"FF1721AC76217484","กองดิจิทัลเพื่อการควบคุมโรค","2023-07-29T00:00:00",16,7.7,11.8,31,30.3],
    [1976,"FF1721AC76217484","กองดิจิทัลเพื่อการควบคุมโรค","2023-07-29T00:00:00",17,7.9,9.7,30.2,31.8],
    [1977,"FF1721AC76217484","กองดิจิทัลเพื่อการควบคุมโรค","2023-07-29T00:00:00",18,9,11.4,29,33.4],
    [1978,"FF1721AC76217484","กองดิจิทัลเพื่อการควบคุมโรค","2023-07-29T00:00:00",19,14,16.5,28.4,34.2],
    [1979,"FF1721AC76217484","กองดิจิทัลเพื่อการควบคุมโรค","2023-07-29T00:00:00",20,9,12.6,28,35.1],
    [1980,"FF1721AC76217484","กองดิจิทัลเพื่อการควบคุมโรค","2023-07-29T00:00:00",21,6.9,9.6,27.7,35.8],
    [1981,"FF1721AC76217484","กองดิจิทัลเพื่อการควบคุมโรค","2023-07-29T00:00:00",22,7.9,12.2,27.5,36.3],
    [1982,"FF1721AC76217484","กองดิจิทัลเพื่อการควบคุมโรค","2023-07-29T00:00:00",23,8,11.2,27.1,37.2],
    [1983,"FF1721AC76217484","กองดิจิทัลเพื่อการควบคุมโรค","2023-07-30T00:00:00",0,8.3,11.8,27,37.5],
    [1984,"FF1721AC76217484","กองดิจิทัลเพื่อการควบคุมโรค","2023-07-30T00:00:00",1,8.8,10.7,27,37.5],
    [1985,"FF1721AC76217484","กองดิจิทัลเพื่อการควบคุมโรค","2023-07-30T00:00:00",2,10,13.5,27.1,37.5],
    [1986,"FF1721AC76217484","กองดิจิทัลเพื่อการควบคุมโรค","2023-07-30T00:00:00",3,9.6,14.3,27.5,36.9],
    [1987,"FF1721AC76217484","กองดิจิทัลเพื่อการควบคุมโรค","2023-07-30T00:00:00",4,8.5,11.2,27.5,36.6],
    [1988,"FF1721AC76217484","กองดิจิทัลเพื่อการควบคุมโรค","2023-07-30T00:00:00",5,7.6,11.2,27.6,36.7],
    [1989,"FF1721AC76217484","กองดิจิทัลเพื่อการควบคุมโรค","2023-07-30T00:00:00",6,6.6,9.5,27.6,36.5],
    [1990,"FF1721AC76217484","กองดิจิทัลเพื่อการควบคุมโรค","2023-07-30T00:00:00",7,6.5,9.5,28.2,35.9],
    [1991,"FF1721AC76217484","กองดิจิทัลเพื่อการควบคุมโรค","2023-07-30T00:00:00",8,8,9.7,29,35.3],
    [1992,"FF1721AC76217484","กองดิจิทัลเพื่อการควบคุมโรค","2023-07-30T00:00:00",9,7.4,12,29.3,34.9],
    [1993,"FF1721AC76217484","กองดิจิทัลเพื่อการควบคุมโรค","2023-07-30T00:00:00",10,6.8,10.3,29,34.2],
    [1994,"FF1721AC76217484","กองดิจิทัลเพื่อการควบคุมโรค","2023-07-30T00:00:00",11,6.5,9.6,24.5,44],
    [1995,"FF1721AC76217484","กองดิจิทัลเพื่อการควบคุมโรค","2023-07-30T00:00:00",12,4.2,6.1,26.1,40.5],
    [1996,"FF1721AC76217484","กองดิจิทัลเพื่อการควบคุมโรค","2023-07-30T00:00:00",13,8,9.5,27.6,37.7],
    [1997,"FF1721AC76217484","กองดิจิทัลเพื่อการควบคุมโรค","2023-07-30T00:00:00",14,7.2,8.4,28.2,37],
    [1998,"FF1721AC76217484","กองดิจิทัลเพื่อการควบคุมโรค","2023-07-30T00:00:00",15,7.2,12.5,29.2,34.2],
    [1999,"FF1721AC76217484","กองดิจิทัลเพื่อการควบคุมโรค","2023-07-30T00:00:00",16,4.9,6.9,30,33],
    [2000,"FF1721AC76217484","กองดิจิทัลเพื่อการควบคุมโรค","2023-07-30T00:00:00",17,14.7,20.5,28.7,36.9],
    [2001,"FF1721AC76217484","กองดิจิทัลเพื่อการควบคุมโรค","2023-07-30T00:00:00",18,14.7,23.4,26.6,41.4],
    [2002,"FF1721AC76217484","กองดิจิทัลเพื่อการควบคุมโรค","2023-07-30T00:00:00",19,9.3,14.9,27,39.8],
    [2003,"FF1721AC76217484","กองดิจิทัลเพื่อการควบคุมโรค","2023-07-30T00:00:00",20,7.9,10.9,27.6,38.6],
    [2004,"FF1721AC76217484","กองดิจิทัลเพื่อการควบคุมโรค","2023-07-30T00:00:00",21,9.7,15.7,27.8,37.2],
    [2005,"FF1721AC76217484","กองดิจิทัลเพื่อการควบคุมโรค","2023-07-30T00:00:00",22,9,13.8,27.9,36.1],
    [2006,"FF1721AC76217484","กองดิจิทัลเพื่อการควบคุมโรค","2023-07-30T00:00:00",23,8.4,12.5,27.7,36.1],
    [2007,"FF1721AC76217484","กองดิจิทัลเพื่อการควบคุมโรค","2023-07-31T00:00:00",0,6.4,9.2,27.7,35.8],
    [2008,"FF1721AC76217484","กองดิจิทัลเพื่อการควบคุมโรค","2023-07-31T00:00:00",1,6.2,9.3,27.6,37.3],
    [2009,"FF1721AC76217484","กองดิจิทัลเพื่อการควบคุมโรค","2023-07-31T00:00:00",2,5.7,8.7,27.3,38.4],
    [2010,"FF1721AC76217484","กองดิจิทัลเพื่อการควบคุมโรค","2023-07-31T00:00:00",3,5.9,10,26.7,39.3],
    [2011,"FF1721AC76217484","กองดิจิทัลเพื่อการควบคุมโรค","2023-07-31T00:00:00",4,8.6,15.2,24.5,45],
    [2012,"FF1721AC76217484","กองดิจิทัลเพื่อการควบคุมโรค","2023-07-31T00:00:00",5,9.4,15.7,24.8,45],
    [2013,"FF1721AC76217484","กองดิจิทัลเพื่อการควบคุมโรค","2023-07-31T00:00:00",6,11.2,15.8,25.3,44.4],
    [2014,"FF1721AC76217484","กองดิจิทัลเพื่อการควบคุมโรค","2023-07-31T00:00:00",7,10.9,15.9,25.1,44.9],
    [2015,"FF1721AC76217484","กองดิจิทัลเพื่อการควบคุมโรค","2023-07-31T00:00:00",8,8.9,13.7,26.3,41.8],
    [2016,"FF1721AC76217484","กองดิจิทัลเพื่อการควบคุมโรค","2023-07-31T00:00:00",9,5.9,9.5,27.8,38.2],
    [2017,"FF1721AC76217484","กองดิจิทัลเพื่อการควบคุมโรค","2023-07-31T00:00:00",10,2.5,4.9,27.8,36.6],
    [2018,"FF1721AC76217484","กองดิจิทัลเพื่อการควบคุมโรค","2023-07-31T00:00:00",11,3.6,5.6,28.3,34.5],
    [2019,"FF1721AC76217484","กองดิจิทัลเพื่อการควบคุมโรค","2023-07-31T00:00:00",12,4.5,6.1,28.5,34.3],
    [2020,"FF1721AC76217484","กองดิจิทัลเพื่อการควบคุมโรค","2023-07-31T00:00:00",13,5.1,7.8,29.2,34.2],
    [2021,"FF1721AC76217484","กองดิจิทัลเพื่อการควบคุมโรค","2023-07-31T00:00:00",14,5.4,8.3,29.6,33.5],
    [2022,"FF1721AC76217484","กองดิจิทัลเพื่อการควบคุมโรค","2023-07-31T00:00:00",15,7.2,11.1,29.9,33.2],
    [2023,"FF1721AC76217484","กองดิจิทัลเพื่อการควบคุมโรค","2023-07-31T00:00:00",16,6.9,10.8,29.7,33.6],
    [2024,"FF1721AC76217484","กองดิจิทัลเพื่อการควบคุมโรค","2023-07-31T00:00:00",17,7,12.1,29.2,34.8],
    [2025,"FF1721AC76217484","กองดิจิทัลเพื่อการควบคุมโรค","2023-07-31T00:00:00",18,9.1,13.8,28.5,36.9],
    [2026,"FF1721AC76217484","กองดิจิทัลเพื่อการควบคุมโรค","2023-07-31T00:00:00",19,8.2,15,28.1,38],
    [2027,"FF1721AC76217484","กองดิจิทัลเพื่อการควบคุมโรค","2023-07-31T00:00:00",20,8.6,15,28.3,37.3],
    [2028,"FF1721AC76217484","กองดิจิทัลเพื่อการควบคุมโรค","2023-07-31T00:00:00",21,9.5,13.7,28.6,35.5],
    [2029,"FF1721AC76217484","กองดิจิทัลเพื่อการควบคุมโรค","2023-07-31T00:00:00",22,10.5,17.7,28.3,35.1],
    [2030,"FF1721AC76217484","กองดิจิทัลเพื่อการควบคุมโรค","2023-07-31T00:00:00",23,10.3,16,28,35.1],
    [2031,"FF1721AC76217484","กองดิจิทัลเพื่อการควบคุมโรค","2023-01-08T00:00:00",0,8.5,15.5,27.9,35.2],
    [2032,"FF1721AC76217484","กองดิจิทัลเพื่อการควบคุมโรค","2023-01-08T00:00:00",1,7.6,13.4,27.9,35.6],
    [2033,"FF1721AC76217484","กองดิจิทัลเพื่อการควบคุมโรค","2023-01-08T00:00:00",2,7.4,12.4,27.7,36.6],
    [2034,"FF1721AC76217484","กองดิจิทัลเพื่อการควบคุมโรค","2023-01-08T00:00:00",3,6.4,10.4,27.4,37.9],
    [2035,"FF1721AC76217484","กองดิจิทัลเพื่อการควบคุมโรค","2023-01-08T00:00:00",4,7.1,11.4,27.3,37.7],
    [2036,"FF1721AC76217484","กองดิจิทัลเพื่อการควบคุมโรค","2023-01-08T00:00:00",5,6.5,11.4,27.2,38.2],
    [2037,"FF1721AC76217484","กองดิจิทัลเพื่อการควบคุมโรค","2023-01-08T00:00:00",6,7.1,10.4,27.3,38.4],
    [2038,"FF1721AC76217484","กองดิจิทัลเพื่อการควบคุมโรค","2023-01-08T00:00:00",7,8.1,13.6,27.8,37.8],
    [2039,"FF1721AC76217484","กองดิจิทัลเพื่อการควบคุมโรค","2023-01-08T00:00:00",8,7.2,14.2,28.7,36.1],
    [2040,"FF1721AC76217484","กองดิจิทัลเพื่อการควบคุมโรค","2023-01-08T00:00:00",9,7,11.9,29.8,34.5],
    [2041,"FF1721AC76217484","กองดิจิทัลเพื่อการควบคุมโรค","2023-01-08T00:00:00",10,9,13,30.7,32.6],
    [2042,"FF1721AC76217484","กองดิจิทัลเพื่อการควบคุมโรค","2023-01-08T00:00:00",11,10.5,14,31.2,31.8],
    [2043,"FF1721AC76217484","กองดิจิทัลเพื่อการควบคุมโรค","2023-01-08T00:00:00",12,8.3,13,30.7,33.3],
    [2044,"FF1721AC76217484","กองดิจิทัลเพื่อการควบคุมโรค","2023-01-08T00:00:00",13,9.6,12.1,30.5,33.2],
    [2045,"FF1721AC76217484","กองดิจิทัลเพื่อการควบคุมโรค","2023-01-08T00:00:00",14,10.7,18.2,30.7,32.5],
    [2046,"FF1721AC76217484","กองดิจิทัลเพื่อการควบคุมโรค","2023-01-08T00:00:00",15,9.7,16.8,30.1,34.6],
    [2047,"FF1721AC76217484","กองดิจิทัลเพื่อการควบคุมโรค","2023-01-08T00:00:00",16,7.9,16.1,29.9,34.9],
    [2048,"FF1721AC76217484","กองดิจิทัลเพื่อการควบคุมโรค","2023-01-08T00:00:00",17,7.5,11.7,29.5,35.6],
    [2049,"FF1721AC76217484","กองดิจิทัลเพื่อการควบคุมโรค","2023-01-08T00:00:00",18,6.7,11.5,28.8,37.2],
    [2050,"FF1721AC76217484","กองดิจิทัลเพื่อการควบคุมโรค","2023-01-08T00:00:00",19,7.2,13.1,28.3,38.7],
    [2051,"FF1721AC76217484","กองดิจิทัลเพื่อการควบคุมโรค","2023-01-08T00:00:00",20,7.3,11.9,28.1,39.3],
    [2052,"FF1721AC76217484","กองดิจิทัลเพื่อการควบคุมโรค","2023-01-08T00:00:00",21,7.3,13.2,27.9,39.7],
    [2053,"FF1721AC76217484","กองดิจิทัลเพื่อการควบคุมโรค","2023-01-08T00:00:00",22,7.9,14.5,28.2,38.8],
    [2054,"FF1721AC76217484","กองดิจิทัลเพื่อการควบคุมโรค","2023-01-08T00:00:00",23,10.9,16,28,39.2],
    [2055,"FF1721AC76217484","กองดิจิทัลเพื่อการควบคุมโรค","2023-02-08T00:00:00",0,15.7,27.5,27.8,37.9],
    [2056,"FF1721AC76217484","กองดิจิทัลเพื่อการควบคุมโรค","2023-02-08T00:00:00",1,16,26.5,27.8,36.8],
    [2057,"FF1721AC76217484","กองดิจิทัลเพื่อการควบคุมโรค","2023-02-08T00:00:00",2,13.3,22,27.5,36.5],
    [2058,"FF1721AC76217484","กองดิจิทัลเพื่อการควบคุมโรค","2023-02-08T00:00:00",3,10,17.5,27.5,36.5],
    [2059,"FF1721AC76217484","กองดิจิทัลเพื่อการควบคุมโรค","2023-02-08T00:00:00",4,8.2,16.1,27.3,36.5],
    [2060,"FF1721AC76217484","กองดิจิทัลเพื่อการควบคุมโรค","2023-02-08T00:00:00",5,7.6,13,27.4,36.6],
    [2061,"FF1721AC76217484","กองดิจิทัลเพื่อการควบคุมโรค","2023-02-08T00:00:00",6,8.4,13.7,27.4,37.5],
    [2062,"FF1721AC76217484","กองดิจิทัลเพื่อการควบคุมโรค","2023-02-08T00:00:00",7,9.1,16.3,28,37.4],
    [2063,"FF1721AC76217484","กองดิจิทัลเพื่อการควบคุมโรค","2023-02-08T00:00:00",8,9.7,15.9,28.8,35.6],
    [2064,"FF1721AC76217484","กองดิจิทัลเพื่อการควบคุมโรค","2023-02-08T00:00:00",9,9.8,19.6,29.2,34.5],
    [2065,"FF1721AC76217484","กองดิจิทัลเพื่อการควบคุมโรค","2023-02-08T00:00:00",10,9.5,16.9,30.1,33.8],
    [2066,"FF1721AC76217484","กองดิจิทัลเพื่อการควบคุมโรค","2023-02-08T00:00:00",11,11.3,17.8,29.3,34.7],
    [2067,"FF1721AC76217484","กองดิจิทัลเพื่อการควบคุมโรค","2023-02-08T00:00:00",12,11.1,17,30,33.9],
    [2068,"FF1721AC76217484","กองดิจิทัลเพื่อการควบคุมโรค","2023-02-08T00:00:00",13,12.2,18.7,30.7,32.8],
    [2069,"FF1721AC76217484","กองดิจิทัลเพื่อการควบคุมโรค","2023-02-08T00:00:00",14,12.3,17.6,30.1,33.7],
    [2070,"FF1721AC76217484","กองดิจิทัลเพื่อการควบคุมโรค","2023-02-08T00:00:00",15,12.1,19.5,27.1,40.3],
    [2071,"FF1721AC76217484","กองดิจิทัลเพื่อการควบคุมโรค","2023-02-08T00:00:00",16,11.8,20.9,26.9,40.5],
    [2072,"FF1721AC76217484","กองดิจิทัลเพื่อการควบคุมโรค","2023-02-08T00:00:00",17,11.7,17.8,27.6,39.6],
    [2073,"FF1721AC76217484","กองดิจิทัลเพื่อการควบคุมโรค","2023-02-08T00:00:00",18,12.5,18.9,27.5,39.8],
    [2074,"FF1721AC76217484","กองดิจิทัลเพื่อการควบคุมโรค","2023-02-08T00:00:00",19,13.6,23.6,27.7,40.2],
    [2075,"FF1721AC76217484","กองดิจิทัลเพื่อการควบคุมโรค","2023-02-08T00:00:00",20,12.8,19.9,28,39.4],
    [2076,"FF1721AC76217484","กองดิจิทัลเพื่อการควบคุมโรค","2023-02-08T00:00:00",21,13.2,17.7,28.4,38.6],
    [2077,"FF1721AC76217484","กองดิจิทัลเพื่อการควบคุมโรค","2023-02-08T00:00:00",22,13.1,21.3,28.4,37.9],
    [2078,"FF1721AC76217484","กองดิจิทัลเพื่อการควบคุมโรค","2023-02-08T00:00:00",23,15.9,25.4,28.3,37.3],
    [2079,"FF1721AC76217484","กองดิจิทัลเพื่อการควบคุมโรค","2023-03-08T00:00:00",0,18.3,34.9,28,37.6],
    [2080,"FF1721AC76217484","กองดิจิทัลเพื่อการควบคุมโรค","2023-03-08T00:00:00",1,21,30.9,27.8,38.2],
    [2081,"FF1721AC76217484","กองดิจิทัลเพื่อการควบคุมโรค","2023-03-08T00:00:00",2,20.5,29.4,27.7,38.7],
    [2082,"FF1721AC76217484","กองดิจิทัลเพื่อการควบคุมโรค","2023-03-08T00:00:00",3,16.7,28.4,27.4,38.9],
    [2083,"FF1721AC76217484","กองดิจิทัลเพื่อการควบคุมโรค","2023-03-08T00:00:00",4,16.5,26.2,27.2,38.9],
    [2084,"FF1721AC76217484","กองดิจิทัลเพื่อการควบคุมโรค","2023-03-08T00:00:00",5,14.9,23.9,26.9,38.9],
    [2085,"FF1721AC76217484","กองดิจิทัลเพื่อการควบคุมโรค","2023-03-08T00:00:00",6,17.2,29.5,27.1,38.9],
    [2086,"FF1721AC76217484","กองดิจิทัลเพื่อการควบคุมโรค","2023-03-08T00:00:00",7,20.3,32.6,27.6,38.3],
    [2087,"FF1721AC76217484","กองดิจิทัลเพื่อการควบคุมโรค","2023-03-08T00:00:00",8,24.2,37.7,28.1,37.1],
    [2088,"FF1721AC76217484","กองดิจิทัลเพื่อการควบคุมโรค","2023-03-08T00:00:00",9,8.9,14.3,29.3,33.5],
    [2089,"FF1721AC76217484","กองดิจิทัลเพื่อการควบคุมโรค","2023-03-08T00:00:00",10,11.1,16.7,30.2,33.2],
    [2090,"FF1721AC76217484","กองดิจิทัลเพื่อการควบคุมโรค","2023-03-08T00:00:00",11,12.1,16.2,31,32],
    [2091,"FF1721AC76217484","กองดิจิทัลเพื่อการควบคุมโรค","2023-03-08T00:00:00",12,11.7,16.4,30.7,31.9],
    [2092,"FF1721AC76217484","กองดิจิทัลเพื่อการควบคุมโรค","2023-03-08T00:00:00",13,4.8,7.4,31.1,31.3],
    [2093,"FF1721AC76217484","กองดิจิทัลเพื่อการควบคุมโรค","2023-03-08T00:00:00",14,5.9,8.6,31.2,31.3],
    [2094,"FF1721AC76217484","กองดิจิทัลเพื่อการควบคุมโรค","2023-03-08T00:00:00",15,7.8,10.7,27.3,38.4],
    [2095,"FF1721AC76217484","กองดิจิทัลเพื่อการควบคุมโรค","2023-03-08T00:00:00",16,9.2,13.3,24.6,44.4],
    [2096,"FF1721AC76217484","กองดิจิทัลเพื่อการควบคุมโรค","2023-03-08T00:00:00",17,11.9,16.7,24.9,44.2],
    [2097,"FF1721AC76217484","กองดิจิทัลเพื่อการควบคุมโรค","2023-03-08T00:00:00",18,11.9,15.2,25.7,42.7],
    [2098,"FF1721AC76217484","กองดิจิทัลเพื่อการควบคุมโรค","2023-03-08T00:00:00",19,17,24.7,25.7,43.4],
    [2099,"FF1721AC76217484","กองดิจิทัลเพื่อการควบคุมโรค","2023-03-08T00:00:00",20,18.4,27.7,25.3,44.6],
    [2100,"FF1721AC76217484","กองดิจิทัลเพื่อการควบคุมโรค","2023-03-08T00:00:00",21,19.2,26.7,26,43.9],
    [2101,"FF1721AC76217484","กองดิจิทัลเพื่อการควบคุมโรค","2023-03-08T00:00:00",22,20.4,31.9,26.4,43.3],
    [2102,"FF1721AC76217484","กองดิจิทัลเพื่อการควบคุมโรค","2023-03-08T00:00:00",23,22.7,35.6,26.6,43.4],
    [2103,"FF1721AC76217484","กองดิจิทัลเพื่อการควบคุมโรค","2023-04-08T00:00:00",0,19.5,27.9,26.2,43.2],
    [2104,"FF1721AC76217484","กองดิจิทัลเพื่อการควบคุมโรค","2023-04-08T00:00:00",1,16.2,25.9,26.5,41.4],
    [2105,"FF1721AC76217484","กองดิจิทัลเพื่อการควบคุมโรค","2023-04-08T00:00:00",2,18.5,32,26.3,41.1],
    [2106,"FF1721AC76217484","กองดิจิทัลเพื่อการควบคุมโรค","2023-04-08T00:00:00",3,20.1,30.5,26,41.5],
    [2107,"FF1721AC76217484","กองดิจิทัลเพื่อการควบคุมโรค","2023-04-08T00:00:00",4,17.4,28.3,26.1,41.4],
    [2108,"FF1721AC76217484","กองดิจิทัลเพื่อการควบคุมโรค","2023-04-08T00:00:00",5,15.3,22.9,26.2,41],
    [2109,"FF1721AC76217484","กองดิจิทัลเพื่อการควบคุมโรค","2023-04-08T00:00:00",6,18,28.6,26.4,40.4],
    [2110,"FF1721AC76217484","กองดิจิทัลเพื่อการควบคุมโรค","2023-04-08T00:00:00",7,16.4,24,27.3,38.7],
    [2111,"FF1721AC76217484","กองดิจิทัลเพื่อการควบคุมโรค","2023-04-08T00:00:00",8,12.9,23.8,28.3,36.7],
    [2112,"FF1721AC76217484","กองดิจิทัลเพื่อการควบคุมโรค","2023-04-08T00:00:00",9,12.8,18.5,29.5,33.9],
    [2113,"FF1721AC76217484","กองดิจิทัลเพื่อการควบคุมโรค","2023-04-08T00:00:00",10,12.6,19.1,30.8,31.4],
    [2114,"FF1721AC76217484","กองดิจิทัลเพื่อการควบคุมโรค","2023-04-08T00:00:00",11,11.7,18.8,32.1,30],
    [2115,"FF1721AC76217484","กองดิจิทัลเพื่อการควบคุมโรค","2023-04-08T00:00:00",12,12.2,19.9,31.7,30.4],
    [2116,"FF1721AC76217484","กองดิจิทัลเพื่อการควบคุมโรค","2023-04-08T00:00:00",13,10.5,18.3,31.2,31.3],
    [2117,"FF1721AC76217484","กองดิจิทัลเพื่อการควบคุมโรค","2023-04-08T00:00:00",14,9.8,15.1,30.9,31.7],
    [2118,"FF1721AC76217484","กองดิจิทัลเพื่อการควบคุมโรค","2023-04-08T00:00:00",15,10,16.5,30.9,32.4],
    [2119,"FF1721AC76217484","กองดิจิทัลเพื่อการควบคุมโรค","2023-04-08T00:00:00",16,10.6,15.3,29.8,34.1],
    [2120,"FF1721AC76217484","กองดิจิทัลเพื่อการควบคุมโรค","2023-04-08T00:00:00",17,7,8.9,27.5,38.1],
    [2121,"FF1721AC76217484","กองดิจิทัลเพื่อการควบคุมโรค","2023-04-08T00:00:00",18,8.3,12,25.9,40.9],
    [2122,"FF1721AC76217484","กองดิจิทัลเพื่อการควบคุมโรค","2023-04-08T00:00:00",19,9.1,13.8,26.3,38.8],
    [2123,"FF1721AC76217484","กองดิจิทัลเพื่อการควบคุมโรค","2023-04-08T00:00:00",20,9.1,12.4,26.5,37.2],
    [2124,"FF1721AC76217484","กองดิจิทัลเพื่อการควบคุมโรค","2023-04-08T00:00:00",21,9.7,14.4,26.5,36.8],
    [2125,"FF1721AC76217484","กองดิจิทัลเพื่อการควบคุมโรค","2023-04-08T00:00:00",22,11.1,15,26.8,36.4],
    [2126,"FF1721AC76217484","กองดิจิทัลเพื่อการควบคุมโรค","2023-04-08T00:00:00",23,11.2,14.6,27.1,36.1],
    [2127,"FF1721AC76217484","กองดิจิทัลเพื่อการควบคุมโรค","2023-05-08T00:00:00",0,11.7,16,26.6,36.8],
    [2128,"FF1721AC76217484","กองดิจิทัลเพื่อการควบคุมโรค","2023-05-08T00:00:00",1,10,15.2,26.7,36.4],
    [2129,"FF1721AC76217484","กองดิจิทัลเพื่อการควบคุมโรค","2023-05-08T00:00:00",2,10.6,17.6,26.4,36.8],
    [2130,"FF1721AC76217484","กองดิจิทัลเพื่อการควบคุมโรค","2023-05-08T00:00:00",3,14,20.8,26.3,37.3],
    [2131,"FF1721AC76217484","กองดิจิทัลเพื่อการควบคุมโรค","2023-05-08T00:00:00",4,19,29.3,26.5,37.4],
    [2132,"FF1721AC76217484","กองดิจิทัลเพื่อการควบคุมโรค","2023-05-08T00:00:00",5,22.5,31.7,26.1,37.9],
    [2133,"FF1721AC76217484","กองดิจิทัลเพื่อการควบคุมโรค","2023-05-08T00:00:00",6,22.5,34.7,26.3,38.4],
    [2134,"FF1721AC76217484","กองดิจิทัลเพื่อการควบคุมโรค","2023-05-08T00:00:00",7,18.8,29.5,27.1,37.6],
    [2135,"FF1721AC76217484","กองดิจิทัลเพื่อการควบคุมโรค","2023-05-08T00:00:00",8,11.3,18.1,28.1,35.9],
    [2136,"FF1721AC76217484","กองดิจิทัลเพื่อการควบคุมโรค","2023-05-08T00:00:00",9,10,16.3,29.3,33.3],
    [2137,"FF1721AC76217484","กองดิจิทัลเพื่อการควบคุมโรค","2023-05-08T00:00:00",10,9.9,15.2,31.4,29.8],
    [2138,"FF1721AC76217484","กองดิจิทัลเพื่อการควบคุมโรค","2023-05-08T00:00:00",11,11.3,14.8,32,28.6],
    [2139,"FF1721AC76217484","กองดิจิทัลเพื่อการควบคุมโรค","2023-05-08T00:00:00",12,10.9,15.1,32.4,28.9],
    [2140,"FF1721AC76217484","กองดิจิทัลเพื่อการควบคุมโรค","2023-05-08T00:00:00",13,10.3,14.4,32.6,28.9],
    [2141,"FF1721AC76217484","กองดิจิทัลเพื่อการควบคุมโรค","2023-05-08T00:00:00",14,9.9,14.2,31.4,31.1],
    [2142,"FF1721AC76217484","กองดิจิทัลเพื่อการควบคุมโรค","2023-05-08T00:00:00",15,9.9,15.1,30.7,31.8],
    [2143,"FF1721AC76217484","กองดิจิทัลเพื่อการควบคุมโรค","2023-05-08T00:00:00",16,8.1,10.8,30.6,31.2],
    [2144,"FF1721AC76217484","กองดิจิทัลเพื่อการควบคุมโรค","2023-05-08T00:00:00",17,6.7,10.1,29.2,35.1],
    [2145,"FF1721AC76217484","กองดิจิทัลเพื่อการควบคุมโรค","2023-05-08T00:00:00",18,7.5,10.9,27.4,39.3],
    [2146,"FF1721AC76217484","กองดิจิทัลเพื่อการควบคุมโรค","2023-05-08T00:00:00",19,8.3,11.4,28,38.2],
    [2147,"FF1721AC76217484","กองดิจิทัลเพื่อการควบคุมโรค","2023-05-08T00:00:00",20,10.1,15.1,28,37.4],
    [2148,"FF1721AC76217484","กองดิจิทัลเพื่อการควบคุมโรค","2023-05-08T00:00:00",21,10.4,15.4,28.2,35.4],
    [2149,"FF1721AC76217484","กองดิจิทัลเพื่อการควบคุมโรค","2023-05-08T00:00:00",22,10.1,14.4,27.8,35.2],
    [2150,"FF1721AC76217484","กองดิจิทัลเพื่อการควบคุมโรค","2023-05-08T00:00:00",23,9.1,13.1,27.5,35.5],
    [2151,"FF1721AC76217484","กองดิจิทัลเพื่อการควบคุมโรค","2023-06-08T00:00:00",0,8.7,12.4,27.6,35.3],
    [2152,"FF1721AC76217484","กองดิจิทัลเพื่อการควบคุมโรค","2023-06-08T00:00:00",1,7.7,10.7,27.5,35.3],
    [2153,"FF1721AC76217484","กองดิจิทัลเพื่อการควบคุมโรค","2023-06-08T00:00:00",2,8.9,14.8,27,36.4],
    [2154,"FF1721AC76217484","กองดิจิทัลเพื่อการควบคุมโรค","2023-06-08T00:00:00",3,14.6,21.5,26.7,36.6],
    [2155,"FF1721AC76217484","กองดิจิทัลเพื่อการควบคุมโรค","2023-06-08T00:00:00",4,17.6,25.4,26.6,37],
    [2156,"FF1721AC76217484","กองดิจิทัลเพื่อการควบคุมโรค","2023-06-08T00:00:00",5,18.7,28.9,26.6,37.5],
    [2157,"FF1721AC76217484","กองดิจิทัลเพื่อการควบคุมโรค","2023-06-08T00:00:00",6,12.9,17.7,26.7,37.3],
    [2158,"FF1721AC76217484","กองดิจิทัลเพื่อการควบคุมโรค","2023-06-08T00:00:00",7,8.1,15.5,27.5,36.9],
    [2159,"FF1721AC76217484","กองดิจิทัลเพื่อการควบคุมโรค","2023-06-08T00:00:00",8,6.4,11.3,28.2,35.4],
    [2160,"FF1721AC76217484","กองดิจิทัลเพื่อการควบคุมโรค","2023-06-08T00:00:00",9,8.2,12.5,29.4,33.6],
    [2161,"FF1721AC76217484","กองดิจิทัลเพื่อการควบคุมโรค","2023-06-08T00:00:00",10,8.2,12.2,30.3,32.5],
    [2162,"FF1721AC76217484","กองดิจิทัลเพื่อการควบคุมโรค","2023-06-08T00:00:00",11,6.3,10.2,31.4,30.6],
    [2163,"FF1721AC76217484","กองดิจิทัลเพื่อการควบคุมโรค","2023-06-08T00:00:00",12,7.9,11.7,32.4,29.3],
    [2164,"FF1721AC76217484","กองดิจิทัลเพื่อการควบคุมโรค","2023-06-08T00:00:00",13,8.2,12,31.9,30],
    [2165,"FF1721AC76217484","กองดิจิทัลเพื่อการควบคุมโรค","2023-06-08T00:00:00",14,7.8,11.7,31.1,32],
    [2166,"FF1721AC76217484","กองดิจิทัลเพื่อการควบคุมโรค","2023-06-08T00:00:00",15,8.3,10.3,29.3,35.5],
    [2167,"FF1721AC76217484","กองดิจิทัลเพื่อการควบคุมโรค","2023-06-08T00:00:00",16,7.4,11.6,28.8,37.3],
    [2168,"FF1721AC76217484","กองดิจิทัลเพื่อการควบคุมโรค","2023-06-08T00:00:00",17,6.1,8.7,29.1,36.5],
    [2169,"FF1721AC76217484","กองดิจิทัลเพื่อการควบคุมโรค","2023-06-08T00:00:00",18,5.8,8.7,28.6,36.2],
    [2170,"FF1721AC76217484","กองดิจิทัลเพื่อการควบคุมโรค","2023-06-08T00:00:00",19,6.3,11.4,28.2,37.2],
    [2171,"FF1721AC76217484","กองดิจิทัลเพื่อการควบคุมโรค","2023-06-08T00:00:00",20,7.9,11.2,27.9,37.1],
    [2172,"FF1721AC76217484","กองดิจิทัลเพื่อการควบคุมโรค","2023-06-08T00:00:00",21,9.2,11.2,27.8,36.2],
    [2173,"FF1721AC76217484","กองดิจิทัลเพื่อการควบคุมโรค","2023-06-08T00:00:00",22,10.5,15.4,27.6,36.4],
    [2174,"FF1721AC76217484","กองดิจิทัลเพื่อการควบคุมโรค","2023-06-08T00:00:00",23,11.1,14.7,27.4,37.1],
    [2175,"FF1721AC76217484","กองดิจิทัลเพื่อการควบคุมโรค","2023-07-08T00:00:00",0,11.7,16.4,27.2,37.2],
    [2176,"FF1721AC76217484","กองดิจิทัลเพื่อการควบคุมโรค","2023-07-08T00:00:00",1,15.9,23,26.9,37.1],
    [2177,"FF1721AC76217484","กองดิจิทัลเพื่อการควบคุมโรค","2023-07-08T00:00:00",2,12,17.6,26.6,37.2],
    [2178,"FF1721AC76217484","กองดิจิทัลเพื่อการควบคุมโรค","2023-07-08T00:00:00",3,10.3,16.7,26.6,36.9],
    [2179,"FF1721AC76217484","กองดิจิทัลเพื่อการควบคุมโรค","2023-07-08T00:00:00",4,9.1,15.1,26.6,36.9],
    [2180,"FF1721AC76217484","กองดิจิทัลเพื่อการควบคุมโรค","2023-07-08T00:00:00",5,10.2,15.2,26.7,36.5],
    [2181,"FF1721AC76217484","กองดิจิทัลเพื่อการควบคุมโรค","2023-07-08T00:00:00",6,11.7,18.5,26.7,37],
    [2182,"FF1721AC76217484","กองดิจิทัลเพื่อการควบคุมโรค","2023-07-08T00:00:00",7,10.3,17.3,27.5,36.7],
    [2183,"FF1721AC76217484","กองดิจิทัลเพื่อการควบคุมโรค","2023-07-08T00:00:00",8,8.8,11.9,28.1,34.9],
    [2184,"FF1721AC76217484","กองดิจิทัลเพื่อการควบคุมโรค","2023-07-08T00:00:00",9,6.9,12.9,29.2,33.4],
    [2185,"FF1721AC76217484","กองดิจิทัลเพื่อการควบคุมโรค","2023-07-08T00:00:00",10,8.2,10.7,30.4,32.2],
    [2186,"FF1721AC76217484","กองดิจิทัลเพื่อการควบคุมโรค","2023-07-08T00:00:00",11,5.5,8.8,30.6,31.4],
    [2187,"FF1721AC76217484","กองดิจิทัลเพื่อการควบคุมโรค","2023-07-08T00:00:00",12,8.4,11.3,31.2,30.8],
    [2188,"FF1721AC76217484","กองดิจิทัลเพื่อการควบคุมโรค","2023-07-08T00:00:00",13,9.7,17.6,31.8,30.3],
    [2189,"FF1721AC76217484","กองดิจิทัลเพื่อการควบคุมโรค","2023-07-08T00:00:00",14,9.6,14.5,31.1,31.5],
    [2190,"FF1721AC76217484","กองดิจิทัลเพื่อการควบคุมโรค","2023-07-08T00:00:00",15,11.1,16.6,31.2,31.8],
    [2191,"FF1721AC76217484","กองดิจิทัลเพื่อการควบคุมโรค","2023-07-08T00:00:00",16,9.4,14.3,30,33.5],
    [2192,"FF1721AC76217484","กองดิจิทัลเพื่อการควบคุมโรค","2023-07-08T00:00:00",17,7,9.8,29.2,35.3],
    [2193,"FF1721AC76217484","กองดิจิทัลเพื่อการควบคุมโรค","2023-07-08T00:00:00",18,5,10.3,28.7,37.1],
    [2194,"FF1721AC76217484","กองดิจิทัลเพื่อการควบคุมโรค","2023-07-08T00:00:00",19,6.4,11.5,28.6,36.6],
    [2195,"FF1721AC76217484","กองดิจิทัลเพื่อการควบคุมโรค","2023-07-08T00:00:00",20,10,18,28.4,35.2],
    [2196,"FF1721AC76217484","กองดิจิทัลเพื่อการควบคุมโรค","2023-07-08T00:00:00",21,12.2,19.6,28.2,34.8],
    [2197,"FF1721AC76217484","กองดิจิทัลเพื่อการควบคุมโรค","2023-07-08T00:00:00",22,14.9,24.7,28,35.2],
    [2198,"FF1721AC76217484","กองดิจิทัลเพื่อการควบคุมโรค","2023-07-08T00:00:00",23,17.8,26.6,27.7,35.8],
    [2199,"FF1721AC76217484","กองดิจิทัลเพื่อการควบคุมโรค","2023-08-08T00:00:00",0,15.5,24,27.5,35.8],
    [2200,"FF1721AC76217484","กองดิจิทัลเพื่อการควบคุมโรค","2023-08-08T00:00:00",1,13.3,19.4,27.3,35.7],
    [2201,"FF1721AC76217484","กองดิจิทัลเพื่อการควบคุมโรค","2023-08-08T00:00:00",2,12.7,22.9,27.3,36.1],
    [2202,"FF1721AC76217484","กองดิจิทัลเพื่อการควบคุมโรค","2023-08-08T00:00:00",3,9,14.1,27.2,36.6],
    [2203,"FF1721AC76217484","กองดิจิทัลเพื่อการควบคุมโรค","2023-08-08T00:00:00",4,5.3,9,27.1,37.1],
    [2204,"FF1721AC76217484","กองดิจิทัลเพื่อการควบคุมโรค","2023-08-08T00:00:00",5,5.6,7.8,26.8,38.1],
    [2205,"FF1721AC76217484","กองดิจิทัลเพื่อการควบคุมโรค","2023-08-08T00:00:00",6,6,9.5,26.9,38.2],
    [2206,"FF1721AC76217484","กองดิจิทัลเพื่อการควบคุมโรค","2023-08-08T00:00:00",7,6.2,9.6,27.6,36.9],
    [2207,"FF1721AC76217484","กองดิจิทัลเพื่อการควบคุมโรค","2023-08-08T00:00:00",8,4.7,7.6,28.9,34.2],
    [2208,"FF1721AC76217484","กองดิจิทัลเพื่อการควบคุมโรค","2023-08-08T00:00:00",9,6.6,8.8,30.4,31.7],
    [2209,"FF1721AC76217484","กองดิจิทัลเพื่อการควบคุมโรค","2023-08-08T00:00:00",10,8.1,11.9,31.4,30.3],
    [2210,"FF1721AC76217484","กองดิจิทัลเพื่อการควบคุมโรค","2023-08-08T00:00:00",11,10.1,14.8,32,29.4],
    [2211,"FF1721AC76217484","กองดิจิทัลเพื่อการควบคุมโรค","2023-08-08T00:00:00",12,7.4,12.4,32.8,27.8],
    [2212,"FF1721AC76217484","กองดิจิทัลเพื่อการควบคุมโรค","2023-08-08T00:00:00",13,7.7,10.9,32,29.7],
    [2213,"FF1721AC76217484","กองดิจิทัลเพื่อการควบคุมโรค","2023-08-08T00:00:00",14,7.2,11.3,32.1,30],
    [2214,"FF1721AC76217484","กองดิจิทัลเพื่อการควบคุมโรค","2023-08-08T00:00:00",15,7,10.8,28.4,37.5],
    [2215,"FF1721AC76217484","กองดิจิทัลเพื่อการควบคุมโรค","2023-08-08T00:00:00",16,5.8,9.3,23.9,43.8],
    [2216,"FF1721AC76217484","กองดิจิทัลเพื่อการควบคุมโรค","2023-08-08T00:00:00",17,7.1,9.4,23.4,44.4],
    [2217,"FF1721AC76217484","กองดิจิทัลเพื่อการควบคุมโรค","2023-08-08T00:00:00",18,12.3,16,23.7,45.1],
    [2218,"FF1721AC76217484","กองดิจิทัลเพื่อการควบคุมโรค","2023-08-08T00:00:00",19,17.1,22.6,24.3,45.2],
    [2219,"FF1721AC76217484","กองดิจิทัลเพื่อการควบคุมโรค","2023-08-08T00:00:00",20,18.4,26,24.9,44.8],
    [2220,"FF1721AC76217484","กองดิจิทัลเพื่อการควบคุมโรค","2023-08-08T00:00:00",21,20.3,26.4,25.5,44.4],
    [2221,"FF1721AC76217484","กองดิจิทัลเพื่อการควบคุมโรค","2023-08-08T00:00:00",22,20.9,30.9,25,45.3],
    [2222,"FF1721AC76217484","กองดิจิทัลเพื่อการควบคุมโรค","2023-08-08T00:00:00",23,24.7,37.3,25.8,43.7],
    [2223,"FF1721AC76217484","กองดิจิทัลเพื่อการควบคุมโรค","2023-09-08T00:00:00",0,29.5,46.9,25.9,43.1],
    [2224,"FF1721AC76217484","กองดิจิทัลเพื่อการควบคุมโรค","2023-09-08T00:00:00",1,27.5,42,25.7,43.2],
    [2225,"FF1721AC76217484","กองดิจิทัลเพื่อการควบคุมโรค","2023-09-08T00:00:00",2,24.2,34.6,26,42.2],
    [2226,"FF1721AC76217484","กองดิจิทัลเพื่อการควบคุมโรค","2023-09-08T00:00:00",3,23.2,35.6,25.5,42.6],
    [2227,"FF1721AC76217484","กองดิจิทัลเพื่อการควบคุมโรค","2023-09-08T00:00:00",4,24.1,33.5,25.3,42.3],
    [2228,"FF1721AC76217484","กองดิจิทัลเพื่อการควบคุมโรค","2023-09-08T00:00:00",5,27.7,41,25.1,42.5],
    [2229,"FF1721AC76217484","กองดิจิทัลเพื่อการควบคุมโรค","2023-09-08T00:00:00",6,29.9,46.8,26,41.6],
    [2230,"FF1721AC76217484","กองดิจิทัลเพื่อการควบคุมโรค","2023-09-08T00:00:00",7,25,38,26.8,39.9],
    [2231,"FF1721AC76217484","กองดิจิทัลเพื่อการควบคุมโรค","2023-09-08T00:00:00",8,19.4,29.1,28.7,36.5],
    [2232,"FF1721AC76217484","กองดิจิทัลเพื่อการควบคุมโรค","2023-09-08T00:00:00",9,6.4,10.1,31,31.6],
    [2233,"FF1721AC76217484","กองดิจิทัลเพื่อการควบคุมโรค","2023-09-08T00:00:00",10,9.7,13.7,31.4,30.8],
    [2234,"FF1721AC76217484","กองดิจิทัลเพื่อการควบคุมโรค","2023-09-08T00:00:00",11,8.7,12.6,32.4,28.8],
    [2235,"FF1721AC76217484","กองดิจิทัลเพื่อการควบคุมโรค","2023-09-08T00:00:00",12,8.3,12.9,32.5,29.1],
    [2236,"FF1721AC76217484","กองดิจิทัลเพื่อการควบคุมโรค","2023-09-08T00:00:00",13,6.9,12.4,32.1,30.4],
    [2237,"FF1721AC76217484","กองดิจิทัลเพื่อการควบคุมโรค","2023-09-08T00:00:00",14,8.9,11.9,32.7,29.7],
    [2238,"FF1721AC76217484","กองดิจิทัลเพื่อการควบคุมโรค","2023-09-08T00:00:00",15,9.9,15.3,32.1,30.5],
    [2239,"FF1721AC76217484","กองดิจิทัลเพื่อการควบคุมโรค","2023-09-08T00:00:00",16,8.1,11.2,30.5,33.7],
    [2240,"FF1721AC76217484","กองดิจิทัลเพื่อการควบคุมโรค","2023-09-08T00:00:00",17,10.3,15.7,30.6,32.9],
    [2241,"FF1721AC76217484","กองดิจิทัลเพื่อการควบคุมโรค","2023-09-08T00:00:00",18,10.7,15.6,28.8,35.1],
    [2242,"FF1721AC76217484","กองดิจิทัลเพื่อการควบคุมโรค","2023-09-08T00:00:00",19,9.7,14.5,27.6,37.3],
    [2243,"FF1721AC76217484","กองดิจิทัลเพื่อการควบคุมโรค","2023-09-08T00:00:00",20,10.9,15,28,37.5],
    [2244,"FF1721AC76217484","กองดิจิทัลเพื่อการควบคุมโรค","2023-09-08T00:00:00",21,10.9,16,27.4,37.2],
    [2245,"FF1721AC76217484","กองดิจิทัลเพื่อการควบคุมโรค","2023-09-08T00:00:00",22,9.8,13.4,27.1,36.8],
    [2246,"FF1721AC76217484","กองดิจิทัลเพื่อการควบคุมโรค","2023-10-08T00:00:00",0,4.5,7.1,26.3,37],
    [2247,"FF1721AC76217484","กองดิจิทัลเพื่อการควบคุมโรค","2023-10-08T00:00:00",2,5.5,7.7,26.3,37.4],
    [2248,"FF1721AC76217484","กองดิจิทัลเพื่อการควบคุมโรค","2023-10-08T00:00:00",3,5.6,8.4,26,38.1],
    [2249,"FF1721AC76217484","กองดิจิทัลเพื่อการควบคุมโรค","2023-10-08T00:00:00",4,8.7,12,25.8,38.8],
    [2250,"FF1721AC76217484","กองดิจิทัลเพื่อการควบคุมโรค","2023-10-08T00:00:00",5,16,20.1,25.5,39.8],
    [2251,"FF1721AC76217484","กองดิจิทัลเพื่อการควบคุมโรค","2023-10-08T00:00:00",6,19.9,27.6,25.7,39.6],
    [2252,"FF1721AC76217484","กองดิจิทัลเพื่อการควบคุมโรค","2023-10-08T00:00:00",7,22.5,32.5,26.8,37.6],
    [2253,"FF1721AC76217484","กองดิจิทัลเพื่อการควบคุมโรค","2023-10-08T00:00:00",8,17.2,21.8,28.5,34.2],
    [2254,"FF1721AC76217484","กองดิจิทัลเพื่อการควบคุมโรค","2023-10-08T00:00:00",9,12.8,18.2,30.5,31.9],
    [2255,"FF1721AC76217484","กองดิจิทัลเพื่อการควบคุมโรค","2023-10-08T00:00:00",11,11.6,20.8,33.3,27.6],
    [2256,"FF1721AC76217484","กองดิจิทัลเพื่อการควบคุมโรค","2023-10-08T00:00:00",12,8.8,14.4,33.9,26.7],
    [2257,"FF1721AC76217484","กองดิจิทัลเพื่อการควบคุมโรค","2023-10-08T00:00:00",13,12.8,19,33.7,26.6],
    [2258,"FF1721AC76217484","กองดิจิทัลเพื่อการควบคุมโรค","2023-10-08T00:00:00",14,15.4,21.6,34,27],
    [2259,"FF1721AC76217484","กองดิจิทัลเพื่อการควบคุมโรค","2023-10-08T00:00:00",15,16.1,27.1,34.3,26.4],
    [2260,"FF1721AC76217484","กองดิจิทัลเพื่อการควบคุมโรค","2023-10-08T00:00:00",17,13.7,18.7,31.9,31.3],
    [2261,"FF1721AC76217484","กองดิจิทัลเพื่อการควบคุมโรค","2023-10-08T00:00:00",18,12.6,16.8,30.6,33.2],
    [2262,"FF1721AC76217484","กองดิจิทัลเพื่อการควบคุมโรค","2023-10-08T00:00:00",19,11.3,14.2,27.5,40.3],
    [2263,"FF1721AC76217484","กองดิจิทัลเพื่อการควบคุมโรค","2023-10-08T00:00:00",20,8.9,13.8,27.2,40.8],
    [2264,"FF1721AC76217484","กองดิจิทัลเพื่อการควบคุมโรค","2023-10-08T00:00:00",21,6.5,9.8,27.5,40.6],
    [2265,"FF1721AC76217484","กองดิจิทัลเพื่อการควบคุมโรค","2023-10-08T00:00:00",22,6.9,10.9,27.4,39.2],
    [2266,"FF1721AC76217484","กองดิจิทัลเพื่อการควบคุมโรค","2023-10-08T00:00:00",23,13.7,20.1,27.2,38.2],
    [2267,"FF1721AC76217484","กองดิจิทัลเพื่อการควบคุมโรค","2023-11-08T00:00:00",0,13.4,19.2,27.1,38.2],
    [2268,"FF1721AC76217484","กองดิจิทัลเพื่อการควบคุมโรค","2023-11-08T00:00:00",1,12.6,20.5,26.9,37.9],
    [2269,"FF1721AC76217484","กองดิจิทัลเพื่อการควบคุมโรค","2023-11-08T00:00:00",2,13.7,20.1,26.8,38.3],
    [2270,"FF1721AC76217484","กองดิจิทัลเพื่อการควบคุมโรค","2023-11-08T00:00:00",3,12.6,17.3,26.6,38.1],
    [2271,"FF1721AC76217484","กองดิจิทัลเพื่อการควบคุมโรค","2023-11-08T00:00:00",4,13.3,18.5,26.4,38.6],
    [2272,"FF1721AC76217484","กองดิจิทัลเพื่อการควบคุมโรค","2023-11-08T00:00:00",5,15.5,24.1,25.9,39.5],
    [2273,"FF1721AC76217484","กองดิจิทัลเพื่อการควบคุมโรค","2023-11-08T00:00:00",6,14.9,22.4,26,39.1],
    [2274,"FF1721AC76217484","กองดิจิทัลเพื่อการควบคุมโรค","2023-11-08T00:00:00",7,12.8,17.8,26.8,37.7],
    [2275,"FF1721AC76217484","กองดิจิทัลเพื่อการควบคุมโรค","2023-11-08T00:00:00",8,10.2,14,28.4,34.9],
    [2276,"FF1721AC76217484","กองดิจิทัลเพื่อการควบคุมโรค","2023-11-08T00:00:00",9,7,11.2,30.4,31.9],
    [2277,"FF1721AC76217484","กองดิจิทัลเพื่อการควบคุมโรค","2023-11-08T00:00:00",10,6.3,9.4,30.8,30.5],
    [2278,"FF1721AC76217484","กองดิจิทัลเพื่อการควบคุมโรค","2023-11-08T00:00:00",11,7.7,11.8,32,28.6],
    [2279,"FF1721AC76217484","กองดิจิทัลเพื่อการควบคุมโรค","2023-11-08T00:00:00",12,8.9,12,32.6,28.6],
    [2280,"FF1721AC76217484","กองดิจิทัลเพื่อการควบคุมโรค","2023-11-08T00:00:00",13,10,12.5,33.5,26.9],
    [2281,"FF1721AC76217484","กองดิจิทัลเพื่อการควบคุมโรค","2023-11-08T00:00:00",14,9.7,13.7,33.9,26.5],
    [2282,"FF1721AC76217484","กองดิจิทัลเพื่อการควบคุมโรค","2023-11-08T00:00:00",15,12,16.8,33.5,27.9],
    [2283,"FF1721AC76217484","กองดิจิทัลเพื่อการควบคุมโรค","2023-11-08T00:00:00",16,9.9,13.4,32.6,29.6],
    [2284,"FF1721AC76217484","กองดิจิทัลเพื่อการควบคุมโรค","2023-11-08T00:00:00",17,10.7,15.6,31.7,31.1],
    [2285,"FF1721AC76217484","กองดิจิทัลเพื่อการควบคุมโรค","2023-11-08T00:00:00",18,7,9.4,29.9,34.7],
    [2286,"FF1721AC76217484","กองดิจิทัลเพื่อการควบคุมโรค","2023-11-08T00:00:00",19,4.6,7,29,36.3],
    [2287,"FF1721AC76217484","กองดิจิทัลเพื่อการควบคุมโรค","2023-11-08T00:00:00",20,4.1,5.8,28.5,37.3],
    [2288,"FF1721AC76217484","กองดิจิทัลเพื่อการควบคุมโรค","2023-11-08T00:00:00",21,3.4,6,28.4,37.4],
    [2289,"FF1721AC76217484","กองดิจิทัลเพื่อการควบคุมโรค","2023-11-08T00:00:00",22,5.6,8.2,28.6,36.9],
    [2290,"FF1721AC76217484","กองดิจิทัลเพื่อการควบคุมโรค","2023-11-08T00:00:00",23,10,17.4,28,36.3],
    [2291,"FF1721AC76217484","กองดิจิทัลเพื่อการควบคุมโรค","2023-12-08T00:00:00",0,15.6,25.2,27.7,36.3],
    [2292,"FF1721AC76217484","กองดิจิทัลเพื่อการควบคุมโรค","2023-12-08T00:00:00",1,13.6,22,27.4,35.8],
    [2293,"FF1721AC76217484","กองดิจิทัลเพื่อการควบคุมโรค","2023-12-08T00:00:00",2,14,22,27.2,36.2],
    [2294,"FF1721AC76217484","กองดิจิทัลเพื่อการควบคุมโรค","2023-12-08T00:00:00",3,15.7,25,27.1,36.6],
    [2295,"FF1721AC76217484","กองดิจิทัลเพื่อการควบคุมโรค","2023-12-08T00:00:00",4,18,30.1,27.1,36.3],
    [2296,"FF1721AC76217484","กองดิจิทัลเพื่อการควบคุมโรค","2023-12-08T00:00:00",5,16.8,25.9,27,36.2],
    [2297,"FF1721AC76217484","กองดิจิทัลเพื่อการควบคุมโรค","2023-12-08T00:00:00",6,18.5,27.6,26.9,36.6],
    [2298,"FF1721AC76217484","กองดิจิทัลเพื่อการควบคุมโรค","2023-12-08T00:00:00",7,20.1,30.7,27.9,35.5],
    [2299,"FF1721AC76217484","กองดิจิทัลเพื่อการควบคุมโรค","2023-12-08T00:00:00",8,17.9,31,28.8,34],
    [2300,"FF1721AC76217484","กองดิจิทัลเพื่อการควบคุมโรค","2023-12-08T00:00:00",9,19.2,25.9,29.2,33.5],
    [2301,"FF1721AC76217484","กองดิจิทัลเพื่อการควบคุมโรค","2023-12-08T00:00:00",10,18.2,25.8,30.5,31.3],
    [2302,"FF1721AC76217484","กองดิจิทัลเพื่อการควบคุมโรค","2023-12-08T00:00:00",11,15.3,22.6,31.5,29.7],
    [2303,"FF1721AC76217484","กองดิจิทัลเพื่อการควบคุมโรค","2023-12-08T00:00:00",12,12.2,15.8,33,28.4],
    [2304,"FF1721AC76217484","กองดิจิทัลเพื่อการควบคุมโรค","2023-12-08T00:00:00",13,17.2,29.5,32.9,28.5],
    [2305,"FF1721AC76217484","กองดิจิทัลเพื่อการควบคุมโรค","2023-12-08T00:00:00",14,17.9,26,33.7,27.5],
    [2306,"FF1721AC76217484","กองดิจิทัลเพื่อการควบคุมโรค","2023-12-08T00:00:00",15,18.8,28.5,31.9,30.3],
    [2307,"FF1721AC76217484","กองดิจิทัลเพื่อการควบคุมโรค","2023-12-08T00:00:00",16,5.7,8.5,28.7,34.4],
    [2308,"FF1721AC76217484","กองดิจิทัลเพื่อการควบคุมโรค","2023-12-08T00:00:00",17,8.3,12.9,28.3,36],
    [2309,"FF1721AC76217484","กองดิจิทัลเพื่อการควบคุมโรค","2023-12-08T00:00:00",18,10,14.7,28.3,38],
    [2310,"FF1721AC76217484","กองดิจิทัลเพื่อการควบคุมโรค","2023-12-08T00:00:00",19,7.3,11.5,28,38.5],
    [2311,"FF1721AC76217484","กองดิจิทัลเพื่อการควบคุมโรค","2023-12-08T00:00:00",20,9.4,12.2,28,37.9],
    [2312,"FF1721AC76217484","กองดิจิทัลเพื่อการควบคุมโรค","2023-12-08T00:00:00",21,10.3,17.1,28.1,38.7],
    [2313,"FF1721AC76217484","กองดิจิทัลเพื่อการควบคุมโรค","2023-12-08T00:00:00",22,13,20.8,27.7,38.1],
    [2314,"FF1721AC76217484","กองดิจิทัลเพื่อการควบคุมโรค","2023-12-08T00:00:00",23,12.7,18,27.7,36.9],
    [2315,"FF1721AC76217484","กองดิจิทัลเพื่อการควบคุมโรค","2023-08-13T00:00:00",0,12.3,18.3,27.3,37.1],
    [2316,"FF1721AC76217484","กองดิจิทัลเพื่อการควบคุมโรค","2023-08-13T00:00:00",2,11.8,15.2,26.4,37.8],
    [2317,"FF1721AC76217484","กองดิจิทัลเพื่อการควบคุมโรค","2023-08-13T00:00:00",3,10.6,16.7,26.6,37.7],
    [2318,"FF1721AC76217484","กองดิจิทัลเพื่อการควบคุมโรค","2023-08-13T00:00:00",4,8.9,12.2,26.6,37.7],
    [2319,"FF1721AC76217484","กองดิจิทัลเพื่อการควบคุมโรค","2023-08-13T00:00:00",5,8.9,14.9,26.2,38.2],
    [2320,"FF1721AC76217484","กองดิจิทัลเพื่อการควบคุมโรค","2023-08-13T00:00:00",7,13.4,22.7,27.4,37.4],
    [2321,"FF1721AC76217484","กองดิจิทัลเพื่อการควบคุมโรค","2023-08-13T00:00:00",8,12.2,19.8,28.9,34.7],
    [2322,"FF1721AC76217484","กองดิจิทัลเพื่อการควบคุมโรค","2023-08-13T00:00:00",9,10.4,17.1,30.8,31.6],
    [2323,"FF1721AC76217484","กองดิจิทัลเพื่อการควบคุมโรค","2023-08-13T00:00:00",10,9.8,15.4,31.9,29.3],
    [2324,"FF1721AC76217484","กองดิจิทัลเพื่อการควบคุมโรค","2023-08-13T00:00:00",11,9.2,13.2,33.5,27.5],
    [2325,"FF1721AC76217484","กองดิจิทัลเพื่อการควบคุมโรค","2023-08-13T00:00:00",12,9.8,14.6,33.4,26.8],
    [2326,"FF1721AC76217484","กองดิจิทัลเพื่อการควบคุมโรค","2023-08-13T00:00:00",13,10.3,16,34.8,25.5],
    [2327,"FF1721AC76217484","กองดิจิทัลเพื่อการควบคุมโรค","2023-08-13T00:00:00",14,12.3,18.9,35.1,25.6],
    [2328,"FF1721AC76217484","กองดิจิทัลเพื่อการควบคุมโรค","2023-08-13T00:00:00",15,14.1,18.4,33.9,27.1],
    [2329,"FF1721AC76217484","กองดิจิทัลเพื่อการควบคุมโรค","2023-08-13T00:00:00",16,11.8,16.8,33.6,27.1],
    [2330,"FF1721AC76217484","กองดิจิทัลเพื่อการควบคุมโรค","2023-08-13T00:00:00",17,10.5,15.5,30.8,32.2],
    [2331,"FF1721AC76217484","กองดิจิทัลเพื่อการควบคุมโรค","2023-08-13T00:00:00",18,8.6,11.7,27.9,36.8],
    [2332,"FF1721AC76217484","กองดิจิทัลเพื่อการควบคุมโรค","2023-08-13T00:00:00",19,11,14.9,28,38.9],
    [2333,"FF1721AC76217484","กองดิจิทัลเพื่อการควบคุมโรค","2023-08-13T00:00:00",20,10.3,17.2,28.3,38.6],
    [2334,"FF1721AC76217484","กองดิจิทัลเพื่อการควบคุมโรค","2023-08-13T00:00:00",21,10.1,15,28.5,38],
    [2335,"FF1721AC76217484","กองดิจิทัลเพื่อการควบคุมโรค","2023-08-13T00:00:00",22,10.5,14.1,28.4,38.9],
    [2336,"FF1721AC76217484","กองดิจิทัลเพื่อการควบคุมโรค","2023-08-13T00:00:00",23,9.6,15.1,28.2,39.7],
    [2337,"FF1721AC76217484","กองดิจิทัลเพื่อการควบคุมโรค","2023-08-14T00:00:00",0,12,18,28,39.5],
    [2338,"FF1721AC76217484","กองดิจิทัลเพื่อการควบคุมโรค","2023-08-14T00:00:00",1,16.8,25.2,27.9,38.3],
    [2339,"FF1721AC76217484","กองดิจิทัลเพื่อการควบคุมโรค","2023-08-14T00:00:00",2,15.7,25,27.5,38.6],
    [2340,"FF1721AC76217484","กองดิจิทัลเพื่อการควบคุมโรค","2023-08-14T00:00:00",3,17.3,27.3,27.1,38.7],
    [2341,"FF1721AC76217484","กองดิจิทัลเพื่อการควบคุมโรค","2023-08-14T00:00:00",4,14.2,22,26.9,38.1],
    [2342,"FF1721AC76217484","กองดิจิทัลเพื่อการควบคุมโรค","2023-08-14T00:00:00",5,12.2,22.3,26.5,38.1],
    [2343,"FF1721AC76217484","กองดิจิทัลเพื่อการควบคุมโรค","2023-08-14T00:00:00",6,14.8,23,26.7,37.8],
    [2344,"FF1721AC76217484","กองดิจิทัลเพื่อการควบคุมโรค","2023-08-14T00:00:00",7,14.6,27.3,27.3,36.9],
    [2345,"FF1721AC76217484","กองดิจิทัลเพื่อการควบคุมโรค","2023-08-14T00:00:00",8,14.1,22.8,29,34],
    [2346,"FF1721AC76217484","กองดิจิทัลเพื่อการควบคุมโรค","2023-08-14T00:00:00",9,12.9,19.9,31.2,30.8],
    [2347,"FF1721AC76217484","กองดิจิทัลเพื่อการควบคุมโรค","2023-08-14T00:00:00",10,30.9,25.1,32.1,29.3],
    [2348,"FF1721AC76217484","กองดิจิทัลเพื่อการควบคุมโรค","2023-08-14T00:00:00",11,10.3,15.4,33.1,28.3],
    [2349,"FF1721AC76217484","กองดิจิทัลเพื่อการควบคุมโรค","2023-08-14T00:00:00",12,11.1,15.1,33.1,28.1],
    [2350,"FF1721AC76217484","กองดิจิทัลเพื่อการควบคุมโรค","2023-08-14T00:00:00",13,10.5,15.4,33.9,27.7],
    [2351,"FF1721AC76217484","กองดิจิทัลเพื่อการควบคุมโรค","2023-08-14T00:00:00",14,10.3,15.2,33.3,28.4],
    [2352,"FF1721AC76217484","กองดิจิทัลเพื่อการควบคุมโรค","2023-08-14T00:00:00",15,16.9,29.7,33,28.5],
    [2353,"FF1721AC76217484","กองดิจิทัลเพื่อการควบคุมโรค","2023-08-14T00:00:00",16,9.5,15.2,29.8,33.2],
    [2354,"FF1721AC76217484","กองดิจิทัลเพื่อการควบคุมโรค","2023-08-14T00:00:00",17,7.7,10.8,28,35.8],
    [2355,"FF1721AC76217484","กองดิจิทัลเพื่อการควบคุมโรค","2023-08-14T00:00:00",18,6.7,11.2,28,36.8],
    [2356,"FF1721AC76217484","กองดิจิทัลเพื่อการควบคุมโรค","2023-08-14T00:00:00",19,6.3,10.3,28,38],
    [2357,"FF1721AC76217484","กองดิจิทัลเพื่อการควบคุมโรค","2023-08-14T00:00:00",20,6.9,9.7,28.2,38.9],
    [2358,"FF1721AC76217484","กองดิจิทัลเพื่อการควบคุมโรค","2023-08-14T00:00:00",21,6.8,9.9,28.3,38.2],
    [2359,"FF1721AC76217484","กองดิจิทัลเพื่อการควบคุมโรค","2023-08-14T00:00:00",22,9.2,13.7,28.3,37],
    [2360,"FF1721AC76217484","กองดิจิทัลเพื่อการควบคุมโรค","2023-08-14T00:00:00",23,11.7,16,28.1,36.1],
    [2361,"FF1721AC76217484","กองดิจิทัลเพื่อการควบคุมโรค","2023-08-15T00:00:00",0,11.9,17.9,27.7,35.8],
    [2362,"FF1721AC76217484","กองดิจิทัลเพื่อการควบคุมโรค","2023-08-15T00:00:00",1,12.4,20.6,27.1,36.4],
    [2363,"FF1721AC76217484","กองดิจิทัลเพื่อการควบคุมโรค","2023-08-15T00:00:00",2,16.3,25,26.8,36.9],
    [2364,"FF1721AC76217484","กองดิจิทัลเพื่อการควบคุมโรค","2023-08-15T00:00:00",3,14.6,22.4,26.6,37],
    [2365,"FF1721AC76217484","กองดิจิทัลเพื่อการควบคุมโรค","2023-08-15T00:00:00",4,14.8,22,26.5,37.3],
    [2366,"FF1721AC76217484","กองดิจิทัลเพื่อการควบคุมโรค","2023-08-15T00:00:00",5,16.3,25.2,26.3,37.6],
    [2367,"FF1721AC76217484","กองดิจิทัลเพื่อการควบคุมโรค","2023-08-15T00:00:00",6,20.6,29.8,26.7,36.9],
    [2368,"FF1721AC76217484","กองดิจิทัลเพื่อการควบคุมโรค","2023-08-15T00:00:00",7,15.1,21.1,27.7,35],
    [2369,"FF1721AC76217484","กองดิจิทัลเพื่อการควบคุมโรค","2023-08-15T00:00:00",8,22.6,32.1,29,33.1],
    [2370,"FF1721AC76217484","กองดิจิทัลเพื่อการควบคุมโรค","2023-08-15T00:00:00",9,16.9,22.3,30,32.1],
    [2371,"FF1721AC76217484","กองดิจิทัลเพื่อการควบคุมโรค","2023-08-15T00:00:00",10,13.6,23.7,30.9,30.8],
    [2372,"FF1721AC76217484","กองดิจิทัลเพื่อการควบคุมโรค","2023-08-15T00:00:00",11,9.7,14.4,32.1,29],
    [2373,"FF1721AC76217484","กองดิจิทัลเพื่อการควบคุมโรค","2023-08-15T00:00:00",12,10.4,14.9,32.2,28.9],
    [2374,"FF1721AC76217484","กองดิจิทัลเพื่อการควบคุมโรค","2023-08-15T00:00:00",13,16.8,25.9,32.5,28.9],
    [2375,"FF1721AC76217484","กองดิจิทัลเพื่อการควบคุมโรค","2023-08-15T00:00:00",14,15.3,22.9,33,29.2],
    [2376,"FF1721AC76217484","กองดิจิทัลเพื่อการควบคุมโรค","2023-08-15T00:00:00",15,9.4,12.1,26.4,40.2],
    [2377,"FF1721AC76217484","กองดิจิทัลเพื่อการควบคุมโรค","2023-08-15T00:00:00",16,11.8,14.3,25.7,42.6],
    [2378,"FF1721AC76217484","กองดิจิทัลเพื่อการควบคุมโรค","2023-08-15T00:00:00",17,9.6,13.7,27.5,38.9],
    [2379,"FF1721AC76217484","กองดิจิทัลเพื่อการควบคุมโรค","2023-08-15T00:00:00",18,6.5,8.6,24.6,43.6],
    [2380,"FF1721AC76217484","กองดิจิทัลเพื่อการควบคุมโรค","2023-08-15T00:00:00",19,4.6,5.4,24.3,44.4],
    [2381,"FF1721AC76217484","กองดิจิทัลเพื่อการควบคุมโรค","2023-08-15T00:00:00",20,6.3,9.1,24.7,42.8],
    [2382,"FF1721AC76217484","กองดิจิทัลเพื่อการควบคุมโรค","2023-08-15T00:00:00",21,5.6,6.7,24.8,42.4],
    [2383,"FF1721AC76217484","กองดิจิทัลเพื่อการควบคุมโรค","2023-08-15T00:00:00",22,5.6,8.9,25,41.8],
    [2384,"FF1721AC76217484","กองดิจิทัลเพื่อการควบคุมโรค","2023-08-15T00:00:00",23,9.2,13.7,25.1,41.6],
    [2385,"FF1721AC76217484","กองดิจิทัลเพื่อการควบคุมโรค","2023-08-16T00:00:00",0,8.5,10.3,25,40.9],
    [2386,"FF1721AC76217484","กองดิจิทัลเพื่อการควบคุมโรค","2023-08-16T00:00:00",1,6.1,8.3,25.2,39.3],
    [2387,"FF1721AC76217484","กองดิจิทัลเพื่อการควบคุมโรค","2023-08-16T00:00:00",2,5.1,6.9,25.5,38.6],
    [2388,"FF1721AC76217484","กองดิจิทัลเพื่อการควบคุมโรค","2023-08-16T00:00:00",3,5.8,6.5,25.3,39],
    [2389,"FF1721AC76217484","กองดิจิทัลเพื่อการควบคุมโรค","2023-08-16T00:00:00",4,9.1,12.5,25.2,39.3],
    [2390,"FF1721AC76217484","กองดิจิทัลเพื่อการควบคุมโรค","2023-08-16T00:00:00",5,11.2,14.9,25.3,39.5],
    [2391,"FF1721AC76217484","กองดิจิทัลเพื่อการควบคุมโรค","2023-08-16T00:00:00",6,14,19,25.4,39.6],
    [2392,"FF1721AC76217484","กองดิจิทัลเพื่อการควบคุมโรค","2023-08-16T00:00:00",7,16.9,23.9,26.5,37.9],
    [2393,"FF1721AC76217484","กองดิจิทัลเพื่อการควบคุมโรค","2023-08-16T00:00:00",8,17.6,24.5,29,34],
    [2394,"FF1721AC76217484","กองดิจิทัลเพื่อการควบคุมโรค","2023-08-16T00:00:00",9,10.5,15.3,29.5,32.3],
    [2395,"FF1721AC76217484","กองดิจิทัลเพื่อการควบคุมโรค","2023-08-16T00:00:00",10,20.1,26.1,30.1,31.5],
    [2396,"FF1721AC76217484","กองดิจิทัลเพื่อการควบคุมโรค","2023-08-16T00:00:00",11,16.9,27,30.6,31.1],
    [2397,"FF1721AC76217484","กองดิจิทัลเพื่อการควบคุมโรค","2023-08-16T00:00:00",12,11.2,14.3,30.7,30.3],
    [2398,"FF1721AC76217484","กองดิจิทัลเพื่อการควบคุมโรค","2023-08-16T00:00:00",13,8.7,15.8,31.3,29.4],
    [2399,"FF1721AC76217484","กองดิจิทัลเพื่อการควบคุมโรค","2023-08-16T00:00:00",14,7.5,9.1,31.2,29.7],
    [2400,"FF1721AC76217484","กองดิจิทัลเพื่อการควบคุมโรค","2023-08-16T00:00:00",15,8.6,10.1,30.7,30.3],
    [2401,"FF1721AC76217484","กองดิจิทัลเพื่อการควบคุมโรค","2023-08-16T00:00:00",16,8,11.4,30.7,30.8],
    [2402,"FF1721AC76217484","กองดิจิทัลเพื่อการควบคุมโรค","2023-08-16T00:00:00",17,7,9.5,30.1,31.3],
    [2403,"FF1721AC76217484","กองดิจิทัลเพื่อการควบคุมโรค","2023-08-16T00:00:00",18,5.6,7.8,29.3,32.5],
    [2404,"FF1721AC76217484","กองดิจิทัลเพื่อการควบคุมโรค","2023-08-16T00:00:00",19,7.5,11.2,28.9,33.9],
    [2405,"FF1721AC76217484","กองดิจิทัลเพื่อการควบคุมโรค","2023-08-16T00:00:00",20,7.2,10.3,28.3,36.1],
    [2406,"FF1721AC76217484","กองดิจิทัลเพื่อการควบคุมโรค","2023-08-16T00:00:00",21,9.7,14.5,27.9,37.3],
    [2407,"FF1721AC76217484","กองดิจิทัลเพื่อการควบคุมโรค","2023-08-16T00:00:00",22,15.3,22.8,27.6,37.9],
    [2408,"FF1721AC76217484","กองดิจิทัลเพื่อการควบคุมโรค","2023-08-16T00:00:00",23,16.1,21.6,27.3,36],
    [2409,"FF1721AC76217484","กองดิจิทัลเพื่อการควบคุมโรค","2023-08-17T00:00:00",0,15.3,21.7,26.7,36.2],
    [2410,"FF1721AC76217484","กองดิจิทัลเพื่อการควบคุมโรค","2023-08-17T00:00:00",1,15.6,20.8,26.5,36.1],
    [2411,"FF1721AC76217484","กองดิจิทัลเพื่อการควบคุมโรค","2023-08-17T00:00:00",2,12.8,18.8,26,36.7],
    [2412,"FF1721AC76217484","กองดิจิทัลเพื่อการควบคุมโรค","2023-08-17T00:00:00",3,14,18,25.4,37.5],
    [2413,"FF1721AC76217484","กองดิจิทัลเพื่อการควบคุมโรค","2023-08-17T00:00:00",4,14,21,25.8,37],
    [2414,"FF1721AC76217484","กองดิจิทัลเพื่อการควบคุมโรค","2023-08-17T00:00:00",5,18.6,26.5,25.8,36.8],
    [2415,"FF1721AC76217484","กองดิจิทัลเพื่อการควบคุมโรค","2023-08-17T00:00:00",6,24,38.3,26.1,36.5],
    [2416,"FF1721AC76217484","กองดิจิทัลเพื่อการควบคุมโรค","2023-08-17T00:00:00",8,18,26.3,28.1,34.7],
    [2417,"FF1721AC76217484","กองดิจิทัลเพื่อการควบคุมโรค","2023-08-17T00:00:00",9,10.9,16.7,29.9,30.9],
    [2418,"FF1721AC76217484","กองดิจิทัลเพื่อการควบคุมโรค","2023-08-17T00:00:00",10,9.1,13.9,30.5,29.7],
    [2419,"FF1721AC76217484","กองดิจิทัลเพื่อการควบคุมโรค","2023-08-17T00:00:00",11,10.3,12.9,32.1,28],
    [2420,"FF1721AC76217484","กองดิจิทัลเพื่อการควบคุมโรค","2023-08-17T00:00:00",12,12.3,19.3,33.3,26.8],
    [2421,"FF1721AC76217484","กองดิจิทัลเพื่อการควบคุมโรค","2023-08-17T00:00:00",13,14.1,19.7,33.1,26.7],
    [2422,"FF1721AC76217484","กองดิจิทัลเพื่อการควบคุมโรค","2023-08-17T00:00:00",14,17.3,25.4,33.4,26.2],
    [2423,"FF1721AC76217484","กองดิจิทัลเพื่อการควบคุมโรค","2023-08-17T00:00:00",15,12.1,16.7,33.5,26.1],
    [2424,"FF1721AC76217484","กองดิจิทัลเพื่อการควบคุมโรค","2023-08-17T00:00:00",16,14.2,21.6,32.5,26.8],
    [2425,"FF1721AC76217484","กองดิจิทัลเพื่อการควบคุมโรค","2023-08-17T00:00:00",17,14.5,18.4,27.7,35.5],
    [2426,"FF1721AC76217484","กองดิจิทัลเพื่อการควบคุมโรค","2023-08-17T00:00:00",18,11.8,15.9,26.5,37.9],
    [2427,"FF1721AC76217484","กองดิจิทัลเพื่อการควบคุมโรค","2023-08-17T00:00:00",19,5.8,8.6,25.1,39.2],
    [2428,"FF1721AC76217484","กองดิจิทัลเพื่อการควบคุมโรค","2023-08-17T00:00:00",20,5,7.5,24,42.1],
    [2429,"FF1721AC76217484","กองดิจิทัลเพื่อการควบคุมโรค","2023-08-17T00:00:00",21,5.2,8.1,24.4,41.3],
    [2430,"FF1721AC76217484","กองดิจิทัลเพื่อการควบคุมโรค","2023-08-17T00:00:00",22,10.2,13.7,24.9,40.6],
    [2431,"FF1721AC76217484","กองดิจิทัลเพื่อการควบคุมโรค","2023-08-17T00:00:00",23,10,13.6,25.4,39.1],
    [2432,"FF1721AC76217484","กองดิจิทัลเพื่อการควบคุมโรค","2023-08-18T00:00:00",0,8.7,12.3,25.8,37.8],
    [2433,"FF1721AC76217484","กองดิจิทัลเพื่อการควบคุมโรค","2023-08-18T00:00:00",1,8.3,12.5,25.6,38.1],
    [2434,"FF1721AC76217484","กองดิจิทัลเพื่อการควบคุมโรค","2023-08-18T00:00:00",2,7.3,10.9,25.5,37.9],
    [2435,"FF1721AC76217484","กองดิจิทัลเพื่อการควบคุมโรค","2023-08-18T00:00:00",3,6.9,11.9,25.2,38.6],
    [2436,"FF1721AC76217484","กองดิจิทัลเพื่อการควบคุมโรค","2023-08-18T00:00:00",4,6.7,8.5,25,38.5],
    [2437,"FF1721AC76217484","กองดิจิทัลเพื่อการควบคุมโรค","2023-08-18T00:00:00",5,5.5,6.8,25,38.2],
    [2438,"FF1721AC76217484","กองดิจิทัลเพื่อการควบคุมโรค","2023-08-18T00:00:00",6,8.9,12.7,24.9,38],
    [2439,"FF1721AC76217484","กองดิจิทัลเพื่อการควบคุมโรค","2023-08-18T00:00:00",7,10.3,15.5,25.7,37.1],
    [2440,"FF1721AC76217484","กองดิจิทัลเพื่อการควบคุมโรค","2023-08-18T00:00:00",8,15.1,20.3,27.7,34.4],
    [2441,"FF1721AC76217484","กองดิจิทัลเพื่อการควบคุมโรค","2023-08-18T00:00:00",9,20.8,27.8,29.4,32.2],
    [2442,"FF1721AC76217484","กองดิจิทัลเพื่อการควบคุมโรค","2023-08-18T00:00:00",10,19,29.1,31,30.1],
    [2443,"FF1721AC76217484","กองดิจิทัลเพื่อการควบคุมโรค","2023-08-18T00:00:00",11,14.1,19.1,32.5,28.2],
    [2444,"FF1721AC76217484","กองดิจิทัลเพื่อการควบคุมโรค","2023-08-18T00:00:00",12,9.6,15,32.8,27.5],
    [2445,"FF1721AC76217484","กองดิจิทัลเพื่อการควบคุมโรค","2023-08-18T00:00:00",13,11.8,18.2,33.1,26.9],
    [2446,"FF1721AC76217484","กองดิจิทัลเพื่อการควบคุมโรค","2023-08-18T00:00:00",14,12.4,22.2,33.7,26.3],
    [2447,"FF1721AC76217484","กองดิจิทัลเพื่อการควบคุมโรค","2023-08-18T00:00:00",15,13.4,24.3,34.5,25.1],
    [2448,"FF1721AC76217484","กองดิจิทัลเพื่อการควบคุมโรค","2023-08-18T00:00:00",16,13.6,22.4,33.4,25.9],
    [2449,"FF1721AC76217484","กองดิจิทัลเพื่อการควบคุมโรค","2023-08-18T00:00:00",17,10.9,16.6,33.5,25.8],
    [2450,"FF1721AC76217484","กองดิจิทัลเพื่อการควบคุมโรค","2023-08-18T00:00:00",18,11.7,18.4,31.4,30.8],
    [2451,"FF1721AC76217484","กองดิจิทัลเพื่อการควบคุมโรค","2023-08-18T00:00:00",19,9.5,14.4,29.1,35.7],
    [2452,"FF1721AC76217484","กองดิจิทัลเพื่อการควบคุมโรค","2023-08-18T00:00:00",20,10.3,16,29,35.9],
    [2453,"FF1721AC76217484","กองดิจิทัลเพื่อการควบคุมโรค","2023-08-18T00:00:00",21,16.3,22.5,28.8,35],
    [2454,"FF1721AC76217484","กองดิจิทัลเพื่อการควบคุมโรค","2023-08-18T00:00:00",22,10,14.6,28.6,33.6],
    [2455,"FF1721AC76217484","กองดิจิทัลเพื่อการควบคุมโรค","2023-08-18T00:00:00",23,11.1,16.1,28,34.6],
    [2456,"FF1721AC76217484","กองดิจิทัลเพื่อการควบคุมโรค","2023-08-19T00:00:00",0,10.6,14.7,27.6,35],
    [2457,"FF1721AC76217484","กองดิจิทัลเพื่อการควบคุมโรค","2023-08-19T00:00:00",1,7.1,10.1,27.2,34.8],
    [2458,"FF1721AC76217484","กองดิจิทัลเพื่อการควบคุมโรค","2023-08-19T00:00:00",2,7.7,11.7,27,35.1],
    [2459,"FF1721AC76217484","กองดิจิทัลเพื่อการควบคุมโรค","2023-08-19T00:00:00",3,8,12.3,26.7,35.5],
    [2460,"FF1721AC76217484","กองดิจิทัลเพื่อการควบคุมโรค","2023-08-19T00:00:00",4,8.9,13.6,26.7,35.8],
    [2461,"FF1721AC76217484","กองดิจิทัลเพื่อการควบคุมโรค","2023-08-19T00:00:00",5,9.2,15,26.2,36.6],
    [2462,"FF1721AC76217484","กองดิจิทัลเพื่อการควบคุมโรค","2023-08-19T00:00:00",6,11.1,19.1,26.1,37],
    [2463,"FF1721AC76217484","กองดิจิทัลเพื่อการควบคุมโรค","2023-08-19T00:00:00",7,11.5,16.8,26.6,36.1],
    [2464,"FF1721AC76217484","กองดิจิทัลเพื่อการควบคุมโรค","2023-08-19T00:00:00",8,15.5,23.4,28,34],
    [2465,"FF1721AC76217484","กองดิจิทัลเพื่อการควบคุมโรค","2023-08-19T00:00:00",9,20.9,29.9,30,31.1],
    [2466,"FF1721AC76217484","กองดิจิทัลเพื่อการควบคุมโรค","2023-08-19T00:00:00",10,15.4,23.5,32.1,28.9],
    [2467,"FF1721AC76217484","กองดิจิทัลเพื่อการควบคุมโรค","2023-08-19T00:00:00",11,15.5,23.3,32.2,28.1],
    [2468,"FF1721AC76217484","กองดิจิทัลเพื่อการควบคุมโรค","2023-08-19T00:00:00",12,13.8,21.2,33.4,26.5],
    [2469,"FF1721AC76217484","กองดิจิทัลเพื่อการควบคุมโรค","2023-08-19T00:00:00",13,13.6,17.8,34.5,24.8],
    [2470,"FF1721AC76217484","กองดิจิทัลเพื่อการควบคุมโรค","2023-08-19T00:00:00",14,12.2,20.6,34.5,24.5],
    [2471,"FF1721AC76217484","กองดิจิทัลเพื่อการควบคุมโรค","2023-08-19T00:00:00",15,16.4,23.5,34.2,24.8],
    [2472,"FF1721AC76217484","กองดิจิทัลเพื่อการควบคุมโรค","2023-08-19T00:00:00",16,18.4,27.1,34.1,25.1],
    [2473,"FF1721AC76217484","กองดิจิทัลเพื่อการควบคุมโรค","2023-08-19T00:00:00",17,23.5,35.1,33.3,25.9],
    [2474,"FF1721AC76217484","กองดิจิทัลเพื่อการควบคุมโรค","2023-08-19T00:00:00",18,23.4,36.1,33.2,26.6],
    [2475,"FF1721AC76217484","กองดิจิทัลเพื่อการควบคุมโรค","2023-08-19T00:00:00",19,20.3,34.1,31.5,31.9],
    [2476,"FF1721AC76217484","กองดิจิทัลเพื่อการควบคุมโรค","2023-08-19T00:00:00",20,19.9,28.6,29.1,35.7],
    [2477,"FF1721AC76217484","กองดิจิทัลเพื่อการควบคุมโรค","2023-08-19T00:00:00",21,15.3,26.6,28.5,34.4],
    [2478,"FF1721AC76217484","กองดิจิทัลเพื่อการควบคุมโรค","2023-08-19T00:00:00",22,12.9,17.5,28.5,34.3],
    [2479,"FF1721AC76217484","กองดิจิทัลเพื่อการควบคุมโรค","2023-08-19T00:00:00",23,12.3,18.4,28.3,34.8],
    [2480,"FF1721AC76217484","กองดิจิทัลเพื่อการควบคุมโรค","2023-08-20T00:00:00",0,11.6,16.2,28.1,35.1],
    [2481,"FF1721AC76217484","กองดิจิทัลเพื่อการควบคุมโรค","2023-08-20T00:00:00",1,13.3,18.9,27.9,35.2],
    [2482,"FF1721AC76217484","กองดิจิทัลเพื่อการควบคุมโรค","2023-08-20T00:00:00",2,13.9,19.8,27.6,35.7],
    [2483,"FF1721AC76217484","กองดิจิทัลเพื่อการควบคุมโรค","2023-08-20T00:00:00",3,13.6,20.2,27.4,36.1],
    [2484,"FF1721AC76217484","กองดิจิทัลเพื่อการควบคุมโรค","2023-08-20T00:00:00",4,13.7,22.4,27.4,36],
    [2485,"FF1721AC76217484","กองดิจิทัลเพื่อการควบคุมโรค","2023-08-20T00:00:00",5,14.3,20.1,27.1,36.5],
    [2486,"FF1721AC76217484","กองดิจิทัลเพื่อการควบคุมโรค","2023-08-20T00:00:00",6,13.8,20.7,27,36.4],
    [2487,"FF1721AC76217484","กองดิจิทัลเพื่อการควบคุมโรค","2023-08-20T00:00:00",7,14.9,22.6,27.6,35.6],
    [2488,"FF1721AC76217484","กองดิจิทัลเพื่อการควบคุมโรค","2023-08-20T00:00:00",8,15.1,22.6,28.1,34.8],
    [2489,"FF1721AC76217484","กองดิจิทัลเพื่อการควบคุมโรค","2023-08-20T00:00:00",9,15.8,24.3,29.3,33.6],
    [2490,"FF1721AC76217484","กองดิจิทัลเพื่อการควบคุมโรค","2023-08-20T00:00:00",10,17.6,27,31.6,30.5],
    [2491,"FF1721AC76217484","กองดิจิทัลเพื่อการควบคุมโรค","2023-08-20T00:00:00",11,16.5,22.3,32.7,29.3],
    [2492,"FF1721AC76217484","กองดิจิทัลเพื่อการควบคุมโรค","2023-08-20T00:00:00",12,16.7,26,34.7,26.5],
    [2493,"FF1721AC76217484","กองดิจิทัลเพื่อการควบคุมโรค","2023-08-20T00:00:00",13,15.3,20.1,35.3,25.9],
    [2494,"FF1721AC76217484","กองดิจิทัลเพื่อการควบคุมโรค","2023-08-20T00:00:00",14,19.9,31.1,33.7,28],
    [2495,"FF1721AC76217484","กองดิจิทัลเพื่อการควบคุมโรค","2023-08-20T00:00:00",15,19.4,30.3,32.8,28.9],
    [2496,"FF1721AC76217484","กองดิจิทัลเพื่อการควบคุมโรค","2023-08-20T00:00:00",16,18.6,28.9,29,36.8],
    [2497,"FF1721AC76217484","กองดิจิทัลเพื่อการควบคุมโรค","2023-08-20T00:00:00",17,21.1,31.9,27.3,40.4],
    [2498,"FF1721AC76217484","กองดิจิทัลเพื่อการควบคุมโรค","2023-08-20T00:00:00",18,15.7,22.7,24.9,41.7],
    [2499,"FF1721AC76217484","กองดิจิทัลเพื่อการควบคุมโรค","2023-08-20T00:00:00",19,13.4,16.3,25,40.3],
    [2500,"FF1721AC76217484","กองดิจิทัลเพื่อการควบคุมโรค","2023-08-20T00:00:00",20,13.1,18.7,25.7,40.8],
    [2501,"FF1721AC76217484","กองดิจิทัลเพื่อการควบคุมโรค","2023-08-20T00:00:00",21,14.2,18.8,25,42.9],
    [2502,"FF1721AC76217484","กองดิจิทัลเพื่อการควบคุมโรค","2023-08-20T00:00:00",22,15.2,22.7,25.1,44.6],
    [2503,"FF1721AC76217484","กองดิจิทัลเพื่อการควบคุมโรค","2023-08-20T00:00:00",23,8.6,13.1,25,44.5],
    [2504,"FF1721AC76217484","กองดิจิทัลเพื่อการควบคุมโรค","2023-08-21T00:00:00",0,7.4,11.1,24.5,44],
    [2505,"FF1721AC76217484","กองดิจิทัลเพื่อการควบคุมโรค","2023-08-21T00:00:00",1,6.3,7.5,24.3,43.4],
    [2506,"FF1721AC76217484","กองดิจิทัลเพื่อการควบคุมโรค","2023-08-21T00:00:00",2,7,13,24.5,42.5],
    [2507,"FF1721AC76217484","กองดิจิทัลเพื่อการควบคุมโรค","2023-08-21T00:00:00",3,17,32,25.3,41.5],
    [2508,"FF1721AC76217484","กองดิจิทัลเพื่อการควบคุมโรค","2023-08-21T00:00:00",4,23.8,36.4,24.6,43.1],
    [2509,"FF1721AC76217484","กองดิจิทัลเพื่อการควบคุมโรค","2023-08-21T00:00:00",5,32.3,50.8,25,42.9],
    [2510,"FF1721AC76217484","กองดิจิทัลเพื่อการควบคุมโรค","2023-08-21T00:00:00",6,26.5,40.7,24.9,43.7],
    [2511,"FF1721AC76217484","กองดิจิทัลเพื่อการควบคุมโรค","2023-08-21T00:00:00",7,25.7,40.8,25.8,42.5],
    [2512,"FF1721AC76217484","กองดิจิทัลเพื่อการควบคุมโรค","2023-08-21T00:00:00",8,19.7,29.8,27.5,39.4],
    [2513,"FF1721AC76217484","กองดิจิทัลเพื่อการควบคุมโรค","2023-08-21T00:00:00",9,16.7,25.1,28.9,37.2],
    [2514,"FF1721AC76217484","กองดิจิทัลเพื่อการควบคุมโรค","2023-08-21T00:00:00",10,19.1,26.6,30.4,34],
    [2515,"FF1721AC76217484","กองดิจิทัลเพื่อการควบคุมโรค","2023-08-21T00:00:00",11,31.2,45.7,31,33.1],
    [2516,"FF1721AC76217484","กองดิจิทัลเพื่อการควบคุมโรค","2023-08-21T00:00:00",12,17,21.3,31.2,32.6],
    [2517,"FF1721AC76217484","กองดิจิทัลเพื่อการควบคุมโรค","2023-08-21T00:00:00",13,6.9,9,29.9,35.3],
    [2518,"FF1721AC76217484","กองดิจิทัลเพื่อการควบคุมโรค","2023-08-21T00:00:00",14,7.7,10.8,29.3,35.5],
    [2519,"FF1721AC76217484","กองดิจิทัลเพื่อการควบคุมโรค","2023-08-21T00:00:00",15,6.9,9.2,30.4,33.9],
    [2520,"FF1721AC76217484","กองดิจิทัลเพื่อการควบคุมโรค","2023-08-21T00:00:00",16,4.5,6.5,29.7,34.7],
    [2521,"FF1721AC76217484","กองดิจิทัลเพื่อการควบคุมโรค","2023-08-21T00:00:00",17,3.3,4.9,28.3,36.7],
    [2522,"FF1721AC76217484","กองดิจิทัลเพื่อการควบคุมโรค","2023-08-21T00:00:00",18,14,21.4,27.8,34.3],
    [2523,"FF1721AC76217484","กองดิจิทัลเพื่อการควบคุมโรค","2023-08-21T00:00:00",19,18.6,26.3,27.6,34.2],
    [2524,"FF1721AC76217484","กองดิจิทัลเพื่อการควบคุมโรค","2023-08-21T00:00:00",20,19.3,26.8,27.4,35.9],
    [2525,"FF1721AC76217484","กองดิจิทัลเพื่อการควบคุมโรค","2023-08-21T00:00:00",21,4.2,6.5,26.5,41.1],
    [2526,"FF1721AC76217484","กองดิจิทัลเพื่อการควบคุมโรค","2023-08-21T00:00:00",22,5.2,8.2,26.2,43.4],
    [2527,"FF1721AC76217484","กองดิจิทัลเพื่อการควบคุมโรค","2023-08-21T00:00:00",23,13.3,18.3,25.3,43.6],
    [2528,"FF1721AC76217484","กองดิจิทัลเพื่อการควบคุมโรค","2023-08-22T00:00:00",0,12.2,16.1,25,44.4],
    [2529,"FF1721AC76217484","กองดิจิทัลเพื่อการควบคุมโรค","2023-08-22T00:00:00",1,14.8,20.8,25,44.4],
    [2530,"FF1721AC76217484","กองดิจิทัลเพื่อการควบคุมโรค","2023-08-22T00:00:00",2,13.4,19,25.2,43.9],
    [2531,"FF1721AC76217484","กองดิจิทัลเพื่อการควบคุมโรค","2023-08-22T00:00:00",4,22.7,30.2,25.6,41.8],
    [2532,"FF1721AC76217484","กองดิจิทัลเพื่อการควบคุมโรค","2023-08-22T00:00:00",5,21.6,26.6,25.3,42.8],
    [2533,"FF1721AC76217484","กองดิจิทัลเพื่อการควบคุมโรค","2023-08-22T00:00:00",6,20.5,30.8,25.2,42.9],
    [2534,"FF1721AC76217484","กองดิจิทัลเพื่อการควบคุมโรค","2023-08-22T00:00:00",7,15.6,23.6,26,40.9],
    [2535,"FF1721AC76217484","กองดิจิทัลเพื่อการควบคุมโรค","2023-08-22T00:00:00",8,10.2,14.9,28.4,35.9],
    [2536,"FF1721AC76217484","กองดิจิทัลเพื่อการควบคุมโรค","2023-08-22T00:00:00",9,7.3,10.2,29.3,33.1],
    [2537,"FF1721AC76217484","กองดิจิทัลเพื่อการควบคุมโรค","2023-08-22T00:00:00",10,7,11.1,30.9,30.8],
    [2538,"FF1721AC76217484","กองดิจิทัลเพื่อการควบคุมโรค","2023-08-22T00:00:00",11,13.8,19.1,31,30.4],
    [2539,"FF1721AC76217484","กองดิจิทัลเพื่อการควบคุมโรค","2023-08-22T00:00:00",12,26.8,37.8,31.9,30.2],
    [2540,"FF1721AC76217484","กองดิจิทัลเพื่อการควบคุมโรค","2023-08-22T00:00:00",13,13,17.1,32.5,28.4],
    [2541,"FF1721AC76217484","กองดิจิทัลเพื่อการควบคุมโรค","2023-08-22T00:00:00",14,5.8,8.1,33.2,27.2],
    [2542,"FF1721AC76217484","กองดิจิทัลเพื่อการควบคุมโรค","2023-08-22T00:00:00",15,7.7,10.7,32.6,28.3],
    [2543,"FF1721AC76217484","กองดิจิทัลเพื่อการควบคุมโรค","2023-08-22T00:00:00",16,13.6,19.1,31.6,30.8],
    [2544,"FF1721AC76217484","กองดิจิทัลเพื่อการควบคุมโรค","2023-08-22T00:00:00",17,10.8,15.4,30.8,32.3],
    [2545,"FF1721AC76217484","กองดิจิทัลเพื่อการควบคุมโรค","2023-08-22T00:00:00",18,9.5,11.3,29.8,33.5],
    [2546,"FF1721AC76217484","กองดิจิทัลเพื่อการควบคุมโรค","2023-08-22T00:00:00",19,8.8,13.2,27.6,37.2],
    [2547,"FF1721AC76217484","กองดิจิทัลเพื่อการควบคุมโรค","2023-08-22T00:00:00",20,13.8,20.3,25,44.2],
    [2548,"FF1721AC76217484","กองดิจิทัลเพื่อการควบคุมโรค","2023-08-22T00:00:00",21,3,4.6,24,44.2],
    [2549,"FF1721AC76217484","กองดิจิทัลเพื่อการควบคุมโรค","2023-08-22T00:00:00",22,4.7,6.1,24.5,43.3],
    [2550,"FF1721AC76217484","กองดิจิทัลเพื่อการควบคุมโรค","2023-08-22T00:00:00",23,7.7,9.5,25,44.3],
    [2551,"FF1721AC76217484","กองดิจิทัลเพื่อการควบคุมโรค","2023-08-23T00:00:00",0,7.1,9.9,25.3,44.9],
    [2552,"FF1721AC76217484","กองดิจิทัลเพื่อการควบคุมโรค","2023-08-23T00:00:00",1,8.1,11.8,25.4,44.9],
    [2553,"FF1721AC76217484","กองดิจิทัลเพื่อการควบคุมโรค","2023-08-23T00:00:00",2,12.8,18.2,25.7,43.9],
    [2554,"FF1721AC76217484","กองดิจิทัลเพื่อการควบคุมโรค","2023-08-23T00:00:00",3,15.2,20.4,25.2,43.7],
    [2555,"FF1721AC76217484","กองดิจิทัลเพื่อการควบคุมโรค","2023-08-23T00:00:00",4,16,25.5,25,43.6],
    [2556,"FF1721AC76217484","กองดิจิทัลเพื่อการควบคุมโรค","2023-08-23T00:00:00",5,18.5,24.2,25.2,42.9],
    [2557,"FF1721AC76217484","กองดิจิทัลเพื่อการควบคุมโรค","2023-08-23T00:00:00",6,16.6,25.4,25,42.9],
    [2558,"FF1721AC76217484","กองดิจิทัลเพื่อการควบคุมโรค","2023-08-23T00:00:00",7,13.1,24.9,25.8,40.9],
    [2559,"FF1721AC76217484","กองดิจิทัลเพื่อการควบคุมโรค","2023-08-23T00:00:00",8,12.5,17.5,26.7,38.9],
    [2560,"FF1721AC76217484","กองดิจิทัลเพื่อการควบคุมโรค","2023-08-23T00:00:00",9,8.7,13.1,28.1,36],
    [2561,"FF1721AC76217484","กองดิจิทัลเพื่อการควบคุมโรค","2023-08-23T00:00:00",10,14.7,23,28.6,35.1],
    [2562,"FF1721AC76217484","กองดิจิทัลเพื่อการควบคุมโรค","2023-08-23T00:00:00",11,17.5,25.2,29.7,33.9],
    [2563,"FF1721AC76217484","กองดิจิทัลเพื่อการควบคุมโรค","2023-08-23T00:00:00",12,12.3,15.9,30.4,32.5],
    [2564,"FF1721AC76217484","กองดิจิทัลเพื่อการควบคุมโรค","2023-08-23T00:00:00",13,13.1,17.5,30.7,31.9],
    [2565,"FF1721AC76217484","กองดิจิทัลเพื่อการควบคุมโรค","2023-08-23T00:00:00",14,8,12.6,31.8,30.3],
    [2566,"FF1721AC76217484","กองดิจิทัลเพื่อการควบคุมโรค","2023-08-23T00:00:00",15,8.9,12.4,32,29.8],
    [2567,"FF1721AC76217484","กองดิจิทัลเพื่อการควบคุมโรค","2023-08-23T00:00:00",16,11.4,17.1,30.6,32.4],
    [2568,"FF1721AC76217484","กองดิจิทัลเพื่อการควบคุมโรค","2023-08-23T00:00:00",17,2.8,4.2,23.5,44],
    [2569,"FF1721AC76217484","กองดิจิทัลเพื่อการควบคุมโรค","2023-08-23T00:00:00",18,2.3,2.8,22.6,46],
    [2570,"FF1721AC76217484","กองดิจิทัลเพื่อการควบคุมโรค","2023-08-23T00:00:00",19,4.2,6.9,23.2,45.5],
    [2571,"FF1721AC76217484","กองดิจิทัลเพื่อการควบคุมโรค","2023-08-23T00:00:00",20,6.8,9.6,24.3,45.1],
    [2572,"FF1721AC76217484","กองดิจิทัลเพื่อการควบคุมโรค","2023-08-23T00:00:00",21,7.9,10.2,24.6,45.2],
    [2573,"FF1721AC76217484","กองดิจิทัลเพื่อการควบคุมโรค","2023-08-23T00:00:00",22,7.9,9.5,24.9,45.6],
    [2574,"FF1721AC76217484","กองดิจิทัลเพื่อการควบคุมโรค","2023-08-23T00:00:00",23,10.2,14.6,25,44.3],
    [2575,"FF1721AC76217484","กองดิจิทัลเพื่อการควบคุมโรค","2023-08-24T00:00:00",0,18.2,24.9,24.6,44.1],
    [2576,"FF1721AC76217484","กองดิจิทัลเพื่อการควบคุมโรค","2023-08-24T00:00:00",1,18.1,24.5,24.7,43.5],
    [2577,"FF1721AC76217484","กองดิจิทัลเพื่อการควบคุมโรค","2023-08-24T00:00:00",2,14.4,19,24.5,43.7],
    [2578,"FF1721AC76217484","กองดิจิทัลเพื่อการควบคุมโรค","2023-08-24T00:00:00",3,14.2,19.1,24.3,43.2],
    [2579,"FF1721AC76217484","กองดิจิทัลเพื่อการควบคุมโรค","2023-08-24T00:00:00",4,13.4,20.8,24.5,42.3],
    [2580,"FF1721AC76217484","กองดิจิทัลเพื่อการควบคุมโรค","2023-08-24T00:00:00",5,15,22,24.6,41.9],
    [2581,"FF1721AC76217484","กองดิจิทัลเพื่อการควบคุมโรค","2023-08-24T00:00:00",6,23.7,31.5,25.3,41.6],
    [2582,"FF1721AC76217484","กองดิจิทัลเพื่อการควบคุมโรค","2023-08-24T00:00:00",7,26.8,37.6,26.7,39.3],
    [2583,"FF1721AC76217484","กองดิจิทัลเพื่อการควบคุมโรค","2023-08-24T00:00:00",8,15.5,25.2,28.1,36.4],
    [2584,"FF1721AC76217484","กองดิจิทัลเพื่อการควบคุมโรค","2023-08-24T00:00:00",9,16.7,23.6,29.5,34],
    [2585,"FF1721AC76217484","กองดิจิทัลเพื่อการควบคุมโรค","2023-08-24T00:00:00",10,13.8,14,30.2,32.7],
    [2586,"FF1721AC76217484","กองดิจิทัลเพื่อการควบคุมโรค","2023-08-24T00:00:00",11,10.5,14.6,31.4,31.2],
    [2587,"FF1721AC76217484","กองดิจิทัลเพื่อการควบคุมโรค","2023-08-24T00:00:00",12,8.7,12.1,32.2,30.2],
    [2588,"FF1721AC76217484","กองดิจิทัลเพื่อการควบคุมโรค","2023-08-24T00:00:00",13,6.6,9.8,32.4,30.2],
    [2589,"FF1721AC76217484","กองดิจิทัลเพื่อการควบคุมโรค","2023-08-24T00:00:00",14,6.5,9.6,32.4,30.1],
    [2590,"FF1721AC76217484","กองดิจิทัลเพื่อการควบคุมโรค","2023-08-24T00:00:00",15,4.8,6.4,24.8,43],
    [2591,"FF1721AC76217484","กองดิจิทัลเพื่อการควบคุมโรค","2023-08-24T00:00:00",16,5.2,6.5,23.4,45.5],
    [2592,"FF1721AC76217484","กองดิจิทัลเพื่อการควบคุมโรค","2023-08-24T00:00:00",17,6.3,9.4,24.2,45],
    [2593,"FF1721AC76217484","กองดิจิทัลเพื่อการควบคุมโรค","2023-08-24T00:00:00",18,11.8,15.1,24.3,45.3],
    [2594,"FF1721AC76217484","กองดิจิทัลเพื่อการควบคุมโรค","2023-08-24T00:00:00",19,10.7,18.8,24.3,44.1],
    [2595,"FF1721AC76217484","กองดิจิทัลเพื่อการควบคุมโรค","2023-08-24T00:00:00",20,4.7,6.2,23.8,44.7],
    [2596,"FF1721AC76217484","กองดิจิทัลเพื่อการควบคุมโรค","2023-08-24T00:00:00",21,4.1,7.2,24.5,44.1],
    [2597,"FF1721AC76217484","กองดิจิทัลเพื่อการควบคุมโรค","2023-08-24T00:00:00",22,4,6.2,24.8,43.8],
    [2598,"FF1721AC76217484","กองดิจิทัลเพื่อการควบคุมโรค","2023-08-24T00:00:00",23,6.6,9.2,24.6,43.7],
    [2599,"FF1721AC76217484","กองดิจิทัลเพื่อการควบคุมโรค","2023-08-25T00:00:00",0,11.7,16.4,24.8,43.5],
    [2600,"FF1721AC76217484","กองดิจิทัลเพื่อการควบคุมโรค","2023-08-25T00:00:00",1,12.5,17.5,24.6,43],
    [2601,"FF1721AC76217484","กองดิจิทัลเพื่อการควบคุมโรค","2023-08-25T00:00:00",2,10.2,13,24.4,42.9],
    [2602,"FF1721AC76217484","กองดิจิทัลเพื่อการควบคุมโรค","2023-08-25T00:00:00",3,13.8,20,24.4,42.1],
    [2603,"FF1721AC76217484","กองดิจิทัลเพื่อการควบคุมโรค","2023-08-25T00:00:00",4,13.2,18,24.8,41.5],
    [2604,"FF1721AC76217484","กองดิจิทัลเพื่อการควบคุมโรค","2023-08-25T00:00:00",5,16,21.7,24.8,41.6],
    [2605,"FF1721AC76217484","กองดิจิทัลเพื่อการควบคุมโรค","2023-08-25T00:00:00",6,22.7,32.5,25.2,40.9],
    [2606,"FF1721AC76217484","กองดิจิทัลเพื่อการควบคุมโรค","2023-08-25T00:00:00",7,30.9,45.6,26,40.1],
    [2607,"FF1721AC76217484","กองดิจิทัลเพื่อการควบคุมโรค","2023-08-25T00:00:00",8,21.9,29.4,28,36.7],
    [2608,"FF1721AC76217484","กองดิจิทัลเพื่อการควบคุมโรค","2023-08-25T00:00:00",9,17.8,26.9,29.4,34.3],
    [2609,"FF1721AC76217484","กองดิจิทัลเพื่อการควบคุมโรค","2023-08-25T00:00:00",10,5.4,8.2,30.8,31.5],
    [2610,"FF1721AC76217484","กองดิจิทัลเพื่อการควบคุมโรค","2023-08-25T00:00:00",11,6.5,8.3,30.5,32],
    [2611,"FF1721AC76217484","กองดิจิทัลเพื่อการควบคุมโรค","2023-08-25T00:00:00",12,7,9.6,32,30.2],
    [2612,"FF1721AC76217484","กองดิจิทัลเพื่อการควบคุมโรค","2023-08-25T00:00:00",13,5.4,8.4,32.1,29.7],
    [2613,"FF1721AC76217484","กองดิจิทัลเพื่อการควบคุมโรค","2023-08-25T00:00:00",14,8.9,13.1,33.1,28.3],
    [2614,"FF1721AC76217484","กองดิจิทัลเพื่อการควบคุมโรค","2023-08-25T00:00:00",15,15.5,18.6,32.4,29],
    [2615,"FF1721AC76217484","กองดิจิทัลเพื่อการควบคุมโรค","2023-08-25T00:00:00",16,9.7,10.8,32.4,28.6],
    [2616,"FF1721AC76217484","กองดิจิทัลเพื่อการควบคุมโรค","2023-08-25T00:00:00",17,6.2,8,26.6,39],
    [2617,"FF1721AC76217484","กองดิจิทัลเพื่อการควบคุมโรค","2023-08-25T00:00:00",18,5.8,8.6,22.9,45.7],
    [2618,"FF1721AC76217484","กองดิจิทัลเพื่อการควบคุมโรค","2023-08-25T00:00:00",19,6.8,9.4,23.4,44.9],
    [2619,"FF1721AC76217484","กองดิจิทัลเพื่อการควบคุมโรค","2023-08-25T00:00:00",20,4.7,6.7,24,43.7],
    [2620,"FF1721AC76217484","กองดิจิทัลเพื่อการควบคุมโรค","2023-08-25T00:00:00",21,5,7,24.2,43.4],
    [2621,"FF1721AC76217484","กองดิจิทัลเพื่อการควบคุมโรค","2023-08-25T00:00:00",22,10.3,14.1,24.1,44],
    [2622,"FF1721AC76217484","กองดิจิทัลเพื่อการควบคุมโรค","2023-08-25T00:00:00",23,12.3,15.7,24.6,43.3],
    [2623,"FF1721AC76217484","กองดิจิทัลเพื่อการควบคุมโรค","2023-08-26T00:00:00",0,14.7,18.8,24.6,43.1],
    [2624,"FF1721AC76217484","กองดิจิทัลเพื่อการควบคุมโรค","2023-08-26T00:00:00",1,30.5,44.4,24.7,42.9],
    [2625,"FF1721AC76217484","กองดิจิทัลเพื่อการควบคุมโรค","2023-08-26T00:00:00",2,12.5,15.8,24.8,41.8],
    [2626,"FF1721AC76217484","กองดิจิทัลเพื่อการควบคุมโรค","2023-08-26T00:00:00",3,6.2,8.7,24.8,41.2],
    [2627,"FF1721AC76217484","กองดิจิทัลเพื่อการควบคุมโรค","2023-08-26T00:00:00",4,11,15.7,24.6,42.1],
    [2628,"FF1721AC76217484","กองดิจิทัลเพื่อการควบคุมโรค","2023-08-26T00:00:00",5,19.1,27,24.7,43],
    [2629,"FF1721AC76217484","กองดิจิทัลเพื่อการควบคุมโรค","2023-08-26T00:00:00",6,33.3,48.5,24.8,43.2],
    [2630,"FF1721AC76217484","กองดิจิทัลเพื่อการควบคุมโรค","2023-08-26T00:00:00",7,24.9,36.6,25.6,41],
    [2631,"FF1721AC76217484","กองดิจิทัลเพื่อการควบคุมโรค","2023-08-26T00:00:00",8,22,36.5,27.1,38.1],
    [2632,"FF1721AC76217484","กองดิจิทัลเพื่อการควบคุมโรค","2023-08-26T00:00:00",9,20.1,28.8,28.5,35.2],
    [2633,"FF1721AC76217484","กองดิจิทัลเพื่อการควบคุมโรค","2023-08-26T00:00:00",10,8.6,13.4,29.4,33.7],
    [2634,"FF1721AC76217484","กองดิจิทัลเพื่อการควบคุมโรค","2023-08-26T00:00:00",11,10.3,18.4,29.7,33],
    [2635,"FF1721AC76217484","กองดิจิทัลเพื่อการควบคุมโรค","2023-08-26T00:00:00",12,10.1,14.5,29.3,34.1],
    [2636,"FF1721AC76217484","กองดิจิทัลเพื่อการควบคุมโรค","2023-08-26T00:00:00",13,10.7,14.6,29.2,34.5],
    [2637,"FF1721AC76217484","กองดิจิทัลเพื่อการควบคุมโรค","2023-08-26T00:00:00",14,13.2,16.2,29.4,34.1],
    [2638,"FF1721AC76217484","กองดิจิทัลเพื่อการควบคุมโรค","2023-08-26T00:00:00",15,10.8,15.4,30.7,32.9],
    [2639,"FF1721AC76217484","กองดิจิทัลเพื่อการควบคุมโรค","2023-08-26T00:00:00",16,11.8,16.5,30.6,32.3],
    [2640,"FF1721AC76217484","กองดิจิทัลเพื่อการควบคุมโรค","2023-08-26T00:00:00",17,9.2,14.4,30.1,32.9],
    [2641,"FF1721AC76217484","กองดิจิทัลเพื่อการควบคุมโรค","2023-08-26T00:00:00",18,7.4,9.5,29.6,33.4],
    [2642,"FF1721AC76217484","กองดิจิทัลเพื่อการควบคุมโรค","2023-08-26T00:00:00",19,7.8,10.8,28.6,35.6],
    [2643,"FF1721AC76217484","กองดิจิทัลเพื่อการควบคุมโรค","2023-08-26T00:00:00",20,6.5,9.8,27.8,36.3],
    [2644,"FF1721AC76217484","กองดิจิทัลเพื่อการควบคุมโรค","2023-08-26T00:00:00",21,7.8,12,27.5,37.5],
    [2645,"FF1721AC76217484","กองดิจิทัลเพื่อการควบคุมโรค","2023-08-26T00:00:00",22,4.6,6.7,27.5,37.8],
    [2646,"FF1721AC76217484","กองดิจิทัลเพื่อการควบคุมโรค","2023-08-26T00:00:00",23,12.4,17.9,27.2,37.3],
    [2647,"FF1721AC76217484","กองดิจิทัลเพื่อการควบคุมโรค","2023-08-27T00:00:00",0,13.4,19.5,26.7,37.3],
    [2648,"FF1721AC76217484","กองดิจิทัลเพื่อการควบคุมโรค","2023-08-27T00:00:00",1,9.9,13.9,26.5,37.2],
    [2649,"FF1721AC76217484","กองดิจิทัลเพื่อการควบคุมโรค","2023-08-27T00:00:00",2,8.6,12.5,26,37.7],
    [2650,"FF1721AC76217484","กองดิจิทัลเพื่อการควบคุมโรค","2023-08-27T00:00:00",3,8.8,13.5,25.7,37.9],
    [2651,"FF1721AC76217484","กองดิจิทัลเพื่อการควบคุมโรค","2023-08-27T00:00:00",4,17.1,24.9,25.7,38.2],
    [2652,"FF1721AC76217484","กองดิจิทัลเพื่อการควบคุมโรค","2023-08-27T00:00:00",5,14.1,22.5,25.6,37.9],
    [2653,"FF1721AC76217484","กองดิจิทัลเพื่อการควบคุมโรค","2023-08-27T00:00:00",6,18.3,27.5,26,37.4],
    [2654,"FF1721AC76217484","กองดิจิทัลเพื่อการควบคุมโรค","2023-08-27T00:00:00",7,15,20.9,27,36.1],
    [2655,"FF1721AC76217484","กองดิจิทัลเพื่อการควบคุมโรค","2023-08-27T00:00:00",8,16.5,20.4,28.6,34],
    [2656,"FF1721AC76217484","กองดิจิทัลเพื่อการควบคุมโรค","2023-08-27T00:00:00",9,10.8,17.4,28.7,33.8],
    [2657,"FF1721AC76217484","กองดิจิทัลเพื่อการควบคุมโรค","2023-08-27T00:00:00",10,10.8,13.7,29.8,32.8],
    [2658,"FF1721AC76217484","กองดิจิทัลเพื่อการควบคุมโรค","2023-08-27T00:00:00",11,7.9,10.1,30.4,32],
    [2659,"FF1721AC76217484","กองดิจิทัลเพื่อการควบคุมโรค","2023-08-27T00:00:00",12,8.1,9.7,31.4,31],
    [2660,"FF1721AC76217484","กองดิจิทัลเพื่อการควบคุมโรค","2023-08-27T00:00:00",13,8.5,13.6,32.6,29],
    [2661,"FF1721AC76217484","กองดิจิทัลเพื่อการควบคุมโรค","2023-08-27T00:00:00",14,10.6,17.4,33.1,27.7],
    [2662,"FF1721AC76217484","กองดิจิทัลเพื่อการควบคุมโรค","2023-08-27T00:00:00",15,14.5,20.6,31.7,29.6],
    [2663,"FF1721AC76217484","กองดิจิทัลเพื่อการควบคุมโรค","2023-08-27T00:00:00",16,11.3,15,31.4,29.4],
    [2664,"FF1721AC76217484","กองดิจิทัลเพื่อการควบคุมโรค","2023-08-27T00:00:00",17,10.5,12.8,30.4,30.2],
    [2665,"FF1721AC76217484","กองดิจิทัลเพื่อการควบคุมโรค","2023-08-27T00:00:00",18,12.2,18.9,30.2,30.7],
    [2666,"FF1721AC76217484","กองดิจิทัลเพื่อการควบคุมโรค","2023-08-27T00:00:00",19,12,18.3,29.7,30.8],
    [2667,"FF1721AC76217484","กองดิจิทัลเพื่อการควบคุมโรค","2023-08-27T00:00:00",20,9.7,15.4,29.1,32.1],
    [2668,"FF1721AC76217484","กองดิจิทัลเพื่อการควบคุมโรค","2023-08-27T00:00:00",21,11.2,16.9,28.5,33.3],
    [2669,"FF1721AC76217484","กองดิจิทัลเพื่อการควบคุมโรค","2023-08-27T00:00:00",22,13,18.4,28.2,33.7],
    [2670,"FF1721AC76217484","กองดิจิทัลเพื่อการควบคุมโรค","2023-08-27T00:00:00",23,12.7,18.2,27.8,34.5],
    [2671,"FF1721AC76217484","กองดิจิทัลเพื่อการควบคุมโรค","2023-08-28T00:00:00",0,8.8,12.4,27.3,35.2],
    [2672,"FF1721AC76217484","กองดิจิทัลเพื่อการควบคุมโรค","2023-08-28T00:00:00",1,6.1,10.2,27,35.4],
    [2673,"FF1721AC76217484","กองดิจิทัลเพื่อการควบคุมโรค","2023-08-28T00:00:00",2,8.8,12.4,26.7,36.2],
    [2674,"FF1721AC76217484","กองดิจิทัลเพื่อการควบคุมโรค","2023-08-28T00:00:00",3,8.7,13.2,26.6,36.5],
    [2675,"FF1721AC76217484","กองดิจิทัลเพื่อการควบคุมโรค","2023-08-28T00:00:00",4,9.1,13,26.2,37.4],
    [2676,"FF1721AC76217484","กองดิจิทัลเพื่อการควบคุมโรค","2023-08-28T00:00:00",5,7.1,11,26,37.7],
    [2677,"FF1721AC76217484","กองดิจิทัลเพื่อการควบคุมโรค","2023-08-28T00:00:00",6,7.1,9.9,26.4,37.1],
    [2678,"FF1721AC76217484","กองดิจิทัลเพื่อการควบคุมโรค","2023-08-28T00:00:00",7,5.9,10,27.2,35.8],
    [2679,"FF1721AC76217484","กองดิจิทัลเพื่อการควบคุมโรค","2023-08-28T00:00:00",8,10.5,15.9,27.9,35],
    [2680,"FF1721AC76217484","กองดิจิทัลเพื่อการควบคุมโรค","2023-08-28T00:00:00",9,8.4,11.7,28.8,33.8],
    [2681,"FF1721AC76217484","กองดิจิทัลเพื่อการควบคุมโรค","2023-08-28T00:00:00",10,6.4,11.1,30.5,30.8],
    [2682,"FF1721AC76217484","กองดิจิทัลเพื่อการควบคุมโรค","2023-08-28T00:00:00",11,6.3,9.4,32.1,28.2],
    [2683,"FF1721AC76217484","กองดิจิทัลเพื่อการควบคุมโรค","2023-08-28T00:00:00",12,5,7.7,32.6,27],
    [2684,"FF1721AC76217484","กองดิจิทัลเพื่อการควบคุมโรค","2023-08-28T00:00:00",13,7.4,11.2,33.8,26.5],
    [2685,"FF1721AC76217484","กองดิจิทัลเพื่อการควบคุมโรค","2023-08-28T00:00:00",14,7.1,13.5,34,26.8],
    [2686,"FF1721AC76217484","กองดิจิทัลเพื่อการควบคุมโรค","2023-08-28T00:00:00",15,9.4,14.6,33.5,27.2],
    [2687,"FF1721AC76217484","กองดิจิทัลเพื่อการควบคุมโรค","2023-08-28T00:00:00",16,9.2,14.8,32.3,29.4],
    [2688,"FF1721AC76217484","กองดิจิทัลเพื่อการควบคุมโรค","2023-08-28T00:00:00",17,9.4,11.9,30.7,32.2],
    [2689,"FF1721AC76217484","กองดิจิทัลเพื่อการควบคุมโรค","2023-08-28T00:00:00",18,7,9,29.7,34],
    [2690,"FF1721AC76217484","กองดิจิทัลเพื่อการควบคุมโรค","2023-08-28T00:00:00",19,6.5,9.2,29,35.5],
    [2691,"FF1721AC76217484","กองดิจิทัลเพื่อการควบคุมโรค","2023-08-28T00:00:00",20,5.7,7.9,28.6,36.6],
    [2692,"FF1721AC76217484","กองดิจิทัลเพื่อการควบคุมโรค","2023-08-28T00:00:00",21,8.9,13.6,28.6,35.7],
    [2693,"FF1721AC76217484","กองดิจิทัลเพื่อการควบคุมโรค","2023-08-28T00:00:00",22,10.2,13.6,28.4,34.3],
    [2694,"FF1721AC76217484","กองดิจิทัลเพื่อการควบคุมโรค","2023-08-28T00:00:00",23,6.8,10.7,28.1,33.8],
    [2695,"FF1721AC76217484","กองดิจิทัลเพื่อการควบคุมโรค","2023-08-29T00:00:00",0,6.6,9.7,27.5,34.3],
    [2696,"FF1721AC76217484","กองดิจิทัลเพื่อการควบคุมโรค","2023-08-29T00:00:00",1,10,13.6,27.2,35.4],
    [2697,"FF1721AC76217484","กองดิจิทัลเพื่อการควบคุมโรค","2023-08-29T00:00:00",2,11.1,15.1,26.9,36],
    [2698,"FF1721AC76217484","กองดิจิทัลเพื่อการควบคุมโรค","2023-08-29T00:00:00",3,14.8,19,26.6,36.2],
    [2699,"FF1721AC76217484","กองดิจิทัลเพื่อการควบคุมโรค","2023-08-29T00:00:00",4,13.9,19.3,26.4,36.8],
    [2700,"FF1721AC76217484","กองดิจิทัลเพื่อการควบคุมโรค","2023-08-29T00:00:00",5,11.4,16.8,26.4,36.5],
    [2701,"FF1721AC76217484","กองดิจิทัลเพื่อการควบคุมโรค","2023-08-29T00:00:00",6,11.9,15.9,26.7,36.1],
    [2702,"FF1721AC76217484","กองดิจิทัลเพื่อการควบคุมโรค","2023-08-29T00:00:00",7,10.2,16.7,27.6,35.7],
    [2703,"FF1721AC76217484","กองดิจิทัลเพื่อการควบคุมโรค","2023-08-29T00:00:00",8,6.5,9.2,28.8,33.8],
    [2704,"FF1721AC76217484","กองดิจิทัลเพื่อการควบคุมโรค","2023-08-29T00:00:00",9,7.8,10.7,29.5,32.4],
    [2705,"FF1721AC76217484","กองดิจิทัลเพื่อการควบคุมโรค","2023-08-29T00:00:00",10,9.3,11.8,31,30],
    [2706,"FF1721AC76217484","กองดิจิทัลเพื่อการควบคุมโรค","2023-08-29T00:00:00",11,12.1,15.3,31.6,29.1],
    [2707,"FF1721AC76217484","กองดิจิทัลเพื่อการควบคุมโรค","2023-08-29T00:00:00",12,8.8,13.3,31.8,29.4],
    [2708,"FF1721AC76217484","กองดิจิทัลเพื่อการควบคุมโรค","2023-08-29T00:00:00",13,9.7,13.3,32.1,28.8],
    [2709,"FF1721AC76217484","กองดิจิทัลเพื่อการควบคุมโรค","2023-08-29T00:00:00",14,13.2,17,31.3,29.9],
    [2710,"FF1721AC76217484","กองดิจิทัลเพื่อการควบคุมโรค","2023-08-29T00:00:00",15,13.3,19.8,31.2,30.6],
    [2711,"FF1721AC76217484","กองดิจิทัลเพื่อการควบคุมโรค","2023-08-29T00:00:00",16,10.1,13.1,30.6,31.5],
    [2712,"FF1721AC76217484","กองดิจิทัลเพื่อการควบคุมโรค","2023-08-29T00:00:00",17,8.7,12.7,29.5,33.5],
    [2713,"FF1721AC76217484","กองดิจิทัลเพื่อการควบคุมโรค","2023-08-29T00:00:00",18,8.1,13.2,28.6,35.2],
    [2714,"FF1721AC76217484","กองดิจิทัลเพื่อการควบคุมโรค","2023-08-29T00:00:00",19,7.2,11.8,28.2,36],
    [2715,"FF1721AC76217484","กองดิจิทัลเพื่อการควบคุมโรค","2023-08-29T00:00:00",20,4.9,6.6,27.7,35.5],
    [2716,"FF1721AC76217484","กองดิจิทัลเพื่อการควบคุมโรค","2023-08-29T00:00:00",21,3.6,5.1,27.7,36.1],
    [2717,"FF1721AC76217484","กองดิจิทัลเพื่อการควบคุมโรค","2023-08-29T00:00:00",22,5.5,7.6,27.9,37.3],
    [2718,"FF1721AC76217484","กองดิจิทัลเพื่อการควบคุมโรค","2023-08-29T00:00:00",23,4,6.1,27.8,37.2],
    [2719,"FF1721AC76217484","กองดิจิทัลเพื่อการควบคุมโรค","2023-08-30T00:00:00",0,4.1,6.4,27.8,36.6],
    [2720,"FF1721AC76217484","กองดิจิทัลเพื่อการควบคุมโรค","2023-08-30T00:00:00",1,6.9,9,27.6,36.3],
    [2721,"FF1721AC76217484","กองดิจิทัลเพื่อการควบคุมโรค","2023-08-30T00:00:00",2,8.4,14.2,27.3,36.7],
    [2722,"FF1721AC76217484","กองดิจิทัลเพื่อการควบคุมโรค","2023-08-30T00:00:00",3,10.7,19.1,27.2,37.4],
    [2723,"FF1721AC76217484","กองดิจิทัลเพื่อการควบคุมโรค","2023-08-30T00:00:00",4,12.9,23,27.5,37.2],
    [2724,"FF1721AC76217484","กองดิจิทัลเพื่อการควบคุมโรค","2023-08-30T00:00:00",5,13.6,19.6,27.1,37.7],
    [2725,"FF1721AC76217484","กองดิจิทัลเพื่อการควบคุมโรค","2023-08-30T00:00:00",6,14,21.1,26.8,38.2],
    [2726,"FF1721AC76217484","กองดิจิทัลเพื่อการควบคุมโรค","2023-08-30T00:00:00",7,13,25,28.5,36],
    [2727,"FF1721AC76217484","กองดิจิทัลเพื่อการควบคุมโรค","2023-08-30T00:00:00",8,15.3,21.9,29.1,33.7],
    [2728,"FF1721AC76217484","กองดิจิทัลเพื่อการควบคุมโรค","2023-08-30T00:00:00",9,21.5,21.8,29.1,33.4],
    [2729,"FF1721AC76217484","กองดิจิทัลเพื่อการควบคุมโรค","2023-08-30T00:00:00",10,10,14,30.8,31.3],
    [2730,"FF1721AC76217484","กองดิจิทัลเพื่อการควบคุมโรค","2023-08-30T00:00:00",11,11.1,16.7,31.5,30.3],
    [2731,"FF1721AC76217484","กองดิจิทัลเพื่อการควบคุมโรค","2023-08-30T00:00:00",12,12.4,16.6,32,29.6],
    [2732,"FF1721AC76217484","กองดิจิทัลเพื่อการควบคุมโรค","2023-08-30T00:00:00",13,14.4,19.5,33.6,28.4],
    [2733,"FF1721AC76217484","กองดิจิทัลเพื่อการควบคุมโรค","2023-08-30T00:00:00",14,14.7,21.7,32,30],
    [2734,"FF1721AC76217484","กองดิจิทัลเพื่อการควบคุมโรค","2023-08-30T00:00:00",15,14,18.2,29.3,34.8],
    [2735,"FF1721AC76217484","กองดิจิทัลเพื่อการควบคุมโรค","2023-08-30T00:00:00",16,12.3,16.1,28.2,37],
    [2736,"FF1721AC76217484","กองดิจิทัลเพื่อการควบคุมโรค","2023-08-30T00:00:00",17,10.3,14.7,28.8,36.5],
    [2737,"FF1721AC76217484","กองดิจิทัลเพื่อการควบคุมโรค","2023-08-30T00:00:00",18,7.2,10.1,28.8,36.5],
    [2738,"FF1721AC76217484","กองดิจิทัลเพื่อการควบคุมโรค","2023-08-30T00:00:00",19,5.3,9.4,28.6,37.2],
    [2739,"FF1721AC76217484","กองดิจิทัลเพื่อการควบคุมโรค","2023-08-30T00:00:00",20,9.2,13.3,28.4,37.7],
    [2740,"FF1721AC76217484","กองดิจิทัลเพื่อการควบคุมโรค","2023-08-30T00:00:00",21,10.4,16,28.5,38],
    [2741,"FF1721AC76217484","กองดิจิทัลเพื่อการควบคุมโรค","2023-08-30T00:00:00",22,9.6,12.7,28,39.1],
    [2742,"FF1721AC76217484","กองดิจิทัลเพื่อการควบคุมโรค","2023-08-30T00:00:00",23,5.4,7.5,27.6,40.7],
    [2743,"FF1721AC76217484","กองดิจิทัลเพื่อการควบคุมโรค","2023-08-31T00:00:00",0,5.6,9.2,27.8,40.7],
    [2744,"FF1721AC76217484","กองดิจิทัลเพื่อการควบคุมโรค","2023-08-31T00:00:00",1,10.5,15.9,27.7,40.8],
    [2745,"FF1721AC76217484","กองดิจิทัลเพื่อการควบคุมโรค","2023-08-31T00:00:00",2,23.6,34.6,27,41.6],
    [2746,"FF1721AC76217484","กองดิจิทัลเพื่อการควบคุมโรค","2023-08-31T00:00:00",3,26.3,40.3,26.8,42.3],
    [2747,"FF1721AC76217484","กองดิจิทัลเพื่อการควบคุมโรค","2023-08-31T00:00:00",4,31,46.1,26.3,44.2],
    [2748,"FF1721AC76217484","กองดิจิทัลเพื่อการควบคุมโรค","2023-08-31T00:00:00",5,31.5,48.1,26.1,44.7],
    [2749,"FF1721AC76217484","กองดิจิทัลเพื่อการควบคุมโรค","2023-08-31T00:00:00",6,25.4,37.8,25.6,44],
    [2750,"FF1721AC76217484","กองดิจิทัลเพื่อการควบคุมโรค","2023-08-31T00:00:00",7,19,32.1,25.9,41.2],
    [2751,"FF1721AC76217484","กองดิจิทัลเพื่อการควบคุมโรค","2023-08-31T00:00:00",8,15,22.9,27.1,37.8],
    [2752,"FF1721AC76217484","กองดิจิทัลเพื่อการควบคุมโรค","2023-08-31T00:00:00",9,17.2,25.6,28.7,35.1],
    [2753,"FF1721AC76217484","กองดิจิทัลเพื่อการควบคุมโรค","2023-08-31T00:00:00",10,16.5,24.4,32,29.7],
    [2754,"FF1721AC76217484","กองดิจิทัลเพื่อการควบคุมโรค","2023-08-31T00:00:00",11,26,33.5,32.2,28.9],
    [2755,"FF1721AC76217484","กองดิจิทัลเพื่อการควบคุมโรค","2023-08-31T00:00:00",12,15.7,28.2,33.7,27.3],
    [2756,"FF1721AC76217484","กองดิจิทัลเพื่อการควบคุมโรค","2023-08-31T00:00:00",13,17.8,32,34,26.1],
    [2757,"FF1721AC76217484","กองดิจิทัลเพื่อการควบคุมโรค","2023-08-31T00:00:00",14,17.9,34.8,34.3,24.9],
    [2758,"FF1721AC76217484","กองดิจิทัลเพื่อการควบคุมโรค","2023-08-31T00:00:00",15,19,33.6,34.3,24.9],
    [2759,"FF1721AC76217484","กองดิจิทัลเพื่อการควบคุมโรค","2023-08-31T00:00:00",16,22.2,33.1,33.7,26.6],
    [2760,"FF1721AC76217484","กองดิจิทัลเพื่อการควบคุมโรค","2023-08-31T00:00:00",17,12.1,20.5,30.3,32.5],
    [2761,"FF1721AC76217484","กองดิจิทัลเพื่อการควบคุมโรค","2023-08-31T00:00:00",18,7.2,12.7,24.6,43.6],
    [2762,"FF1721AC76217484","กองดิจิทัลเพื่อการควบคุมโรค","2023-08-31T00:00:00",20,7.5,13.5,23.9,46.1],
    [2763,"FF1721AC76217484","กองดิจิทัลเพื่อการควบคุมโรค","2023-08-31T00:00:00",21,9.7,15.8,24.3,45.6],
    [2764,"FF1721AC76217484","กองดิจิทัลเพื่อการควบคุมโรค","2023-08-31T00:00:00",22,13,20.9,24.6,45.6],
    [2765,"FF1721AC76217484","กองดิจิทัลเพื่อการควบคุมโรค","2023-08-31T00:00:00",23,13.7,20.2,24.7,45.9],
    [2766,"FF1721AC76217484","กองดิจิทัลเพื่อการควบคุมโรค","2023-01-09T00:00:00",0,13.1,20,24.3,46.6],
    [2767,"FF1721AC76217484","กองดิจิทัลเพื่อการควบคุมโรค","2023-01-09T00:00:00",1,13.3,20.1,24.5,46.1],
    [2768,"FF1721AC76217484","กองดิจิทัลเพื่อการควบคุมโรค","2023-01-09T00:00:00",2,14.9,21.9,24.5,45.8],
    [2769,"FF1721AC76217484","กองดิจิทัลเพื่อการควบคุมโรค","2023-01-09T00:00:00",3,20.7,32.2,24.7,45.1],
    [2770,"FF1721AC76217484","กองดิจิทัลเพื่อการควบคุมโรค","2023-01-09T00:00:00",4,25,37.4,24.5,45.5],
    [2771,"FF1721AC76217484","กองดิจิทัลเพื่อการควบคุมโรค","2023-01-09T00:00:00",5,25.3,38.2,24.6,45.7],
    [2772,"FF1721AC76217484","กองดิจิทัลเพื่อการควบคุมโรค","2023-01-09T00:00:00",6,27.9,40.6,24.4,45.5],
    [2773,"FF1721AC76217484","กองดิจิทัลเพื่อการควบคุมโรค","2023-01-09T00:00:00",7,18.5,26.6,25.6,43],
    [2774,"FF1721AC76217484","กองดิจิทัลเพื่อการควบคุมโรค","2023-01-09T00:00:00",8,12.1,16.2,28,38],
    [2775,"FF1721AC76217484","กองดิจิทัลเพื่อการควบคุมโรค","2023-01-09T00:00:00",9,6.9,9.2,29.8,34.7],
    [2776,"FF1721AC76217484","กองดิจิทัลเพื่อการควบคุมโรค","2023-01-09T00:00:00",10,10,14.4,29.8,32.9],
    [2777,"FF1721AC76217484","กองดิจิทัลเพื่อการควบคุมโรค","2023-01-09T00:00:00",11,11.5,15.5,31.1,31.7],
    [2778,"FF1721AC76217484","กองดิจิทัลเพื่อการควบคุมโรค","2023-01-09T00:00:00",12,8.7,12.5,31.4,31.1],
    [2779,"FF1721AC76217484","กองดิจิทัลเพื่อการควบคุมโรค","2023-01-09T00:00:00",13,10.3,16.4,32.2,30.1],
    [2780,"FF1721AC76217484","กองดิจิทัลเพื่อการควบคุมโรค","2023-01-09T00:00:00",14,9.5,14.7,33.1,29],
    [2781,"FF1721AC76217484","กองดิจิทัลเพื่อการควบคุมโรค","2023-01-09T00:00:00",15,10.5,16.2,33.4,28.5],
    [2782,"FF1721AC76217484","กองดิจิทัลเพื่อการควบคุมโรค","2023-01-09T00:00:00",16,8.6,11.9,32.3,29.5],
    [2783,"FF1721AC76217484","กองดิจิทัลเพื่อการควบคุมโรค","2023-01-09T00:00:00",17,8.9,14,29.6,34.9],
    [2784,"FF1721AC76217484","กองดิจิทัลเพื่อการควบคุมโรค","2023-01-09T00:00:00",18,8.4,13.9,29.1,35.6],
    [2785,"FF1721AC76217484","กองดิจิทัลเพื่อการควบคุมโรค","2023-01-09T00:00:00",19,9.8,14.1,28.7,36.1],
    [2786,"FF1721AC76217484","กองดิจิทัลเพื่อการควบคุมโรค","2023-01-09T00:00:00",20,12.7,16.3,26.6,40.3],
    [2787,"FF1721AC76217484","กองดิจิทัลเพื่อการควบคุมโรค","2023-01-09T00:00:00",21,11.6,18.4,27.1,39.1],
    [2788,"FF1721AC76217484","กองดิจิทัลเพื่อการควบคุมโรค","2023-01-09T00:00:00",22,13.6,20.4,27.3,39.7],
    [2789,"FF1721AC76217484","กองดิจิทัลเพื่อการควบคุมโรค","2023-01-09T00:00:00",23,16.1,24.1,27.9,38.8],
    [2790,"FF1721AC76217484","กองดิจิทัลเพื่อการควบคุมโรค","2023-02-09T00:00:00",0,15.3,23.1,27.7,37.9],
    [2791,"FF1721AC76217484","กองดิจิทัลเพื่อการควบคุมโรค","2023-02-09T00:00:00",1,15.4,23.3,27.5,37.3],
    [2792,"FF1721AC76217484","กองดิจิทัลเพื่อการควบคุมโรค","2023-02-09T00:00:00",2,16.2,24.3,27.2,37.2],
    [2793,"FF1721AC76217484","กองดิจิทัลเพื่อการควบคุมโรค","2023-02-09T00:00:00",3,19,29,26.8,38],
    [2794,"FF1721AC76217484","กองดิจิทัลเพื่อการควบคุมโรค","2023-02-09T00:00:00",4,16.7,26.9,26.5,38.1],
    [2795,"FF1721AC76217484","กองดิจิทัลเพื่อการควบคุมโรค","2023-02-09T00:00:00",5,14.6,26.8,26.4,38.2],
    [2796,"FF1721AC76217484","กองดิจิทัลเพื่อการควบคุมโรค","2023-02-09T00:00:00",6,16.5,25.2,26.4,38.1],
    [2797,"FF1721AC76217484","กองดิจิทัลเพื่อการควบคุมโรค","2023-02-09T00:00:00",7,16.2,26.1,27.5,36.4],
    [2798,"FF1721AC76217484","กองดิจิทัลเพื่อการควบคุมโรค","2023-02-09T00:00:00",8,19.1,28.6,28.1,35.5],
    [2799,"FF1721AC76217484","กองดิจิทัลเพื่อการควบคุมโรค","2023-02-09T00:00:00",9,19.6,27.4,29.6,33.5],
    [2800,"FF1721AC76217484","กองดิจิทัลเพื่อการควบคุมโรค","2023-02-09T00:00:00",10,21.9,30.1,31.1,31.6],
    [2801,"FF1721AC76217484","กองดิจิทัลเพื่อการควบคุมโรค","2023-02-09T00:00:00",11,21.8,36.7,32.7,30],
    [2802,"FF1721AC76217484","กองดิจิทัลเพื่อการควบคุมโรค","2023-02-09T00:00:00",12,15.7,25.5,32.6,29.9],
    [2803,"FF1721AC76217484","กองดิจิทัลเพื่อการควบคุมโรค","2023-02-09T00:00:00",13,14.5,21.3,33,29.3],
    [2804,"FF1721AC76217484","กองดิจิทัลเพื่อการควบคุมโรค","2023-02-09T00:00:00",14,14.3,22.2,32.8,29.7],
    [2805,"FF1721AC76217484","กองดิจิทัลเพื่อการควบคุมโรค","2023-02-09T00:00:00",15,13.1,21.2,33.3,28.4],
    [2806,"FF1721AC76217484","กองดิจิทัลเพื่อการควบคุมโรค","2023-02-09T00:00:00",16,9.2,13.3,31.5,31.6],
    [2807,"FF1721AC76217484","กองดิจิทัลเพื่อการควบคุมโรค","2023-02-09T00:00:00",17,7.6,9.2,29.2,36],
    [2808,"FF1721AC76217484","กองดิจิทัลเพื่อการควบคุมโรค","2023-02-09T00:00:00",18,6.9,9.6,29.7,34],
    [2809,"FF1721AC76217484","กองดิจิทัลเพื่อการควบคุมโรค","2023-02-09T00:00:00",19,8.8,15,29.4,34],
    [2810,"FF1721AC76217484","กองดิจิทัลเพื่อการควบคุมโรค","2023-02-09T00:00:00",20,10.9,18.3,29.2,35.4],
    [2811,"FF1721AC76217484","กองดิจิทัลเพื่อการควบคุมโรค","2023-02-09T00:00:00",21,13.8,19.3,28.9,35.7],
    [2812,"FF1721AC76217484","กองดิจิทัลเพื่อการควบคุมโรค","2023-02-09T00:00:00",22,16.6,26.8,28.3,34.5],
    [2813,"FF1721AC76217484","กองดิจิทัลเพื่อการควบคุมโรค","2023-02-09T00:00:00",23,17.6,29.3,28.1,34.3],
    [2814,"FF1721AC76217484","กองดิจิทัลเพื่อการควบคุมโรค","2023-03-09T00:00:00",0,13.4,22.3,27.9,34.5],
    [2815,"FF1721AC76217484","กองดิจิทัลเพื่อการควบคุมโรค","2023-03-09T00:00:00",1,13.6,23.6,27.6,35.4],
    [2816,"FF1721AC76217484","กองดิจิทัลเพื่อการควบคุมโรค","2023-03-09T00:00:00",2,13.1,20.4,26.9,36.6],
    [2817,"FF1721AC76217484","กองดิจิทัลเพื่อการควบคุมโรค","2023-03-09T00:00:00",3,12.6,18.6,26.4,37.2],
    [2818,"FF1721AC76217484","กองดิจิทัลเพื่อการควบคุมโรค","2023-03-09T00:00:00",4,11,17.7,26.3,37.3],
    [2819,"FF1721AC76217484","กองดิจิทัลเพื่อการควบคุมโรค","2023-03-09T00:00:00",6,9.5,14.2,26,37.7],
    [2820,"FF1721AC76217484","กองดิจิทัลเพื่อการควบคุมโรค","2023-03-09T00:00:00",7,10.6,14.9,27.9,35.2],
    [2821,"FF1721AC76217484","กองดิจิทัลเพื่อการควบคุมโรค","2023-03-09T00:00:00",8,10.3,17.1,29.4,32.9],
    [2822,"FF1721AC76217484","กองดิจิทัลเพื่อการควบคุมโรค","2023-03-09T00:00:00",9,10.2,12.5,30.7,31.4],
    [2823,"FF1721AC76217484","กองดิจิทัลเพื่อการควบคุมโรค","2023-03-09T00:00:00",10,8.1,10.1,31.8,29.6],
    [2824,"FF1721AC76217484","กองดิจิทัลเพื่อการควบคุมโรค","2023-03-09T00:00:00",11,12.4,16.4,32.3,29.1],
    [2825,"FF1721AC76217484","กองดิจิทัลเพื่อการควบคุมโรค","2023-03-09T00:00:00",12,7.2,13,32.9,28.5],
    [2826,"FF1721AC76217484","กองดิจิทัลเพื่อการควบคุมโรค","2023-03-09T00:00:00",13,12.9,17.4,32.8,29.2],
    [2827,"FF1721AC76217484","กองดิจิทัลเพื่อการควบคุมโรค","2023-03-09T00:00:00",14,12.7,20.2,34.4,27.8],
    [2828,"FF1721AC76217484","กองดิจิทัลเพื่อการควบคุมโรค","2023-03-09T00:00:00",15,12,17.6,32.4,30],
    [2829,"FF1721AC76217484","กองดิจิทัลเพื่อการควบคุมโรค","2023-03-09T00:00:00",16,9.7,14.4,32.3,30.6],
    [2830,"FF1721AC76217484","กองดิจิทัลเพื่อการควบคุมโรค","2023-03-09T00:00:00",17,8.8,13.8,31.2,32],
    [2831,"FF1721AC76217484","กองดิจิทัลเพื่อการควบคุมโรค","2023-03-09T00:00:00",18,7.8,11,30,33.8],
    [2832,"FF1721AC76217484","กองดิจิทัลเพื่อการควบคุมโรค","2023-03-09T00:00:00",19,7.4,10.2,29,35.5],
    [2833,"FF1721AC76217484","กองดิจิทัลเพื่อการควบคุมโรค","2023-03-09T00:00:00",20,7.5,10.2,28.6,37.1],
    [2834,"FF1721AC76217484","กองดิจิทัลเพื่อการควบคุมโรค","2023-03-09T00:00:00",21,6.6,9.9,28.8,37.2],
    [2835,"FF1721AC76217484","กองดิจิทัลเพื่อการควบคุมโรค","2023-03-09T00:00:00",22,5.4,7.3,28.8,37.9],
    [2836,"FF1721AC76217484","กองดิจิทัลเพื่อการควบคุมโรค","2023-03-09T00:00:00",23,3.9,4.7,26.9,39.1],
    [2837,"FF1721AC76217484","กองดิจิทัลเพื่อการควบคุมโรค","2023-04-09T00:00:00",1,8,11,26.3,44.3],
    [2838,"FF1721AC76217484","กองดิจิทัลเพื่อการควบคุมโรค","2023-04-09T00:00:00",2,8.1,11.3,25.6,44.8],
    [2839,"FF1721AC76217484","กองดิจิทัลเพื่อการควบคุมโรค","2023-04-09T00:00:00",3,8.3,12.1,25.8,43.6],
    [2840,"FF1721AC76217484","กองดิจิทัลเพื่อการควบคุมโรค","2023-04-09T00:00:00",4,7.5,9.2,25.9,42.9],
    [2841,"FF1721AC76217484","กองดิจิทัลเพื่อการควบคุมโรค","2023-04-09T00:00:00",5,9.8,14.2,25.3,43.2],
    [2842,"FF1721AC76217484","กองดิจิทัลเพื่อการควบคุมโรค","2023-04-09T00:00:00",6,9.1,13.2,25.9,41.5],
    [2843,"FF1721AC76217484","กองดิจิทัลเพื่อการควบคุมโรค","2023-04-09T00:00:00",7,7.4,10.6,26.8,39.2],
    [2844,"FF1721AC76217484","กองดิจิทัลเพื่อการควบคุมโรค","2023-04-09T00:00:00",8,10.8,13,27.9,37.5],
    [2845,"FF1721AC76217484","กองดิจิทัลเพื่อการควบคุมโรค","2023-04-09T00:00:00",9,7.3,8.1,29.7,33.3],
    [2846,"FF1721AC76217484","กองดิจิทัลเพื่อการควบคุมโรค","2023-04-09T00:00:00",10,6.1,8.7,31.4,30.9],
    [2847,"FF1721AC76217484","กองดิจิทัลเพื่อการควบคุมโรค","2023-04-09T00:00:00",11,8.1,11.7,33.3,29.1],
    [2848,"FF1721AC76217484","กองดิจิทัลเพื่อการควบคุมโรค","2023-04-09T00:00:00",12,5.4,8.4,32.5,29.4],
    [2849,"FF1721AC76217484","กองดิจิทัลเพื่อการควบคุมโรค","2023-04-09T00:00:00",13,9.5,12.5,31.3,31.7],
    [2850,"FF1721AC76217484","กองดิจิทัลเพื่อการควบคุมโรค","2023-04-09T00:00:00",14,10.7,15.3,32.3,30.9],
    [2851,"FF1721AC76217484","กองดิจิทัลเพื่อการควบคุมโรค","2023-04-09T00:00:00",15,10.6,12.5,32.9,29.9],
    [2852,"FF1721AC76217484","กองดิจิทัลเพื่อการควบคุมโรค","2023-04-09T00:00:00",16,12.5,17.7,31.6,31.5],
    [2853,"FF1721AC76217484","กองดิจิทัลเพื่อการควบคุมโรค","2023-04-09T00:00:00",17,6.5,9.6,29.9,34.1],
    [2854,"FF1721AC76217484","กองดิจิทัลเพื่อการควบคุมโรค","2023-04-09T00:00:00",18,5.5,8.1,29,35.6],
    [2855,"FF1721AC76217484","กองดิจิทัลเพื่อการควบคุมโรค","2023-04-09T00:00:00",19,3.7,5.9,29,35.8],
    [2856,"FF1721AC76217484","กองดิจิทัลเพื่อการควบคุมโรค","2023-04-09T00:00:00",20,3,3.9,29.3,35.5],
    [2857,"FF1721AC76217484","กองดิจิทัลเพื่อการควบคุมโรค","2023-04-09T00:00:00",21,3.7,4.2,29.3,35],
    [2858,"FF1721AC76217484","กองดิจิทัลเพื่อการควบคุมโรค","2023-04-09T00:00:00",22,3.5,5.2,28.5,34.8],
    [2859,"FF1721AC76217484","กองดิจิทัลเพื่อการควบคุมโรค","2023-04-09T00:00:00",23,4.5,7.7,28.2,35],
    [2860,"FF1721AC76217484","กองดิจิทัลเพื่อการควบคุมโรค","2023-05-09T00:00:00",0,9,14.3,27.8,35.3],
    [2861,"FF1721AC76217484","กองดิจิทัลเพื่อการควบคุมโรค","2023-05-09T00:00:00",1,8.6,12.7,27.9,35.4],
    [2862,"FF1721AC76217484","กองดิจิทัลเพื่อการควบคุมโรค","2023-05-09T00:00:00",2,1.7,2.6,27.6,35.5],
    [2863,"FF1721AC76217484","กองดิจิทัลเพื่อการควบคุมโรค","2023-05-09T00:00:00",3,3.5,5.2,26.7,37],
    [2864,"FF1721AC76217484","กองดิจิทัลเพื่อการควบคุมโรค","2023-05-09T00:00:00",4,2.3,2,26.5,37.3],
    [2865,"FF1721AC76217484","กองดิจิทัลเพื่อการควบคุมโรค","2023-05-09T00:00:00",5,2.2,3,26.2,37.4],
    [2866,"FF1721AC76217484","กองดิจิทัลเพื่อการควบคุมโรค","2023-05-09T00:00:00",6,2.3,3.4,26.6,37.1],
    [2867,"FF1721AC76217484","กองดิจิทัลเพื่อการควบคุมโรค","2023-05-09T00:00:00",7,4.3,5.9,27.4,36.3],
    [2868,"FF1721AC76217484","กองดิจิทัลเพื่อการควบคุมโรค","2023-05-09T00:00:00",8,1.6,2.6,28.8,34.6],
    [2869,"FF1721AC76217484","กองดิจิทัลเพื่อการควบคุมโรค","2023-05-09T00:00:00",9,5,6.6,29.5,32.9],
    [2870,"FF1721AC76217484","กองดิจิทัลเพื่อการควบคุมโรค","2023-05-09T00:00:00",10,5.7,5.5,30.5,31.5],
    [2871,"FF1721AC76217484","กองดิจิทัลเพื่อการควบคุมโรค","2023-05-09T00:00:00",11,8.3,9.9,28.8,35.2],
    [2872,"FF1721AC76217484","กองดิจิทัลเพื่อการควบคุมโรค","2023-05-09T00:00:00",12,2,2.3,30.8,31.2],
    [2873,"FF1721AC76217484","กองดิจิทัลเพื่อการควบคุมโรค","2023-05-09T00:00:00",13,4.5,4.3,32.2,29.2],
    [2874,"FF1721AC76217484","กองดิจิทัลเพื่อการควบคุมโรค","2023-05-09T00:00:00",14,9.2,8.5,31.6,29.5],
    [2875,"FF1721AC76217484","กองดิจิทัลเพื่อการควบคุมโรค","2023-05-09T00:00:00",15,7.2,9,31.7,29.4],
    [2876,"FF1721AC76217484","กองดิจิทัลเพื่อการควบคุมโรค","2023-05-09T00:00:00",16,1.6,2.5,31.5,28.6],
    [2877,"FF1721AC76217484","กองดิจิทัลเพื่อการควบคุมโรค","2023-05-09T00:00:00",17,1.6,2.4,30.9,29.3],
    [2878,"FF1721AC76217484","กองดิจิทัลเพื่อการควบคุมโรค","2023-05-09T00:00:00",18,2.9,4,30,30.5],
    [2879,"FF1721AC76217484","กองดิจิทัลเพื่อการควบคุมโรค","2023-05-09T00:00:00",19,4.2,6.5,29.5,31.6],
    [2880,"FF1721AC76217484","กองดิจิทัลเพื่อการควบคุมโรค","2023-05-09T00:00:00",20,5.1,8.8,28.1,34.3],
    [2881,"FF1721AC76217484","กองดิจิทัลเพื่อการควบคุมโรค","2023-05-09T00:00:00",21,2.7,3.5,27.5,35.3],
    [2882,"FF1721AC76217484","กองดิจิทัลเพื่อการควบคุมโรค","2023-05-09T00:00:00",22,3.7,3.6,27.4,35.9],
    [2883,"FF1721AC76217484","กองดิจิทัลเพื่อการควบคุมโรค","2023-05-09T00:00:00",23,4.9,7.3,27.2,36],
    [2884,"FF1721AC76217484","กองดิจิทัลเพื่อการควบคุมโรค","2023-06-09T00:00:00",0,5.4,8,27,36.5],
    [2885,"FF1721AC76217484","กองดิจิทัลเพื่อการควบคุมโรค","2023-06-09T00:00:00",1,6.4,9.2,26.1,39.1],
    [2886,"FF1721AC76217484","กองดิจิทัลเพื่อการควบคุมโรค","2023-06-09T00:00:00",2,6.1,8.9,26,38.9],
    [2887,"FF1721AC76217484","กองดิจิทัลเพื่อการควบคุมโรค","2023-06-09T00:00:00",3,7.5,10.8,26.1,38.6],
    [2888,"FF1721AC76217484","กองดิจิทัลเพื่อการควบคุมโรค","2023-06-09T00:00:00",4,9.6,13.5,26.2,38.9],
    [2889,"FF1721AC76217484","กองดิจิทัลเพื่อการควบคุมโรค","2023-06-09T00:00:00",5,7.3,11.7,26.3,37.6],
    [2890,"FF1721AC76217484","กองดิจิทัลเพื่อการควบคุมโรค","2023-06-09T00:00:00",6,8.5,11.6,26,38.2],
    [2891,"FF1721AC76217484","กองดิจิทัลเพื่อการควบคุมโรค","2023-06-09T00:00:00",7,10.2,16.6,26.7,37.4],
    [2892,"FF1721AC76217484","กองดิจิทัลเพื่อการควบคุมโรค","2023-06-09T00:00:00",8,4.8,6.7,28.1,34.7],
    [2893,"FF1721AC76217484","กองดิจิทัลเพื่อการควบคุมโรค","2023-06-09T00:00:00",9,3.6,5.3,28.9,33.9],
    [2894,"FF1721AC76217484","กองดิจิทัลเพื่อการควบคุมโรค","2023-06-09T00:00:00",10,3.7,5.4,29.9,33],
    [2895,"FF1721AC76217484","กองดิจิทัลเพื่อการควบคุมโรค","2023-06-09T00:00:00",11,7.5,11.3,31.2,31],
    [2896,"FF1721AC76217484","กองดิจิทัลเพื่อการควบคุมโรค","2023-06-09T00:00:00",12,5.5,7.5,31.2,30.6],
    [2897,"FF1721AC76217484","กองดิจิทัลเพื่อการควบคุมโรค","2023-06-09T00:00:00",13,5.2,9.1,32.1,29.6],
    [2898,"FF1721AC76217484","กองดิจิทัลเพื่อการควบคุมโรค","2023-06-09T00:00:00",14,5.4,8.4,31.7,30.1],
    [2899,"FF1721AC76217484","กองดิจิทัลเพื่อการควบคุมโรค","2023-06-09T00:00:00",15,6,8.8,31.1,30.5],
    [2900,"FF1721AC76217484","กองดิจิทัลเพื่อการควบคุมโรค","2023-06-09T00:00:00",16,5.9,9,30.3,31.5],
    [2901,"FF1721AC76217484","กองดิจิทัลเพื่อการควบคุมโรค","2023-06-09T00:00:00",17,9.4,11.4,29.7,32.1],
    [2902,"FF1721AC76217484","กองดิจิทัลเพื่อการควบคุมโรค","2023-06-09T00:00:00",18,7.8,11.8,29,32],
    [2903,"FF1721AC76217484","กองดิจิทัลเพื่อการควบคุมโรค","2023-06-09T00:00:00",19,5,5.7,28.6,32.7],
    [2904,"FF1721AC76217484","กองดิจิทัลเพื่อการควบคุมโรค","2023-06-09T00:00:00",20,9.1,11.5,28.5,33.6],
    [2905,"FF1721AC76217484","กองดิจิทัลเพื่อการควบคุมโรค","2023-06-09T00:00:00",21,4,6.2,27,37.5],
    [2906,"FF1721AC76217484","กองดิจิทัลเพื่อการควบคุมโรค","2023-06-09T00:00:00",22,5.7,8.9,27,37.7],
    [2907,"FF1721AC76217484","กองดิจิทัลเพื่อการควบคุมโรค","2023-06-09T00:00:00",23,5.4,7.5,26.7,37.1],
    [2908,"FF1721AC76217484","กองดิจิทัลเพื่อการควบคุมโรค","2023-07-09T00:00:00",0,3.6,6.9,26.7,36.5],
    [2909,"FF1721AC76217484","กองดิจิทัลเพื่อการควบคุมโรค","2023-07-09T00:00:00",1,3.6,5.8,26.8,36.4],
    [2910,"FF1721AC76217484","กองดิจิทัลเพื่อการควบคุมโรค","2023-07-09T00:00:00",2,3.7,6.9,26.6,37],
    [2911,"FF1721AC76217484","กองดิจิทัลเพื่อการควบคุมโรค","2023-07-09T00:00:00",3,4.7,6.7,26.8,37],
    [2912,"FF1721AC76217484","กองดิจิทัลเพื่อการควบคุมโรค","2023-07-09T00:00:00",4,4.9,6.6,26.6,37.1],
    [2913,"FF1721AC76217484","กองดิจิทัลเพื่อการควบคุมโรค","2023-07-09T00:00:00",5,4.7,7.9,26.4,37.5],
    [2914,"FF1721AC76217484","กองดิจิทัลเพื่อการควบคุมโรค","2023-07-09T00:00:00",6,9.8,15.1,26.4,37.8],
    [2915,"FF1721AC76217484","กองดิจิทัลเพื่อการควบคุมโรค","2023-07-09T00:00:00",7,14,22.4,27.4,36.5],
    [2916,"FF1721AC76217484","กองดิจิทัลเพื่อการควบคุมโรค","2023-07-09T00:00:00",8,13.1,20.2,28.6,34.4],
    [2917,"FF1721AC76217484","กองดิจิทัลเพื่อการควบคุมโรค","2023-07-09T00:00:00",9,12.3,17,29.4,33.3],
    [2918,"FF1721AC76217484","กองดิจิทัลเพื่อการควบคุมโรค","2023-07-09T00:00:00",10,8.9,16.1,29.8,32.9],
    [2919,"FF1721AC76217484","กองดิจิทัลเพื่อการควบคุมโรค","2023-07-09T00:00:00",11,7.5,13.8,30.8,31.6],
    [2920,"FF1721AC76217484","กองดิจิทัลเพื่อการควบคุมโรค","2023-07-09T00:00:00",12,7.2,10.5,31.1,31],
    [2921,"FF1721AC76217484","กองดิจิทัลเพื่อการควบคุมโรค","2023-07-09T00:00:00",13,12.2,14,31.2,30.6],
    [2922,"FF1721AC76217484","กองดิจิทัลเพื่อการควบคุมโรค","2023-07-09T00:00:00",14,8.9,12,31.6,29.8],
    [2923,"FF1721AC76217484","กองดิจิทัลเพื่อการควบคุมโรค","2023-07-09T00:00:00",15,13.8,19.2,31.6,30],
    [2924,"FF1721AC76217484","กองดิจิทัลเพื่อการควบคุมโรค","2023-07-09T00:00:00",16,11.3,13.9,31.2,30.8],
    [2925,"FF1721AC76217484","กองดิจิทัลเพื่อการควบคุมโรค","2023-07-09T00:00:00",17,9.4,13.3,30.7,31.2],
    [2926,"FF1721AC76217484","กองดิจิทัลเพื่อการควบคุมโรค","2023-07-09T00:00:00",18,7.6,10.6,30.3,31.9],
    [2927,"FF1721AC76217484","กองดิจิทัลเพื่อการควบคุมโรค","2023-07-09T00:00:00",19,9.8,11.2,29.8,32.8],
    [2928,"FF1721AC76217484","กองดิจิทัลเพื่อการควบคุมโรค","2023-07-09T00:00:00",20,9.6,14,29.5,33.6],
    [2929,"FF1721AC76217484","กองดิจิทัลเพื่อการควบคุมโรค","2023-07-09T00:00:00",21,12,15.7,29.1,34.6],
    [2930,"FF1721AC76217484","กองดิจิทัลเพื่อการควบคุมโรค","2023-07-09T00:00:00",22,8.1,11.9,28.9,34.7],
    [2931,"FF1721AC76217484","กองดิจิทัลเพื่อการควบคุมโรค","2023-07-09T00:00:00",23,9.9,13.1,28.1,36.2],
    [2932,"FF1721AC76217484","กองดิจิทัลเพื่อการควบคุมโรค","2023-08-09T00:00:00",0,8.9,14,27.5,36.6],
    [2933,"FF1721AC76217484","กองดิจิทัลเพื่อการควบคุมโรค","2023-08-09T00:00:00",1,4.1,5.7,26.5,37.9],
    [2934,"FF1721AC76217484","กองดิจิทัลเพื่อการควบคุมโรค","2023-08-09T00:00:00",2,3.4,5.3,24.8,42.2],
    [2935,"FF1721AC76217484","กองดิจิทัลเพื่อการควบคุมโรค","2023-08-09T00:00:00",3,4.5,5.9,24.5,42.9],
    [2936,"FF1721AC76217484","กองดิจิทัลเพื่อการควบคุมโรค","2023-08-09T00:00:00",4,4.2,5.8,24.7,42.3],
    [2937,"FF1721AC76217484","กองดิจิทัลเพื่อการควบคุมโรค","2023-08-09T00:00:00",5,5.9,7.6,24.7,42.4],
    [2938,"FF1721AC76217484","กองดิจิทัลเพื่อการควบคุมโรค","2023-08-09T00:00:00",6,7.3,11,25.1,41.7],
    [2939,"FF1721AC76217484","กองดิจิทัลเพื่อการควบคุมโรค","2023-08-09T00:00:00",7,7.8,10.9,26,40],
    [2940,"FF1721AC76217484","กองดิจิทัลเพื่อการควบคุมโรค","2023-08-09T00:00:00",8,9.1,14.2,27.2,37.4],
    [2941,"FF1721AC76217484","กองดิจิทัลเพื่อการควบคุมโรค","2023-08-09T00:00:00",9,6.4,10.9,28.2,35.9],
    [2942,"FF1721AC76217484","กองดิจิทัลเพื่อการควบคุมโรค","2023-08-09T00:00:00",11,7.4,8.3,31.2,31.2],
    [2943,"FF1721AC76217484","กองดิจิทัลเพื่อการควบคุมโรค","2023-08-09T00:00:00",12,2.6,3.3,32,30.1],
    [2944,"FF1721AC76217484","กองดิจิทัลเพื่อการควบคุมโรค","2023-08-09T00:00:00",13,6.7,5.1,32.4,29.1],
    [2945,"FF1721AC76217484","กองดิจิทัลเพื่อการควบคุมโรค","2023-08-09T00:00:00",14,3.8,3.3,33.2,28.1],
    [2946,"FF1721AC76217484","กองดิจิทัลเพื่อการควบคุมโรค","2023-08-09T00:00:00",15,3.6,4.5,32.9,28.1],
    [2947,"FF1721AC76217484","กองดิจิทัลเพื่อการควบคุมโรค","2023-08-09T00:00:00",16,7.7,10.3,31.6,29.6],
    [2948,"FF1721AC76217484","กองดิจิทัลเพื่อการควบคุมโรค","2023-08-09T00:00:00",17,6.5,8.9,31.4,29.8],
    [2949,"FF1721AC76217484","กองดิจิทัลเพื่อการควบคุมโรค","2023-08-09T00:00:00",18,9.1,14,30.2,31.5],
    [2950,"FF1721AC76217484","กองดิจิทัลเพื่อการควบคุมโรค","2023-08-09T00:00:00",19,22.2,33.9,28.9,33.3],
    [2951,"FF1721AC76217484","กองดิจิทัลเพื่อการควบคุมโรค","2023-08-09T00:00:00",20,14.3,21.3,28.5,34.2],
    [2952,"FF1721AC76217484","กองดิจิทัลเพื่อการควบคุมโรค","2023-08-09T00:00:00",21,5.9,8.5,28.2,34.6],
    [2953,"FF1721AC76217484","กองดิจิทัลเพื่อการควบคุมโรค","2023-08-09T00:00:00",22,8.3,10.5,27.8,35.9],
    [2954,"FF1721AC76217484","กองดิจิทัลเพื่อการควบคุมโรค","2023-08-09T00:00:00",23,8.5,11.7,26.7,38.1],
    [2955,"FF1721AC76217484","กองดิจิทัลเพื่อการควบคุมโรค","2023-09-09T00:00:00",0,7.7,10.3,26.3,38.3],
    [2956,"FF1721AC76217484","กองดิจิทัลเพื่อการควบคุมโรค","2023-09-09T00:00:00",1,4.7,5.8,26.4,37.5],
    [2957,"FF1721AC76217484","กองดิจิทัลเพื่อการควบคุมโรค","2023-09-09T00:00:00",2,5.2,7.5,26.4,37.3],
    [2958,"FF1721AC76217484","กองดิจิทัลเพื่อการควบคุมโรค","2023-09-09T00:00:00",3,8.8,11.9,26.5,37.1],
    [2959,"FF1721AC76217484","กองดิจิทัลเพื่อการควบคุมโรค","2023-09-09T00:00:00",4,5.4,7.3,26.3,36.7],
    [2960,"FF1721AC76217484","กองดิจิทัลเพื่อการควบคุมโรค","2023-09-09T00:00:00",5,4,6,26.2,37],
    [2961,"FF1721AC76217484","กองดิจิทัลเพื่อการควบคุมโรค","2023-09-09T00:00:00",6,4.8,5.6,26.1,37.2],
    [2962,"FF1721AC76217484","กองดิจิทัลเพื่อการควบคุมโรค","2023-09-09T00:00:00",7,6.7,8.7,26.7,36.4],
    [2963,"FF1721AC76217484","กองดิจิทัลเพื่อการควบคุมโรค","2023-09-09T00:00:00",8,11.6,16.7,28.2,34.5],
    [2964,"FF1721AC76217484","กองดิจิทัลเพื่อการควบคุมโรค","2023-09-09T00:00:00",9,15.1,20.3,29.4,33.3],
    [2965,"FF1721AC76217484","กองดิจิทัลเพื่อการควบคุมโรค","2023-09-09T00:00:00",10,6.5,6.9,30,32.3],
    [2966,"FF1721AC76217484","กองดิจิทัลเพื่อการควบคุมโรค","2023-09-09T00:00:00",11,9.8,12.9,31.8,30.2],
    [2967,"FF1721AC76217484","กองดิจิทัลเพื่อการควบคุมโรค","2023-09-09T00:00:00",12,5.4,8.7,32.9,28.8],
    [2968,"FF1721AC76217484","กองดิจิทัลเพื่อการควบคุมโรค","2023-09-09T00:00:00",13,7.7,10.3,33.4,27.6],
    [2969,"FF1721AC76217484","กองดิจิทัลเพื่อการควบคุมโรค","2023-09-09T00:00:00",14,4.9,6.3,34.3,26.1],
    [2970,"FF1721AC76217484","กองดิจิทัลเพื่อการควบคุมโรค","2023-09-09T00:00:00",15,6.7,8.6,34.3,26.2],
    [2971,"FF1721AC76217484","กองดิจิทัลเพื่อการควบคุมโรค","2023-09-09T00:00:00",16,10,12.9,33.8,26.9],
    [2972,"FF1721AC76217484","กองดิจิทัลเพื่อการควบคุมโรค","2023-09-09T00:00:00",17,11.4,16.2,28.3,37],
    [2973,"FF1721AC76217484","กองดิจิทัลเพื่อการควบคุมโรค","2023-09-09T00:00:00",18,11.4,16.8,24,46.4],
    [2974,"FF1721AC76217484","กองดิจิทัลเพื่อการควบคุมโรค","2023-09-09T00:00:00",19,4.1,6.2,24.6,45.2],
    [2975,"FF1721AC76217484","กองดิจิทัลเพื่อการควบคุมโรค","2023-09-09T00:00:00",20,4.8,5.3,24.9,44.8],
    [2976,"FF1721AC76217484","กองดิจิทัลเพื่อการควบคุมโรค","2023-09-09T00:00:00",21,7,8.3,24.9,45.4],
    [2977,"FF1721AC76217484","กองดิจิทัลเพื่อการควบคุมโรค","2023-09-09T00:00:00",22,8.9,12.5,25,45.1],
    [2978,"FF1721AC76217484","กองดิจิทัลเพื่อการควบคุมโรค","2023-09-09T00:00:00",23,9.1,13.8,24.8,45.3],
    [2979,"FF1721AC76217484","กองดิจิทัลเพื่อการควบคุมโรค","2023-10-09T00:00:00",0,8,11.3,24.5,45.3],
    [2980,"FF1721AC76217484","กองดิจิทัลเพื่อการควบคุมโรค","2023-10-09T00:00:00",1,12.6,16.6,24.2,45.8],
    [2981,"FF1721AC76217484","กองดิจิทัลเพื่อการควบคุมโรค","2023-10-09T00:00:00",2,7.8,9,24.1,44.8],
    [2982,"FF1721AC76217484","กองดิจิทัลเพื่อการควบคุมโรค","2023-10-09T00:00:00",3,4.4,6.1,23.9,45.6],
    [2983,"FF1721AC76217484","กองดิจิทัลเพื่อการควบคุมโรค","2023-10-09T00:00:00",4,5.3,6.5,24.1,44.9],
    [2984,"FF1721AC76217484","กองดิจิทัลเพื่อการควบคุมโรค","2023-10-09T00:00:00",5,7.5,9.8,24.3,44.2],
    [2985,"FF1721AC76217484","กองดิจิทัลเพื่อการควบคุมโรค","2023-10-09T00:00:00",6,7.1,9.2,24.3,44],
    [2986,"FF1721AC76217484","กองดิจิทัลเพื่อการควบคุมโรค","2023-10-09T00:00:00",7,7,10.6,25.4,42.7],
    [2987,"FF1721AC76217484","กองดิจิทัลเพื่อการควบคุมโรค","2023-10-09T00:00:00",8,7.9,11,26.9,40],
    [2988,"FF1721AC76217484","กองดิจิทัลเพื่อการควบคุมโรค","2023-10-09T00:00:00",9,6.6,8.1,28.1,37.6],
    [2989,"FF1721AC76217484","กองดิจิทัลเพื่อการควบคุมโรค","2023-10-09T00:00:00",10,5.4,8.4,29.4,35],
    [2990,"FF1721AC76217484","กองดิจิทัลเพื่อการควบคุมโรค","2023-10-09T00:00:00",11,5.9,9.2,29.7,34],
    [2991,"FF1721AC76217484","กองดิจิทัลเพื่อการควบคุมโรค","2023-10-09T00:00:00",12,2.2,1.9,29.1,34.2],
    [2992,"FF1721AC76217484","กองดิจิทัลเพื่อการควบคุมโรค","2023-10-09T00:00:00",13,10.4,14.4,29.7,33.8],
    [2993,"FF1721AC76217484","กองดิจิทัลเพื่อการควบคุมโรค","2023-10-09T00:00:00",14,12,14.3,29.3,34.2],
    [2994,"FF1721AC76217484","กองดิจิทัลเพื่อการควบคุมโรค","2023-10-09T00:00:00",15,9.3,10.8,28.7,35.5],
    [2995,"FF1721AC76217484","กองดิจิทัลเพื่อการควบคุมโรค","2023-10-09T00:00:00",16,2.6,3.5,26.5,41.4],
    [2996,"FF1721AC76217484","กองดิจิทัลเพื่อการควบคุมโรค","2023-10-09T00:00:00",17,2.9,4.3,27.3,38.6],
    [2997,"FF1721AC76217484","กองดิจิทัลเพื่อการควบคุมโรค","2023-10-09T00:00:00",18,3.7,6.3,26.9,40],
    [2998,"FF1721AC76217484","กองดิจิทัลเพื่อการควบคุมโรค","2023-10-09T00:00:00",19,4.7,7.7,26.6,42],
    [2999,"FF1721AC76217484","กองดิจิทัลเพื่อการควบคุมโรค","2023-10-09T00:00:00",20,1.6,2,24.1,44.6],
    [3000,"FF1721AC76217484","กองดิจิทัลเพื่อการควบคุมโรค","2023-10-09T00:00:00",21,2.2,2.6,24.6,44.7],
    [3001,"FF1721AC76217484","กองดิจิทัลเพื่อการควบคุมโรค","2023-10-09T00:00:00",22,3.2,3.9,25,44.8],
    [3002,"FF1721AC76217484","กองดิจิทัลเพื่อการควบคุมโรค","2023-10-09T00:00:00",23,10,13.7,24.5,45.5],
    [3003,"FF1721AC76217484","กองดิจิทัลเพื่อการควบคุมโรค","2023-11-09T00:00:00",0,7.7,12.3,23.9,44.6],
    [3004,"FF1721AC76217484","กองดิจิทัลเพื่อการควบคุมโรค","2023-11-09T00:00:00",1,1.3,1.7,22.7,45.5],
    [3005,"FF1721AC76217484","กองดิจิทัลเพื่อการควบคุมโรค","2023-11-09T00:00:00",2,2,2.7,23.2,45.4],
    [3006,"FF1721AC76217484","กองดิจิทัลเพื่อการควบคุมโรค","2023-11-09T00:00:00",3,2.8,3.7,23.5,44.9],
    [3007,"FF1721AC76217484","กองดิจิทัลเพื่อการควบคุมโรค","2023-11-09T00:00:00",4,2.8,5.7,23.4,45],
    [3008,"FF1721AC76217484","กองดิจิทัลเพื่อการควบคุมโรค","2023-11-09T00:00:00",5,4.4,5.4,23.8,43.5],
    [3009,"FF1721AC76217484","กองดิจิทัลเพื่อการควบคุมโรค","2023-11-09T00:00:00",6,3.8,5.1,24,42.8],
    [3010,"FF1721AC76217484","กองดิจิทัลเพื่อการควบคุมโรค","2023-11-09T00:00:00",7,4.5,6.8,25.5,39.4],
    [3011,"FF1721AC76217484","กองดิจิทัลเพื่อการควบคุมโรค","2023-11-09T00:00:00",8,2.6,2.6,27.4,36.2],
    [3012,"FF1721AC76217484","กองดิจิทัลเพื่อการควบคุมโรค","2023-11-09T00:00:00",9,3,4.2,28.4,34.4],
    [3013,"FF1721AC76217484","กองดิจิทัลเพื่อการควบคุมโรค","2023-11-09T00:00:00",10,2.3,3,28.7,33.8],
    [3014,"FF1721AC76217484","กองดิจิทัลเพื่อการควบคุมโรค","2023-11-09T00:00:00",11,2.2,3.5,30.1,31.7],
    [3015,"FF1721AC76217484","กองดิจิทัลเพื่อการควบคุมโรค","2023-11-09T00:00:00",12,2.3,3.9,30,32.2],
    [3016,"FF1721AC76217484","กองดิจิทัลเพื่อการควบคุมโรค","2023-11-09T00:00:00",13,2.9,3.7,29.1,33.8],
    [3017,"FF1721AC76217484","กองดิจิทัลเพื่อการควบคุมโรค","2023-11-09T00:00:00",14,3.5,4.9,29,33.9],
    [3018,"FF1721AC76217484","กองดิจิทัลเพื่อการควบคุมโรค","2023-11-09T00:00:00",15,5.5,7.5,28.7,34.7],
    [3019,"FF1721AC76217484","กองดิจิทัลเพื่อการควบคุมโรค","2023-11-09T00:00:00",16,6.6,7.9,29.1,34.4],
    [3020,"FF1721AC76217484","กองดิจิทัลเพื่อการควบคุมโรค","2023-11-09T00:00:00",17,4.2,5.6,28.6,35.1],
    [3021,"FF1721AC76217484","กองดิจิทัลเพื่อการควบคุมโรค","2023-11-09T00:00:00",18,3.6,5.3,26.9,39.7],
    [3022,"FF1721AC76217484","กองดิจิทัลเพื่อการควบคุมโรค","2023-11-09T00:00:00",19,7.2,9.1,24.8,45.7],
    [3023,"FF1721AC76217484","กองดิจิทัลเพื่อการควบคุมโรค","2023-11-09T00:00:00",20,7.2,11.9,25,46.5],
    [3024,"FF1721AC76217484","กองดิจิทัลเพื่อการควบคุมโรค","2023-11-09T00:00:00",21,9.7,13,25,46.1],
    [3025,"FF1721AC76217484","กองดิจิทัลเพื่อการควบคุมโรค","2023-11-09T00:00:00",22,16.1,22.6,25,45.7],
    [3026,"FF1721AC76217484","กองดิจิทัลเพื่อการควบคุมโรค","2023-11-09T00:00:00",23,14.8,21.9,25,45.5],
    [3027,"FF1721AC76217484","กองดิจิทัลเพื่อการควบคุมโรค","2023-12-09T00:00:00",0,15,21,24.9,44.5],
    [3028,"FF1721AC76217484","กองดิจิทัลเพื่อการควบคุมโรค","2023-12-09T00:00:00",1,11.1,16,24.9,43.9],
    [3029,"FF1721AC76217484","กองดิจิทัลเพื่อการควบคุมโรค","2023-12-09T00:00:00",2,4.8,6.9,24.9,43.6],
    [3030,"FF1721AC76217484","กองดิจิทัลเพื่อการควบคุมโรค","2023-12-09T00:00:00",3,3,3.6,25.2,42.1],
    [3031,"FF1721AC76217484","กองดิจิทัลเพื่อการควบคุมโรค","2023-12-09T00:00:00",4,2.3,3.1,25.6,40.5],
    [3032,"FF1721AC76217484","กองดิจิทัลเพื่อการควบคุมโรค","2023-12-09T00:00:00",5,2.7,5,25.5,41.7],
    [3033,"FF1721AC76217484","กองดิจิทัลเพื่อการควบคุมโรค","2023-12-09T00:00:00",6,3,4,25.6,40.8],
    [3034,"FF1721AC76217484","กองดิจิทัลเพื่อการควบคุมโรค","2023-12-09T00:00:00",7,2.8,4.7,26.4,38.4],
    [3035,"FF1721AC76217484","กองดิจิทัลเพื่อการควบคุมโรค","2023-12-09T00:00:00",8,4.8,4,27.1,36.8],
    [3036,"FF1721AC76217484","กองดิจิทัลเพื่อการควบคุมโรค","2023-12-09T00:00:00",9,4.5,7.8,28,35.1],
    [3037,"FF1721AC76217484","กองดิจิทัลเพื่อการควบคุมโรค","2023-12-09T00:00:00",10,4.6,5.9,29.4,33.4],
    [3038,"FF1721AC76217484","กองดิจิทัลเพื่อการควบคุมโรค","2023-12-09T00:00:00",11,3.3,4.2,29.5,33.2],
    [3039,"FF1721AC76217484","กองดิจิทัลเพื่อการควบคุมโรค","2023-12-09T00:00:00",12,3.5,5.5,30.5,31.5],
    [3040,"FF1721AC76217484","กองดิจิทัลเพื่อการควบคุมโรค","2023-12-09T00:00:00",13,5,6.4,30.2,31.8],
    [3041,"FF1721AC76217484","กองดิจิทัลเพื่อการควบคุมโรค","2023-12-09T00:00:00",14,5.9,8,29.2,33.3],
    [3042,"FF1721AC76217484","กองดิจิทัลเพื่อการควบคุมโรค","2023-12-09T00:00:00",15,4.6,5.8,26,40.7],
    [3043,"FF1721AC76217484","กองดิจิทัลเพื่อการควบคุมโรค","2023-12-09T00:00:00",16,4.7,6.8,26.7,38.4],
    [3044,"FF1721AC76217484","กองดิจิทัลเพื่อการควบคุมโรค","2023-12-09T00:00:00",17,5.5,7,26.7,37],
    [3045,"FF1721AC76217484","กองดิจิทัลเพื่อการควบคุมโรค","2023-12-09T00:00:00",18,5.2,7.3,26.7,37.1],
    [3046,"FF1721AC76217484","กองดิจิทัลเพื่อการควบคุมโรค","2023-12-09T00:00:00",19,4.1,5.3,26.7,37.5],
    [3047,"FF1721AC76217484","กองดิจิทัลเพื่อการควบคุมโรค","2023-12-09T00:00:00",20,5.7,8,26.6,37.5],
    [3048,"FF1721AC76217484","กองดิจิทัลเพื่อการควบคุมโรค","2023-12-09T00:00:00",21,4.4,6.5,26.4,37.2],
    [3049,"FF1721AC76217484","กองดิจิทัลเพื่อการควบคุมโรค","2023-12-09T00:00:00",22,5,6.6,26.2,37.1],
    [3050,"FF1721AC76217484","กองดิจิทัลเพื่อการควบคุมโรค","2023-12-09T00:00:00",23,5.8,6.8,26,37.1],
    [3051,"FF1721AC76217484","กองดิจิทัลเพื่อการควบคุมโรค","2023-09-13T00:00:00",0,6.3,9.2,25.8,37.3],
    [3052,"FF1721AC76217484","กองดิจิทัลเพื่อการควบคุมโรค","2023-09-13T00:00:00",1,5.1,7.5,25.7,37.4],
    [3053,"FF1721AC76217484","กองดิจิทัลเพื่อการควบคุมโรค","2023-09-13T00:00:00",2,6.2,9,25.6,37.9],
    [3054,"FF1721AC76217484","กองดิจิทัลเพื่อการควบคุมโรค","2023-09-13T00:00:00",3,6.1,8.5,25.4,37.9],
    [3055,"FF1721AC76217484","กองดิจิทัลเพื่อการควบคุมโรค","2023-09-13T00:00:00",4,7.4,12.2,25.5,37.6],
    [3056,"FF1721AC76217484","กองดิจิทัลเพื่อการควบคุมโรค","2023-09-13T00:00:00",5,6.7,10.1,25.5,38.4],
    [3057,"FF1721AC76217484","กองดิจิทัลเพื่อการควบคุมโรค","2023-09-13T00:00:00",6,4.8,7,25.8,38.6],
    [3058,"FF1721AC76217484","กองดิจิทัลเพื่อการควบคุมโรค","2023-09-13T00:00:00",7,5.2,8.1,27.2,36.7],
    [3059,"FF1721AC76217484","กองดิจิทัลเพื่อการควบคุมโรค","2023-09-13T00:00:00",8,3.9,4.8,28.4,33.9],
    [3060,"FF1721AC76217484","กองดิจิทัลเพื่อการควบคุมโรค","2023-09-13T00:00:00",9,3.7,4.7,29.3,32.5],
    [3061,"FF1721AC76217484","กองดิจิทัลเพื่อการควบคุมโรค","2023-09-13T00:00:00",10,3.8,5.1,30.3,31.4],
    [3062,"FF1721AC76217484","กองดิจิทัลเพื่อการควบคุมโรค","2023-09-13T00:00:00",11,5.4,6.5,31.1,30.1],
    [3063,"FF1721AC76217484","กองดิจิทัลเพื่อการควบคุมโรค","2023-09-13T00:00:00",12,5.2,7.8,31,29.9],
    [3064,"FF1721AC76217484","กองดิจิทัลเพื่อการควบคุมโรค","2023-09-13T00:00:00",13,6,7.6,30.3,31.8],
    [3065,"FF1721AC76217484","กองดิจิทัลเพื่อการควบคุมโรค","2023-09-13T00:00:00",14,7.5,11.1,30.7,31.5],
    [3066,"FF1721AC76217484","กองดิจิทัลเพื่อการควบคุมโรค","2023-09-13T00:00:00",15,8.1,10.4,30.3,31.8],
    [3067,"FF1721AC76217484","กองดิจิทัลเพื่อการควบคุมโรค","2023-09-13T00:00:00",16,12,15,26.5,40.3],
    [3068,"FF1721AC76217484","กองดิจิทัลเพื่อการควบคุมโรค","2023-09-13T00:00:00",17,9.9,13.4,26.6,41.2],
    [3069,"FF1721AC76217484","กองดิจิทัลเพื่อการควบคุมโรค","2023-09-13T00:00:00",18,13.1,20.1,26.4,41.6],
    [3070,"FF1721AC76217484","กองดิจิทัลเพื่อการควบคุมโรค","2023-09-13T00:00:00",19,14.8,21.1,26.5,41.2],
    [3071,"FF1721AC76217484","กองดิจิทัลเพื่อการควบคุมโรค","2023-09-13T00:00:00",20,13.6,18.8,26.1,41.2],
    [3072,"FF1721AC76217484","กองดิจิทัลเพื่อการควบคุมโรค","2023-09-13T00:00:00",21,13.9,22.2,26.5,40.6],
    [3073,"FF1721AC76217484","กองดิจิทัลเพื่อการควบคุมโรค","2023-09-13T00:00:00",22,16.1,23.6,26.5,40.7],
    [3074,"FF1721AC76217484","กองดิจิทัลเพื่อการควบคุมโรค","2023-09-13T00:00:00",23,13.2,17.9,26.6,39.6],
    [3075,"FF1721AC76217484","กองดิจิทัลเพื่อการควบคุมโรค","2023-09-14T00:00:00",0,11.4,15.9,26.8,39.2],
    [3076,"FF1721AC76217484","กองดิจิทัลเพื่อการควบคุมโรค","2023-09-14T00:00:00",1,10.8,15.3,26.6,39.5],
    [3077,"FF1721AC76217484","กองดิจิทัลเพื่อการควบคุมโรค","2023-09-14T00:00:00",2,10.8,13.2,26.9,39.2],
    [3078,"FF1721AC76217484","กองดิจิทัลเพื่อการควบคุมโรค","2023-09-14T00:00:00",3,9.4,13.5,26.4,39.9],
    [3079,"FF1721AC76217484","กองดิจิทัลเพื่อการควบคุมโรค","2023-09-14T00:00:00",4,8.7,12.3,25.6,40.2],
    [3080,"FF1721AC76217484","กองดิจิทัลเพื่อการควบคุมโรค","2023-09-14T00:00:00",5,8.6,12.4,25.3,40.9],
    [3081,"FF1721AC76217484","กองดิจิทัลเพื่อการควบคุมโรค","2023-09-14T00:00:00",6,11.4,16.9,25.3,41.3],
    [3082,"FF1721AC76217484","กองดิจิทัลเพื่อการควบคุมโรค","2023-09-14T00:00:00",7,17,22.3,26.1,39.2],
    [3083,"FF1721AC76217484","กองดิจิทัลเพื่อการควบคุมโรค","2023-09-14T00:00:00",8,13.4,20.5,27.8,36.1],
    [3084,"FF1721AC76217484","กองดิจิทัลเพื่อการควบคุมโรค","2023-09-14T00:00:00",9,10.6,15.4,29.7,33.3],
    [3085,"FF1721AC76217484","กองดิจิทัลเพื่อการควบคุมโรค","2023-09-14T00:00:00",10,7.7,10.5,30.4,31.5],
    [3086,"FF1721AC76217484","กองดิจิทัลเพื่อการควบคุมโรค","2023-09-14T00:00:00",11,6.1,7.8,31,30.9],
    [3087,"FF1721AC76217484","กองดิจิทัลเพื่อการควบคุมโรค","2023-09-14T00:00:00",12,4.1,5.8,31.2,30.5],
    [3088,"FF1721AC76217484","กองดิจิทัลเพื่อการควบคุมโรค","2023-09-14T00:00:00",13,6.9,12.6,31.4,30.1],
    [3089,"FF1721AC76217484","กองดิจิทัลเพื่อการควบคุมโรค","2023-09-14T00:00:00",14,7.7,11.4,31.8,29.5],
    [3090,"FF1721AC76217484","กองดิจิทัลเพื่อการควบคุมโรค","2023-09-14T00:00:00",15,6.6,9.2,31.2,30.1],
    [3091,"FF1721AC76217484","กองดิจิทัลเพื่อการควบคุมโรค","2023-09-14T00:00:00",16,7.2,11.5,30.1,32.6],
    [3092,"FF1721AC76217484","กองดิจิทัลเพื่อการควบคุมโรค","2023-09-14T00:00:00",17,5.9,7.7,26.8,35.1],
    [3093,"FF1721AC76217484","กองดิจิทัลเพื่อการควบคุมโรค","2023-09-14T00:00:00",18,4.4,6.1,24.6,41.8],
    [3094,"FF1721AC76217484","กองดิจิทัลเพื่อการควบคุมโรค","2023-09-14T00:00:00",19,3.3,5.5,24.4,41.5],
    [3095,"FF1721AC76217484","กองดิจิทัลเพื่อการควบคุมโรค","2023-09-14T00:00:00",20,2.9,5,24.7,42],
    [3096,"FF1721AC76217484","กองดิจิทัลเพื่อการควบคุมโรค","2023-09-14T00:00:00",21,3,4.7,24.5,43.6],
    [3097,"FF1721AC76217484","กองดิจิทัลเพื่อการควบคุมโรค","2023-09-14T00:00:00",22,1.9,3.9,24.9,43],
    [3098,"FF1721AC76217484","กองดิจิทัลเพื่อการควบคุมโรค","2023-09-14T00:00:00",23,1.5,3,25.1,42.8],
    [3099,"FF1721AC76217484","กองดิจิทัลเพื่อการควบคุมโรค","2023-09-15T00:00:00",0,4.2,7.1,25.5,41.2],
    [3100,"FF1721AC76217484","กองดิจิทัลเพื่อการควบคุมโรค","2023-09-15T00:00:00",1,9,13.4,25.5,40.4],
    [3101,"FF1721AC76217484","กองดิจิทัลเพื่อการควบคุมโรค","2023-09-15T00:00:00",2,10.8,14.2,25.2,40.8],
    [3102,"FF1721AC76217484","กองดิจิทัลเพื่อการควบคุมโรค","2023-09-15T00:00:00",3,10.6,15.6,24.9,41.1],
    [3103,"FF1721AC76217484","กองดิจิทัลเพื่อการควบคุมโรค","2023-09-15T00:00:00",4,9.6,13,25,40.3],
    [3104,"FF1721AC76217484","กองดิจิทัลเพื่อการควบคุมโรค","2023-09-15T00:00:00",5,7.8,11,25,40.4],
    [3105,"FF1721AC76217484","กองดิจิทัลเพื่อการควบคุมโรค","2023-09-15T00:00:00",6,9.7,13.8,25,40.6],
    [3106,"FF1721AC76217484","กองดิจิทัลเพื่อการควบคุมโรค","2023-09-15T00:00:00",7,12.7,18.5,26,39.2],
    [3107,"FF1721AC76217484","กองดิจิทัลเพื่อการควบคุมโรค","2023-09-15T00:00:00",8,9.6,14.6,27,36.9],
    [3108,"FF1721AC76217484","กองดิจิทัลเพื่อการควบคุมโรค","2023-09-15T00:00:00",9,6.5,8.8,28.4,34.5],
    [3109,"FF1721AC76217484","กองดิจิทัลเพื่อการควบคุมโรค","2023-09-15T00:00:00",10,5.6,6.8,29.6,33.1],
    [3110,"FF1721AC76217484","กองดิจิทัลเพื่อการควบคุมโรค","2023-09-15T00:00:00",11,4.9,8,30.3,32],
    [3111,"FF1721AC76217484","กองดิจิทัลเพื่อการควบคุมโรค","2023-09-15T00:00:00",12,6,8,30.2,31.6],
    [3112,"FF1721AC76217484","กองดิจิทัลเพื่อการควบคุมโรค","2023-09-15T00:00:00",13,4.6,6.7,30.5,31.4],
    [3113,"FF1721AC76217484","กองดิจิทัลเพื่อการควบคุมโรค","2023-09-15T00:00:00",14,6.8,9.9,30.7,31.9],
    [3114,"FF1721AC76217484","กองดิจิทัลเพื่อการควบคุมโรค","2023-09-15T00:00:00",15,5.1,5.9,29.3,34.1],
    [3115,"FF1721AC76217484","กองดิจิทัลเพื่อการควบคุมโรค","2023-09-15T00:00:00",16,4.9,5.8,28.5,35.4],
    [3116,"FF1721AC76217484","กองดิจิทัลเพื่อการควบคุมโรค","2023-09-15T00:00:00",17,3.1,4.5,28,36.7],
    [3117,"FF1721AC76217484","กองดิจิทัลเพื่อการควบคุมโรค","2023-09-15T00:00:00",18,3.2,5.6,27.5,38],
    [3118,"FF1721AC76217484","กองดิจิทัลเพื่อการควบคุมโรค","2023-09-15T00:00:00",19,5.8,7.6,26.5,38.1],
    [3119,"FF1721AC76217484","กองดิจิทัลเพื่อการควบคุมโรค","2023-09-15T00:00:00",20,1.5,2,25.5,38.5],
    [3120,"FF1721AC76217484","กองดิจิทัลเพื่อการควบคุมโรค","2023-09-15T00:00:00",21,1.9,2,25.3,38.8],
    [3121,"FF1721AC76217484","กองดิจิทัลเพื่อการควบคุมโรค","2023-09-15T00:00:00",22,3.9,4.9,25.4,39.2],
    [3122,"FF1721AC76217484","กองดิจิทัลเพื่อการควบคุมโรค","2023-09-15T00:00:00",23,4.4,5.3,25.5,39],
    [3123,"FF1721AC76217484","กองดิจิทัลเพื่อการควบคุมโรค","2023-09-16T00:00:00",0,4.8,6.7,25.5,39.3],
    [3124,"FF1721AC76217484","กองดิจิทัลเพื่อการควบคุมโรค","2023-09-16T00:00:00",1,3,3.5,25,40.3],
    [3125,"FF1721AC76217484","กองดิจิทัลเพื่อการควบคุมโรค","2023-09-16T00:00:00",2,2.9,3.4,24.8,40.1],
    [3126,"FF1721AC76217484","กองดิจิทัลเพื่อการควบคุมโรค","2023-09-16T00:00:00",3,3.8,6.1,24.9,39.7],
    [3127,"FF1721AC76217484","กองดิจิทัลเพื่อการควบคุมโรค","2023-09-16T00:00:00",4,4.9,6.1,24.7,39.9],
    [3128,"FF1721AC76217484","กองดิจิทัลเพื่อการควบคุมโรค","2023-09-16T00:00:00",5,5.4,7.5,24.8,39.6],
    [3129,"FF1721AC76217484","กองดิจิทัลเพื่อการควบคุมโรค","2023-09-16T00:00:00",6,5.2,6.9,25.2,38.6],
    [3130,"FF1721AC76217484","กองดิจิทัลเพื่อการควบคุมโรค","2023-09-16T00:00:00",7,7.2,10.2,26,37.5],
    [3131,"FF1721AC76217484","กองดิจิทัลเพื่อการควบคุมโรค","2023-09-16T00:00:00",8,7.9,11.1,27,35.6],
    [3132,"FF1721AC76217484","กองดิจิทัลเพื่อการควบคุมโรค","2023-09-16T00:00:00",9,7.1,9.3,28.6,32.9],
    [3133,"FF1721AC76217484","กองดิจิทัลเพื่อการควบคุมโรค","2023-09-16T00:00:00",10,6.4,8.2,30.7,30.1],
    [3134,"FF1721AC76217484","กองดิจิทัลเพื่อการควบคุมโรค","2023-09-16T00:00:00",11,4.1,5.5,32,28.6],
    [3135,"FF1721AC76217484","กองดิจิทัลเพื่อการควบคุมโรค","2023-09-16T00:00:00",12,2.9,4.8,32.4,27.9],
    [3136,"FF1721AC76217484","กองดิจิทัลเพื่อการควบคุมโรค","2023-09-16T00:00:00",13,7,8.7,31.1,29.7],
    [3137,"FF1721AC76217484","กองดิจิทัลเพื่อการควบคุมโรค","2023-09-16T00:00:00",14,6.2,8.2,30.4,31.3],
    [3138,"FF1721AC76217484","กองดิจิทัลเพื่อการควบคุมโรค","2023-09-16T00:00:00",15,4.8,7.2,30.8,30.8],
    [3139,"FF1721AC76217484","กองดิจิทัลเพื่อการควบคุมโรค","2023-09-16T00:00:00",16,5.8,8.1,30.1,32.2],
    [3140,"FF1721AC76217484","กองดิจิทัลเพื่อการควบคุมโรค","2023-09-16T00:00:00",17,11.8,13.3,26.6,40],
    [3141,"FF1721AC76217484","กองดิจิทัลเพื่อการควบคุมโรค","2023-09-16T00:00:00",18,11.6,15,25.6,42.4],
    [3142,"FF1721AC76217484","กองดิจิทัลเพื่อการควบคุมโรค","2023-09-16T00:00:00",19,4.8,7.2,26.8,39],
    [3143,"FF1721AC76217484","กองดิจิทัลเพื่อการควบคุมโรค","2023-09-16T00:00:00",20,9.8,12.9,24.9,44.3],
    [3144,"FF1721AC76217484","กองดิจิทัลเพื่อการควบคุมโรค","2023-09-16T00:00:00",21,4.5,6.4,24.4,46.3],
    [3145,"FF1721AC76217484","กองดิจิทัลเพื่อการควบคุมโรค","2023-09-16T00:00:00",22,4,6.3,25,46.4],
    [3146,"FF1721AC76217484","กองดิจิทัลเพื่อการควบคุมโรค","2023-09-16T00:00:00",23,1.9,3.1,25.1,44],
    [3147,"FF1721AC76217484","กองดิจิทัลเพื่อการควบคุมโรค","2023-09-17T00:00:00",0,1.7,3.5,24.8,44.8],
    [3148,"FF1721AC76217484","กองดิจิทัลเพื่อการควบคุมโรค","2023-09-17T00:00:00",1,3.1,3.8,24.8,44.9],
    [3149,"FF1721AC76217484","กองดิจิทัลเพื่อการควบคุมโรค","2023-09-17T00:00:00",2,3.1,3.8,24.7,43.8],
    [3150,"FF1721AC76217484","กองดิจิทัลเพื่อการควบคุมโรค","2023-09-17T00:00:00",3,3,4.5,24.3,44.1],
    [3151,"FF1721AC76217484","กองดิจิทัลเพื่อการควบคุมโรค","2023-09-17T00:00:00",4,8.7,12,24.3,43.9],
    [3152,"FF1721AC76217484","กองดิจิทัลเพื่อการควบคุมโรค","2023-09-17T00:00:00",5,12.6,18.7,24.8,43.5],
    [3153,"FF1721AC76217484","กองดิจิทัลเพื่อการควบคุมโรค","2023-09-17T00:00:00",6,13.6,19.1,25,43],
    [3154,"FF1721AC76217484","กองดิจิทัลเพื่อการควบคุมโรค","2023-09-17T00:00:00",7,13.7,20.5,25.9,41.8],
    [3155,"FF1721AC76217484","กองดิจิทัลเพื่อการควบคุมโรค","2023-09-17T00:00:00",8,7.7,10.5,27.6,37.4],
    [3156,"FF1721AC76217484","กองดิจิทัลเพื่อการควบคุมโรค","2023-09-17T00:00:00",9,5.9,7.4,29.3,34],
    [3157,"FF1721AC76217484","กองดิจิทัลเพื่อการควบคุมโรค","2023-09-17T00:00:00",10,3.6,4.7,30.2,31.9],
    [3158,"FF1721AC76217484","กองดิจิทัลเพื่อการควบคุมโรค","2023-09-17T00:00:00",11,2.4,3.7,31.9,29.3],
    [3159,"FF1721AC76217484","กองดิจิทัลเพื่อการควบคุมโรค","2023-09-17T00:00:00",12,2.2,3.4,31.4,30.4],
    [3160,"FF1721AC76217484","กองดิจิทัลเพื่อการควบคุมโรค","2023-09-17T00:00:00",13,2.1,2.8,30.5,31.6],
    [3161,"FF1721AC76217484","กองดิจิทัลเพื่อการควบคุมโรค","2023-09-17T00:00:00",14,1.4,2.1,31.5,30.3],
    [3162,"FF1721AC76217484","กองดิจิทัลเพื่อการควบคุมโรค","2023-09-17T00:00:00",15,2,3,32.4,29.3],
    [3163,"FF1721AC76217484","กองดิจิทัลเพื่อการควบคุมโรค","2023-09-17T00:00:00",16,3.2,4.4,30.3,32.5],
    [3164,"FF1721AC76217484","กองดิจิทัลเพื่อการควบคุมโรค","2023-09-17T00:00:00",17,4.4,4.7,29.3,34.3],
    [3165,"FF1721AC76217484","กองดิจิทัลเพื่อการควบคุมโรค","2023-09-17T00:00:00",18,4.5,6.1,28.4,36.1],
    [3166,"FF1721AC76217484","กองดิจิทัลเพื่อการควบคุมโรค","2023-09-17T00:00:00",19,3,5.6,27.7,37.7],
    [3167,"FF1721AC76217484","กองดิจิทัลเพื่อการควบคุมโรค","2023-09-17T00:00:00",20,3,3.9,26.5,40.1],
    [3168,"FF1721AC76217484","กองดิจิทัลเพื่อการควบคุมโรค","2023-09-17T00:00:00",21,2.3,4.1,23.5,46.8],
    [3169,"FF1721AC76217484","กองดิจิทัลเพื่อการควบคุมโรค","2023-09-17T00:00:00",22,2.6,3.6,23.8,46.9],
    [3170,"FF1721AC76217484","กองดิจิทัลเพื่อการควบคุมโรค","2023-09-17T00:00:00",23,2.2,3.1,24.5,45.3],
    [3171,"FF1721AC76217484","กองดิจิทัลเพื่อการควบคุมโรค","2023-09-18T00:00:00",0,5,7.6,24.5,45.1],
    [3172,"FF1721AC76217484","กองดิจิทัลเพื่อการควบคุมโรค","2023-09-18T00:00:00",1,3.5,5.9,24.3,45.5],
    [3173,"FF1721AC76217484","กองดิจิทัลเพื่อการควบคุมโรค","2023-09-18T00:00:00",2,5.5,6.9,24.3,45.4],
    [3174,"FF1721AC76217484","กองดิจิทัลเพื่อการควบคุมโรค","2023-09-18T00:00:00",3,8.7,12.3,24.1,45.8],
    [3175,"FF1721AC76217484","กองดิจิทัลเพื่อการควบคุมโรค","2023-09-18T00:00:00",4,8.2,11.3,23.8,45.8],
    [3176,"FF1721AC76217484","กองดิจิทัลเพื่อการควบคุมโรค","2023-09-18T00:00:00",5,12,21,24.7,45],
    [3177,"FF1721AC76217484","กองดิจิทัลเพื่อการควบคุมโรค","2023-09-18T00:00:00",8,13,17,27.4,40.2],
    [3178,"FF1721AC76217484","กองดิจิทัลเพื่อการควบคุมโรค","2023-09-18T00:00:00",9,19,28,26.7,40.5],
    [3179,"FF1721AC76217484","กองดิจิทัลเพื่อการควบคุมโรค","2023-09-18T00:00:00",10,6,10,31.3,32.5],
    [3180,"FF1721AC76217484","กองดิจิทัลเพื่อการควบคุมโรค","2023-09-18T00:00:00",11,14,31,30.1,33],
    [3181,"FF1721AC76217484","กองดิจิทัลเพื่อการควบคุมโรค","2023-09-18T00:00:00",13,21.3,28,30.9,31.3],
    [3182,"FF1721AC76217484","กองดิจิทัลเพื่อการควบคุมโรค","2023-09-18T00:00:00",14,13,19,30.6,33],
    [3183,"FF1721AC76217484","กองดิจิทัลเพื่อการควบคุมโรค","2023-09-18T00:00:00",15,7,12.5,30.4,32],
    [3184,"FF1721AC76217484","กองดิจิทัลเพื่อการควบคุมโรค","2023-09-18T00:00:00",16,6.8,8.3,28.8,35.5],
    [3185,"FF1721AC76217484","กองดิจิทัลเพื่อการควบคุมโรค","2023-09-18T00:00:00",17,4,6,28,37],
    [3186,"FF1721AC76217484","กองดิจิทัลเพื่อการควบคุมโรค","2023-09-18T00:00:00",18,3.5,4,27.6,37.3],
    [3187,"FF1721AC76217484","กองดิจิทัลเพื่อการควบคุมโรค","2023-09-18T00:00:00",21,7,9,25.3,40.5],
    [3188,"FF1721AC76217484","กองดิจิทัลเพื่อการควบคุมโรค","2023-09-18T00:00:00",23,11,12,25,42.5],
    [3189,"FF1721AC76217484","กองดิจิทัลเพื่อการควบคุมโรค","2023-09-19T00:00:00",1,9,13,25.8,42],
    [3190,"FF1721AC76217484","กองดิจิทัลเพื่อการควบคุมโรค","2023-09-19T00:00:00",4,9,13,25.3,42.5],
    [3191,"FF1721AC76217484","กองดิจิทัลเพื่อการควบคุมโรค","2023-09-19T00:00:00",10,5.9,8.2,30.8,30.8],
    [3192,"FF1721AC76217484","กองดิจิทัลเพื่อการควบคุมโรค","2023-09-19T00:00:00",11,9.2,12.4,31.6,30.4],
    [3193,"FF1721AC76217484","กองดิจิทัลเพื่อการควบคุมโรค","2023-09-19T00:00:00",12,8.8,11.7,31.9,30],
    [3194,"FF1721AC76217484","กองดิจิทัลเพื่อการควบคุมโรค","2023-09-19T00:00:00",13,6.8,9,31.6,29.5],
    [3195,"FF1721AC76217484","กองดิจิทัลเพื่อการควบคุมโรค","2023-09-19T00:00:00",14,9.4,12.3,31.8,28.8],
    [3196,"FF1721AC76217484","กองดิจิทัลเพื่อการควบคุมโรค","2023-09-19T00:00:00",15,12.2,14.3,30.5,31.9],
    [3197,"FF1721AC76217484","กองดิจิทัลเพื่อการควบคุมโรค","2023-09-19T00:00:00",16,13.7,17.7,29.9,32.8],
    [3198,"FF1721AC76217484","กองดิจิทัลเพื่อการควบคุมโรค","2023-09-19T00:00:00",17,16.5,20.7,29.7,33.2],
    [3199,"FF1721AC76217484","กองดิจิทัลเพื่อการควบคุมโรค","2023-09-19T00:00:00",18,16.9,22.8,29.1,34.2],
    [3200,"FF1721AC76217484","กองดิจิทัลเพื่อการควบคุมโรค","2023-09-19T00:00:00",19,20.1,26.4,29.1,34.3],
    [3201,"FF1721AC76217484","กองดิจิทัลเพื่อการควบคุมโรค","2023-09-19T00:00:00",20,26.9,37,29.1,34.7],
    [3202,"FF1721AC76217484","กองดิจิทัลเพื่อการควบคุมโรค","2023-09-19T00:00:00",21,29.7,43.1,28.7,36],
    [3203,"FF1721AC76217484","กองดิจิทัลเพื่อการควบคุมโรค","2023-09-19T00:00:00",22,31.8,47.7,28.7,36.9],
    [3204,"FF1721AC76217484","กองดิจิทัลเพื่อการควบคุมโรค","2023-09-19T00:00:00",23,52,78.4,28.2,38.2],
    [3205,"FF1721AC76217484","กองดิจิทัลเพื่อการควบคุมโรค","2023-09-20T00:00:00",0,28.8,39.6,27.2,39.8],
    [3206,"FF1721AC76217484","กองดิจิทัลเพื่อการควบคุมโรค","2023-09-20T00:00:00",1,27.5,38.9,26.7,40.3],
    [3207,"FF1721AC76217484","กองดิจิทัลเพื่อการควบคุมโรค","2023-09-20T00:00:00",2,25,35.1,26.3,41.7],
    [3208,"FF1721AC76217484","กองดิจิทัลเพื่อการควบคุมโรค","2023-09-20T00:00:00",3,17.7,25.7,26.1,41.6],
    [3209,"FF1721AC76217484","กองดิจิทัลเพื่อการควบคุมโรค","2023-09-20T00:00:00",4,12.8,17.6,25.7,41.2],
    [3210,"FF1721AC76217484","กองดิจิทัลเพื่อการควบคุมโรค","2023-09-20T00:00:00",5,10.7,16.8,25.6,41.5],
    [3211,"FF1721AC76217484","กองดิจิทัลเพื่อการควบคุมโรค","2023-09-20T00:00:00",6,12.1,16.6,25.9,40.9],
    [3212,"FF1721AC76217484","กองดิจิทัลเพื่อการควบคุมโรค","2023-09-20T00:00:00",7,18.5,27.1,26.8,39.8],
    [3213,"FF1721AC76217484","กองดิจิทัลเพื่อการควบคุมโรค","2023-09-20T00:00:00",8,20.1,27.8,28.2,38.3],
    [3214,"FF1721AC76217484","กองดิจิทัลเพื่อการควบคุมโรค","2023-09-20T00:00:00",9,14.9,18.4,29.6,36],
    [3215,"FF1721AC76217484","กองดิจิทัลเพื่อการควบคุมโรค","2023-09-20T00:00:00",10,11.5,13.3,31.4,33],
    [3216,"FF1721AC76217484","กองดิจิทัลเพื่อการควบคุมโรค","2023-09-20T00:00:00",11,9.1,12,32.2,31.2],
    [3217,"FF1721AC76217484","กองดิจิทัลเพื่อการควบคุมโรค","2023-09-20T00:00:00",12,10.8,13.7,32.3,31.1],
    [3218,"FF1721AC76217484","กองดิจิทัลเพื่อการควบคุมโรค","2023-09-20T00:00:00",13,11,13.6,33,29.7],
    [3219,"FF1721AC76217484","กองดิจิทัลเพื่อการควบคุมโรค","2023-09-20T00:00:00",14,10.6,14.9,33.4,28.7],
    [3220,"FF1721AC76217484","กองดิจิทัลเพื่อการควบคุมโรค","2023-09-20T00:00:00",15,16.6,21.8,33.3,28.8],
    [3221,"FF1721AC76217484","กองดิจิทัลเพื่อการควบคุมโรค","2023-09-20T00:00:00",16,15.3,22.4,32.6,30.1],
    [3222,"FF1721AC76217484","กองดิจิทัลเพื่อการควบคุมโรค","2023-09-20T00:00:00",17,13.1,17.3,28.4,34.2],
    [3223,"FF1721AC76217484","กองดิจิทัลเพื่อการควบคุมโรค","2023-09-20T00:00:00",18,15.1,22.4,24.4,42.9],
    [3224,"FF1721AC76217484","กองดิจิทัลเพื่อการควบคุมโรค","2023-09-20T00:00:00",19,20.5,28.9,24.8,45.1],
    [3225,"FF1721AC76217484","กองดิจิทัลเพื่อการควบคุมโรค","2023-09-20T00:00:00",20,23.8,32.4,25.5,44.5],
    [3226,"FF1721AC76217484","กองดิจิทัลเพื่อการควบคุมโรค","2023-09-20T00:00:00",21,23.4,32,25.8,43.9],
    [3227,"FF1721AC76217484","กองดิจิทัลเพื่อการควบคุมโรค","2023-09-20T00:00:00",22,27.2,38.3,25.8,44],
    [3228,"FF1721AC76217484","กองดิจิทัลเพื่อการควบคุมโรค","2023-09-20T00:00:00",23,30.6,46.7,24.4,44.9],
    [3229,"FF1721AC76217484","กองดิจิทัลเพื่อการควบคุมโรค","2023-09-21T00:00:00",0,13.8,19.5,23.4,46.3],
    [3230,"FF1721AC76217484","กองดิจิทัลเพื่อการควบคุมโรค","2023-09-21T00:00:00",1,7.5,9.6,23.2,47],
    [3231,"FF1721AC76217484","กองดิจิทัลเพื่อการควบคุมโรค","2023-09-21T00:00:00",2,8.4,10.7,23.8,46.6],
    [3232,"FF1721AC76217484","กองดิจิทัลเพื่อการควบคุมโรค","2023-09-21T00:00:00",3,7,11.7,23.4,46.9],
    [3233,"FF1721AC76217484","กองดิจิทัลเพื่อการควบคุมโรค","2023-09-21T00:00:00",4,5.9,9.6,23.1,47],
    [3234,"FF1721AC76217484","กองดิจิทัลเพื่อการควบคุมโรค","2023-09-21T00:00:00",5,6.5,8.8,23.3,47],
    [3235,"FF1721AC76217484","กองดิจิทัลเพื่อการควบคุมโรค","2023-09-21T00:00:00",6,6.9,9.7,23.2,46.9],
    [3236,"FF1721AC76217484","กองดิจิทัลเพื่อการควบคุมโรค","2023-09-21T00:00:00",7,8.8,10.3,24.7,44.3],
    [3237,"FF1721AC76217484","กองดิจิทัลเพื่อการควบคุมโรค","2023-09-21T00:00:00",8,8.2,11.7,26.3,41.4],
    [3238,"FF1721AC76217484","กองดิจิทัลเพื่อการควบคุมโรค","2023-09-21T00:00:00",9,7.3,11.4,29.1,37.1],
    [3239,"FF1721AC76217484","กองดิจิทัลเพื่อการควบคุมโรค","2023-09-21T00:00:00",10,8,10.9,31.4,33.7],
    [3240,"FF1721AC76217484","กองดิจิทัลเพื่อการควบคุมโรค","2023-09-21T00:00:00",11,7.5,10.3,31.7,32.7],
    [3241,"FF1721AC76217484","กองดิจิทัลเพื่อการควบคุมโรค","2023-09-21T00:00:00",12,6.6,8,31.8,33],
    [3242,"FF1721AC76217484","กองดิจิทัลเพื่อการควบคุมโรค","2023-09-21T00:00:00",13,5.4,7.4,32.8,31.3],
    [3243,"FF1721AC76217484","กองดิจิทัลเพื่อการควบคุมโรค","2023-09-21T00:00:00",14,4.9,5.4,33.8,29.6],
    [3244,"FF1721AC76217484","กองดิจิทัลเพื่อการควบคุมโรค","2023-09-21T00:00:00",15,4.9,8.1,33.6,29],
    [3245,"FF1721AC76217484","กองดิจิทัลเพื่อการควบคุมโรค","2023-09-21T00:00:00",16,10.4,13.9,32.3,31],
    [3246,"FF1721AC76217484","กองดิจิทัลเพื่อการควบคุมโรค","2023-09-21T00:00:00",17,12.6,18.8,31.2,32.5],
    [3247,"FF1721AC76217484","กองดิจิทัลเพื่อการควบคุมโรค","2023-09-21T00:00:00",18,8.1,10.5,23.7,44.7],
    [3248,"FF1721AC76217484","กองดิจิทัลเพื่อการควบคุมโรค","2023-09-21T00:00:00",19,4.1,5.5,21.7,47.2],
    [3249,"FF1721AC76217484","กองดิจิทัลเพื่อการควบคุมโรค","2023-09-21T00:00:00",20,2.5,3.9,21.9,47.6],
    [3250,"FF1721AC76217484","กองดิจิทัลเพื่อการควบคุมโรค","2023-09-21T00:00:00",21,3.1,5,22.1,47.8],
    [3251,"FF1721AC76217484","กองดิจิทัลเพื่อการควบคุมโรค","2023-09-21T00:00:00",22,3.8,5.7,22.3,47.7],
    [3252,"FF1721AC76217484","กองดิจิทัลเพื่อการควบคุมโรค","2023-09-21T00:00:00",23,7.7,10.5,22.4,47.2],
    [3253,"FF1721AC76217484","กองดิจิทัลเพื่อการควบคุมโรค","2023-09-22T00:00:00",0,23.9,32,22.3,47.5],
    [3254,"FF1721AC76217484","กองดิจิทัลเพื่อการควบคุมโรค","2023-09-22T00:00:00",1,21.7,27.3,22.6,47.2],
    [3255,"FF1721AC76217484","กองดิจิทัลเพื่อการควบคุมโรค","2023-09-22T00:00:00",2,16.2,20.2,22.4,47.6],
    [3256,"FF1721AC76217484","กองดิจิทัลเพื่อการควบคุมโรค","2023-09-22T00:00:00",3,11.3,14.8,22,47.8],
    [3257,"FF1721AC76217484","กองดิจิทัลเพื่อการควบคุมโรค","2023-09-22T00:00:00",4,7.7,9,22.2,47.2],
    [3258,"FF1721AC76217484","กองดิจิทัลเพื่อการควบคุมโรค","2023-09-22T00:00:00",5,12.7,16.7,22.5,47.3],
    [3259,"FF1721AC76217484","กองดิจิทัลเพื่อการควบคุมโรค","2023-09-22T00:00:00",6,21.4,32.2,22.6,47.2],
    [3260,"FF1721AC76217484","กองดิจิทัลเพื่อการควบคุมโรค","2023-09-22T00:00:00",7,21.1,30.2,23.5,45.3],
    [3261,"FF1721AC76217484","กองดิจิทัลเพื่อการควบคุมโรค","2023-09-22T00:00:00",8,18,25.1,25.2,41.9],
    [3262,"FF1721AC76217484","กองดิจิทัลเพื่อการควบคุมโรค","2023-09-22T00:00:00",9,13.7,17.9,27.4,37.9],
    [3263,"FF1721AC76217484","กองดิจิทัลเพื่อการควบคุมโรค","2023-09-22T00:00:00",10,17.2,22,29.2,35.4],
    [3264,"FF1721AC76217484","กองดิจิทัลเพื่อการควบคุมโรค","2023-09-22T00:00:00",11,7.8,10.9,31.3,30.6],
    [3265,"FF1721AC76217484","กองดิจิทัลเพื่อการควบคุมโรค","2023-09-22T00:00:00",12,6.7,8.6,32.8,28.5],
    [3266,"FF1721AC76217484","กองดิจิทัลเพื่อการควบคุมโรค","2023-09-22T00:00:00",13,9.3,13.6,33.6,28.7],
    [3267,"FF1721AC76217484","กองดิจิทัลเพื่อการควบคุมโรค","2023-09-22T00:00:00",14,8.7,13.4,32.4,29.7],
    [3268,"FF1721AC76217484","กองดิจิทัลเพื่อการควบคุมโรค","2023-09-22T00:00:00",15,9.2,10.3,33.1,28.2],
    [3269,"FF1721AC76217484","กองดิจิทัลเพื่อการควบคุมโรค","2023-09-22T00:00:00",16,12.2,16.3,31.1,30.8],
    [3270,"FF1721AC76217484","กองดิจิทัลเพื่อการควบคุมโรค","2023-09-22T00:00:00",17,12.8,16,30.3,32.2],
    [3271,"FF1721AC76217484","กองดิจิทัลเพื่อการควบคุมโรค","2023-09-22T00:00:00",18,13.2,17.2,29.5,33.4],
    [3272,"FF1721AC76217484","กองดิจิทัลเพื่อการควบคุมโรค","2023-09-22T00:00:00",19,18,24.7,28.9,35.4],
    [3273,"FF1721AC76217484","กองดิจิทัลเพื่อการควบคุมโรค","2023-09-22T00:00:00",20,20,27.4,27.4,38.3],
    [3274,"FF1721AC76217484","กองดิจิทัลเพื่อการควบคุมโรค","2023-09-22T00:00:00",21,25.5,34.1,27.7,39.2],
    [3275,"FF1721AC76217484","กองดิจิทัลเพื่อการควบคุมโรค","2023-09-22T00:00:00",22,22.6,30.6,28.3,37.8],
    [3276,"FF1721AC76217484","กองดิจิทัลเพื่อการควบคุมโรค","2023-09-22T00:00:00",23,13.5,17.3,25.6,40],
    [3277,"FF1721AC76217484","กองดิจิทัลเพื่อการควบคุมโรค","2023-09-23T00:00:00",0,8,10,24.9,40.9],
    [3278,"FF1721AC76217484","กองดิจิทัลเพื่อการควบคุมโรค","2023-09-23T00:00:00",1,8,10.3,24.8,41.1],
    [3279,"FF1721AC76217484","กองดิจิทัลเพื่อการควบคุมโรค","2023-09-23T00:00:00",2,7.7,10.5,25,40.6],
    [3280,"FF1721AC76217484","กองดิจิทัลเพื่อการควบคุมโรค","2023-09-23T00:00:00",3,10.5,14,24.9,41.8],
    [3281,"FF1721AC76217484","กองดิจิทัลเพื่อการควบคุมโรค","2023-09-23T00:00:00",4,15.9,20.4,24.9,41.9],
    [3282,"FF1721AC76217484","กองดิจิทัลเพื่อการควบคุมโรค","2023-09-23T00:00:00",5,16.4,23.3,24.9,41.8],
    [3283,"FF1721AC76217484","กองดิจิทัลเพื่อการควบคุมโรค","2023-09-23T00:00:00",6,17.3,23.9,25.1,41.6],
    [3284,"FF1721AC76217484","กองดิจิทัลเพื่อการควบคุมโรค","2023-09-23T00:00:00",7,20.7,30.3,26.5,39.4],
    [3285,"FF1721AC76217484","กองดิจิทัลเพื่อการควบคุมโรค","2023-09-23T00:00:00",8,14.3,17.4,28.1,36.2],
    [3286,"FF1721AC76217484","กองดิจิทัลเพื่อการควบคุมโรค","2023-09-23T00:00:00",9,13.6,18.5,30.6,33.1],
    [3287,"FF1721AC76217484","กองดิจิทัลเพื่อการควบคุมโรค","2023-09-23T00:00:00",10,16.6,22.3,30.4,32.6],
    [3288,"FF1721AC76217484","กองดิจิทัลเพื่อการควบคุมโรค","2023-09-23T00:00:00",11,23.5,29.5,30.9,32.6],
    [3289,"FF1721AC76217484","กองดิจิทัลเพื่อการควบคุมโรค","2023-09-23T00:00:00",12,26,35.3,32.5,30.4],
    [3290,"FF1721AC76217484","กองดิจิทัลเพื่อการควบคุมโรค","2023-09-23T00:00:00",13,27.9,40,31.4,32],
    [3291,"FF1721AC76217484","กองดิจิทัลเพื่อการควบคุมโรค","2023-09-23T00:00:00",14,41.5,65.7,26.6,42.4],
    [3292,"FF1721AC76217484","กองดิจิทัลเพื่อการควบคุมโรค","2023-09-23T00:00:00",15,23.2,31.7,24,44.5],
    [3293,"FF1721AC76217484","กองดิจิทัลเพื่อการควบคุมโรค","2023-09-23T00:00:00",16,7.9,9.8,23.6,44.6],
    [3294,"FF1721AC76217484","กองดิจิทัลเพื่อการควบคุมโรค","2023-09-23T00:00:00",17,11.8,15.7,24.8,42.3],
    [3295,"FF1721AC76217484","กองดิจิทัลเพื่อการควบคุมโรค","2023-09-23T00:00:00",18,14.1,17.3,24.7,43.1],
    [3296,"FF1721AC76217484","กองดิจิทัลเพื่อการควบคุมโรค","2023-09-23T00:00:00",19,18.8,28.6,25.3,42.8],
    [3297,"FF1721AC76217484","กองดิจิทัลเพื่อการควบคุมโรค","2023-09-23T00:00:00",20,19,26,25.7,41.9],
    [3298,"FF1721AC76217484","กองดิจิทัลเพื่อการควบคุมโรค","2023-09-23T00:00:00",21,21.4,29,25.8,41.6],
    [3299,"FF1721AC76217484","กองดิจิทัลเพื่อการควบคุมโรค","2023-09-23T00:00:00",22,32.3,46.4,26.2,41.8],
    [3300,"FF1721AC76217484","กองดิจิทัลเพื่อการควบคุมโรค","2023-09-23T00:00:00",23,38,58.6,26.6,41.3],
    [3301,"FF1721AC76217484","กองดิจิทัลเพื่อการควบคุมโรค","2023-09-24T00:00:00",0,38.7,59.2,26.3,42.8],
    [3302,"FF1721AC76217484","กองดิจิทัลเพื่อการควบคุมโรค","2023-09-24T00:00:00",1,39,60.5,26.6,41.9],
    [3303,"FF1721AC76217484","กองดิจิทัลเพื่อการควบคุมโรค","2023-09-24T00:00:00",2,33.6,51.6,26.1,42.2],
    [3304,"FF1721AC76217484","กองดิจิทัลเพื่อการควบคุมโรค","2023-09-24T00:00:00",3,31.7,47.9,26.3,41.7],
    [3305,"FF1721AC76217484","กองดิจิทัลเพื่อการควบคุมโรค","2023-09-24T00:00:00",4,24,33,25.8,42.5],
    [3306,"FF1721AC76217484","กองดิจิทัลเพื่อการควบคุมโรค","2023-09-24T00:00:00",5,22.8,30.2,25.1,43.7],
    [3307,"FF1721AC76217484","กองดิจิทัลเพื่อการควบคุมโรค","2023-09-24T00:00:00",6,25.4,35.1,25.8,43.2],
    [3308,"FF1721AC76217484","กองดิจิทัลเพื่อการควบคุมโรค","2023-09-24T00:00:00",7,33.8,51,26.4,42.4],
    [3309,"FF1721AC76217484","กองดิจิทัลเพื่อการควบคุมโรค","2023-09-24T00:00:00",8,38.8,59.9,28.1,40.2],
    [3310,"FF1721AC76217484","กองดิจิทัลเพื่อการควบคุมโรค","2023-09-24T00:00:00",9,41.1,60.1,30.7,35.9],
    [3311,"FF1721AC76217484","กองดิจิทัลเพื่อการควบคุมโรค","2023-09-24T00:00:00",10,33,50.6,31.8,34.1],
    [3312,"FF1721AC76217484","กองดิจิทัลเพื่อการควบคุมโรค","2023-09-24T00:00:00",11,30.9,48,30.4,35.1],
    [3313,"FF1721AC76217484","กองดิจิทัลเพื่อการควบคุมโรค","2023-09-24T00:00:00",12,7.2,10.1,24.2,42.9],
    [3314,"FF1721AC76217484","กองดิจิทัลเพื่อการควบคุมโรค","2023-09-24T00:00:00",13,9.7,12.1,24.8,43],
    [3315,"FF1721AC76217484","กองดิจิทัลเพื่อการควบคุมโรค","2023-09-24T00:00:00",14,14.9,23,26.9,40.1],
    [3316,"FF1721AC76217484","กองดิจิทัลเพื่อการควบคุมโรค","2023-09-24T00:00:00",15,16.3,21.8,30.9,32.8],
    [3317,"FF1721AC76217484","กองดิจิทัลเพื่อการควบคุมโรค","2023-09-24T00:00:00",16,19.9,25.3,31.5,31.4],
    [3318,"FF1721AC76217484","กองดิจิทัลเพื่อการควบคุมโรค","2023-09-24T00:00:00",17,19.1,23.3,30.6,33],
    [3319,"FF1721AC76217484","กองดิจิทัลเพื่อการควบคุมโรค","2023-09-24T00:00:00",18,19.7,24.6,29.5,34.3],
    [3320,"FF1721AC76217484","กองดิจิทัลเพื่อการควบคุมโรค","2023-09-24T00:00:00",19,17.7,26.1,27.4,36.7],
    [3321,"FF1721AC76217484","กองดิจิทัลเพื่อการควบคุมโรค","2023-09-24T00:00:00",20,33.4,50.7,27.7,38.8],
    [3322,"FF1721AC76217484","กองดิจิทัลเพื่อการควบคุมโรค","2023-09-24T00:00:00",21,34.9,53.7,27.9,39.5],
    [3323,"FF1721AC76217484","กองดิจิทัลเพื่อการควบคุมโรค","2023-09-24T00:00:00",22,27.7,41.1,27.8,38.4],
    [3324,"FF1721AC76217484","กองดิจิทัลเพื่อการควบคุมโรค","2023-09-24T00:00:00",23,22.4,30.2,27.3,37.9],
    [3325,"FF1721AC76217484","กองดิจิทัลเพื่อการควบคุมโรค","2023-09-25T00:00:00",0,23.7,27.8,26.7,38.4],
    [3326,"FF1721AC76217484","กองดิจิทัลเพื่อการควบคุมโรค","2023-09-25T00:00:00",1,22.5,33.7,26.5,39.4],
    [3327,"FF1721AC76217484","กองดิจิทัลเพื่อการควบคุมโรค","2023-09-25T00:00:00",2,22.7,29.8,26.1,40.9],
    [3328,"FF1721AC76217484","กองดิจิทัลเพื่อการควบคุมโรค","2023-09-25T00:00:00",3,24.3,33.9,25.6,41.8],
    [3329,"FF1721AC76217484","กองดิจิทัลเพื่อการควบคุมโรค","2023-09-25T00:00:00",4,24.4,36.3,25.6,42.2],
    [3330,"FF1721AC76217484","กองดิจิทัลเพื่อการควบคุมโรค","2023-09-25T00:00:00",5,24.8,35.7,25.8,42.2],
    [3331,"FF1721AC76217484","กองดิจิทัลเพื่อการควบคุมโรค","2023-09-25T00:00:00",6,26.6,40,26,41.9],
    [3332,"FF1721AC76217484","กองดิจิทัลเพื่อการควบคุมโรค","2023-09-25T00:00:00",7,25,38.6,27.5,39],
    [3333,"FF1721AC76217484","กองดิจิทัลเพื่อการควบคุมโรค","2023-09-25T00:00:00",8,23.6,33.9,28.7,37],
    [3334,"FF1721AC76217484","กองดิจิทัลเพื่อการควบคุมโรค","2023-09-25T00:00:00",9,16.9,24.6,30.5,34.7],
    [3335,"FF1721AC76217484","กองดิจิทัลเพื่อการควบคุมโรค","2023-09-25T00:00:00",10,17.6,19.7,33.2,30.2],
    [3336,"FF1721AC76217484","กองดิจิทัลเพื่อการควบคุมโรค","2023-09-25T00:00:00",11,20.5,24.3,33.8,29.7],
    [3337,"FF1721AC76217484","กองดิจิทัลเพื่อการควบคุมโรค","2023-09-25T00:00:00",12,22,28.5,32.9,30.2],
    [3338,"FF1721AC76217484","กองดิจิทัลเพื่อการควบคุมโรค","2023-09-25T00:00:00",13,23.6,31.2,33.8,29.1],
    [3339,"FF1721AC76217484","กองดิจิทัลเพื่อการควบคุมโรค","2023-09-25T00:00:00",14,21.7,31.4,29,35.5],
    [3340,"FF1721AC76217484","กองดิจิทัลเพื่อการควบคุมโรค","2023-09-25T00:00:00",15,26.5,37.1,25.5,42.3],
    [3341,"FF1721AC76217484","กองดิจิทัลเพื่อการควบคุมโรค","2023-09-25T00:00:00",16,21.3,28.8,26.5,40.6],
    [3342,"FF1721AC76217484","กองดิจิทัลเพื่อการควบคุมโรค","2023-09-25T00:00:00",17,24.9,34.6,27.2,40.8],
    [3343,"FF1721AC76217484","กองดิจิทัลเพื่อการควบคุมโรค","2023-09-25T00:00:00",18,31.4,43.7,27.7,40.3],
    [3344,"FF1721AC76217484","กองดิจิทัลเพื่อการควบคุมโรค","2023-09-25T00:00:00",19,36.4,58.5,27.6,40.5],
    [3345,"FF1721AC76217484","กองดิจิทัลเพื่อการควบคุมโรค","2023-09-25T00:00:00",20,38.9,58.3,27.7,40.6],
    [3346,"FF1721AC76217484","กองดิจิทัลเพื่อการควบคุมโรค","2023-09-25T00:00:00",21,31.6,46.6,27.7,41],
    [3347,"FF1721AC76217484","กองดิจิทัลเพื่อการควบคุมโรค","2023-09-25T00:00:00",22,27.6,38.1,27.9,40.8],
    [3348,"FF1721AC76217484","กองดิจิทัลเพื่อการควบคุมโรค","2023-09-25T00:00:00",23,28.3,39.3,27.5,41.1],
    [3349,"FF1721AC76217484","กองดิจิทัลเพื่อการควบคุมโรค","2023-09-26T00:00:00",0,19.6,26.5,26.6,39.9],
    [3350,"FF1721AC76217484","กองดิจิทัลเพื่อการควบคุมโรค","2023-09-26T00:00:00",1,14.6,19.2,26.2,40],
    [3351,"FF1721AC76217484","กองดิจิทัลเพื่อการควบคุมโรค","2023-09-26T00:00:00",2,12.3,16.9,25.9,41.2],
    [3352,"FF1721AC76217484","กองดิจิทัลเพื่อการควบคุมโรค","2023-09-26T00:00:00",3,17.9,23.2,25,43.8],
    [3353,"FF1721AC76217484","กองดิจิทัลเพื่อการควบคุมโรค","2023-09-26T00:00:00",4,16.5,23.5,25.3,43.1],
    [3354,"FF1721AC76217484","กองดิจิทัลเพื่อการควบคุมโรค","2023-09-26T00:00:00",5,14.1,18.4,25.2,43.2],
    [3355,"FF1721AC76217484","กองดิจิทัลเพื่อการควบคุมโรค","2023-09-26T00:00:00",6,16.1,22.6,25.2,43.5],
    [3356,"FF1721AC76217484","กองดิจิทัลเพื่อการควบคุมโรค","2023-09-26T00:00:00",7,23.9,31.1,25.6,42.4],
    [3357,"FF1721AC76217484","กองดิจิทัลเพื่อการควบคุมโรค","2023-09-26T00:00:00",8,25.6,39.1,26.6,40.5],
    [3358,"FF1721AC76217484","กองดิจิทัลเพื่อการควบคุมโรค","2023-09-26T00:00:00",9,17.9,26.1,27.7,38.5],
    [3359,"FF1721AC76217484","กองดิจิทัลเพื่อการควบคุมโรค","2023-09-26T00:00:00",10,13.5,18.3,28.6,37.1],
    [3360,"FF1721AC76217484","กองดิจิทัลเพื่อการควบคุมโรค","2023-09-26T00:00:00",11,12.4,17.1,30.8,34.4],
    [3361,"FF1721AC76217484","กองดิจิทัลเพื่อการควบคุมโรค","2023-09-26T00:00:00",12,12.8,17.6,30.1,34.6],
    [3362,"FF1721AC76217484","กองดิจิทัลเพื่อการควบคุมโรค","2023-09-26T00:00:00",13,18.4,23.7,30.4,34.4],
    [3363,"FF1721AC76217484","กองดิจิทัลเพื่อการควบคุมโรค","2023-09-26T00:00:00",14,24.1,33.2,31.4,33.7],
    [3364,"FF1721AC76217484","กองดิจิทัลเพื่อการควบคุมโรค","2023-09-26T00:00:00",15,24.6,35.1,31.2,33.2],
    [3365,"FF1721AC76217484","กองดิจิทัลเพื่อการควบคุมโรค","2023-09-26T00:00:00",16,28.3,39.1,30,34.7],
    [3366,"FF1721AC76217484","กองดิจิทัลเพื่อการควบคุมโรค","2023-09-26T00:00:00",17,33.2,49.4,29.5,36],
    [3367,"FF1721AC76217484","กองดิจิทัลเพื่อการควบคุมโรค","2023-09-26T00:00:00",18,30.3,46.3,28.7,36.2],
    [3368,"FF1721AC76217484","กองดิจิทัลเพื่อการควบคุมโรค","2023-09-26T00:00:00",19,12.1,17.2,26.1,37.8],
    [3369,"FF1721AC76217484","กองดิจิทัลเพื่อการควบคุมโรค","2023-09-26T00:00:00",20,4.3,7,22.4,46.9],
    [3370,"FF1721AC76217484","กองดิจิทัลเพื่อการควบคุมโรค","2023-09-26T00:00:00",21,2.9,5.1,22.6,46.4],
    [3371,"FF1721AC76217484","กองดิจิทัลเพื่อการควบคุมโรค","2023-09-26T00:00:00",22,6.5,9,23.3,46.4],
    [3372,"FF1721AC76217484","กองดิจิทัลเพื่อการควบคุมโรค","2023-09-26T00:00:00",23,5.3,7.3,23.3,46.4],
    [3373,"FF1721AC76217484","กองดิจิทัลเพื่อการควบคุมโรค","2023-09-27T00:00:00",0,5.2,7.4,23.3,46.7],
    [3374,"FF1721AC76217484","กองดิจิทัลเพื่อการควบคุมโรค","2023-09-27T00:00:00",1,25,38.1,23.6,47],
    [3375,"FF1721AC76217484","กองดิจิทัลเพื่อการควบคุมโรค","2023-09-27T00:00:00",2,35.4,56.7,24.1,46.3],
    [3376,"FF1721AC76217484","กองดิจิทัลเพื่อการควบคุมโรค","2023-09-27T00:00:00",3,39.6,62.2,24,46.5],
    [3377,"FF1721AC76217484","กองดิจิทัลเพื่อการควบคุมโรค","2023-09-27T00:00:00",4,39.8,63.1,24,46.5],
    [3378,"FF1721AC76217484","กองดิจิทัลเพื่อการควบคุมโรค","2023-09-27T00:00:00",5,37.7,61.4,24.5,45.5],
    [3379,"FF1721AC76217484","กองดิจิทัลเพื่อการควบคุมโรค","2023-09-27T00:00:00",6,34.3,51,24.6,44.9],
    [3380,"FF1721AC76217484","กองดิจิทัลเพื่อการควบคุมโรค","2023-09-27T00:00:00",7,32.7,46,25.7,42.9],
    [3381,"FF1721AC76217484","กองดิจิทัลเพื่อการควบคุมโรค","2023-09-27T00:00:00",8,21.2,29.5,26.5,41.2],
    [3382,"FF1721AC76217484","กองดิจิทัลเพื่อการควบคุมโรค","2023-09-27T00:00:00",9,9.4,13.8,27.2,39.1],
    [3383,"FF1721AC76217484","กองดิจิทัลเพื่อการควบคุมโรค","2023-09-27T00:00:00",10,7.3,11.2,28.9,35.6],
    [3384,"FF1721AC76217484","กองดิจิทัลเพื่อการควบคุมโรค","2023-09-27T00:00:00",11,12.8,17.8,30.4,33.3],
    [3385,"FF1721AC76217484","กองดิจิทัลเพื่อการควบคุมโรค","2023-09-27T00:00:00",12,20.4,29,30.1,34.1],
    [3386,"FF1721AC76217484","กองดิจิทัลเพื่อการควบคุมโรค","2023-09-27T00:00:00",13,14.7,20.3,30.2,33.4],
    [3387,"FF1721AC76217484","กองดิจิทัลเพื่อการควบคุมโรค","2023-09-27T00:00:00",14,8.2,11.6,26.9,40.8],
    [3388,"FF1721AC76217484","กองดิจิทัลเพื่อการควบคุมโรค","2023-09-27T00:00:00",15,4.9,7.4,26.1,41.4],
    [3389,"FF1721AC76217484","กองดิจิทัลเพื่อการควบคุมโรค","2023-09-27T00:00:00",16,1.8,2.8,27.2,39.6],
    [3390,"FF1721AC76217484","กองดิจิทัลเพื่อการควบคุมโรค","2023-09-27T00:00:00",17,1.3,1.7,26.9,39.3],
    [3391,"FF1721AC76217484","กองดิจิทัลเพื่อการควบคุมโรค","2023-09-27T00:00:00",18,1.2,1.8,26.4,40.1],
    [3392,"FF1721AC76217484","กองดิจิทัลเพื่อการควบคุมโรค","2023-09-27T00:00:00",19,4.7,7.4,25,44.3],
    [3393,"FF1721AC76217484","กองดิจิทัลเพื่อการควบคุมโรค","2023-09-27T00:00:00",20,4.5,6.4,23.7,45.8],
    [3394,"FF1721AC76217484","กองดิจิทัลเพื่อการควบคุมโรค","2023-09-27T00:00:00",21,4.5,5.4,23.7,46],
    [3395,"FF1721AC76217484","กองดิจิทัลเพื่อการควบคุมโรค","2023-09-27T00:00:00",22,15,21.9,24.2,45.4],
    [3396,"FF1721AC76217484","กองดิจิทัลเพื่อการควบคุมโรค","2023-09-27T00:00:00",23,13.4,19,24.2,45.3],
    [3397,"FF1721AC76217484","กองดิจิทัลเพื่อการควบคุมโรค","2023-09-28T00:00:00",0,6.3,7.8,24.4,44.5],
    [3398,"FF1721AC76217484","กองดิจิทัลเพื่อการควบคุมโรค","2023-09-28T00:00:00",1,6.9,7.9,24.7,44.6],
    [3399,"FF1721AC76217484","กองดิจิทัลเพื่อการควบคุมโรค","2023-09-28T00:00:00",2,5.8,7.8,24.8,45],
    [3400,"FF1721AC76217484","กองดิจิทัลเพื่อการควบคุมโรค","2023-09-28T00:00:00",3,8,10.9,24.9,44.5],
    [3401,"FF1721AC76217484","กองดิจิทัลเพื่อการควบคุมโรค","2023-09-28T00:00:00",4,10.8,15.8,25,44.7],
    [3402,"FF1721AC76217484","กองดิจิทัลเพื่อการควบคุมโรค","2023-09-28T00:00:00",5,4.7,5.9,24.9,43.7],
    [3403,"FF1721AC76217484","กองดิจิทัลเพื่อการควบคุมโรค","2023-09-28T00:00:00",6,2.6,3.3,24.9,42.9],
    [3404,"FF1721AC76217484","กองดิจิทัลเพื่อการควบคุมโรค","2023-09-28T00:00:00",7,2.5,4.4,25.1,41.9],
    [3405,"FF1721AC76217484","กองดิจิทัลเพื่อการควบคุมโรค","2023-09-28T00:00:00",8,7.9,12,25.7,42.5],
    [3406,"FF1721AC76217484","กองดิจิทัลเพื่อการควบคุมโรค","2023-09-28T00:00:00",9,3.6,5.4,26.1,41.7],
    [3407,"FF1721AC76217484","กองดิจิทัลเพื่อการควบคุมโรค","2023-09-28T00:00:00",10,1.7,2.9,26.6,40.4],
    [3408,"FF1721AC76217484","กองดิจิทัลเพื่อการควบคุมโรค","2023-09-28T00:00:00",11,1.6,1.9,27.6,38],
    [3409,"FF1721AC76217484","กองดิจิทัลเพื่อการควบคุมโรค","2023-09-28T00:00:00",12,1.2,2.5,27.4,38],
    [3410,"FF1721AC76217484","กองดิจิทัลเพื่อการควบคุมโรค","2023-09-28T00:00:00",13,1,1.8,28.6,35.4],
    [3411,"FF1721AC76217484","กองดิจิทัลเพื่อการควบคุมโรค","2023-09-28T00:00:00",14,1.7,2.8,29.1,35],
    [3412,"FF1721AC76217484","กองดิจิทัลเพื่อการควบคุมโรค","2023-09-28T00:00:00",15,1.6,2.9,29.1,35.3],
    [3413,"FF1721AC76217484","กองดิจิทัลเพื่อการควบคุมโรค","2023-09-28T00:00:00",16,1.8,3.5,27.7,37.8],
    [3414,"FF1721AC76217484","กองดิจิทัลเพื่อการควบคุมโรค","2023-09-28T00:00:00",17,2.5,4.5,26.4,41],
    [3415,"FF1721AC76217484","กองดิจิทัลเพื่อการควบคุมโรค","2023-09-28T00:00:00",18,3.3,6.9,24.4,45.9],
    [3416,"FF1721AC76217484","กองดิจิทัลเพื่อการควบคุมโรค","2023-09-28T00:00:00",19,3.9,5.9,24.6,45.6],
    [3417,"FF1721AC76217484","กองดิจิทัลเพื่อการควบคุมโรค","2023-09-28T00:00:00",20,5.7,8.5,25,44.7],
    [3418,"FF1721AC76217484","กองดิจิทัลเพื่อการควบคุมโรค","2023-09-28T00:00:00",21,3,4.9,25,42.7],
    [3419,"FF1721AC76217484","กองดิจิทัลเพื่อการควบคุมโรค","2023-09-28T00:00:00",22,5.3,8,25.3,43.9],
    [3420,"FF1721AC76217484","กองดิจิทัลเพื่อการควบคุมโรค","2023-09-28T00:00:00",23,1.7,3,25.6,41.1],
    [3421,"FF1721AC76217484","กองดิจิทัลเพื่อการควบคุมโรค","2023-09-29T00:00:00",0,3,3.9,25.3,42.9],
    [3422,"FF1721AC76217484","กองดิจิทัลเพื่อการควบคุมโรค","2023-09-29T00:00:00",1,1.7,2.6,25.7,40.1],
    [3423,"FF1721AC76217484","กองดิจิทัลเพื่อการควบคุมโรค","2023-09-29T00:00:00",2,1.4,1.8,25.8,39.2],
    [3424,"FF1721AC76217484","กองดิจิทัลเพื่อการควบคุมโรค","2023-09-29T00:00:00",3,1.5,1.9,25.9,39.3],
    [3425,"FF1721AC76217484","กองดิจิทัลเพื่อการควบคุมโรค","2023-09-29T00:00:00",4,1.6,3.6,26,39.2],
    [3426,"FF1721AC76217484","กองดิจิทัลเพื่อการควบคุมโรค","2023-09-29T00:00:00",5,2.6,4,26,39.5],
    [3427,"FF1721AC76217484","กองดิจิทัลเพื่อการควบคุมโรค","2023-09-29T00:00:00",6,4.3,6.4,26.4,39.2],
    [3428,"FF1721AC76217484","กองดิจิทัลเพื่อการควบคุมโรค","2023-09-29T00:00:00",7,4.7,6.4,26.6,38.2],
    [3429,"FF1721AC76217484","กองดิจิทัลเพื่อการควบคุมโรค","2023-09-29T00:00:00",8,4.1,7.1,28.4,35.7],
    [3430,"FF1721AC76217484","กองดิจิทัลเพื่อการควบคุมโรค","2023-09-29T00:00:00",9,6.1,8.7,29,33.7],
    [3431,"FF1721AC76217484","กองดิจิทัลเพื่อการควบคุมโรค","2023-09-29T00:00:00",10,5.2,7.7,30.1,31.9],
    [3432,"FF1721AC76217484","กองดิจิทัลเพื่อการควบคุมโรค","2023-09-29T00:00:00",11,5.6,7.3,30,31.5],
    [3433,"FF1721AC76217484","กองดิจิทัลเพื่อการควบคุมโรค","2023-09-29T00:00:00",12,6.3,9.2,30,31.5],
    [3434,"FF1721AC76217484","กองดิจิทัลเพื่อการควบคุมโรค","2023-09-29T00:00:00",13,6.1,8.8,29.7,31.9],
    [3435,"FF1721AC76217484","กองดิจิทัลเพื่อการควบคุมโรค","2023-09-29T00:00:00",14,8,10.8,29.9,32.5],
    [3436,"FF1721AC76217484","กองดิจิทัลเพื่อการควบคุมโรค","2023-09-29T00:00:00",15,12.2,16.5,30.6,32],
    [3437,"FF1721AC76217484","กองดิจิทัลเพื่อการควบคุมโรค","2023-09-29T00:00:00",16,13.6,19.8,29.8,33.3],
    [3438,"FF1721AC76217484","กองดิจิทัลเพื่อการควบคุมโรค","2023-09-29T00:00:00",17,16,25.8,28.4,36],
    [3439,"FF1721AC76217484","กองดิจิทัลเพื่อการควบคุมโรค","2023-09-29T00:00:00",18,3.3,5.9,22.9,46],
    [3440,"FF1721AC76217484","กองดิจิทัลเพื่อการควบคุมโรค","2023-09-29T00:00:00",19,3,4.1,23.1,46.7],
    [3441,"FF1721AC76217484","กองดิจิทัลเพื่อการควบคุมโรค","2023-09-29T00:00:00",20,4.2,5.7,24,45.4],
    [3442,"FF1721AC76217484","กองดิจิทัลเพื่อการควบคุมโรค","2023-09-29T00:00:00",21,6.9,8.7,23.8,46],
    [3443,"FF1721AC76217484","กองดิจิทัลเพื่อการควบคุมโรค","2023-09-29T00:00:00",22,7.1,10,23.8,46.6],
    [3444,"FF1721AC76217484","กองดิจิทัลเพื่อการควบคุมโรค","2023-09-29T00:00:00",23,6.1,8.6,24.5,45.3],
    [3445,"FF1721AC76217484","กองดิจิทัลเพื่อการควบคุมโรค","2023-09-30T00:00:00",0,6.3,9.3,24.3,46],
    [3446,"FF1721AC76217484","กองดิจิทัลเพื่อการควบคุมโรค","2023-09-30T00:00:00",1,7.4,9.7,24.8,44.7],
    [3447,"FF1721AC76217484","กองดิจิทัลเพื่อการควบคุมโรค","2023-09-30T00:00:00",2,8.3,11.9,24.7,44.9],
    [3448,"FF1721AC76217484","กองดิจิทัลเพื่อการควบคุมโรค","2023-09-30T00:00:00",3,8.1,11.2,24.4,44.7],
    [3449,"FF1721AC76217484","กองดิจิทัลเพื่อการควบคุมโรค","2023-09-30T00:00:00",4,11.3,14.1,24.5,44.4],
    [3450,"FF1721AC76217484","กองดิจิทัลเพื่อการควบคุมโรค","2023-09-30T00:00:00",5,11.4,15.2,24.2,45],
    [3451,"FF1721AC76217484","กองดิจิทัลเพื่อการควบคุมโรค","2023-09-30T00:00:00",6,12.4,17.1,24.5,44.4],
    [3452,"FF1721AC76217484","กองดิจิทัลเพื่อการควบคุมโรค","2023-09-30T00:00:00",7,14.6,21.8,25.2,43.6],
    [3453,"FF1721AC76217484","กองดิจิทัลเพื่อการควบคุมโรค","2023-09-30T00:00:00",8,20.5,29,26.7,41.7],
    [3454,"FF1721AC76217484","กองดิจิทัลเพื่อการควบคุมโรค","2023-09-30T00:00:00",9,14.2,20.6,28.3,37.5],
    [3455,"FF1721AC76217484","กองดิจิทัลเพื่อการควบคุมโรค","2023-09-30T00:00:00",10,9.4,15.1,29.1,35.3],
    [3456,"FF1721AC76217484","กองดิจิทัลเพื่อการควบคุมโรค","2023-09-30T00:00:00",11,9.7,11.9,30,33.4],
    [3457,"FF1721AC76217484","กองดิจิทัลเพื่อการควบคุมโรค","2023-09-30T00:00:00",12,11.2,13.5,31.5,31.2],
    [3458,"FF1721AC76217484","กองดิจิทัลเพื่อการควบคุมโรค","2023-09-30T00:00:00",13,12.7,15.4,32.4,30.3],
    [3459,"FF1721AC76217484","กองดิจิทัลเพื่อการควบคุมโรค","2023-09-30T00:00:00",14,9.5,12.1,33,29.1],
    [3460,"FF1721AC76217484","กองดิจิทัลเพื่อการควบคุมโรค","2023-09-30T00:00:00",15,10.6,13.6,28.4,37],
    [3461,"FF1721AC76217484","กองดิจิทัลเพื่อการควบคุมโรค","2023-09-30T00:00:00",16,11.5,16.3,26.7,41],
    [3462,"FF1721AC76217484","กองดิจิทัลเพื่อการควบคุมโรค","2023-09-30T00:00:00",17,14.3,20.9,24.8,45],
    [3463,"FF1721AC76217484","กองดิจิทัลเพื่อการควบคุมโรค","2023-09-30T00:00:00",18,9.9,14.5,23.3,46.3],
    [3464,"FF1721AC76217484","กองดิจิทัลเพื่อการควบคุมโรค","2023-09-30T00:00:00",19,12,17.3,23,46.7],
    [3465,"FF1721AC76217484","กองดิจิทัลเพื่อการควบคุมโรค","2023-09-30T00:00:00",20,7.2,10,23.3,46.2],
    [3466,"FF1721AC76217484","กองดิจิทัลเพื่อการควบคุมโรค","2023-09-30T00:00:00",21,8.6,11.1,23.8,45.9],
    [3467,"FF1721AC76217484","กองดิจิทัลเพื่อการควบคุมโรค","2023-09-30T00:00:00",22,7.2,9.5,24.1,45.9],
    [3468,"FF1721AC76217484","กองดิจิทัลเพื่อการควบคุมโรค","2023-09-30T00:00:00",23,6.1,8.6,24,46.2],
    [3469,"FF1721AC76217484","กองดิจิทัลเพื่อการควบคุมโรค","2023-01-10T00:00:00",0,7.7,9.7,23.9,46.2],
    [3470,"FF1721AC76217484","กองดิจิทัลเพื่อการควบคุมโรค","2023-01-10T00:00:00",1,11.3,15.1,24.5,45.4],
    [3471,"FF1721AC76217484","กองดิจิทัลเพื่อการควบคุมโรค","2023-01-10T00:00:00",2,15.5,22.4,24.7,44.6],
    [3472,"FF1721AC76217484","กองดิจิทัลเพื่อการควบคุมโรค","2023-01-10T00:00:00",3,23.2,33.8,24.7,44.5],
    [3473,"FF1721AC76217484","กองดิจิทัลเพื่อการควบคุมโรค","2023-01-10T00:00:00",4,27.4,38.7,25.2,43.7],
    [3474,"FF1721AC76217484","กองดิจิทัลเพื่อการควบคุมโรค","2023-01-10T00:00:00",5,23.8,36.2,24.9,44.2],
    [3475,"FF1721AC76217484","กองดิจิทัลเพื่อการควบคุมโรค","2023-01-10T00:00:00",6,22.7,34.6,25.2,44],
    [3476,"FF1721AC76217484","กองดิจิทัลเพื่อการควบคุมโรค","2023-01-10T00:00:00",7,16,20.8,26.6,40.5],
    [3477,"FF1721AC76217484","กองดิจิทัลเพื่อการควบคุมโรค","2023-01-10T00:00:00",8,8.8,12.2,27.9,37.1],
    [3478,"FF1721AC76217484","กองดิจิทัลเพื่อการควบคุมโรค","2023-01-10T00:00:00",9,6.9,9.2,30.2,32.9],
    [3479,"FF1721AC76217484","กองดิจิทัลเพื่อการควบคุมโรค","2023-01-10T00:00:00",10,6.3,9,30.7,32.1],
    [3480,"FF1721AC76217484","กองดิจิทัลเพื่อการควบคุมโรค","2023-01-10T00:00:00",11,7.5,10.8,30.9,32.3],
    [3481,"FF1721AC76217484","กองดิจิทัลเพื่อการควบคุมโรค","2023-01-10T00:00:00",12,6.3,10.3,30.2,33],
    [3482,"FF1721AC76217484","กองดิจิทัลเพื่อการควบคุมโรค","2023-01-10T00:00:00",13,9.4,12.1,32,30.9],
    [3483,"FF1721AC76217484","กองดิจิทัลเพื่อการควบคุมโรค","2023-01-10T00:00:00",14,8.9,11.1,30.7,32.2],
    [3484,"FF1721AC76217484","กองดิจิทัลเพื่อการควบคุมโรค","2023-01-10T00:00:00",15,4.4,6.2,32.1,30.5],
    [3485,"FF1721AC76217484","กองดิจิทัลเพื่อการควบคุมโรค","2023-01-10T00:00:00",16,4.7,6.5,31.7,31.2],
    [3486,"FF1721AC76217484","กองดิจิทัลเพื่อการควบคุมโรค","2023-01-10T00:00:00",17,4.5,4.6,30.5,32.6],
    [3487,"FF1721AC76217484","กองดิจิทัลเพื่อการควบคุมโรค","2023-01-10T00:00:00",18,5.2,6.3,29.6,34.6],
    [3488,"FF1721AC76217484","กองดิจิทัลเพื่อการควบคุมโรค","2023-01-10T00:00:00",19,8.5,11.6,29.4,35.8],
    [3489,"FF1721AC76217484","กองดิจิทัลเพื่อการควบคุมโรค","2023-01-10T00:00:00",20,12.3,16.4,29,37.1],
    [3490,"FF1721AC76217484","กองดิจิทัลเพื่อการควบคุมโรค","2023-01-10T00:00:00",21,5.2,6.9,26.2,39.3],
    [3491,"FF1721AC76217484","กองดิจิทัลเพื่อการควบคุมโรค","2023-01-10T00:00:00",22,1.5,1.8,25.3,39.5],
    [3492,"FF1721AC76217484","กองดิจิทัลเพื่อการควบคุมโรค","2023-01-10T00:00:00",23,4.5,6,25.8,39],
    [3493,"FF1721AC76217484","กองดิจิทัลเพื่อการควบคุมโรค","2023-02-10T00:00:00",0,6.2,8.3,25.8,39.4],
    [3494,"FF1721AC76217484","กองดิจิทัลเพื่อการควบคุมโรค","2023-02-10T00:00:00",1,6.2,10.5,26,39.4],
    [3495,"FF1721AC76217484","กองดิจิทัลเพื่อการควบคุมโรค","2023-02-10T00:00:00",2,8.5,11.3,26.2,39.3],
    [3496,"FF1721AC76217484","กองดิจิทัลเพื่อการควบคุมโรค","2023-02-10T00:00:00",3,10.7,14.3,25.8,39.9],
    [3497,"FF1721AC76217484","กองดิจิทัลเพื่อการควบคุมโรค","2023-02-10T00:00:00",4,10.8,14.3,25.2,41.3],
    [3498,"FF1721AC76217484","กองดิจิทัลเพื่อการควบคุมโรค","2023-02-10T00:00:00",5,9.7,12.4,25.4,40.8],
    [3499,"FF1721AC76217484","กองดิจิทัลเพื่อการควบคุมโรค","2023-02-10T00:00:00",6,9.7,13.7,25.6,40.6],
    [3500,"FF1721AC76217484","กองดิจิทัลเพื่อการควบคุมโรค","2023-02-10T00:00:00",7,10.5,13.8,26.1,39.6],
    [3501,"FF1721AC76217484","กองดิจิทัลเพื่อการควบคุมโรค","2023-02-10T00:00:00",8,7.7,10.9,27.5,37.3],
    [3502,"FF1721AC76217484","กองดิจิทัลเพื่อการควบคุมโรค","2023-02-10T00:00:00",9,3.8,8.1,29.1,34.1],
    [3503,"FF1721AC76217484","กองดิจิทัลเพื่อการควบคุมโรค","2023-02-10T00:00:00",10,2,3.5,30.1,32.3],
    [3504,"FF1721AC76217484","กองดิจิทัลเพื่อการควบคุมโรค","2023-02-10T00:00:00",11,3.1,3.1,30.7,32.1],
    [3505,"FF1721AC76217484","กองดิจิทัลเพื่อการควบคุมโรค","2023-02-10T00:00:00",12,3.2,3.9,31.3,31.8],
    [3506,"FF1721AC76217484","กองดิจิทัลเพื่อการควบคุมโรค","2023-02-10T00:00:00",13,2.5,2.6,31.9,30.4],
    [3507,"FF1721AC76217484","กองดิจิทัลเพื่อการควบคุมโรค","2023-02-10T00:00:00",14,2.5,4.3,31,30.6],
    [3508,"FF1721AC76217484","กองดิจิทัลเพื่อการควบคุมโรค","2023-02-10T00:00:00",15,4.6,6,30,32.5],
    [3509,"FF1721AC76217484","กองดิจิทัลเพื่อการควบคุมโรค","2023-02-10T00:00:00",16,6.7,9.5,30.5,32.4],
    [3510,"FF1721AC76217484","กองดิจิทัลเพื่อการควบคุมโรค","2023-02-10T00:00:00",17,6.3,8.7,30.1,33],
    [3511,"FF1721AC76217484","กองดิจิทัลเพื่อการควบคุมโรค","2023-02-10T00:00:00",18,6.7,8.9,29.9,33.7],
    [3512,"FF1721AC76217484","กองดิจิทัลเพื่อการควบคุมโรค","2023-02-10T00:00:00",19,7.6,10.9,29.9,34.6],
    [3513,"FF1721AC76217484","กองดิจิทัลเพื่อการควบคุมโรค","2023-02-10T00:00:00",20,9,12.9,28.8,36.9],
    [3514,"FF1721AC76217484","กองดิจิทัลเพื่อการควบคุมโรค","2023-02-10T00:00:00",21,13.2,19.5,28.7,36.5],
    [3515,"FF1721AC76217484","กองดิจิทัลเพื่อการควบคุมโรค","2023-02-10T00:00:00",22,20,30,27.8,38.2],
    [3516,"FF1721AC76217484","กองดิจิทัลเพื่อการควบคุมโรค","2023-02-10T00:00:00",23,7.1,10.9,27.4,38],
    [3517,"FF1721AC76217484","กองดิจิทัลเพื่อการควบคุมโรค","2023-03-10T00:00:00",0,7.5,9.5,26.9,38],
    [3518,"FF1721AC76217484","กองดิจิทัลเพื่อการควบคุมโรค","2023-03-10T00:00:00",1,8.4,12.2,26.4,38.2],
    [3519,"FF1721AC76217484","กองดิจิทัลเพื่อการควบคุมโรค","2023-03-10T00:00:00",2,9.6,13.3,26.2,38.9],
    [3520,"FF1721AC76217484","กองดิจิทัลเพื่อการควบคุมโรค","2023-03-10T00:00:00",3,10.6,16.6,26.2,38.9],
    [3521,"FF1721AC76217484","กองดิจิทัลเพื่อการควบคุมโรค","2023-03-10T00:00:00",4,12.1,16.1,26.1,39.3],
    [3522,"FF1721AC76217484","กองดิจิทัลเพื่อการควบคุมโรค","2023-03-10T00:00:00",5,8.9,13.6,26,39.3],
    [3523,"FF1721AC76217484","กองดิจิทัลเพื่อการควบคุมโรค","2023-03-10T00:00:00",6,7.8,10.6,26,39.1],
    [3524,"FF1721AC76217484","กองดิจิทัลเพื่อการควบคุมโรค","2023-03-10T00:00:00",7,7.8,10.1,26.9,37.6],
    [3525,"FF1721AC76217484","กองดิจิทัลเพื่อการควบคุมโรค","2023-03-10T00:00:00",8,8.9,15.8,28.3,35.7],
    [3526,"FF1721AC76217484","กองดิจิทัลเพื่อการควบคุมโรค","2023-03-10T00:00:00",9,9.3,13.3,30.1,33.2],
    [3527,"FF1721AC76217484","กองดิจิทัลเพื่อการควบคุมโรค","2023-03-10T00:00:00",10,6.6,9.9,31.8,30.6],
    [3528,"FF1721AC76217484","กองดิจิทัลเพื่อการควบคุมโรค","2023-03-10T00:00:00",11,6.5,8.3,32.4,30],
    [3529,"FF1721AC76217484","กองดิจิทัลเพื่อการควบคุมโรค","2023-03-10T00:00:00",12,6.9,9,32.5,29.8],
    [3530,"FF1721AC76217484","กองดิจิทัลเพื่อการควบคุมโรค","2023-03-10T00:00:00",13,7.7,9.3,32.6,30.2],
    [3531,"FF1721AC76217484","กองดิจิทัลเพื่อการควบคุมโรค","2023-03-10T00:00:00",14,5.7,7.7,33.5,28.4],
    [3532,"FF1721AC76217484","กองดิจิทัลเพื่อการควบคุมโรค","2023-03-10T00:00:00",15,8.5,11.4,32.2,30.4],
    [3533,"FF1721AC76217484","กองดิจิทัลเพื่อการควบคุมโรค","2023-03-10T00:00:00",16,11.3,15.7,27.7,39.4],
    [3534,"FF1721AC76217484","กองดิจิทัลเพื่อการควบคุมโรค","2023-03-10T00:00:00",17,3.5,3.9,24.2,44.4],
    [3535,"FF1721AC76217484","กองดิจิทัลเพื่อการควบคุมโรค","2023-03-10T00:00:00",18,4.7,6.3,24.4,45.3],
    [3536,"FF1721AC76217484","กองดิจิทัลเพื่อการควบคุมโรค","2023-03-10T00:00:00",19,6.3,10,24.4,46.5],
    [3537,"FF1721AC76217484","กองดิจิทัลเพื่อการควบคุมโรค","2023-03-10T00:00:00",20,3.1,3.5,23.5,46.3],
    [3538,"FF1721AC76217484","กองดิจิทัลเพื่อการควบคุมโรค","2023-03-10T00:00:00",21,2.1,3.2,23.5,46.4],
    [3539,"FF1721AC76217484","กองดิจิทัลเพื่อการควบคุมโรค","2023-03-10T00:00:00",22,2.2,2.6,23.9,45.8],
    [3540,"FF1721AC76217484","กองดิจิทัลเพื่อการควบคุมโรค","2023-03-10T00:00:00",23,2.6,2.7,24.1,46],
    [3541,"FF1721AC76217484","กองดิจิทัลเพื่อการควบคุมโรค","2023-04-10T00:00:00",0,2.7,3.7,23.9,46.6],
    [3542,"FF1721AC76217484","กองดิจิทัลเพื่อการควบคุมโรค","2023-04-10T00:00:00",1,3.3,3.9,23.9,46.6],
    [3543,"FF1721AC76217484","กองดิจิทัลเพื่อการควบคุมโรค","2023-04-10T00:00:00",2,4.3,6.2,24.5,45.6],
    [3544,"FF1721AC76217484","กองดิจิทัลเพื่อการควบคุมโรค","2023-04-10T00:00:00",3,6.2,9.5,24.2,46.3],
    [3545,"FF1721AC76217484","กองดิจิทัลเพื่อการควบคุมโรค","2023-04-10T00:00:00",4,12.2,16.3,24.7,44.4],
    [3546,"FF1721AC76217484","กองดิจิทัลเพื่อการควบคุมโรค","2023-04-10T00:00:00",5,12.4,17.5,24.2,45.4],
    [3547,"FF1721AC76217484","กองดิจิทัลเพื่อการควบคุมโรค","2023-04-10T00:00:00",6,12.6,16.1,24.1,45.5],
    [3548,"FF1721AC76217484","กองดิจิทัลเพื่อการควบคุมโรค","2023-04-10T00:00:00",7,11.1,15,24.6,44.6],
    [3549,"FF1721AC76217484","กองดิจิทัลเพื่อการควบคุมโรค","2023-04-10T00:00:00",8,12.3,15.8,25.5,43.4],
    [3550,"FF1721AC76217484","กองดิจิทัลเพื่อการควบคุมโรค","2023-04-10T00:00:00",9,12,16.4,26.4,41.6],
    [3551,"FF1721AC76217484","กองดิจิทัลเพื่อการควบคุมโรค","2023-04-10T00:00:00",10,12.3,16.5,28.2,38.9],
    [3552,"FF1721AC76217484","กองดิจิทัลเพื่อการควบคุมโรค","2023-04-10T00:00:00",11,13.4,18.6,29.2,36.6],
    [3553,"FF1721AC76217484","กองดิจิทัลเพื่อการควบคุมโรค","2023-04-10T00:00:00",12,21.7,28.3,27.9,40.1],
    [3554,"FF1721AC76217484","กองดิจิทัลเพื่อการควบคุมโรค","2023-04-10T00:00:00",13,16.3,21.9,27.8,39.6],
    [3555,"FF1721AC76217484","กองดิจิทัลเพื่อการควบคุมโรค","2023-04-10T00:00:00",14,17.5,21.3,29.6,35.9],
    [3556,"FF1721AC76217484","กองดิจิทัลเพื่อการควบคุมโรค","2023-04-10T00:00:00",15,24.3,33.3,29.9,35.2],
    [3557,"FF1721AC76217484","กองดิจิทัลเพื่อการควบคุมโรค","2023-04-10T00:00:00",16,33.2,51.4,29.4,36.9],
    [3558,"FF1721AC76217484","กองดิจิทัลเพื่อการควบคุมโรค","2023-04-10T00:00:00",17,30.1,47.9,29.1,36.7],
    [3559,"FF1721AC76217484","กองดิจิทัลเพื่อการควบคุมโรค","2023-04-10T00:00:00",18,24.7,36.2,26.8,40.6],
    [3560,"FF1721AC76217484","กองดิจิทัลเพื่อการควบคุมโรค","2023-04-10T00:00:00",19,7.9,11.8,23,48.2],
    [3561,"FF1721AC76217484","กองดิจิทัลเพื่อการควบคุมโรค","2023-04-10T00:00:00",20,9.2,12.9,23.9,46.1],
    [3562,"FF1721AC76217484","กองดิจิทัลเพื่อการควบคุมโรค","2023-04-10T00:00:00",21,12.8,16,24.1,46.3],
    [3563,"FF1721AC76217484","กองดิจิทัลเพื่อการควบคุมโรค","2023-04-10T00:00:00",22,16.3,22.1,24.4,46.3],
    [3564,"FF1721AC76217484","กองดิจิทัลเพื่อการควบคุมโรค","2023-04-10T00:00:00",23,19.9,26.6,24.6,46.1],
    [3565,"FF1721AC76217484","กองดิจิทัลเพื่อการควบคุมโรค","2023-05-10T00:00:00",0,12.9,16.1,24.5,45.8],
    [3566,"FF1721AC76217484","กองดิจิทัลเพื่อการควบคุมโรค","2023-05-10T00:00:00",1,6.4,7.9,24.2,45.9],
    [3567,"FF1721AC76217484","กองดิจิทัลเพื่อการควบคุมโรค","2023-05-10T00:00:00",2,4.6,7.2,24.2,45.7],
    [3568,"FF1721AC76217484","กองดิจิทัลเพื่อการควบคุมโรค","2023-05-10T00:00:00",3,8,9.3,24,45.8],
    [3569,"FF1721AC76217484","กองดิจิทัลเพื่อการควบคุมโรค","2023-05-10T00:00:00",4,7.7,10.6,24.1,45.6],
    [3570,"FF1721AC76217484","กองดิจิทัลเพื่อการควบคุมโรค","2023-05-10T00:00:00",5,12.6,16.6,23.9,46.1],
    [3571,"FF1721AC76217484","กองดิจิทัลเพื่อการควบคุมโรค","2023-05-10T00:00:00",6,13.7,19,24.3,45.5],
    [3572,"FF1721AC76217484","กองดิจิทัลเพื่อการควบคุมโรค","2023-05-10T00:00:00",7,18,23.9,25.1,44.6],
    [3573,"FF1721AC76217484","กองดิจิทัลเพื่อการควบคุมโรค","2023-05-10T00:00:00",8,25.4,34.9,25.5,43.7],
    [3574,"FF1721AC76217484","กองดิจิทัลเพื่อการควบคุมโรค","2023-05-10T00:00:00",9,30.8,47.7,26,43.4],
    [3575,"FF1721AC76217484","กองดิจิทัลเพื่อการควบคุมโรค","2023-05-10T00:00:00",10,35,57.8,27.4,40.6],
    [3576,"FF1721AC76217484","กองดิจิทัลเพื่อการควบคุมโรค","2023-05-10T00:00:00",11,37.4,58.2,28.9,38.1],
    [3577,"FF1721AC76217484","กองดิจิทัลเพื่อการควบคุมโรค","2023-05-10T00:00:00",12,36.7,58.9,29.1,37.5],
    [3578,"FF1721AC76217484","กองดิจิทัลเพื่อการควบคุมโรค","2023-05-10T00:00:00",13,42.2,56.3,30.3,35.6],
    [3579,"FF1721AC76217484","กองดิจิทัลเพื่อการควบคุมโรค","2023-05-10T00:00:00",14,26.8,38.1,31.7,32.3],
    [3580,"FF1721AC76217484","กองดิจิทัลเพื่อการควบคุมโรค","2023-05-10T00:00:00",15,22.5,32.4,31.7,31.2],
    [3581,"FF1721AC76217484","กองดิจิทัลเพื่อการควบคุมโรค","2023-05-10T00:00:00",16,32.2,50.3,30.4,34.6],
    [3582,"FF1721AC76217484","กองดิจิทัลเพื่อการควบคุมโรค","2023-05-10T00:00:00",17,38.5,65.2,29.3,37.2],
    [3583,"FF1721AC76217484","กองดิจิทัลเพื่อการควบคุมโรค","2023-05-10T00:00:00",18,44,74.1,25.4,46.2],
    [3584,"FF1721AC76217484","กองดิจิทัลเพื่อการควบคุมโรค","2023-05-10T00:00:00",19,39.9,64.4,25.3,46.9],
    [3585,"FF1721AC76217484","กองดิจิทัลเพื่อการควบคุมโรค","2023-05-10T00:00:00",20,18.1,27.1,25.4,45.7],
    [3586,"FF1721AC76217484","กองดิจิทัลเพื่อการควบคุมโรค","2023-05-10T00:00:00",21,6.4,8.2,25.8,44],
    [3587,"FF1721AC76217484","กองดิจิทัลเพื่อการควบคุมโรค","2023-05-10T00:00:00",22,6.2,7.6,25.9,43.9],
    [3588,"FF1721AC76217484","กองดิจิทัลเพื่อการควบคุมโรค","2023-05-10T00:00:00",23,7.1,10,26,43.2],
    [3589,"FF1721AC76217484","กองดิจิทัลเพื่อการควบคุมโรค","2023-06-10T00:00:00",0,6.1,8.7,26,43],
    [3590,"FF1721AC76217484","กองดิจิทัลเพื่อการควบคุมโรค","2023-06-10T00:00:00",1,3.8,5.8,25.5,43.7],
    [3591,"FF1721AC76217484","กองดิจิทัลเพื่อการควบคุมโรค","2023-06-10T00:00:00",2,2.4,2.5,24.1,45.9],
    [3592,"FF1721AC76217484","กองดิจิทัลเพื่อการควบคุมโรค","2023-06-10T00:00:00",3,1.9,3.5,23.9,46.5],
    [3593,"FF1721AC76217484","กองดิจิทัลเพื่อการควบคุมโรค","2023-06-10T00:00:00",4,2.9,3.4,24,46.3],
    [3594,"FF1721AC76217484","กองดิจิทัลเพื่อการควบคุมโรค","2023-06-10T00:00:00",5,4.8,5.9,24.4,45.8],
    [3595,"FF1721AC76217484","กองดิจิทัลเพื่อการควบคุมโรค","2023-06-10T00:00:00",6,5.6,6.1,24.8,45],
    [3596,"FF1721AC76217484","กองดิจิทัลเพื่อการควบคุมโรค","2023-06-10T00:00:00",7,8.7,11.3,25.2,44.7],
    [3597,"FF1721AC76217484","กองดิจิทัลเพื่อการควบคุมโรค","2023-06-10T00:00:00",8,11.9,19,26.4,43.1],
    [3598,"FF1721AC76217484","กองดิจิทัลเพื่อการควบคุมโรค","2023-06-10T00:00:00",9,14,20.3,26.6,42.6],
    [3599,"FF1721AC76217484","กองดิจิทัลเพื่อการควบคุมโรค","2023-06-10T00:00:00",10,11.5,15.8,27.7,40.1],
    [3600,"FF1721AC76217484","กองดิจิทัลเพื่อการควบคุมโรค","2023-06-10T00:00:00",11,9.3,12.2,29.3,37.1],
    [3601,"FF1721AC76217484","กองดิจิทัลเพื่อการควบคุมโรค","2023-06-10T00:00:00",12,12.3,16.3,29.8,35.4],
    [3602,"FF1721AC76217484","กองดิจิทัลเพื่อการควบคุมโรค","2023-06-10T00:00:00",13,35.6,54.3,28.4,38.4],
    [3603,"FF1721AC76217484","กองดิจิทัลเพื่อการควบคุมโรค","2023-06-10T00:00:00",14,30.9,45.9,28.8,37.5],
    [3604,"FF1721AC76217484","กองดิจิทัลเพื่อการควบคุมโรค","2023-06-10T00:00:00",15,24.3,36.2,27.9,38.9],
    [3605,"FF1721AC76217484","กองดิจิทัลเพื่อการควบคุมโรค","2023-06-10T00:00:00",16,13.8,18.8,28.2,38.3],
    [3606,"FF1721AC76217484","กองดิจิทัลเพื่อการควบคุมโรค","2023-06-10T00:00:00",17,5.3,7.1,28.2,37.6],
    [3607,"FF1721AC76217484","กองดิจิทัลเพื่อการควบคุมโรค","2023-06-10T00:00:00",18,2.7,2.9,27.4,38],
    [3608,"FF1721AC76217484","กองดิจิทัลเพื่อการควบคุมโรค","2023-06-10T00:00:00",19,3.6,5,27.3,39.2],
    [3609,"FF1721AC76217484","กองดิจิทัลเพื่อการควบคุมโรค","2023-06-10T00:00:00",20,4.6,4.4,27.2,40.1],
    [3610,"FF1721AC76217484","กองดิจิทัลเพื่อการควบคุมโรค","2023-06-10T00:00:00",21,3.6,4.2,27,40.6],
    [3611,"FF1721AC76217484","กองดิจิทัลเพื่อการควบคุมโรค","2023-06-10T00:00:00",22,6.1,8.4,27.3,39.7],
    [3612,"FF1721AC76217484","กองดิจิทัลเพื่อการควบคุมโรค","2023-06-10T00:00:00",23,9.3,12.1,26.9,39.3],
    [3613,"FF1721AC76217484","กองดิจิทัลเพื่อการควบคุมโรค","2023-07-10T00:00:00",0,8.7,11.8,26.7,40],
    [3614,"FF1721AC76217484","กองดิจิทัลเพื่อการควบคุมโรค","2023-07-10T00:00:00",1,8.3,10.8,26.1,40.6],
    [3615,"FF1721AC76217484","กองดิจิทัลเพื่อการควบคุมโรค","2023-07-10T00:00:00",2,7.4,10.7,26.2,40.5],
    [3616,"FF1721AC76217484","กองดิจิทัลเพื่อการควบคุมโรค","2023-07-10T00:00:00",3,7.9,9.1,25.7,41.5],
    [3617,"FF1721AC76217484","กองดิจิทัลเพื่อการควบคุมโรค","2023-07-10T00:00:00",4,9.7,12,25.5,41.6],
    [3618,"FF1721AC76217484","กองดิจิทัลเพื่อการควบคุมโรค","2023-07-10T00:00:00",5,9.9,12.6,25.4,41.6],
    [3619,"FF1721AC76217484","กองดิจิทัลเพื่อการควบคุมโรค","2023-07-10T00:00:00",6,11.4,15.8,25.8,41.3],
    [3620,"FF1721AC76217484","กองดิจิทัลเพื่อการควบคุมโรค","2023-07-10T00:00:00",7,13,17.3,26.5,39.7],
    [3621,"FF1721AC76217484","กองดิจิทัลเพื่อการควบคุมโรค","2023-07-10T00:00:00",8,5,6.2,27.7,36.8],
    [3622,"FF1721AC76217484","กองดิจิทัลเพื่อการควบคุมโรค","2023-07-10T00:00:00",9,5.4,8.8,30.2,32.7],
    [3623,"FF1721AC76217484","กองดิจิทัลเพื่อการควบคุมโรค","2023-07-10T00:00:00",10,5.7,8.2,31.2,31.2],
    [3624,"FF1721AC76217484","กองดิจิทัลเพื่อการควบคุมโรค","2023-07-10T00:00:00",11,8.3,10.7,31.9,29.5],
    [3625,"FF1721AC76217484","กองดิจิทัลเพื่อการควบคุมโรค","2023-07-10T00:00:00",12,13.6,16.8,31,31.2],
    [3626,"FF1721AC76217484","กองดิจิทัลเพื่อการควบคุมโรค","2023-07-10T00:00:00",13,13.5,18.5,31.4,31],
    [3627,"FF1721AC76217484","กองดิจิทัลเพื่อการควบคุมโรค","2023-07-10T00:00:00",14,16.6,22,29.7,34],
    [3628,"FF1721AC76217484","กองดิจิทัลเพื่อการควบคุมโรค","2023-07-10T00:00:00",15,10.2,13.7,29.2,34.6],
    [3629,"FF1721AC76217484","กองดิจิทัลเพื่อการควบคุมโรค","2023-07-10T00:00:00",16,6,9.1,29.3,34.3],
    [3630,"FF1721AC76217484","กองดิจิทัลเพื่อการควบคุมโรค","2023-07-10T00:00:00",17,3.8,5.3,28.6,34.7],
    [3631,"FF1721AC76217484","กองดิจิทัลเพื่อการควบคุมโรค","2023-07-10T00:00:00",18,5.8,8.8,28.1,36.4],
    [3632,"FF1721AC76217484","กองดิจิทัลเพื่อการควบคุมโรค","2023-07-10T00:00:00",19,3,4,27.5,38.9],
    [3633,"FF1721AC76217484","กองดิจิทัลเพื่อการควบคุมโรค","2023-07-10T00:00:00",20,2.2,5.1,24,45],
    [3634,"FF1721AC76217484","กองดิจิทัลเพื่อการควบคุมโรค","2023-07-10T00:00:00",21,3,3.8,23.9,46.2],
    [3635,"FF1721AC76217484","กองดิจิทัลเพื่อการควบคุมโรค","2023-07-10T00:00:00",22,3.7,5.4,24.2,46.3],
    [3636,"FF1721AC76217484","กองดิจิทัลเพื่อการควบคุมโรค","2023-07-10T00:00:00",23,4.3,6.3,24.7,45.6],
    [3637,"FF1721AC76217484","กองดิจิทัลเพื่อการควบคุมโรค","2023-08-10T00:00:00",0,3.9,5,24.8,45.4],
    [3638,"FF1721AC76217484","กองดิจิทัลเพื่อการควบคุมโรค","2023-08-10T00:00:00",1,4.1,5.1,24.7,45.2],
    [3639,"FF1721AC76217484","กองดิจิทัลเพื่อการควบคุมโรค","2023-08-10T00:00:00",2,5.5,8.6,25.3,44.7],
    [3640,"FF1721AC76217484","กองดิจิทัลเพื่อการควบคุมโรค","2023-08-10T00:00:00",3,5.4,8.1,25.4,44],
    [3641,"FF1721AC76217484","กองดิจิทัลเพื่อการควบคุมโรค","2023-08-10T00:00:00",4,7.6,11.1,25,44.2],
    [3642,"FF1721AC76217484","กองดิจิทัลเพื่อการควบคุมโรค","2023-08-10T00:00:00",5,12.2,16.3,25,44.4],
    [3643,"FF1721AC76217484","กองดิจิทัลเพื่อการควบคุมโรค","2023-08-10T00:00:00",6,17.3,24.8,25.2,44.3],
    [3644,"FF1721AC76217484","กองดิจิทัลเพื่อการควบคุมโรค","2023-08-10T00:00:00",7,23,33.1,25.9,43.8],
    [3645,"FF1721AC76217484","กองดิจิทัลเพื่อการควบคุมโรค","2023-08-10T00:00:00",8,27.8,42.1,26.9,42.4],
    [3646,"FF1721AC76217484","กองดิจิทัลเพื่อการควบคุมโรค","2023-08-10T00:00:00",9,26,37.3,28.4,40.1],
    [3647,"FF1721AC76217484","กองดิจิทัลเพื่อการควบคุมโรค","2023-08-10T00:00:00",10,12.8,17.5,29.1,35.9],
    [3648,"FF1721AC76217484","กองดิจิทัลเพื่อการควบคุมโรค","2023-08-10T00:00:00",11,16.9,23.4,29.6,34.9],
    [3649,"FF1721AC76217484","กองดิจิทัลเพื่อการควบคุมโรค","2023-08-10T00:00:00",12,5.6,7.1,29.8,33.2],
    [3650,"FF1721AC76217484","กองดิจิทัลเพื่อการควบคุมโรค","2023-08-10T00:00:00",13,6.8,9.2,29.6,33.7],
    [3651,"FF1721AC76217484","กองดิจิทัลเพื่อการควบคุมโรค","2023-08-10T00:00:00",14,5.1,5.9,29.4,34],
    [3652,"FF1721AC76217484","กองดิจิทัลเพื่อการควบคุมโรค","2023-08-10T00:00:00",15,3.6,5,29.6,34],
    [3653,"FF1721AC76217484","กองดิจิทัลเพื่อการควบคุมโรค","2023-08-10T00:00:00",16,4.5,6.3,29.2,34.4],
    [3654,"FF1721AC76217484","กองดิจิทัลเพื่อการควบคุมโรค","2023-08-10T00:00:00",17,3,3.6,29,34.6],
    [3655,"FF1721AC76217484","กองดิจิทัลเพื่อการควบคุมโรค","2023-08-10T00:00:00",18,1.9,2.8,28.3,34.1],
    [3656,"FF1721AC76217484","กองดิจิทัลเพื่อการควบคุมโรค","2023-08-10T00:00:00",19,3.5,4.4,27.7,35.5],
    [3657,"FF1721AC76217484","กองดิจิทัลเพื่อการควบคุมโรค","2023-08-10T00:00:00",20,4.6,5.5,26.4,40.1],
    [3658,"FF1721AC76217484","กองดิจิทัลเพื่อการควบคุมโรค","2023-08-10T00:00:00",21,4.9,6.5,26.3,41.6],
    [3659,"FF1721AC76217484","กองดิจิทัลเพื่อการควบคุมโรค","2023-08-10T00:00:00",22,5.2,7.4,26.2,41.4],
    [3660,"FF1721AC76217484","กองดิจิทัลเพื่อการควบคุมโรค","2023-08-10T00:00:00",23,4.9,6.9,26.2,40.7],
    [3661,"FF1721AC76217484","กองดิจิทัลเพื่อการควบคุมโรค","2023-09-10T00:00:00",0,4.7,5.6,25.5,40.6],
    [3662,"FF1721AC76217484","กองดิจิทัลเพื่อการควบคุมโรค","2023-09-10T00:00:00",1,6.3,9.6,25.3,40.4],
    [3663,"FF1721AC76217484","กองดิจิทัลเพื่อการควบคุมโรค","2023-09-10T00:00:00",2,10.4,14.1,24.1,42.9],
    [3664,"FF1721AC76217484","กองดิจิทัลเพื่อการควบคุมโรค","2023-09-10T00:00:00",3,15.6,23.9,24.2,42.5],
    [3665,"FF1721AC76217484","กองดิจิทัลเพื่อการควบคุมโรค","2023-09-10T00:00:00",4,19,35,24.7,41.7],
    [3666,"FF1721AC76217484","กองดิจิทัลเพื่อการควบคุมโรค","2023-09-10T00:00:00",5,17,26.5,24.9,41.4],
    [3667,"FF1721AC76217484","กองดิจิทัลเพื่อการควบคุมโรค","2023-09-10T00:00:00",6,17.5,25.6,25.1,40.8],
    [3668,"FF1721AC76217484","กองดิจิทัลเพื่อการควบคุมโรค","2023-09-10T00:00:00",7,17.5,23.6,26,39],
    [3669,"FF1721AC76217484","กองดิจิทัลเพื่อการควบคุมโรค","2023-09-10T00:00:00",8,20.1,29.3,27.4,36.6],
    [3670,"FF1721AC76217484","กองดิจิทัลเพื่อการควบคุมโรค","2023-09-10T00:00:00",9,18.8,27.2,29.5,33],
    [3671,"FF1721AC76217484","กองดิจิทัลเพื่อการควบคุมโรค","2023-09-10T00:00:00",10,21.9,30.8,30.1,31.9],
    [3672,"FF1721AC76217484","กองดิจิทัลเพื่อการควบคุมโรค","2023-09-10T00:00:00",11,28.2,42.8,30.8,30.7],
    [3673,"FF1721AC76217484","กองดิจิทัลเพื่อการควบคุมโรค","2023-09-10T00:00:00",12,27,40.6,31.6,29.6],
    [3674,"FF1721AC76217484","กองดิจิทัลเพื่อการควบคุมโรค","2023-09-10T00:00:00",13,26.2,38.8,32.7,27.8],
    [3675,"FF1721AC76217484","กองดิจิทัลเพื่อการควบคุมโรค","2023-09-10T00:00:00",14,29.6,46.5,32,28.1],
    [3676,"FF1721AC76217484","กองดิจิทัลเพื่อการควบคุมโรค","2023-09-10T00:00:00",15,32.3,49.1,31.3,29.5],
    [3677,"FF1721AC76217484","กองดิจิทัลเพื่อการควบคุมโรค","2023-09-10T00:00:00",16,32.3,48.3,30.3,30.3],
    [3678,"FF1721AC76217484","กองดิจิทัลเพื่อการควบคุมโรค","2023-09-10T00:00:00",17,33.6,50.5,29.8,31.3],
    [3679,"FF1721AC76217484","กองดิจิทัลเพื่อการควบคุมโรค","2023-09-10T00:00:00",18,34.5,54.1,29.4,32.1],
    [3680,"FF1721AC76217484","กองดิจิทัลเพื่อการควบคุมโรค","2023-09-10T00:00:00",19,36.3,55.9,29.3,32.4],
    [3681,"FF1721AC76217484","กองดิจิทัลเพื่อการควบคุมโรค","2023-09-10T00:00:00",20,33.5,54.4,28.6,34.2],
    [3682,"FF1721AC76217484","กองดิจิทัลเพื่อการควบคุมโรค","2023-09-10T00:00:00",21,23.3,34.8,25,40.5],
    [3683,"FF1721AC76217484","กองดิจิทัลเพื่อการควบคุมโรค","2023-09-10T00:00:00",22,24.5,40,25.2,40.2],
    [3684,"FF1721AC76217484","กองดิจิทัลเพื่อการควบคุมโรค","2023-09-10T00:00:00",23,29.2,45.9,25.4,40.4],
    [3685,"FF1721AC76217484","กองดิจิทัลเพื่อการควบคุมโรค","2023-10-10T00:00:00",0,27.5,37.6,25.1,40.9],
    [3686,"FF1721AC76217484","กองดิจิทัลเพื่อการควบคุมโรค","2023-10-10T00:00:00",1,25.2,39.8,25.2,40.9],
    [3687,"FF1721AC76217484","กองดิจิทัลเพื่อการควบคุมโรค","2023-10-10T00:00:00",2,27,40.7,25,41.2],
    [3688,"FF1721AC76217484","กองดิจิทัลเพื่อการควบคุมโรค","2023-10-10T00:00:00",3,31.3,47,24.4,43],
    [3689,"FF1721AC76217484","กองดิจิทัลเพื่อการควบคุมโรค","2023-10-10T00:00:00",4,32.8,53.2,24.6,43.6],
    [3690,"FF1721AC76217484","กองดิจิทัลเพื่อการควบคุมโรค","2023-10-10T00:00:00",5,33.5,53.6,24.5,43.9],
    [3691,"FF1721AC76217484","กองดิจิทัลเพื่อการควบคุมโรค","2023-10-10T00:00:00",6,34.8,56.1,24.8,43.8],
    [3692,"FF1721AC76217484","กองดิจิทัลเพื่อการควบคุมโรค","2023-10-10T00:00:00",7,35.3,57.6,24.6,44.1],
    [3693,"FF1721AC76217484","กองดิจิทัลเพื่อการควบคุมโรค","2023-10-10T00:00:00",8,34.3,54.5,24.4,45.2],
    [3694,"FF1721AC76217484","กองดิจิทัลเพื่อการควบคุมโรค","2023-10-10T00:00:00",9,31.7,48.6,25.3,43.9],
    [3695,"FF1721AC76217484","กองดิจิทัลเพื่อการควบคุมโรค","2023-10-10T00:00:00",10,27.8,40.6,27.6,39.2],
    [3696,"FF1721AC76217484","กองดิจิทัลเพื่อการควบคุมโรค","2023-10-10T00:00:00",11,28,37.3,27.8,38.1],
    [3697,"FF1721AC76217484","กองดิจิทัลเพื่อการควบคุมโรค","2023-10-10T00:00:00",12,30.3,47,30.2,34.8],
    [3698,"FF1721AC76217484","กองดิจิทัลเพื่อการควบคุมโรค","2023-10-10T00:00:00",13,36.6,54.5,28.2,37.1],
    [3699,"FF1721AC76217484","กองดิจิทัลเพื่อการควบคุมโรค","2023-10-10T00:00:00",14,28.8,45.3,26,40.8],
    [3700,"FF1721AC76217484","กองดิจิทัลเพื่อการควบคุมโรค","2023-10-10T00:00:00",15,35.3,54.9,24.1,46.3],
    [3701,"FF1721AC76217484","กองดิจิทัลเพื่อการควบคุมโรค","2023-10-10T00:00:00",16,36.5,59.3,24.9,45.6],
    [3702,"FF1721AC76217484","กองดิจิทัลเพื่อการควบคุมโรค","2023-10-10T00:00:00",17,39.9,64.5,25.9,44.3],
    [3703,"FF1721AC76217484","กองดิจิทัลเพื่อการควบคุมโรค","2023-10-10T00:00:00",18,43.4,68.1,25.9,44.5],
    [3704,"FF1721AC76217484","กองดิจิทัลเพื่อการควบคุมโรค","2023-10-10T00:00:00",19,24.9,35.5,25.3,41.7],
    [3705,"FF1721AC76217484","กองดิจิทัลเพื่อการควบคุมโรค","2023-10-10T00:00:00",20,27.7,40.4,24.7,44.2],
    [3706,"FF1721AC76217484","กองดิจิทัลเพื่อการควบคุมโรค","2023-10-10T00:00:00",21,31.2,51.5,25,44.3],
    [3707,"FF1721AC76217484","กองดิจิทัลเพื่อการควบคุมโรค","2023-10-10T00:00:00",22,31.3,49.4,25.1,43.8],
    [3708,"FF1721AC76217484","กองดิจิทัลเพื่อการควบคุมโรค","2023-10-10T00:00:00",23,27.1,42.1,24.3,45.4],
    [3709,"FF1721AC76217484","กองดิจิทัลเพื่อการควบคุมโรค","2023-11-10T00:00:00",0,28.3,41.3,24.6,45.2],
    [3710,"FF1721AC76217484","กองดิจิทัลเพื่อการควบคุมโรค","2023-11-10T00:00:00",1,36.4,57.3,24.7,45.6],
    [3711,"FF1721AC76217484","กองดิจิทัลเพื่อการควบคุมโรค","2023-11-10T00:00:00",2,40,62.8,24.9,45],
    [3712,"FF1721AC76217484","กองดิจิทัลเพื่อการควบคุมโรค","2023-11-10T00:00:00",3,42.6,69.1,24.4,46.2],
    [3713,"FF1721AC76217484","กองดิจิทัลเพื่อการควบคุมโรค","2023-11-10T00:00:00",4,38.4,60.5,24.3,46.5],
    [3714,"FF1721AC76217484","กองดิจิทัลเพื่อการควบคุมโรค","2023-11-10T00:00:00",5,34.8,53.8,25,45.3],
    [3715,"FF1721AC76217484","กองดิจิทัลเพื่อการควบคุมโรค","2023-11-10T00:00:00",6,35.7,53.1,25.7,44],
    [3716,"FF1721AC76217484","กองดิจิทัลเพื่อการควบคุมโรค","2023-11-10T00:00:00",7,20.8,29.9,24.4,44.8],
    [3717,"FF1721AC76217484","กองดิจิทัลเพื่อการควบคุมโรค","2023-11-10T00:00:00",8,7.7,10,23.9,45.6],
    [3718,"FF1721AC76217484","กองดิจิทัลเพื่อการควบคุมโรค","2023-11-10T00:00:00",9,9,12,24.1,45.5],
    [3719,"FF1721AC76217484","กองดิจิทัลเพื่อการควบคุมโรค","2023-11-10T00:00:00",10,11.8,17.8,25.2,44.9],
    [3720,"FF1721AC76217484","กองดิจิทัลเพื่อการควบคุมโรค","2023-11-10T00:00:00",11,10.8,14.3,27.6,40.8],
    [3721,"FF1721AC76217484","กองดิจิทัลเพื่อการควบคุมโรค","2023-11-10T00:00:00",12,5.6,6.9,30.6,34.4],
    [3722,"FF1721AC76217484","กองดิจิทัลเพื่อการควบคุมโรค","2023-11-10T00:00:00",13,5.5,6.4,31.5,32.8],
    [3723,"FF1721AC76217484","กองดิจิทัลเพื่อการควบคุมโรค","2023-11-10T00:00:00",14,7.1,12,30.6,33.8],
    [3724,"FF1721AC76217484","กองดิจิทัลเพื่อการควบคุมโรค","2023-11-10T00:00:00",15,7.7,10.8,31.1,33.4],
    [3725,"FF1721AC76217484","กองดิจิทัลเพื่อการควบคุมโรค","2023-11-10T00:00:00",16,10.9,13.6,29.9,34.8],
    [3726,"FF1721AC76217484","กองดิจิทัลเพื่อการควบคุมโรค","2023-11-10T00:00:00",17,9.4,12.5,29.6,35.1],
    [3727,"FF1721AC76217484","กองดิจิทัลเพื่อการควบคุมโรค","2023-11-10T00:00:00",18,8.7,12.4,28.9,36.4],
    [3728,"FF1721AC76217484","กองดิจิทัลเพื่อการควบคุมโรค","2023-11-10T00:00:00",19,9,12.7,28,37.2],
    [3729,"FF1721AC76217484","กองดิจิทัลเพื่อการควบคุมโรค","2023-11-10T00:00:00",20,8.3,11.5,26.9,38.9],
    [3730,"FF1721AC76217484","กองดิจิทัลเพื่อการควบคุมโรค","2023-11-10T00:00:00",21,8.8,11.8,26.9,38.9],
    [3731,"FF1721AC76217484","กองดิจิทัลเพื่อการควบคุมโรค","2023-11-10T00:00:00",22,10.5,13.8,26.7,39.9],
    [3732,"FF1721AC76217484","กองดิจิทัลเพื่อการควบคุมโรค","2023-11-10T00:00:00",23,14.7,24.6,27,40.6],
    [3733,"FF1721AC76217484","กองดิจิทัลเพื่อการควบคุมโรค","2023-12-10T00:00:00",0,17.3,24,26.3,42.2],
    [3734,"FF1721AC76217484","กองดิจิทัลเพื่อการควบคุมโรค","2023-12-10T00:00:00",1,18.9,27.6,26,42.9],
    [3735,"FF1721AC76217484","กองดิจิทัลเพื่อการควบคุมโรค","2023-12-10T00:00:00",2,18.4,26.2,24.9,43.6],
    [3736,"FF1721AC76217484","กองดิจิทัลเพื่อการควบคุมโรค","2023-12-10T00:00:00",3,21.8,30.3,25.1,43],
    [3737,"FF1721AC76217484","กองดิจิทัลเพื่อการควบคุมโรค","2023-12-10T00:00:00",4,21.4,34,24.8,43.6],
    [3738,"FF1721AC76217484","กองดิจิทัลเพื่อการควบคุมโรค","2023-12-10T00:00:00",5,23.8,33.3,25.1,43.6],
    [3739,"FF1721AC76217484","กองดิจิทัลเพื่อการควบคุมโรค","2023-12-10T00:00:00",6,25.6,37.6,25.5,43.7],
    [3740,"FF1721AC76217484","กองดิจิทัลเพื่อการควบคุมโรค","2023-12-10T00:00:00",7,23.3,31.4,25.9,43.4],
    [3741,"FF1721AC76217484","กองดิจิทัลเพื่อการควบคุมโรค","2023-12-10T00:00:00",8,14.7,19.7,28.4,37.9],
    [3742,"FF1721AC76217484","กองดิจิทัลเพื่อการควบคุมโรค","2023-12-10T00:00:00",9,8,12.1,27.7,38],
    [3743,"FF1721AC76217484","กองดิจิทัลเพื่อการควบคุมโรค","2023-12-10T00:00:00",10,8.9,11.4,29.6,35.3],
    [3744,"FF1721AC76217484","กองดิจิทัลเพื่อการควบคุมโรค","2023-12-10T00:00:00",11,5.5,7.5,31.4,31.9],
    [3745,"FF1721AC76217484","กองดิจิทัลเพื่อการควบคุมโรค","2023-12-10T00:00:00",12,5.2,7.7,33,29.8],
    [3746,"FF1721AC76217484","กองดิจิทัลเพื่อการควบคุมโรค","2023-12-10T00:00:00",13,6.6,8.6,31.7,30.9],
    [3747,"FF1721AC76217484","กองดิจิทัลเพื่อการควบคุมโรค","2023-12-10T00:00:00",14,6.8,8.6,32.7,30],
    [3748,"FF1721AC76217484","กองดิจิทัลเพื่อการควบคุมโรค","2023-12-10T00:00:00",15,6.7,8,32.8,29.9],
    [3749,"FF1721AC76217484","กองดิจิทัลเพื่อการควบคุมโรค","2023-12-10T00:00:00",16,6.3,8.7,31.8,30.9],
    [3750,"FF1721AC76217484","กองดิจิทัลเพื่อการควบคุมโรค","2023-12-10T00:00:00",17,8.6,11.8,30.3,32.7],
    [3751,"FF1721AC76217484","กองดิจิทัลเพื่อการควบคุมโรค","2023-12-10T00:00:00",18,10.3,15.3,29.9,34.2],
    [3752,"FF1721AC76217484","กองดิจิทัลเพื่อการควบคุมโรค","2023-12-10T00:00:00",19,25.2,36.6,28.9,37],
    [3753,"FF1721AC76217484","กองดิจิทัลเพื่อการควบคุมโรค","2023-12-10T00:00:00",20,29.1,41.1,28,38.7],
    [3754,"FF1721AC76217484","กองดิจิทัลเพื่อการควบคุมโรค","2023-12-10T00:00:00",21,30.2,46.8,27.3,40],
    [3755,"FF1721AC76217484","กองดิจิทัลเพื่อการควบคุมโรค","2023-12-10T00:00:00",22,31.4,48.3,27.2,40.5],
    [3756,"FF1721AC76217484","กองดิจิทัลเพื่อการควบคุมโรค","2023-12-10T00:00:00",23,32.4,47.3,27.5,40.2],
    [3757,"FF1721AC76217484","กองดิจิทัลเพื่อการควบคุมโรค","2023-10-13T00:00:00",0,37.4,57.3,26.8,41.8],
    [3758,"FF1721AC76217484","กองดิจิทัลเพื่อการควบคุมโรค","2023-10-13T00:00:00",1,40,62.8,26,42.2],
    [3759,"FF1721AC76217484","กองดิจิทัลเพื่อการควบคุมโรค","2023-10-13T00:00:00",2,40.5,63.2,25.9,42.1],
    [3760,"FF1721AC76217484","กองดิจิทัลเพื่อการควบคุมโรค","2023-10-13T00:00:00",3,41.9,66.6,26,42.3],
    [3761,"FF1721AC76217484","กองดิจิทัลเพื่อการควบคุมโรค","2023-10-13T00:00:00",4,45.6,71.8,25.8,43],
    [3762,"FF1721AC76217484","กองดิจิทัลเพื่อการควบคุมโรค","2023-10-13T00:00:00",5,47.1,74.3,25.1,43.9],
    [3763,"FF1721AC76217484","กองดิจิทัลเพื่อการควบคุมโรค","2023-10-13T00:00:00",6,45.2,71.7,25,44.2],
    [3764,"FF1721AC76217484","กองดิจิทัลเพื่อการควบคุมโรค","2023-10-13T00:00:00",7,44.2,70.9,25.6,44],
    [3765,"FF1721AC76217484","กองดิจิทัลเพื่อการควบคุมโรค","2023-10-13T00:00:00",8,39.7,62.1,27.3,40.3],
    [3766,"FF1721AC76217484","กองดิจิทัลเพื่อการควบคุมโรค","2023-10-13T00:00:00",9,28.3,38.8,28.8,37.5],
    [3767,"FF1721AC76217484","กองดิจิทัลเพื่อการควบคุมโรค","2023-10-13T00:00:00",10,22.6,32.4,30.2,34.4],
    [3768,"FF1721AC76217484","กองดิจิทัลเพื่อการควบคุมโรค","2023-10-13T00:00:00",11,21.3,29.9,31.3,32.4],
    [3769,"FF1721AC76217484","กองดิจิทัลเพื่อการควบคุมโรค","2023-10-13T00:00:00",12,12.6,16.6,33.1,28.4],
    [3770,"FF1721AC76217484","กองดิจิทัลเพื่อการควบคุมโรค","2023-10-13T00:00:00",13,14,17.9,32.6,28.8],
    [3771,"FF1721AC76217484","กองดิจิทัลเพื่อการควบคุมโรค","2023-10-13T00:00:00",14,16.2,20.8,32.5,29.4],
    [3772,"FF1721AC76217484","กองดิจิทัลเพื่อการควบคุมโรค","2023-10-13T00:00:00",15,13.9,17.8,32.1,29.2],
    [3773,"FF1721AC76217484","กองดิจิทัลเพื่อการควบคุมโรค","2023-10-13T00:00:00",16,16.9,21.5,31.2,31.2],
    [3774,"FF1721AC76217484","กองดิจิทัลเพื่อการควบคุมโรค","2023-10-13T00:00:00",17,16.5,22.1,31.2,31.3],
    [3775,"FF1721AC76217484","กองดิจิทัลเพื่อการควบคุมโรค","2023-10-13T00:00:00",18,19.9,25.8,30.4,32.5],
    [3776,"FF1721AC76217484","กองดิจิทัลเพื่อการควบคุมโรค","2023-10-13T00:00:00",19,21.8,33,30.7,32.7],
    [3777,"FF1721AC76217484","กองดิจิทัลเพื่อการควบคุมโรค","2023-10-13T00:00:00",20,22.2,30.9,29.8,34.1],
    [3778,"FF1721AC76217484","กองดิจิทัลเพื่อการควบคุมโรค","2023-10-13T00:00:00",21,16.7,23.3,28.9,35.3],
    [3779,"FF1721AC76217484","กองดิจิทัลเพื่อการควบคุมโรค","2023-10-13T00:00:00",22,16.8,26.3,28.4,36.1],
    [3780,"FF1721AC76217484","กองดิจิทัลเพื่อการควบคุมโรค","2023-10-13T00:00:00",23,21.8,29.5,29,35.5],
    [3781,"FF1721AC76217484","กองดิจิทัลเพื่อการควบคุมโรค","2023-10-14T00:00:00",0,20.1,26.4,28.4,36.5],
    [3782,"FF1721AC76217484","กองดิจิทัลเพื่อการควบคุมโรค","2023-10-14T00:00:00",1,16,21.4,28.2,37.3],
    [3783,"FF1721AC76217484","กองดิจิทัลเพื่อการควบคุมโรค","2023-10-14T00:00:00",2,11.3,14.3,27.7,37.1],
    [3784,"FF1721AC76217484","กองดิจิทัลเพื่อการควบคุมโรค","2023-10-14T00:00:00",3,10.1,12.6,27.3,37.5],
    [3785,"FF1721AC76217484","กองดิจิทัลเพื่อการควบคุมโรค","2023-10-14T00:00:00",4,9.2,12.3,26.9,37.8],
    [3786,"FF1721AC76217484","กองดิจิทัลเพื่อการควบคุมโรค","2023-10-14T00:00:00",5,12.1,14.3,26.2,39.1],
    [3787,"FF1721AC76217484","กองดิจิทัลเพื่อการควบคุมโรค","2023-10-14T00:00:00",6,17.3,25.4,25.9,40.4],
    [3788,"FF1721AC76217484","กองดิจิทัลเพื่อการควบคุมโรค","2023-10-14T00:00:00",7,22.8,37.2,26.7,39.8],
    [3789,"FF1721AC76217484","กองดิจิทัลเพื่อการควบคุมโรค","2023-10-14T00:00:00",8,17,24.1,28.4,36.1],
    [3790,"FF1721AC76217484","กองดิจิทัลเพื่อการควบคุมโรค","2023-10-14T00:00:00",9,14.9,20.8,29.8,33.3],
    [3791,"FF1721AC76217484","กองดิจิทัลเพื่อการควบคุมโรค","2023-10-14T00:00:00",10,10.9,13.8,31.2,31.2],
    [3792,"FF1721AC76217484","กองดิจิทัลเพื่อการควบคุมโรค","2023-10-14T00:00:00",11,10.9,15.1,31.6,30.7],
    [3793,"FF1721AC76217484","กองดิจิทัลเพื่อการควบคุมโรค","2023-10-14T00:00:00",12,8.7,11.7,32.1,29.8],
    [3794,"FF1721AC76217484","กองดิจิทัลเพื่อการควบคุมโรค","2023-10-14T00:00:00",13,7.8,10.5,32.7,28.6],
    [3795,"FF1721AC76217484","กองดิจิทัลเพื่อการควบคุมโรค","2023-10-14T00:00:00",14,8.2,11.2,32.6,28.2],
    [3796,"FF1721AC76217484","กองดิจิทัลเพื่อการควบคุมโรค","2023-10-14T00:00:00",15,9.6,12.1,32.3,28.7],
    [3797,"FF1721AC76217484","กองดิจิทัลเพื่อการควบคุมโรค","2023-10-14T00:00:00",16,10.7,15,31.4,29.9],
    [3798,"FF1721AC76217484","กองดิจิทัลเพื่อการควบคุมโรค","2023-10-14T00:00:00",17,13.4,19.2,30.5,32.5],
    [3799,"FF1721AC76217484","กองดิจิทัลเพื่อการควบคุมโรค","2023-10-14T00:00:00",18,15.8,21.2,29.8,33.5],
    [3800,"FF1721AC76217484","กองดิจิทัลเพื่อการควบคุมโรค","2023-10-14T00:00:00",19,19.5,27.5,29.4,34.2],
    [3801,"FF1721AC76217484","กองดิจิทัลเพื่อการควบคุมโรค","2023-10-14T00:00:00",20,24,34.4,29.1,35],
    [3802,"FF1721AC76217484","กองดิจิทัลเพื่อการควบคุมโรค","2023-10-14T00:00:00",21,22.3,32,28.8,36],
    [3803,"FF1721AC76217484","กองดิจิทัลเพื่อการควบคุมโรค","2023-10-14T00:00:00",22,21.1,30.2,28.5,36.3],
    [3804,"FF1721AC76217484","กองดิจิทัลเพื่อการควบคุมโรค","2023-10-14T00:00:00",23,18.3,26.7,28.4,36.7],
    [3805,"FF1721AC76217484","กองดิจิทัลเพื่อการควบคุมโรค","2023-10-15T00:00:00",0,25.2,38.8,27.9,37.9],
    [3806,"FF1721AC76217484","กองดิจิทัลเพื่อการควบคุมโรค","2023-10-15T00:00:00",1,28.8,44.7,27.6,38.8],
    [3807,"FF1721AC76217484","กองดิจิทัลเพื่อการควบคุมโรค","2023-10-15T00:00:00",2,23.3,33.3,26.8,40.3],
    [3808,"FF1721AC76217484","กองดิจิทัลเพื่อการควบคุมโรค","2023-10-15T00:00:00",3,19.4,26.4,26.5,40.2],
    [3809,"FF1721AC76217484","กองดิจิทัลเพื่อการควบคุมโรค","2023-10-15T00:00:00",4,18.2,26.8,26.3,40.3],
    [3810,"FF1721AC76217484","กองดิจิทัลเพื่อการควบคุมโรค","2023-10-15T00:00:00",5,15.8,22.3,26.3,40.4],
    [3811,"FF1721AC76217484","กองดิจิทัลเพื่อการควบคุมโรค","2023-10-15T00:00:00",6,14.4,20.7,26.1,40.5],
    [3812,"FF1721AC76217484","กองดิจิทัลเพื่อการควบคุมโรค","2023-10-15T00:00:00",7,15,20.7,26.2,40.6],
    [3813,"FF1721AC76217484","กองดิจิทัลเพื่อการควบคุมโรค","2023-10-15T00:00:00",8,19.6,29.3,27.3,39.4],
    [3814,"FF1721AC76217484","กองดิจิทัลเพื่อการควบคุมโรค","2023-10-15T00:00:00",9,23.7,33.1,29.6,36.5],
    [3815,"FF1721AC76217484","กองดิจิทัลเพื่อการควบคุมโรค","2023-10-15T00:00:00",10,18,26.3,31.6,31.9],
    [3816,"FF1721AC76217484","กองดิจิทัลเพื่อการควบคุมโรค","2023-10-15T00:00:00",11,12,17.5,32.7,29.2],
    [3817,"FF1721AC76217484","กองดิจิทัลเพื่อการควบคุมโรค","2023-10-15T00:00:00",12,12.8,17.7,32.2,29.5],
    [3818,"FF1721AC76217484","กองดิจิทัลเพื่อการควบคุมโรค","2023-10-15T00:00:00",13,12,16.9,33.5,27.5],
    [3819,"FF1721AC76217484","กองดิจิทัลเพื่อการควบคุมโรค","2023-10-15T00:00:00",14,10.4,14.3,33.2,27.7],
    [3820,"FF1721AC76217484","กองดิจิทัลเพื่อการควบคุมโรค","2023-10-15T00:00:00",15,10.8,14.6,33,27.8],
    [3821,"FF1721AC76217484","กองดิจิทัลเพื่อการควบคุมโรค","2023-10-15T00:00:00",16,14.9,22,32.1,29.3],
    [3822,"FF1721AC76217484","กองดิจิทัลเพื่อการควบคุมโรค","2023-10-15T00:00:00",17,25.1,35.8,29.9,34.5],
    [3823,"FF1721AC76217484","กองดิจิทัลเพื่อการควบคุมโรค","2023-10-15T00:00:00",18,17.3,23.2,27.9,36.6],
    [3824,"FF1721AC76217484","กองดิจิทัลเพื่อการควบคุมโรค","2023-10-15T00:00:00",19,17.8,23.7,27.6,37.7],
    [3825,"FF1721AC76217484","กองดิจิทัลเพื่อการควบคุมโรค","2023-10-15T00:00:00",20,19.9,29.1,27.5,38.4],
    [3826,"FF1721AC76217484","กองดิจิทัลเพื่อการควบคุมโรค","2023-10-15T00:00:00",21,16.9,24.7,27.4,38.2],
    [3827,"FF1721AC76217484","กองดิจิทัลเพื่อการควบคุมโรค","2023-10-15T00:00:00",22,18,27.5,27.9,37.5],
    [3828,"FF1721AC76217484","กองดิจิทัลเพื่อการควบคุมโรค","2023-10-15T00:00:00",23,19.7,25.9,27.6,37.8],
    [3829,"FF1721AC76217484","กองดิจิทัลเพื่อการควบคุมโรค","2023-10-16T00:00:00",0,23.3,30.2,27.6,38],
    [3830,"FF1721AC76217484","กองดิจิทัลเพื่อการควบคุมโรค","2023-10-16T00:00:00",1,8.1,11.7,25.2,39.1],
    [3831,"FF1721AC76217484","กองดิจิทัลเพื่อการควบคุมโรค","2023-10-16T00:00:00",2,11,15.7,23.2,45.4],
    [3832,"FF1721AC76217484","กองดิจิทัลเพื่อการควบคุมโรค","2023-10-16T00:00:00",3,8.1,11.3,24.1,44.8],
    [3833,"FF1721AC76217484","กองดิจิทัลเพื่อการควบคุมโรค","2023-10-16T00:00:00",4,10.2,12.4,24,44.5],
    [3834,"FF1721AC76217484","กองดิจิทัลเพื่อการควบคุมโรค","2023-10-16T00:00:00",5,14.3,21.1,23.6,44.8],
    [3835,"FF1721AC76217484","กองดิจิทัลเพื่อการควบคุมโรค","2023-10-16T00:00:00",6,19.1,26.8,24.3,44.5],
    [3836,"FF1721AC76217484","กองดิจิทัลเพื่อการควบคุมโรค","2023-10-16T00:00:00",7,20.9,30.5,25.2,43.1],
    [3837,"FF1721AC76217484","กองดิจิทัลเพื่อการควบคุมโรค","2023-10-16T00:00:00",8,19.6,26.6,26.6,40.5],
    [3838,"FF1721AC76217484","กองดิจิทัลเพื่อการควบคุมโรค","2023-10-16T00:00:00",9,24.2,33.7,27.7,38.4],
    [3839,"FF1721AC76217484","กองดิจิทัลเพื่อการควบคุมโรค","2023-10-16T00:00:00",10,30.5,42.7,30.1,34.4],
    [3840,"FF1721AC76217484","กองดิจิทัลเพื่อการควบคุมโรค","2023-10-16T00:00:00",11,32.9,50.7,31.4,32.4],
    [3841,"FF1721AC76217484","กองดิจิทัลเพื่อการควบคุมโรค","2023-10-16T00:00:00",12,39.5,62.1,30,34.3],
    [3842,"FF1721AC76217484","กองดิจิทัลเพื่อการควบคุมโรค","2023-10-16T00:00:00",13,41.1,63.6,29.4,35.3],
    [3843,"FF1721AC76217484","กองดิจิทัลเพื่อการควบคุมโรค","2023-10-16T00:00:00",14,37.8,61.2,29.9,33.8],
    [3844,"FF1721AC76217484","กองดิจิทัลเพื่อการควบคุมโรค","2023-10-16T00:00:00",15,35.9,57.3,29.8,33.8],
    [3845,"FF1721AC76217484","กองดิจิทัลเพื่อการควบคุมโรค","2023-10-16T00:00:00",16,33,53.6,29.4,33.5],
    [3846,"FF1721AC76217484","กองดิจิทัลเพื่อการควบคุมโรค","2023-10-16T00:00:00",17,33.2,54,29.3,33.3],
    [3847,"FF1721AC76217484","กองดิจิทัลเพื่อการควบคุมโรค","2023-10-16T00:00:00",18,34,50.2,27.9,36.9],
    [3848,"FF1721AC76217484","กองดิจิทัลเพื่อการควบคุมโรค","2023-10-16T00:00:00",19,33.9,55.3,27.8,37.2],
    [3849,"FF1721AC76217484","กองดิจิทัลเพื่อการควบคุมโรค","2023-10-16T00:00:00",20,38.6,59.7,27.5,37.9],
    [3850,"FF1721AC76217484","กองดิจิทัลเพื่อการควบคุมโรค","2023-10-16T00:00:00",21,44,69.3,27.6,37.8],
    [3851,"FF1721AC76217484","กองดิจิทัลเพื่อการควบคุมโรค","2023-10-16T00:00:00",22,45.9,72.4,27.8,37.8],
    [3852,"FF1721AC76217484","กองดิจิทัลเพื่อการควบคุมโรค","2023-10-16T00:00:00",23,44.8,72,27.7,38.1],
    [3853,"FF1721AC76217484","กองดิจิทัลเพื่อการควบคุมโรค","2023-10-17T00:00:00",0,46.7,73.8,26.8,39.7],
    [3854,"FF1721AC76217484","กองดิจิทัลเพื่อการควบคุมโรค","2023-10-17T00:00:00",1,47.8,75.7,27,39.6],
    [3855,"FF1721AC76217484","กองดิจิทัลเพื่อการควบคุมโรค","2023-10-17T00:00:00",2,48.6,77.4,26.9,39.9],
    [3856,"FF1721AC76217484","กองดิจิทัลเพื่อการควบคุมโรค","2023-10-17T00:00:00",3,43.7,69.7,26.8,39.3],
    [3857,"FF1721AC76217484","กองดิจิทัลเพื่อการควบคุมโรค","2023-10-17T00:00:00",4,38,58.7,26.7,38.7],
    [3858,"FF1721AC76217484","กองดิจิทัลเพื่อการควบคุมโรค","2023-10-17T00:00:00",5,35.3,55.5,26.4,38.8],
    [3859,"FF1721AC76217484","กองดิจิทัลเพื่อการควบคุมโรค","2023-10-17T00:00:00",6,34.7,56.1,27.1,36.7],
    [3860,"FF1721AC76217484","กองดิจิทัลเพื่อการควบคุมโรค","2023-10-17T00:00:00",7,33.8,51,27.8,35.3],
    [3861,"FF1721AC76217484","กองดิจิทัลเพื่อการควบคุมโรค","2023-10-17T00:00:00",8,31,48.9,28.6,33.1],
    [3862,"FF1721AC76217484","กองดิจิทัลเพื่อการควบคุมโรค","2023-10-17T00:00:00",9,31.3,49.9,31.2,30.9],
    [3863,"FF1721AC76217484","กองดิจิทัลเพื่อการควบคุมโรค","2023-10-17T00:00:00",10,28.5,42.9,31.7,28.8],
    [3864,"FF1721AC76217484","กองดิจิทัลเพื่อการควบคุมโรค","2023-10-17T00:00:00",11,29,41.3,32.4,27.7],
    [3865,"FF1721AC76217484","กองดิจิทัลเพื่อการควบคุมโรค","2023-10-17T00:00:00",12,26.9,37.4,33.3,26.5],
    [3866,"FF1721AC76217484","กองดิจิทัลเพื่อการควบคุมโรค","2023-10-17T00:00:00",13,26.2,43,34,25.6],
    [3867,"FF1721AC76217484","กองดิจิทัลเพื่อการควบคุมโรค","2023-10-17T00:00:00",14,28.4,42.3,33.8,25.9],
    [3868,"FF1721AC76217484","กองดิจิทัลเพื่อการควบคุมโรค","2023-10-17T00:00:00",15,37.4,59.5,31.1,30.3],
    [3869,"FF1721AC76217484","กองดิจิทัลเพื่อการควบคุมโรค","2023-10-17T00:00:00",16,35.7,53.3,30.1,31.2],
    [3870,"FF1721AC76217484","กองดิจิทัลเพื่อการควบคุมโรค","2023-10-17T00:00:00",17,36.8,59.3,30.6,30.9],
    [3871,"FF1721AC76217484","กองดิจิทัลเพื่อการควบคุมโรค","2023-10-17T00:00:00",18,34.2,54.3,30.4,31.3],
    [3872,"FF1721AC76217484","กองดิจิทัลเพื่อการควบคุมโรค","2023-10-17T00:00:00",19,33.6,53.9,29.8,31.9],
    [3873,"FF1721AC76217484","กองดิจิทัลเพื่อการควบคุมโรค","2023-10-17T00:00:00",20,37.1,60.1,28.6,34.5],
    [3874,"FF1721AC76217484","กองดิจิทัลเพื่อการควบคุมโรค","2023-10-17T00:00:00",21,42.3,63.2,28.1,35.7],
    [3875,"FF1721AC76217484","กองดิจิทัลเพื่อการควบคุมโรค","2023-10-17T00:00:00",22,43.2,66.9,28,36.1],
    [3876,"FF1721AC76217484","กองดิจิทัลเพื่อการควบคุมโรค","2023-10-17T00:00:00",23,46.2,71.8,28.1,36.3],
    [3877,"FF1721AC76217484","กองดิจิทัลเพื่อการควบคุมโรค","2023-10-18T00:00:00",0,50,79.1,27,37.7],
    [3878,"FF1721AC76217484","กองดิจิทัลเพื่อการควบคุมโรค","2023-10-18T00:00:00",1,48,77,27.1,38],
    [3879,"FF1721AC76217484","กองดิจิทัลเพื่อการควบคุมโรค","2023-10-18T00:00:00",2,49.4,75.9,27,38],
    [3880,"FF1721AC76217484","กองดิจิทัลเพื่อการควบคุมโรค","2023-10-18T00:00:00",3,49.1,79.2,26.9,38.5],
    [3881,"FF1721AC76217484","กองดิจิทัลเพื่อการควบคุมโรค","2023-10-18T00:00:00",4,50.1,80.9,26.1,40.1],
    [3882,"FF1721AC76217484","กองดิจิทัลเพื่อการควบคุมโรค","2023-10-18T00:00:00",5,52,84.6,26.1,40],
    [3883,"FF1721AC76217484","กองดิจิทัลเพื่อการควบคุมโรค","2023-10-18T00:00:00",6,52.9,83.9,26.5,39.9],
    [3884,"FF1721AC76217484","กองดิจิทัลเพื่อการควบคุมโรค","2023-10-18T00:00:00",7,57.8,90.3,26.4,39.5],
    [3885,"FF1721AC76217484","กองดิจิทัลเพื่อการควบคุมโรค","2023-10-18T00:00:00",8,46,75.3,28.2,35.6],
    [3886,"FF1721AC76217484","กองดิจิทัลเพื่อการควบคุมโรค","2023-10-18T00:00:00",9,39,63.1,29.7,33.3],
    [3887,"FF1721AC76217484","กองดิจิทัลเพื่อการควบคุมโรค","2023-10-18T00:00:00",10,39.9,63.4,30.9,32.2],
    [3888,"FF1721AC76217484","กองดิจิทัลเพื่อการควบคุมโรค","2023-10-18T00:00:00",11,37.2,56.5,32.6,28.9],
    [3889,"FF1721AC76217484","กองดิจิทัลเพื่อการควบคุมโรค","2023-10-18T00:00:00",12,36.1,55.2,32.8,28.7],
    [3890,"FF1721AC76217484","กองดิจิทัลเพื่อการควบคุมโรค","2023-10-18T00:00:00",13,37.6,55.1,32.6,28.9],
    [3891,"FF1721AC76217484","กองดิจิทัลเพื่อการควบคุมโรค","2023-10-18T00:00:00",14,39.8,61.8,31,31],
    [3892,"FF1721AC76217484","กองดิจิทัลเพื่อการควบคุมโรค","2023-10-18T00:00:00",15,37.5,60.7,29.4,33.4],
    [3893,"FF1721AC76217484","กองดิจิทัลเพื่อการควบคุมโรค","2023-10-18T00:00:00",16,39.3,64.1,29.7,32.6],
    [3894,"FF1721AC76217484","กองดิจิทัลเพื่อการควบคุมโรค","2023-10-18T00:00:00",17,42.6,66.7,29.3,33.5],
    [3895,"FF1721AC76217484","กองดิจิทัลเพื่อการควบคุมโรค","2023-10-18T00:00:00",18,46.2,73.1,28.8,34.5],
    [3896,"FF1721AC76217484","กองดิจิทัลเพื่อการควบคุมโรค","2023-10-18T00:00:00",19,39.1,61.8,28.2,36.8],
    [3897,"FF1721AC76217484","กองดิจิทัลเพื่อการควบคุมโรค","2023-10-18T00:00:00",20,38.5,61.5,28.1,37.5],
    [3898,"FF1721AC76217484","กองดิจิทัลเพื่อการควบคุมโรค","2023-10-18T00:00:00",21,37.9,58.6,27.9,37.7],
    [3899,"FF1721AC76217484","กองดิจิทัลเพื่อการควบคุมโรค","2023-10-18T00:00:00",22,34.7,52.7,27.8,38.1],
    [3900,"FF1721AC76217484","กองดิจิทัลเพื่อการควบคุมโรค","2023-10-18T00:00:00",23,33,55,27.4,38.8],
    [3901,"FF1721AC76217484","กองดิจิทัลเพื่อการควบคุมโรค","2023-10-19T00:00:00",0,34.1,53.2,27.3,39.4],
    [3902,"FF1721AC76217484","กองดิจิทัลเพื่อการควบคุมโรค","2023-10-19T00:00:00",1,31.2,47.1,27.3,39.7],
    [3903,"FF1721AC76217484","กองดิจิทัลเพื่อการควบคุมโรค","2023-10-19T00:00:00",2,27,40.1,27.5,40],
    [3904,"FF1721AC76217484","กองดิจิทัลเพื่อการควบคุมโรค","2023-10-19T00:00:00",3,39.4,62.9,26.5,41.2],
    [3905,"FF1721AC76217484","กองดิจิทัลเพื่อการควบคุมโรค","2023-10-19T00:00:00",4,41.1,65.1,25.1,43],
    [3906,"FF1721AC76217484","กองดิจิทัลเพื่อการควบคุมโรค","2023-10-19T00:00:00",5,30.4,46.5,24.9,42.3],
    [3907,"FF1721AC76217484","กองดิจิทัลเพื่อการควบคุมโรค","2023-10-19T00:00:00",6,22.8,33.8,25.1,40.6],
    [3908,"FF1721AC76217484","กองดิจิทัลเพื่อการควบคุมโรค","2023-10-19T00:00:00",7,22.4,33.1,25.8,39.2],
    [3909,"FF1721AC76217484","กองดิจิทัลเพื่อการควบคุมโรค","2023-10-19T00:00:00",8,31,45.6,27.8,36.9],
    [3910,"FF1721AC76217484","กองดิจิทัลเพื่อการควบคุมโรค","2023-10-19T00:00:00",9,33.2,55,29.9,34.1],
    [3911,"FF1721AC76217484","กองดิจิทัลเพื่อการควบคุมโรค","2023-10-19T00:00:00",10,34.8,52.7,31.9,31],
    [3912,"FF1721AC76217484","กองดิจิทัลเพื่อการควบคุมโรค","2023-10-19T00:00:00",11,39,62.8,30.3,33.3],
    [3913,"FF1721AC76217484","กองดิจิทัลเพื่อการควบคุมโรค","2023-10-19T00:00:00",12,41,67,25.7,41.9],
    [3914,"FF1721AC76217484","กองดิจิทัลเพื่อการควบคุมโรค","2023-10-19T00:00:00",13,35.1,55.5,25.8,40],
    [3915,"FF1721AC76217484","กองดิจิทัลเพื่อการควบคุมโรค","2023-10-19T00:00:00",14,29.3,44.7,26.6,38.2],
    [3916,"FF1721AC76217484","กองดิจิทัลเพื่อการควบคุมโรค","2023-10-19T00:00:00",15,29.5,46.7,27.4,36.9],
    [3917,"FF1721AC76217484","กองดิจิทัลเพื่อการควบคุมโรค","2023-10-19T00:00:00",16,36.9,60.2,27.4,38.4],
    [3918,"FF1721AC76217484","กองดิจิทัลเพื่อการควบคุมโรค","2023-10-19T00:00:00",17,38.6,62.2,27.6,37.9],
    [3919,"FF1721AC76217484","กองดิจิทัลเพื่อการควบคุมโรค","2023-10-19T00:00:00",18,40,65.4,27.4,38.6],
    [3920,"FF1721AC76217484","กองดิจิทัลเพื่อการควบคุมโรค","2023-10-19T00:00:00",19,42.5,67.4,27.4,38.1],
    [3921,"FF1721AC76217484","กองดิจิทัลเพื่อการควบคุมโรค","2023-10-19T00:00:00",20,42.2,68,27.5,38.3],
    [3922,"FF1721AC76217484","กองดิจิทัลเพื่อการควบคุมโรค","2023-10-19T00:00:00",21,42.6,67.7,27.6,38.9],
    [3923,"FF1721AC76217484","กองดิจิทัลเพื่อการควบคุมโรค","2023-10-19T00:00:00",22,44.1,70.8,27.2,39.9],
    [3924,"FF1721AC76217484","กองดิจิทัลเพื่อการควบคุมโรค","2023-10-19T00:00:00",23,48.1,77.3,27,40.1],
    [3925,"FF1721AC76217484","กองดิจิทัลเพื่อการควบคุมโรค","2023-10-20T00:00:00",0,49.4,79.4,26.9,40.1],
    [3926,"FF1721AC76217484","กองดิจิทัลเพื่อการควบคุมโรค","2023-10-20T00:00:00",1,50.9,81.4,27.1,40.2],
    [3927,"FF1721AC76217484","กองดิจิทัลเพื่อการควบคุมโรค","2023-10-20T00:00:00",2,52.4,84.1,26.8,40.8],
    [3928,"FF1721AC76217484","กองดิจิทัลเพื่อการควบคุมโรค","2023-10-20T00:00:00",3,48.5,77,26.3,40.8],
    [3929,"FF1721AC76217484","กองดิจิทัลเพื่อการควบคุมโรค","2023-10-20T00:00:00",4,45.6,73.1,26.6,40.5],
    [3930,"FF1721AC76217484","กองดิจิทัลเพื่อการควบคุมโรค","2023-10-20T00:00:00",5,46.4,74.6,26.6,40.6],
    [3931,"FF1721AC76217484","กองดิจิทัลเพื่อการควบคุมโรค","2023-10-20T00:00:00",6,48.4,78.2,26.8,40.8],
    [3932,"FF1721AC76217484","กองดิจิทัลเพื่อการควบคุมโรค","2023-10-20T00:00:00",7,44.7,71.8,27.7,38.8],
    [3933,"FF1721AC76217484","กองดิจิทัลเพื่อการควบคุมโรค","2023-10-20T00:00:00",8,42.6,66,28.9,36.8],
    [3934,"FF1721AC76217484","กองดิจิทัลเพื่อการควบคุมโรค","2023-10-20T00:00:00",9,43.4,71.1,30.9,34.5],
    [3935,"FF1721AC76217484","กองดิจิทัลเพื่อการควบคุมโรค","2023-10-20T00:00:00",10,43.2,67.9,32.1,32.2],
    [3936,"FF1721AC76217484","กองดิจิทัลเพื่อการควบคุมโรค","2023-10-20T00:00:00",11,41,67.9,32.3,30.8],
    [3937,"FF1721AC76217484","กองดิจิทัลเพื่อการควบคุมโรค","2023-10-20T00:00:00",12,37.1,58.4,35,26.8],
    [3938,"FF1721AC76217484","กองดิจิทัลเพื่อการควบคุมโรค","2023-10-20T00:00:00",13,30.8,50.1,35.7,24.4],
    [3939,"FF1721AC76217484","กองดิจิทัลเพื่อการควบคุมโรค","2023-10-20T00:00:00",14,28.9,42.7,35.2,23.7],
    [3940,"FF1721AC76217484","กองดิจิทัลเพื่อการควบคุมโรค","2023-10-20T00:00:00",15,31.4,46.3,34.1,25.4],
    [3941,"FF1721AC76217484","กองดิจิทัลเพื่อการควบคุมโรค","2023-10-20T00:00:00",16,31.9,48.6,32.9,26.8],
    [3942,"FF1721AC76217484","กองดิจิทัลเพื่อการควบคุมโรค","2023-10-20T00:00:00",17,31.7,49.1,32.1,28.3],
    [3943,"FF1721AC76217484","กองดิจิทัลเพื่อการควบคุมโรค","2023-10-20T00:00:00",18,37,60.7,31,31.1],
    [3944,"FF1721AC76217484","กองดิจิทัลเพื่อการควบคุมโรค","2023-10-20T00:00:00",19,53.8,84.6,30,34.3],
    [3945,"FF1721AC76217484","กองดิจิทัลเพื่อการควบคุมโรค","2023-10-20T00:00:00",20,57.1,89.1,29.4,35.4],
    [3946,"FF1721AC76217484","กองดิจิทัลเพื่อการควบคุมโรค","2023-10-20T00:00:00",21,45.8,74.7,28.9,36.1],
    [3947,"FF1721AC76217484","กองดิจิทัลเพื่อการควบคุมโรค","2023-10-20T00:00:00",22,37.3,57.9,28.7,36.1],
    [3948,"FF1721AC76217484","กองดิจิทัลเพื่อการควบคุมโรค","2023-10-20T00:00:00",23,41.2,65.6,28.9,36.4],
    [3949,"FF1721AC76217484","กองดิจิทัลเพื่อการควบคุมโรค","2023-10-21T00:00:00",0,43.9,70.8,28.8,36.9],
    [3950,"FF1721AC76217484","กองดิจิทัลเพื่อการควบคุมโรค","2023-10-21T00:00:00",1,45.4,73.9,28.5,37.6],
    [3951,"FF1721AC76217484","กองดิจิทัลเพื่อการควบคุมโรค","2023-10-21T00:00:00",2,43.1,69.1,28.2,37.9],
    [3952,"FF1721AC76217484","กองดิจิทัลเพื่อการควบคุมโรค","2023-10-21T00:00:00",3,35.2,59.4,27.5,38.6],
    [3953,"FF1721AC76217484","กองดิจิทัลเพื่อการควบคุมโรค","2023-10-21T00:00:00",4,9.2,14.8,21.9,46.9],
    [3954,"FF1721AC76217484","กองดิจิทัลเพื่อการควบคุมโรค","2023-10-21T00:00:00",5,13.7,21.6,21.9,46.8],
    [3955,"FF1721AC76217484","กองดิจิทัลเพื่อการควบคุมโรค","2023-10-21T00:00:00",6,18.3,25.9,22.4,47.3],
    [3956,"FF1721AC76217484","กองดิจิทัลเพื่อการควบคุมโรค","2023-10-21T00:00:00",7,20.6,29.6,22.6,47.3],
    [3957,"FF1721AC76217484","กองดิจิทัลเพื่อการควบคุมโรค","2023-10-21T00:00:00",8,21.6,32.6,23.2,46.8],
    [3958,"FF1721AC76217484","กองดิจิทัลเพื่อการควบคุมโรค","2023-10-21T00:00:00",9,21.1,29.5,24.1,44.5],
    [3959,"FF1721AC76217484","กองดิจิทัลเพื่อการควบคุมโรค","2023-10-21T00:00:00",10,27.2,42.9,24.4,44.8],
    [3960,"FF1721AC76217484","กองดิจิทัลเพื่อการควบคุมโรค","2023-10-21T00:00:00",11,26.4,41.3,25.3,42.7],
    [3961,"FF1721AC76217484","กองดิจิทัลเพื่อการควบคุมโรค","2023-10-21T00:00:00",12,27.6,44.1,28.2,38],
    [3962,"FF1721AC76217484","กองดิจิทัลเพื่อการควบคุมโรค","2023-10-21T00:00:00",13,31.6,46.1,28.9,36.2],
    [3963,"FF1721AC76217484","กองดิจิทัลเพื่อการควบคุมโรค","2023-10-21T00:00:00",14,34.5,55.9,29.4,35.5],
    [3964,"FF1721AC76217484","กองดิจิทัลเพื่อการควบคุมโรค","2023-10-21T00:00:00",15,35.9,57.4,29,35.6],
    [3965,"FF1721AC76217484","กองดิจิทัลเพื่อการควบคุมโรค","2023-10-21T00:00:00",16,41.8,66.7,27.7,38.1],
    [3966,"FF1721AC76217484","กองดิจิทัลเพื่อการควบคุมโรค","2023-10-21T00:00:00",17,43.3,67.6,27.5,39],
    [3967,"FF1721AC76217484","กองดิจิทัลเพื่อการควบคุมโรค","2023-10-21T00:00:00",18,40.6,67.2,27,40.5],
    [3968,"FF1721AC76217484","กองดิจิทัลเพื่อการควบคุมโรค","2023-10-21T00:00:00",19,4.7,7.4,22,47],
    [3969,"FF1721AC76217484","กองดิจิทัลเพื่อการควบคุมโรค","2023-10-21T00:00:00",20,4,5.7,22.1,48],
    [3970,"FF1721AC76217484","กองดิจิทัลเพื่อการควบคุมโรค","2023-10-21T00:00:00",21,4.9,6.8,22.3,48.5],
    [3971,"FF1721AC76217484","กองดิจิทัลเพื่อการควบคุมโรค","2023-10-21T00:00:00",22,6.6,7.3,22.3,48.5],
    [3972,"FF1721AC76217484","กองดิจิทัลเพื่อการควบคุมโรค","2023-10-21T00:00:00",23,6.6,8.5,22.4,48.1],
    [3973,"FF1721AC76217484","กองดิจิทัลเพื่อการควบคุมโรค","2023-10-22T00:00:00",0,13.1,20.5,22.4,48.1],
    [3974,"FF1721AC76217484","กองดิจิทัลเพื่อการควบคุมโรค","2023-10-22T00:00:00",1,22.6,31.6,22.3,48.1],
    [3975,"FF1721AC76217484","กองดิจิทัลเพื่อการควบคุมโรค","2023-10-22T00:00:00",2,15,21.8,22.4,47.8],
    [3976,"FF1721AC76217484","กองดิจิทัลเพื่อการควบคุมโรค","2023-10-22T00:00:00",3,11.3,15.3,22.5,47.4],
    [3977,"FF1721AC76217484","กองดิจิทัลเพื่อการควบคุมโรค","2023-10-22T00:00:00",4,12.5,16.9,23,47.1],
    [3978,"FF1721AC76217484","กองดิจิทัลเพื่อการควบคุมโรค","2023-10-22T00:00:00",5,15.4,22.2,23.2,47.2],
    [3979,"FF1721AC76217484","กองดิจิทัลเพื่อการควบคุมโรค","2023-10-22T00:00:00",6,24,33.4,23.5,47.3],
    [3980,"FF1721AC76217484","กองดิจิทัลเพื่อการควบคุมโรค","2023-10-22T00:00:00",7,28.3,42.8,24,46.6],
    [3981,"FF1721AC76217484","กองดิจิทัลเพื่อการควบคุมโรค","2023-10-22T00:00:00",8,25.3,35.9,24.8,44.3],
    [3982,"FF1721AC76217484","กองดิจิทัลเพื่อการควบคุมโรค","2023-10-22T00:00:00",9,25.6,38.8,26,42.2],
    [3983,"FF1721AC76217484","กองดิจิทัลเพื่อการควบคุมโรค","2023-10-22T00:00:00",10,25.5,36.4,28.5,38],
    [3984,"FF1721AC76217484","กองดิจิทัลเพื่อการควบคุมโรค","2023-10-22T00:00:00",11,20.5,26.5,30.6,34.3],
    [3985,"FF1721AC76217484","กองดิจิทัลเพื่อการควบคุมโรค","2023-10-22T00:00:00",12,11,15.9,32.5,29.3],
    [3986,"FF1721AC76217484","กองดิจิทัลเพื่อการควบคุมโรค","2023-10-22T00:00:00",13,11.9,16.6,32.8,29],
    [3987,"FF1721AC76217484","กองดิจิทัลเพื่อการควบคุมโรค","2023-10-22T00:00:00",14,10.1,13.5,32.9,28.4],
    [3988,"FF1721AC76217484","กองดิจิทัลเพื่อการควบคุมโรค","2023-10-22T00:00:00",15,11.5,16.1,31.9,29.5],
    [3989,"FF1721AC76217484","กองดิจิทัลเพื่อการควบคุมโรค","2023-10-22T00:00:00",16,11.9,15.4,32.4,28.9],
    [3990,"FF1721AC76217484","กองดิจิทัลเพื่อการควบคุมโรค","2023-10-22T00:00:00",17,16.6,25.6,30.5,31.3],
    [3991,"FF1721AC76217484","กองดิจิทัลเพื่อการควบคุมโรค","2023-10-22T00:00:00",18,22.7,37.3,30.1,32.6],
    [3992,"FF1721AC76217484","กองดิจิทัลเพื่อการควบคุมโรค","2023-10-22T00:00:00",19,20.7,27.1,28.9,34.9],
    [3993,"FF1721AC76217484","กองดิจิทัลเพื่อการควบคุมโรค","2023-10-22T00:00:00",20,25.1,38.4,28.6,36.2],
    [3994,"FF1721AC76217484","กองดิจิทัลเพื่อการควบคุมโรค","2023-10-22T00:00:00",21,16.8,23.9,28,36.5],
    [3995,"FF1721AC76217484","กองดิจิทัลเพื่อการควบคุมโรค","2023-10-22T00:00:00",22,19.1,27.3,28.1,36.7],
    [3996,"FF1721AC76217484","กองดิจิทัลเพื่อการควบคุมโรค","2023-10-22T00:00:00",23,13.6,17.6,27.3,36.1],
    [3997,"FF1721AC76217484","กองดิจิทัลเพื่อการควบคุมโรค","2023-10-23T00:00:00",0,13.9,19.4,27.4,36.7],
    [3998,"FF1721AC76217484","กองดิจิทัลเพื่อการควบคุมโรค","2023-10-23T00:00:00",1,20.9,26.8,27.3,37.3],
    [3999,"FF1721AC76217484","กองดิจิทัลเพื่อการควบคุมโรค","2023-10-23T00:00:00",2,35.5,54.4,26.9,39.8],
    [4000,"FF1721AC76217484","กองดิจิทัลเพื่อการควบคุมโรค","2023-10-23T00:00:00",3,49.7,78.5,26.2,42],
    [4001,"FF1721AC76217484","กองดิจิทัลเพื่อการควบคุมโรค","2023-10-23T00:00:00",4,49.8,78.2,25.6,43.5],
    [4002,"FF1721AC76217484","กองดิจิทัลเพื่อการควบคุมโรค","2023-10-23T00:00:00",5,50.5,81.3,25.6,43.8],
    [4003,"FF1721AC76217484","กองดิจิทัลเพื่อการควบคุมโรค","2023-10-23T00:00:00",6,50.6,84.1,25.6,43.8],
    [4004,"FF1721AC76217484","กองดิจิทัลเพื่อการควบคุมโรค","2023-10-23T00:00:00",7,48.7,79.3,26.2,42.4],
    [4005,"FF1721AC76217484","กองดิจิทัลเพื่อการควบคุมโรค","2023-10-23T00:00:00",8,35.6,52.5,27.3,38.6],
    [4006,"FF1721AC76217484","กองดิจิทัลเพื่อการควบคุมโรค","2023-10-23T00:00:00",9,20,32.3,30.9,30.8],
    [4007,"FF1721AC76217484","กองดิจิทัลเพื่อการควบคุมโรค","2023-10-23T00:00:00",10,14.8,21.2,31.9,28.7],
    [4008,"FF1721AC76217484","กองดิจิทัลเพื่อการควบคุมโรค","2023-10-23T00:00:00",11,30.4,43.4,30.8,31.8],
    [4009,"FF1721AC76217484","กองดิจิทัลเพื่อการควบคุมโรค","2023-10-23T00:00:00",12,28.9,40.9,31.8,30.2],
    [4010,"FF1721AC76217484","กองดิจิทัลเพื่อการควบคุมโรค","2023-10-23T00:00:00",13,28.9,41.3,31.7,30.1],
    [4011,"FF1721AC76217484","กองดิจิทัลเพื่อการควบคุมโรค","2023-10-23T00:00:00",14,31.2,48.7,31.9,29.7],
    [4012,"FF1721AC76217484","กองดิจิทัลเพื่อการควบคุมโรค","2023-10-23T00:00:00",15,33.8,51.3,30.3,32.2],
    [4013,"FF1721AC76217484","กองดิจิทัลเพื่อการควบคุมโรค","2023-10-23T00:00:00",16,36.7,56.1,27.5,37.5],
    [4014,"FF1721AC76217484","กองดิจิทัลเพื่อการควบคุมโรค","2023-10-23T00:00:00",17,38.3,57.4,26.7,39.3],
    [4015,"FF1721AC76217484","กองดิจิทัลเพื่อการควบคุมโรค","2023-10-23T00:00:00",18,42,66.6,26.7,39.7],
    [4016,"FF1721AC76217484","กองดิจิทัลเพื่อการควบคุมโรค","2023-10-23T00:00:00",19,42.4,65.8,27,39.1],
    [4017,"FF1721AC76217484","กองดิจิทัลเพื่อการควบคุมโรค","2023-10-23T00:00:00",20,41.5,65.8,27.3,38.7],
    [4018,"FF1721AC76217484","กองดิจิทัลเพื่อการควบคุมโรค","2023-10-23T00:00:00",21,41.8,62.8,27.4,38.2],
    [4019,"FF1721AC76217484","กองดิจิทัลเพื่อการควบคุมโรค","2023-10-23T00:00:00",22,43.8,66.6,27.1,38.4],
    [4020,"FF1721AC76217484","กองดิจิทัลเพื่อการควบคุมโรค","2023-10-23T00:00:00",23,45.1,68.7,27.1,38.5],
    [4021,"FF1721AC76217484","กองดิจิทัลเพื่อการควบคุมโรค","2023-10-24T00:00:00",0,44.7,70.8,26.3,39.8],
    [4022,"FF1721AC76217484","กองดิจิทัลเพื่อการควบคุมโรค","2023-10-24T00:00:00",1,50.2,81.2,26.2,40.9],
    [4023,"FF1721AC76217484","กองดิจิทัลเพื่อการควบคุมโรค","2023-10-24T00:00:00",2,56.8,88.1,26.6,41.9],
    [4024,"FF1721AC76217484","กองดิจิทัลเพื่อการควบคุมโรค","2023-10-24T00:00:00",3,54.9,85.8,26.7,41.8],
    [4025,"FF1721AC76217484","กองดิจิทัลเพื่อการควบคุมโรค","2023-10-24T00:00:00",4,46.8,74.4,25.7,42.2],
    [4026,"FF1721AC76217484","กองดิจิทัลเพื่อการควบคุมโรค","2023-10-24T00:00:00",5,36.7,61.3,25.9,40.8],
    [4027,"FF1721AC76217484","กองดิจิทัลเพื่อการควบคุมโรค","2023-10-24T00:00:00",6,35.1,53.9,26,40.5],
    [4028,"FF1721AC76217484","กองดิจิทัลเพื่อการควบคุมโรค","2023-10-24T00:00:00",7,35.5,53.7,26.4,39.4],
    [4029,"FF1721AC76217484","กองดิจิทัลเพื่อการควบคุมโรค","2023-10-24T00:00:00",8,30.1,46.4,27.7,37],
    [4030,"FF1721AC76217484","กองดิจิทัลเพื่อการควบคุมโรค","2023-10-24T00:00:00",9,21.5,30.3,32,31.1],
    [4031,"FF1721AC76217484","กองดิจิทัลเพื่อการควบคุมโรค","2023-10-24T00:00:00",10,20.1,28.8,33.6,28.8],
    [4032,"FF1721AC76217484","กองดิจิทัลเพื่อการควบคุมโรค","2023-10-24T00:00:00",11,22.5,32,31.9,30],
    [4033,"FF1721AC76217484","กองดิจิทัลเพื่อการควบคุมโรค","2023-10-24T00:00:00",12,24.4,33.6,31.6,30.7],
    [4034,"FF1721AC76217484","กองดิจิทัลเพื่อการควบคุมโรค","2023-10-24T00:00:00",13,28.1,41.9,31,32.2],
    [4035,"FF1721AC76217484","กองดิจิทัลเพื่อการควบคุมโรค","2023-10-24T00:00:00",14,34.4,55,26.4,40.6],
    [4036,"FF1721AC76217484","กองดิจิทัลเพื่อการควบคุมโรค","2023-10-24T00:00:00",15,26.7,39.5,25.6,41.4],
    [4037,"FF1721AC76217484","กองดิจิทัลเพื่อการควบคุมโรค","2023-10-24T00:00:00",16,35.2,54.8,26.7,40.8],
    [4038,"FF1721AC76217484","กองดิจิทัลเพื่อการควบคุมโรค","2023-10-24T00:00:00",17,39.8,60.1,26.6,40.9],
    [4039,"FF1721AC76217484","กองดิจิทัลเพื่อการควบคุมโรค","2023-10-24T00:00:00",18,44.1,67.9,26.1,42.1],
    [4040,"FF1721AC76217484","กองดิจิทัลเพื่อการควบคุมโรค","2023-10-24T00:00:00",19,45,71.3,26.3,41.8],
    [4041,"FF1721AC76217484","กองดิจิทัลเพื่อการควบคุมโรค","2023-10-24T00:00:00",20,52.7,80.2,26.9,41.2],
    [4042,"FF1721AC76217484","กองดิจิทัลเพื่อการควบคุมโรค","2023-10-24T00:00:00",21,50.7,79.8,26.9,41.2],
    [4043,"FF1721AC76217484","กองดิจิทัลเพื่อการควบคุมโรค","2023-10-24T00:00:00",22,49.2,78.2,26.4,42],
    [4044,"FF1721AC76217484","กองดิจิทัลเพื่อการควบคุมโรค","2023-10-24T00:00:00",23,48.9,75.8,26.2,42.2],
    [4045,"FF1721AC76217484","กองดิจิทัลเพื่อการควบคุมโรค","2023-10-25T00:00:00",0,48,75.9,26.2,42.3],
    [4046,"FF1721AC76217484","กองดิจิทัลเพื่อการควบคุมโรค","2023-10-25T00:00:00",1,48.7,76.8,26.5,41.7],
    [4047,"FF1721AC76217484","กองดิจิทัลเพื่อการควบคุมโรค","2023-10-25T00:00:00",2,48.6,76.2,26.4,41.7],
    [4048,"FF1721AC76217484","กองดิจิทัลเพื่อการควบคุมโรค","2023-10-25T00:00:00",3,53.1,83.7,25.3,44],
    [4049,"FF1721AC76217484","กองดิจิทัลเพื่อการควบคุมโรค","2023-10-25T00:00:00",4,37.4,56.7,24.9,44.4],
    [4050,"FF1721AC76217484","กองดิจิทัลเพื่อการควบคุมโรค","2023-10-25T00:00:00",5,26.3,36.3,24.6,44.4],
    [4051,"FF1721AC76217484","กองดิจิทัลเพื่อการควบคุมโรค","2023-10-25T00:00:00",6,20.4,29.5,24.6,44.3],
    [4052,"FF1721AC76217484","กองดิจิทัลเพื่อการควบคุมโรค","2023-10-25T00:00:00",7,23.7,36.2,25.4,43.2],
    [4053,"FF1721AC76217484","กองดิจิทัลเพื่อการควบคุมโรค","2023-10-25T00:00:00",8,29.7,48.4,27.1,40.3],
    [4054,"FF1721AC76217484","กองดิจิทัลเพื่อการควบคุมโรค","2023-10-25T00:00:00",9,23,33.7,30.1,34.3],
    [4055,"FF1721AC76217484","กองดิจิทัลเพื่อการควบคุมโรค","2023-10-25T00:00:00",10,12.2,16.5,31.7,30],
    [4056,"FF1721AC76217484","กองดิจิทัลเพื่อการควบคุมโรค","2023-10-25T00:00:00",11,8.5,12.3,31.1,29.9],
    [4057,"FF1721AC76217484","กองดิจิทัลเพื่อการควบคุมโรค","2023-10-25T00:00:00",12,13.3,18.7,30.6,31.7],
    [4058,"FF1721AC76217484","กองดิจิทัลเพื่อการควบคุมโรค","2023-10-25T00:00:00",13,26.4,32,29.6,33.4],
    [4059,"FF1721AC76217484","กองดิจิทัลเพื่อการควบคุมโรค","2023-10-25T00:00:00",14,23.6,35.3,30.6,32.8],
    [4060,"FF1721AC76217484","กองดิจิทัลเพื่อการควบคุมโรค","2023-10-25T00:00:00",15,18.1,21.8,31.6,30.2],
    [4061,"FF1721AC76217484","กองดิจิทัลเพื่อการควบคุมโรค","2023-10-25T00:00:00",16,16.6,20.9,29.8,32.5],
    [4062,"FF1721AC76217484","กองดิจิทัลเพื่อการควบคุมโรค","2023-10-25T00:00:00",17,18.1,25.4,29.2,33.6],
    [4063,"FF1721AC76217484","กองดิจิทัลเพื่อการควบคุมโรค","2023-10-25T00:00:00",18,19.5,26.9,28.6,34.6],
    [4064,"FF1721AC76217484","กองดิจิทัลเพื่อการควบคุมโรค","2023-10-25T00:00:00",19,21.9,32.4,28.9,34.7],
    [4065,"FF1721AC76217484","กองดิจิทัลเพื่อการควบคุมโรค","2023-10-25T00:00:00",20,24.2,33.4,28.8,35.4],
    [4066,"FF1721AC76217484","กองดิจิทัลเพื่อการควบคุมโรค","2023-10-25T00:00:00",21,16.2,22.3,28.9,35.8],
    [4067,"FF1721AC76217484","กองดิจิทัลเพื่อการควบคุมโรค","2023-10-25T00:00:00",22,26.8,39.4,24.8,45.4],
    [4068,"FF1721AC76217484","กองดิจิทัลเพื่อการควบคุมโรค","2023-10-25T00:00:00",23,42.9,66.9,25.6,45.8],
    [4069,"FF1721AC76217484","กองดิจิทัลเพื่อการควบคุมโรค","2023-10-26T00:00:00",0,38.7,59.2,25.5,45.2],
    [4070,"FF1721AC76217484","กองดิจิทัลเพื่อการควบคุมโรค","2023-10-26T00:00:00",1,33.7,53.6,25.1,45.6],
    [4071,"FF1721AC76217484","กองดิจิทัลเพื่อการควบคุมโรค","2023-10-26T00:00:00",2,33.4,48.3,25.3,44.9],
    [4072,"FF1721AC76217484","กองดิจิทัลเพื่อการควบคุมโรค","2023-10-26T00:00:00",3,32.3,49.2,25.2,45],
    [4073,"FF1721AC76217484","กองดิจิทัลเพื่อการควบคุมโรค","2023-10-26T00:00:00",4,29.9,47.1,25.1,45],
    [4074,"FF1721AC76217484","กองดิจิทัลเพื่อการควบคุมโรค","2023-10-26T00:00:00",5,28.1,45.6,24.7,45.6],
    [4075,"FF1721AC76217484","กองดิจิทัลเพื่อการควบคุมโรค","2023-10-26T00:00:00",6,30.9,42,25.5,44.3],
    [4076,"FF1721AC76217484","กองดิจิทัลเพื่อการควบคุมโรค","2023-10-26T00:00:00",7,27.8,42.4,26.2,42.6],
    [4077,"FF1721AC76217484","กองดิจิทัลเพื่อการควบคุมโรค","2023-10-26T00:00:00",8,23,31.1,27.5,39.3],
    [4078,"FF1721AC76217484","กองดิจิทัลเพื่อการควบคุมโรค","2023-10-26T00:00:00",9,14.5,18.8,28.8,36.7],
    [4079,"FF1721AC76217484","กองดิจิทัลเพื่อการควบคุมโรค","2023-10-26T00:00:00",10,11.5,15.4,31.2,32.4],
    [4080,"FF1721AC76217484","กองดิจิทัลเพื่อการควบคุมโรค","2023-10-26T00:00:00",11,9.7,14,32.1,30.4],
    [4081,"FF1721AC76217484","กองดิจิทัลเพื่อการควบคุมโรค","2023-10-26T00:00:00",12,7.9,9.6,32.1,29.9],
    [4082,"FF1721AC76217484","กองดิจิทัลเพื่อการควบคุมโรค","2023-10-26T00:00:00",13,8.9,12.3,32.6,29.3],
    [4083,"FF1721AC76217484","กองดิจิทัลเพื่อการควบคุมโรค","2023-10-26T00:00:00",14,11.6,13.9,32,30.2],
    [4084,"FF1721AC76217484","กองดิจิทัลเพื่อการควบคุมโรค","2023-10-26T00:00:00",15,11.5,15.9,32.2,29.9],
    [4085,"FF1721AC76217484","กองดิจิทัลเพื่อการควบคุมโรค","2023-10-26T00:00:00",16,16,21.2,30.5,32.3],
    [4086,"FF1721AC76217484","กองดิจิทัลเพื่อการควบคุมโรค","2023-10-26T00:00:00",17,18.2,23.4,29.5,34],
    [4087,"FF1721AC76217484","กองดิจิทัลเพื่อการควบคุมโรค","2023-10-26T00:00:00",18,18.3,24.3,29.2,34.8],
    [4088,"FF1721AC76217484","กองดิจิทัลเพื่อการควบคุมโรค","2023-10-26T00:00:00",19,20.6,26.8,27.9,37.3],
    [4089,"FF1721AC76217484","กองดิจิทัลเพื่อการควบคุมโรค","2023-10-26T00:00:00",20,16.4,23.7,27.9,36.8],
    [4090,"FF1721AC76217484","กองดิจิทัลเพื่อการควบคุมโรค","2023-10-26T00:00:00",21,25,35,27.8,38],
    [4091,"FF1721AC76217484","กองดิจิทัลเพื่อการควบคุมโรค","2023-10-26T00:00:00",22,20.1,29,27.8,38.4],
    [4092,"FF1721AC76217484","กองดิจิทัลเพื่อการควบคุมโรค","2023-10-26T00:00:00",23,25.8,38.5,27.2,39.3],
    [4093,"FF1721AC76217484","กองดิจิทัลเพื่อการควบคุมโรค","2023-10-27T00:00:00",0,29.6,41.4,27.5,39.4],
    [4094,"FF1721AC76217484","กองดิจิทัลเพื่อการควบคุมโรค","2023-10-27T00:00:00",1,32.2,48.7,25.5,44],
    [4095,"FF1721AC76217484","กองดิจิทัลเพื่อการควบคุมโรค","2023-10-27T00:00:00",2,21.5,32.6,23.8,45.7],
    [4096,"FF1721AC76217484","กองดิจิทัลเพื่อการควบคุมโรค","2023-10-27T00:00:00",3,19.2,26.2,23.8,46.7],
    [4097,"FF1721AC76217484","กองดิจิทัลเพื่อการควบคุมโรค","2023-10-27T00:00:00",4,18.7,25.3,23.5,46.7],
    [4098,"FF1721AC76217484","กองดิจิทัลเพื่อการควบคุมโรค","2023-10-27T00:00:00",5,26.7,38.9,24.3,45.6],
    [4099,"FF1721AC76217484","กองดิจิทัลเพื่อการควบคุมโรค","2023-10-27T00:00:00",6,29.9,40.6,24.4,45.3],
    [4100,"FF1721AC76217484","กองดิจิทัลเพื่อการควบคุมโรค","2023-10-27T00:00:00",7,32.7,49.7,25.1,43.9],
    [4101,"FF1721AC76217484","กองดิจิทัลเพื่อการควบคุมโรค","2023-10-27T00:00:00",8,28.7,41.5,26.1,42.5],
    [4102,"FF1721AC76217484","กองดิจิทัลเพื่อการควบคุมโรค","2023-10-27T00:00:00",9,25.9,38.8,28.8,38],
    [4103,"FF1721AC76217484","กองดิจิทัลเพื่อการควบคุมโรค","2023-10-27T00:00:00",10,21.1,28.8,31.7,32.7],
    [4104,"FF1721AC76217484","กองดิจิทัลเพื่อการควบคุมโรค","2023-10-27T00:00:00",11,25.2,34.9,30.9,32.5],
    [4105,"FF1721AC76217484","กองดิจิทัลเพื่อการควบคุมโรค","2023-10-27T00:00:00",12,26.1,38.9,28.7,36.2],
    [4106,"FF1721AC76217484","กองดิจิทัลเพื่อการควบคุมโรค","2023-10-27T00:00:00",13,24.8,33.8,30.3,34.2],
    [4107,"FF1721AC76217484","กองดิจิทัลเพื่อการควบคุมโรค","2023-10-27T00:00:00",14,27.8,37.6,32,31.3],
    [4108,"FF1721AC76217484","กองดิจิทัลเพื่อการควบคุมโรค","2023-10-27T00:00:00",15,27.9,42,30.6,33.3],
    [4109,"FF1721AC76217484","กองดิจิทัลเพื่อการควบคุมโรค","2023-10-27T00:00:00",16,28.2,42,29.7,34.2],
    [4110,"FF1721AC76217484","กองดิจิทัลเพื่อการควบคุมโรค","2023-10-27T00:00:00",17,30.5,43,29.3,35.1],
    [4111,"FF1721AC76217484","กองดิจิทัลเพื่อการควบคุมโรค","2023-10-27T00:00:00",18,32.7,47.9,29.2,35.7],
    [4112,"FF1721AC76217484","กองดิจิทัลเพื่อการควบคุมโรค","2023-10-27T00:00:00",19,42.7,67,28.2,38.8],
    [4113,"FF1721AC76217484","กองดิจิทัลเพื่อการควบคุมโรค","2023-10-27T00:00:00",20,44.8,70.6,28.1,39.1],
    [4114,"FF1721AC76217484","กองดิจิทัลเพื่อการควบคุมโรค","2023-10-27T00:00:00",21,29.8,50.6,27.8,37.6],
    [4115,"FF1721AC76217484","กองดิจิทัลเพื่อการควบคุมโรค","2023-10-27T00:00:00",22,21.2,29.7,27.6,37.6],
    [4116,"FF1721AC76217484","กองดิจิทัลเพื่อการควบคุมโรค","2023-10-27T00:00:00",23,18.9,23.7,27.3,38.3],
    [4117,"FF1721AC76217484","กองดิจิทัลเพื่อการควบคุมโรค","2023-10-28T00:00:00",0,22.6,30.8,26.6,39.6],
    [4118,"FF1721AC76217484","กองดิจิทัลเพื่อการควบคุมโรค","2023-10-28T00:00:00",1,25,32.2,27.1,39.3],
    [4119,"FF1721AC76217484","กองดิจิทัลเพื่อการควบคุมโรค","2023-10-28T00:00:00",2,31.2,44.9,27.4,39.6],
    [4120,"FF1721AC76217484","กองดิจิทัลเพื่อการควบคุมโรค","2023-10-28T00:00:00",3,30,44.4,27.2,40.3],
    [4121,"FF1721AC76217484","กองดิจิทัลเพื่อการควบคุมโรค","2023-10-28T00:00:00",4,29.9,46,26.7,40.9],
    [4122,"FF1721AC76217484","กองดิจิทัลเพื่อการควบคุมโรค","2023-10-28T00:00:00",5,31.3,45,26.5,41.4],
    [4123,"FF1721AC76217484","กองดิจิทัลเพื่อการควบคุมโรค","2023-10-28T00:00:00",6,33.3,52.8,26.2,42.3],
    [4124,"FF1721AC76217484","กองดิจิทัลเพื่อการควบคุมโรค","2023-10-28T00:00:00",7,35.8,56.8,27.3,40.3],
    [4125,"FF1721AC76217484","กองดิจิทัลเพื่อการควบคุมโรค","2023-10-28T00:00:00",8,34.6,56.2,27.9,39.5],
    [4126,"FF1721AC76217484","กองดิจิทัลเพื่อการควบคุมโรค","2023-10-28T00:00:00",9,35,53,29.2,37.4],
    [4127,"FF1721AC76217484","กองดิจิทัลเพื่อการควบคุมโรค","2023-10-28T00:00:00",10,33.5,44.4,30.7,34.2],
    [4128,"FF1721AC76217484","กองดิจิทัลเพื่อการควบคุมโรค","2023-10-28T00:00:00",11,32.6,51.2,31.1,32.8],
    [4129,"FF1721AC76217484","กองดิจิทัลเพื่อการควบคุมโรค","2023-10-28T00:00:00",12,38.2,60.2,28.5,37.9],
    [4130,"FF1721AC76217484","กองดิจิทัลเพื่อการควบคุมโรค","2023-10-28T00:00:00",13,8.8,12.8,22.5,47.3],
    [4131,"FF1721AC76217484","กองดิจิทัลเพื่อการควบคุมโรค","2023-10-28T00:00:00",14,6.9,10.1,24,45.7],
    [4132,"FF1721AC76217484","กองดิจิทัลเพื่อการควบคุมโรค","2023-10-28T00:00:00",15,8.5,9.9,25.4,43],
    [4133,"FF1721AC76217484","กองดิจิทัลเพื่อการควบคุมโรค","2023-10-28T00:00:00",16,22.1,30.3,26,42.3],
    [4134,"FF1721AC76217484","กองดิจิทัลเพื่อการควบคุมโรค","2023-10-28T00:00:00",17,32.7,52.9,26.7,41.6],
    [4135,"FF1721AC76217484","กองดิจิทัลเพื่อการควบคุมโรค","2023-10-28T00:00:00",18,44,67,26.2,42.3],
    [4136,"FF1721AC76217484","กองดิจิทัลเพื่อการควบคุมโรค","2023-10-28T00:00:00",19,46.3,72.6,26,42.9],
    [4137,"FF1721AC76217484","กองดิจิทัลเพื่อการควบคุมโรค","2023-10-28T00:00:00",20,46.9,72.6,26.4,42.5],
    [4138,"FF1721AC76217484","กองดิจิทัลเพื่อการควบคุมโรค","2023-10-28T00:00:00",21,47,75.5,26.3,42.4],
    [4139,"FF1721AC76217484","กองดิจิทัลเพื่อการควบคุมโรค","2023-10-28T00:00:00",22,43.8,66.7,26.1,42],
    [4140,"FF1721AC76217484","กองดิจิทัลเพื่อการควบคุมโรค","2023-10-28T00:00:00",23,45.6,72.1,26.3,42.2],
    [4141,"FF1721AC76217484","กองดิจิทัลเพื่อการควบคุมโรค","2023-10-29T00:00:00",0,44.7,70.5,26.1,42.9],
    [4142,"FF1721AC76217484","กองดิจิทัลเพื่อการควบคุมโรค","2023-10-29T00:00:00",1,44.8,73.7,25.8,43.2],
    [4143,"FF1721AC76217484","กองดิจิทัลเพื่อการควบคุมโรค","2023-10-29T00:00:00",2,49.5,79.9,26.2,42.9],
    [4144,"FF1721AC76217484","กองดิจิทัลเพื่อการควบคุมโรค","2023-10-29T00:00:00",3,46.4,74.3,25.6,43.5],
    [4145,"FF1721AC76217484","กองดิจิทัลเพื่อการควบคุมโรค","2023-10-29T00:00:00",4,25.6,39.1,25.5,42.1],
    [4146,"FF1721AC76217484","กองดิจิทัลเพื่อการควบคุมโรค","2023-10-29T00:00:00",5,24.2,34.5,24.8,42.4],
    [4147,"FF1721AC76217484","กองดิจิทัลเพื่อการควบคุมโรค","2023-10-29T00:00:00",6,27.3,39.6,24.8,42.2],
    [4148,"FF1721AC76217484","กองดิจิทัลเพื่อการควบคุมโรค","2023-10-29T00:00:00",7,51.8,80.9,25.7,43.3],
    [4149,"FF1721AC76217484","กองดิจิทัลเพื่อการควบคุมโรค","2023-10-29T00:00:00",8,60.2,86.3,25.8,43.5],
    [4150,"FF1721AC76217484","กองดิจิทัลเพื่อการควบคุมโรค","2023-10-29T00:00:00",9,41.4,66.7,25.8,43.2],
    [4151,"FF1721AC76217484","กองดิจิทัลเพื่อการควบคุมโรค","2023-10-29T00:00:00",10,34.2,55.6,27.4,40.4],
    [4152,"FF1721AC76217484","กองดิจิทัลเพื่อการควบคุมโรค","2023-10-29T00:00:00",11,35.8,59.6,29.2,36.6],
    [4153,"FF1721AC76217484","กองดิจิทัลเพื่อการควบคุมโรค","2023-10-29T00:00:00",12,35.8,55.6,29.8,35.9],
    [4154,"FF1721AC76217484","กองดิจิทัลเพื่อการควบคุมโรค","2023-10-29T00:00:00",13,35.2,60.4,28.5,38],
    [4155,"FF1721AC76217484","กองดิจิทัลเพื่อการควบคุมโรค","2023-10-29T00:00:00",14,35.6,56.3,29.6,35.3],
    [4156,"FF1721AC76217484","กองดิจิทัลเพื่อการควบคุมโรค","2023-10-29T00:00:00",15,34.8,55.2,30.1,34.9],
    [4157,"FF1721AC76217484","กองดิจิทัลเพื่อการควบคุมโรค","2023-10-29T00:00:00",16,35.2,53,29.5,35.4],
    [4158,"FF1721AC76217484","กองดิจิทัลเพื่อการควบคุมโรค","2023-10-29T00:00:00",17,34.2,53.8,28.3,36.9],
    [4159,"FF1721AC76217484","กองดิจิทัลเพื่อการควบคุมโรค","2023-10-29T00:00:00",18,36.3,57.1,27.7,39],
    [4160,"FF1721AC76217484","กองดิจิทัลเพื่อการควบคุมโรค","2023-10-29T00:00:00",19,32.3,50.3,27.8,38.6],
    [4161,"FF1721AC76217484","กองดิจิทัลเพื่อการควบคุมโรค","2023-10-29T00:00:00",20,10,17.5,22.1,46.8],
    [4162,"FF1721AC76217484","กองดิจิทัลเพื่อการควบคุมโรค","2023-10-29T00:00:00",21,14.8,23.4,23.6,45.8],
    [4163,"FF1721AC76217484","กองดิจิทัลเพื่อการควบคุมโรค","2023-10-29T00:00:00",22,16.1,21.9,23.8,47],
    [4164,"FF1721AC76217484","กองดิจิทัลเพื่อการควบคุมโรค","2023-10-29T00:00:00",23,16,27,23.9,46.5],
    [4165,"FF1721AC76217484","กองดิจิทัลเพื่อการควบคุมโรค","2023-10-30T00:00:00",0,17,23.8,24.2,46],
    [4166,"FF1721AC76217484","กองดิจิทัลเพื่อการควบคุมโรค","2023-10-30T00:00:00",1,20.9,30.1,24.4,45.5],
    [4167,"FF1721AC76217484","กองดิจิทัลเพื่อการควบคุมโรค","2023-10-30T00:00:00",2,44.9,73.1,24.7,44.8],
    [4168,"FF1721AC76217484","กองดิจิทัลเพื่อการควบคุมโรค","2023-10-30T00:00:00",3,39.4,61.8,24.4,45.5],
    [4169,"FF1721AC76217484","กองดิจิทัลเพื่อการควบคุมโรค","2023-10-30T00:00:00",4,37.9,59.1,23.8,46.7],
    [4170,"FF1721AC76217484","กองดิจิทัลเพื่อการควบคุมโรค","2023-10-30T00:00:00",5,40.3,63.5,24,46.8],
    [4171,"FF1721AC76217484","กองดิจิทัลเพื่อการควบคุมโรค","2023-10-30T00:00:00",6,41.2,66.4,24,46.9],
    [4172,"FF1721AC76217484","กองดิจิทัลเพื่อการควบคุมโรค","2023-10-30T00:00:00",7,43.5,67.1,24.5,46.6],
    [4173,"FF1721AC76217484","กองดิจิทัลเพื่อการควบคุมโรค","2023-10-30T00:00:00",8,26.4,35,26,43.3],
    [4174,"FF1721AC76217484","กองดิจิทัลเพื่อการควบคุมโรค","2023-10-30T00:00:00",9,24.6,38.6,27.4,40.1],
    [4175,"FF1721AC76217484","กองดิจิทัลเพื่อการควบคุมโรค","2023-10-30T00:00:00",11,23.4,34.4,31.8,32],
    [4176,"FF1721AC76217484","กองดิจิทัลเพื่อการควบคุมโรค","2023-10-30T00:00:00",12,14.9,20.4,32.7,30],
    [4177,"FF1721AC76217484","กองดิจิทัลเพื่อการควบคุมโรค","2023-10-30T00:00:00",13,9.8,14.3,26.3,38.6],
    [4178,"FF1721AC76217484","กองดิจิทัลเพื่อการควบคุมโรค","2023-10-30T00:00:00",14,8.8,12.3,24.6,40.3],
    [4179,"FF1721AC76217484","กองดิจิทัลเพื่อการควบคุมโรค","2023-10-30T00:00:00",15,11.9,14.9,24.8,40.7],
    [4180,"FF1721AC76217484","กองดิจิทัลเพื่อการควบคุมโรค","2023-10-30T00:00:00",16,19.3,27.4,25,42.1],
    [4181,"FF1721AC76217484","กองดิจิทัลเพื่อการควบคุมโรค","2023-10-30T00:00:00",17,18.7,29.7,25,43.2],
    [4182,"FF1721AC76217484","กองดิจิทัลเพื่อการควบคุมโรค","2023-10-30T00:00:00",18,26,34,25,44],
    [4183,"FF1721AC76217484","กองดิจิทัลเพื่อการควบคุมโรค","2023-10-30T00:00:00",19,24,38.5,25.8,43.5],
    [4184,"FF1721AC76217484","กองดิจิทัลเพื่อการควบคุมโรค","2023-10-30T00:00:00",20,24.5,33,25.6,43.5],
    [4185,"FF1721AC76217484","กองดิจิทัลเพื่อการควบคุมโรค","2023-10-30T00:00:00",21,30,47.3,25.2,44.5],
    [4186,"FF1721AC76217484","กองดิจิทัลเพื่อการควบคุมโรค","2023-10-30T00:00:00",22,25.3,34.1,24.8,45.5],
    [4187,"FF1721AC76217484","กองดิจิทัลเพื่อการควบคุมโรค","2023-10-30T00:00:00",23,21.5,34,24.7,45.7],
    [4188,"FF1721AC76217484","กองดิจิทัลเพื่อการควบคุมโรค","2023-10-31T00:00:00",0,16.1,20.7,24.2,45.6],
    [4189,"FF1721AC76217484","กองดิจิทัลเพื่อการควบคุมโรค","2023-10-31T00:00:00",1,9.2,12.4,24.1,44],
    [4190,"FF1721AC76217484","กองดิจิทัลเพื่อการควบคุมโรค","2023-10-31T00:00:00",2,8.3,11.9,23.9,43.8],
    [4191,"FF1721AC76217484","กองดิจิทัลเพื่อการควบคุมโรค","2023-10-31T00:00:00",3,7.2,9.9,23.7,43.5],
    [4192,"FF1721AC76217484","กองดิจิทัลเพื่อการควบคุมโรค","2023-10-31T00:00:00",4,8.8,13,23.6,43.4],
    [4193,"FF1721AC76217484","กองดิจิทัลเพื่อการควบคุมโรค","2023-10-31T00:00:00",5,13,17.2,23.5,43.7],
    [4194,"FF1721AC76217484","กองดิจิทัลเพื่อการควบคุมโรค","2023-10-31T00:00:00",6,12.3,16,23.6,43],
    [4195,"FF1721AC76217484","กองดิจิทัลเพื่อการควบคุมโรค","2023-10-31T00:00:00",7,10.9,15.9,24.1,42],
    [4196,"FF1721AC76217484","กองดิจิทัลเพื่อการควบคุมโรค","2023-10-31T00:00:00",8,15.4,22.4,25,40.4],
    [4197,"FF1721AC76217484","กองดิจิทัลเพื่อการควบคุมโรค","2023-10-31T00:00:00",9,12.7,14.1,26.8,38.4],
    [4198,"FF1721AC76217484","กองดิจิทัลเพื่อการควบคุมโรค","2023-10-31T00:00:00",10,7,9.4,29.1,34.7],
    [4199,"FF1721AC76217484","กองดิจิทัลเพื่อการควบคุมโรค","2023-10-31T00:00:00",11,6.2,8.9,29.7,32.9],
    [4200,"FF1721AC76217484","กองดิจิทัลเพื่อการควบคุมโรค","2023-10-31T00:00:00",12,6.5,8.9,29.9,32.3],
    [4201,"FF1721AC76217484","กองดิจิทัลเพื่อการควบคุมโรค","2023-10-31T00:00:00",13,6,8.4,30.6,31.8],
    [4202,"FF1721AC76217484","กองดิจิทัลเพื่อการควบคุมโรค","2023-10-31T00:00:00",14,5.3,7.8,31.7,30.3],
    [4203,"FF1721AC76217484","กองดิจิทัลเพื่อการควบคุมโรค","2023-10-31T00:00:00",15,6.7,9.1,31.5,30.4],
    [4204,"FF1721AC76217484","กองดิจิทัลเพื่อการควบคุมโรค","2023-10-31T00:00:00",16,7.3,9.8,30.9,31.1],
    [4205,"FF1721AC76217484","กองดิจิทัลเพื่อการควบคุมโรค","2023-10-31T00:00:00",17,6.5,8.6,29.3,32.3],
    [4206,"FF1721AC76217484","กองดิจิทัลเพื่อการควบคุมโรค","2023-10-31T00:00:00",18,8.4,11.1,28.8,33.7],
    [4207,"FF1721AC76217484","กองดิจิทัลเพื่อการควบคุมโรค","2023-10-31T00:00:00",19,13.6,21.6,28,35.2],
    [4208,"FF1721AC76217484","กองดิจิทัลเพื่อการควบคุมโรค","2023-10-31T00:00:00",20,13.6,17.8,27.6,35.4],
    [4209,"FF1721AC76217484","กองดิจิทัลเพื่อการควบคุมโรค","2023-10-31T00:00:00",21,13.8,20,27.5,35.8],
    [4210,"FF1721AC76217484","กองดิจิทัลเพื่อการควบคุมโรค","2023-10-31T00:00:00",22,14.2,18.4,27.2,36.6],
    [4211,"FF1721AC76217484","กองดิจิทัลเพื่อการควบคุมโรค","2023-10-31T00:00:00",23,12.6,17.5,26.2,38.1],
    [4212,"FF1721AC76217484","กองดิจิทัลเพื่อการควบคุมโรค","2023-01-11T00:00:00",0,12.5,19,25.7,39],
    [4213,"FF1721AC76217484","กองดิจิทัลเพื่อการควบคุมโรค","2023-01-11T00:00:00",1,20.1,29.2,25.2,40],
    [4214,"FF1721AC76217484","กองดิจิทัลเพื่อการควบคุมโรค","2023-01-11T00:00:00",2,19.3,26.9,25.1,40.2],
    [4215,"FF1721AC76217484","กองดิจิทัลเพื่อการควบคุมโรค","2023-01-11T00:00:00",3,18.9,27.3,24.8,40.3],
    [4216,"FF1721AC76217484","กองดิจิทัลเพื่อการควบคุมโรค","2023-01-11T00:00:00",4,16.8,23.4,24.6,39.8],
    [4217,"FF1721AC76217484","กองดิจิทัลเพื่อการควบคุมโรค","2023-01-11T00:00:00",5,17.8,26.6,24.5,39.8],
    [4218,"FF1721AC76217484","กองดิจิทัลเพื่อการควบคุมโรค","2023-01-11T00:00:00",6,26,36.2,24.4,40.1],
    [4219,"FF1721AC76217484","กองดิจิทัลเพื่อการควบคุมโรค","2023-01-11T00:00:00",7,21.7,33.2,25.2,38.5],
    [4220,"FF1721AC76217484","กองดิจิทัลเพื่อการควบคุมโรค","2023-01-11T00:00:00",8,19.9,32.3,26,37],
    [4221,"FF1721AC76217484","กองดิจิทัลเพื่อการควบคุมโรค","2023-01-11T00:00:00",9,17.3,25.2,27.6,34.9],
    [4222,"FF1721AC76217484","กองดิจิทัลเพื่อการควบคุมโรค","2023-01-11T00:00:00",10,17,26,29.5,32.8],
    [4223,"FF1721AC76217484","กองดิจิทัลเพื่อการควบคุมโรค","2023-01-11T00:00:00",11,18.4,26.3,30.4,30.7],
    [4224,"FF1721AC76217484","กองดิจิทัลเพื่อการควบคุมโรค","2023-01-11T00:00:00",12,19.2,28.5,32.5,28],
    [4225,"FF1721AC76217484","กองดิจิทัลเพื่อการควบคุมโรค","2023-01-11T00:00:00",13,20.9,31.9,31.6,28.7],
    [4226,"FF1721AC76217484","กองดิจิทัลเพื่อการควบคุมโรค","2023-01-11T00:00:00",14,22.1,32.3,31.2,29.2],
    [4227,"FF1721AC76217484","กองดิจิทัลเพื่อการควบคุมโรค","2023-01-11T00:00:00",15,26.3,39.1,30.5,30.3],
    [4228,"FF1721AC76217484","กองดิจิทัลเพื่อการควบคุมโรค","2023-01-11T00:00:00",16,25.7,37.9,30.1,31.1],
    [4229,"FF1721AC76217484","กองดิจิทัลเพื่อการควบคุมโรค","2023-01-11T00:00:00",17,25.4,38.9,28.9,32.7],
    [4230,"FF1721AC76217484","กองดิจิทัลเพื่อการควบคุมโรค","2023-01-11T00:00:00",18,28.6,42.8,28.5,33.6],
    [4231,"FF1721AC76217484","กองดิจิทัลเพื่อการควบคุมโรค","2023-01-11T00:00:00",19,29.2,47.9,28.9,33.5],
    [4232,"FF1721AC76217484","กองดิจิทัลเพื่อการควบคุมโรค","2023-01-11T00:00:00",20,31.6,48.4,28,34.9],
    [4233,"FF1721AC76217484","กองดิจิทัลเพื่อการควบคุมโรค","2023-01-11T00:00:00",21,33.9,52.2,27.6,35.9],
    [4234,"FF1721AC76217484","กองดิจิทัลเพื่อการควบคุมโรค","2023-01-11T00:00:00",22,28.8,41.4,27.4,35.8],
    [4235,"FF1721AC76217484","กองดิจิทัลเพื่อการควบคุมโรค","2023-01-11T00:00:00",23,30.1,47.1,26.8,36.7],
    [4236,"FF1721AC76217484","กองดิจิทัลเพื่อการควบคุมโรค","2023-02-11T00:00:00",0,33.7,55.4,26.4,37.6],
    [4237,"FF1721AC76217484","กองดิจิทัลเพื่อการควบคุมโรค","2023-02-11T00:00:00",1,35.5,58.3,25.9,38.2],
    [4238,"FF1721AC76217484","กองดิจิทัลเพื่อการควบคุมโรค","2023-02-11T00:00:00",2,34.9,57.5,25.6,38.8],
    [4239,"FF1721AC76217484","กองดิจิทัลเพื่อการควบคุมโรค","2023-02-11T00:00:00",3,35.4,57,25.3,39.2],
    [4240,"FF1721AC76217484","กองดิจิทัลเพื่อการควบคุมโรค","2023-02-11T00:00:00",4,33.5,54.4,25.7,38.4],
    [4241,"FF1721AC76217484","กองดิจิทัลเพื่อการควบคุมโรค","2023-02-11T00:00:00",5,35,55.9,24.9,39.5],
    [4242,"FF1721AC76217484","กองดิจิทัลเพื่อการควบคุมโรค","2023-02-11T00:00:00",6,33.8,57.1,25.1,39.8],
    [4243,"FF1721AC76217484","กองดิจิทัลเพื่อการควบคุมโรค","2023-02-11T00:00:00",7,32.8,53.9,25.5,38.7],
    [4244,"FF1721AC76217484","กองดิจิทัลเพื่อการควบคุมโรค","2023-02-11T00:00:00",8,31.2,48.8,26.7,36.5],
    [4245,"FF1721AC76217484","กองดิจิทัลเพื่อการควบคุมโรค","2023-02-11T00:00:00",9,31.1,47.4,29.5,32.6],
    [4246,"FF1721AC76217484","กองดิจิทัลเพื่อการควบคุมโรค","2023-02-11T00:00:00",10,29.9,47.9,30.3,31],
    [4247,"FF1721AC76217484","กองดิจิทัลเพื่อการควบคุมโรค","2023-02-11T00:00:00",11,30.4,48.9,31.7,29.5],
    [4248,"FF1721AC76217484","กองดิจิทัลเพื่อการควบคุมโรค","2023-02-11T00:00:00",12,28.1,44,33.1,27.3],
    [4249,"FF1721AC76217484","กองดิจิทัลเพื่อการควบคุมโรค","2023-02-11T00:00:00",13,26.9,39,32.1,28.3],
    [4250,"FF1721AC76217484","กองดิจิทัลเพื่อการควบคุมโรค","2023-02-11T00:00:00",14,23.3,37.1,32.4,27.8],
    [4251,"FF1721AC76217484","กองดิจิทัลเพื่อการควบคุมโรค","2023-02-11T00:00:00",15,27.2,41.8,31.2,29.8],
    [4252,"FF1721AC76217484","กองดิจิทัลเพื่อการควบคุมโรค","2023-02-11T00:00:00",16,40.1,66.3,30.5,32.1],
    [4253,"FF1721AC76217484","กองดิจิทัลเพื่อการควบคุมโรค","2023-02-11T00:00:00",17,39.6,62.3,29.2,33.8],
    [4254,"FF1721AC76217484","กองดิจิทัลเพื่อการควบคุมโรค","2023-02-11T00:00:00",18,38.7,63.3,28.7,34],
    [4255,"FF1721AC76217484","กองดิจิทัลเพื่อการควบคุมโรค","2023-02-11T00:00:00",19,41.8,66.4,28.4,34.7],
    [4256,"FF1721AC76217484","กองดิจิทัลเพื่อการควบคุมโรค","2023-02-11T00:00:00",20,42.6,69.9,28,35.3],
    [4257,"FF1721AC76217484","กองดิจิทัลเพื่อการควบคุมโรค","2023-02-11T00:00:00",21,42.4,69.5,28.1,35.4],
    [4258,"FF1721AC76217484","กองดิจิทัลเพื่อการควบคุมโรค","2023-02-11T00:00:00",22,41.1,64.9,28.2,35.8],
    [4259,"FF1721AC76217484","กองดิจิทัลเพื่อการควบคุมโรค","2023-02-11T00:00:00",23,41.7,66.1,27.8,36.8],
    [4260,"FF1721AC76217484","กองดิจิทัลเพื่อการควบคุมโรค","2023-03-11T00:00:00",0,40.8,68,27.1,37.7],
    [4261,"FF1721AC76217484","กองดิจิทัลเพื่อการควบคุมโรค","2023-03-11T00:00:00",1,46.9,76.5,26.3,39.4],
    [4262,"FF1721AC76217484","กองดิจิทัลเพื่อการควบคุมโรค","2023-03-11T00:00:00",2,48.9,77.3,26.4,39.8],
    [4263,"FF1721AC76217484","กองดิจิทัลเพื่อการควบคุมโรค","2023-03-11T00:00:00",3,47.8,75.1,25.4,41.8],
    [4264,"FF1721AC76217484","กองดิจิทัลเพื่อการควบคุมโรค","2023-03-11T00:00:00",4,47.7,77.7,25.2,42.6],
    [4265,"FF1721AC76217484","กองดิจิทัลเพื่อการควบคุมโรค","2023-03-11T00:00:00",5,46.9,76.1,25.6,42],
    [4266,"FF1721AC76217484","กองดิจิทัลเพื่อการควบคุมโรค","2023-03-11T00:00:00",6,48.3,78.8,25.6,42.1],
    [4267,"FF1721AC76217484","กองดิจิทัลเพื่อการควบคุมโรค","2023-03-11T00:00:00",7,48,77.7,25.7,41.8],
    [4268,"FF1721AC76217484","กองดิจิทัลเพื่อการควบคุมโรค","2023-03-11T00:00:00",8,42.6,69.9,27.5,37],
    [4269,"FF1721AC76217484","กองดิจิทัลเพื่อการควบคุมโรค","2023-03-11T00:00:00",12,30,44.5,32.9,27.5],
    [4270,"FF1721AC76217484","กองดิจิทัลเพื่อการควบคุมโรค","2023-03-11T00:00:00",13,28.2,42,33.5,26.9],
    [4271,"FF1721AC76217484","กองดิจิทัลเพื่อการควบคุมโรค","2023-03-11T00:00:00",14,25.7,38.6,34.1,26.2],
    [4272,"FF1721AC76217484","กองดิจิทัลเพื่อการควบคุมโรค","2023-03-11T00:00:00",15,31.4,49,33.5,27.3],
    [4273,"FF1721AC76217484","กองดิจิทัลเพื่อการควบคุมโรค","2023-06-11T00:00:00",11,15.9,26.3,31.9,31.4],
    [4274,"FF1721AC76217484","กองดิจิทัลเพื่อการควบคุมโรค","2023-06-11T00:00:00",12,13.1,16.8,33.8,28.9],
    [4275,"FF1721AC76217484","กองดิจิทัลเพื่อการควบคุมโรค","2023-06-11T00:00:00",13,14.7,19.2,33.6,28.4],
    [4276,"FF1721AC76217484","กองดิจิทัลเพื่อการควบคุมโรค","2023-06-11T00:00:00",14,11.4,17.2,34.7,26.7],
    [4277,"FF1721AC76217484","กองดิจิทัลเพื่อการควบคุมโรค","2023-07-11T00:00:00",9,19.4,23.8,28,37.7],
    [4278,"FF1721AC76217484","กองดิจิทัลเพื่อการควบคุมโรค","2023-07-11T00:00:00",10,26.7,34.8,28.5,37.5],
    [4279,"FF1721AC76217484","กองดิจิทัลเพื่อการควบคุมโรค","2023-07-11T00:00:00",11,33.4,51.4,29.6,36.4],
    [4280,"FF1721AC76217484","กองดิจิทัลเพื่อการควบคุมโรค","2023-07-11T00:00:00",12,31.2,46.4,29.9,35.3],
    [4281,"FF1721AC76217484","กองดิจิทัลเพื่อการควบคุมโรค","2023-07-11T00:00:00",13,26.3,33.8,30.6,34.2],
    [4282,"FF1721AC76217484","กองดิจิทัลเพื่อการควบคุมโรค","2023-07-11T00:00:00",14,28.3,39.9,30.9,33],
    [4283,"FF1721AC76217484","กองดิจิทัลเพื่อการควบคุมโรค","2023-07-11T00:00:00",15,32.9,50.8,30.9,32.9],
    [4284,"FF1721AC76217484","กองดิจิทัลเพื่อการควบคุมโรค","2023-07-11T00:00:00",16,26.2,35.5,28.8,36.1],
    [4285,"FF1721AC76217484","กองดิจิทัลเพื่อการควบคุมโรค","2023-07-11T00:00:00",17,12.3,16,21.9,47.3],
    [4286,"FF1721AC76217484","กองดิจิทัลเพื่อการควบคุมโรค","2023-07-11T00:00:00",18,14,19,22.4,48.3],
    [4287,"FF1721AC76217484","กองดิจิทัลเพื่อการควบคุมโรค","2023-07-11T00:00:00",19,18.5,25.3,23.1,47],
    [4288,"FF1721AC76217484","กองดิจิทัลเพื่อการควบคุมโรค","2023-07-11T00:00:00",20,17,21.7,23.6,46.3],
    [4289,"FF1721AC76217484","กองดิจิทัลเพื่อการควบคุมโรค","2023-07-11T00:00:00",21,15,26,23.4,47],
    [4290,"FF1721AC76217484","กองดิจิทัลเพื่อการควบคุมโรค","2023-07-11T00:00:00",22,20.3,27.3,24.4,46.3],
    [4291,"FF1721AC76217484","กองดิจิทัลเพื่อการควบคุมโรค","2023-08-11T00:00:00",0,24.7,34.3,23.9,46.5],
    [4292,"FF1721AC76217484","กองดิจิทัลเพื่อการควบคุมโรค","2023-08-11T00:00:00",1,27,32,23.2,47],
    [4293,"FF1721AC76217484","กองดิจิทัลเพื่อการควบคุมโรค","2023-08-11T00:00:00",2,25,35.3,23.7,47.2],
    [4294,"FF1721AC76217484","กองดิจิทัลเพื่อการควบคุมโรค","2023-08-11T00:00:00",3,25,29,23.9,47],
    [4295,"FF1721AC76217484","กองดิจิทัลเพื่อการควบคุมโรค","2023-08-11T00:00:00",4,25,33,23.9,46],
    [4296,"FF1721AC76217484","กองดิจิทัลเพื่อการควบคุมโรค","2023-08-11T00:00:00",5,24,30,23.5,47],
    [4297,"FF1721AC76217484","กองดิจิทัลเพื่อการควบคุมโรค","2023-08-11T00:00:00",6,29,42,23.8,46.3],
    [4298,"FF1721AC76217484","กองดิจิทัลเพื่อการควบคุมโรค","2023-08-11T00:00:00",7,42,63,24.2,46.1],
    [4299,"FF1721AC76217484","กองดิจิทัลเพื่อการควบคุมโรค","2023-08-11T00:00:00",8,41.3,58.9,25.4,43.1],
    [4300,"FF1721AC76217484","กองดิจิทัลเพื่อการควบคุมโรค","2023-08-11T00:00:00",9,31.8,47.6,27.3,39.5],
    [4301,"FF1721AC76217484","กองดิจิทัลเพื่อการควบคุมโรค","2023-08-11T00:00:00",10,18.5,31,29.5,36.3],
    [4302,"FF1721AC76217484","กองดิจิทัลเพื่อการควบคุมโรค","2023-08-11T00:00:00",11,20.8,28.9,33.7,29.6],
    [4303,"FF1721AC76217484","กองดิจิทัลเพื่อการควบคุมโรค","2023-08-11T00:00:00",12,20.9,28.7,33,29.9],
    [4304,"FF1721AC76217484","กองดิจิทัลเพื่อการควบคุมโรค","2023-08-11T00:00:00",13,23,31,32.5,29.9],
    [4305,"FF1721AC76217484","กองดิจิทัลเพื่อการควบคุมโรค","2023-08-11T00:00:00",14,27.7,35.7,29.7,34.8],
    [4306,"FF1721AC76217484","กองดิจิทัลเพื่อการควบคุมโรค","2023-08-11T00:00:00",15,29.8,44.8,29.3,34.9],
    [4307,"FF1721AC76217484","กองดิจิทัลเพื่อการควบคุมโรค","2023-08-11T00:00:00",16,34,51.5,29.9,35.4],
    [4308,"FF1721AC76217484","กองดิจิทัลเพื่อการควบคุมโรค","2023-08-11T00:00:00",17,28.7,35.5,28.1,36.5],
    [4309,"FF1721AC76217484","กองดิจิทัลเพื่อการควบคุมโรค","2023-08-11T00:00:00",18,31.8,48.8,24.2,43.8],
    [4310,"FF1721AC76217484","กองดิจิทัลเพื่อการควบคุมโรค","2023-08-11T00:00:00",19,37.7,57,25.3,44.2],
    [4311,"FF1721AC76217484","กองดิจิทัลเพื่อการควบคุมโรค","2023-08-11T00:00:00",20,36.5,58.8,26.1,43],
    [4312,"FF1721AC76217484","กองดิจิทัลเพื่อการควบคุมโรค","2023-08-11T00:00:00",21,29.3,38.8,25.7,43.3],
    [4313,"FF1721AC76217484","กองดิจิทัลเพื่อการควบคุมโรค","2023-08-11T00:00:00",22,30,42.5,25.2,43.8],
    [4314,"FF1721AC76217484","กองดิจิทัลเพื่อการควบคุมโรค","2023-08-11T00:00:00",23,28,48,25.3,44.5],
    [4315,"FF1721AC76217484","กองดิจิทัลเพื่อการควบคุมโรค","2023-09-11T00:00:00",0,30,45.8,25.3,44],
    [4316,"FF1721AC76217484","กองดิจิทัลเพื่อการควบคุมโรค","2023-09-11T00:00:00",1,33.5,48.7,25.4,44],
    [4317,"FF1721AC76217484","กองดิจิทัลเพื่อการควบคุมโรค","2023-09-11T00:00:00",2,34.2,48.1,25.7,43.6],
    [4318,"FF1721AC76217484","กองดิจิทัลเพื่อการควบคุมโรค","2023-09-11T00:00:00",3,30.5,44,24.8,44.8],
    [4319,"FF1721AC76217484","กองดิจิทัลเพื่อการควบคุมโรค","2023-09-11T00:00:00",4,39.3,61.3,24.4,45.3],
    [4320,"FF1721AC76217484","กองดิจิทัลเพื่อการควบคุมโรค","2023-09-11T00:00:00",5,42,65.9,24.5,45.1],
    [4321,"FF1721AC76217484","กองดิจิทัลเพื่อการควบคุมโรค","2023-09-11T00:00:00",6,40,61.7,24.4,45.1],
    [4322,"FF1721AC76217484","กองดิจิทัลเพื่อการควบคุมโรค","2023-09-11T00:00:00",7,28.5,41.5,24.5,44.7],
    [4323,"FF1721AC76217484","กองดิจิทัลเพื่อการควบคุมโรค","2023-09-11T00:00:00",8,16.5,24.8,25.6,41.9],
    [4324,"FF1721AC76217484","กองดิจิทัลเพื่อการควบคุมโรค","2023-09-11T00:00:00",9,26.1,32.5,28,38.3],
    [4325,"FF1721AC76217484","กองดิจิทัลเพื่อการควบคุมโรค","2023-09-11T00:00:00",10,29.3,43.5,29,37.3],
    [4326,"FF1721AC76217484","กองดิจิทัลเพื่อการควบคุมโรค","2023-09-11T00:00:00",11,33.9,51.1,28.8,37.7],
    [4327,"FF1721AC76217484","กองดิจิทัลเพื่อการควบคุมโรค","2023-09-11T00:00:00",12,37.7,63.1,29.2,38.3],
    [4328,"FF1721AC76217484","กองดิจิทัลเพื่อการควบคุมโรค","2023-09-11T00:00:00",13,23.8,32.1,28.3,37],
    [4329,"FF1721AC76217484","กองดิจิทัลเพื่อการควบคุมโรค","2023-09-11T00:00:00",14,15.8,19.7,28.6,36.1],
    [4330,"FF1721AC76217484","กองดิจิทัลเพื่อการควบคุมโรค","2023-09-11T00:00:00",15,5.1,6.1,28.8,34],
    [4331,"FF1721AC76217484","กองดิจิทัลเพื่อการควบคุมโรค","2023-09-11T00:00:00",16,7.9,6,28.9,33.5],
    [4332,"FF1721AC76217484","กองดิจิทัลเพื่อการควบคุมโรค","2023-09-11T00:00:00",17,5.8,10.8,28.2,34.9],
    [4333,"FF1721AC76217484","กองดิจิทัลเพื่อการควบคุมโรค","2023-09-11T00:00:00",18,7.6,10,27.5,36.2],
    [4334,"FF1721AC76217484","กองดิจิทัลเพื่อการควบคุมโรค","2023-09-11T00:00:00",19,9.2,13.2,27.1,37.4],
    [4335,"FF1721AC76217484","กองดิจิทัลเพื่อการควบคุมโรค","2023-09-11T00:00:00",20,10.5,14.8,27,37.8],
    [4336,"FF1721AC76217484","กองดิจิทัลเพื่อการควบคุมโรค","2023-09-11T00:00:00",21,11.2,17,26.7,38.6],
    [4337,"FF1721AC76217484","กองดิจิทัลเพื่อการควบคุมโรค","2023-09-11T00:00:00",22,14.4,19.7,26,40.1],
    [4338,"FF1721AC76217484","กองดิจิทัลเพื่อการควบคุมโรค","2023-09-11T00:00:00",23,14.5,20.4,26,40.7],
    [4339,"FF1721AC76217484","กองดิจิทัลเพื่อการควบคุมโรค","2023-10-11T00:00:00",0,17.3,22.5,25.7,41.2],
    [4340,"FF1721AC76217484","กองดิจิทัลเพื่อการควบคุมโรค","2023-10-11T00:00:00",1,17.4,24.7,25.3,41.8],
    [4341,"FF1721AC76217484","กองดิจิทัลเพื่อการควบคุมโรค","2023-10-11T00:00:00",2,21.1,31.6,25.2,42.4],
    [4342,"FF1721AC76217484","กองดิจิทัลเพื่อการควบคุมโรค","2023-10-11T00:00:00",3,21.3,30.2,25,43],
    [4343,"FF1721AC76217484","กองดิจิทัลเพื่อการควบคุมโรค","2023-10-11T00:00:00",4,24.3,33.7,24.8,43.1],
    [4344,"FF1721AC76217484","กองดิจิทัลเพื่อการควบคุมโรค","2023-10-11T00:00:00",5,29.9,39.1,24.8,43.5],
    [4345,"FF1721AC76217484","กองดิจิทัลเพื่อการควบคุมโรค","2023-10-11T00:00:00",6,43.2,65.6,24.7,44.9],
    [4346,"FF1721AC76217484","กองดิจิทัลเพื่อการควบคุมโรค","2023-10-11T00:00:00",7,44.8,72.5,25.1,44.4],
    [4347,"FF1721AC76217484","กองดิจิทัลเพื่อการควบคุมโรค","2023-10-11T00:00:00",8,42.6,70.6,26,42.5],
    [4348,"FF1721AC76217484","กองดิจิทัลเพื่อการควบคุมโรค","2023-10-11T00:00:00",9,39.3,62.3,28.1,38.9],
    [4349,"FF1721AC76217484","กองดิจิทัลเพื่อการควบคุมโรค","2023-10-11T00:00:00",10,30.3,47,30.7,34.7],
    [4350,"FF1721AC76217484","กองดิจิทัลเพื่อการควบคุมโรค","2023-10-11T00:00:00",11,19,23.2,33.1,31.2],
    [4351,"FF1721AC76217484","กองดิจิทัลเพื่อการควบคุมโรค","2023-10-11T00:00:00",12,11.1,14.8,33.9,28.8],
    [4352,"FF1721AC76217484","กองดิจิทัลเพื่อการควบคุมโรค","2023-10-11T00:00:00",13,8.8,10.3,34.2,27.9],
    [4353,"FF1721AC76217484","กองดิจิทัลเพื่อการควบคุมโรค","2023-10-11T00:00:00",14,7.1,10.4,33.2,28.5],
    [4354,"FF1721AC76217484","กองดิจิทัลเพื่อการควบคุมโรค","2023-10-11T00:00:00",15,27.7,37.9,27.9,38.1],
    [4355,"FF1721AC76217484","กองดิจิทัลเพื่อการควบคุมโรค","2023-10-11T00:00:00",16,31.6,45.4,27.3,39.9],
    [4356,"FF1721AC76217484","กองดิจิทัลเพื่อการควบคุมโรค","2023-10-11T00:00:00",17,29.6,41.2,26.7,39.6],
    [4357,"FF1721AC76217484","กองดิจิทัลเพื่อการควบคุมโรค","2023-10-11T00:00:00",18,7.5,13.6,23.3,44.9],
    [4358,"FF1721AC76217484","กองดิจิทัลเพื่อการควบคุมโรค","2023-10-11T00:00:00",19,11.2,14.7,23.1,47.2],
    [4359,"FF1721AC76217484","กองดิจิทัลเพื่อการควบคุมโรค","2023-10-11T00:00:00",20,15.1,22.3,23.3,46.8],
    [4360,"FF1721AC76217484","กองดิจิทัลเพื่อการควบคุมโรค","2023-10-11T00:00:00",21,15,21.7,23.8,46.3],
    [4361,"FF1721AC76217484","กองดิจิทัลเพื่อการควบคุมโรค","2023-10-11T00:00:00",22,13.6,17.7,23.9,45.8],
    [4362,"FF1721AC76217484","กองดิจิทัลเพื่อการควบคุมโรค","2023-10-11T00:00:00",23,13.8,20.2,23.9,46.2],
    [4363,"FF1721AC76217484","กองดิจิทัลเพื่อการควบคุมโรค","2023-11-11T00:00:00",0,16.2,21.5,23.9,46.1],
    [4364,"FF1721AC76217484","กองดิจิทัลเพื่อการควบคุมโรค","2023-11-11T00:00:00",1,22,30.2,23.2,46.9],
    [4365,"FF1721AC76217484","กองดิจิทัลเพื่อการควบคุมโรค","2023-11-11T00:00:00",2,23.9,32.2,24,45.6],
    [4366,"FF1721AC76217484","กองดิจิทัลเพื่อการควบคุมโรค","2023-11-11T00:00:00",3,25.6,34.7,23.7,46.2],
    [4367,"FF1721AC76217484","กองดิจิทัลเพื่อการควบคุมโรค","2023-11-11T00:00:00",4,32.5,46.5,24.1,46],
    [4368,"FF1721AC76217484","กองดิจิทัลเพื่อการควบคุมโรค","2023-11-11T00:00:00",5,34.6,55,24.4,45.8],
    [4369,"FF1721AC76217484","กองดิจิทัลเพื่อการควบคุมโรค","2023-11-11T00:00:00",6,35.4,55.9,24.5,45.7],
    [4370,"FF1721AC76217484","กองดิจิทัลเพื่อการควบคุมโรค","2023-11-11T00:00:00",7,41.9,65.7,24.2,46.7],
    [4371,"FF1721AC76217484","กองดิจิทัลเพื่อการควบคุมโรค","2023-11-11T00:00:00",8,44,69.5,25,45.8],
    [4372,"FF1721AC76217484","กองดิจิทัลเพื่อการควบคุมโรค","2023-11-11T00:00:00",9,32.9,48.9,26.5,43.2],
    [4373,"FF1721AC76217484","กองดิจิทัลเพื่อการควบคุมโรค","2023-11-11T00:00:00",10,26.3,40.8,27.8,40.3],
    [4374,"FF1721AC76217484","กองดิจิทัลเพื่อการควบคุมโรค","2023-11-11T00:00:00",11,20.7,27.2,29.6,36.5],
    [4375,"FF1721AC76217484","กองดิจิทัลเพื่อการควบคุมโรค","2023-11-11T00:00:00",12,16,24.3,30.1,34.1],
    [4376,"FF1721AC76217484","กองดิจิทัลเพื่อการควบคุมโรค","2023-11-11T00:00:00",13,14.6,22.6,32.1,31.3],
    [4377,"FF1721AC76217484","กองดิจิทัลเพื่อการควบคุมโรค","2023-11-11T00:00:00",14,13.6,19.1,31.1,32.2],
    [4378,"FF1721AC76217484","กองดิจิทัลเพื่อการควบคุมโรค","2023-11-11T00:00:00",15,16,20.5,31.3,31.5],
    [4379,"FF1721AC76217484","กองดิจิทัลเพื่อการควบคุมโรค","2023-11-11T00:00:00",16,22.4,32.3,30.8,33.3],
    [4380,"FF1721AC76217484","กองดิจิทัลเพื่อการควบคุมโรค","2023-11-11T00:00:00",17,15,19.8,26.7,38.2],
    [4381,"FF1721AC76217484","กองดิจิทัลเพื่อการควบคุมโรค","2023-11-11T00:00:00",18,11.4,16.6,24.9,41.2],
    [4382,"FF1721AC76217484","กองดิจิทัลเพื่อการควบคุมโรค","2023-11-11T00:00:00",19,13.4,18.3,25,41.9],
    [4383,"FF1721AC76217484","กองดิจิทัลเพื่อการควบคุมโรค","2023-11-11T00:00:00",20,14.1,18.6,25,42.3],
    [4384,"FF1721AC76217484","กองดิจิทัลเพื่อการควบคุมโรค","2023-11-11T00:00:00",21,24.7,34.6,24.9,42.9],
    [4385,"FF1721AC76217484","กองดิจิทัลเพื่อการควบคุมโรค","2023-11-11T00:00:00",22,21,30.8,25,43.4],
    [4386,"FF1721AC76217484","กองดิจิทัลเพื่อการควบคุมโรค","2023-11-11T00:00:00",23,15.6,21.1,25,42.7],
    [4387,"FF1721AC76217484","กองดิจิทัลเพื่อการควบคุมโรค","2023-12-11T00:00:00",0,21,33.4,24.3,44.1],
    [4388,"FF1721AC76217484","กองดิจิทัลเพื่อการควบคุมโรค","2023-12-11T00:00:00",1,29.3,43.2,24.1,45.1],
    [4389,"FF1721AC76217484","กองดิจิทัลเพื่อการควบคุมโรค","2023-12-11T00:00:00",2,34.6,58.3,23.9,45.5],
    [4390,"FF1721AC76217484","กองดิจิทัลเพื่อการควบคุมโรค","2023-12-11T00:00:00",3,33.7,55.1,23.7,45.8],
    [4391,"FF1721AC76217484","กองดิจิทัลเพื่อการควบคุมโรค","2023-12-11T00:00:00",4,39,66.1,23.7,46.4],
    [4392,"FF1721AC76217484","กองดิจิทัลเพื่อการควบคุมโรค","2023-12-11T00:00:00",5,34.7,58.6,23.8,46.8],
    [4393,"FF1721AC76217484","กองดิจิทัลเพื่อการควบคุมโรค","2023-12-11T00:00:00",6,30.5,45.4,24.2,46],
    [4394,"FF1721AC76217484","กองดิจิทัลเพื่อการควบคุมโรค","2023-12-11T00:00:00",7,31.9,51.7,24.3,44.6],
    [4395,"FF1721AC76217484","กองดิจิทัลเพื่อการควบคุมโรค","2023-12-11T00:00:00",8,22.6,33.5,24.9,42.9],
    [4396,"FF1721AC76217484","กองดิจิทัลเพื่อการควบคุมโรค","2023-12-11T00:00:00",9,14,19.3,26.3,40.5],
    [4397,"FF1721AC76217484","กองดิจิทัลเพื่อการควบคุมโรค","2023-12-11T00:00:00",10,16,22.3,27.5,38.7],
    [4398,"FF1721AC76217484","กองดิจิทัลเพื่อการควบคุมโรค","2023-12-11T00:00:00",11,17.5,26,29.8,35.6],
    [4399,"FF1721AC76217484","กองดิจิทัลเพื่อการควบคุมโรค","2023-12-11T00:00:00",12,16.5,22.3,30,35.1],
    [4400,"FF1721AC76217484","กองดิจิทัลเพื่อการควบคุมโรค","2023-12-11T00:00:00",13,12.8,17.3,31.4,32.6],
    [4401,"FF1721AC76217484","กองดิจิทัลเพื่อการควบคุมโรค","2023-12-11T00:00:00",14,12.4,18.5,30.9,32.5],
    [4402,"FF1721AC76217484","กองดิจิทัลเพื่อการควบคุมโรค","2023-12-11T00:00:00",15,11.2,16.5,30.8,31.6],
    [4403,"FF1721AC76217484","กองดิจิทัลเพื่อการควบคุมโรค","2023-12-11T00:00:00",16,10.6,13.2,29.9,32.4],
    [4404,"FF1721AC76217484","กองดิจิทัลเพื่อการควบคุมโรค","2023-12-11T00:00:00",17,10.9,14.8,29.4,33.4],
    [4405,"FF1721AC76217484","กองดิจิทัลเพื่อการควบคุมโรค","2023-12-11T00:00:00",18,12.1,15.2,28.5,35],
    [4406,"FF1721AC76217484","กองดิจิทัลเพื่อการควบคุมโรค","2023-12-11T00:00:00",19,12.6,19.8,27.7,36.8],
    [4407,"FF1721AC76217484","กองดิจิทัลเพื่อการควบคุมโรค","2023-12-11T00:00:00",20,28,41.4,27,40.1],
    [4408,"FF1721AC76217484","กองดิจิทัลเพื่อการควบคุมโรค","2023-12-11T00:00:00",21,17.2,23.2,27.1,38.4],
    [4409,"FF1721AC76217484","กองดิจิทัลเพื่อการควบคุมโรค","2023-12-11T00:00:00",22,9.2,12.4,27.5,36.2],
    [4410,"FF1721AC76217484","กองดิจิทัลเพื่อการควบคุมโรค","2023-12-11T00:00:00",23,9.3,12.7,26.6,37.4],
    [4411,"FF1721AC76217484","กองดิจิทัลเพื่อการควบคุมโรค","2023-11-13T00:00:00",0,9.8,15.5,25.6,39.6],
    [4412,"FF1721AC76217484","กองดิจิทัลเพื่อการควบคุมโรค","2023-11-13T00:00:00",1,10.8,13.5,25.5,39.9],
    [4413,"FF1721AC76217484","กองดิจิทัลเพื่อการควบคุมโรค","2023-11-13T00:00:00",2,16.3,25.4,25,41],
    [4414,"FF1721AC76217484","กองดิจิทัลเพื่อการควบคุมโรค","2023-11-13T00:00:00",3,22.2,32.7,25,40.9],
    [4415,"FF1721AC76217484","กองดิจิทัลเพื่อการควบคุมโรค","2023-11-13T00:00:00",4,20.6,32.4,24.7,42.3],
    [4416,"FF1721AC76217484","กองดิจิทัลเพื่อการควบคุมโรค","2023-11-13T00:00:00",5,19.4,26.9,24.5,43.2],
    [4417,"FF1721AC76217484","กองดิจิทัลเพื่อการควบคุมโรค","2023-11-13T00:00:00",6,25.9,38.2,24.6,43.2],
    [4418,"FF1721AC76217484","กองดิจิทัลเพื่อการควบคุมโรค","2023-11-13T00:00:00",7,29.6,49.2,24.7,43.7],
    [4419,"FF1721AC76217484","กองดิจิทัลเพื่อการควบคุมโรค","2023-11-13T00:00:00",8,25.8,40.6,26,41.8],
    [4420,"FF1721AC76217484","กองดิจิทัลเพื่อการควบคุมโรค","2023-11-13T00:00:00",9,20.3,30.9,28.8,37.1],
    [4421,"FF1721AC76217484","กองดิจิทัลเพื่อการควบคุมโรค","2023-11-13T00:00:00",10,16,22.3,31.5,32.6],
    [4422,"FF1721AC76217484","กองดิจิทัลเพื่อการควบคุมโรค","2023-11-13T00:00:00",11,10.2,13.6,32.9,29.8],
    [4423,"FF1721AC76217484","กองดิจิทัลเพื่อการควบคุมโรค","2023-11-13T00:00:00",12,8.6,10.9,33.3,28.8],
    [4424,"FF1721AC76217484","กองดิจิทัลเพื่อการควบคุมโรค","2023-11-13T00:00:00",13,9.3,12.9,33.8,28.1],
    [4425,"FF1721AC76217484","กองดิจิทัลเพื่อการควบคุมโรค","2023-11-13T00:00:00",14,11.4,17.1,32.8,29.4],
    [4426,"FF1721AC76217484","กองดิจิทัลเพื่อการควบคุมโรค","2023-11-13T00:00:00",15,11.7,17.1,31.8,30.6],
    [4427,"FF1721AC76217484","กองดิจิทัลเพื่อการควบคุมโรค","2023-11-13T00:00:00",16,15.8,22.3,31.4,30.7],
    [4428,"FF1721AC76217484","กองดิจิทัลเพื่อการควบคุมโรค","2023-11-13T00:00:00",17,14.4,21.9,30.6,32],
    [4429,"FF1721AC76217484","กองดิจิทัลเพื่อการควบคุมโรค","2023-11-13T00:00:00",18,17.8,24.7,30,33.5],
    [4430,"FF1721AC76217484","กองดิจิทัลเพื่อการควบคุมโรค","2023-11-13T00:00:00",19,23.8,35.3,29.3,34.9],
    [4431,"FF1721AC76217484","กองดิจิทัลเพื่อการควบคุมโรค","2023-11-13T00:00:00",20,25.6,34.3,29,35.9],
    [4432,"FF1721AC76217484","กองดิจิทัลเพื่อการควบคุมโรค","2023-11-13T00:00:00",21,30.3,46.8,28.2,38.4],
    [4433,"FF1721AC76217484","กองดิจิทัลเพื่อการควบคุมโรค","2023-11-13T00:00:00",22,34.4,56.6,27.9,39.9],
    [4434,"FF1721AC76217484","กองดิจิทัลเพื่อการควบคุมโรค","2023-11-13T00:00:00",23,35.9,57.6,27.5,40.9],
    [4435,"FF1721AC76217484","กองดิจิทัลเพื่อการควบคุมโรค","2023-11-14T00:00:00",0,37.5,58.7,27.1,41.4],
    [4436,"FF1721AC76217484","กองดิจิทัลเพื่อการควบคุมโรค","2023-11-14T00:00:00",1,39.2,60.8,26.9,42.1],
    [4437,"FF1721AC76217484","กองดิจิทัลเพื่อการควบคุมโรค","2023-11-14T00:00:00",2,39.5,62.8,26.8,42.1],
    [4438,"FF1721AC76217484","กองดิจิทัลเพื่อการควบคุมโรค","2023-11-14T00:00:00",3,38.4,60.4,26.4,42.6],
    [4439,"FF1721AC76217484","กองดิจิทัลเพื่อการควบคุมโรค","2023-11-14T00:00:00",4,27.8,43.6,26.7,40.8],
    [4440,"FF1721AC76217484","กองดิจิทัลเพื่อการควบคุมโรค","2023-11-14T00:00:00",5,15.9,23.1,27,38.9],
    [4441,"FF1721AC76217484","กองดิจิทัลเพื่อการควบคุมโรค","2023-11-14T00:00:00",6,14,18.8,26.7,39.2],
    [4442,"FF1721AC76217484","กองดิจิทัลเพื่อการควบคุมโรค","2023-11-14T00:00:00",7,11.8,15.7,26.7,38.5],
    [4443,"FF1721AC76217484","กองดิจิทัลเพื่อการควบคุมโรค","2023-11-14T00:00:00",8,8.5,12.4,27.6,37.1],
    [4444,"FF1721AC76217484","กองดิจิทัลเพื่อการควบคุมโรค","2023-11-14T00:00:00",9,7.7,10.8,30.5,32.4],
    [4445,"FF1721AC76217484","กองดิจิทัลเพื่อการควบคุมโรค","2023-11-14T00:00:00",10,6,7.7,31.7,30.9],
    [4446,"FF1721AC76217484","กองดิจิทัลเพื่อการควบคุมโรค","2023-11-14T00:00:00",11,3.8,4.7,32,30],
    [4447,"FF1721AC76217484","กองดิจิทัลเพื่อการควบคุมโรค","2023-11-14T00:00:00",12,4.2,5,31.8,30.1],
    [4448,"FF1721AC76217484","กองดิจิทัลเพื่อการควบคุมโรค","2023-11-14T00:00:00",13,3.5,5.7,32.9,28.8],
    [4449,"FF1721AC76217484","กองดิจิทัลเพื่อการควบคุมโรค","2023-11-14T00:00:00",14,2.7,4.1,32.4,28.8],
    [4450,"FF1721AC76217484","กองดิจิทัลเพื่อการควบคุมโรค","2023-11-14T00:00:00",15,3.7,4,31.9,29.6],
    [4451,"FF1721AC76217484","กองดิจิทัลเพื่อการควบคุมโรค","2023-11-14T00:00:00",16,5.2,6.1,32.3,29.3],
    [4452,"FF1721AC76217484","กองดิจิทัลเพื่อการควบคุมโรค","2023-11-14T00:00:00",17,5.7,6.8,30.4,31.5],
    [4453,"FF1721AC76217484","กองดิจิทัลเพื่อการควบคุมโรค","2023-11-14T00:00:00",18,9.6,12.9,29,33.7],
    [4454,"FF1721AC76217484","กองดิจิทัลเพื่อการควบคุมโรค","2023-11-14T00:00:00",19,12.6,17.9,28.3,34.4],
    [4455,"FF1721AC76217484","กองดิจิทัลเพื่อการควบคุมโรค","2023-11-14T00:00:00",20,12.6,17,28.1,34.5],
    [4456,"FF1721AC76217484","กองดิจิทัลเพื่อการควบคุมโรค","2023-11-14T00:00:00",21,13.4,17,27.9,34.9],
    [4457,"FF1721AC76217484","กองดิจิทัลเพื่อการควบคุมโรค","2023-11-14T00:00:00",22,12.6,17.7,27.4,35.4],
    [4458,"FF1721AC76217484","กองดิจิทัลเพื่อการควบคุมโรค","2023-11-14T00:00:00",23,17.5,28,26.7,36.9],
    [4459,"FF1721AC76217484","กองดิจิทัลเพื่อการควบคุมโรค","2023-11-15T00:00:00",0,18,26.7,26.1,38.2],
    [4460,"FF1721AC76217484","กองดิจิทัลเพื่อการควบคุมโรค","2023-11-15T00:00:00",1,13.3,18.9,26.3,37],
    [4461,"FF1721AC76217484","กองดิจิทัลเพื่อการควบคุมโรค","2023-11-15T00:00:00",2,9.2,12.8,25.9,37.3],
    [4462,"FF1721AC76217484","กองดิจิทัลเพื่อการควบคุมโรค","2023-11-15T00:00:00",3,8.5,11.6,25.7,37],
    [4463,"FF1721AC76217484","กองดิจิทัลเพื่อการควบคุมโรค","2023-11-15T00:00:00",4,8.5,12.5,25.3,36.8],
    [4464,"FF1721AC76217484","กองดิจิทัลเพื่อการควบคุมโรค","2023-11-15T00:00:00",5,9.2,11.7,25.2,36.9],
    [4465,"FF1721AC76217484","กองดิจิทัลเพื่อการควบคุมโรค","2023-11-15T00:00:00",6,9.4,13.2,25.2,36.8],
    [4466,"FF1721AC76217484","กองดิจิทัลเพื่อการควบคุมโรค","2023-11-15T00:00:00",7,12.7,17.9,25.6,36],
    [4467,"FF1721AC76217484","กองดิจิทัลเพื่อการควบคุมโรค","2023-11-15T00:00:00",8,12.8,18,26.3,35.4],
    [4468,"FF1721AC76217484","กองดิจิทัลเพื่อการควบคุมโรค","2023-11-15T00:00:00",9,8.8,14.4,30,30.7],
    [4469,"FF1721AC76217484","กองดิจิทัลเพื่อการควบคุมโรค","2023-11-15T00:00:00",10,12.5,17.8,30.7,30.4],
    [4470,"FF1721AC76217484","กองดิจิทัลเพื่อการควบคุมโรค","2023-11-15T00:00:00",11,6.3,7.8,31,29.3],
    [4471,"FF1721AC76217484","กองดิจิทัลเพื่อการควบคุมโรค","2023-11-15T00:00:00",12,6.4,7.9,32.2,28.6],
    [4472,"FF1721AC76217484","กองดิจิทัลเพื่อการควบคุมโรค","2023-11-15T00:00:00",13,5.3,8.3,32.8,27.9],
    [4473,"FF1721AC76217484","กองดิจิทัลเพื่อการควบคุมโรค","2023-11-15T00:00:00",14,4.6,6.6,33.4,27.7],
    [4474,"FF1721AC76217484","กองดิจิทัลเพื่อการควบคุมโรค","2023-11-15T00:00:00",15,4.3,6.2,32.1,28.9],
    [4475,"FF1721AC76217484","กองดิจิทัลเพื่อการควบคุมโรค","2023-11-15T00:00:00",16,4.2,6,31.9,28.9],
    [4476,"FF1721AC76217484","กองดิจิทัลเพื่อการควบคุมโรค","2023-11-15T00:00:00",17,4.9,7.3,30.6,30.6],
    [4477,"FF1721AC76217484","กองดิจิทัลเพื่อการควบคุมโรค","2023-11-15T00:00:00",18,9.8,13.3,29.5,32.8],
    [4478,"FF1721AC76217484","กองดิจิทัลเพื่อการควบคุมโรค","2023-11-15T00:00:00",19,17.4,18.8,28.3,34.3],
    [4479,"FF1721AC76217484","กองดิจิทัลเพื่อการควบคุมโรค","2023-11-15T00:00:00",20,16.1,24,27.3,36.6],
    [4480,"FF1721AC76217484","กองดิจิทัลเพื่อการควบคุมโรค","2023-11-15T00:00:00",21,13.3,20.6,27.3,36.8],
    [4481,"FF1721AC76217484","กองดิจิทัลเพื่อการควบคุมโรค","2023-11-15T00:00:00",22,14.4,13.8,26.9,36.9],
    [4482,"FF1721AC76217484","กองดิจิทัลเพื่อการควบคุมโรค","2023-11-15T00:00:00",23,15.2,20.6,26.9,37.1],
    [4483,"FF1721AC76217462","ด่านฯสะพานมิตรภาพ 3 นครพนม","2023-11-16T00:00:00",14,11.5,14.5,20.9,37.8],
    [4484,"FF1721AC76217467","ด่านฯท่าเทียบเรือเทศบาลเมืองนครพนม","2023-11-16T00:00:00",15,12.7,15,21.2,37.8],
    [4485,"FF1721AC76217471","ด่านฯสะพานมิตรภาพ 1 หนองคาย","2023-11-16T00:00:00",10,18,27,20.9,39.5],
    [4486,"FF1721AC76217473","ด่านฯสถานีรถไฟหนองคาย","2023-11-16T00:00:00",11,16.7,21.3,21.2,38],
    [4487,"FF1721AC76217475","ด่านฯท่าอากาศยานอุดรธานี","2023-11-16T00:00:00",10,18,19,20.9,37],
    [4488,"FF1721AC76217478","ด่านฯบึงกาฬ","2023-11-16T00:00:00",11,12,20,20.6,39],
    [4489,"FF1721AC76217484","กองดิจิทัลเพื่อการควบคุมโรค","2023-11-16T00:00:00",0,17.7,25.1,27,37.1],
    [4490,"FF1721AC76217484","กองดิจิทัลเพื่อการควบคุมโรค","2023-11-16T00:00:00",1,17.1,25.4,26.4,38.4],
    [4491,"FF1721AC76217484","กองดิจิทัลเพื่อการควบคุมโรค","2023-11-16T00:00:00",2,19.2,27.2,26.1,38.8],
    [4492,"FF1721AC76217484","กองดิจิทัลเพื่อการควบคุมโรค","2023-11-16T00:00:00",3,20.7,29.3,25.8,39.3],
    [4493,"FF1721AC76217484","กองดิจิทัลเพื่อการควบคุมโรค","2023-11-16T00:00:00",4,22.2,30.9,25.4,39.8],
    [4494,"FF1721AC76217484","กองดิจิทัลเพื่อการควบคุมโรค","2023-11-16T00:00:00",5,22.3,34.1,25.1,40.4],
    [4495,"FF1721AC76217484","กองดิจิทัลเพื่อการควบคุมโรค","2023-11-16T00:00:00",6,21.8,34.8,25.4,39.6],
    [4496,"FF1721AC76217484","กองดิจิทัลเพื่อการควบคุมโรค","2023-11-16T00:00:00",7,22.4,30.9,25.7,38.3],
    [4497,"FF1721AC76217484","กองดิจิทัลเพื่อการควบคุมโรค","2023-11-16T00:00:00",8,16.4,21.3,26.7,36.8],
    [4498,"FF1721AC76217484","กองดิจิทัลเพื่อการควบคุมโรค","2023-11-16T00:00:00",9,16.9,27.4,28.6,34.3],
    [4499,"FF1721AC76217484","กองดิจิทัลเพื่อการควบคุมโรค","2023-11-16T00:00:00",10,11.2,12.4,31,30.7],
    [4500,"FF1721AC76217484","กองดิจิทัลเพื่อการควบคุมโรค","2023-11-16T00:00:00",11,8.3,11.1,32.5,28.3],
    [4501,"FF1721AC76217484","กองดิจิทัลเพื่อการควบคุมโรค","2023-11-16T00:00:00",12,7.5,11,32.9,28.3],
    [4502,"FF1721AC76217484","กองดิจิทัลเพื่อการควบคุมโรค","2023-11-16T00:00:00",13,7,8.7,33.3,27.6],
    [4503,"FF1721AC76217484","กองดิจิทัลเพื่อการควบคุมโรค","2023-11-16T00:00:00",14,4.9,6.7,33.2,27.2],
    [4504,"FF1721AC76217484","กองดิจิทัลเพื่อการควบคุมโรค","2023-11-16T00:00:00",15,7.6,13,31.9,29.2],
    [4505,"FF1721AC76217484","กองดิจิทัลเพื่อการควบคุมโรค","2023-11-16T00:00:00",16,7.6,9.3,32.2,28.6],
    [4506,"FF1721AC76217484","กองดิจิทัลเพื่อการควบคุมโรค","2023-11-16T00:00:00",17,10.7,15.6,29.2,33.7],
    [4507,"FF1721AC76217484","กองดิจิทัลเพื่อการควบคุมโรค","2023-11-16T00:00:00",18,9.4,12.4,26.9,37],
    [4508,"FF1721AC76217484","กองดิจิทัลเพื่อการควบคุมโรค","2023-11-16T00:00:00",19,18.1,22.8,27.4,36.7],
    [4509,"FF1721AC76217484","กองดิจิทัลเพื่อการควบคุมโรค","2023-11-16T00:00:00",20,23.2,33.8,28,36.7],
    [4510,"FF1721AC76217484","กองดิจิทัลเพื่อการควบคุมโรค","2023-11-16T00:00:00",21,14.1,17.9,27.3,38],
    [4511,"FF1721AC76217484","กองดิจิทัลเพื่อการควบคุมโรค","2023-11-16T00:00:00",22,8.2,11,26,38.5],
    [4512,"FF1721AC76217484","กองดิจิทัลเพื่อการควบคุมโรค","2023-11-16T00:00:00",23,6.2,9.5,26,38.8],
    [4513,"FF1721AC76217486","ด่านฯเชียงคาน จ.เลย","2023-11-16T00:00:00",14,11,13.5,21,38],
    [4514,"FF1721AC76217486","ด่านฯเชียงคาน จ.เลย","2023-11-16T00:00:00",15,11,16,21,36],
    [4515,"FF1721AC76217498","ด่านฯท่าลี่ จ.เลย","2023-11-16T00:00:00",13,14,14,21.2,38.5],
    [4516,"FF1721AC76217475","ด่านฯท่าอากาศยานอุดรธานี","2023-11-17T00:00:00",10,4.1,6.1,22,37],
    [4517,"FF1721AC76217475","ด่านฯท่าอากาศยานอุดรธานี","2023-11-17T00:00:00",11,5,5.1,22.4,35.8],
    [4518,"FF1721AC76217484","กองดิจิทัลเพื่อการควบคุมโรค","2023-11-17T00:00:00",0,7.1,9.2,25.2,40.8],
    [4519,"FF1721AC76217484","กองดิจิทัลเพื่อการควบคุมโรค","2023-11-17T00:00:00",1,7.5,10.2,25.9,39.6],
    [4520,"FF1721AC76217484","กองดิจิทัลเพื่อการควบคุมโรค","2023-11-17T00:00:00",2,8.5,11.6,25.8,39.8],
    [4521,"FF1721AC76217484","กองดิจิทัลเพื่อการควบคุมโรค","2023-11-17T00:00:00",3,6.4,8.9,25.5,38.1],
    [4522,"FF1721AC76217484","กองดิจิทัลเพื่อการควบคุมโรค","2023-11-17T00:00:00",4,1.5,3.5,25,34.5],
    [4523,"FF1721AC76217484","กองดิจิทัลเพื่อการควบคุมโรค","2023-11-17T00:00:00",5,1.2,2.4,24.4,33.7],
    [4524,"FF1721AC76217484","กองดิจิทัลเพื่อการควบคุมโรค","2023-11-17T00:00:00",6,2.2,1.9,24.3,33.8],
    [4525,"FF1721AC76217484","กองดิจิทัลเพื่อการควบคุมโรค","2023-11-17T00:00:00",7,2.3,3.5,24.6,33.7],
    [4526,"FF1721AC76217484","กองดิจิทัลเพื่อการควบคุมโรค","2023-11-17T00:00:00",8,3.6,5.8,25.6,32.8],
    [4527,"FF1721AC76217484","กองดิจิทัลเพื่อการควบคุมโรค","2023-11-17T00:00:00",10,3.3,5.2,28.7,27.6],
    [4528,"FF1721AC76217484","กองดิจิทัลเพื่อการควบคุมโรค","2023-11-17T00:00:00",11,4.5,5.7,30,26.7],
    [4529,"FF1721AC76217484","กองดิจิทัลเพื่อการควบคุมโรค","2023-11-17T00:00:00",12,9.7,11.4,29.2,27.2],
    [4530,"FF1721AC76217484","กองดิจิทัลเพื่อการควบคุมโรค","2023-11-17T00:00:00",13,12.3,16.9,28.1,27.6],
    [4531,"FF1721AC76217484","กองดิจิทัลเพื่อการควบคุมโรค","2023-11-17T00:00:00",14,16.5,22.1,28.1,27.3],
    [4532,"FF1721AC76217484","กองดิจิทัลเพื่อการควบคุมโรค","2023-11-17T00:00:00",15,18.4,23.1,27.8,27.9],
    [4533,"FF1721AC76217484","กองดิจิทัลเพื่อการควบคุมโรค","2023-11-17T00:00:00",16,16.1,22.8,27.8,28.2],
    [4534,"FF1721AC76217484","กองดิจิทัลเพื่อการควบคุมโรค","2023-11-17T00:00:00",17,19,24.9,26.3,29.5],
    [4535,"FF1721AC76217484","กองดิจิทัลเพื่อการควบคุมโรค","2023-11-17T00:00:00",18,21.6,31.5,25.6,29.9],
    [4536,"FF1721AC76217484","กองดิจิทัลเพื่อการควบคุมโรค","2023-11-17T00:00:00",19,26.1,38.2,25.1,30.7],
    [4537,"FF1721AC76217484","กองดิจิทัลเพื่อการควบคุมโรค","2023-11-17T00:00:00",20,27.7,37,25,31.2],
    [4538,"FF1721AC76217484","กองดิจิทัลเพื่อการควบคุมโรค","2023-11-17T00:00:00",21,25.5,35.7,24.9,31.4],
    [4539,"FF1721AC76217484","กองดิจิทัลเพื่อการควบคุมโรค","2023-11-17T00:00:00",22,23,34.9,24.6,31.5],
    [4540,"FF1721AC76217484","กองดิจิทัลเพื่อการควบคุมโรค","2023-11-17T00:00:00",23,24.2,34.7,23.9,32],
    [4541,"FF1721AC76217484","กองดิจิทัลเพื่อการควบคุมโรค","2023-11-18T00:00:00",0,26.6,38.3,23.4,32.7],
    [4542,"FF1721AC76217484","กองดิจิทัลเพื่อการควบคุมโรค","2023-11-18T00:00:00",1,25.5,38.4,23.1,32.6],
    [4543,"FF1721AC76217484","กองดิจิทัลเพื่อการควบคุมโรค","2023-11-18T00:00:00",2,21.9,34.9,22.6,32.6],
    [4544,"FF1721AC76217484","กองดิจิทัลเพื่อการควบคุมโรค","2023-11-18T00:00:00",3,24.7,34.2,22.3,32.8],
    [4545,"FF1721AC76217484","กองดิจิทัลเพื่อการควบคุมโรค","2023-11-18T00:00:00",4,23.9,36.4,22.3,32.9],
    [4546,"FF1721AC76217484","กองดิจิทัลเพื่อการควบคุมโรค","2023-11-18T00:00:00",5,26.3,34.4,21.9,33.3],
    [4547,"FF1721AC76217484","กองดิจิทัลเพื่อการควบคุมโรค","2023-11-18T00:00:00",6,25.5,40.7,21.3,34],
    [4548,"FF1721AC76217484","กองดิจิทัลเพื่อการควบคุมโรค","2023-11-18T00:00:00",7,25.8,38.7,21.6,33.1],
    [4549,"FF1721AC76217484","กองดิจิทัลเพื่อการควบคุมโรค","2023-11-18T00:00:00",8,38.1,39.6,22.8,31.5],
    [4550,"FF1721AC76217484","กองดิจิทัลเพื่อการควบคุมโรค","2023-11-18T00:00:00",9,24.9,35.6,23.6,30.1],
    [4551,"FF1721AC76217484","กองดิจิทัลเพื่อการควบคุมโรค","2023-11-18T00:00:00",10,16.7,23.9,26.1,24.4],
    [4552,"FF1721AC76217484","กองดิจิทัลเพื่อการควบคุมโรค","2023-11-18T00:00:00",11,11,15.1,28.2,19.5],
    [4553,"FF1721AC76217484","กองดิจิทัลเพื่อการควบคุมโรค","2023-11-18T00:00:00",12,10.7,16.4,28.2,19.7],
    [4554,"FF1721AC76217484","กองดิจิทัลเพื่อการควบคุมโรค","2023-11-18T00:00:00",13,12.7,19.5,28.2,21.4],
    [4555,"FF1721AC76217484","กองดิจิทัลเพื่อการควบคุมโรค","2023-11-18T00:00:00",14,14.1,20.7,27.8,23.1],
    [4556,"FF1721AC76217484","กองดิจิทัลเพื่อการควบคุมโรค","2023-11-18T00:00:00",15,16.3,25.7,27.3,23.7],
    [4557,"FF1721AC76217484","กองดิจิทัลเพื่อการควบคุมโรค","2023-11-18T00:00:00",16,16.2,27.2,26.9,24],
    [4558,"FF1721AC76217484","กองดิจิทัลเพื่อการควบคุมโรค","2023-11-18T00:00:00",17,15.8,27.4,25.8,25.1],
    [4559,"FF1721AC76217484","กองดิจิทัลเพื่อการควบคุมโรค","2023-11-18T00:00:00",18,24.6,39.3,25.2,26.7],
    [4560,"FF1721AC76217484","กองดิจิทัลเพื่อการควบคุมโรค","2023-11-18T00:00:00",19,29,43.2,24.6,27.7],
    [4561,"FF1721AC76217484","กองดิจิทัลเพื่อการควบคุมโรค","2023-11-18T00:00:00",20,37.3,59.8,24,29.2],
    [4562,"FF1721AC76217484","กองดิจิทัลเพื่อการควบคุมโรค","2023-11-18T00:00:00",21,32.2,53.3,24.3,28.9],
    [4563,"FF1721AC76217484","กองดิจิทัลเพื่อการควบคุมโรค","2023-11-18T00:00:00",22,31.9,52.5,24.2,29.2],
    [4564,"FF1721AC76217484","กองดิจิทัลเพื่อการควบคุมโรค","2023-11-18T00:00:00",23,32.5,52.4,23.3,30.4],
    [4565,"FF1721AC76217484","กองดิจิทัลเพื่อการควบคุมโรค","2023-11-19T00:00:00",0,32,55.3,23.7,29.8],
    [4566,"FF1721AC76217484","กองดิจิทัลเพื่อการควบคุมโรค","2023-11-19T00:00:00",1,30.8,48.4,22.6,31.9],
    [4567,"FF1721AC76217484","กองดิจิทัลเพื่อการควบคุมโรค","2023-11-19T00:00:00",2,33.2,52.1,22.3,32.5],
    [4568,"FF1721AC76217484","กองดิจิทัลเพื่อการควบคุมโรค","2023-11-19T00:00:00",3,32.9,54.4,21.9,33.1],
    [4569,"FF1721AC76217484","กองดิจิทัลเพื่อการควบคุมโรค","2023-11-19T00:00:00",4,34.3,59.4,21.4,33.6],
    [4570,"FF1721AC76217484","กองดิจิทัลเพื่อการควบคุมโรค","2023-11-19T00:00:00",5,32.3,52.2,21.1,34.1],
    [4571,"FF1721AC76217484","กองดิจิทัลเพื่อการควบคุมโรค","2023-11-19T00:00:00",6,32.5,52.5,20.6,35],
    [4572,"FF1721AC76217484","กองดิจิทัลเพื่อการควบคุมโรค","2023-11-19T00:00:00",7,31.7,50.8,21.5,33.5],
    [4573,"FF1721AC76217484","กองดิจิทัลเพื่อการควบคุมโรค","2023-11-19T00:00:00",8,32.1,51.7,22.3,32.5],
    [4574,"FF1721AC76217484","กองดิจิทัลเพื่อการควบคุมโรค","2023-11-19T00:00:00",9,27.3,40.4,25.4,28.2],
    [4575,"FF1721AC76217484","กองดิจิทัลเพื่อการควบคุมโรค","2023-11-19T00:00:00",10,24,36.4,27.6,25.6],
    [4576,"FF1721AC76217484","กองดิจิทัลเพื่อการควบคุมโรค","2023-11-19T00:00:00",11,25.6,38.7,28,25.1],
    [4577,"FF1721AC76217484","กองดิจิทัลเพื่อการควบคุมโรค","2023-11-19T00:00:00",12,25.7,39.5,28.7,24.3],
    [4578,"FF1721AC76217484","กองดิจิทัลเพื่อการควบคุมโรค","2023-11-19T00:00:00",13,26.9,39.6,27.3,26.3],
    [4579,"FF1721AC76217484","กองดิจิทัลเพื่อการควบคุมโรค","2023-11-19T00:00:00",14,22.8,35.5,27.5,24.5],
    [4580,"FF1721AC76217484","กองดิจิทัลเพื่อการควบคุมโรค","2023-11-19T00:00:00",15,19.5,30.5,27.1,24.7],
    [4581,"FF1721AC76217484","กองดิจิทัลเพื่อการควบคุมโรค","2023-11-19T00:00:00",16,23.8,36.9,27.1,24.3],
    [4582,"FF1721AC76217484","กองดิจิทัลเพื่อการควบคุมโรค","2023-11-19T00:00:00",17,23,33.9,25.8,26.5],
    [4583,"FF1721AC76217484","กองดิจิทัลเพื่อการควบคุมโรค","2023-11-19T00:00:00",18,26.4,40.2,25.1,27.5],
    [4584,"FF1721AC76217484","กองดิจิทัลเพื่อการควบคุมโรค","2023-11-19T00:00:00",19,34.8,55.8,24.3,29.9],
    [4585,"FF1721AC76217484","กองดิจิทัลเพื่อการควบคุมโรค","2023-11-19T00:00:00",20,37.8,62.3,23.7,31.1],
    [4586,"FF1721AC76217484","กองดิจิทัลเพื่อการควบคุมโรค","2023-11-19T00:00:00",21,40.2,66.1,23.4,31.8],
    [4587,"FF1721AC76217484","กองดิจิทัลเพื่อการควบคุมโรค","2023-11-19T00:00:00",22,37.8,63.5,23.5,31.2],
    [4588,"FF1721AC76217484","กองดิจิทัลเพื่อการควบคุมโรค","2023-11-19T00:00:00",23,38.5,63.4,22.4,33],
    [4589,"FF1721AC76217467","ด่านฯท่าเทียบเรือเทศบาลเมืองนครพนม","2023-11-20T00:00:00",9,35.9,49.3,22.2,33.6],
    [4590,"FF1721AC76217467","ด่านฯท่าเทียบเรือเทศบาลเมืองนครพนม","2023-11-20T00:00:00",10,34.5,47.5,22,34.6],
    [4591,"FF1721AC76217467","ด่านฯท่าเทียบเรือเทศบาลเมืองนครพนม","2023-11-20T00:00:00",11,33.7,44.1,21.6,34.4],
    [4592,"FF1721AC76217484","กองดิจิทัลเพื่อการควบคุมโรค","2023-11-20T00:00:00",0,36,58.5,22.3,32.9],
    [4593,"FF1721AC76217484","กองดิจิทัลเพื่อการควบคุมโรค","2023-11-20T00:00:00",1,32.1,53.9,21.9,32.8],
    [4594,"FF1721AC76217484","กองดิจิทัลเพื่อการควบคุมโรค","2023-11-20T00:00:00",2,33.1,53.9,21.1,33.7],
    [4595,"FF1721AC76217484","กองดิจิทัลเพื่อการควบคุมโรค","2023-11-20T00:00:00",3,37,61,20.6,35.6],
    [4596,"FF1721AC76217484","กองดิจิทัลเพื่อการควบคุมโรค","2023-11-20T00:00:00",4,40.4,68.6,20.3,36.4],
    [4597,"FF1721AC76217484","กองดิจิทัลเพื่อการควบคุมโรค","2023-11-20T00:00:00",5,37.6,61.1,19.9,36.7],
    [4598,"FF1721AC76217484","กองดิจิทัลเพื่อการควบคุมโรค","2023-11-20T00:00:00",6,33.5,56.6,20.3,36.1],
    [4599,"FF1721AC76217484","กองดิจิทัลเพื่อการควบคุมโรค","2023-11-20T00:00:00",7,33.3,51.1,21.1,34.9],
    [4600,"FF1721AC76217484","กองดิจิทัลเพื่อการควบคุมโรค","2023-11-20T00:00:00",8,31.4,50.7,23.2,32.3],
    [4601,"FF1721AC76217484","กองดิจิทัลเพื่อการควบคุมโรค","2023-11-20T00:00:00",9,27.3,37,25.2,29.5],
    [4602,"FF1721AC76217484","กองดิจิทัลเพื่อการควบคุมโรค","2023-11-20T00:00:00",10,23.5,39.2,28.3,26.3],
    [4603,"FF1721AC76217484","กองดิจิทัลเพื่อการควบคุมโรค","2023-11-20T00:00:00",11,23,31,29.9,24.3],
    [4604,"FF1721AC76217484","กองดิจิทัลเพื่อการควบคุมโรค","2023-11-20T00:00:00",12,23.3,38.2,29.3,25],
    [4605,"FF1721AC76217484","กองดิจิทัลเพื่อการควบคุมโรค","2023-11-20T00:00:00",13,21.4,30.3,29.9,24.4],
    [4606,"FF1721AC76217484","กองดิจิทัลเพื่อการควบคุมโรค","2023-11-20T00:00:00",14,21.2,29.4,30.7,23.4],
    [4607,"FF1721AC76217484","กองดิจิทัลเพื่อการควบคุมโรค","2023-11-20T00:00:00",15,24.6,37.4,29.6,25],
    [4608,"FF1721AC76217484","กองดิจิทัลเพื่อการควบคุมโรค","2023-11-20T00:00:00",16,27.3,42.9,30,24.8],
    [4609,"FF1721AC76217484","กองดิจิทัลเพื่อการควบคุมโรค","2023-11-20T00:00:00",17,26.8,43.1,28,26.5],
    [4610,"FF1721AC76217484","กองดิจิทัลเพื่อการควบคุมโรค","2023-11-20T00:00:00",18,26.5,42.5,27.1,28.6],
    [4611,"FF1721AC76217484","กองดิจิทัลเพื่อการควบคุมโรค","2023-11-20T00:00:00",19,29.2,45.7,26.8,29],
    [4612,"FF1721AC76217484","กองดิจิทัลเพื่อการควบคุมโรค","2023-11-20T00:00:00",20,34.1,55.4,26.3,29.1],
    [4613,"FF1721AC76217484","กองดิจิทัลเพื่อการควบคุมโรค","2023-11-20T00:00:00",21,40.8,64.9,25,31.3],
    [4614,"FF1721AC76217484","กองดิจิทัลเพื่อการควบคุมโรค","2023-11-20T00:00:00",22,40.9,67.3,24.6,32.4],
    [4615,"FF1721AC76217484","กองดิจิทัลเพื่อการควบคุมโรค","2023-11-20T00:00:00",23,38.6,60.6,23.9,33.2],
    [4616,"FF1721AC76217486","ด่านฯเชียงคาน จ.เลย","2023-11-20T00:00:00",11,32.7,42.5,21.8,34.2],
    [4617,"FF1721AC76217486","ด่านฯเชียงคาน จ.เลย","2023-11-20T00:00:00",12,32.8,44.1,21.8,35.1],
    [4618,"FF1721AC76217486","ด่านฯเชียงคาน จ.เลย","2023-11-20T00:00:00",13,32.5,43.8,21.6,34.9],
    [4619,"FF1721AC76217486","ด่านฯเชียงคาน จ.เลย","2023-11-20T00:00:00",14,32.5,42.6,21.4,35.8],
    [4620,"FF1721AC76217486","ด่านฯเชียงคาน จ.เลย","2023-11-20T00:00:00",15,32,42.2,21.3,35.6],
    [4621,"FF1721AC76217486","ด่านฯเชียงคาน จ.เลย","2023-11-20T00:00:00",16,31.4,42.1,21.5,34.1],
    [4622,"FF1721AC76217484","กองดิจิทัลเพื่อการควบคุมโรค","2023-11-21T00:00:00",0,43.7,70,23.3,34.8],
    [4623,"FF1721AC76217484","กองดิจิทัลเพื่อการควบคุมโรค","2023-11-21T00:00:00",1,45.3,74.7,22.6,35.9],
    [4624,"FF1721AC76217484","กองดิจิทัลเพื่อการควบคุมโรค","2023-11-21T00:00:00",2,44.4,70.1,21.9,37.6],
    [4625,"FF1721AC76217484","กองดิจิทัลเพื่อการควบคุมโรค","2023-11-21T00:00:00",3,43.8,69.1,21.5,38],
    [4626,"FF1721AC76217484","กองดิจิทัลเพื่อการควบคุมโรค","2023-11-21T00:00:00",4,44,72.3,21.3,38.3],
    [4627,"FF1721AC76217484","กองดิจิทัลเพื่อการควบคุมโรค","2023-11-21T00:00:00",5,42.8,70.9,21,38.1],
    [4628,"FF1721AC76217484","กองดิจิทัลเพื่อการควบคุมโรค","2023-11-21T00:00:00",6,40.9,67.7,21,37.6],
    [4629,"FF1721AC76217484","กองดิจิทัลเพื่อการควบคุมโรค","2023-11-21T00:00:00",7,38,63.8,21.9,35.9],
    [4630,"FF1721AC76217484","กองดิจิทัลเพื่อการควบคุมโรค","2023-11-21T00:00:00",8,35.3,57.1,24.2,33.1],
    [4631,"FF1721AC76217484","กองดิจิทัลเพื่อการควบคุมโรค","2023-11-21T00:00:00",9,32.8,50.3,26.6,30.1],
    [4632,"FF1721AC76217484","กองดิจิทัลเพื่อการควบคุมโรค","2023-11-21T00:00:00",10,24.2,34.4,29.6,26.3],
    [4633,"FF1721AC76217484","กองดิจิทัลเพื่อการควบคุมโรค","2023-11-21T00:00:00",11,21.2,31.8,31.1,24],
    [4634,"FF1721AC76217484","กองดิจิทัลเพื่อการควบคุมโรค","2023-11-21T00:00:00",12,23.7,32.7,31.3,24.4],
    [4635,"FF1721AC76217484","กองดิจิทัลเพื่อการควบคุมโรค","2023-11-21T00:00:00",13,28.2,38.8,31.9,24.2],
    [4636,"FF1721AC76217484","กองดิจิทัลเพื่อการควบคุมโรค","2023-11-21T00:00:00",14,28,40.8,31.9,24.2],
    [4637,"FF1721AC76217484","กองดิจิทัลเพื่อการควบคุมโรค","2023-11-21T00:00:00",15,28.2,42.2,30.1,25.9],
    [4638,"FF1721AC76217484","กองดิจิทัลเพื่อการควบคุมโรค","2023-11-21T00:00:00",16,25.5,38.8,29.4,26.7],
    [4639,"FF1721AC76217484","กองดิจิทัลเพื่อการควบคุมโรค","2023-11-21T00:00:00",17,28.4,41.3,28,28.3],
    [4640,"FF1721AC76217484","กองดิจิทัลเพื่อการควบคุมโรค","2023-11-21T00:00:00",18,29.4,46.4,27,30.7],
    [4641,"FF1721AC76217484","กองดิจิทัลเพื่อการควบคุมโรค","2023-11-21T00:00:00",19,34.4,54.7,26.8,31.9],
    [4642,"FF1721AC76217484","กองดิจิทัลเพื่อการควบคุมโรค","2023-11-21T00:00:00",20,37,60.8,26.2,32.6],
    [4643,"FF1721AC76217484","กองดิจิทัลเพื่อการควบคุมโรค","2023-11-21T00:00:00",21,39.2,61.7,25.7,33.5],
    [4644,"FF1721AC76217484","กองดิจิทัลเพื่อการควบคุมโรค","2023-11-21T00:00:00",22,40.5,65,25.3,34.5],
    [4645,"FF1721AC76217484","กองดิจิทัลเพื่อการควบคุมโรค","2023-11-21T00:00:00",23,42.5,69.1,25.2,34.9],
    [4646,"FF1721AC76217484","กองดิจิทัลเพื่อการควบคุมโรค","2023-11-22T00:00:00",0,45.8,73.6,24.3,36.5],
    [4647,"FF1721AC76217484","กองดิจิทัลเพื่อการควบคุมโรค","2023-11-22T00:00:00",1,49.6,79.6,23.9,37.6],
    [4648,"FF1721AC76217484","กองดิจิทัลเพื่อการควบคุมโรค","2023-11-22T00:00:00",2,52.1,84.8,23.1,39.3],
    [4649,"FF1721AC76217484","กองดิจิทัลเพื่อการควบคุมโรค","2023-11-22T00:00:00",3,51.8,84.3,22.8,39.6],
    [4650,"FF1721AC76217484","กองดิจิทัลเพื่อการควบคุมโรค","2023-11-22T00:00:00",4,55.5,88,22.8,39.5],
    [4651,"FF1721AC76217484","กองดิจิทัลเพื่อการควบคุมโรค","2023-11-22T00:00:00",5,54.4,84.9,22.7,39.5],
    [4652,"FF1721AC76217484","กองดิจิทัลเพื่อการควบคุมโรค","2023-11-22T00:00:00",6,53.1,84.7,22.9,39],
    [4653,"FF1721AC76217484","กองดิจิทัลเพื่อการควบคุมโรค","2023-11-22T00:00:00",7,49.1,80.3,23.4,37.7],
    [4654,"FF1721AC76217484","กองดิจิทัลเพื่อการควบคุมโรค","2023-11-22T00:00:00",8,41,67.1,26,33.7],
    [4655,"FF1721AC76217484","กองดิจิทัลเพื่อการควบคุมโรค","2023-11-22T00:00:00",9,42.9,69.7,27.1,32.8],
    [4656,"FF1721AC76217484","กองดิจิทัลเพื่อการควบคุมโรค","2023-11-22T00:00:00",10,36.6,57.9,28.7,30],
    [4657,"FF1721AC76217484","กองดิจิทัลเพื่อการควบคุมโรค","2023-11-22T00:00:00",11,39.2,62.7,31.2,27.4],
    [4658,"FF1721AC76217484","กองดิจิทัลเพื่อการควบคุมโรค","2023-11-22T00:00:00",12,37.8,60.6,32.6,25.5],
    [4659,"FF1721AC76217484","กองดิจิทัลเพื่อการควบคุมโรค","2023-11-22T00:00:00",13,36.2,58.4,33.4,24.7],
    [4660,"FF1721AC76217484","กองดิจิทัลเพื่อการควบคุมโรค","2023-11-22T00:00:00",14,37.9,60.6,31.4,26.5],
    [4661,"FF1721AC76217484","กองดิจิทัลเพื่อการควบคุมโรค","2023-11-22T00:00:00",15,35.8,52.5,32,25.5],
    [4662,"FF1721AC76217484","กองดิจิทัลเพื่อการควบคุมโรค","2023-11-22T00:00:00",16,31,47,31.3,26.1],
    [4663,"FF1721AC76217484","กองดิจิทัลเพื่อการควบคุมโรค","2023-11-22T00:00:00",17,34.3,55.4,28.5,30.1],
    [4664,"FF1721AC76217484","กองดิจิทัลเพื่อการควบคุมโรค","2023-11-22T00:00:00",18,37.6,61.4,27.4,31.4],
    [4665,"FF1721AC76217484","กองดิจิทัลเพื่อการควบคุมโรค","2023-11-22T00:00:00",19,38.5,61.5,26.9,32],
    [4666,"FF1721AC76217484","กองดิจิทัลเพื่อการควบคุมโรค","2023-11-22T00:00:00",20,41.2,66.6,26.5,32.6],
    [4667,"FF1721AC76217484","กองดิจิทัลเพื่อการควบคุมโรค","2023-11-22T00:00:00",21,40.5,62.5,26,32.9],
    [4668,"FF1721AC76217484","กองดิจิทัลเพื่อการควบคุมโรค","2023-11-22T00:00:00",22,44,69.8,26,33.2],
    [4669,"FF1721AC76217484","กองดิจิทัลเพื่อการควบคุมโรค","2023-11-22T00:00:00",23,51.3,83,25.5,34.8],
    [4670,"FF1721AC76217462","ด่านฯสะพานมิตรภาพ 3 นครพนม","2023-11-23T00:00:00",10,36,56,20.9,37.5],
    [4671,"FF1721AC76217473","ด่านฯสถานีรถไฟหนองคาย","2023-11-23T00:00:00",17,25.6,32.6,23.1,33.6],
    [4672,"FF1721AC76217473","ด่านฯสถานีรถไฟหนองคาย","2023-11-23T00:00:00",18,24.6,33.7,23.5,33.7],
    [4673,"FF1721AC76217473","ด่านฯสถานีรถไฟหนองคาย","2023-11-23T00:00:00",19,25.4,33.6,23.5,33.7],
    [4674,"FF1721AC76217473","ด่านฯสถานีรถไฟหนองคาย","2023-11-23T00:00:00",20,22.5,31.5,24.6,32.6],
    [4675,"FF1721AC76217473","ด่านฯสถานีรถไฟหนองคาย","2023-11-23T00:00:00",21,25.6,32.2,25.7,31.4],
    [4676,"FF1721AC76217473","ด่านฯสถานีรถไฟหนองคาย","2023-11-23T00:00:00",22,23.1,31.8,26,31],
    [4677,"FF1721AC76217473","ด่านฯสถานีรถไฟหนองคาย","2023-11-23T00:00:00",23,23.8,33,26.1,31],
    [4678,"FF1721AC76217475","ด่านฯท่าอากาศยานอุดรธานี","2023-11-23T00:00:00",8,41,64,21.5,35],
    [4679,"FF1721AC76217475","ด่านฯท่าอากาศยานอุดรธานี","2023-11-23T00:00:00",9,39.6,56.8,21.1,36.4],
    [4680,"FF1721AC76217475","ด่านฯท่าอากาศยานอุดรธานี","2023-11-23T00:00:00",10,40.5,58.7,22,36.6],
    [4681,"FF1721AC76217475","ด่านฯท่าอากาศยานอุดรธานี","2023-11-23T00:00:00",11,34.5,47.8,22.5,34.5],
    [4682,"FF1721AC76217475","ด่านฯท่าอากาศยานอุดรธานี","2023-11-23T00:00:00",12,30.9,39.9,22.2,34.5],
    [4683,"FF1721AC76217475","ด่านฯท่าอากาศยานอุดรธานี","2023-11-23T00:00:00",13,28.2,34,22.5,34],
    [4684,"FF1721AC76217475","ด่านฯท่าอากาศยานอุดรธานี","2023-11-23T00:00:00",14,28.8,36.6,22.3,34.1],
    [4685,"FF1721AC76217475","ด่านฯท่าอากาศยานอุดรธานี","2023-11-23T00:00:00",15,29.4,36.7,22.2,34.7],
    [4686,"FF1721AC76217478","ด่านฯบึงกาฬ","2023-11-23T00:00:00",11,35,46,20.8,37],
    [4687,"FF1721AC76217478","ด่านฯบึงกาฬ","2023-11-23T00:00:00",13,23.5,29.5,23.3,33.3],
    [4688,"FF1721AC76217478","ด่านฯบึงกาฬ","2023-11-23T00:00:00",15,27,30.7,23.2,34],
    [4689,"FF1721AC76217484","กองดิจิทัลเพื่อการควบคุมโรค","2023-11-23T00:00:00",0,54.7,86.9,24.8,36],
    [4690,"FF1721AC76217484","กองดิจิทัลเพื่อการควบคุมโรค","2023-11-23T00:00:00",1,52.2,83.9,24.5,35.9],
    [4691,"FF1721AC76217484","กองดิจิทัลเพื่อการควบคุมโรค","2023-11-23T00:00:00",2,49.8,81.2,24.4,35.8],
    [4692,"FF1721AC76217484","กองดิจิทัลเพื่อการควบคุมโรค","2023-11-23T00:00:00",3,46.3,73.7,23.7,36.4],
    [4693,"FF1721AC76217484","กองดิจิทัลเพื่อการควบคุมโรค","2023-11-23T00:00:00",4,40.7,66.1,24.2,35.5],
    [4694,"FF1721AC76217484","กองดิจิทัลเพื่อการควบคุมโรค","2023-11-23T00:00:00",5,39.4,62.6,23.3,36.5],
    [4695,"FF1721AC76217484","กองดิจิทัลเพื่อการควบคุมโรค","2023-11-23T00:00:00",6,40.7,67.7,22.9,37.1],
    [4696,"FF1721AC76217484","กองดิจิทัลเพื่อการควบคุมโรค","2023-11-23T00:00:00",7,44.8,72.8,23.4,36.8],
    [4697,"FF1721AC76217484","กองดิจิทัลเพื่อการควบคุมโรค","2023-11-23T00:00:00",8,38.1,61.5,25.6,32.6],
    [4698,"FF1721AC76217484","กองดิจิทัลเพื่อการควบคุมโรค","2023-11-23T00:00:00",9,31.1,46.4,27.9,29.3],
    [4699,"FF1721AC76217484","กองดิจิทัลเพื่อการควบคุมโรค","2023-11-23T00:00:00",10,25.1,38.6,30.6,25.5],
    [4700,"FF1721AC76217484","กองดิจิทัลเพื่อการควบคุมโรค","2023-11-23T00:00:00",11,16.1,22.1,32.7,22.6],
    [4701,"FF1721AC76217484","กองดิจิทัลเพื่อการควบคุมโรค","2023-11-23T00:00:00",12,12.7,19.4,33.3,21.5],
    [4702,"FF1721AC76217484","กองดิจิทัลเพื่อการควบคุมโรค","2023-11-23T00:00:00",13,14.6,19.7,32.7,22],
    [4703,"FF1721AC76217484","กองดิจิทัลเพื่อการควบคุมโรค","2023-11-23T00:00:00",14,15.6,23,32.9,22.5],
    [4704,"FF1721AC76217484","กองดิจิทัลเพื่อการควบคุมโรค","2023-11-23T00:00:00",15,16.5,25.2,32.4,23.3],
    [4705,"FF1721AC76217484","กองดิจิทัลเพื่อการควบคุมโรค","2023-11-23T00:00:00",16,12.8,20.6,32.5,23],
    [4706,"FF1721AC76217484","กองดิจิทัลเพื่อการควบคุมโรค","2023-11-23T00:00:00",17,16.4,22.2,30.5,25.4],
    [4707,"FF1721AC76217484","กองดิจิทัลเพื่อการควบคุมโรค","2023-11-23T00:00:00",18,20.2,31.6,28.8,28.1],
    [4708,"FF1721AC76217484","กองดิจิทัลเพื่อการควบคุมโรค","2023-11-23T00:00:00",19,24.6,39.9,28.8,28.9],
    [4709,"FF1721AC76217484","กองดิจิทัลเพื่อการควบคุมโรค","2023-11-23T00:00:00",20,33.7,53.1,28,30.6],
    [4710,"FF1721AC76217484","กองดิจิทัลเพื่อการควบคุมโรค","2023-11-23T00:00:00",21,34.5,53,28.3,30.6],
    [4711,"FF1721AC76217484","กองดิจิทัลเพื่อการควบคุมโรค","2023-11-23T00:00:00",22,35.8,56.7,27,33.4],
    [4712,"FF1721AC76217484","กองดิจิทัลเพื่อการควบคุมโรค","2023-11-23T00:00:00",23,39.9,65.5,26,36.2],
    [4713,"FF1721AC76217473","ด่านฯสถานีรถไฟหนองคาย","2023-11-24T00:00:00",0,27.5,38.4,26,31.2],
    [4714,"FF1721AC76217473","ด่านฯสถานีรถไฟหนองคาย","2023-11-24T00:00:00",1,32.2,44,26.1,31.5],
    [4715,"FF1721AC76217473","ด่านฯสถานีรถไฟหนองคาย","2023-11-24T00:00:00",2,34.7,48.4,26,31.5],
    [4716,"FF1721AC76217473","ด่านฯสถานีรถไฟหนองคาย","2023-11-24T00:00:00",3,36.2,49.9,26.1,31.7],
    [4717,"FF1721AC76217473","ด่านฯสถานีรถไฟหนองคาย","2023-11-24T00:00:00",4,35.3,49.3,26,32],
    [4718,"FF1721AC76217473","ด่านฯสถานีรถไฟหนองคาย","2023-11-24T00:00:00",5,32.7,48.2,26,32],
    [4719,"FF1721AC76217473","ด่านฯสถานีรถไฟหนองคาย","2023-11-24T00:00:00",6,30.2,40.4,26,32],
    [4720,"FF1721AC76217473","ด่านฯสถานีรถไฟหนองคาย","2023-11-24T00:00:00",7,30.6,40.7,26.2,31.8],
    [4721,"FF1721AC76217473","ด่านฯสถานีรถไฟหนองคาย","2023-11-24T00:00:00",8,26.6,35.3,26.6,31.3],
    [4722,"FF1721AC76217473","ด่านฯสถานีรถไฟหนองคาย","2023-11-24T00:00:00",9,24.2,30.5,26.9,30.5],
    [4723,"FF1721AC76217473","ด่านฯสถานีรถไฟหนองคาย","2023-11-24T00:00:00",10,21.9,28,24.7,33.1],
    [4724,"FF1721AC76217473","ด่านฯสถานีรถไฟหนองคาย","2023-11-24T00:00:00",11,21,26.4,26.1,31.4],
    [4725,"FF1721AC76217473","ด่านฯสถานีรถไฟหนองคาย","2023-11-24T00:00:00",12,24.4,37.8,24.4,33.7],
    [4726,"FF1721AC76217473","ด่านฯสถานีรถไฟหนองคาย","2023-11-24T00:00:00",13,29.4,37.4,23.6,35.4],
    [4727,"FF1721AC76217473","ด่านฯสถานีรถไฟหนองคาย","2023-11-24T00:00:00",14,22.9,25.8,21.7,35],
    [4728,"FF1721AC76217484","กองดิจิทัลเพื่อการควบคุมโรค","2023-11-24T00:00:00",0,43.7,70.4,25.2,37.5],
    [4729,"FF1721AC76217484","กองดิจิทัลเพื่อการควบคุมโรค","2023-11-24T00:00:00",1,44.8,71.4,24.9,37.5],
    [4730,"FF1721AC76217484","กองดิจิทัลเพื่อการควบคุมโรค","2023-11-24T00:00:00",2,39.4,63.1,24.6,36.6],
    [4731,"FF1721AC76217484","กองดิจิทัลเพื่อการควบคุมโรค","2023-11-24T00:00:00",3,32.2,55.1,23.9,37.2],
    [4732,"FF1721AC76217484","กองดิจิทัลเพื่อการควบคุมโรค","2023-11-24T00:00:00",4,29.9,44.3,23.9,36.5],
    [4733,"FF1721AC76217484","กองดิจิทัลเพื่อการควบคุมโรค","2023-11-24T00:00:00",5,29.5,44.2,23.7,36.9],
    [4734,"FF1721AC76217484","กองดิจิทัลเพื่อการควบคุมโรค","2023-11-24T00:00:00",6,31.1,49.5,23.1,38.3],
    [4735,"FF1721AC76217484","กองดิจิทัลเพื่อการควบคุมโรค","2023-11-24T00:00:00",7,29.8,43.1,23.7,38],
    [4736,"FF1721AC76217484","กองดิจิทัลเพื่อการควบคุมโรค","2023-11-24T00:00:00",8,26.2,40.3,25.4,35.8],
    [4737,"FF1721AC76217484","กองดิจิทัลเพื่อการควบคุมโรค","2023-11-24T00:00:00",9,17.3,25.1,28.4,31.6],
    [4738,"FF1721AC76217484","กองดิจิทัลเพื่อการควบคุมโรค","2023-11-24T00:00:00",10,14.5,22.6,30.3,28.9],
    [4739,"FF1721AC76217484","กองดิจิทัลเพื่อการควบคุมโรค","2023-11-24T00:00:00",11,15.7,22.9,32.3,26.7],
    [4740,"FF1721AC76217484","กองดิจิทัลเพื่อการควบคุมโรค","2023-11-24T00:00:00",12,18.2,26,31.6,27],
    [4741,"FF1721AC76217484","กองดิจิทัลเพื่อการควบคุมโรค","2023-11-24T00:00:00",13,17.8,24.4,31.8,26.4],
    [4742,"FF1721AC76217484","กองดิจิทัลเพื่อการควบคุมโรค","2023-11-24T00:00:00",14,8.6,10.5,32.6,24.5],
    [4743,"FF1721AC76217484","กองดิจิทัลเพื่อการควบคุมโรค","2023-11-24T00:00:00",15,10.3,15.1,31.5,25.9],
    [4744,"FF1721AC76217484","กองดิจิทัลเพื่อการควบคุมโรค","2023-11-24T00:00:00",16,10.4,13.7,31.2,26.7],
    [4745,"FF1721AC76217484","กองดิจิทัลเพื่อการควบคุมโรค","2023-11-24T00:00:00",17,9.9,13.6,29.8,28.3],
    [4746,"FF1721AC76217484","กองดิจิทัลเพื่อการควบคุมโรค","2023-11-24T00:00:00",18,10.1,16,29.2,28.9],
    [4747,"FF1721AC76217484","กองดิจิทัลเพื่อการควบคุมโรค","2023-11-24T00:00:00",19,11.4,15.3,28.3,30.4],
    [4748,"FF1721AC76217484","กองดิจิทัลเพื่อการควบคุมโรค","2023-11-24T00:00:00",20,13.4,18.5,27.8,30.8],
    [4749,"FF1721AC76217484","กองดิจิทัลเพื่อการควบคุมโรค","2023-11-24T00:00:00",21,18.1,26.5,27.4,31.4],
    [4750,"FF1721AC76217484","กองดิจิทัลเพื่อการควบคุมโรค","2023-11-24T00:00:00",22,20.9,31,27.3,32.1],
    [4751,"FF1721AC76217484","กองดิจิทัลเพื่อการควบคุมโรค","2023-11-24T00:00:00",23,13.5,19,27.3,30.6],
    [4752,"FF1721AC76217484","กองดิจิทัลเพื่อการควบคุมโรค","2023-11-25T00:00:00",0,12.1,16.9,26.8,31],
    [4753,"FF1721AC76217484","กองดิจิทัลเพื่อการควบคุมโรค","2023-11-25T00:00:00",1,13.3,17.7,26.3,32],
    [4754,"FF1721AC76217484","กองดิจิทัลเพื่อการควบคุมโรค","2023-11-25T00:00:00",2,14.4,17.2,25.6,33.3],
    [4755,"FF1721AC76217484","กองดิจิทัลเพื่อการควบคุมโรค","2023-11-25T00:00:00",3,22.3,29.8,24.2,35.9],
    [4756,"FF1721AC76217484","กองดิจิทัลเพื่อการควบคุมโรค","2023-11-25T00:00:00",4,22.1,31.4,24.1,35.8],
    [4757,"FF1721AC76217484","กองดิจิทัลเพื่อการควบคุมโรค","2023-11-25T00:00:00",5,21.3,30.5,23.8,36.2],
    [4758,"FF1721AC76217484","กองดิจิทัลเพื่อการควบคุมโรค","2023-11-25T00:00:00",6,22.7,32.7,23.1,37],
    [4759,"FF1721AC76217484","กองดิจิทัลเพื่อการควบคุมโรค","2023-11-25T00:00:00",7,24.8,35.5,23.3,34.8],
    [4760,"FF1721AC76217484","กองดิจิทัลเพื่อการควบคุมโรค","2023-11-25T00:00:00",8,21.3,29.4,24.8,32.1],
    [4761,"FF1721AC76217484","กองดิจิทัลเพื่อการควบคุมโรค","2023-11-25T00:00:00",9,17.7,27.8,26.2,30],
    [4762,"FF1721AC76217484","กองดิจิทัลเพื่อการควบคุมโรค","2023-11-25T00:00:00",10,18,24,29.5,25.3],
    [4763,"FF1721AC76217484","กองดิจิทัลเพื่อการควบคุมโรค","2023-11-25T00:00:00",11,17.9,25.5,30.8,24.6],
    [4764,"FF1721AC76217484","กองดิจิทัลเพื่อการควบคุมโรค","2023-11-25T00:00:00",12,17.4,25.3,31.7,23.3],
    [4765,"FF1721AC76217484","กองดิจิทัลเพื่อการควบคุมโรค","2023-11-25T00:00:00",13,20.8,32.7,31.3,23.6],
    [4766,"FF1721AC76217484","กองดิจิทัลเพื่อการควบคุมโรค","2023-11-25T00:00:00",14,22.6,30.1,30.2,24.7],
    [4767,"FF1721AC76217484","กองดิจิทัลเพื่อการควบคุมโรค","2023-11-25T00:00:00",15,20.6,29.8,29.9,25.3],
    [4768,"FF1721AC76217484","กองดิจิทัลเพื่อการควบคุมโรค","2023-11-25T00:00:00",16,23.1,35.7,29,26.8],
    [4769,"FF1721AC76217484","กองดิจิทัลเพื่อการควบคุมโรค","2023-11-25T00:00:00",17,27.6,41.8,29.1,27.1],
    [4770,"FF1721AC76217484","กองดิจิทัลเพื่อการควบคุมโรค","2023-11-25T00:00:00",18,24.8,32.6,28.9,28.3],
    [4771,"FF1721AC76217484","กองดิจิทัลเพื่อการควบคุมโรค","2023-11-25T00:00:00",19,21.5,31.7,28.4,28.7],
    [4772,"FF1721AC76217484","กองดิจิทัลเพื่อการควบคุมโรค","2023-11-25T00:00:00",20,23.6,36,27.9,29.8],
    [4773,"FF1721AC76217484","กองดิจิทัลเพื่อการควบคุมโรค","2023-11-25T00:00:00",21,28.3,41.5,27.4,30.8],
    [4774,"FF1721AC76217484","กองดิจิทัลเพื่อการควบคุมโรค","2023-11-25T00:00:00",22,30.3,50,26.7,31.8],
    [4775,"FF1721AC76217484","กองดิจิทัลเพื่อการควบคุมโรค","2023-11-25T00:00:00",23,34.9,55.6,26.3,31.5],
    [4776,"FF1721AC76217484","กองดิจิทัลเพื่อการควบคุมโรค","2023-11-26T00:00:00",0,36.8,57.9,26,31.8],
    [4777,"FF1721AC76217484","กองดิจิทัลเพื่อการควบคุมโรค","2023-11-26T00:00:00",1,37.2,59.8,25.4,33.2],
    [4778,"FF1721AC76217484","กองดิจิทัลเพื่อการควบคุมโรค","2023-11-26T00:00:00",2,40.7,64.9,24.9,34.8],
    [4779,"FF1721AC76217484","กองดิจิทัลเพื่อการควบคุมโรค","2023-11-26T00:00:00",3,41.2,62.2,24.7,34.5],
    [4780,"FF1721AC76217484","กองดิจิทัลเพื่อการควบคุมโรค","2023-11-26T00:00:00",4,42,69.3,24.3,35.3],
    [4781,"FF1721AC76217484","กองดิจิทัลเพื่อการควบคุมโรค","2023-11-26T00:00:00",5,43.6,68.6,23.9,36.1],
    [4782,"FF1721AC76217484","กองดิจิทัลเพื่อการควบคุมโรค","2023-11-26T00:00:00",6,42.7,67.9,23.7,36.5],
    [4783,"FF1721AC76217484","กองดิจิทัลเพื่อการควบคุมโรค","2023-11-26T00:00:00",7,41.4,67.7,24.7,34.4],
    [4784,"FF1721AC76217484","กองดิจิทัลเพื่อการควบคุมโรค","2023-11-26T00:00:00",8,38.5,61.2,25.8,33],
    [4785,"FF1721AC76217484","กองดิจิทัลเพื่อการควบคุมโรค","2023-11-26T00:00:00",9,28,43.8,28.5,29.1],
    [4786,"FF1721AC76217484","กองดิจิทัลเพื่อการควบคุมโรค","2023-11-26T00:00:00",10,18.5,27.7,31.6,25.1],
    [4787,"FF1721AC76217484","กองดิจิทัลเพื่อการควบคุมโรค","2023-11-26T00:00:00",11,23.3,31.4,31,26],
    [4788,"FF1721AC76217484","กองดิจิทัลเพื่อการควบคุมโรค","2023-11-26T00:00:00",12,24.8,36.7,31.6,26],
    [4789,"FF1721AC76217484","กองดิจิทัลเพื่อการควบคุมโรค","2023-11-26T00:00:00",13,17.6,25,30.4,28.3],
    [4790,"FF1721AC76217484","กองดิจิทัลเพื่อการควบคุมโรค","2023-11-26T00:00:00",14,16.5,24.6,29.8,28.9],
    [4791,"FF1721AC76217484","กองดิจิทัลเพื่อการควบคุมโรค","2023-11-26T00:00:00",15,15,22.9,30.5,27.9],
    [4792,"FF1721AC76217484","กองดิจิทัลเพื่อการควบคุมโรค","2023-11-26T00:00:00",16,17,24.4,30.3,28.3],
    [4793,"FF1721AC76217484","กองดิจิทัลเพื่อการควบคุมโรค","2023-11-26T00:00:00",17,15.4,21.6,29.5,29.1],
    [4794,"FF1721AC76217484","กองดิจิทัลเพื่อการควบคุมโรค","2023-11-26T00:00:00",18,15.2,21.5,29.2,30],
    [4795,"FF1721AC76217484","กองดิจิทัลเพื่อการควบคุมโรค","2023-11-26T00:00:00",19,26.8,36.2,28.7,31.5],
    [4796,"FF1721AC76217484","กองดิจิทัลเพื่อการควบคุมโรค","2023-11-26T00:00:00",20,34.8,56.6,27.3,36.3],
    [4797,"FF1721AC76217484","กองดิจิทัลเพื่อการควบคุมโรค","2023-11-26T00:00:00",21,33.7,53.4,27.4,36.1],
    [4798,"FF1721AC76217484","กองดิจิทัลเพื่อการควบคุมโรค","2023-11-26T00:00:00",22,35.5,57.8,27.1,35.9],
    [4799,"FF1721AC76217484","กองดิจิทัลเพื่อการควบคุมโรค","2023-11-26T00:00:00",23,40.6,66.1,26.7,35.9],
    [4800,"FF1721AC76217475","ด่านฯท่าอากาศยานอุดรธานี","2023-11-27T00:00:00",11,25.6,33.1,23.8,20.3],
    [4801,"FF1721AC76217475","ด่านฯท่าอากาศยานอุดรธานี","2023-11-27T00:00:00",14,23,36,29.2,21.5],
    [4802,"FF1721AC76217475","ด่านฯท่าอากาศยานอุดรธานี","2023-11-27T00:00:00",15,26.2,37.4,29.3,21.9],
    [4803,"FF1721AC76217475","ด่านฯท่าอากาศยานอุดรธานี","2023-11-27T00:00:00",16,28.7,37.9,28.4,23.1],
    [4804,"FF1721AC76217475","ด่านฯท่าอากาศยานอุดรธานี","2023-11-27T00:00:00",17,32.2,42.3,27.3,24.6],
    [4805,"FF1721AC76217475","ด่านฯท่าอากาศยานอุดรธานี","2023-11-27T00:00:00",18,35.4,50.1,26.3,26.3],
    [4806,"FF1721AC76217475","ด่านฯท่าอากาศยานอุดรธานี","2023-11-27T00:00:00",19,37.9,59.5,25.5,27.8],
    [4807,"FF1721AC76217475","ด่านฯท่าอากาศยานอุดรธานี","2023-11-27T00:00:00",20,41,61.4,24.1,30.4],
    [4808,"FF1721AC76217475","ด่านฯท่าอากาศยานอุดรธานี","2023-11-27T00:00:00",21,35.4,52.4,23.1,31],
    [4809,"FF1721AC76217475","ด่านฯท่าอากาศยานอุดรธานี","2023-11-27T00:00:00",22,34.5,48.8,22.4,31.8],
    [4810,"FF1721AC76217475","ด่านฯท่าอากาศยานอุดรธานี","2023-11-27T00:00:00",23,37,55.2,21.9,32.7],
    [4811,"FF1721AC76217484","กองดิจิทัลเพื่อการควบคุมโรค","2023-11-27T00:00:00",0,39.9,64.3,26.8,35.5],
    [4812,"FF1721AC76217484","กองดิจิทัลเพื่อการควบคุมโรค","2023-11-27T00:00:00",1,15.2,21.8,26.2,36.1],
    [4813,"FF1721AC76217484","กองดิจิทัลเพื่อการควบคุมโรค","2023-11-27T00:00:00",2,11.6,14.7,25.4,38.5],
    [4814,"FF1721AC76217484","กองดิจิทัลเพื่อการควบคุมโรค","2023-11-27T00:00:00",3,11.6,15.8,24.6,40],
    [4815,"FF1721AC76217484","กองดิจิทัลเพื่อการควบคุมโรค","2023-11-27T00:00:00",4,12.7,18.1,24.3,40.2],
    [4816,"FF1721AC76217484","กองดิจิทัลเพื่อการควบคุมโรค","2023-11-27T00:00:00",5,14.2,18.1,24.8,38.5],
    [4817,"FF1721AC76217484","กองดิจิทัลเพื่อการควบคุมโรค","2023-11-27T00:00:00",6,9,12.5,25.1,36.4],
    [4818,"FF1721AC76217484","กองดิจิทัลเพื่อการควบคุมโรค","2023-11-27T00:00:00",7,9.2,12.2,25.7,35.7],
    [4819,"FF1721AC76217484","กองดิจิทัลเพื่อการควบคุมโรค","2023-11-27T00:00:00",8,8.3,13.7,26.8,34.6],
    [4820,"FF1721AC76217484","กองดิจิทัลเพื่อการควบคุมโรค","2023-11-27T00:00:00",9,8.2,9.9,28.9,32.5],
    [4821,"FF1721AC76217484","กองดิจิทัลเพื่อการควบคุมโรค","2023-11-27T00:00:00",10,7.6,8.3,29.9,30.3],
    [4822,"FF1721AC76217484","กองดิจิทัลเพื่อการควบคุมโรค","2023-11-27T00:00:00",11,4.5,8,31.9,27.5],
    [4823,"FF1721AC76217484","กองดิจิทัลเพื่อการควบคุมโรค","2023-11-27T00:00:00",12,6.8,8.8,31.1,27.9],
    [4824,"FF1721AC76217484","กองดิจิทัลเพื่อการควบคุมโรค","2023-11-27T00:00:00",13,5.4,9.2,31.8,27],
    [4825,"FF1721AC76217484","กองดิจิทัลเพื่อการควบคุมโรค","2023-11-27T00:00:00",14,11.4,17.5,30,29.4],
    [4826,"FF1721AC76217484","กองดิจิทัลเพื่อการควบคุมโรค","2023-11-27T00:00:00",15,10.1,12.9,30.4,28.5],
    [4827,"FF1721AC76217484","กองดิจิทัลเพื่อการควบคุมโรค","2023-11-27T00:00:00",16,11.9,20.6,29.9,28.8],
    [4828,"FF1721AC76217484","กองดิจิทัลเพื่อการควบคุมโรค","2023-11-27T00:00:00",17,13.7,20.8,29.5,28.8],
    [4829,"FF1721AC76217484","กองดิจิทัลเพื่อการควบคุมโรค","2023-11-27T00:00:00",18,13.9,22.5,29.4,29],
    [4830,"FF1721AC76217484","กองดิจิทัลเพื่อการควบคุมโรค","2023-11-27T00:00:00",19,14.4,20.2,28.8,29.2],
    [4831,"FF1721AC76217484","กองดิจิทัลเพื่อการควบคุมโรค","2023-11-27T00:00:00",20,22.8,37.2,28.4,29.5],
    [4832,"FF1721AC76217484","กองดิจิทัลเพื่อการควบคุมโรค","2023-11-27T00:00:00",21,29.1,43.5,27.7,30.9],
    [4833,"FF1721AC76217484","กองดิจิทัลเพื่อการควบคุมโรค","2023-11-27T00:00:00",22,26.4,41.6,27,32],
    [4834,"FF1721AC76217484","กองดิจิทัลเพื่อการควบคุมโรค","2023-11-27T00:00:00",23,29.1,43,26.6,32.9],
    [4835,"FF1721AC76217471","ด่านฯสะพานมิตรภาพ 1 หนองคาย","2023-11-28T00:00:00",9,42.2,64.5,24.6,28.8],
    [4836,"FF1721AC76217471","ด่านฯสะพานมิตรภาพ 1 หนองคาย","2023-11-28T00:00:00",10,41,65.2,27.3,23.9],
    [4837,"FF1721AC76217471","ด่านฯสะพานมิตรภาพ 1 หนองคาย","2023-11-28T00:00:00",11,41.5,63.9,28.7,22.2],
    [4838,"FF1721AC76217471","ด่านฯสะพานมิตรภาพ 1 หนองคาย","2023-11-28T00:00:00",12,42.3,62.6,29.7,20.3],
    [4839,"FF1721AC76217471","ด่านฯสะพานมิตรภาพ 1 หนองคาย","2023-11-28T00:00:00",13,41.4,63,31.1,18.9],
    [4840,"FF1721AC76217471","ด่านฯสะพานมิตรภาพ 1 หนองคาย","2023-11-28T00:00:00",14,42.5,64.9,31.1,18.8],
    [4841,"FF1721AC76217471","ด่านฯสะพานมิตรภาพ 1 หนองคาย","2023-11-28T00:00:00",15,44,69.8,31,19.6],
    [4842,"FF1721AC76217471","ด่านฯสะพานมิตรภาพ 1 หนองคาย","2023-11-28T00:00:00",16,43.8,65.3,27.2,23.3],
    [4843,"FF1721AC76217471","ด่านฯสะพานมิตรภาพ 1 หนองคาย","2023-11-28T00:00:00",17,77.2,111.4,24.9,28.8],
    [4844,"FF1721AC76217471","ด่านฯสะพานมิตรภาพ 1 หนองคาย","2023-11-28T00:00:00",18,77.7,114.4,23.1,33.9],
    [4845,"FF1721AC76217471","ด่านฯสะพานมิตรภาพ 1 หนองคาย","2023-11-28T00:00:00",19,63.4,92.8,22.8,31.5],
    [4846,"FF1721AC76217471","ด่านฯสะพานมิตรภาพ 1 หนองคาย","2023-11-28T00:00:00",20,52.6,81.7,22.3,31.7],
    [4847,"FF1721AC76217471","ด่านฯสะพานมิตรภาพ 1 หนองคาย","2023-11-28T00:00:00",21,52.8,82.8,21.5,33.4],
    [4848,"FF1721AC76217471","ด่านฯสะพานมิตรภาพ 1 หนองคาย","2023-11-28T00:00:00",22,51,75.1,20.7,34.9],
    [4849,"FF1721AC76217471","ด่านฯสะพานมิตรภาพ 1 หนองคาย","2023-11-28T00:00:00",23,46,68.9,20,35.5],
    [4850,"FF1721AC76217473","ด่านฯสถานีรถไฟหนองคาย","2023-11-28T00:00:00",10,45.7,70.7,24.7,24.9],
    [4851,"FF1721AC76217473","ด่านฯสถานีรถไฟหนองคาย","2023-11-28T00:00:00",11,46.3,72.8,26.3,23.4],
    [4852,"FF1721AC76217473","ด่านฯสถานีรถไฟหนองคาย","2023-11-28T00:00:00",12,47.8,70.6,27.6,21.8],
    [4853,"FF1721AC76217473","ด่านฯสถานีรถไฟหนองคาย","2023-11-28T00:00:00",13,46.8,69.5,27.8,20.8],
    [4854,"FF1721AC76217473","ด่านฯสถานีรถไฟหนองคาย","2023-11-28T00:00:00",14,46.1,73.8,27.2,21.5],
    [4855,"FF1721AC76217473","ด่านฯสถานีรถไฟหนองคาย","2023-11-28T00:00:00",15,46.3,74.8,26.8,22.5],
    [4856,"FF1721AC76217473","ด่านฯสถานีรถไฟหนองคาย","2023-11-28T00:00:00",16,48.7,72.7,26,24],
    [4857,"FF1721AC76217473","ด่านฯสถานีรถไฟหนองคาย","2023-11-28T00:00:00",17,54.9,83.4,24.9,26.7],
    [4858,"FF1721AC76217473","ด่านฯสถานีรถไฟหนองคาย","2023-11-28T00:00:00",18,70.2,98.3,23.8,28.4],
    [4859,"FF1721AC76217473","ด่านฯสถานีรถไฟหนองคาย","2023-11-28T00:00:00",19,65.2,93.5,23,29.6],
    [4860,"FF1721AC76217473","ด่านฯสถานีรถไฟหนองคาย","2023-11-28T00:00:00",20,57.7,86.3,21.9,31.8],
    [4861,"FF1721AC76217473","ด่านฯสถานีรถไฟหนองคาย","2023-11-28T00:00:00",21,53.8,84,21,33.8],
    [4862,"FF1721AC76217473","ด่านฯสถานีรถไฟหนองคาย","2023-11-28T00:00:00",22,50.5,78.8,20.3,34.7],
    [4863,"FF1721AC76217473","ด่านฯสถานีรถไฟหนองคาย","2023-11-28T00:00:00",23,49.4,75.8,19.7,35.1],
    [4864,"FF1721AC76217475","ด่านฯท่าอากาศยานอุดรธานี","2023-11-28T00:00:00",0,38.1,57.8,21.7,33.6],
    [4865,"FF1721AC76217475","ด่านฯท่าอากาศยานอุดรธานี","2023-11-28T00:00:00",1,39.7,58.6,21.2,34.7],
    [4866,"FF1721AC76217475","ด่านฯท่าอากาศยานอุดรธานี","2023-11-28T00:00:00",2,41.9,63.7,20.6,36],
    [4867,"FF1721AC76217475","ด่านฯท่าอากาศยานอุดรธานี","2023-11-28T00:00:00",3,42.3,64.4,20.1,36.9],
    [4868,"FF1721AC76217475","ด่านฯท่าอากาศยานอุดรธานี","2023-11-28T00:00:00",4,42.1,67.1,19.4,38.4],
    [4869,"FF1721AC76217475","ด่านฯท่าอากาศยานอุดรธานี","2023-11-28T00:00:00",5,46.3,71.4,19,39.9],
    [4870,"FF1721AC76217475","ด่านฯท่าอากาศยานอุดรธานี","2023-11-28T00:00:00",6,48.6,77.2,19.1,40.2],
    [4871,"FF1721AC76217475","ด่านฯท่าอากาศยานอุดรธานี","2023-11-28T00:00:00",7,47.6,75.8,20.5,36],
    [4872,"FF1721AC76217475","ด่านฯท่าอากาศยานอุดรธานี","2023-11-28T00:00:00",8,48.3,72.2,22.2,31.2],
    [4873,"FF1721AC76217475","ด่านฯท่าอากาศยานอุดรธานี","2023-11-28T00:00:00",9,46.3,69.8,23.4,28.4],
    [4874,"FF1721AC76217475","ด่านฯท่าอากาศยานอุดรธานี","2023-11-28T00:00:00",10,44.1,68.6,24.9,25.4],
    [4875,"FF1721AC76217475","ด่านฯท่าอากาศยานอุดรธานี","2023-11-28T00:00:00",11,44.6,66.3,26.5,23.7],
    [4876,"FF1721AC76217475","ด่านฯท่าอากาศยานอุดรธานี","2023-11-28T00:00:00",12,42.8,65.3,27.3,22.2],
    [4877,"FF1721AC76217475","ด่านฯท่าอากาศยานอุดรธานี","2023-11-28T00:00:00",13,42.3,63.2,27.9,21.4],
    [4878,"FF1721AC76217475","ด่านฯท่าอากาศยานอุดรธานี","2023-11-28T00:00:00",14,41.6,60.9,28.7,20.9],
    [4879,"FF1721AC76217475","ด่านฯท่าอากาศยานอุดรธานี","2023-11-28T00:00:00",15,40.7,61.8,28.2,20.9],
    [4880,"FF1721AC76217475","ด่านฯท่าอากาศยานอุดรธานี","2023-11-28T00:00:00",16,41.8,60.4,27.4,21.7],
    [4881,"FF1721AC76217475","ด่านฯท่าอากาศยานอุดรธานี","2023-11-28T00:00:00",17,43.7,64.2,26.1,23.4],
    [4882,"FF1721AC76217475","ด่านฯท่าอากาศยานอุดรธานี","2023-11-28T00:00:00",18,52.3,77.1,25.2,26],
    [4883,"FF1721AC76217475","ด่านฯท่าอากาศยานอุดรธานี","2023-11-28T00:00:00",19,66.5,97.2,23.6,29.8],
    [4884,"FF1721AC76217475","ด่านฯท่าอากาศยานอุดรธานี","2023-11-28T00:00:00",20,65.3,93,22.7,31.8],
    [4885,"FF1721AC76217475","ด่านฯท่าอากาศยานอุดรธานี","2023-11-28T00:00:00",21,52.2,82.1,22.7,31.5],
    [4886,"FF1721AC76217475","ด่านฯท่าอากาศยานอุดรธานี","2023-11-28T00:00:00",22,50.5,78.2,21.8,33.3],
    [4887,"FF1721AC76217475","ด่านฯท่าอากาศยานอุดรธานี","2023-11-28T00:00:00",23,50.8,80.6,21.3,34.4],
    [4888,"FF1721AC76217484","กองดิจิทัลเพื่อการควบคุมโรค","2023-11-28T00:00:00",0,30.7,48.9,26.1,34],
    [4889,"FF1721AC76217484","กองดิจิทัลเพื่อการควบคุมโรค","2023-11-28T00:00:00",1,32.6,52.9,25.6,34.3],
    [4890,"FF1721AC76217484","กองดิจิทัลเพื่อการควบคุมโรค","2023-11-28T00:00:00",2,31.1,49.1,25.6,33.3],
    [4891,"FF1721AC76217484","กองดิจิทัลเพื่อการควบคุมโรค","2023-11-28T00:00:00",3,32,49.1,24.7,34],
    [4892,"FF1721AC76217484","กองดิจิทัลเพื่อการควบคุมโรค","2023-11-28T00:00:00",4,32.1,52.9,24.6,34.2],
    [4893,"FF1721AC76217484","กองดิจิทัลเพื่อการควบคุมโรค","2023-11-28T00:00:00",5,34.2,56.3,24.5,34.1],
    [4894,"FF1721AC76217484","กองดิจิทัลเพื่อการควบคุมโรค","2023-11-28T00:00:00",6,36.1,57.9,24.2,34.4],
    [4895,"FF1721AC76217484","กองดิจิทัลเพื่อการควบคุมโรค","2023-11-28T00:00:00",7,32.9,50.1,25,31],
    [4896,"FF1721AC76217484","กองดิจิทัลเพื่อการควบคุมโรค","2023-11-28T00:00:00",8,32.2,53.5,25.1,29.8],
    [4897,"FF1721AC76217484","กองดิจิทัลเพื่อการควบคุมโรค","2023-11-28T00:00:00",9,31,48.9,26.3,28.5],
    [4898,"FF1721AC76217484","กองดิจิทัลเพื่อการควบคุมโรค","2023-11-28T00:00:00",10,31.6,50.3,27.4,27.3],
    [4899,"FF1721AC76217484","กองดิจิทัลเพื่อการควบคุมโรค","2023-11-28T00:00:00",11,30.8,43.8,29.7,24.9],
    [4900,"FF1721AC76217484","กองดิจิทัลเพื่อการควบคุมโรค","2023-11-28T00:00:00",12,28.6,48.5,30.1,23.7],
    [4901,"FF1721AC76217484","กองดิจิทัลเพื่อการควบคุมโรค","2023-11-28T00:00:00",13,31.3,46.9,29.5,24.6],
    [4902,"FF1721AC76217484","กองดิจิทัลเพื่อการควบคุมโรค","2023-11-28T00:00:00",14,36.7,58.2,27.4,28.1],
    [4903,"FF1721AC76217484","กองดิจิทัลเพื่อการควบคุมโรค","2023-11-28T00:00:00",15,36.4,59.5,26.9,28.1],
    [4904,"FF1721AC76217484","กองดิจิทัลเพื่อการควบคุมโรค","2023-11-28T00:00:00",16,37.6,59.8,28,26.7],
    [4905,"FF1721AC76217484","กองดิจิทัลเพื่อการควบคุมโรค","2023-11-28T00:00:00",17,38.2,61.6,26.7,28.1],
    [4906,"FF1721AC76217484","กองดิจิทัลเพื่อการควบคุมโรค","2023-11-28T00:00:00",18,44.3,69.4,25.8,28.8],
    [4907,"FF1721AC76217484","กองดิจิทัลเพื่อการควบคุมโรค","2023-11-28T00:00:00",19,48.8,77.5,25.4,29.7],
    [4908,"FF1721AC76217484","กองดิจิทัลเพื่อการควบคุมโรค","2023-11-28T00:00:00",20,50.1,80.1,25.2,30.6],
    [4909,"FF1721AC76217484","กองดิจิทัลเพื่อการควบคุมโรค","2023-11-28T00:00:00",21,51.2,81.7,24.9,32.1],
    [4910,"FF1721AC76217484","กองดิจิทัลเพื่อการควบคุมโรค","2023-11-28T00:00:00",22,52,85.1,24.9,32.3],
    [4911,"FF1721AC76217484","กองดิจิทัลเพื่อการควบคุมโรค","2023-11-28T00:00:00",23,62.5,94,24.5,33.7],
    [4912,"FF1721AC76217471","ด่านฯสะพานมิตรภาพ 1 หนองคาย","2023-11-29T00:00:00",0,45.9,69.4,19.5,35.9],
    [4913,"FF1721AC76217471","ด่านฯสะพานมิตรภาพ 1 หนองคาย","2023-11-29T00:00:00",1,44,65,19.1,37.1],
    [4914,"FF1721AC76217471","ด่านฯสะพานมิตรภาพ 1 หนองคาย","2023-11-29T00:00:00",2,44.9,68,18.9,38.3],
    [4915,"FF1721AC76217471","ด่านฯสะพานมิตรภาพ 1 หนองคาย","2023-11-29T00:00:00",3,44.1,66.4,18.2,39.1],
    [4916,"FF1721AC76217471","ด่านฯสะพานมิตรภาพ 1 หนองคาย","2023-11-29T00:00:00",4,46.8,69,18.3,39.9],
    [4917,"FF1721AC76217471","ด่านฯสะพานมิตรภาพ 1 หนองคาย","2023-11-29T00:00:00",5,47.8,74.7,17.9,40.7],
    [4918,"FF1721AC76217471","ด่านฯสะพานมิตรภาพ 1 หนองคาย","2023-11-29T00:00:00",6,47.9,74.5,17.3,42.3],
    [4919,"FF1721AC76217471","ด่านฯสะพานมิตรภาพ 1 หนองคาย","2023-11-29T00:00:00",7,51.2,80.2,18.9,39.5],
    [4920,"FF1721AC76217471","ด่านฯสะพานมิตรภาพ 1 หนองคาย","2023-11-29T00:00:00",8,49.7,77.2,20.4,35.4],
    [4921,"FF1721AC76217471","ด่านฯสะพานมิตรภาพ 1 หนองคาย","2023-11-29T00:00:00",9,51,77.3,21.8,34.1],
    [4922,"FF1721AC76217471","ด่านฯสะพานมิตรภาพ 1 หนองคาย","2023-11-29T00:00:00",10,52.6,82.6,23.9,30.2],
    [4923,"FF1721AC76217471","ด่านฯสะพานมิตรภาพ 1 หนองคาย","2023-11-29T00:00:00",11,47.4,72.9,25.3,27.6],
    [4924,"FF1721AC76217471","ด่านฯสะพานมิตรภาพ 1 หนองคาย","2023-11-29T00:00:00",12,44.3,66.2,27,25.2],
    [4925,"FF1721AC76217471","ด่านฯสะพานมิตรภาพ 1 หนองคาย","2023-11-29T00:00:00",13,41.4,62.2,28.3,23.6],
    [4926,"FF1721AC76217471","ด่านฯสะพานมิตรภาพ 1 หนองคาย","2023-11-29T00:00:00",14,40.7,59.9,28.6,23.2],
    [4927,"FF1721AC76217471","ด่านฯสะพานมิตรภาพ 1 หนองคาย","2023-11-29T00:00:00",15,42.9,66.7,28.6,23.4],
    [4928,"FF1721AC76217471","ด่านฯสะพานมิตรภาพ 1 หนองคาย","2023-11-29T00:00:00",16,42.3,64.6,28.1,24.7],
    [4929,"FF1721AC76217471","ด่านฯสะพานมิตรภาพ 1 หนองคาย","2023-11-29T00:00:00",17,50.7,76,25.4,30.9],
    [4930,"FF1721AC76217471","ด่านฯสะพานมิตรภาพ 1 หนองคาย","2023-11-29T00:00:00",18,78.6,119.5,23.5,35],
    [4931,"FF1721AC76217471","ด่านฯสะพานมิตรภาพ 1 หนองคาย","2023-11-29T00:00:00",19,86.9,122.7,22.3,36.7],
    [4932,"FF1721AC76217471","ด่านฯสะพานมิตรภาพ 1 หนองคาย","2023-11-29T00:00:00",20,95.2,136.6,21.8,39.1],
    [4933,"FF1721AC76217471","ด่านฯสะพานมิตรภาพ 1 หนองคาย","2023-11-29T00:00:00",21,101.2,139.1,22,39.4],
    [4934,"FF1721AC76217471","ด่านฯสะพานมิตรภาพ 1 หนองคาย","2023-11-29T00:00:00",22,105.8,151.8,21.8,38.9],
    [4935,"FF1721AC76217471","ด่านฯสะพานมิตรภาพ 1 หนองคาย","2023-11-29T00:00:00",23,106.5,145.2,21.8,40.2],
    [4936,"FF1721AC76217473","ด่านฯสถานีรถไฟหนองคาย","2023-11-29T00:00:00",0,48.9,73.9,19.1,36.2],
    [4937,"FF1721AC76217473","ด่านฯสถานีรถไฟหนองคาย","2023-11-29T00:00:00",1,48.1,72.5,18.6,37.6],
    [4938,"FF1721AC76217473","ด่านฯสถานีรถไฟหนองคาย","2023-11-29T00:00:00",2,50.5,77.4,18.2,38.8],
    [4939,"FF1721AC76217473","ด่านฯสถานีรถไฟหนองคาย","2023-11-29T00:00:00",3,49,75.4,18,38.4],
    [4940,"FF1721AC76217473","ด่านฯสถานีรถไฟหนองคาย","2023-11-29T00:00:00",4,48.9,73.8,17.3,40.1],
    [4941,"FF1721AC76217473","ด่านฯสถานีรถไฟหนองคาย","2023-11-29T00:00:00",5,48.9,74,16.8,41.6],
    [4942,"FF1721AC76217473","ด่านฯสถานีรถไฟหนองคาย","2023-11-29T00:00:00",6,60.4,87.9,16.9,42.5],
    [4943,"FF1721AC76217473","ด่านฯสถานีรถไฟหนองคาย","2023-11-29T00:00:00",7,65.2,94.4,19.7,37.2],
    [4944,"FF1721AC76217473","ด่านฯสถานีรถไฟหนองคาย","2023-11-29T00:00:00",8,55.5,82.2,24.2,29.6],
    [4945,"FF1721AC76217473","ด่านฯสถานีรถไฟหนองคาย","2023-11-29T00:00:00",9,56,82.8,25.6,27.7],
    [4946,"FF1721AC76217473","ด่านฯสถานีรถไฟหนองคาย","2023-11-29T00:00:00",10,55.8,85.9,26.8,26.1],
    [4947,"FF1721AC76217473","ด่านฯสถานีรถไฟหนองคาย","2023-11-29T00:00:00",11,48,75.9,27.8,24.3],
    [4948,"FF1721AC76217473","ด่านฯสถานีรถไฟหนองคาย","2023-11-29T00:00:00",12,47.5,69.8,29,22.9],
    [4949,"FF1721AC76217473","ด่านฯสถานีรถไฟหนองคาย","2023-11-29T00:00:00",13,45,68.1,29.5,22.1],
    [4950,"FF1721AC76217473","ด่านฯสถานีรถไฟหนองคาย","2023-11-29T00:00:00",14,43.6,69.1,28.5,22.6],
    [4951,"FF1721AC76217473","ด่านฯสถานีรถไฟหนองคาย","2023-11-29T00:00:00",15,46.1,70.1,27.8,23.5],
    [4952,"FF1721AC76217473","ด่านฯสถานีรถไฟหนองคาย","2023-11-29T00:00:00",16,46.9,73.3,27.2,24.6],
    [4953,"FF1721AC76217473","ด่านฯสถานีรถไฟหนองคาย","2023-11-29T00:00:00",17,52.3,82.2,25.5,28.5],
    [4954,"FF1721AC76217473","ด่านฯสถานีรถไฟหนองคาย","2023-11-29T00:00:00",18,66.6,91.7,23.5,32.5],
    [4955,"FF1721AC76217473","ด่านฯสถานีรถไฟหนองคาย","2023-11-29T00:00:00",19,80.7,111.4,22.5,35],
    [4956,"FF1721AC76217473","ด่านฯสถานีรถไฟหนองคาย","2023-11-29T00:00:00",20,93.3,126.3,22.1,36.5],
    [4957,"FF1721AC76217473","ด่านฯสถานีรถไฟหนองคาย","2023-11-29T00:00:00",21,113.8,152.4,22,37.9],
    [4958,"FF1721AC76217473","ด่านฯสถานีรถไฟหนองคาย","2023-11-29T00:00:00",22,130.4,181.5,21.6,39.2],
    [4959,"FF1721AC76217473","ด่านฯสถานีรถไฟหนองคาย","2023-11-29T00:00:00",23,132.4,178,21.6,39.5],
    [4960,"FF1721AC76217475","ด่านฯท่าอากาศยานอุดรธานี","2023-11-29T00:00:00",0,51.7,80,21.2,35.1],
    [4961,"FF1721AC76217475","ด่านฯท่าอากาศยานอุดรธานี","2023-11-29T00:00:00",1,52.8,81.4,20.4,36.8],
    [4962,"FF1721AC76217475","ด่านฯท่าอากาศยานอุดรธานี","2023-11-29T00:00:00",2,49.6,77.4,19.6,37.8],
    [4963,"FF1721AC76217475","ด่านฯท่าอากาศยานอุดรธานี","2023-11-29T00:00:00",3,49.2,77.3,19.4,37.7],
    [4964,"FF1721AC76217475","ด่านฯท่าอากาศยานอุดรธานี","2023-11-29T00:00:00",4,51.2,77.7,19.1,38.4],
    [4965,"FF1721AC76217475","ด่านฯท่าอากาศยานอุดรธานี","2023-11-29T00:00:00",5,59.5,89.3,18.1,41.6],
    [4966,"FF1721AC76217475","ด่านฯท่าอากาศยานอุดรธานี","2023-11-29T00:00:00",6,69.3,96.7,18.2,41.5],
    [4967,"FF1721AC76217475","ด่านฯท่าอากาศยานอุดรธานี","2023-11-29T00:00:00",7,72,100.5,18.7,40],
    [4968,"FF1721AC76217475","ด่านฯท่าอากาศยานอุดรธานี","2023-11-29T00:00:00",8,52.6,81.1,21.4,33.2],
    [4969,"FF1721AC76217475","ด่านฯท่าอากาศยานอุดรธานี","2023-11-29T00:00:00",9,42.3,61.2,23.3,29.1],
    [4970,"FF1721AC76217475","ด่านฯท่าอากาศยานอุดรธานี","2023-11-29T00:00:00",10,40.1,59.8,25.3,26.8],
    [4971,"FF1721AC76217475","ด่านฯท่าอากาศยานอุดรธานี","2023-11-29T00:00:00",11,38.3,57.5,26.8,24.6],
    [4972,"FF1721AC76217475","ด่านฯท่าอากาศยานอุดรธานี","2023-11-29T00:00:00",12,37.3,55.5,28,23.1],
    [4973,"FF1721AC76217475","ด่านฯท่าอากาศยานอุดรธานี","2023-11-29T00:00:00",13,35.9,49.4,29.2,21.4],
    [4974,"FF1721AC76217475","ด่านฯท่าอากาศยานอุดรธานี","2023-11-29T00:00:00",14,35.9,53.4,30,20.1],
    [4975,"FF1721AC76217475","ด่านฯท่าอากาศยานอุดรธานี","2023-11-29T00:00:00",15,34.8,50.7,30,20.3],
    [4976,"FF1721AC76217475","ด่านฯท่าอากาศยานอุดรธานี","2023-11-29T00:00:00",16,34.1,50.3,28.8,21.4],
    [4977,"FF1721AC76217475","ด่านฯท่าอากาศยานอุดรธานี","2023-11-29T00:00:00",17,41.2,61.9,27.3,24.1],
    [4978,"FF1721AC76217475","ด่านฯท่าอากาศยานอุดรธานี","2023-11-29T00:00:00",18,60.3,87.6,26.5,25.8],
    [4979,"FF1721AC76217475","ด่านฯท่าอากาศยานอุดรธานี","2023-11-29T00:00:00",19,62.4,87.2,25.2,29.3],
    [4980,"FF1721AC76217475","ด่านฯท่าอากาศยานอุดรธานี","2023-11-29T00:00:00",20,71.4,95.3,24.6,31.4],
    [4981,"FF1721AC76217475","ด่านฯท่าอากาศยานอุดรธานี","2023-11-29T00:00:00",21,77.1,101.5,23.6,34.3],
    [4982,"FF1721AC76217475","ด่านฯท่าอากาศยานอุดรธานี","2023-11-29T00:00:00",22,72.7,97.9,22.8,35.8],
    [4983,"FF1721AC76217475","ด่านฯท่าอากาศยานอุดรธานี","2023-11-29T00:00:00",23,73.4,99.3,22.7,35.8],
    [4984,"FF1721AC76217484","กองดิจิทัลเพื่อการควบคุมโรค","2023-11-29T00:00:00",0,77.8,114.4,23.1,36.7],
    [4985,"FF1721AC76217484","กองดิจิทัลเพื่อการควบคุมโรค","2023-11-29T00:00:00",1,66,100,22.9,36.1],
    [4986,"FF1721AC76217484","กองดิจิทัลเพื่อการควบคุมโรค","2023-11-29T00:00:00",2,49.3,81.1,22.8,35.8],
    [4987,"FF1721AC76217484","กองดิจิทัลเพื่อการควบคุมโรค","2023-11-29T00:00:00",3,45.9,73.6,22.5,35.9],
    [4988,"FF1721AC76217484","กองดิจิทัลเพื่อการควบคุมโรค","2023-11-29T00:00:00",4,43.3,70.4,22.6,35.5],
    [4989,"FF1721AC76217484","กองดิจิทัลเพื่อการควบคุมโรค","2023-11-29T00:00:00",5,42,68.8,22.3,35.9],
    [4990,"FF1721AC76217484","กองดิจิทัลเพื่อการควบคุมโรค","2023-11-29T00:00:00",6,42.7,68.9,22.1,35.9],
    [4991,"FF1721AC76217484","กองดิจิทัลเพื่อการควบคุมโรค","2023-11-29T00:00:00",7,43.6,72,22.4,35.5],
    [4992,"FF1721AC76217484","กองดิจิทัลเพื่อการควบคุมโรค","2023-11-29T00:00:00",8,38.2,62.5,23.8,32.6],
    [4993,"FF1721AC76217484","กองดิจิทัลเพื่อการควบคุมโรค","2023-11-29T00:00:00",9,35.8,60.6,25.5,30.6],
    [4994,"FF1721AC76217484","กองดิจิทัลเพื่อการควบคุมโรค","2023-11-29T00:00:00",10,34.6,53.4,27,29.2],
    [4995,"FF1721AC76217484","กองดิจิทัลเพื่อการควบคุมโรค","2023-11-29T00:00:00",11,35.2,56.5,29.4,27.1],
    [4996,"FF1721AC76217484","กองดิจิทัลเพื่อการควบคุมโรค","2023-11-29T00:00:00",12,33.2,53,30.8,25.1],
    [4997,"FF1721AC76217484","กองดิจิทัลเพื่อการควบคุมโรค","2023-11-29T00:00:00",13,34.6,54.8,31.8,23.9],
    [4998,"FF1721AC76217484","กองดิจิทัลเพื่อการควบคุมโรค","2023-11-29T00:00:00",14,35.7,55.6,32,24],
    [4999,"FF1721AC76217484","กองดิจิทัลเพื่อการควบคุมโรค","2023-11-29T00:00:00",15,34.5,52.3,29.9,26.3],
    [5000,"FF1721AC76217484","กองดิจิทัลเพื่อการควบคุมโรค","2023-11-29T00:00:00",16,35.2,58.8,27.5,29.2],
    [5001,"FF1721AC76217484","กองดิจิทัลเพื่อการควบคุมโรค","2023-11-29T00:00:00",17,39.2,66.6,26.9,30.3],
    [5002,"FF1721AC76217484","กองดิจิทัลเพื่อการควบคุมโรค","2023-11-29T00:00:00",18,42.9,66.6,26.6,31.6],
    [5003,"FF1721AC76217484","กองดิจิทัลเพื่อการควบคุมโรค","2023-11-29T00:00:00",19,43.1,70.1,26.3,32],
    [5004,"FF1721AC76217484","กองดิจิทัลเพื่อการควบคุมโรค","2023-11-29T00:00:00",20,45.8,74.5,25.9,32.4],
    [5005,"FF1721AC76217484","กองดิจิทัลเพื่อการควบคุมโรค","2023-11-29T00:00:00",21,45.7,75.1,25.7,33.2],
    [5006,"FF1721AC76217484","กองดิจิทัลเพื่อการควบคุมโรค","2023-11-29T00:00:00",22,47.9,78.5,25.1,34.7],
    [5007,"FF1721AC76217484","กองดิจิทัลเพื่อการควบคุมโรค","2023-11-29T00:00:00",23,55.7,86.1,24.7,36.4],
    [5008,"FF1721AC76217471","ด่านฯสะพานมิตรภาพ 1 หนองคาย","2023-11-30T00:00:00",0,115,158.2,21,42.1],
    [5009,"FF1721AC76217471","ด่านฯสะพานมิตรภาพ 1 หนองคาย","2023-11-30T00:00:00",1,101.2,137.2,21,41.2],
    [5010,"FF1721AC76217471","ด่านฯสะพานมิตรภาพ 1 หนองคาย","2023-11-30T00:00:00",2,82.4,112.9,20.8,40.8],
    [5011,"FF1721AC76217471","ด่านฯสะพานมิตรภาพ 1 หนองคาย","2023-11-30T00:00:00",3,67.3,95,20.1,41.9],
    [5012,"FF1721AC76217471","ด่านฯสะพานมิตรภาพ 1 หนองคาย","2023-11-30T00:00:00",4,65,92.9,19.8,42.9],
    [5013,"FF1721AC76217471","ด่านฯสะพานมิตรภาพ 1 หนองคาย","2023-11-30T00:00:00",5,53.4,80,19.7,41.6],
    [5014,"FF1721AC76217471","ด่านฯสะพานมิตรภาพ 1 หนองคาย","2023-11-30T00:00:00",6,46.9,71.4,19.7,40.8],
    [5015,"FF1721AC76217471","ด่านฯสะพานมิตรภาพ 1 หนองคาย","2023-11-30T00:00:00",7,43,67.1,21.4,36.2],
    [5016,"FF1721AC76217471","ด่านฯสะพานมิตรภาพ 1 หนองคาย","2023-11-30T00:00:00",8,39.2,58.8,23.2,32.7],
    [5017,"FF1721AC76217471","ด่านฯสะพานมิตรภาพ 1 หนองคาย","2023-11-30T00:00:00",9,30.8,46,24.5,31],
    [5018,"FF1721AC76217471","ด่านฯสะพานมิตรภาพ 1 หนองคาย","2023-11-30T00:00:00",10,33.5,45.8,24.8,30.9],
    [5019,"FF1721AC76217471","ด่านฯสะพานมิตรภาพ 1 หนองคาย","2023-11-30T00:00:00",11,37.4,54.6,25.5,30.8],
    [5020,"FF1721AC76217471","ด่านฯสะพานมิตรภาพ 1 หนองคาย","2023-11-30T00:00:00",12,33.8,57.7,26.9,28.9],
    [5021,"FF1721AC76217471","ด่านฯสะพานมิตรภาพ 1 หนองคาย","2023-11-30T00:00:00",13,32.7,43.2,28.2,27.2],
    [5022,"FF1721AC76217471","ด่านฯสะพานมิตรภาพ 1 หนองคาย","2023-11-30T00:00:00",14,26.4,35,29.4,26.1],
    [5023,"FF1721AC76217471","ด่านฯสะพานมิตรภาพ 1 หนองคาย","2023-11-30T00:00:00",15,25,34.9,30,25.7],
    [5024,"FF1721AC76217471","ด่านฯสะพานมิตรภาพ 1 หนองคาย","2023-11-30T00:00:00",16,32.5,39,28.8,27.9],
    [5025,"FF1721AC76217471","ด่านฯสะพานมิตรภาพ 1 หนองคาย","2023-11-30T00:00:00",17,41.7,58.7,26.7,31.2],
    [5026,"FF1721AC76217471","ด่านฯสะพานมิตรภาพ 1 หนองคาย","2023-11-30T00:00:00",18,59.4,81.7,25.4,34.2],
    [5027,"FF1721AC76217471","ด่านฯสะพานมิตรภาพ 1 หนองคาย","2023-11-30T00:00:00",19,57.2,91.5,24.6,35.1],
    [5028,"FF1721AC76217471","ด่านฯสะพานมิตรภาพ 1 หนองคาย","2023-11-30T00:00:00",20,68,98.3,23.9,36.5],
    [5029,"FF1721AC76217471","ด่านฯสะพานมิตรภาพ 1 หนองคาย","2023-11-30T00:00:00",21,83.6,112.2,23.2,38.9],
    [5030,"FF1721AC76217471","ด่านฯสะพานมิตรภาพ 1 หนองคาย","2023-11-30T00:00:00",22,67,93.9,23,38.7],
    [5031,"FF1721AC76217471","ด่านฯสะพานมิตรภาพ 1 หนองคาย","2023-11-30T00:00:00",23,42.6,62.2,23,38.1],
    [5032,"FF1721AC76217473","ด่านฯสถานีรถไฟหนองคาย","2023-11-30T00:00:00",0,137.3,181.2,21.3,40],
    [5033,"FF1721AC76217473","ด่านฯสถานีรถไฟหนองคาย","2023-11-30T00:00:00",1,110.3,151.4,21.1,40.6],
    [5034,"FF1721AC76217473","ด่านฯสถานีรถไฟหนองคาย","2023-11-30T00:00:00",2,92.7,120.3,20.9,40.2],
    [5035,"FF1721AC76217473","ด่านฯสถานีรถไฟหนองคาย","2023-11-30T00:00:00",3,68.9,97.3,20.5,39.4],
    [5036,"FF1721AC76217473","ด่านฯสถานีรถไฟหนองคาย","2023-11-30T00:00:00",4,55.1,85.1,19.9,38.7],
    [5037,"FF1721AC76217473","ด่านฯสถานีรถไฟหนองคาย","2023-11-30T00:00:00",5,50.7,76.7,19.8,39.2],
    [5038,"FF1721AC76217473","ด่านฯสถานีรถไฟหนองคาย","2023-11-30T00:00:00",6,49.3,76.3,19.6,39.5],
    [5039,"FF1721AC76217473","ด่านฯสถานีรถไฟหนองคาย","2023-11-30T00:00:00",7,46.5,72.8,21.4,36],
    [5040,"FF1721AC76217473","ด่านฯสถานีรถไฟหนองคาย","2023-11-30T00:00:00",8,38.7,57.5,23.9,31],
    [5041,"FF1721AC76217473","ด่านฯสถานีรถไฟหนองคาย","2023-11-30T00:00:00",9,33.9,50.2,24.7,30],
    [5042,"FF1721AC76217473","ด่านฯสถานีรถไฟหนองคาย","2023-11-30T00:00:00",10,33.9,50.1,26.7,27.9],
    [5043,"FF1721AC76217473","ด่านฯสถานีรถไฟหนองคาย","2023-11-30T00:00:00",11,40.3,59.8,26.9,28],
    [5044,"FF1721AC76217473","ด่านฯสถานีรถไฟหนองคาย","2023-11-30T00:00:00",12,39.4,60,28.5,25.8],
    [5045,"FF1721AC76217473","ด่านฯสถานีรถไฟหนองคาย","2023-11-30T00:00:00",13,33.5,50.4,30.2,24.5],
    [5046,"FF1721AC76217473","ด่านฯสถานีรถไฟหนองคาย","2023-11-30T00:00:00",14,32,47.8,30.3,24.9],
    [5047,"FF1721AC76217473","ด่านฯสถานีรถไฟหนองคาย","2023-11-30T00:00:00",15,31,40.6,29.1,25.9],
    [5048,"FF1721AC76217473","ด่านฯสถานีรถไฟหนองคาย","2023-11-30T00:00:00",16,33.3,48.9,28.5,26.9],
    [5049,"FF1721AC76217473","ด่านฯสถานีรถไฟหนองคาย","2023-11-30T00:00:00",17,45.3,67.8,27.2,29.9],
    [5050,"FF1721AC76217473","ด่านฯสถานีรถไฟหนองคาย","2023-11-30T00:00:00",18,63,90.5,25.8,32.2],
    [5051,"FF1721AC76217473","ด่านฯสถานีรถไฟหนองคาย","2023-11-30T00:00:00",19,75.6,99.3,24.8,34.3],
    [5052,"FF1721AC76217473","ด่านฯสถานีรถไฟหนองคาย","2023-11-30T00:00:00",20,71.2,97,24.2,35.7],
    [5053,"FF1721AC76217473","ด่านฯสถานีรถไฟหนองคาย","2023-11-30T00:00:00",21,67.5,93.2,23.8,36.5],
    [5054,"FF1721AC76217473","ด่านฯสถานีรถไฟหนองคาย","2023-11-30T00:00:00",22,56,81.9,23.5,36.5],
    [5055,"FF1721AC76217473","ด่านฯสถานีรถไฟหนองคาย","2023-11-30T00:00:00",23,32.4,46.9,23.6,35.7],
    [5056,"FF1721AC76217475","ด่านฯท่าอากาศยานอุดรธานี","2023-11-30T00:00:00",0,71.8,98.5,22.8,36],
    [5057,"FF1721AC76217475","ด่านฯท่าอากาศยานอุดรธานี","2023-11-30T00:00:00",1,63,91.5,23.1,33.9],
    [5058,"FF1721AC76217475","ด่านฯท่าอากาศยานอุดรธานี","2023-11-30T00:00:00",2,62.6,86.7,23,34.3],
    [5059,"FF1721AC76217475","ด่านฯท่าอากาศยานอุดรธานี","2023-11-30T00:00:00",3,71.6,96.8,22.1,37.2],
    [5060,"FF1721AC76217475","ด่านฯท่าอากาศยานอุดรธานี","2023-11-30T00:00:00",4,65.8,93.7,21.4,38.9],
    [5061,"FF1721AC76217475","ด่านฯท่าอากาศยานอุดรธานี","2023-11-30T00:00:00",5,75.2,101.6,21.4,39.2],
    [5062,"FF1721AC76217475","ด่านฯท่าอากาศยานอุดรธานี","2023-11-30T00:00:00",6,73.4,102.6,21.1,40.3],
    [5063,"FF1721AC76217475","ด่านฯท่าอากาศยานอุดรธานี","2023-11-30T00:00:00",7,67,92.5,23.3,36.1],
    [5064,"FF1721AC76217475","ด่านฯท่าอากาศยานอุดรธานี","2023-11-30T00:00:00",8,46.4,71.9,24.9,31.6],
    [5065,"FF1721AC76217475","ด่านฯท่าอากาศยานอุดรธานี","2023-11-30T00:00:00",9,39.1,54.9,24.9,30.6],
    [5066,"FF1721AC76217475","ด่านฯท่าอากาศยานอุดรธานี","2023-11-30T00:00:00",10,37.7,57.5,26.3,29.2],
    [5067,"FF1721AC76217475","ด่านฯท่าอากาศยานอุดรธานี","2023-11-30T00:00:00",11,37.8,55.3,28.1,27.2],
    [5068,"FF1721AC76217475","ด่านฯท่าอากาศยานอุดรธานี","2023-11-30T00:00:00",12,29.5,40.2,29.3,24.2],
    [5069,"FF1721AC76217475","ด่านฯท่าอากาศยานอุดรธานี","2023-11-30T00:00:00",13,21.6,27.3,30.8,23.4],
    [5070,"FF1721AC76217475","ด่านฯท่าอากาศยานอุดรธานี","2023-11-30T00:00:00",14,19,27.8,31,22.7],
    [5071,"FF1721AC76217475","ด่านฯท่าอากาศยานอุดรธานี","2023-11-30T00:00:00",15,18.9,21.7,30.3,24.1],
    [5072,"FF1721AC76217475","ด่านฯท่าอากาศยานอุดรธานี","2023-11-30T00:00:00",16,18.3,28.4,30.3,24.3],
    [5073,"FF1721AC76217475","ด่านฯท่าอากาศยานอุดรธานี","2023-11-30T00:00:00",17,22.1,25.2,28.9,26.3],
    [5074,"FF1721AC76217475","ด่านฯท่าอากาศยานอุดรธานี","2023-11-30T00:00:00",18,36.7,57.2,27.5,28.6],
    [5075,"FF1721AC76217475","ด่านฯท่าอากาศยานอุดรธานี","2023-11-30T00:00:00",19,47.8,76.7,27,29.2],
    [5076,"FF1721AC76217475","ด่านฯท่าอากาศยานอุดรธานี","2023-11-30T00:00:00",20,49.7,76.1,26,31.5],
    [5077,"FF1721AC76217475","ด่านฯท่าอากาศยานอุดรธานี","2023-11-30T00:00:00",21,49.4,75.6,25.3,33.1],
    [5078,"FF1721AC76217475","ด่านฯท่าอากาศยานอุดรธานี","2023-11-30T00:00:00",22,51.6,77.8,24.8,34.1],
    [5079,"FF1721AC76217475","ด่านฯท่าอากาศยานอุดรธานี","2023-11-30T00:00:00",23,53.7,83.8,24.5,35.1],
    [5080,"FF1721AC76217484","กองดิจิทัลเพื่อการควบคุมโรค","2023-11-30T00:00:00",0,59,92,24.3,37.2],
    [5081,"FF1721AC76217484","กองดิจิทัลเพื่อการควบคุมโรค","2023-11-30T00:00:00",1,56.4,90.6,24.2,37.2],
    [5082,"FF1721AC76217484","กองดิจิทัลเพื่อการควบคุมโรค","2023-11-30T00:00:00",2,53.7,85.9,24.1,36.9],
    [5083,"FF1721AC76217484","กองดิจิทัลเพื่อการควบคุมโรค","2023-11-30T00:00:00",3,48.3,78.7,24.2,36.3],
    [5084,"FF1721AC76217484","กองดิจิทัลเพื่อการควบคุมโรค","2023-11-30T00:00:00",4,45.9,74.7,24,36.3],
    [5085,"FF1721AC76217484","กองดิจิทัลเพื่อการควบคุมโรค","2023-11-30T00:00:00",5,45.3,73.5,24.2,35.6],
    [5086,"FF1721AC76217484","กองดิจิทัลเพื่อการควบคุมโรค","2023-11-30T00:00:00",6,45.7,74.9,24,36.3],
    [5087,"FF1721AC76217484","กองดิจิทัลเพื่อการควบคุมโรค","2023-11-30T00:00:00",7,46.6,78.5,24.3,36.1],
    [5088,"FF1721AC76217484","กองดิจิทัลเพื่อการควบคุมโรค","2023-11-30T00:00:00",8,43.5,70.4,26.2,33.1],
    [5089,"FF1721AC76217484","กองดิจิทัลเพื่อการควบคุมโรค","2023-11-30T00:00:00",9,39,62,28.5,30.1],
    [5090,"FF1721AC76217484","กองดิจิทัลเพื่อการควบคุมโรค","2023-11-30T00:00:00",10,37.8,59.1,30.3,27.4],
    [5091,"FF1721AC76217484","กองดิจิทัลเพื่อการควบคุมโรค","2023-11-30T00:00:00",11,37.3,58.4,32.5,26.1],
    [5092,"FF1721AC76217484","กองดิจิทัลเพื่อการควบคุมโรค","2023-11-30T00:00:00",12,30.9,51.1,33.9,23.2],
    [5093,"FF1721AC76217484","กองดิจิทัลเพื่อการควบคุมโรค","2023-11-30T00:00:00",13,17.5,20.7,34.5,22],
    [5094,"FF1721AC76217484","กองดิจิทัลเพื่อการควบคุมโรค","2023-11-30T00:00:00",14,17.8,26.1,33.9,22.7],
    [5095,"FF1721AC76217484","กองดิจิทัลเพื่อการควบคุมโรค","2023-11-30T00:00:00",15,14.3,19.7,33,23.8],
    [5096,"FF1721AC76217484","กองดิจิทัลเพื่อการควบคุมโรค","2023-11-30T00:00:00",16,15,22.5,31.8,25.3],
    [5097,"FF1721AC76217484","กองดิจิทัลเพื่อการควบคุมโรค","2023-11-30T00:00:00",17,17.5,26.6,31.1,26.2],
    [5098,"FF1721AC76217484","กองดิจิทัลเพื่อการควบคุมโรค","2023-11-30T00:00:00",18,24.8,35,30.8,28],
    [5099,"FF1721AC76217484","กองดิจิทัลเพื่อการควบคุมโรค","2023-11-30T00:00:00",19,28.9,43.3,29.9,29.7],
    [5100,"FF1721AC76217484","กองดิจิทัลเพื่อการควบคุมโรค","2023-11-30T00:00:00",20,32.6,53.8,28.7,30.4],
    [5101,"FF1721AC76217484","กองดิจิทัลเพื่อการควบคุมโรค","2023-11-30T00:00:00",21,31.2,50.1,28.1,31.2],
    [5102,"FF1721AC76217484","กองดิจิทัลเพื่อการควบคุมโรค","2023-11-30T00:00:00",22,34.5,56.6,27.6,32],
    [5103,"FF1721AC76217484","กองดิจิทัลเพื่อการควบคุมโรค","2023-11-30T00:00:00",23,35.5,56.4,27.3,32.5],
    [5104,"FF1721AC76217471","ด่านฯสะพานมิตรภาพ 1 หนองคาย","2023-01-12T00:00:00",0,21.1,29.3,22.8,37.5],
    [5105,"FF1721AC76217471","ด่านฯสะพานมิตรภาพ 1 หนองคาย","2023-01-12T00:00:00",1,12,15.2,22.3,37.7],
    [5106,"FF1721AC76217471","ด่านฯสะพานมิตรภาพ 1 หนองคาย","2023-01-12T00:00:00",2,7.9,10.5,22.1,37.9],
    [5107,"FF1721AC76217471","ด่านฯสะพานมิตรภาพ 1 หนองคาย","2023-01-12T00:00:00",3,13.8,19.9,21.2,39.7],
    [5108,"FF1721AC76217471","ด่านฯสะพานมิตรภาพ 1 หนองคาย","2023-01-12T00:00:00",4,22.1,27.3,20.6,41.9],
    [5109,"FF1721AC76217471","ด่านฯสะพานมิตรภาพ 1 หนองคาย","2023-01-12T00:00:00",5,26.5,31.6,20.8,42],
    [5110,"FF1721AC76217471","ด่านฯสะพานมิตรภาพ 1 หนองคาย","2023-01-12T00:00:00",6,35,48.5,20.1,43.4],
    [5111,"FF1721AC76217471","ด่านฯสะพานมิตรภาพ 1 หนองคาย","2023-01-12T00:00:00",7,26.9,33.2,22.3,38.7],
    [5112,"FF1721AC76217471","ด่านฯสะพานมิตรภาพ 1 หนองคาย","2023-01-12T00:00:00",8,22.1,32,23.3,36.8],
    [5113,"FF1721AC76217471","ด่านฯสะพานมิตรภาพ 1 หนองคาย","2023-01-12T00:00:00",9,26.1,38.8,25,34.7],
    [5114,"FF1721AC76217471","ด่านฯสะพานมิตรภาพ 1 หนองคาย","2023-01-12T00:00:00",10,16.4,20.1,26.7,31.4],
    [5115,"FF1721AC76217471","ด่านฯสะพานมิตรภาพ 1 หนองคาย","2023-01-12T00:00:00",11,7.8,9.1,27.9,29.1],
    [5116,"FF1721AC76217471","ด่านฯสะพานมิตรภาพ 1 หนองคาย","2023-01-12T00:00:00",12,9.7,12.3,29.1,27.4],
    [5117,"FF1721AC76217471","ด่านฯสะพานมิตรภาพ 1 หนองคาย","2023-01-12T00:00:00",13,12.5,16.9,29.8,27],
    [5118,"FF1721AC76217471","ด่านฯสะพานมิตรภาพ 1 หนองคาย","2023-01-12T00:00:00",14,11.3,21.7,29.2,27.3],
    [5119,"FF1721AC76217471","ด่านฯสะพานมิตรภาพ 1 หนองคาย","2023-01-12T00:00:00",15,13.1,14.9,28.2,29.1],
    [5120,"FF1721AC76217471","ด่านฯสะพานมิตรภาพ 1 หนองคาย","2023-01-12T00:00:00",16,23,23,27.4,30.7],
    [5121,"FF1721AC76217471","ด่านฯสะพานมิตรภาพ 1 หนองคาย","2023-01-12T00:00:00",17,30.6,45.8,26.6,31.3],
    [5122,"FF1721AC76217471","ด่านฯสะพานมิตรภาพ 1 หนองคาย","2023-01-12T00:00:00",18,21.3,36.4,25.8,32],
    [5123,"FF1721AC76217471","ด่านฯสะพานมิตรภาพ 1 หนองคาย","2023-01-12T00:00:00",19,32,42.9,24.8,33.9],
    [5124,"FF1721AC76217471","ด่านฯสะพานมิตรภาพ 1 หนองคาย","2023-01-12T00:00:00",20,14.4,18.7,24.1,34.4],
    [5125,"FF1721AC76217471","ด่านฯสะพานมิตรภาพ 1 หนองคาย","2023-01-12T00:00:00",21,7.5,9.8,24,34.2],
    [5126,"FF1721AC76217471","ด่านฯสะพานมิตรภาพ 1 หนองคาย","2023-01-12T00:00:00",22,4.3,5.1,23.8,34.8],
    [5127,"FF1721AC76217471","ด่านฯสะพานมิตรภาพ 1 หนองคาย","2023-01-12T00:00:00",23,2.8,2.7,23.4,34.7],
    [5128,"FF1721AC76217473","ด่านฯสถานีรถไฟหนองคาย","2023-01-12T00:00:00",0,24.8,31.2,22.7,37.1],
    [5129,"FF1721AC76217473","ด่านฯสถานีรถไฟหนองคาย","2023-01-12T00:00:00",1,13.6,18.1,22,37.7],
    [5130,"FF1721AC76217473","ด่านฯสถานีรถไฟหนองคาย","2023-01-12T00:00:00",2,9.5,12.7,21.6,38.1],
    [5131,"FF1721AC76217473","ด่านฯสถานีรถไฟหนองคาย","2023-01-12T00:00:00",3,9.5,11.8,21.2,38.9],
    [5132,"FF1721AC76217473","ด่านฯสถานีรถไฟหนองคาย","2023-01-12T00:00:00",4,12.8,15.5,20.7,40.5],
    [5133,"FF1721AC76217473","ด่านฯสถานีรถไฟหนองคาย","2023-01-12T00:00:00",5,17.2,24.3,19.9,42],
    [5134,"FF1721AC76217473","ด่านฯสถานีรถไฟหนองคาย","2023-01-12T00:00:00",6,38.5,57.2,20.4,41.6],
    [5135,"FF1721AC76217473","ด่านฯสถานีรถไฟหนองคาย","2023-01-12T00:00:00",7,21.1,28.7,23.1,35.9],
    [5136,"FF1721AC76217473","ด่านฯสถานีรถไฟหนองคาย","2023-01-12T00:00:00",8,22.9,34,25.6,32.7],
    [5137,"FF1721AC76217473","ด่านฯสถานีรถไฟหนองคาย","2023-01-12T00:00:00",9,30.9,40.4,27.6,30.2],
    [5138,"FF1721AC76217473","ด่านฯสถานีรถไฟหนองคาย","2023-01-12T00:00:00",10,15.5,22.6,28.5,27.7],
    [5139,"FF1721AC76217473","ด่านฯสถานีรถไฟหนองคาย","2023-01-12T00:00:00",11,8.5,11.1,29.9,25.5],
    [5140,"FF1721AC76217473","ด่านฯสถานีรถไฟหนองคาย","2023-01-12T00:00:00",12,10.3,12.1,29.8,25.4],
    [5141,"FF1721AC76217473","ด่านฯสถานีรถไฟหนองคาย","2023-01-12T00:00:00",13,14.9,26.7,29.6,25.7],
    [5142,"FF1721AC76217473","ด่านฯสถานีรถไฟหนองคาย","2023-01-12T00:00:00",14,12.2,12.3,29,26.6],
    [5143,"FF1721AC76217473","ด่านฯสถานีรถไฟหนองคาย","2023-01-12T00:00:00",15,14.9,17.4,28.6,27.6],
    [5144,"FF1721AC76217473","ด่านฯสถานีรถไฟหนองคาย","2023-01-12T00:00:00",16,18.3,27.7,27.9,28.7],
    [5145,"FF1721AC76217473","ด่านฯสถานีรถไฟหนองคาย","2023-01-12T00:00:00",17,33,47.7,26.8,30],
    [5146,"FF1721AC76217473","ด่านฯสถานีรถไฟหนองคาย","2023-01-12T00:00:00",18,30.9,41.2,25.8,31.7],
    [5147,"FF1721AC76217473","ด่านฯสถานีรถไฟหนองคาย","2023-01-12T00:00:00",19,40.2,61.3,24.8,32.8],
    [5148,"FF1721AC76217473","ด่านฯสถานีรถไฟหนองคาย","2023-01-12T00:00:00",20,21.6,29.4,24,34.2],
    [5149,"FF1721AC76217473","ด่านฯสถานีรถไฟหนองคาย","2023-01-12T00:00:00",21,9,13.8,23.9,33.9],
    [5150,"FF1721AC76217473","ด่านฯสถานีรถไฟหนองคาย","2023-01-12T00:00:00",22,4.8,6.9,23.6,34.8],
    [5151,"FF1721AC76217473","ด่านฯสถานีรถไฟหนองคาย","2023-01-12T00:00:00",23,2.7,3.6,23.4,34.1],
    [5152,"FF1721AC76217475","ด่านฯท่าอากาศยานอุดรธานี","2023-01-12T00:00:00",0,52.4,79,24.2,36],
    [5153,"FF1721AC76217475","ด่านฯท่าอากาศยานอุดรธานี","2023-01-12T00:00:00",1,41.8,64.5,23.3,37.5],
    [5154,"FF1721AC76217475","ด่านฯท่าอากาศยานอุดรธานี","2023-01-12T00:00:00",2,30.1,39,22.8,38.2],
    [5155,"FF1721AC76217475","ด่านฯท่าอากาศยานอุดรธานี","2023-01-12T00:00:00",3,20.5,25,22.5,37.7],
    [5156,"FF1721AC76217475","ด่านฯท่าอากาศยานอุดรธานี","2023-01-12T00:00:00",4,18.6,21.6,22.9,36.9],
    [5157,"FF1721AC76217475","ด่านฯท่าอากาศยานอุดรธานี","2023-01-12T00:00:00",5,14.3,20.1,23,35.8],
    [5158,"FF1721AC76217475","ด่านฯท่าอากาศยานอุดรธานี","2023-01-12T00:00:00",6,22.8,27.8,22.8,36],
    [5159,"FF1721AC76217475","ด่านฯท่าอากาศยานอุดรธานี","2023-01-12T00:00:00",7,46.5,27.1,23.4,34.9],
    [5160,"FF1721AC76217475","ด่านฯท่าอากาศยานอุดรธานี","2023-01-12T00:00:00",8,14.9,18.4,25.2,31.7],
    [5161,"FF1721AC76217475","ด่านฯท่าอากาศยานอุดรธานี","2023-01-12T00:00:00",9,9.9,12.9,26.7,29.4],
    [5162,"FF1721AC76217475","ด่านฯท่าอากาศยานอุดรธานี","2023-01-12T00:00:00",10,5.9,7.1,28.6,26.8],
    [5163,"FF1721AC76217475","ด่านฯท่าอากาศยานอุดรธานี","2023-01-12T00:00:00",11,3.5,5.1,29.4,25.5],
    [5164,"FF1721AC76217475","ด่านฯท่าอากาศยานอุดรธานี","2023-01-12T00:00:00",12,4.8,6,30,25.5],
    [5165,"FF1721AC76217475","ด่านฯท่าอากาศยานอุดรธานี","2023-01-12T00:00:00",13,4.1,4,30.2,25],
    [5166,"FF1721AC76217475","ด่านฯท่าอากาศยานอุดรธานี","2023-01-12T00:00:00",14,4.7,4.8,29.9,25.7],
    [5167,"FF1721AC76217475","ด่านฯท่าอากาศยานอุดรธานี","2023-01-12T00:00:00",15,3.1,3.7,29.8,25.9],
    [5168,"FF1721AC76217475","ด่านฯท่าอากาศยานอุดรธานี","2023-01-12T00:00:00",16,4.8,4.7,29,27],
    [5169,"FF1721AC76217475","ด่านฯท่าอากาศยานอุดรธานี","2023-01-12T00:00:00",17,6.3,6.6,28.1,28.2],
    [5170,"FF1721AC76217475","ด่านฯท่าอากาศยานอุดรธานี","2023-01-12T00:00:00",18,10.7,13.4,27.1,29.5],
    [5171,"FF1721AC76217475","ด่านฯท่าอากาศยานอุดรธานี","2023-01-12T00:00:00",19,12.9,16.1,26.4,30.9],
    [5172,"FF1721AC76217475","ด่านฯท่าอากาศยานอุดรธานี","2023-01-12T00:00:00",20,12.7,16.8,25.5,32.3],
    [5173,"FF1721AC76217475","ด่านฯท่าอากาศยานอุดรธานี","2023-01-12T00:00:00",21,8.2,10.4,24.8,32.4],
    [5174,"FF1721AC76217475","ด่านฯท่าอากาศยานอุดรธานี","2023-01-12T00:00:00",22,2.4,2.8,24.4,31.3],
    [5175,"FF1721AC76217475","ด่านฯท่าอากาศยานอุดรธานี","2023-01-12T00:00:00",23,2.4,3.6,23.7,32.4],
    [5176,"FF1721AC76217484","กองดิจิทัลเพื่อการควบคุมโรค","2023-01-12T00:00:00",0,32.3,52.7,26.8,33.3],
    [5177,"FF1721AC76217484","กองดิจิทัลเพื่อการควบคุมโรค","2023-01-12T00:00:00",1,31.1,46.2,26.2,34.5],
    [5178,"FF1721AC76217484","กองดิจิทัลเพื่อการควบคุมโรค","2023-01-12T00:00:00",2,34,55.5,25.4,36],
    [5179,"FF1721AC76217484","กองดิจิทัลเพื่อการควบคุมโรค","2023-01-12T00:00:00",3,36.1,60.5,24.7,37.7],
    [5180,"FF1721AC76217484","กองดิจิทัลเพื่อการควบคุมโรค","2023-01-12T00:00:00",4,36.8,58.3,24.4,38.2],
    [5181,"FF1721AC76217484","กองดิจิทัลเพื่อการควบคุมโรค","2023-01-12T00:00:00",5,35.9,59.4,24.8,37.9],
    [5182,"FF1721AC76217484","กองดิจิทัลเพื่อการควบคุมโรค","2023-01-12T00:00:00",6,34.3,55,25.5,36.5],
    [5183,"FF1721AC76217484","กองดิจิทัลเพื่อการควบคุมโรค","2023-01-12T00:00:00",7,34.7,58.4,25.4,36.8],
    [5184,"FF1721AC76217484","กองดิจิทัลเพื่อการควบคุมโรค","2023-01-12T00:00:00",8,28.1,45.2,27.4,34.1],
    [5185,"FF1721AC76217484","กองดิจิทัลเพื่อการควบคุมโรค","2023-01-12T00:00:00",9,18.3,24.8,29.5,31.3],
    [5186,"FF1721AC76217484","กองดิจิทัลเพื่อการควบคุมโรค","2023-01-12T00:00:00",10,10.9,16.2,31,29.6],
    [5187,"FF1721AC76217484","กองดิจิทัลเพื่อการควบคุมโรค","2023-01-12T00:00:00",11,13.2,19.2,31,28.9],
    [5188,"FF1721AC76217484","กองดิจิทัลเพื่อการควบคุมโรค","2023-01-12T00:00:00",12,17.8,22.1,31.6,28.4],
    [5189,"FF1721AC76217484","กองดิจิทัลเพื่อการควบคุมโรค","2023-01-12T00:00:00",13,15.6,22,31.4,29.5],
    [5190,"FF1721AC76217484","กองดิจิทัลเพื่อการควบคุมโรค","2023-01-12T00:00:00",14,14.9,22,31,30],
    [5191,"FF1721AC76217484","กองดิจิทัลเพื่อการควบคุมโรค","2023-01-12T00:00:00",15,16.3,19.5,31.7,29.1],
    [5192,"FF1721AC76217484","กองดิจิทัลเพื่อการควบคุมโรค","2023-01-12T00:00:00",16,9.8,15,31.8,27.7],
    [5193,"FF1721AC76217484","กองดิจิทัลเพื่อการควบคุมโรค","2023-01-12T00:00:00",17,13.8,18.8,30.7,29.5],
    [5194,"FF1721AC76217484","กองดิจิทัลเพื่อการควบคุมโรค","2023-01-12T00:00:00",18,18.4,25.6,29.4,31.8],
    [5195,"FF1721AC76217484","กองดิจิทัลเพื่อการควบคุมโรค","2023-01-12T00:00:00",19,19.3,28.6,29.7,31.7],
    [5196,"FF1721AC76217484","กองดิจิทัลเพื่อการควบคุมโรค","2023-01-12T00:00:00",20,20.4,27.9,28.7,33.7],
    [5197,"FF1721AC76217484","กองดิจิทัลเพื่อการควบคุมโรค","2023-01-12T00:00:00",21,22.2,31.1,28.5,34.3],
    [5198,"FF1721AC76217484","กองดิจิทัลเพื่อการควบคุมโรค","2023-01-12T00:00:00",22,25.8,36.7,28,35],
    [5199,"FF1721AC76217484","กองดิจิทัลเพื่อการควบคุมโรค","2023-01-12T00:00:00",23,30,44,27.5,35.4],
    [5200,"FF1721AC76217471","ด่านฯสะพานมิตรภาพ 1 หนองคาย","2023-02-12T00:00:00",0,2.1,2.8,23,35],
    [5201,"FF1721AC76217471","ด่านฯสะพานมิตรภาพ 1 หนองคาย","2023-02-12T00:00:00",1,2.3,3.3,22.4,35.5],
    [5202,"FF1721AC76217471","ด่านฯสะพานมิตรภาพ 1 หนองคาย","2023-02-12T00:00:00",2,2.8,3.3,22.1,36],
    [5203,"FF1721AC76217471","ด่านฯสะพานมิตรภาพ 1 หนองคาย","2023-02-12T00:00:00",3,2.9,2.3,21.6,36.5],
    [5204,"FF1721AC76217471","ด่านฯสะพานมิตรภาพ 1 หนองคาย","2023-02-12T00:00:00",4,3.2,3.9,21.6,36.5],
    [5205,"FF1721AC76217471","ด่านฯสะพานมิตรภาพ 1 หนองคาย","2023-02-12T00:00:00",5,3.5,4.1,21.3,36.9],
    [5206,"FF1721AC76217471","ด่านฯสะพานมิตรภาพ 1 หนองคาย","2023-02-12T00:00:00",6,4.3,7.1,21.4,36.7],
    [5207,"FF1721AC76217471","ด่านฯสะพานมิตรภาพ 1 หนองคาย","2023-02-12T00:00:00",7,8.5,11.7,21.5,36.9],
    [5208,"FF1721AC76217471","ด่านฯสะพานมิตรภาพ 1 หนองคาย","2023-02-12T00:00:00",8,11.4,19,22.7,35.4],
    [5209,"FF1721AC76217471","ด่านฯสะพานมิตรภาพ 1 หนองคาย","2023-02-12T00:00:00",9,11,14.7,24.3,33.3],
    [5210,"FF1721AC76217471","ด่านฯสะพานมิตรภาพ 1 หนองคาย","2023-02-12T00:00:00",10,11.1,14.1,25.5,31.8],
    [5211,"FF1721AC76217471","ด่านฯสะพานมิตรภาพ 1 หนองคาย","2023-02-12T00:00:00",11,17.3,23.8,27,29.4],
    [5212,"FF1721AC76217471","ด่านฯสะพานมิตรภาพ 1 หนองคาย","2023-02-12T00:00:00",12,18.8,22.7,28.2,27.4],
    [5213,"FF1721AC76217471","ด่านฯสะพานมิตรภาพ 1 หนองคาย","2023-02-12T00:00:00",13,7.1,8.4,29.6,25.6],
    [5214,"FF1721AC76217471","ด่านฯสะพานมิตรภาพ 1 หนองคาย","2023-02-12T00:00:00",14,7.1,8.6,29.2,26.2],
    [5215,"FF1721AC76217471","ด่านฯสะพานมิตรภาพ 1 หนองคาย","2023-02-12T00:00:00",15,6.7,7.5,29.7,25.8],
    [5216,"FF1721AC76217471","ด่านฯสะพานมิตรภาพ 1 หนองคาย","2023-02-12T00:00:00",16,6.5,8.4,28.5,26.9],
    [5217,"FF1721AC76217471","ด่านฯสะพานมิตรภาพ 1 หนองคาย","2023-02-12T00:00:00",17,9.7,13.7,27,29.4],
    [5218,"FF1721AC76217471","ด่านฯสะพานมิตรภาพ 1 หนองคาย","2023-02-12T00:00:00",18,20.4,24.7,25.4,33.9],
    [5219,"FF1721AC76217471","ด่านฯสะพานมิตรภาพ 1 หนองคาย","2023-02-12T00:00:00",19,41.3,60.7,24.2,37.2],
    [5220,"FF1721AC76217471","ด่านฯสะพานมิตรภาพ 1 หนองคาย","2023-02-12T00:00:00",20,32.7,44.9,24.5,36.3],
    [5221,"FF1721AC76217471","ด่านฯสะพานมิตรภาพ 1 หนองคาย","2023-02-12T00:00:00",21,29.7,38.2,24.5,35.6],
    [5222,"FF1721AC76217471","ด่านฯสะพานมิตรภาพ 1 หนองคาย","2023-02-12T00:00:00",22,16.2,16.3,23.9,35.5],
    [5223,"FF1721AC76217471","ด่านฯสะพานมิตรภาพ 1 หนองคาย","2023-02-12T00:00:00",23,7.4,10.8,23.4,35.1],
    [5224,"FF1721AC76217473","ด่านฯสถานีรถไฟหนองคาย","2023-02-12T00:00:00",0,2.9,2.9,23,34.3],
    [5225,"FF1721AC76217473","ด่านฯสถานีรถไฟหนองคาย","2023-02-12T00:00:00",1,3.1,4.2,22.4,35.1],
    [5226,"FF1721AC76217473","ด่านฯสถานีรถไฟหนองคาย","2023-02-12T00:00:00",2,3.3,5,22,35.6],
    [5227,"FF1721AC76217473","ด่านฯสถานีรถไฟหนองคาย","2023-02-12T00:00:00",3,5.9,7.8,21.5,36.4],
    [5228,"FF1721AC76217473","ด่านฯสถานีรถไฟหนองคาย","2023-02-12T00:00:00",4,4,10.5,21.4,36.3],
    [5229,"FF1721AC76217473","ด่านฯสถานีรถไฟหนองคาย","2023-02-12T00:00:00",5,11.3,11.5,21.1,36.9],
    [5230,"FF1721AC76217473","ด่านฯสถานีรถไฟหนองคาย","2023-02-12T00:00:00",6,9.1,13.3,21.3,36.6],
    [5231,"FF1721AC76217473","ด่านฯสถานีรถไฟหนองคาย","2023-02-12T00:00:00",7,13.7,16.6,21.4,36.5],
    [5232,"FF1721AC76217473","ด่านฯสถานีรถไฟหนองคาย","2023-02-12T00:00:00",8,11.4,17,22.5,35],
    [5233,"FF1721AC76217473","ด่านฯสถานีรถไฟหนองคาย","2023-02-12T00:00:00",9,13,20.8,24.3,32.5],
    [5234,"FF1721AC76217473","ด่านฯสถานีรถไฟหนองคาย","2023-02-12T00:00:00",10,13.1,14.5,26.8,29.2],
    [5235,"FF1721AC76217473","ด่านฯสถานีรถไฟหนองคาย","2023-02-12T00:00:00",11,18.4,30.9,28.5,26.9],
    [5236,"FF1721AC76217473","ด่านฯสถานีรถไฟหนองคาย","2023-02-12T00:00:00",12,17.2,21.7,29.3,25.4],
    [5237,"FF1721AC76217473","ด่านฯสถานีรถไฟหนองคาย","2023-02-12T00:00:00",13,7.8,8.4,29,25.3],
    [5238,"FF1721AC76217473","ด่านฯสถานีรถไฟหนองคาย","2023-02-12T00:00:00",14,8.6,10.8,29,26],
    [5239,"FF1721AC76217473","ด่านฯสถานีรถไฟหนองคาย","2023-02-12T00:00:00",15,9,13.4,28.6,26.4],
    [5240,"FF1721AC76217473","ด่านฯสถานีรถไฟหนองคาย","2023-02-12T00:00:00",16,14.3,19.6,28,26.6],
    [5241,"FF1721AC76217473","ด่านฯสถานีรถไฟหนองคาย","2023-02-12T00:00:00",17,30.1,26.9,27.2,28.1],
    [5242,"FF1721AC76217473","ด่านฯสถานีรถไฟหนองคาย","2023-02-12T00:00:00",18,59.5,87.1,25.9,31.7],
    [5243,"FF1721AC76217473","ด่านฯสถานีรถไฟหนองคาย","2023-02-12T00:00:00",19,43,67.9,25.1,33.5],
    [5244,"FF1721AC76217473","ด่านฯสถานีรถไฟหนองคาย","2023-02-12T00:00:00",20,33,48.1,24.9,34.3],
    [5245,"FF1721AC76217473","ด่านฯสถานีรถไฟหนองคาย","2023-02-12T00:00:00",21,31,43.2,24.4,35.4],
    [5246,"FF1721AC76217473","ด่านฯสถานีรถไฟหนองคาย","2023-02-12T00:00:00",22,19.1,26,23.8,35.4],
    [5247,"FF1721AC76217473","ด่านฯสถานีรถไฟหนองคาย","2023-02-12T00:00:00",23,11.5,14,23.4,34.8],
    [5248,"FF1721AC76217475","ด่านฯท่าอากาศยานอุดรธานี","2023-02-12T00:00:00",0,3.4,3,23.2,32.9],
    [5249,"FF1721AC76217475","ด่านฯท่าอากาศยานอุดรธานี","2023-02-12T00:00:00",1,2.9,2.9,23,33.2],
    [5250,"FF1721AC76217475","ด่านฯท่าอากาศยานอุดรธานี","2023-02-12T00:00:00",2,2.7,3.6,22.7,33.8],
    [5251,"FF1721AC76217475","ด่านฯท่าอากาศยานอุดรธานี","2023-02-12T00:00:00",3,4.7,3.7,22.3,34.8],
    [5252,"FF1721AC76217475","ด่านฯท่าอากาศยานอุดรธานี","2023-02-12T00:00:00",4,6.5,7.2,22.2,35.3],
    [5253,"FF1721AC76217475","ด่านฯท่าอากาศยานอุดรธานี","2023-02-12T00:00:00",5,5.9,7.6,22.1,35.5],
    [5254,"FF1721AC76217475","ด่านฯท่าอากาศยานอุดรธานี","2023-02-12T00:00:00",6,7.1,8.1,22.1,35.5],
    [5255,"FF1721AC76217475","ด่านฯท่าอากาศยานอุดรธานี","2023-02-12T00:00:00",7,10.9,10.8,22.8,34.4],
    [5256,"FF1721AC76217475","ด่านฯท่าอากาศยานอุดรธานี","2023-02-12T00:00:00",8,8,10.7,23.5,32.6],
    [5257,"FF1721AC76217475","ด่านฯท่าอากาศยานอุดรธานี","2023-02-12T00:00:00",9,5.6,6.9,24.7,30.5],
    [5258,"FF1721AC76217475","ด่านฯท่าอากาศยานอุดรธานี","2023-02-12T00:00:00",10,5.8,7.6,27,27.4],
    [5259,"FF1721AC76217475","ด่านฯท่าอากาศยานอุดรธานี","2023-02-12T00:00:00",11,4.4,5.7,28.3,25.2],
    [5260,"FF1721AC76217475","ด่านฯท่าอากาศยานอุดรธานี","2023-02-12T00:00:00",12,8.3,5.5,30.2,23.3],
    [5261,"FF1721AC76217475","ด่านฯท่าอากาศยานอุดรธานี","2023-02-12T00:00:00",13,3.8,4.2,30.6,23.2],
    [5262,"FF1721AC76217475","ด่านฯท่าอากาศยานอุดรธานี","2023-02-12T00:00:00",14,3.7,4.3,29.7,24.2],
    [5263,"FF1721AC76217475","ด่านฯท่าอากาศยานอุดรธานี","2023-02-12T00:00:00",15,3.7,4.5,29.2,25],
    [5264,"FF1721AC76217475","ด่านฯท่าอากาศยานอุดรธานี","2023-02-12T00:00:00",16,4.4,6.8,28.5,26.1],
    [5265,"FF1721AC76217475","ด่านฯท่าอากาศยานอุดรธานี","2023-02-12T00:00:00",17,6.9,8.1,27.8,27.2],
    [5266,"FF1721AC76217475","ด่านฯท่าอากาศยานอุดรธานี","2023-02-12T00:00:00",18,16.9,24.3,27.4,28.4],
    [5267,"FF1721AC76217475","ด่านฯท่าอากาศยานอุดรธานี","2023-02-12T00:00:00",19,16.7,21.9,26.9,29.1],
    [5268,"FF1721AC76217475","ด่านฯท่าอากาศยานอุดรธานี","2023-02-12T00:00:00",20,19.5,25.6,26.4,30.3],
    [5269,"FF1721AC76217475","ด่านฯท่าอากาศยานอุดรธานี","2023-02-12T00:00:00",21,15.2,20.5,25.6,31.3],
    [5270,"FF1721AC76217475","ด่านฯท่าอากาศยานอุดรธานี","2023-02-12T00:00:00",22,17,22.3,25,32.6],
    [5271,"FF1721AC76217475","ด่านฯท่าอากาศยานอุดรธานี","2023-02-12T00:00:00",23,16.8,22.5,24.5,33.4],
    [5272,"FF1721AC76217484","กองดิจิทัลเพื่อการควบคุมโรค","2023-02-12T00:00:00",0,32.3,51.7,27.1,36.8],
    [5273,"FF1721AC76217484","กองดิจิทัลเพื่อการควบคุมโรค","2023-02-12T00:00:00",1,8,11.9,23.4,46.1],
    [5274,"FF1721AC76217484","กองดิจิทัลเพื่อการควบคุมโรค","2023-02-12T00:00:00",2,9.4,11.9,23.2,45.8],
    [5275,"FF1721AC76217484","กองดิจิทัลเพื่อการควบคุมโรค","2023-02-12T00:00:00",3,12.4,16,23.6,45],
    [5276,"FF1721AC76217484","กองดิจิทัลเพื่อการควบคุมโรค","2023-02-12T00:00:00",4,13.1,19,23.3,45.3],
    [5277,"FF1721AC76217484","กองดิจิทัลเพื่อการควบคุมโรค","2023-02-12T00:00:00",5,26.8,40.3,23.3,45.3],
    [5278,"FF1721AC76217484","กองดิจิทัลเพื่อการควบคุมโรค","2023-02-12T00:00:00",6,28.3,37.4,23.5,45],
    [5279,"FF1721AC76217484","กองดิจิทัลเพื่อการควบคุมโรค","2023-02-12T00:00:00",7,25.3,33,24.6,43.6],
    [5280,"FF1721AC76217484","กองดิจิทัลเพื่อการควบคุมโรค","2023-02-12T00:00:00",8,19.6,29.3,25.9,40.7],
    [5281,"FF1721AC76217484","กองดิจิทัลเพื่อการควบคุมโรค","2023-02-12T00:00:00",9,11.7,15.4,27.6,36.5],
    [5282,"FF1721AC76217484","กองดิจิทัลเพื่อการควบคุมโรค","2023-02-12T00:00:00",10,10.7,15,29.2,34.1],
    [5283,"FF1721AC76217484","กองดิจิทัลเพื่อการควบคุมโรค","2023-02-12T00:00:00",11,9.5,13.2,30.5,32.5],
    [5284,"FF1721AC76217484","กองดิจิทัลเพื่อการควบคุมโรค","2023-02-12T00:00:00",12,7.9,9.2,31.1,30.7],
    [5285,"FF1721AC76217484","กองดิจิทัลเพื่อการควบคุมโรค","2023-02-12T00:00:00",13,8.5,12.3,32.7,29.2],
    [5286,"FF1721AC76217484","กองดิจิทัลเพื่อการควบคุมโรค","2023-02-12T00:00:00",14,7.4,10.6,32.1,28.7],
    [5287,"FF1721AC76217484","กองดิจิทัลเพื่อการควบคุมโรค","2023-02-12T00:00:00",15,7.5,8.5,31.5,29.3],
    [5288,"FF1721AC76217484","กองดิจิทัลเพื่อการควบคุมโรค","2023-02-12T00:00:00",16,8,11.5,31.1,29.1],
    [5289,"FF1721AC76217484","กองดิจิทัลเพื่อการควบคุมโรค","2023-02-12T00:00:00",17,7,9.8,30,30.9],
    [5290,"FF1721AC76217484","กองดิจิทัลเพื่อการควบคุมโรค","2023-02-12T00:00:00",18,10.3,13.9,29.3,32.4],
    [5291,"FF1721AC76217484","กองดิจิทัลเพื่อการควบคุมโรค","2023-02-12T00:00:00",19,23.1,31.1,28.8,33.5],
    [5292,"FF1721AC76217484","กองดิจิทัลเพื่อการควบคุมโรค","2023-02-12T00:00:00",20,21.6,32.3,28.3,34.8],
    [5293,"FF1721AC76217484","กองดิจิทัลเพื่อการควบคุมโรค","2023-02-12T00:00:00",21,21.3,28.6,28.1,35.4],
    [5294,"FF1721AC76217484","กองดิจิทัลเพื่อการควบคุมโรค","2023-02-12T00:00:00",22,26.9,40.2,27.1,37],
    [5295,"FF1721AC76217484","กองดิจิทัลเพื่อการควบคุมโรค","2023-02-12T00:00:00",23,32.2,50.2,26.9,37.8],
    [5296,"FF1721AC76217471","ด่านฯสะพานมิตรภาพ 1 หนองคาย","2023-03-12T00:00:00",0,7.9,9.1,23.1,35],
    [5297,"FF1721AC76217471","ด่านฯสะพานมิตรภาพ 1 หนองคาย","2023-03-12T00:00:00",1,4.8,6.4,23,34.7],
    [5298,"FF1721AC76217471","ด่านฯสะพานมิตรภาพ 1 หนองคาย","2023-03-12T00:00:00",2,4.6,5.4,22.4,35.5],
    [5299,"FF1721AC76217471","ด่านฯสะพานมิตรภาพ 1 หนองคาย","2023-03-12T00:00:00",3,4.7,5.6,22.7,35.3],
    [5300,"FF1721AC76217471","ด่านฯสะพานมิตรภาพ 1 หนองคาย","2023-03-12T00:00:00",4,5.8,8.2,22.1,36.1],
    [5301,"FF1721AC76217471","ด่านฯสะพานมิตรภาพ 1 หนองคาย","2023-03-12T00:00:00",5,5.3,8.2,21,38.3],
    [5302,"FF1721AC76217471","ด่านฯสะพานมิตรภาพ 1 หนองคาย","2023-03-12T00:00:00",6,8.1,9.8,20.6,39.4],
    [5303,"FF1721AC76217471","ด่านฯสะพานมิตรภาพ 1 หนองคาย","2023-03-12T00:00:00",7,16.8,18.9,21.5,38.4],
    [5304,"FF1721AC76217471","ด่านฯสะพานมิตรภาพ 1 หนองคาย","2023-03-12T00:00:00",8,9,12.7,22.9,34.8],
    [5305,"FF1721AC76217471","ด่านฯสะพานมิตรภาพ 1 หนองคาย","2023-03-12T00:00:00",9,7.9,10.8,24,32.9],
    [5306,"FF1721AC76217471","ด่านฯสะพานมิตรภาพ 1 หนองคาย","2023-03-12T00:00:00",10,10,13.7,26.1,30.4],
    [5307,"FF1721AC76217471","ด่านฯสะพานมิตรภาพ 1 หนองคาย","2023-03-12T00:00:00",11,8.2,10.6,26.7,29.4],
    [5308,"FF1721AC76217471","ด่านฯสะพานมิตรภาพ 1 หนองคาย","2023-03-12T00:00:00",12,11.2,14.9,27.5,27.9],
    [5309,"FF1721AC76217471","ด่านฯสะพานมิตรภาพ 1 หนองคาย","2023-03-12T00:00:00",13,14.6,20.5,28.6,27.5],
    [5310,"FF1721AC76217471","ด่านฯสะพานมิตรภาพ 1 หนองคาย","2023-03-12T00:00:00",14,25.2,31.5,27.8,28.7],
    [5311,"FF1721AC76217471","ด่านฯสะพานมิตรภาพ 1 หนองคาย","2023-03-12T00:00:00",15,33.3,40.9,28.2,28.3],
    [5312,"FF1721AC76217471","ด่านฯสะพานมิตรภาพ 1 หนองคาย","2023-03-12T00:00:00",16,18.8,26.8,27.6,29.1],
    [5313,"FF1721AC76217471","ด่านฯสะพานมิตรภาพ 1 หนองคาย","2023-03-12T00:00:00",17,24.3,31.4,26.4,31.4],
    [5314,"FF1721AC76217471","ด่านฯสะพานมิตรภาพ 1 หนองคาย","2023-03-12T00:00:00",18,28.3,41.1,25,34.4],
    [5315,"FF1721AC76217471","ด่านฯสะพานมิตรภาพ 1 หนองคาย","2023-03-12T00:00:00",19,35.9,54.1,24.3,36.4],
    [5316,"FF1721AC76217471","ด่านฯสะพานมิตรภาพ 1 หนองคาย","2023-03-12T00:00:00",20,36.4,53.5,23.4,38.3],
    [5317,"FF1721AC76217471","ด่านฯสะพานมิตรภาพ 1 หนองคาย","2023-03-12T00:00:00",21,32.7,47.2,23.5,36.8],
    [5318,"FF1721AC76217471","ด่านฯสะพานมิตรภาพ 1 หนองคาย","2023-03-12T00:00:00",22,34,46.4,22.9,37.9],
    [5319,"FF1721AC76217471","ด่านฯสะพานมิตรภาพ 1 หนองคาย","2023-03-12T00:00:00",23,31.6,43.7,22.4,39.4],
    [5320,"FF1721AC76217473","ด่านฯสถานีรถไฟหนองคาย","2023-03-12T00:00:00",0,7.3,12.1,23,34.6],
    [5321,"FF1721AC76217473","ด่านฯสถานีรถไฟหนองคาย","2023-03-12T00:00:00",1,5.7,7.5,22.6,35],
    [5322,"FF1721AC76217473","ด่านฯสถานีรถไฟหนองคาย","2023-03-12T00:00:00",2,6,7.4,22.2,35.5],
    [5323,"FF1721AC76217473","ด่านฯสถานีรถไฟหนองคาย","2023-03-12T00:00:00",3,6.5,8,21.8,36.2],
    [5324,"FF1721AC76217473","ด่านฯสถานีรถไฟหนองคาย","2023-03-12T00:00:00",4,10.4,13.9,21.2,37.4],
    [5325,"FF1721AC76217473","ด่านฯสถานีรถไฟหนองคาย","2023-03-12T00:00:00",5,8.4,7,20.8,38],
    [5326,"FF1721AC76217473","ด่านฯสถานีรถไฟหนองคาย","2023-03-12T00:00:00",6,11.7,20.9,20.6,38.9],
    [5327,"FF1721AC76217473","ด่านฯสถานีรถไฟหนองคาย","2023-03-12T00:00:00",7,16.4,16.1,22.6,35.3],
    [5328,"FF1721AC76217473","ด่านฯสถานีรถไฟหนองคาย","2023-03-12T00:00:00",8,12.6,19,24.4,32.2],
    [5329,"FF1721AC76217473","ด่านฯสถานีรถไฟหนองคาย","2023-03-12T00:00:00",9,9.6,15.5,25.1,31.1],
    [5330,"FF1721AC76217473","ด่านฯสถานีรถไฟหนองคาย","2023-03-12T00:00:00",10,17.3,22.3,26.3,29.6],
    [5331,"FF1721AC76217473","ด่านฯสถานีรถไฟหนองคาย","2023-03-12T00:00:00",11,15.1,15.5,28.3,26.5],
    [5332,"FF1721AC76217473","ด่านฯสถานีรถไฟหนองคาย","2023-03-12T00:00:00",12,17.6,27,28.9,26.1],
    [5333,"FF1721AC76217473","ด่านฯสถานีรถไฟหนองคาย","2023-03-12T00:00:00",13,19.9,24.2,28.5,27],
    [5334,"FF1721AC76217473","ด่านฯสถานีรถไฟหนองคาย","2023-03-12T00:00:00",14,28.9,43.3,28.3,27],
    [5335,"FF1721AC76217473","ด่านฯสถานีรถไฟหนองคาย","2023-03-12T00:00:00",15,34,50.2,28.4,27.5],
    [5336,"FF1721AC76217473","ด่านฯสถานีรถไฟหนองคาย","2023-03-12T00:00:00",16,20.5,28.2,27.5,28],
    [5337,"FF1721AC76217473","ด่านฯสถานีรถไฟหนองคาย","2023-03-12T00:00:00",17,26.6,33.6,26.4,30.2],
    [5338,"FF1721AC76217473","ด่านฯสถานีรถไฟหนองคาย","2023-03-12T00:00:00",18,35.3,49,25.5,32.1],
    [5339,"FF1721AC76217473","ด่านฯสถานีรถไฟหนองคาย","2023-03-12T00:00:00",19,43.8,66.9,24.3,34.7],
    [5340,"FF1721AC76217473","ด่านฯสถานีรถไฟหนองคาย","2023-03-12T00:00:00",20,34,50.3,24,34.9],
    [5341,"FF1721AC76217473","ด่านฯสถานีรถไฟหนองคาย","2023-03-12T00:00:00",21,42.2,61,22.9,37.8],
    [5342,"FF1721AC76217473","ด่านฯสถานีรถไฟหนองคาย","2023-03-12T00:00:00",22,37,54.9,23,37.2],
    [5343,"FF1721AC76217473","ด่านฯสถานีรถไฟหนองคาย","2023-03-12T00:00:00",23,35.7,53.8,22.3,38.7],
    [5344,"FF1721AC76217475","ด่านฯท่าอากาศยานอุดรธานี","2023-03-12T00:00:00",0,18,22.6,23.9,34.4],
    [5345,"FF1721AC76217475","ด่านฯท่าอากาศยานอุดรธานี","2023-03-12T00:00:00",1,11.1,15.1,23.5,34.5],
    [5346,"FF1721AC76217475","ด่านฯท่าอากาศยานอุดรธานี","2023-03-12T00:00:00",2,13.5,15.7,23.1,36.1],
    [5347,"FF1721AC76217475","ด่านฯท่าอากาศยานอุดรธานี","2023-03-12T00:00:00",3,12,14.8,22.4,38.3],
    [5348,"FF1721AC76217475","ด่านฯท่าอากาศยานอุดรธานี","2023-03-12T00:00:00",4,14.9,17.4,21.8,39.6],
    [5349,"FF1721AC76217475","ด่านฯท่าอากาศยานอุดรธานี","2023-03-12T00:00:00",5,11.5,15.3,21.5,38.3],
    [5350,"FF1721AC76217475","ด่านฯท่าอากาศยานอุดรธานี","2023-03-12T00:00:00",6,13,15.8,21.4,38.2],
    [5351,"FF1721AC76217475","ด่านฯท่าอากาศยานอุดรธานี","2023-03-12T00:00:00",7,13.2,17.2,22.2,37],
    [5352,"FF1721AC76217475","ด่านฯท่าอากาศยานอุดรธานี","2023-03-12T00:00:00",8,10.9,14.9,22.9,34.8],
    [5353,"FF1721AC76217475","ด่านฯท่าอากาศยานอุดรธานี","2023-03-12T00:00:00",9,9.8,10.6,24.8,31.1],
    [5354,"FF1721AC76217475","ด่านฯท่าอากาศยานอุดรธานี","2023-03-12T00:00:00",10,9.7,12.5,26.4,28.7],
    [5355,"FF1721AC76217475","ด่านฯท่าอากาศยานอุดรธานี","2023-03-12T00:00:00",11,6.3,8.9,27.8,26.8],
    [5356,"FF1721AC76217475","ด่านฯท่าอากาศยานอุดรธานี","2023-03-12T00:00:00",12,6.5,7.5,28.9,25.2],
    [5357,"FF1721AC76217475","ด่านฯท่าอากาศยานอุดรธานี","2023-03-12T00:00:00",13,6.7,9.2,29.4,24.8],
    [5358,"FF1721AC76217475","ด่านฯท่าอากาศยานอุดรธานี","2023-03-12T00:00:00",14,8.8,8.9,29.9,24.6],
    [5359,"FF1721AC76217475","ด่านฯท่าอากาศยานอุดรธานี","2023-03-12T00:00:00",15,8.9,10.1,30.2,24.6],
    [5360,"FF1721AC76217475","ด่านฯท่าอากาศยานอุดรธานี","2023-03-12T00:00:00",16,9,12.4,28.2,26.8],
    [5361,"FF1721AC76217475","ด่านฯท่าอากาศยานอุดรธานี","2023-03-12T00:00:00",17,15.1,17.8,27.5,28],
    [5362,"FF1721AC76217475","ด่านฯท่าอากาศยานอุดรธานี","2023-03-12T00:00:00",18,30.1,37.5,27.2,29.3],
    [5363,"FF1721AC76217475","ด่านฯท่าอากาศยานอุดรธานี","2023-03-12T00:00:00",19,59.5,91.8,25.8,32.8],
    [5364,"FF1721AC76217475","ด่านฯท่าอากาศยานอุดรธานี","2023-03-12T00:00:00",20,37,56.1,25.5,33],
    [5365,"FF1721AC76217475","ด่านฯท่าอากาศยานอุดรธานี","2023-03-12T00:00:00",21,35.6,51.9,24.5,34],
    [5366,"FF1721AC76217475","ด่านฯท่าอากาศยานอุดรธานี","2023-03-12T00:00:00",22,24.7,33.1,23.9,34.5],
    [5367,"FF1721AC76217475","ด่านฯท่าอากาศยานอุดรธานี","2023-03-12T00:00:00",23,25.5,33.2,23.6,35.3],
    [5368,"FF1721AC76217484","กองดิจิทัลเพื่อการควบคุมโรค","2023-03-12T00:00:00",0,32.8,50.3,26.5,38.5],
    [5369,"FF1721AC76217484","กองดิจิทัลเพื่อการควบคุมโรค","2023-03-12T00:00:00",1,32.4,49.4,26.2,38.2],
    [5370,"FF1721AC76217484","กองดิจิทัลเพื่อการควบคุมโรค","2023-03-12T00:00:00",2,21.4,31.5,26.1,36.7],
    [5371,"FF1721AC76217484","กองดิจิทัลเพื่อการควบคุมโรค","2023-03-12T00:00:00",3,14.8,22.5,26,36.3],
    [5372,"FF1721AC76217484","กองดิจิทัลเพื่อการควบคุมโรค","2023-03-12T00:00:00",4,12.4,17.9,25.9,36.2],
    [5373,"FF1721AC76217484","กองดิจิทัลเพื่อการควบคุมโรค","2023-03-12T00:00:00",5,13.5,19.3,25.5,36.6],
    [5374,"FF1721AC76217484","กองดิจิทัลเพื่อการควบคุมโรค","2023-03-12T00:00:00",6,16.3,21.3,25.7,36.4],
    [5375,"FF1721AC76217484","กองดิจิทัลเพื่อการควบคุมโรค","2023-03-12T00:00:00",7,15.8,24.5,25.7,36.4],
    [5376,"FF1721AC76217484","กองดิจิทัลเพื่อการควบคุมโรค","2023-03-12T00:00:00",8,17.4,21.9,26.8,35.3],
    [5377,"FF1721AC76217484","กองดิจิทัลเพื่อการควบคุมโรค","2023-03-12T00:00:00",9,15.8,23.8,27.9,34],
    [5378,"FF1721AC76217484","กองดิจิทัลเพื่อการควบคุมโรค","2023-03-12T00:00:00",10,12,17.3,29.9,31.5],
    [5379,"FF1721AC76217484","กองดิจิทัลเพื่อการควบคุมโรค","2023-03-12T00:00:00",11,7,9.9,32.1,28.3],
    [5380,"FF1721AC76217484","กองดิจิทัลเพื่อการควบคุมโรค","2023-03-12T00:00:00",12,10.5,13.7,34.3,26.7],
    [5381,"FF1721AC76217484","กองดิจิทัลเพื่อการควบคุมโรค","2023-03-12T00:00:00",13,10.9,15.2,33.6,27.4],
    [5382,"FF1721AC76217484","กองดิจิทัลเพื่อการควบคุมโรค","2023-03-12T00:00:00",14,8.4,9.8,33,27.8],
    [5383,"FF1721AC76217484","กองดิจิทัลเพื่อการควบคุมโรค","2023-03-12T00:00:00",15,9.5,13.4,32.5,28.1],
    [5384,"FF1721AC76217484","กองดิจิทัลเพื่อการควบคุมโรค","2023-03-12T00:00:00",16,9.8,13.4,32.4,28.7],
    [5385,"FF1721AC76217484","กองดิจิทัลเพื่อการควบคุมโรค","2023-03-12T00:00:00",17,9,12.2,30.9,30.8],
    [5386,"FF1721AC76217484","กองดิจิทัลเพื่อการควบคุมโรค","2023-03-12T00:00:00",18,9.1,12.2,30.3,31.8],
    [5387,"FF1721AC76217484","กองดิจิทัลเพื่อการควบคุมโรค","2023-03-12T00:00:00",19,11.6,15.5,28.9,33.9],
    [5388,"FF1721AC76217484","กองดิจิทัลเพื่อการควบคุมโรค","2023-03-12T00:00:00",20,15.4,23.8,28.4,35.1],
    [5389,"FF1721AC76217484","กองดิจิทัลเพื่อการควบคุมโรค","2023-03-12T00:00:00",21,17.2,23.2,28.6,35.2],
    [5390,"FF1721AC76217484","กองดิจิทัลเพื่อการควบคุมโรค","2023-03-12T00:00:00",22,13.9,18.7,26.6,40],
    [5391,"FF1721AC76217484","กองดิจิทัลเพื่อการควบคุมโรค","2023-03-12T00:00:00",23,9.5,12.4,23.9,44.3],
    [5392,"FF1721AC76217471","ด่านฯสะพานมิตรภาพ 1 หนองคาย","2023-04-12T00:00:00",0,30.4,39.4,21.7,40.9],
    [5393,"FF1721AC76217471","ด่านฯสะพานมิตรภาพ 1 หนองคาย","2023-04-12T00:00:00",1,27.6,42.8,21.2,41.3],
    [5394,"FF1721AC76217471","ด่านฯสะพานมิตรภาพ 1 หนองคาย","2023-04-12T00:00:00",2,28,39.6,20.8,43.1],
    [5395,"FF1721AC76217471","ด่านฯสะพานมิตรภาพ 1 หนองคาย","2023-04-12T00:00:00",3,27.1,33.4,20.8,42.5],
    [5396,"FF1721AC76217471","ด่านฯสะพานมิตรภาพ 1 หนองคาย","2023-04-12T00:00:00",4,28.6,40.5,20.2,43.7],
    [5397,"FF1721AC76217471","ด่านฯสะพานมิตรภาพ 1 หนองคาย","2023-04-12T00:00:00",5,33.6,45.7,19.7,44.8],
    [5398,"FF1721AC76217471","ด่านฯสะพานมิตรภาพ 1 หนองคาย","2023-04-12T00:00:00",6,45.6,58.8,20,43.6],
    [5399,"FF1721AC76217471","ด่านฯสะพานมิตรภาพ 1 หนองคาย","2023-04-12T00:00:00",7,45.3,66.5,20.7,43.1],
    [5400,"FF1721AC76217471","ด่านฯสะพานมิตรภาพ 1 หนองคาย","2023-04-12T00:00:00",8,27.8,39.5,22.5,38],
    [5401,"FF1721AC76217471","ด่านฯสะพานมิตรภาพ 1 หนองคาย","2023-04-12T00:00:00",9,19.1,25.3,23.9,34.8],
    [5402,"FF1721AC76217471","ด่านฯสะพานมิตรภาพ 1 หนองคาย","2023-04-12T00:00:00",10,12.9,17.5,25.9,31.6],
    [5403,"FF1721AC76217471","ด่านฯสะพานมิตรภาพ 1 หนองคาย","2023-04-12T00:00:00",11,16.3,23.7,26.8,30.7],
    [5404,"FF1721AC76217471","ด่านฯสะพานมิตรภาพ 1 หนองคาย","2023-04-12T00:00:00",12,13,17.3,27.3,30],
    [5405,"FF1721AC76217471","ด่านฯสะพานมิตรภาพ 1 หนองคาย","2023-04-12T00:00:00",13,17.2,20.8,29.1,28.2],
    [5406,"FF1721AC76217471","ด่านฯสะพานมิตรภาพ 1 หนองคาย","2023-04-12T00:00:00",14,18.9,25.3,28.7,27.4],
    [5407,"FF1721AC76217471","ด่านฯสะพานมิตรภาพ 1 หนองคาย","2023-04-12T00:00:00",15,21.8,27.2,29.2,27.7],
    [5408,"FF1721AC76217471","ด่านฯสะพานมิตรภาพ 1 หนองคาย","2023-04-12T00:00:00",16,18,24.4,28.9,27.7],
    [5409,"FF1721AC76217471","ด่านฯสะพานมิตรภาพ 1 หนองคาย","2023-04-12T00:00:00",17,23.9,31.4,26.5,32.6],
    [5410,"FF1721AC76217471","ด่านฯสะพานมิตรภาพ 1 หนองคาย","2023-04-12T00:00:00",18,44.2,62.6,24.9,36.5],
    [5411,"FF1721AC76217471","ด่านฯสะพานมิตรภาพ 1 หนองคาย","2023-04-12T00:00:00",19,61.1,87.9,24.1,38.5],
    [5412,"FF1721AC76217471","ด่านฯสะพานมิตรภาพ 1 หนองคาย","2023-04-12T00:00:00",20,71.4,95.2,23.5,39.7],
    [5413,"FF1721AC76217471","ด่านฯสะพานมิตรภาพ 1 หนองคาย","2023-04-12T00:00:00",21,76.1,107.9,22.8,41.4],
    [5414,"FF1721AC76217471","ด่านฯสะพานมิตรภาพ 1 หนองคาย","2023-04-12T00:00:00",22,100,128.2,22.4,42.2],
    [5415,"FF1721AC76217471","ด่านฯสะพานมิตรภาพ 1 หนองคาย","2023-04-12T00:00:00",23,83.9,116.2,22.1,42.5],
    [5416,"FF1721AC76217473","ด่านฯสถานีรถไฟหนองคาย","2023-04-12T00:00:00",0,35.5,50.1,21.8,39.4],
    [5417,"FF1721AC76217473","ด่านฯสถานีรถไฟหนองคาย","2023-04-12T00:00:00",1,33.1,46.3,21.3,40.1],
    [5418,"FF1721AC76217473","ด่านฯสถานีรถไฟหนองคาย","2023-04-12T00:00:00",2,32.5,49.3,21,41.3],
    [5419,"FF1721AC76217473","ด่านฯสถานีรถไฟหนองคาย","2023-04-12T00:00:00",3,31.3,43.5,20.7,41.6],
    [5420,"FF1721AC76217473","ด่านฯสถานีรถไฟหนองคาย","2023-04-12T00:00:00",4,35,47.8,20,43.4],
    [5421,"FF1721AC76217473","ด่านฯสถานีรถไฟหนองคาย","2023-04-12T00:00:00",5,37.4,54.8,20,43.1],
    [5422,"FF1721AC76217473","ด่านฯสถานีรถไฟหนองคาย","2023-04-12T00:00:00",6,43.3,63,20.1,42.8],
    [5423,"FF1721AC76217473","ด่านฯสถานีรถไฟหนองคาย","2023-04-12T00:00:00",7,51.4,88.3,23.1,37.9],
    [5424,"FF1721AC76217473","ด่านฯสถานีรถไฟหนองคาย","2023-04-12T00:00:00",8,29.9,39.9,23.1,35.7],
    [5425,"FF1721AC76217473","ด่านฯสถานีรถไฟหนองคาย","2023-04-12T00:00:00",9,18.2,23,24.6,33.3],
    [5426,"FF1721AC76217473","ด่านฯสถานีรถไฟหนองคาย","2023-04-12T00:00:00",10,14.4,16.5,25.8,31.2],
    [5427,"FF1721AC76217473","ด่านฯสถานีรถไฟหนองคาย","2023-04-12T00:00:00",11,17.9,20.9,27.8,29.3],
    [5428,"FF1721AC76217473","ด่านฯสถานีรถไฟหนองคาย","2023-04-12T00:00:00",12,14.7,19.8,29.8,26.5],
    [5429,"FF1721AC76217473","ด่านฯสถานีรถไฟหนองคาย","2023-04-12T00:00:00",13,20.9,27.6,30,26],
    [5430,"FF1721AC76217473","ด่านฯสถานีรถไฟหนองคาย","2023-04-12T00:00:00",14,25.2,32.2,29.6,26],
    [5431,"FF1721AC76217473","ด่านฯสถานีรถไฟหนองคาย","2023-04-12T00:00:00",15,27.7,31.4,28.7,27.3],
    [5432,"FF1721AC76217473","ด่านฯสถานีรถไฟหนองคาย","2023-04-12T00:00:00",16,28,32.3,28.2,27.8],
    [5433,"FF1721AC76217473","ด่านฯสถานีรถไฟหนองคาย","2023-04-12T00:00:00",17,27.7,37.8,26.9,30.1],
    [5434,"FF1721AC76217473","ด่านฯสถานีรถไฟหนองคาย","2023-04-12T00:00:00",18,44.9,69.4,25.6,33.3],
    [5435,"FF1721AC76217473","ด่านฯสถานีรถไฟหนองคาย","2023-04-12T00:00:00",19,47.5,73.7,24.6,35.7],
    [5436,"FF1721AC76217473","ด่านฯสถานีรถไฟหนองคาย","2023-04-12T00:00:00",20,50.2,74.9,23.4,37.9],
    [5437,"FF1721AC76217473","ด่านฯสถานีรถไฟหนองคาย","2023-04-12T00:00:00",21,54,84.2,23,38.2],
    [5438,"FF1721AC76217473","ด่านฯสถานีรถไฟหนองคาย","2023-04-12T00:00:00",22,56.3,83.8,22.4,39.7],
    [5439,"FF1721AC76217473","ด่านฯสถานีรถไฟหนองคาย","2023-04-12T00:00:00",23,50.6,76.2,22,40.5],
    [5440,"FF1721AC76217475","ด่านฯท่าอากาศยานอุดรธานี","2023-04-12T00:00:00",0,25.7,34.1,22.9,36.7],
    [5441,"FF1721AC76217475","ด่านฯท่าอากาศยานอุดรธานี","2023-04-12T00:00:00",1,28.7,38.1,21.6,39.4],
    [5442,"FF1721AC76217475","ด่านฯท่าอากาศยานอุดรธานี","2023-04-12T00:00:00",2,30,37.3,21.8,39.2],
    [5443,"FF1721AC76217475","ด่านฯท่าอากาศยานอุดรธานี","2023-04-12T00:00:00",3,30.9,39.9,21.8,39.2],
    [5444,"FF1721AC76217475","ด่านฯท่าอากาศยานอุดรธานี","2023-04-12T00:00:00",4,27.2,33.8,21.6,39],
    [5445,"FF1721AC76217475","ด่านฯท่าอากาศยานอุดรธานี","2023-04-12T00:00:00",5,35.7,50,20.6,41],
    [5446,"FF1721AC76217475","ด่านฯท่าอากาศยานอุดรธานี","2023-04-12T00:00:00",6,38.6,57.1,20.9,40.9],
    [5447,"FF1721AC76217475","ด่านฯท่าอากาศยานอุดรธานี","2023-04-12T00:00:00",7,32.7,41.4,22.9,36.1],
    [5448,"FF1721AC76217475","ด่านฯท่าอากาศยานอุดรธานี","2023-04-12T00:00:00",8,18.6,24.5,24.4,32.7],
    [5449,"FF1721AC76217475","ด่านฯท่าอากาศยานอุดรธานี","2023-04-12T00:00:00",9,14.8,17.4,26.6,29.2],
    [5450,"FF1721AC76217475","ด่านฯท่าอากาศยานอุดรธานี","2023-04-12T00:00:00",10,11.8,13.9,27.5,27.4],
    [5451,"FF1721AC76217475","ด่านฯท่าอากาศยานอุดรธานี","2023-04-12T00:00:00",11,9.2,13.2,29.1,25.5],
    [5452,"FF1721AC76217475","ด่านฯท่าอากาศยานอุดรธานี","2023-04-12T00:00:00",12,15.2,11,30.3,23.9],
    [5453,"FF1721AC76217475","ด่านฯท่าอากาศยานอุดรธานี","2023-04-12T00:00:00",13,15.9,10,31.8,22.4],
    [5454,"FF1721AC76217475","ด่านฯท่าอากาศยานอุดรธานี","2023-04-12T00:00:00",14,7.9,10,31.7,22.5],
    [5455,"FF1721AC76217475","ด่านฯท่าอากาศยานอุดรธานี","2023-04-12T00:00:00",15,12.2,9.9,31.4,22.7],
    [5456,"FF1721AC76217475","ด่านฯท่าอากาศยานอุดรธานี","2023-04-12T00:00:00",16,9,11.9,31.5,22.5],
    [5457,"FF1721AC76217475","ด่านฯท่าอากาศยานอุดรธานี","2023-04-12T00:00:00",17,8.7,11.2,28.9,25.5],
    [5458,"FF1721AC76217475","ด่านฯท่าอากาศยานอุดรธานี","2023-04-12T00:00:00",18,17.1,21.6,28.2,27.3],
    [5459,"FF1721AC76217475","ด่านฯท่าอากาศยานอุดรธานี","2023-04-12T00:00:00",19,26.9,37.2,26.5,31.1],
    [5460,"FF1721AC76217475","ด่านฯท่าอากาศยานอุดรธานี","2023-04-12T00:00:00",20,39.6,58,25.4,33.4],
    [5461,"FF1721AC76217475","ด่านฯท่าอากาศยานอุดรธานี","2023-04-12T00:00:00",21,42.4,61.7,24.5,35.7],
    [5462,"FF1721AC76217475","ด่านฯท่าอากาศยานอุดรธานี","2023-04-12T00:00:00",22,44.2,66.8,23.4,38.1],
    [5463,"FF1721AC76217475","ด่านฯท่าอากาศยานอุดรธานี","2023-04-12T00:00:00",23,49.4,73.7,23.1,38.8],
    [5464,"FF1721AC76217484","กองดิจิทัลเพื่อการควบคุมโรค","2023-04-12T00:00:00",0,36.2,58.9,24.5,44.1],
    [5465,"FF1721AC76217484","กองดิจิทัลเพื่อการควบคุมโรค","2023-04-12T00:00:00",1,42.4,68.1,24.2,45.4],
    [5466,"FF1721AC76217484","กองดิจิทัลเพื่อการควบคุมโรค","2023-04-12T00:00:00",2,30.7,47,23.6,44.8],
    [5467,"FF1721AC76217484","กองดิจิทัลเพื่อการควบคุมโรค","2023-04-12T00:00:00",3,33.2,51.7,23.5,44.6],
    [5468,"FF1721AC76217484","กองดิจิทัลเพื่อการควบคุมโรค","2023-04-12T00:00:00",4,32.8,50.8,24.1,43.3],
    [5469,"FF1721AC76217484","กองดิจิทัลเพื่อการควบคุมโรค","2023-04-12T00:00:00",5,31.4,48.3,24.2,43],
    [5470,"FF1721AC76217484","กองดิจิทัลเพื่อการควบคุมโรค","2023-04-12T00:00:00",6,33.1,52,24,43.8],
    [5471,"FF1721AC76217484","กองดิจิทัลเพื่อการควบคุมโรค","2023-04-12T00:00:00",7,37.8,61.6,24.4,43.1],
    [5472,"FF1721AC76217484","กองดิจิทัลเพื่อการควบคุมโรค","2023-04-12T00:00:00",8,29,40.8,26.3,38.8],
    [5473,"FF1721AC76217484","กองดิจิทัลเพื่อการควบคุมโรค","2023-04-12T00:00:00",9,15.3,21.2,27.7,35.1],
    [5474,"FF1721AC76217484","กองดิจิทัลเพื่อการควบคุมโรค","2023-04-12T00:00:00",10,11.9,15.5,28.9,32.7],
    [5475,"FF1721AC76217484","กองดิจิทัลเพื่อการควบคุมโรค","2023-04-12T00:00:00",11,10.5,14.4,30.9,30.5],
    [5476,"FF1721AC76217484","กองดิจิทัลเพื่อการควบคุมโรค","2023-04-12T00:00:00",12,10.2,13.3,31.9,30],
    [5477,"FF1721AC76217484","กองดิจิทัลเพื่อการควบคุมโรค","2023-04-12T00:00:00",13,10.2,13.5,31.5,30.7],
    [5478,"FF1721AC76217484","กองดิจิทัลเพื่อการควบคุมโรค","2023-04-12T00:00:00",14,8.5,17.1,32.1,29.6],
    [5479,"FF1721AC76217484","กองดิจิทัลเพื่อการควบคุมโรค","2023-04-12T00:00:00",15,7,9.8,31.3,29.8],
    [5480,"FF1721AC76217484","กองดิจิทัลเพื่อการควบคุมโรค","2023-04-12T00:00:00",16,6.6,9.1,31.4,30.1],
    [5481,"FF1721AC76217484","กองดิจิทัลเพื่อการควบคุมโรค","2023-04-12T00:00:00",17,8,10.8,29.6,32.2],
    [5482,"FF1721AC76217484","กองดิจิทัลเพื่อการควบคุมโรค","2023-04-12T00:00:00",18,10,11.8,29,33.2],
    [5483,"FF1721AC76217484","กองดิจิทัลเพื่อการควบคุมโรค","2023-04-12T00:00:00",19,22,32.2,28.1,35.3],
    [5484,"FF1721AC76217484","กองดิจิทัลเพื่อการควบคุมโรค","2023-04-12T00:00:00",20,29.8,45.9,27.1,36.3],
    [5485,"FF1721AC76217484","กองดิจิทัลเพื่อการควบคุมโรค","2023-04-12T00:00:00",21,38.1,57.4,26.5,37.9],
    [5486,"FF1721AC76217484","กองดิจิทัลเพื่อการควบคุมโรค","2023-04-12T00:00:00",22,40.2,64.8,26.1,39.4],
    [5487,"FF1721AC76217484","กองดิจิทัลเพื่อการควบคุมโรค","2023-04-12T00:00:00",23,39,61.7,26,39.9],
    [5488,"FF1721AC76217471","ด่านฯสะพานมิตรภาพ 1 หนองคาย","2023-05-12T00:00:00",0,55,81.5,22,42.7],
    [5489,"FF1721AC76217471","ด่านฯสะพานมิตรภาพ 1 หนองคาย","2023-05-12T00:00:00",1,50.5,75.9,20.7,44.7],
    [5490,"FF1721AC76217471","ด่านฯสะพานมิตรภาพ 1 หนองคาย","2023-05-12T00:00:00",2,39.9,59.5,20.6,44.3],
    [5491,"FF1721AC76217471","ด่านฯสะพานมิตรภาพ 1 หนองคาย","2023-05-12T00:00:00",3,38.7,56.6,20.3,45.2],
    [5492,"FF1721AC76217471","ด่านฯสะพานมิตรภาพ 1 หนองคาย","2023-05-12T00:00:00",4,35.6,52,20.1,45],
    [5493,"FF1721AC76217471","ด่านฯสะพานมิตรภาพ 1 หนองคาย","2023-05-12T00:00:00",5,31.2,44.8,20.1,43.7],
    [5494,"FF1721AC76217471","ด่านฯสะพานมิตรภาพ 1 หนองคาย","2023-05-12T00:00:00",6,32.1,46.6,19.9,44.5],
    [5495,"FF1721AC76217471","ด่านฯสะพานมิตรภาพ 1 หนองคาย","2023-05-12T00:00:00",7,30.8,44.5,20.9,42.4],
    [5496,"FF1721AC76217471","ด่านฯสะพานมิตรภาพ 1 หนองคาย","2023-05-12T00:00:00",8,26.9,34.5,22.5,38.7],
    [5497,"FF1721AC76217471","ด่านฯสะพานมิตรภาพ 1 หนองคาย","2023-05-12T00:00:00",9,22.2,29.8,24,36.3],
    [5498,"FF1721AC76217471","ด่านฯสะพานมิตรภาพ 1 หนองคาย","2023-05-12T00:00:00",10,21.9,31,25,34.6],
    [5499,"FF1721AC76217471","ด่านฯสะพานมิตรภาพ 1 หนองคาย","2023-05-12T00:00:00",11,18.7,27.2,26.4,32.6],
    [5500,"FF1721AC76217471","ด่านฯสะพานมิตรภาพ 1 หนองคาย","2023-05-12T00:00:00",12,18.3,22.6,28,30],
    [5501,"FF1721AC76217471","ด่านฯสะพานมิตรภาพ 1 หนองคาย","2023-05-12T00:00:00",13,18.8,23.3,28.6,27.9],
    [5502,"FF1721AC76217471","ด่านฯสะพานมิตรภาพ 1 หนองคาย","2023-05-12T00:00:00",14,17.6,23.7,29.8,26.6],
    [5503,"FF1721AC76217471","ด่านฯสะพานมิตรภาพ 1 หนองคาย","2023-05-12T00:00:00",15,18.8,23.9,29.7,27],
    [5504,"FF1721AC76217471","ด่านฯสะพานมิตรภาพ 1 หนองคาย","2023-05-12T00:00:00",16,22.9,22.8,29.5,26.9],
    [5505,"FF1721AC76217471","ด่านฯสะพานมิตรภาพ 1 หนองคาย","2023-05-12T00:00:00",17,28,33.8,27.3,31.7],
    [5506,"FF1721AC76217471","ด่านฯสะพานมิตรภาพ 1 หนองคาย","2023-05-12T00:00:00",18,37.2,52.4,25.3,35.3],
    [5507,"FF1721AC76217471","ด่านฯสะพานมิตรภาพ 1 หนองคาย","2023-05-12T00:00:00",19,51.8,75.9,24.2,38.7],
    [5508,"FF1721AC76217471","ด่านฯสะพานมิตรภาพ 1 หนองคาย","2023-05-12T00:00:00",20,79.2,107,23.3,41.1],
    [5509,"FF1721AC76217471","ด่านฯสะพานมิตรภาพ 1 หนองคาย","2023-05-12T00:00:00",21,88.1,121.6,23.6,40.8],
    [5510,"FF1721AC76217471","ด่านฯสะพานมิตรภาพ 1 หนองคาย","2023-05-12T00:00:00",22,84.9,118.3,22.6,42.7],
    [5511,"FF1721AC76217471","ด่านฯสะพานมิตรภาพ 1 หนองคาย","2023-05-12T00:00:00",23,75.4,102.2,22.1,43.2],
    [5512,"FF1721AC76217473","ด่านฯสถานีรถไฟหนองคาย","2023-05-12T00:00:00",0,60.1,86.2,21.2,43],
    [5513,"FF1721AC76217473","ด่านฯสถานีรถไฟหนองคาย","2023-05-12T00:00:00",1,46.4,70,21.2,42.3],
    [5514,"FF1721AC76217473","ด่านฯสถานีรถไฟหนองคาย","2023-05-12T00:00:00",2,35.6,53,21.1,41.5],
    [5515,"FF1721AC76217473","ด่านฯสถานีรถไฟหนองคาย","2023-05-12T00:00:00",3,35,49.2,20.7,42.3],
    [5516,"FF1721AC76217473","ด่านฯสถานีรถไฟหนองคาย","2023-05-12T00:00:00",4,36.5,53.5,20.1,43.1],
    [5517,"FF1721AC76217473","ด่านฯสถานีรถไฟหนองคาย","2023-05-12T00:00:00",5,36.5,61.9,19.9,43.6],
    [5518,"FF1721AC76217473","ด่านฯสถานีรถไฟหนองคาย","2023-05-12T00:00:00",6,38.7,56,19.8,44.1],
    [5519,"FF1721AC76217473","ด่านฯสถานีรถไฟหนองคาย","2023-05-12T00:00:00",7,33.8,51.6,22,39.5],
    [5520,"FF1721AC76217473","ด่านฯสถานีรถไฟหนองคาย","2023-05-12T00:00:00",8,30.9,42.3,23.8,35.7],
    [5521,"FF1721AC76217473","ด่านฯสถานีรถไฟหนองคาย","2023-05-12T00:00:00",9,26.5,35.1,25.9,32.7],
    [5522,"FF1721AC76217473","ด่านฯสถานีรถไฟหนองคาย","2023-05-12T00:00:00",10,20.7,29.3,27.8,29.5],
    [5523,"FF1721AC76217473","ด่านฯสถานีรถไฟหนองคาย","2023-05-12T00:00:00",11,24,29.6,29,28.3],
    [5524,"FF1721AC76217473","ด่านฯสถานีรถไฟหนองคาย","2023-05-12T00:00:00",12,22.5,28.1,30.3,26.7],
    [5525,"FF1721AC76217473","ด่านฯสถานีรถไฟหนองคาย","2023-05-12T00:00:00",13,27.3,35,31,24.9],
    [5526,"FF1721AC76217473","ด่านฯสถานีรถไฟหนองคาย","2023-05-12T00:00:00",14,23.8,31,30.3,25.1],
    [5527,"FF1721AC76217473","ด่านฯสถานีรถไฟหนองคาย","2023-05-12T00:00:00",15,22.9,31.7,29,27.2],
    [5528,"FF1721AC76217473","ด่านฯสถานีรถไฟหนองคาย","2023-05-12T00:00:00",16,25.7,33.1,28.5,27.6],
    [5529,"FF1721AC76217473","ด่านฯสถานีรถไฟหนองคาย","2023-05-12T00:00:00",17,30.2,41.6,27.2,29.8],
    [5530,"FF1721AC76217473","ด่านฯสถานีรถไฟหนองคาย","2023-05-12T00:00:00",18,37.2,54.3,25.5,33.1],
    [5531,"FF1721AC76217473","ด่านฯสถานีรถไฟหนองคาย","2023-05-12T00:00:00",19,41.9,62.3,24.6,35.3],
    [5532,"FF1721AC76217473","ด่านฯสถานีรถไฟหนองคาย","2023-05-12T00:00:00",20,56.4,84,23.9,37.5],
    [5533,"FF1721AC76217473","ด่านฯสถานีรถไฟหนองคาย","2023-05-12T00:00:00",21,55.8,81.5,22.9,39.4],
    [5534,"FF1721AC76217473","ด่านฯสถานีรถไฟหนองคาย","2023-05-12T00:00:00",22,63.3,88.7,22.6,40.1],
    [5535,"FF1721AC76217473","ด่านฯสถานีรถไฟหนองคาย","2023-05-12T00:00:00",23,67.7,93.6,22.3,41.7],
    [5536,"FF1721AC76217475","ด่านฯท่าอากาศยานอุดรธานี","2023-05-12T00:00:00",0,49.5,74.9,23.2,38.6],
    [5537,"FF1721AC76217475","ด่านฯท่าอากาศยานอุดรธานี","2023-05-12T00:00:00",1,50.4,78.2,22.3,40.2],
    [5538,"FF1721AC76217475","ด่านฯท่าอากาศยานอุดรธานี","2023-05-12T00:00:00",2,48.5,74,22.1,40.5],
    [5539,"FF1721AC76217475","ด่านฯท่าอากาศยานอุดรธานี","2023-05-12T00:00:00",3,52.4,77,21.7,41.2],
    [5540,"FF1721AC76217475","ด่านฯท่าอากาศยานอุดรธานี","2023-05-12T00:00:00",4,51.4,76.9,21.4,41.8],
    [5541,"FF1721AC76217475","ด่านฯท่าอากาศยานอุดรธานี","2023-05-12T00:00:00",5,36.5,49.9,21.4,40.4],
    [5542,"FF1721AC76217475","ด่านฯท่าอากาศยานอุดรธานี","2023-05-12T00:00:00",6,39.5,55.1,21.2,41],
    [5543,"FF1721AC76217475","ด่านฯท่าอากาศยานอุดรธานี","2023-05-12T00:00:00",7,38.2,53.6,22.7,37.8],
    [5544,"FF1721AC76217475","ด่านฯท่าอากาศยานอุดรธานี","2023-05-12T00:00:00",8,20.3,27.6,25.7,31.6],
    [5545,"FF1721AC76217475","ด่านฯท่าอากาศยานอุดรธานี","2023-05-12T00:00:00",9,15.1,20.3,27.6,29.3],
    [5546,"FF1721AC76217475","ด่านฯท่าอากาศยานอุดรธานี","2023-05-12T00:00:00",10,14.9,21.1,29.4,26.6],
    [5547,"FF1721AC76217475","ด่านฯท่าอากาศยานอุดรธานี","2023-05-12T00:00:00",11,15.1,20,30.6,25.3],
    [5548,"FF1721AC76217475","ด่านฯท่าอากาศยานอุดรธานี","2023-05-12T00:00:00",12,15.9,19.9,31.9,23.8],
    [5549,"FF1721AC76217475","ด่านฯท่าอากาศยานอุดรธานี","2023-05-12T00:00:00",13,15.3,17.2,32.9,22.8],
    [5550,"FF1721AC76217475","ด่านฯท่าอากาศยานอุดรธานี","2023-05-12T00:00:00",14,13.1,18.7,32.6,21.9],
    [5551,"FF1721AC76217475","ด่านฯท่าอากาศยานอุดรธานี","2023-05-12T00:00:00",15,13.6,17.2,32.8,21.6],
    [5552,"FF1721AC76217475","ด่านฯท่าอากาศยานอุดรธานี","2023-05-12T00:00:00",16,16.5,22.2,30.8,24.3],
    [5553,"FF1721AC76217475","ด่านฯท่าอากาศยานอุดรธานี","2023-05-12T00:00:00",17,17,23.2,29.3,26],
    [5554,"FF1721AC76217475","ด่านฯท่าอากาศยานอุดรธานี","2023-05-12T00:00:00",18,22,33,28.7,27.3],
    [5555,"FF1721AC76217475","ด่านฯท่าอากาศยานอุดรธานี","2023-05-12T00:00:00",19,31,47.1,27.3,30.6],
    [5556,"FF1721AC76217475","ด่านฯท่าอากาศยานอุดรธานี","2023-05-12T00:00:00",20,36.5,54.2,26.2,32.7],
    [5557,"FF1721AC76217475","ด่านฯท่าอากาศยานอุดรธานี","2023-05-12T00:00:00",21,44.9,66.5,24.7,36.4],
    [5558,"FF1721AC76217475","ด่านฯท่าอากาศยานอุดรธานี","2023-05-12T00:00:00",22,49.5,73.9,23.4,39.2],
    [5559,"FF1721AC76217475","ด่านฯท่าอากาศยานอุดรธานี","2023-05-12T00:00:00",23,48.2,74.1,24.2,37.3],
    [5560,"FF1721AC76217484","กองดิจิทัลเพื่อการควบคุมโรค","2023-05-12T00:00:00",0,38,60.3,25.9,39.9],
    [5561,"FF1721AC76217484","กองดิจิทัลเพื่อการควบคุมโรค","2023-05-12T00:00:00",1,36.6,54.9,26,39.8],
    [5562,"FF1721AC76217484","กองดิจิทัลเพื่อการควบคุมโรค","2023-05-12T00:00:00",2,34.9,55.8,25.2,41.2],
    [5563,"FF1721AC76217484","กองดิจิทัลเพื่อการควบคุมโรค","2023-05-12T00:00:00",3,33.7,51.2,24.8,41.5],
    [5564,"FF1721AC76217484","กองดิจิทัลเพื่อการควบคุมโรค","2023-05-12T00:00:00",4,35.8,60.2,24.7,41.7],
    [5565,"FF1721AC76217484","กองดิจิทัลเพื่อการควบคุมโรค","2023-05-12T00:00:00",5,35.2,52.3,24.5,42.1],
    [5566,"FF1721AC76217484","กองดิจิทัลเพื่อการควบคุมโรค","2023-05-12T00:00:00",6,37.4,59.8,25,41.3],
    [5567,"FF1721AC76217484","กองดิจิทัลเพื่อการควบคุมโรค","2023-05-12T00:00:00",7,38.8,63,25.1,40.9],
    [5568,"FF1721AC76217484","กองดิจิทัลเพื่อการควบคุมโรค","2023-05-12T00:00:00",8,41.6,67,26.5,38.3],
    [5569,"FF1721AC76217484","กองดิจิทัลเพื่อการควบคุมโรค","2023-05-12T00:00:00",9,33.6,52.1,29.6,33.3],
    [5570,"FF1721AC76217484","กองดิจิทัลเพื่อการควบคุมโรค","2023-05-12T00:00:00",10,27.9,41.7,31.2,31],
    [5571,"FF1721AC76217484","กองดิจิทัลเพื่อการควบคุมโรค","2023-05-12T00:00:00",11,21.5,26.5,32.1,29.5],
    [5572,"FF1721AC76217484","กองดิจิทัลเพื่อการควบคุมโรค","2023-05-12T00:00:00",12,15.7,24.7,32.5,28.8],
    [5573,"FF1721AC76217484","กองดิจิทัลเพื่อการควบคุมโรค","2023-05-12T00:00:00",13,13.7,20.4,33.8,27],
    [5574,"FF1721AC76217484","กองดิจิทัลเพื่อการควบคุมโรค","2023-05-12T00:00:00",14,13.5,16.6,33.2,26.9],
    [5575,"FF1721AC76217484","กองดิจิทัลเพื่อการควบคุมโรค","2023-05-12T00:00:00",15,12.2,16.3,32,27.9],
    [5576,"FF1721AC76217484","กองดิจิทัลเพื่อการควบคุมโรค","2023-05-12T00:00:00",16,31.5,50.2,29.9,33.3],
    [5577,"FF1721AC76217484","กองดิจิทัลเพื่อการควบคุมโรค","2023-05-12T00:00:00",17,33,51.7,27.8,36.8],
    [5578,"FF1721AC76217484","กองดิจิทัลเพื่อการควบคุมโรค","2023-05-12T00:00:00",18,24.1,35.5,27.3,36.8],
    [5579,"FF1721AC76217484","กองดิจิทัลเพื่อการควบคุมโรค","2023-05-12T00:00:00",19,21.7,32.7,26.7,38],
    [5580,"FF1721AC76217484","กองดิจิทัลเพื่อการควบคุมโรค","2023-05-12T00:00:00",20,27.1,36.5,26.9,38],
    [5581,"FF1721AC76217484","กองดิจิทัลเพื่อการควบคุมโรค","2023-05-12T00:00:00",21,29.9,45.4,27.4,37.7],
    [5582,"FF1721AC76217484","กองดิจิทัลเพื่อการควบคุมโรค","2023-05-12T00:00:00",22,30.7,45.8,27,37.9],
    [5583,"FF1721AC76217484","กองดิจิทัลเพื่อการควบคุมโรค","2023-05-12T00:00:00",23,30.4,45.9,26.8,38.6],
    [5584,"FF1721AC76217471","ด่านฯสะพานมิตรภาพ 1 หนองคาย","2023-06-12T00:00:00",0,67.1,95.6,23.1,42.2],
    [5585,"FF1721AC76217471","ด่านฯสะพานมิตรภาพ 1 หนองคาย","2023-06-12T00:00:00",1,63.2,88.7,21.7,45.3],
    [5586,"FF1721AC76217471","ด่านฯสะพานมิตรภาพ 1 หนองคาย","2023-06-12T00:00:00",2,76.4,103.1,21.5,45.4],
    [5587,"FF1721AC76217471","ด่านฯสะพานมิตรภาพ 1 หนองคาย","2023-06-12T00:00:00",3,76,104.5,21.1,45.5],
    [5588,"FF1721AC76217471","ด่านฯสะพานมิตรภาพ 1 หนองคาย","2023-06-12T00:00:00",4,81.8,110.3,20.5,46.5],
    [5589,"FF1721AC76217471","ด่านฯสะพานมิตรภาพ 1 หนองคาย","2023-06-12T00:00:00",5,71.6,99.4,20.3,46.3],
    [5590,"FF1721AC76217471","ด่านฯสะพานมิตรภาพ 1 หนองคาย","2023-06-12T00:00:00",6,68.1,92.3,20.2,46.7],
    [5591,"FF1721AC76217471","ด่านฯสะพานมิตรภาพ 1 หนองคาย","2023-06-12T00:00:00",7,45.5,66.3,21.3,44.1],
    [5592,"FF1721AC76217471","ด่านฯสะพานมิตรภาพ 1 หนองคาย","2023-06-12T00:00:00",8,25.8,31.5,22.7,40.9],
    [5593,"FF1721AC76217471","ด่านฯสะพานมิตรภาพ 1 หนองคาย","2023-06-12T00:00:00",9,20.5,25.9,24.3,38.3],
    [5594,"FF1721AC76217471","ด่านฯสะพานมิตรภาพ 1 หนองคาย","2023-06-12T00:00:00",10,16.9,23.6,26.1,34.7],
    [5595,"FF1721AC76217471","ด่านฯสะพานมิตรภาพ 1 หนองคาย","2023-06-12T00:00:00",11,20,26.4,27.3,31.5],
    [5596,"FF1721AC76217471","ด่านฯสะพานมิตรภาพ 1 หนองคาย","2023-06-12T00:00:00",12,22,28.8,29.9,27],
    [5597,"FF1721AC76217471","ด่านฯสะพานมิตรภาพ 1 หนองคาย","2023-06-12T00:00:00",13,23.5,30.4,30.9,26.8],
    [5598,"FF1721AC76217471","ด่านฯสะพานมิตรภาพ 1 หนองคาย","2023-06-12T00:00:00",14,24.3,33.5,31.6,25.9],
    [5599,"FF1721AC76217471","ด่านฯสะพานมิตรภาพ 1 หนองคาย","2023-06-12T00:00:00",15,23.6,29.1,31,26.9],
    [5600,"FF1721AC76217471","ด่านฯสะพานมิตรภาพ 1 หนองคาย","2023-06-12T00:00:00",16,28.1,36.1,30.8,27],
    [5601,"FF1721AC76217471","ด่านฯสะพานมิตรภาพ 1 หนองคาย","2023-06-12T00:00:00",17,31,33.2,28.5,30.3],
    [5602,"FF1721AC76217471","ด่านฯสะพานมิตรภาพ 1 หนองคาย","2023-06-12T00:00:00",18,32.7,44.4,26.8,34],
    [5603,"FF1721AC76217471","ด่านฯสะพานมิตรภาพ 1 หนองคาย","2023-06-12T00:00:00",19,32.6,44.1,26.1,34.8],
    [5604,"FF1721AC76217471","ด่านฯสะพานมิตรภาพ 1 หนองคาย","2023-06-12T00:00:00",20,22.2,26.4,25.8,33.8],
    [5605,"FF1721AC76217471","ด่านฯสะพานมิตรภาพ 1 หนองคาย","2023-06-12T00:00:00",21,6,7.5,25,33.1],
    [5606,"FF1721AC76217471","ด่านฯสะพานมิตรภาพ 1 หนองคาย","2023-06-12T00:00:00",22,2.8,2.9,24.1,33.2],
    [5607,"FF1721AC76217471","ด่านฯสะพานมิตรภาพ 1 หนองคาย","2023-06-12T00:00:00",23,2.9,3.1,23.3,33.3],
    [5608,"FF1721AC76217473","ด่านฯสถานีรถไฟหนองคาย","2023-06-12T00:00:00",0,69.8,95.8,21.5,43.3],
    [5609,"FF1721AC76217473","ด่านฯสถานีรถไฟหนองคาย","2023-06-12T00:00:00",1,66,93.2,21.7,43.8],
    [5610,"FF1721AC76217473","ด่านฯสถานีรถไฟหนองคาย","2023-06-12T00:00:00",2,76.3,102.8,21.4,44.9],
    [5611,"FF1721AC76217473","ด่านฯสถานีรถไฟหนองคาย","2023-06-12T00:00:00",3,82.6,112.1,21.3,44.3],
    [5612,"FF1721AC76217473","ด่านฯสถานีรถไฟหนองคาย","2023-06-12T00:00:00",4,85.9,110.9,21.1,44.6],
    [5613,"FF1721AC76217473","ด่านฯสถานีรถไฟหนองคาย","2023-06-12T00:00:00",5,76.6,97.7,20.7,44.9],
    [5614,"FF1721AC76217473","ด่านฯสถานีรถไฟหนองคาย","2023-06-12T00:00:00",6,67.9,96.5,20.5,45],
    [5615,"FF1721AC76217473","ด่านฯสถานีรถไฟหนองคาย","2023-06-12T00:00:00",7,42.1,63.2,22.3,40.8],
    [5616,"FF1721AC76217473","ด่านฯสถานีรถไฟหนองคาย","2023-06-12T00:00:00",8,29.4,38.6,24.3,36.7],
    [5617,"FF1721AC76217473","ด่านฯสถานีรถไฟหนองคาย","2023-06-12T00:00:00",9,21.5,24.5,26.3,33.7],
    [5618,"FF1721AC76217473","ด่านฯสถานีรถไฟหนองคาย","2023-06-12T00:00:00",10,18.2,24,28.4,30.4],
    [5619,"FF1721AC76217473","ด่านฯสถานีรถไฟหนองคาย","2023-06-12T00:00:00",11,22.6,26.2,29.9,27.8],
    [5620,"FF1721AC76217473","ด่านฯสถานีรถไฟหนองคาย","2023-06-12T00:00:00",12,26.3,31.5,31.5,25.2],
    [5621,"FF1721AC76217473","ด่านฯสถานีรถไฟหนองคาย","2023-06-12T00:00:00",13,26.9,33.3,31.4,25.4],
    [5622,"FF1721AC76217473","ด่านฯสถานีรถไฟหนองคาย","2023-06-12T00:00:00",14,26.8,34.4,31.3,25.6],
    [5623,"FF1721AC76217473","ด่านฯสถานีรถไฟหนองคาย","2023-06-12T00:00:00",15,27.8,35.2,30.1,26.7],
    [5624,"FF1721AC76217473","ด่านฯสถานีรถไฟหนองคาย","2023-06-12T00:00:00",16,30.4,42.7,29.4,27.8],
    [5625,"FF1721AC76217473","ด่านฯสถานีรถไฟหนองคาย","2023-06-12T00:00:00",17,32.1,46.6,28.6,28.8],
    [5626,"FF1721AC76217473","ด่านฯสถานีรถไฟหนองคาย","2023-06-12T00:00:00",18,45.2,67.1,27.4,31.6],
    [5627,"FF1721AC76217473","ด่านฯสถานีรถไฟหนองคาย","2023-06-12T00:00:00",19,35.2,53.5,26.5,33.1],
    [5628,"FF1721AC76217473","ด่านฯสถานีรถไฟหนองคาย","2023-06-12T00:00:00",20,23,27.9,25.7,33.7],
    [5629,"FF1721AC76217473","ด่านฯสถานีรถไฟหนองคาย","2023-06-12T00:00:00",21,8.1,6.7,24.9,32.7],
    [5630,"FF1721AC76217473","ด่านฯสถานีรถไฟหนองคาย","2023-06-12T00:00:00",22,3.1,4.3,24,32.6],
    [5631,"FF1721AC76217473","ด่านฯสถานีรถไฟหนองคาย","2023-06-12T00:00:00",23,2,3.2,23.1,32.9],
    [5632,"FF1721AC76217475","ด่านฯท่าอากาศยานอุดรธานี","2023-06-12T00:00:00",0,49.5,72.7,23.9,37.5],
    [5633,"FF1721AC76217475","ด่านฯท่าอากาศยานอุดรธานี","2023-06-12T00:00:00",1,49.6,74.9,22.9,39.7],
    [5634,"FF1721AC76217475","ด่านฯท่าอากาศยานอุดรธานี","2023-06-12T00:00:00",2,51.5,77.7,22.8,40.3],
    [5635,"FF1721AC76217475","ด่านฯท่าอากาศยานอุดรธานี","2023-06-12T00:00:00",3,58.1,84.8,22.9,40.6],
    [5636,"FF1721AC76217475","ด่านฯท่าอากาศยานอุดรธานี","2023-06-12T00:00:00",4,63.2,86.7,22,41.8],
    [5637,"FF1721AC76217475","ด่านฯท่าอากาศยานอุดรธานี","2023-06-12T00:00:00",5,59.3,88.7,21.5,42.8],
    [5638,"FF1721AC76217475","ด่านฯท่าอากาศยานอุดรธานี","2023-06-12T00:00:00",6,56.7,84.6,21.5,42.5],
    [5639,"FF1721AC76217475","ด่านฯท่าอากาศยานอุดรธานี","2023-06-12T00:00:00",7,58.3,85.9,22.4,40.4],
    [5640,"FF1721AC76217475","ด่านฯท่าอากาศยานอุดรธานี","2023-06-12T00:00:00",8,59.5,84,25.2,36.2],
    [5641,"FF1721AC76217475","ด่านฯท่าอากาศยานอุดรธานี","2023-06-12T00:00:00",9,47.5,70.5,27.1,32.6],
    [5642,"FF1721AC76217475","ด่านฯท่าอากาศยานอุดรธานี","2023-06-12T00:00:00",10,40,65.7,29.2,29.5],
    [5643,"FF1721AC76217475","ด่านฯท่าอากาศยานอุดรธานี","2023-06-12T00:00:00",11,30.3,44.3,30.3,26.8],
    [5644,"FF1721AC76217475","ด่านฯท่าอากาศยานอุดรธานี","2023-06-12T00:00:00",12,24.1,28.1,30.6,25.8],
    [5645,"FF1721AC76217475","ด่านฯท่าอากาศยานอุดรธานี","2023-06-12T00:00:00",13,21.8,25.8,32,24.1],
    [5646,"FF1721AC76217475","ด่านฯท่าอากาศยานอุดรธานี","2023-06-12T00:00:00",14,19.6,25.5,31.9,24.1],
    [5647,"FF1721AC76217475","ด่านฯท่าอากาศยานอุดรธานี","2023-06-12T00:00:00",15,18.3,23.2,31.8,24.3],
    [5648,"FF1721AC76217475","ด่านฯท่าอากาศยานอุดรธานี","2023-06-12T00:00:00",16,14.9,17.2,31,24.8],
    [5649,"FF1721AC76217475","ด่านฯท่าอากาศยานอุดรธานี","2023-06-12T00:00:00",17,15.6,20.6,29.6,26.5],
    [5650,"FF1721AC76217475","ด่านฯท่าอากาศยานอุดรธานี","2023-06-12T00:00:00",18,23.3,28.6,28.7,28.2],
    [5651,"FF1721AC76217475","ด่านฯท่าอากาศยานอุดรธานี","2023-06-12T00:00:00",19,31.2,45.6,28.1,29.8],
    [5652,"FF1721AC76217475","ด่านฯท่าอากาศยานอุดรธานี","2023-06-12T00:00:00",20,24.3,29.9,26.9,30.9],
    [5653,"FF1721AC76217475","ด่านฯท่าอากาศยานอุดรธานี","2023-06-12T00:00:00",21,16.4,19.8,25.6,32.8],
    [5654,"FF1721AC76217475","ด่านฯท่าอากาศยานอุดรธานี","2023-06-12T00:00:00",22,8.7,10.3,24.4,34.1],
    [5655,"FF1721AC76217475","ด่านฯท่าอากาศยานอุดรธานี","2023-06-12T00:00:00",23,6.6,7.8,23.4,34.7],
    [5656,"FF1721AC76217484","กองดิจิทัลเพื่อการควบคุมโรค","2023-06-12T00:00:00",0,32.6,45.5,26.1,40],
    [5657,"FF1721AC76217484","กองดิจิทัลเพื่อการควบคุมโรค","2023-06-12T00:00:00",1,35.5,54.1,26.6,39.6],
    [5658,"FF1721AC76217484","กองดิจิทัลเพื่อการควบคุมโรค","2023-06-12T00:00:00",2,36,57.7,26,40.6],
    [5659,"FF1721AC76217484","กองดิจิทัลเพื่อการควบคุมโรค","2023-06-12T00:00:00",3,34.7,56,25.9,40.5],
    [5660,"FF1721AC76217484","กองดิจิทัลเพื่อการควบคุมโรค","2023-06-12T00:00:00",4,40.8,61.9,25,42.7],
    [5661,"FF1721AC76217484","กองดิจิทัลเพื่อการควบคุมโรค","2023-06-12T00:00:00",5,47.2,74.8,25.4,42.2],
    [5662,"FF1721AC76217484","กองดิจิทัลเพื่อการควบคุมโรค","2023-06-12T00:00:00",6,51.6,81.3,25.6,42],
    [5663,"FF1721AC76217484","กองดิจิทัลเพื่อการควบคุมโรค","2023-06-12T00:00:00",7,55.4,84.8,26.2,40.9],
    [5664,"FF1721AC76217484","กองดิจิทัลเพื่อการควบคุมโรค","2023-06-12T00:00:00",8,49.9,76.4,27.6,38],
    [5665,"FF1721AC76217484","กองดิจิทัลเพื่อการควบคุมโรค","2023-06-12T00:00:00",9,34.1,58.8,29.6,34],
    [5666,"FF1721AC76217484","กองดิจิทัลเพื่อการควบคุมโรค","2023-06-12T00:00:00",10,23.5,33.8,32,30.2],
    [5667,"FF1721AC76217484","กองดิจิทัลเพื่อการควบคุมโรค","2023-06-12T00:00:00",11,12.6,18.9,35.1,25.5],
    [5668,"FF1721AC76217484","กองดิจิทัลเพื่อการควบคุมโรค","2023-06-12T00:00:00",12,10,13.2,34,25.1],
    [5669,"FF1721AC76217484","กองดิจิทัลเพื่อการควบคุมโรค","2023-06-12T00:00:00",13,12.1,16.6,34.6,24.9],
    [5670,"FF1721AC76217484","กองดิจิทัลเพื่อการควบคุมโรค","2023-06-12T00:00:00",14,17.5,29.3,32.3,27.9],
    [5671,"FF1721AC76217484","กองดิจิทัลเพื่อการควบคุมโรค","2023-06-12T00:00:00",15,22.3,27.9,32,28.3],
    [5672,"FF1721AC76217484","กองดิจิทัลเพื่อการควบคุมโรค","2023-06-12T00:00:00",16,24.4,34,31.1,29.5],
    [5673,"FF1721AC76217484","กองดิจิทัลเพื่อการควบคุมโรค","2023-06-12T00:00:00",17,25.8,37.3,30.1,31.1],
    [5674,"FF1721AC76217484","กองดิจิทัลเพื่อการควบคุมโรค","2023-06-12T00:00:00",18,29.1,45.1,29.7,31.9],
    [5675,"FF1721AC76217484","กองดิจิทัลเพื่อการควบคุมโรค","2023-06-12T00:00:00",19,11.6,15.8,27.2,35],
    [5676,"FF1721AC76217484","กองดิจิทัลเพื่อการควบคุมโรค","2023-06-12T00:00:00",20,12.7,16.8,27.3,34.5],
    [5677,"FF1721AC76217484","กองดิจิทัลเพื่อการควบคุมโรค","2023-06-12T00:00:00",21,22.4,33.2,27.1,36],
    [5678,"FF1721AC76217484","กองดิจิทัลเพื่อการควบคุมโรค","2023-06-12T00:00:00",22,14.5,19.4,26.4,37.5],
    [5679,"FF1721AC76217484","กองดิจิทัลเพื่อการควบคุมโรค","2023-06-12T00:00:00",23,13.6,18,26,38.5],
    [5680,"FF1721AC76217471","ด่านฯสะพานมิตรภาพ 1 หนองคาย","2023-07-12T00:00:00",0,2.4,3.9,22.5,33.8],
    [5681,"FF1721AC76217471","ด่านฯสะพานมิตรภาพ 1 หนองคาย","2023-07-12T00:00:00",1,3.1,4.4,21.8,34.9],
    [5682,"FF1721AC76217471","ด่านฯสะพานมิตรภาพ 1 หนองคาย","2023-07-12T00:00:00",2,4.7,6.1,21.5,34.5],
    [5683,"FF1721AC76217471","ด่านฯสะพานมิตรภาพ 1 หนองคาย","2023-07-12T00:00:00",3,7.8,8.6,21,34.3],
    [5684,"FF1721AC76217471","ด่านฯสะพานมิตรภาพ 1 หนองคาย","2023-07-12T00:00:00",4,10.4,13.3,21,34.1],
    [5685,"FF1721AC76217471","ด่านฯสะพานมิตรภาพ 1 หนองคาย","2023-07-12T00:00:00",5,12.6,16.5,20.7,34.1],
    [5686,"FF1721AC76217471","ด่านฯสะพานมิตรภาพ 1 หนองคาย","2023-07-12T00:00:00",6,17.3,24.7,20.4,34.3],
    [5687,"FF1721AC76217471","ด่านฯสะพานมิตรภาพ 1 หนองคาย","2023-07-12T00:00:00",7,25.4,37.6,21.2,32.2],
    [5688,"FF1721AC76217471","ด่านฯสะพานมิตรภาพ 1 หนองคาย","2023-07-12T00:00:00",8,25.4,35.7,22.4,29.3],
    [5689,"FF1721AC76217471","ด่านฯสะพานมิตรภาพ 1 หนองคาย","2023-07-12T00:00:00",9,25.2,32.1,23.3,27.2],
    [5690,"FF1721AC76217471","ด่านฯสะพานมิตรภาพ 1 หนองคาย","2023-07-12T00:00:00",10,21.6,31.9,24,27.4],
    [5691,"FF1721AC76217471","ด่านฯสะพานมิตรภาพ 1 หนองคาย","2023-07-12T00:00:00",11,26.6,35.1,23.8,28.5],
    [5692,"FF1721AC76217471","ด่านฯสะพานมิตรภาพ 1 หนองคาย","2023-07-12T00:00:00",12,29.9,43.4,24.6,28.4],
    [5693,"FF1721AC76217471","ด่านฯสะพานมิตรภาพ 1 หนองคาย","2023-07-12T00:00:00",13,34.1,45.8,25.7,28.1],
    [5694,"FF1721AC76217471","ด่านฯสะพานมิตรภาพ 1 หนองคาย","2023-07-12T00:00:00",14,31.6,43.8,26.8,27.5],
    [5695,"FF1721AC76217471","ด่านฯสะพานมิตรภาพ 1 หนองคาย","2023-07-12T00:00:00",15,31.6,45.6,27.8,26],
    [5696,"FF1721AC76217471","ด่านฯสะพานมิตรภาพ 1 หนองคาย","2023-07-12T00:00:00",16,34.1,48.8,27.1,27.2],
    [5697,"FF1721AC76217471","ด่านฯสะพานมิตรภาพ 1 หนองคาย","2023-07-12T00:00:00",17,37.2,55.3,25.5,30.2],
    [5698,"FF1721AC76217471","ด่านฯสะพานมิตรภาพ 1 หนองคาย","2023-07-12T00:00:00",18,52.7,77.6,23.5,35],
    [5699,"FF1721AC76217471","ด่านฯสะพานมิตรภาพ 1 หนองคาย","2023-07-12T00:00:00",19,57.5,85.9,22.5,37.7],
    [5700,"FF1721AC76217471","ด่านฯสะพานมิตรภาพ 1 หนองคาย","2023-07-12T00:00:00",20,61.7,87.2,21.5,40.8],
    [5701,"FF1721AC76217471","ด่านฯสะพานมิตรภาพ 1 หนองคาย","2023-07-12T00:00:00",21,66,94.5,21.1,41.9],
    [5702,"FF1721AC76217471","ด่านฯสะพานมิตรภาพ 1 หนองคาย","2023-07-12T00:00:00",22,59.7,86.1,20.7,42.9],
    [5703,"FF1721AC76217471","ด่านฯสะพานมิตรภาพ 1 หนองคาย","2023-07-12T00:00:00",23,61.4,88.6,20.9,42.7],
    [5704,"FF1721AC76217473","ด่านฯสถานีรถไฟหนองคาย","2023-07-12T00:00:00",0,2.5,3.4,22.4,33.5],
    [5705,"FF1721AC76217473","ด่านฯสถานีรถไฟหนองคาย","2023-07-12T00:00:00",1,4.3,4.8,21.4,35.2],
    [5706,"FF1721AC76217473","ด่านฯสถานีรถไฟหนองคาย","2023-07-12T00:00:00",2,5.4,7,21.1,34.7],
    [5707,"FF1721AC76217473","ด่านฯสถานีรถไฟหนองคาย","2023-07-12T00:00:00",3,9,11.4,20.7,34.3],
    [5708,"FF1721AC76217473","ด่านฯสถานีรถไฟหนองคาย","2023-07-12T00:00:00",4,11.8,16,20.3,35],
    [5709,"FF1721AC76217473","ด่านฯสถานีรถไฟหนองคาย","2023-07-12T00:00:00",5,19.2,20.8,20,34.7],
    [5710,"FF1721AC76217473","ด่านฯสถานีรถไฟหนองคาย","2023-07-12T00:00:00",6,21.6,32.3,19.9,34.4],
    [5711,"FF1721AC76217473","ด่านฯสถานีรถไฟหนองคาย","2023-07-12T00:00:00",7,29.5,41.4,20.8,32.5],
    [5712,"FF1721AC76217473","ด่านฯสถานีรถไฟหนองคาย","2023-07-12T00:00:00",8,25.4,36.2,23.3,27.5],
    [5713,"FF1721AC76217473","ด่านฯสถานีรถไฟหนองคาย","2023-07-12T00:00:00",9,23.6,33.1,23.7,25.7],
    [5714,"FF1721AC76217473","ด่านฯสถานีรถไฟหนองคาย","2023-07-12T00:00:00",10,25.6,38.3,23.9,25.9],
    [5715,"FF1721AC76217473","ด่านฯสถานีรถไฟหนองคาย","2023-07-12T00:00:00",11,28.4,37.8,25.3,25.9],
    [5716,"FF1721AC76217473","ด่านฯสถานีรถไฟหนองคาย","2023-07-12T00:00:00",12,32.9,49.1,25.8,26.4],
    [5717,"FF1721AC76217473","ด่านฯสถานีรถไฟหนองคาย","2023-07-12T00:00:00",13,34.9,47.4,26.6,26.1],
    [5718,"FF1721AC76217473","ด่านฯสถานีรถไฟหนองคาย","2023-07-12T00:00:00",14,36.7,50.8,27.3,26.2],
    [5719,"FF1721AC76217473","ด่านฯสถานีรถไฟหนองคาย","2023-07-12T00:00:00",15,35.7,55.3,26.3,27.3],
    [5720,"FF1721AC76217473","ด่านฯสถานีรถไฟหนองคาย","2023-07-12T00:00:00",16,38.7,57.3,26,28.1],
    [5721,"FF1721AC76217473","ด่านฯสถานีรถไฟหนองคาย","2023-07-12T00:00:00",17,50.4,67.9,24.8,30.4],
    [5722,"FF1721AC76217473","ด่านฯสถานีรถไฟหนองคาย","2023-07-12T00:00:00",18,63.4,93.5,23.8,33],
    [5723,"FF1721AC76217473","ด่านฯสถานีรถไฟหนองคาย","2023-07-12T00:00:00",19,71.4,107.3,22.7,35.3],
    [5724,"FF1721AC76217473","ด่านฯสถานีรถไฟหนองคาย","2023-07-12T00:00:00",20,86.9,119.4,22.1,37.1],
    [5725,"FF1721AC76217473","ด่านฯสถานีรถไฟหนองคาย","2023-07-12T00:00:00",21,72.1,99.4,21.6,38.2],
    [5726,"FF1721AC76217473","ด่านฯสถานีรถไฟหนองคาย","2023-07-12T00:00:00",22,65,92.4,21.3,38.7],
    [5727,"FF1721AC76217473","ด่านฯสถานีรถไฟหนองคาย","2023-07-12T00:00:00",23,64,90.5,20.6,40.8],
    [5728,"FF1721AC76217475","ด่านฯท่าอากาศยานอุดรธานี","2023-07-12T00:00:00",0,4.2,4.4,22.4,34.3],
    [5729,"FF1721AC76217475","ด่านฯท่าอากาศยานอุดรธานี","2023-07-12T00:00:00",1,3.8,5.1,21.8,33.5],
    [5730,"FF1721AC76217475","ด่านฯท่าอากาศยานอุดรธานี","2023-07-12T00:00:00",2,6.9,10.6,21.2,33.3],
    [5731,"FF1721AC76217475","ด่านฯท่าอากาศยานอุดรธานี","2023-07-12T00:00:00",3,9.9,13.2,20.9,33.3],
    [5732,"FF1721AC76217475","ด่านฯท่าอากาศยานอุดรธานี","2023-07-12T00:00:00",4,13.6,17.7,20.7,33.8],
    [5733,"FF1721AC76217475","ด่านฯท่าอากาศยานอุดรธานี","2023-07-12T00:00:00",5,16.2,20.8,20.5,33.1],
    [5734,"FF1721AC76217475","ด่านฯท่าอากาศยานอุดรธานี","2023-07-12T00:00:00",6,18.3,25.3,20.6,33.1],
    [5735,"FF1721AC76217475","ด่านฯท่าอากาศยานอุดรธานี","2023-07-12T00:00:00",7,23.7,32.9,21.3,31.8],
    [5736,"FF1721AC76217475","ด่านฯท่าอากาศยานอุดรธานี","2023-07-12T00:00:00",8,20.7,28.3,23.4,28.5],
    [5737,"FF1721AC76217475","ด่านฯท่าอากาศยานอุดรธานี","2023-07-12T00:00:00",9,22.6,27.8,25.1,25.3],
    [5738,"FF1721AC76217475","ด่านฯท่าอากาศยานอุดรธานี","2023-07-12T00:00:00",10,18.1,25.3,25.5,23.5],
    [5739,"FF1721AC76217475","ด่านฯท่าอากาศยานอุดรธานี","2023-07-12T00:00:00",11,19,25.5,26.4,22.7],
    [5740,"FF1721AC76217475","ด่านฯท่าอากาศยานอุดรธานี","2023-07-12T00:00:00",12,18.6,27.7,27.6,21],
    [5741,"FF1721AC76217475","ด่านฯท่าอากาศยานอุดรธานี","2023-07-12T00:00:00",13,20.7,26.4,28.6,20],
    [5742,"FF1721AC76217475","ด่านฯท่าอากาศยานอุดรธานี","2023-07-12T00:00:00",14,21.3,26,29.6,19.8],
    [5743,"FF1721AC76217475","ด่านฯท่าอากาศยานอุดรธานี","2023-07-12T00:00:00",15,18.1,24.7,29.3,20.3],
    [5744,"FF1721AC76217475","ด่านฯท่าอากาศยานอุดรธานี","2023-07-12T00:00:00",16,20.5,27.5,28.7,21.7],
    [5745,"FF1721AC76217475","ด่านฯท่าอากาศยานอุดรธานี","2023-07-12T00:00:00",17,22,30.2,27.1,23.1],
    [5746,"FF1721AC76217475","ด่านฯท่าอากาศยานอุดรธานี","2023-07-12T00:00:00",18,33.2,43.6,26.2,25.2],
    [5747,"FF1721AC76217475","ด่านฯท่าอากาศยานอุดรธานี","2023-07-12T00:00:00",19,40,56.5,25.3,26.8],
    [5748,"FF1721AC76217475","ด่านฯท่าอากาศยานอุดรธานี","2023-07-12T00:00:00",20,39.6,56.8,24.6,30.9],
    [5749,"FF1721AC76217475","ด่านฯท่าอากาศยานอุดรธานี","2023-07-12T00:00:00",21,42.2,65.2,23.4,33.6],
    [5750,"FF1721AC76217475","ด่านฯท่าอากาศยานอุดรธานี","2023-07-12T00:00:00",22,48.4,74.6,21.6,36.9],
    [5751,"FF1721AC76217475","ด่านฯท่าอากาศยานอุดรธานี","2023-07-12T00:00:00",23,50.8,78.2,21.4,37.2],
    [5752,"FF1721AC76217484","กองดิจิทัลเพื่อการควบคุมโรค","2023-07-12T00:00:00",0,6.8,10,25.5,39.5],
    [5753,"FF1721AC76217484","กองดิจิทัลเพื่อการควบคุมโรค","2023-07-12T00:00:00",1,7.3,10.4,25.6,38.6],
    [5754,"FF1721AC76217484","กองดิจิทัลเพื่อการควบคุมโรค","2023-07-12T00:00:00",2,7.8,9.5,25.4,37.6],
    [5755,"FF1721AC76217484","กองดิจิทัลเพื่อการควบคุมโรค","2023-07-12T00:00:00",3,9.6,13,23.9,42.4],
    [5756,"FF1721AC76217484","กองดิจิทัลเพื่อการควบคุมโรค","2023-07-12T00:00:00",4,13.7,19.5,24.2,41.8],
    [5757,"FF1721AC76217484","กองดิจิทัลเพื่อการควบคุมโรค","2023-07-12T00:00:00",5,12.9,18.8,24.1,41.8],
    [5758,"FF1721AC76217484","กองดิจิทัลเพื่อการควบคุมโรค","2023-07-12T00:00:00",6,21.3,31.6,24.3,41.8],
    [5759,"FF1721AC76217484","กองดิจิทัลเพื่อการควบคุมโรค","2023-07-12T00:00:00",7,25.3,34.1,24.9,41.3],
    [5760,"FF1721AC76217484","กองดิจิทัลเพื่อการควบคุมโรค","2023-07-12T00:00:00",8,12,21.3,26.5,37.3],
    [5761,"FF1721AC76217484","กองดิจิทัลเพื่อการควบคุมโรค","2023-07-12T00:00:00",9,7.8,9.4,28.2,32.9],
    [5762,"FF1721AC76217484","กองดิจิทัลเพื่อการควบคุมโรค","2023-07-12T00:00:00",10,4.9,5.6,29.7,30.2],
    [5763,"FF1721AC76217484","กองดิจิทัลเพื่อการควบคุมโรค","2023-07-12T00:00:00",11,3.5,5.4,31.1,28],
    [5764,"FF1721AC76217484","กองดิจิทัลเพื่อการควบคุมโรค","2023-07-12T00:00:00",12,4.2,4.3,32.4,27.6],
    [5765,"FF1721AC76217484","กองดิจิทัลเพื่อการควบคุมโรค","2023-07-12T00:00:00",13,4.2,6.2,32.5,27.5],
    [5766,"FF1721AC76217484","กองดิจิทัลเพื่อการควบคุมโรค","2023-07-12T00:00:00",14,7.1,7.9,31.8,28.6],
    [5767,"FF1721AC76217484","กองดิจิทัลเพื่อการควบคุมโรค","2023-07-12T00:00:00",15,7.8,10.8,30.5,29.7],
    [5768,"FF1721AC76217484","กองดิจิทัลเพื่อการควบคุมโรค","2023-07-12T00:00:00",16,10,11.3,31.2,29.4],
    [5769,"FF1721AC76217484","กองดิจิทัลเพื่อการควบคุมโรค","2023-07-12T00:00:00",17,9.3,12,29.1,32],
    [5770,"FF1721AC76217484","กองดิจิทัลเพื่อการควบคุมโรค","2023-07-12T00:00:00",18,10.9,15,28.2,33.1],
    [5771,"FF1721AC76217484","กองดิจิทัลเพื่อการควบคุมโรค","2023-07-12T00:00:00",19,13.6,19.6,27.8,33.4],
    [5772,"FF1721AC76217484","กองดิจิทัลเพื่อการควบคุมโรค","2023-07-12T00:00:00",20,14.2,18.5,27.3,34.2],
    [5773,"FF1721AC76217484","กองดิจิทัลเพื่อการควบคุมโรค","2023-07-12T00:00:00",21,13.1,17.8,27.3,33.6],
    [5774,"FF1721AC76217484","กองดิจิทัลเพื่อการควบคุมโรค","2023-07-12T00:00:00",22,12.5,18,26.8,34.3],
    [5775,"FF1721AC76217484","กองดิจิทัลเพื่อการควบคุมโรค","2023-07-12T00:00:00",23,13.9,22.1,26.4,35.4],
    [5776,"FF1721AC76217471","ด่านฯสะพานมิตรภาพ 1 หนองคาย","2023-08-12T00:00:00",0,57.5,86.5,20.6,42.3],
    [5777,"FF1721AC76217471","ด่านฯสะพานมิตรภาพ 1 หนองคาย","2023-08-12T00:00:00",1,52.8,81,19.9,42.7],
    [5778,"FF1721AC76217471","ด่านฯสะพานมิตรภาพ 1 หนองคาย","2023-08-12T00:00:00",2,46,69.7,19.2,41.9],
    [5779,"FF1721AC76217471","ด่านฯสะพานมิตรภาพ 1 หนองคาย","2023-08-12T00:00:00",3,45,66.7,18.9,42.1],
    [5780,"FF1721AC76217471","ด่านฯสะพานมิตรภาพ 1 หนองคาย","2023-08-12T00:00:00",4,48.4,71.2,18.4,42.9],
    [5781,"FF1721AC76217471","ด่านฯสะพานมิตรภาพ 1 หนองคาย","2023-08-12T00:00:00",5,47,70.8,18.1,42.4],
    [5782,"FF1721AC76217471","ด่านฯสะพานมิตรภาพ 1 หนองคาย","2023-08-12T00:00:00",6,53.7,82,18,42.4],
    [5783,"FF1721AC76217471","ด่านฯสะพานมิตรภาพ 1 หนองคาย","2023-08-12T00:00:00",7,51.3,77.8,18.6,41.6],
    [5784,"FF1721AC76217471","ด่านฯสะพานมิตรภาพ 1 หนองคาย","2023-08-12T00:00:00",8,44.5,67.6,20.6,37.2],
    [5785,"FF1721AC76217471","ด่านฯสะพานมิตรภาพ 1 หนองคาย","2023-08-12T00:00:00",9,36.6,54.2,23.2,31.3],
    [5786,"FF1721AC76217471","ด่านฯสะพานมิตรภาพ 1 หนองคาย","2023-08-12T00:00:00",10,32.8,51.6,24.6,29.2],
    [5787,"FF1721AC76217471","ด่านฯสะพานมิตรภาพ 1 หนองคาย","2023-08-12T00:00:00",11,35.7,49.8,26.3,27.4],
    [5788,"FF1721AC76217471","ด่านฯสะพานมิตรภาพ 1 หนองคาย","2023-08-12T00:00:00",12,34.9,51.5,27.2,26.1],
    [5789,"FF1721AC76217471","ด่านฯสะพานมิตรภาพ 1 หนองคาย","2023-08-12T00:00:00",13,33.7,47.6,28.5,24.8],
    [5790,"FF1721AC76217471","ด่านฯสะพานมิตรภาพ 1 หนองคาย","2023-08-12T00:00:00",14,32.4,48.1,28.9,24.8],
    [5791,"FF1721AC76217471","ด่านฯสะพานมิตรภาพ 1 หนองคาย","2023-08-12T00:00:00",15,34.6,49.9,28.8,24.6],
    [5792,"FF1721AC76217471","ด่านฯสะพานมิตรภาพ 1 หนองคาย","2023-08-12T00:00:00",16,35.7,52.1,28,25.8],
    [5793,"FF1721AC76217471","ด่านฯสะพานมิตรภาพ 1 หนองคาย","2023-08-12T00:00:00",17,40.1,61.2,26,29.7],
    [5794,"FF1721AC76217471","ด่านฯสะพานมิตรภาพ 1 หนองคาย","2023-08-12T00:00:00",18,47.5,73.8,24.8,32.9],
    [5795,"FF1721AC76217471","ด่านฯสะพานมิตรภาพ 1 หนองคาย","2023-08-12T00:00:00",19,55.8,83.4,23.6,36.7],
    [5796,"FF1721AC76217471","ด่านฯสะพานมิตรภาพ 1 หนองคาย","2023-08-12T00:00:00",20,66.7,94.8,22.7,39.4],
    [5797,"FF1721AC76217471","ด่านฯสะพานมิตรภาพ 1 หนองคาย","2023-08-12T00:00:00",21,71.5,96.7,22.3,40.4],
    [5798,"FF1721AC76217471","ด่านฯสะพานมิตรภาพ 1 หนองคาย","2023-08-12T00:00:00",22,71.8,98.3,22.1,41.8],
    [5799,"FF1721AC76217471","ด่านฯสะพานมิตรภาพ 1 หนองคาย","2023-08-12T00:00:00",23,70.8,98.8,21.5,42.7],
    [5800,"FF1721AC76217473","ด่านฯสถานีรถไฟหนองคาย","2023-08-12T00:00:00",0,69.2,92.8,20.1,42.2],
    [5801,"FF1721AC76217473","ด่านฯสถานีรถไฟหนองคาย","2023-08-12T00:00:00",1,53.5,83.3,20,40.5],
    [5802,"FF1721AC76217473","ด่านฯสถานีรถไฟหนองคาย","2023-08-12T00:00:00",2,48.4,75.7,19.5,39.8],
    [5803,"FF1721AC76217473","ด่านฯสถานีรถไฟหนองคาย","2023-08-12T00:00:00",3,47.8,72.2,18.9,40.5],
    [5804,"FF1721AC76217473","ด่านฯสถานีรถไฟหนองคาย","2023-08-12T00:00:00",4,50.7,75.6,18.5,41.1],
    [5805,"FF1721AC76217473","ด่านฯสถานีรถไฟหนองคาย","2023-08-12T00:00:00",5,50.1,77,18.2,41.4],
    [5806,"FF1721AC76217473","ด่านฯสถานีรถไฟหนองคาย","2023-08-12T00:00:00",6,52,79.2,18,42],
    [5807,"FF1721AC76217473","ด่านฯสถานีรถไฟหนองคาย","2023-08-12T00:00:00",7,54.2,81,19.4,39.5],
    [5808,"FF1721AC76217473","ด่านฯสถานีรถไฟหนองคาย","2023-08-12T00:00:00",8,46,66.1,21.9,33.7],
    [5809,"FF1721AC76217473","ด่านฯสถานีรถไฟหนองคาย","2023-08-12T00:00:00",9,38.4,57.5,24.1,29.8],
    [5810,"FF1721AC76217473","ด่านฯสถานีรถไฟหนองคาย","2023-08-12T00:00:00",10,36.3,55.4,25.7,27.4],
    [5811,"FF1721AC76217473","ด่านฯสถานีรถไฟหนองคาย","2023-08-12T00:00:00",11,38.7,55.1,27.6,25.1],
    [5812,"FF1721AC76217473","ด่านฯสถานีรถไฟหนองคาย","2023-08-12T00:00:00",12,38.4,55.3,28.7,24],
    [5813,"FF1721AC76217473","ด่านฯสถานีรถไฟหนองคาย","2023-08-12T00:00:00",13,37.9,56.4,29.7,23.2],
    [5814,"FF1721AC76217473","ด่านฯสถานีรถไฟหนองคาย","2023-08-12T00:00:00",14,36.6,52,29.3,23.7],
    [5815,"FF1721AC76217473","ด่านฯสถานีรถไฟหนองคาย","2023-08-12T00:00:00",15,39.3,55,27.9,24.9],
    [5816,"FF1721AC76217473","ด่านฯสถานีรถไฟหนองคาย","2023-08-12T00:00:00",16,39.4,57.1,27.5,25.7],
    [5817,"FF1721AC76217473","ด่านฯสถานีรถไฟหนองคาย","2023-08-12T00:00:00",17,45,68.7,26.1,28.7],
    [5818,"FF1721AC76217473","ด่านฯสถานีรถไฟหนองคาย","2023-08-12T00:00:00",18,59.5,86.4,24.5,32.6],
    [5819,"FF1721AC76217473","ด่านฯสถานีรถไฟหนองคาย","2023-08-12T00:00:00",19,68.4,93.3,23.4,35.2],
    [5820,"FF1721AC76217473","ด่านฯสถานีรถไฟหนองคาย","2023-08-12T00:00:00",20,76.7,102.7,22.4,37.6],
    [5821,"FF1721AC76217473","ด่านฯสถานีรถไฟหนองคาย","2023-08-12T00:00:00",21,90.4,123,21.8,38.9],
    [5822,"FF1721AC76217473","ด่านฯสถานีรถไฟหนองคาย","2023-08-12T00:00:00",22,83.4,111,21.4,40.3],
    [5823,"FF1721AC76217473","ด่านฯสถานีรถไฟหนองคาย","2023-08-12T00:00:00",23,75.9,103.4,21.2,42.5],
    [5824,"FF1721AC76217475","ด่านฯท่าอากาศยานอุดรธานี","2023-08-12T00:00:00",0,54.2,83.1,21.2,38.1],
    [5825,"FF1721AC76217475","ด่านฯท่าอากาศยานอุดรธานี","2023-08-12T00:00:00",1,56.8,84.9,20.5,39.6],
    [5826,"FF1721AC76217475","ด่านฯท่าอากาศยานอุดรธานี","2023-08-12T00:00:00",2,51,78.7,20.2,39.6],
    [5827,"FF1721AC76217475","ด่านฯท่าอากาศยานอุดรธานี","2023-08-12T00:00:00",3,53.4,81.3,19.8,40.3],
    [5828,"FF1721AC76217475","ด่านฯท่าอากาศยานอุดรธานี","2023-08-12T00:00:00",4,53,80.5,19.2,41.5],
    [5829,"FF1721AC76217475","ด่านฯท่าอากาศยานอุดรธานี","2023-08-12T00:00:00",5,53.7,82.5,18.5,42.6],
    [5830,"FF1721AC76217475","ด่านฯท่าอากาศยานอุดรธานี","2023-08-12T00:00:00",6,54.6,82.5,18.9,41.3],
    [5831,"FF1721AC76217475","ด่านฯท่าอากาศยานอุดรธานี","2023-08-12T00:00:00",7,55.6,85.7,20.6,38.5],
    [5832,"FF1721AC76217475","ด่านฯท่าอากาศยานอุดรธานี","2023-08-12T00:00:00",8,53,82.7,24.1,32.9],
    [5833,"FF1721AC76217475","ด่านฯท่าอากาศยานอุดรธานี","2023-08-12T00:00:00",9,45.9,71.3,26.3,27.9],
    [5834,"FF1721AC76217475","ด่านฯท่าอากาศยานอุดรธานี","2023-08-12T00:00:00",10,38.7,54.8,27.9,24.8],
    [5835,"FF1721AC76217475","ด่านฯท่าอากาศยานอุดรธานี","2023-08-12T00:00:00",11,39.6,55.4,29.4,23.4],
    [5836,"FF1721AC76217475","ด่านฯท่าอากาศยานอุดรธานี","2023-08-12T00:00:00",12,34.7,50.9,29.5,22.9],
    [5837,"FF1721AC76217475","ด่านฯท่าอากาศยานอุดรธานี","2023-08-12T00:00:00",13,34.7,52.2,31.3,21.1],
    [5838,"FF1721AC76217475","ด่านฯท่าอากาศยานอุดรธานี","2023-08-12T00:00:00",14,33.3,47.9,30.4,21.4],
    [5839,"FF1721AC76217475","ด่านฯท่าอากาศยานอุดรธานี","2023-08-12T00:00:00",15,30.1,39.9,30.9,21.1],
    [5840,"FF1721AC76217475","ด่านฯท่าอากาศยานอุดรธานี","2023-08-12T00:00:00",16,29.6,41.1,29.8,21.8],
    [5841,"FF1721AC76217475","ด่านฯท่าอากาศยานอุดรธานี","2023-08-12T00:00:00",17,38.1,55.1,28.4,23.7],
    [5842,"FF1721AC76217475","ด่านฯท่าอากาศยานอุดรธานี","2023-08-12T00:00:00",18,41.2,58.1,26.6,27.9],
    [5843,"FF1721AC76217475","ด่านฯท่าอากาศยานอุดรธานี","2023-08-12T00:00:00",19,52.3,70.7,25.8,29.4],
    [5844,"FF1721AC76217475","ด่านฯท่าอากาศยานอุดรธานี","2023-08-12T00:00:00",20,50.6,73.4,25.1,31],
    [5845,"FF1721AC76217475","ด่านฯท่าอากาศยานอุดรธานี","2023-08-12T00:00:00",21,52.7,79.4,22.9,36],
    [5846,"FF1721AC76217475","ด่านฯท่าอากาศยานอุดรธานี","2023-08-12T00:00:00",22,56,83.2,22.4,37.2],
    [5847,"FF1721AC76217475","ด่านฯท่าอากาศยานอุดรธานี","2023-08-12T00:00:00",23,55.8,85.8,22.1,37.3],
    [5848,"FF1721AC76217484","กองดิจิทัลเพื่อการควบคุมโรค","2023-08-12T00:00:00",0,12.3,16.7,26,36.1],
    [5849,"FF1721AC76217484","กองดิจิทัลเพื่อการควบคุมโรค","2023-08-12T00:00:00",1,14.7,19.2,25.5,37.1],
    [5850,"FF1721AC76217484","กองดิจิทัลเพื่อการควบคุมโรค","2023-08-12T00:00:00",2,18.6,28.1,25.9,36.3],
    [5851,"FF1721AC76217484","กองดิจิทัลเพื่อการควบคุมโรค","2023-08-12T00:00:00",3,16.8,24.9,25,37.5],
    [5852,"FF1721AC76217484","กองดิจิทัลเพื่อการควบคุมโรค","2023-08-12T00:00:00",4,18.7,26,24.6,38.7],
    [5853,"FF1721AC76217484","กองดิจิทัลเพื่อการควบคุมโรค","2023-08-12T00:00:00",5,24.1,37.2,25,39.3],
    [5854,"FF1721AC76217484","กองดิจิทัลเพื่อการควบคุมโรค","2023-08-12T00:00:00",6,30.3,43.8,24.5,40.5],
    [5855,"FF1721AC76217484","กองดิจิทัลเพื่อการควบคุมโรค","2023-08-12T00:00:00",7,30.8,47,25.3,38.5],
    [5856,"FF1721AC76217484","กองดิจิทัลเพื่อการควบคุมโรค","2023-08-12T00:00:00",8,30.7,47.7,26.5,36.7],
    [5857,"FF1721AC76217484","กองดิจิทัลเพื่อการควบคุมโรค","2023-08-12T00:00:00",9,24.9,38.8,28.9,32.2],
    [5858,"FF1721AC76217484","กองดิจิทัลเพื่อการควบคุมโรค","2023-08-12T00:00:00",10,20.6,28.1,31.3,28.5],
    [5859,"FF1721AC76217484","กองดิจิทัลเพื่อการควบคุมโรค","2023-08-12T00:00:00",11,16.1,21.4,32.8,26.2],
    [5860,"FF1721AC76217484","กองดิจิทัลเพื่อการควบคุมโรค","2023-08-12T00:00:00",12,16.9,23.5,32.8,26.4],
    [5861,"FF1721AC76217484","กองดิจิทัลเพื่อการควบคุมโรค","2023-08-12T00:00:00",13,12.8,16.9,33.7,25.6],
    [5862,"FF1721AC76217484","กองดิจิทัลเพื่อการควบคุมโรค","2023-08-12T00:00:00",14,14,17.2,33.5,25.2],
    [5863,"FF1721AC76217484","กองดิจิทัลเพื่อการควบคุมโรค","2023-08-12T00:00:00",15,16.1,22.5,32.1,27.4],
    [5864,"FF1721AC76217484","กองดิจิทัลเพื่อการควบคุมโรค","2023-08-12T00:00:00",16,17.7,24.4,31.2,28.5],
    [5865,"FF1721AC76217484","กองดิจิทัลเพื่อการควบคุมโรค","2023-08-12T00:00:00",17,18.9,24.9,30.7,29.2],
    [5866,"FF1721AC76217484","กองดิจิทัลเพื่อการควบคุมโรค","2023-08-12T00:00:00",18,19.3,26,29.6,30.3],
    [5867,"FF1721AC76217484","กองดิจิทัลเพื่อการควบคุมโรค","2023-08-12T00:00:00",19,34.5,53.6,28.3,33.4],
    [5868,"FF1721AC76217484","กองดิจิทัลเพื่อการควบคุมโรค","2023-08-12T00:00:00",20,45.7,71.7,27.8,34.9],
    [5869,"FF1721AC76217484","กองดิจิทัลเพื่อการควบคุมโรค","2023-08-12T00:00:00",21,43.8,66.3,27.5,35.6],
    [5870,"FF1721AC76217484","กองดิจิทัลเพื่อการควบคุมโรค","2023-08-12T00:00:00",22,41.3,67.1,27.9,35.3],
    [5871,"FF1721AC76217484","กองดิจิทัลเพื่อการควบคุมโรค","2023-08-12T00:00:00",23,41.6,65.7,27.6,35.9],
    [5872,"FF1721AC76217471","ด่านฯสะพานมิตรภาพ 1 หนองคาย","2023-09-12T00:00:00",0,82.5,121.6,21.4,43.1],
    [5873,"FF1721AC76217471","ด่านฯสะพานมิตรภาพ 1 หนองคาย","2023-09-12T00:00:00",1,83,112,21.2,43.3],
    [5874,"FF1721AC76217471","ด่านฯสะพานมิตรภาพ 1 หนองคาย","2023-09-12T00:00:00",2,73.3,99,20.1,45.3],
    [5875,"FF1721AC76217471","ด่านฯสะพานมิตรภาพ 1 หนองคาย","2023-09-12T00:00:00",3,80.1,104.9,19.8,46.1],
    [5876,"FF1721AC76217471","ด่านฯสะพานมิตรภาพ 1 หนองคาย","2023-09-12T00:00:00",4,86.6,119.5,20,45.3],
    [5877,"FF1721AC76217471","ด่านฯสะพานมิตรภาพ 1 หนองคาย","2023-09-12T00:00:00",5,90.3,125.7,19.8,45.8],
    [5878,"FF1721AC76217471","ด่านฯสะพานมิตรภาพ 1 หนองคาย","2023-09-12T00:00:00",6,78.9,104.6,20.1,44.8],
    [5879,"FF1721AC76217471","ด่านฯสะพานมิตรภาพ 1 หนองคาย","2023-09-12T00:00:00",7,80.6,112.1,20.4,45.2],
    [5880,"FF1721AC76217471","ด่านฯสะพานมิตรภาพ 1 หนองคาย","2023-09-12T00:00:00",8,54.9,87.6,22.1,42.3],
    [5881,"FF1721AC76217471","ด่านฯสะพานมิตรภาพ 1 หนองคาย","2023-09-12T00:00:00",9,51.3,79,23.6,39.4],
    [5882,"FF1721AC76217471","ด่านฯสะพานมิตรภาพ 1 หนองคาย","2023-09-12T00:00:00",10,45.4,71.3,25.9,33.7],
    [5883,"FF1721AC76217471","ด่านฯสะพานมิตรภาพ 1 หนองคาย","2023-09-12T00:00:00",11,42.8,64,27.4,30.2],
    [5884,"FF1721AC76217471","ด่านฯสะพานมิตรภาพ 1 หนองคาย","2023-09-12T00:00:00",12,39.3,57.7,29.2,28],
    [5885,"FF1721AC76217471","ด่านฯสะพานมิตรภาพ 1 หนองคาย","2023-09-12T00:00:00",13,34.4,53,29.8,25.8],
    [5886,"FF1721AC76217471","ด่านฯสะพานมิตรภาพ 1 หนองคาย","2023-09-12T00:00:00",14,33.3,46.4,30.6,25.8],
    [5887,"FF1721AC76217471","ด่านฯสะพานมิตรภาพ 1 หนองคาย","2023-09-12T00:00:00",15,33.4,48.2,31.7,25],
    [5888,"FF1721AC76217471","ด่านฯสะพานมิตรภาพ 1 หนองคาย","2023-09-12T00:00:00",16,33.3,43.7,30.2,26.7],
    [5889,"FF1721AC76217471","ด่านฯสะพานมิตรภาพ 1 หนองคาย","2023-09-12T00:00:00",17,35.6,55.4,28.6,29.6],
    [5890,"FF1721AC76217471","ด่านฯสะพานมิตรภาพ 1 หนองคาย","2023-09-12T00:00:00",18,46.9,73.9,26.2,34.7],
    [5891,"FF1721AC76217471","ด่านฯสะพานมิตรภาพ 1 หนองคาย","2023-09-12T00:00:00",19,74.1,105.7,24.8,37.8],
    [5892,"FF1721AC76217471","ด่านฯสะพานมิตรภาพ 1 หนองคาย","2023-09-12T00:00:00",20,74.2,98.8,24.1,39.1],
    [5893,"FF1721AC76217471","ด่านฯสะพานมิตรภาพ 1 หนองคาย","2023-09-12T00:00:00",21,76.2,104.4,23.6,40.2],
    [5894,"FF1721AC76217471","ด่านฯสะพานมิตรภาพ 1 หนองคาย","2023-09-12T00:00:00",22,77.2,103.9,22.8,42],
    [5895,"FF1721AC76217471","ด่านฯสะพานมิตรภาพ 1 หนองคาย","2023-09-12T00:00:00",23,71.6,99.8,23.2,41.5],
    [5896,"FF1721AC76217473","ด่านฯสถานีรถไฟหนองคาย","2023-09-12T00:00:00",0,89.4,121.5,20.7,43.4],
    [5897,"FF1721AC76217473","ด่านฯสถานีรถไฟหนองคาย","2023-09-12T00:00:00",1,92.2,124.7,20.3,44.4],
    [5898,"FF1721AC76217473","ด่านฯสถานีรถไฟหนองคาย","2023-09-12T00:00:00",2,83.3,113.3,20.3,44.4],
    [5899,"FF1721AC76217473","ด่านฯสถานีรถไฟหนองคาย","2023-09-12T00:00:00",3,102.5,136.9,20.1,45.6],
    [5900,"FF1721AC76217473","ด่านฯสถานีรถไฟหนองคาย","2023-09-12T00:00:00",4,110.8,145.6,19.8,45.6],
    [5901,"FF1721AC76217473","ด่านฯสถานีรถไฟหนองคาย","2023-09-12T00:00:00",5,110.3,150.3,19.6,45.3],
    [5902,"FF1721AC76217473","ด่านฯสถานีรถไฟหนองคาย","2023-09-12T00:00:00",6,95.4,131.8,19.5,45.7],
    [5903,"FF1721AC76217473","ด่านฯสถานีรถไฟหนองคาย","2023-09-12T00:00:00",7,81.6,106.5,21.9,41.4],
    [5904,"FF1721AC76217473","ด่านฯสถานีรถไฟหนองคาย","2023-09-12T00:00:00",8,51.4,75.4,25.5,35.9],
    [5905,"FF1721AC76217473","ด่านฯสถานีรถไฟหนองคาย","2023-09-12T00:00:00",9,47.7,68.9,27.3,32.3],
    [5906,"FF1721AC76217473","ด่านฯสถานีรถไฟหนองคาย","2023-09-12T00:00:00",10,48.3,72.1,29,28.5],
    [5907,"FF1721AC76217473","ด่านฯสถานีรถไฟหนองคาย","2023-09-12T00:00:00",11,44.6,65.5,30.5,25.7],
    [5908,"FF1721AC76217473","ด่านฯสถานีรถไฟหนองคาย","2023-09-12T00:00:00",12,44.3,64.9,31.2,24.9],
    [5909,"FF1721AC76217473","ด่านฯสถานีรถไฟหนองคาย","2023-09-12T00:00:00",13,40.6,56.2,31.6,24.1],
    [5910,"FF1721AC76217473","ด่านฯสถานีรถไฟหนองคาย","2023-09-12T00:00:00",14,36.3,53,31.1,24.4],
    [5911,"FF1721AC76217473","ด่านฯสถานีรถไฟหนองคาย","2023-09-12T00:00:00",15,37.4,59,30,26.2],
    [5912,"FF1721AC76217473","ด่านฯสถานีรถไฟหนองคาย","2023-09-12T00:00:00",16,38.3,54.8,29.4,27],
    [5913,"FF1721AC76217473","ด่านฯสถานีรถไฟหนองคาย","2023-09-12T00:00:00",17,39.9,62.4,28.3,28.8],
    [5914,"FF1721AC76217473","ด่านฯสถานีรถไฟหนองคาย","2023-09-12T00:00:00",18,56.3,85.3,26.5,32.2],
    [5915,"FF1721AC76217473","ด่านฯสถานีรถไฟหนองคาย","2023-09-12T00:00:00",19,72.9,104.4,25,35.3],
    [5916,"FF1721AC76217473","ด่านฯสถานีรถไฟหนองคาย","2023-09-12T00:00:00",20,68.1,99.5,24.3,37.1],
    [5917,"FF1721AC76217473","ด่านฯสถานีรถไฟหนองคาย","2023-09-12T00:00:00",21,68.1,95.6,23.4,39.1],
    [5918,"FF1721AC76217473","ด่านฯสถานีรถไฟหนองคาย","2023-09-12T00:00:00",22,65.8,92.1,23.1,40],
    [5919,"FF1721AC76217473","ด่านฯสถานีรถไฟหนองคาย","2023-09-12T00:00:00",23,69.9,95.4,22.4,41.8],
    [5920,"FF1721AC76217475","ด่านฯท่าอากาศยานอุดรธานี","2023-09-12T00:00:00",0,57.9,87.6,22.1,37.8],
    [5921,"FF1721AC76217475","ด่านฯท่าอากาศยานอุดรธานี","2023-09-12T00:00:00",1,62.2,88.6,21.6,39.2],
    [5922,"FF1721AC76217475","ด่านฯท่าอากาศยานอุดรธานี","2023-09-12T00:00:00",2,59.4,88.9,21.5,39.3],
    [5923,"FF1721AC76217475","ด่านฯท่าอากาศยานอุดรธานี","2023-09-12T00:00:00",3,62.9,89.8,20.8,40.4],
    [5924,"FF1721AC76217475","ด่านฯท่าอากาศยานอุดรธานี","2023-09-12T00:00:00",4,60.5,88.1,20.6,40.6],
    [5925,"FF1721AC76217475","ด่านฯท่าอากาศยานอุดรธานี","2023-09-12T00:00:00",5,60.7,85.6,20.5,41],
    [5926,"FF1721AC76217475","ด่านฯท่าอากาศยานอุดรธานี","2023-09-12T00:00:00",6,79.2,109.5,20.3,41.6],
    [5927,"FF1721AC76217475","ด่านฯท่าอากาศยานอุดรธานี","2023-09-12T00:00:00",7,87.4,114.4,21,40.5],
    [5928,"FF1721AC76217475","ด่านฯท่าอากาศยานอุดรธานี","2023-09-12T00:00:00",8,76.4,100.5,24.9,34.3],
    [5929,"FF1721AC76217475","ด่านฯท่าอากาศยานอุดรธานี","2023-09-12T00:00:00",9,55.4,84.3,26.8,30.2],
    [5930,"FF1721AC76217475","ด่านฯท่าอากาศยานอุดรธานี","2023-09-12T00:00:00",10,47.1,73.1,28.9,26.7],
    [5931,"FF1721AC76217475","ด่านฯท่าอากาศยานอุดรธานี","2023-09-12T00:00:00",11,42.7,62,30.9,23.9],
    [5932,"FF1721AC76217475","ด่านฯท่าอากาศยานอุดรธานี","2023-09-12T00:00:00",12,37.8,54.3,32.1,22.1],
    [5933,"FF1721AC76217475","ด่านฯท่าอากาศยานอุดรธานี","2023-09-12T00:00:00",13,34.2,47.6,33.3,21.9],
    [5934,"FF1721AC76217475","ด่านฯท่าอากาศยานอุดรธานี","2023-09-12T00:00:00",14,35.7,50.2,33.7,21.1],
    [5935,"FF1721AC76217475","ด่านฯท่าอากาศยานอุดรธานี","2023-09-12T00:00:00",15,32.9,50,33.4,21.1],
    [5936,"FF1721AC76217475","ด่านฯท่าอากาศยานอุดรธานี","2023-09-12T00:00:00",16,35,47.3,32.3,22.1],
    [5937,"FF1721AC76217475","ด่านฯท่าอากาศยานอุดรธานี","2023-09-12T00:00:00",17,35.2,50.7,30.2,25.3],
    [5938,"FF1721AC76217475","ด่านฯท่าอากาศยานอุดรธานี","2023-09-12T00:00:00",18,50,69.6,28.1,28.7],
    [5939,"FF1721AC76217475","ด่านฯท่าอากาศยานอุดรธานี","2023-09-12T00:00:00",19,56.5,84.1,27.1,31.5],
    [5940,"FF1721AC76217475","ด่านฯท่าอากาศยานอุดรธานี","2023-09-12T00:00:00",20,48,71.7,25.1,35],
    [5941,"FF1721AC76217475","ด่านฯท่าอากาศยานอุดรธานี","2023-09-12T00:00:00",21,51,74.8,24.7,35.6],
    [5942,"FF1721AC76217475","ด่านฯท่าอากาศยานอุดรธานี","2023-09-12T00:00:00",22,53.1,79.9,24.3,36.8],
    [5943,"FF1721AC76217475","ด่านฯท่าอากาศยานอุดรธานี","2023-09-12T00:00:00",23,53.7,80.9,24.1,37.3],
    [5944,"FF1721AC76217484","กองดิจิทัลเพื่อการควบคุมโรค","2023-09-12T00:00:00",0,41.9,64.5,27.4,35.9],
    [5945,"FF1721AC76217484","กองดิจิทัลเพื่อการควบคุมโรค","2023-09-12T00:00:00",1,44.1,71.2,27.3,35.9],
    [5946,"FF1721AC76217484","กองดิจิทัลเพื่อการควบคุมโรค","2023-09-12T00:00:00",2,38.9,61.6,27.1,36],
    [5947,"FF1721AC76217484","กองดิจิทัลเพื่อการควบคุมโรค","2023-09-12T00:00:00",3,33.5,54,26.3,36.7],
    [5948,"FF1721AC76217484","กองดิจิทัลเพื่อการควบคุมโรค","2023-09-12T00:00:00",4,34.4,52.4,26.1,37.2],
    [5949,"FF1721AC76217484","กองดิจิทัลเพื่อการควบคุมโรค","2023-09-12T00:00:00",5,37.4,57.6,25.3,38.9],
    [5950,"FF1721AC76217484","กองดิจิทัลเพื่อการควบคุมโรค","2023-09-12T00:00:00",6,38.2,61.5,25.2,39.3],
    [5951,"FF1721AC76217484","กองดิจิทัลเพื่อการควบคุมโรค","2023-09-12T00:00:00",7,39.5,65,25.7,38.8],
    [5952,"FF1721AC76217484","กองดิจิทัลเพื่อการควบคุมโรค","2023-09-12T00:00:00",8,36.5,56.7,27.2,36.3],
    [5953,"FF1721AC76217484","กองดิจิทัลเพื่อการควบคุมโรค","2023-09-12T00:00:00",9,34.6,54.3,29.4,33],
    [5954,"FF1721AC76217484","กองดิจิทัลเพื่อการควบคุมโรค","2023-09-12T00:00:00",10,31.9,49.7,31.5,30],
    [5955,"FF1721AC76217484","กองดิจิทัลเพื่อการควบคุมโรค","2023-09-12T00:00:00",11,32.1,48.8,31.4,29.3],
    [5956,"FF1721AC76217484","กองดิจิทัลเพื่อการควบคุมโรค","2023-09-12T00:00:00",12,33.9,54.1,31.8,28.9],
    [5957,"FF1721AC76217484","กองดิจิทัลเพื่อการควบคุมโรค","2023-09-12T00:00:00",13,34.8,56.8,32.4,28],
    [5958,"FF1721AC76217484","กองดิจิทัลเพื่อการควบคุมโรค","2023-09-12T00:00:00",14,34.1,53.4,32.7,27.6],
    [5959,"FF1721AC76217484","กองดิจิทัลเพื่อการควบคุมโรค","2023-09-12T00:00:00",15,35.3,61.1,32.1,28],
    [5960,"FF1721AC76217484","กองดิจิทัลเพื่อการควบคุมโรค","2023-09-12T00:00:00",16,33.8,54.1,31.8,28.2],
    [5961,"FF1721AC76217484","กองดิจิทัลเพื่อการควบคุมโรค","2023-09-12T00:00:00",17,37.5,59.8,30.3,30.6],
    [5962,"FF1721AC76217484","กองดิจิทัลเพื่อการควบคุมโรค","2023-09-12T00:00:00",18,42.7,67.8,29.2,32.4],
    [5963,"FF1721AC76217484","กองดิจิทัลเพื่อการควบคุมโรค","2023-09-12T00:00:00",19,45.7,73.9,28.8,33.3],
    [5964,"FF1721AC76217484","กองดิจิทัลเพื่อการควบคุมโรค","2023-09-12T00:00:00",20,49.7,78.7,28.7,33.9],
    [5965,"FF1721AC76217484","กองดิจิทัลเพื่อการควบคุมโรค","2023-09-12T00:00:00",21,52.8,85.2,28.6,34.1],
    [5966,"FF1721AC76217484","กองดิจิทัลเพื่อการควบคุมโรค","2023-09-12T00:00:00",22,60.7,87.6,28.1,35.5],
    [5967,"FF1721AC76217484","กองดิจิทัลเพื่อการควบคุมโรค","2023-09-12T00:00:00",23,64.7,95.5,27.7,36.5],
    [5968,"FF1721AC76217471","ด่านฯสะพานมิตรภาพ 1 หนองคาย","2023-10-12T00:00:00",0,73.6,103.3,23,43.1],
    [5969,"FF1721AC76217471","ด่านฯสะพานมิตรภาพ 1 หนองคาย","2023-10-12T00:00:00",1,68,98.9,22.3,43.9],
    [5970,"FF1721AC76217471","ด่านฯสะพานมิตรภาพ 1 หนองคาย","2023-10-12T00:00:00",2,74.6,104.4,22.3,44.1],
    [5971,"FF1721AC76217471","ด่านฯสะพานมิตรภาพ 1 หนองคาย","2023-10-12T00:00:00",3,82.3,114.6,21.7,44.9],
    [5972,"FF1721AC76217471","ด่านฯสะพานมิตรภาพ 1 หนองคาย","2023-10-12T00:00:00",4,78.7,108.8,21.7,45.3],
    [5973,"FF1721AC76217471","ด่านฯสะพานมิตรภาพ 1 หนองคาย","2023-10-12T00:00:00",5,79.6,110.8,20.8,47],
    [5974,"FF1721AC76217471","ด่านฯสะพานมิตรภาพ 1 หนองคาย","2023-10-12T00:00:00",6,86.6,118.6,21.4,45.6],
    [5975,"FF1721AC76217471","ด่านฯสะพานมิตรภาพ 1 หนองคาย","2023-10-12T00:00:00",7,97.2,130.6,21.2,46.3],
    [5976,"FF1721AC76217471","ด่านฯสะพานมิตรภาพ 1 หนองคาย","2023-10-12T00:00:00",8,123.5,179.3,22.8,43.9],
    [5977,"FF1721AC76217471","ด่านฯสะพานมิตรภาพ 1 หนองคาย","2023-10-12T00:00:00",9,77.7,115.6,25.9,37.4],
    [5978,"FF1721AC76217471","ด่านฯสะพานมิตรภาพ 1 หนองคาย","2023-10-12T00:00:00",10,59.3,89.7,27.9,32.5],
    [5979,"FF1721AC76217471","ด่านฯสะพานมิตรภาพ 1 หนองคาย","2023-10-12T00:00:00",11,47.9,72.4,29.6,28.1],
    [5980,"FF1721AC76217471","ด่านฯสะพานมิตรภาพ 1 หนองคาย","2023-10-12T00:00:00",12,42.1,63.9,29.8,27.5],
    [5981,"FF1721AC76217471","ด่านฯสะพานมิตรภาพ 1 หนองคาย","2023-10-12T00:00:00",13,34.9,52.2,30.7,25.9],
    [5982,"FF1721AC76217471","ด่านฯสะพานมิตรภาพ 1 หนองคาย","2023-10-12T00:00:00",14,34.3,51.7,31.2,25.7],
    [5983,"FF1721AC76217471","ด่านฯสะพานมิตรภาพ 1 หนองคาย","2023-10-12T00:00:00",15,33.9,47.9,31.4,25.5],
    [5984,"FF1721AC76217471","ด่านฯสะพานมิตรภาพ 1 หนองคาย","2023-10-12T00:00:00",16,36,52.2,30.7,26.7],
    [5985,"FF1721AC76217471","ด่านฯสะพานมิตรภาพ 1 หนองคาย","2023-10-12T00:00:00",17,37.3,55.6,28.3,32.4],
    [5986,"FF1721AC76217471","ด่านฯสะพานมิตรภาพ 1 หนองคาย","2023-10-12T00:00:00",18,44.1,67.2,26.4,36.3],
    [5987,"FF1721AC76217471","ด่านฯสะพานมิตรภาพ 1 หนองคาย","2023-10-12T00:00:00",19,73.9,95.9,24.9,39],
    [5988,"FF1721AC76217471","ด่านฯสะพานมิตรภาพ 1 หนองคาย","2023-10-12T00:00:00",20,68.9,94.1,24.6,39.3],
    [5989,"FF1721AC76217471","ด่านฯสะพานมิตรภาพ 1 หนองคาย","2023-10-12T00:00:00",21,68.9,94.7,24.1,40.6],
    [5990,"FF1721AC76217471","ด่านฯสะพานมิตรภาพ 1 หนองคาย","2023-10-12T00:00:00",22,75,102.9,24.1,40.6],
    [5991,"FF1721AC76217471","ด่านฯสะพานมิตรภาพ 1 หนองคาย","2023-10-12T00:00:00",23,78.5,109.3,23.8,41.6],
    [5992,"FF1721AC76217473","ด่านฯสถานีรถไฟหนองคาย","2023-10-12T00:00:00",0,68.2,94.7,22,42.7],
    [5993,"FF1721AC76217473","ด่านฯสถานีรถไฟหนองคาย","2023-10-12T00:00:00",1,70.4,96,21.9,43.8],
    [5994,"FF1721AC76217473","ด่านฯสถานีรถไฟหนองคาย","2023-10-12T00:00:00",2,76.2,100.4,21.7,44.5],
    [5995,"FF1721AC76217473","ด่านฯสถานีรถไฟหนองคาย","2023-10-12T00:00:00",3,87.1,117.9,21.4,45.4],
    [5996,"FF1721AC76217473","ด่านฯสถานีรถไฟหนองคาย","2023-10-12T00:00:00",4,83,112.2,20.7,46.3],
    [5997,"FF1721AC76217473","ด่านฯสถานีรถไฟหนองคาย","2023-10-12T00:00:00",5,96.8,124.6,20.8,46.4],
    [5998,"FF1721AC76217473","ด่านฯสถานีรถไฟหนองคาย","2023-10-12T00:00:00",6,97.7,141.2,21,46],
    [5999,"FF1721AC76217473","ด่านฯสถานีรถไฟหนองคาย","2023-10-12T00:00:00",7,114.1,142.7,23.5,41.7],
    [6000,"FF1721AC76217473","ด่านฯสถานีรถไฟหนองคาย","2023-10-12T00:00:00",8,111.2,138,26.6,36.1],
    [6001,"FF1721AC76217473","ด่านฯสถานีรถไฟหนองคาย","2023-10-12T00:00:00",9,79.9,107.2,28.4,32.4],
    [6002,"FF1721AC76217473","ด่านฯสถานีรถไฟหนองคาย","2023-10-12T00:00:00",10,67,93.1,30.6,28.8],
    [6003,"FF1721AC76217473","ด่านฯสถานีรถไฟหนองคาย","2023-10-12T00:00:00",11,49.5,77,31.8,25.7],
    [6004,"FF1721AC76217473","ด่านฯสถานีรถไฟหนองคาย","2023-10-12T00:00:00",12,45.4,65.6,32.9,23.6],
    [6005,"FF1721AC76217473","ด่านฯสถานีรถไฟหนองคาย","2023-10-12T00:00:00",13,41.9,60.6,32.8,23.2],
    [6006,"FF1721AC76217473","ด่านฯสถานีรถไฟหนองคาย","2023-10-12T00:00:00",14,39.4,58,32,24.2],
    [6007,"FF1721AC76217473","ด่านฯสถานีรถไฟหนองคาย","2023-10-12T00:00:00",15,39.6,59.4,31.2,24.8],
    [6008,"FF1721AC76217473","ด่านฯสถานีรถไฟหนองคาย","2023-10-12T00:00:00",16,40.8,62,30.3,26.5],
    [6009,"FF1721AC76217473","ด่านฯสถานีรถไฟหนองคาย","2023-10-12T00:00:00",17,43.5,65,29,28.8],
    [6010,"FF1721AC76217473","ด่านฯสถานีรถไฟหนองคาย","2023-10-12T00:00:00",18,47.6,70.5,27.2,32.6],
    [6011,"FF1721AC76217473","ด่านฯสถานีรถไฟหนองคาย","2023-10-12T00:00:00",19,71.2,98.3,26.1,35],
    [6012,"FF1721AC76217473","ด่านฯสถานีรถไฟหนองคาย","2023-10-12T00:00:00",20,77.9,111.1,25,37],
    [6013,"FF1721AC76217473","ด่านฯสถานีรถไฟหนองคาย","2023-10-12T00:00:00",21,86.6,111.3,24.3,38.7],
    [6014,"FF1721AC76217473","ด่านฯสถานีรถไฟหนองคาย","2023-10-12T00:00:00",22,80.3,113.4,23.8,40],
    [6015,"FF1721AC76217473","ด่านฯสถานีรถไฟหนองคาย","2023-10-12T00:00:00",23,89.1,124.8,23.4,41.8],
    [6016,"FF1721AC76217475","ด่านฯท่าอากาศยานอุดรธานี","2023-10-12T00:00:00",0,60.9,86.4,23.5,38.3],
    [6017,"FF1721AC76217475","ด่านฯท่าอากาศยานอุดรธานี","2023-10-12T00:00:00",1,55.8,85.5,22.4,40.3],
    [6018,"FF1721AC76217475","ด่านฯท่าอากาศยานอุดรธานี","2023-10-12T00:00:00",2,58.7,85.8,22.4,40.4],
    [6019,"FF1721AC76217475","ด่านฯท่าอากาศยานอุดรธานี","2023-10-12T00:00:00",3,59.7,85.7,22,41],
    [6020,"FF1721AC76217475","ด่านฯท่าอากาศยานอุดรธานี","2023-10-12T00:00:00",4,71.5,106.3,21.3,42.3],
    [6021,"FF1721AC76217475","ด่านฯท่าอากาศยานอุดรธานี","2023-10-12T00:00:00",5,62.6,88.1,21,42.8],
    [6022,"FF1721AC76217475","ด่านฯท่าอากาศยานอุดรธานี","2023-10-12T00:00:00",6,64.8,90.7,21.1,42.3],
    [6023,"FF1721AC76217475","ด่านฯท่าอากาศยานอุดรธานี","2023-10-12T00:00:00",7,85.1,107.7,22.5,41],
    [6024,"FF1721AC76217475","ด่านฯท่าอากาศยานอุดรธานี","2023-10-12T00:00:00",8,72.9,95.3,25.7,35.1],
    [6025,"FF1721AC76217475","ด่านฯท่าอากาศยานอุดรธานี","2023-10-12T00:00:00",9,50.4,77.6,28.4,30.1],
    [6026,"FF1721AC76217475","ด่านฯท่าอากาศยานอุดรธานี","2023-10-12T00:00:00",10,44,66.2,31.3,25.1],
    [6027,"FF1721AC76217475","ด่านฯท่าอากาศยานอุดรธานี","2023-10-12T00:00:00",11,36.9,52,32.4,23],
    [6028,"FF1721AC76217475","ด่านฯท่าอากาศยานอุดรธานี","2023-10-12T00:00:00",12,33.9,44,33.1,22.3],
    [6029,"FF1721AC76217475","ด่านฯท่าอากาศยานอุดรธานี","2023-10-12T00:00:00",13,32.2,44.6,33.9,21.8],
    [6030,"FF1721AC76217475","ด่านฯท่าอากาศยานอุดรธานี","2023-10-12T00:00:00",14,32.8,47,35.2,20.4],
    [6031,"FF1721AC76217475","ด่านฯท่าอากาศยานอุดรธานี","2023-10-12T00:00:00",15,34.8,47.2,34.4,20.4],
    [6032,"FF1721AC76217475","ด่านฯท่าอากาศยานอุดรธานี","2023-10-12T00:00:00",16,36.1,45.4,32.1,22.9],
    [6033,"FF1721AC76217475","ด่านฯท่าอากาศยานอุดรธานี","2023-10-12T00:00:00",17,37.6,54.4,30.5,25.2],
    [6034,"FF1721AC76217475","ด่านฯท่าอากาศยานอุดรธานี","2023-10-12T00:00:00",18,44.3,65,29.9,26.4],
    [6035,"FF1721AC76217475","ด่านฯท่าอากาศยานอุดรธานี","2023-10-12T00:00:00",19,52.1,79.3,27.6,31.4],
    [6036,"FF1721AC76217475","ด่านฯท่าอากาศยานอุดรธานี","2023-10-12T00:00:00",20,64.9,87.9,26.4,34.1],
    [6037,"FF1721AC76217475","ด่านฯท่าอากาศยานอุดรธานี","2023-10-12T00:00:00",21,60.5,86.7,25.5,35.6],
    [6038,"FF1721AC76217475","ด่านฯท่าอากาศยานอุดรธานี","2023-10-12T00:00:00",22,62.4,86.9,25.5,35.7],
    [6039,"FF1721AC76217475","ด่านฯท่าอากาศยานอุดรธานี","2023-10-12T00:00:00",23,69.1,95.6,23.9,38.9],
    [6040,"FF1721AC76217484","กองดิจิทัลเพื่อการควบคุมโรค","2023-10-12T00:00:00",0,70.2,104,27,37.5],
    [6041,"FF1721AC76217484","กองดิจิทัลเพื่อการควบคุมโรค","2023-10-12T00:00:00",1,76.2,106.9,26.5,38.4],
    [6042,"FF1721AC76217484","กองดิจิทัลเพื่อการควบคุมโรค","2023-10-12T00:00:00",2,78.1,111,26.4,38.4],
    [6043,"FF1721AC76217484","กองดิจิทัลเพื่อการควบคุมโรค","2023-10-12T00:00:00",3,82.1,116.9,26.5,38.3],
    [6044,"FF1721AC76217484","กองดิจิทัลเพื่อการควบคุมโรค","2023-10-12T00:00:00",4,84.1,120.1,25.9,39.3],
    [6045,"FF1721AC76217484","กองดิจิทัลเพื่อการควบคุมโรค","2023-10-12T00:00:00",5,82.9,118.3,25.6,39.7],
    [6046,"FF1721AC76217484","กองดิจิทัลเพื่อการควบคุมโรค","2023-10-12T00:00:00",6,83.9,115.9,25.3,39.8],
    [6047,"FF1721AC76217484","กองดิจิทัลเพื่อการควบคุมโรค","2023-10-12T00:00:00",7,96.8,133,25.6,39.8],
    [6048,"FF1721AC76217484","กองดิจิทัลเพื่อการควบคุมโรค","2023-10-12T00:00:00",8,93.8,133.2,27.7,36.1],
    [6049,"FF1721AC76217484","กองดิจิทัลเพื่อการควบคุมโรค","2023-10-12T00:00:00",9,70.8,99.6,29.9,32.7],
    [6050,"FF1721AC76217484","กองดิจิทัลเพื่อการควบคุมโรค","2023-10-12T00:00:00",10,49.9,73.1,32.4,28.7],
    [6051,"FF1721AC76217484","กองดิจิทัลเพื่อการควบคุมโรค","2023-10-12T00:00:00",11,44.6,72.4,33.4,26.9],
    [6052,"FF1721AC76217484","กองดิจิทัลเพื่อการควบคุมโรค","2023-10-12T00:00:00",12,39.7,60.8,34.5,24.6],
    [6053,"FF1721AC76217484","กองดิจิทัลเพื่อการควบคุมโรค","2023-10-12T00:00:00",13,39.4,61.4,34.7,23.9],
    [6054,"FF1721AC76217484","กองดิจิทัลเพื่อการควบคุมโรค","2023-10-12T00:00:00",14,43.3,67.7,34.2,24.3],
    [6055,"FF1721AC76217484","กองดิจิทัลเพื่อการควบคุมโรค","2023-10-12T00:00:00",15,56.7,87.8,31.9,29.7],
    [6056,"FF1721AC76217484","กองดิจิทัลเพื่อการควบคุมโรค","2023-10-12T00:00:00",16,49.5,78,31.9,29.3],
    [6057,"FF1721AC76217484","กองดิจิทัลเพื่อการควบคุมโรค","2023-10-12T00:00:00",17,45.6,70.9,30.4,30.6],
    [6058,"FF1721AC76217484","กองดิจิทัลเพื่อการควบคุมโรค","2023-10-12T00:00:00",18,39.4,63.1,29.3,31.8],
    [6059,"FF1721AC76217484","กองดิจิทัลเพื่อการควบคุมโรค","2023-10-12T00:00:00",19,36.4,59,28.8,32.4],
    [6060,"FF1721AC76217484","กองดิจิทัลเพื่อการควบคุมโรค","2023-10-12T00:00:00",20,36.8,59,28,34.5],
    [6061,"FF1721AC76217484","กองดิจิทัลเพื่อการควบคุมโรค","2023-10-12T00:00:00",21,41.6,65.5,27.5,36.2],
    [6062,"FF1721AC76217484","กองดิจิทัลเพื่อการควบคุมโรค","2023-10-12T00:00:00",22,41.5,66.4,27.3,37],
    [6063,"FF1721AC76217484","กองดิจิทัลเพื่อการควบคุมโรค","2023-10-12T00:00:00",23,38.5,64,27,37.3],
    [6064,"FF1721AC76217471","ด่านฯสะพานมิตรภาพ 1 หนองคาย","2023-11-12T00:00:00",0,90.1,118.7,23.2,43.4],
    [6065,"FF1721AC76217471","ด่านฯสะพานมิตรภาพ 1 หนองคาย","2023-11-12T00:00:00",1,88.2,115.4,22.2,45.1],
    [6066,"FF1721AC76217471","ด่านฯสะพานมิตรภาพ 1 หนองคาย","2023-11-12T00:00:00",2,88.6,120.2,21.8,46.3],
    [6067,"FF1721AC76217471","ด่านฯสะพานมิตรภาพ 1 หนองคาย","2023-11-12T00:00:00",3,84.9,116.2,22.2,45.3],
    [6068,"FF1721AC76217471","ด่านฯสะพานมิตรภาพ 1 หนองคาย","2023-11-12T00:00:00",4,84,117.3,21.8,46.1],
    [6069,"FF1721AC76217471","ด่านฯสะพานมิตรภาพ 1 หนองคาย","2023-11-12T00:00:00",5,88.3,123.3,22.5,45],
    [6070,"FF1721AC76217471","ด่านฯสะพานมิตรภาพ 1 หนองคาย","2023-11-12T00:00:00",6,76.2,107.9,22.6,45.3],
    [6071,"FF1721AC76217471","ด่านฯสะพานมิตรภาพ 1 หนองคาย","2023-11-12T00:00:00",7,83.8,115,22.5,45.7],
    [6072,"FF1721AC76217471","ด่านฯสะพานมิตรภาพ 1 หนองคาย","2023-11-12T00:00:00",8,80.8,114.6,23.9,43.1],
    [6073,"FF1721AC76217471","ด่านฯสะพานมิตรภาพ 1 หนองคาย","2023-11-12T00:00:00",9,69.9,95.7,25.2,38.9],
    [6074,"FF1721AC76217471","ด่านฯสะพานมิตรภาพ 1 หนองคาย","2023-11-12T00:00:00",10,56.4,85.1,27.6,34.2],
    [6075,"FF1721AC76217471","ด่านฯสะพานมิตรภาพ 1 หนองคาย","2023-11-12T00:00:00",11,43.4,64.1,29.9,29.4],
    [6076,"FF1721AC76217471","ด่านฯสะพานมิตรภาพ 1 หนองคาย","2023-11-12T00:00:00",12,41.6,59.8,30.2,27.8],
    [6077,"FF1721AC76217471","ด่านฯสะพานมิตรภาพ 1 หนองคาย","2023-11-12T00:00:00",13,40.4,58,31.3,25.9],
    [6078,"FF1721AC76217471","ด่านฯสะพานมิตรภาพ 1 หนองคาย","2023-11-12T00:00:00",14,38.2,55.9,32.3,23.8],
    [6079,"FF1721AC76217471","ด่านฯสะพานมิตรภาพ 1 หนองคาย","2023-11-12T00:00:00",15,37,54.4,32.2,24.1],
    [6080,"FF1721AC76217471","ด่านฯสะพานมิตรภาพ 1 หนองคาย","2023-11-12T00:00:00",16,39.1,56.3,32.3,24.5],
    [6081,"FF1721AC76217471","ด่านฯสะพานมิตรภาพ 1 หนองคาย","2023-11-12T00:00:00",17,38.9,57.5,28.9,31.4],
    [6082,"FF1721AC76217471","ด่านฯสะพานมิตรภาพ 1 หนองคาย","2023-11-12T00:00:00",18,45.9,71.7,26.8,35.5],
    [6083,"FF1721AC76217471","ด่านฯสะพานมิตรภาพ 1 หนองคาย","2023-11-12T00:00:00",19,65.4,95.6,25.6,38.5],
    [6084,"FF1721AC76217471","ด่านฯสะพานมิตรภาพ 1 หนองคาย","2023-11-12T00:00:00",20,73,104.3,24.7,39.7],
    [6085,"FF1721AC76217471","ด่านฯสะพานมิตรภาพ 1 หนองคาย","2023-11-12T00:00:00",21,78.6,104.1,24.2,40.7],
    [6086,"FF1721AC76217471","ด่านฯสะพานมิตรภาพ 1 หนองคาย","2023-11-12T00:00:00",22,76.8,105.4,23.4,42.6],
    [6087,"FF1721AC76217471","ด่านฯสะพานมิตรภาพ 1 หนองคาย","2023-11-12T00:00:00",23,73.6,105.7,23.6,42.6],
    [6088,"FF1721AC76217473","ด่านฯสถานีรถไฟหนองคาย","2023-11-12T00:00:00",0,101.4,133.3,22.6,44],
    [6089,"FF1721AC76217473","ด่านฯสถานีรถไฟหนองคาย","2023-11-12T00:00:00",1,98.2,132.7,22.6,44.3],
    [6090,"FF1721AC76217473","ด่านฯสถานีรถไฟหนองคาย","2023-11-12T00:00:00",2,102.4,135.5,22.5,44.8],
    [6091,"FF1721AC76217473","ด่านฯสถานีรถไฟหนองคาย","2023-11-12T00:00:00",3,103.3,135.8,22.2,44.8],
    [6092,"FF1721AC76217473","ด่านฯสถานีรถไฟหนองคาย","2023-11-12T00:00:00",4,109.9,144,22,44.9],
    [6093,"FF1721AC76217473","ด่านฯสถานีรถไฟหนองคาย","2023-11-12T00:00:00",5,98.9,130,22.5,44.3],
    [6094,"FF1721AC76217473","ด่านฯสถานีรถไฟหนองคาย","2023-11-12T00:00:00",6,88.4,126.4,22.6,44.2],
    [6095,"FF1721AC76217473","ด่านฯสถานีรถไฟหนองคาย","2023-11-12T00:00:00",7,93.9,120.6,23.9,42.1],
    [6096,"FF1721AC76217473","ด่านฯสถานีรถไฟหนองคาย","2023-11-12T00:00:00",8,83.3,107,25.3,38.8],
    [6097,"FF1721AC76217473","ด่านฯสถานีรถไฟหนองคาย","2023-11-12T00:00:00",9,72.8,94.7,27.9,33.7],
    [6098,"FF1721AC76217473","ด่านฯสถานีรถไฟหนองคาย","2023-11-12T00:00:00",10,55.6,80.8,29.5,30],
    [6099,"FF1721AC76217473","ด่านฯสถานีรถไฟหนองคาย","2023-11-12T00:00:00",11,45.9,68.3,31.1,26.5],
    [6100,"FF1721AC76217473","ด่านฯสถานีรถไฟหนองคาย","2023-11-12T00:00:00",12,44.4,67.9,32.5,24.7],
    [6101,"FF1721AC76217473","ด่านฯสถานีรถไฟหนองคาย","2023-11-12T00:00:00",13,43.7,63.7,32.7,24.2],
    [6102,"FF1721AC76217473","ด่านฯสถานีรถไฟหนองคาย","2023-11-12T00:00:00",14,44.9,57.7,33.2,22.6],
    [6103,"FF1721AC76217473","ด่านฯสถานีรถไฟหนองคาย","2023-11-12T00:00:00",15,41.7,61.7,31.9,24.1],
    [6104,"FF1721AC76217473","ด่านฯสถานีรถไฟหนองคาย","2023-11-12T00:00:00",16,45.5,65.7,31,25.3],
    [6105,"FF1721AC76217473","ด่านฯสถานีรถไฟหนองคาย","2023-11-12T00:00:00",17,45.4,65.2,29.5,28.1],
    [6106,"FF1721AC76217473","ด่านฯสถานีรถไฟหนองคาย","2023-11-12T00:00:00",18,59.7,83.8,27,32.8],
    [6107,"FF1721AC76217473","ด่านฯสถานีรถไฟหนองคาย","2023-11-12T00:00:00",19,78.3,103.2,25.9,35.3],
    [6108,"FF1721AC76217473","ด่านฯสถานีรถไฟหนองคาย","2023-11-12T00:00:00",20,69.9,94.3,24.9,37.2],
    [6109,"FF1721AC76217473","ด่านฯสถานีรถไฟหนองคาย","2023-11-12T00:00:00",21,74.1,97.5,24.2,39.2],
    [6110,"FF1721AC76217473","ด่านฯสถานีรถไฟหนองคาย","2023-11-12T00:00:00",22,76.3,102.8,23.8,40.6],
    [6111,"FF1721AC76217473","ด่านฯสถานีรถไฟหนองคาย","2023-11-12T00:00:00",23,86.6,113.9,23.3,42.5],
    [6112,"FF1721AC76217475","ด่านฯท่าอากาศยานอุดรธานี","2023-11-12T00:00:00",0,68.4,92,23.9,39],
    [6113,"FF1721AC76217475","ด่านฯท่าอากาศยานอุดรธานี","2023-11-12T00:00:00",1,62.8,89.1,23.7,39.6],
    [6114,"FF1721AC76217475","ด่านฯท่าอากาศยานอุดรธานี","2023-11-12T00:00:00",2,69.5,94.5,22.9,41.1],
    [6115,"FF1721AC76217475","ด่านฯท่าอากาศยานอุดรธานี","2023-11-12T00:00:00",3,66.4,93.8,22.4,41.7],
    [6116,"FF1721AC76217475","ด่านฯท่าอากาศยานอุดรธานี","2023-11-12T00:00:00",4,58.6,85.9,22.5,41.5],
    [6117,"FF1721AC76217475","ด่านฯท่าอากาศยานอุดรธานี","2023-11-12T00:00:00",5,67.6,93.1,22.6,41.9],
    [6118,"FF1721AC76217475","ด่านฯท่าอากาศยานอุดรธานี","2023-11-12T00:00:00",6,78,100.5,21.7,43.1],
    [6119,"FF1721AC76217475","ด่านฯท่าอากาศยานอุดรธานี","2023-11-12T00:00:00",7,81.2,103.5,22.7,41.1],
    [6120,"FF1721AC76217475","ด่านฯท่าอากาศยานอุดรธานี","2023-11-12T00:00:00",8,65.9,91.7,27.2,34.4],
    [6121,"FF1721AC76217475","ด่านฯท่าอากาศยานอุดรธานี","2023-11-12T00:00:00",9,55.3,80.1,30.3,27.4],
    [6122,"FF1721AC76217475","ด่านฯท่าอากาศยานอุดรธานี","2023-11-12T00:00:00",10,52.2,78.3,32.5,24.3],
    [6123,"FF1721AC76217475","ด่านฯท่าอากาศยานอุดรธานี","2023-11-12T00:00:00",11,43.1,66.8,33.7,22.2],
    [6124,"FF1721AC76217475","ด่านฯท่าอากาศยานอุดรธานี","2023-11-12T00:00:00",12,42.7,67,34.5,20.8],
    [6125,"FF1721AC76217475","ด่านฯท่าอากาศยานอุดรธานี","2023-11-12T00:00:00",13,43.3,64.5,34,21.6],
    [6126,"FF1721AC76217475","ด่านฯท่าอากาศยานอุดรธานี","2023-11-12T00:00:00",14,44.3,67.4,34,21.4],
    [6127,"FF1721AC76217475","ด่านฯท่าอากาศยานอุดรธานี","2023-11-12T00:00:00",15,42.1,57.8,34.4,20.6],
    [6128,"FF1721AC76217475","ด่านฯท่าอากาศยานอุดรธานี","2023-11-12T00:00:00",16,40.4,60.4,32.8,21.7],
    [6129,"FF1721AC76217475","ด่านฯท่าอากาศยานอุดรธานี","2023-11-12T00:00:00",17,43.1,61.9,31.3,24],
    [6130,"FF1721AC76217475","ด่านฯท่าอากาศยานอุดรธานี","2023-11-12T00:00:00",18,48.1,73.6,29.2,28.1],
    [6131,"FF1721AC76217475","ด่านฯท่าอากาศยานอุดรธานี","2023-11-12T00:00:00",19,55.8,82.4,27.6,32.2],
    [6132,"FF1721AC76217475","ด่านฯท่าอากาศยานอุดรธานี","2023-11-12T00:00:00",20,69.8,92.5,26,35.6],
    [6133,"FF1721AC76217475","ด่านฯท่าอากาศยานอุดรธานี","2023-11-12T00:00:00",21,72.8,95.9,25.2,36.7],
    [6134,"FF1721AC76217475","ด่านฯท่าอากาศยานอุดรธานี","2023-11-12T00:00:00",22,72.6,95.9,24.8,37.1],
    [6135,"FF1721AC76217475","ด่านฯท่าอากาศยานอุดรธานี","2023-11-12T00:00:00",23,71.4,94.6,24.5,37.7],
    [6136,"FF1721AC76217484","กองดิจิทัลเพื่อการควบคุมโรค","2023-11-12T00:00:00",0,38.3,59.6,27,37.6],
    [6137,"FF1721AC76217484","กองดิจิทัลเพื่อการควบคุมโรค","2023-11-12T00:00:00",1,37.2,57.7,26.7,38],
    [6138,"FF1721AC76217484","กองดิจิทัลเพื่อการควบคุมโรค","2023-11-12T00:00:00",2,37,58.8,26.7,38.3],
    [6139,"FF1721AC76217484","กองดิจิทัลเพื่อการควบคุมโรค","2023-11-12T00:00:00",3,36.3,56.8,26.7,38.6],
    [6140,"FF1721AC76217484","กองดิจิทัลเพื่อการควบคุมโรค","2023-11-12T00:00:00",4,36,55.3,26.4,39.2],
    [6141,"FF1721AC76217484","กองดิจิทัลเพื่อการควบคุมโรค","2023-11-12T00:00:00",5,37.9,59.9,25.9,39.9],
    [6142,"FF1721AC76217484","กองดิจิทัลเพื่อการควบคุมโรค","2023-11-12T00:00:00",6,42.9,68.8,25.6,40.7],
    [6143,"FF1721AC76217484","กองดิจิทัลเพื่อการควบคุมโรค","2023-11-12T00:00:00",7,64.9,95.1,26.6,40.4],
    [6144,"FF1721AC76217484","กองดิจิทัลเพื่อการควบคุมโรค","2023-11-12T00:00:00",8,84.1,125,27.7,39.7],
    [6145,"FF1721AC76217484","กองดิจิทัลเพื่อการควบคุมโรค","2023-11-12T00:00:00",9,67.6,97,30,35.9],
    [6146,"FF1721AC76217484","กองดิจิทัลเพื่อการควบคุมโรค","2023-11-12T00:00:00",10,48.5,81.2,32.1,30.6],
    [6147,"FF1721AC76217484","กองดิจิทัลเพื่อการควบคุมโรค","2023-11-12T00:00:00",11,44,70.4,33.4,28.1],
    [6148,"FF1721AC76217484","กองดิจิทัลเพื่อการควบคุมโรค","2023-11-12T00:00:00",12,40.2,64.1,33.7,26.9],
    [6149,"FF1721AC76217484","กองดิจิทัลเพื่อการควบคุมโรค","2023-11-12T00:00:00",13,35.7,55.7,34.8,24.7],
    [6150,"FF1721AC76217484","กองดิจิทัลเพื่อการควบคุมโรค","2023-11-12T00:00:00",14,33.9,55.2,34.8,24.2],
    [6151,"FF1721AC76217484","กองดิจิทัลเพื่อการควบคุมโรค","2023-11-12T00:00:00",15,30,42.9,33.6,24.4],
    [6152,"FF1721AC76217484","กองดิจิทัลเพื่อการควบคุมโรค","2023-11-12T00:00:00",16,30.1,41.4,32.5,26.1],
    [6153,"FF1721AC76217484","กองดิจิทัลเพื่อการควบคุมโรค","2023-11-12T00:00:00",17,33.2,50.2,31.6,27.7],
    [6154,"FF1721AC76217484","กองดิจิทัลเพื่อการควบคุมโรค","2023-11-12T00:00:00",18,42.1,68.1,30.2,31.4],
    [6155,"FF1721AC76217484","กองดิจิทัลเพื่อการควบคุมโรค","2023-11-12T00:00:00",19,49.2,80.3,29.8,33.4],
    [6156,"FF1721AC76217484","กองดิจิทัลเพื่อการควบคุมโรค","2023-11-12T00:00:00",20,49.4,79.4,29.5,33.7],
    [6157,"FF1721AC76217484","กองดิจิทัลเพื่อการควบคุมโรค","2023-11-12T00:00:00",21,51.8,82.2,29.1,34.5],
    [6158,"FF1721AC76217484","กองดิจิทัลเพื่อการควบคุมโรค","2023-11-12T00:00:00",22,51.5,81.8,28.6,34.7],
    [6159,"FF1721AC76217484","กองดิจิทัลเพื่อการควบคุมโรค","2023-11-12T00:00:00",23,51.9,84.2,28.1,35.6],
    [6160,"FF1721AC76217471","ด่านฯสะพานมิตรภาพ 1 หนองคาย","2023-12-12T00:00:00",0,82,116.2,23.2,43.3],
    [6161,"FF1721AC76217471","ด่านฯสะพานมิตรภาพ 1 หนองคาย","2023-12-12T00:00:00",1,83.7,117.5,22.3,44.6],
    [6162,"FF1721AC76217471","ด่านฯสะพานมิตรภาพ 1 หนองคาย","2023-12-12T00:00:00",2,97.4,135,21.7,46.4],
    [6163,"FF1721AC76217471","ด่านฯสะพานมิตรภาพ 1 หนองคาย","2023-12-12T00:00:00",3,105.2,145.6,21.7,46.3],
    [6164,"FF1721AC76217471","ด่านฯสะพานมิตรภาพ 1 หนองคาย","2023-12-12T00:00:00",4,90.9,128.7,21.5,46.9],
    [6165,"FF1721AC76217471","ด่านฯสะพานมิตรภาพ 1 หนองคาย","2023-12-12T00:00:00",5,73.9,101.1,21.5,45.8],
    [6166,"FF1721AC76217471","ด่านฯสะพานมิตรภาพ 1 หนองคาย","2023-12-12T00:00:00",6,51.5,81.3,21.5,44.3],
    [6167,"FF1721AC76217471","ด่านฯสะพานมิตรภาพ 1 หนองคาย","2023-12-12T00:00:00",7,45,63.5,22.1,43.1],
    [6168,"FF1721AC76217471","ด่านฯสะพานมิตรภาพ 1 หนองคาย","2023-12-12T00:00:00",8,34.9,50.8,23.8,39.5],
    [6169,"FF1721AC76217471","ด่านฯสะพานมิตรภาพ 1 หนองคาย","2023-12-12T00:00:00",9,31.8,44.8,25.8,36.1],
    [6170,"FF1721AC76217471","ด่านฯสะพานมิตรภาพ 1 หนองคาย","2023-12-12T00:00:00",10,29.8,43.9,27.7,33],
    [6171,"FF1721AC76217471","ด่านฯสะพานมิตรภาพ 1 หนองคาย","2023-12-12T00:00:00",11,30.8,42.9,29.6,30.2],
    [6172,"FF1721AC76217471","ด่านฯสะพานมิตรภาพ 1 หนองคาย","2023-12-12T00:00:00",12,34.3,48.3,31.3,27.5],
    [6173,"FF1721AC76217471","ด่านฯสะพานมิตรภาพ 1 หนองคาย","2023-12-12T00:00:00",13,32.8,42.8,31.7,26.6],
    [6174,"FF1721AC76217471","ด่านฯสะพานมิตรภาพ 1 หนองคาย","2023-12-12T00:00:00",14,30.4,41.7,33.4,24.7],
    [6175,"FF1721AC76217471","ด่านฯสะพานมิตรภาพ 1 หนองคาย","2023-12-12T00:00:00",15,31.2,42,32.7,25.4],
    [6176,"FF1721AC76217471","ด่านฯสะพานมิตรภาพ 1 หนองคาย","2023-12-12T00:00:00",16,32.5,45.7,31.1,26.4],
    [6177,"FF1721AC76217471","ด่านฯสะพานมิตรภาพ 1 หนองคาย","2023-12-12T00:00:00",17,38.2,58.9,28.6,30.9],
    [6178,"FF1721AC76217471","ด่านฯสะพานมิตรภาพ 1 หนองคาย","2023-12-12T00:00:00",18,51.4,78.5,26.7,34.9],
    [6179,"FF1721AC76217471","ด่านฯสะพานมิตรภาพ 1 หนองคาย","2023-12-12T00:00:00",19,52.7,76.3,26.8,33.8],
    [6180,"FF1721AC76217471","ด่านฯสะพานมิตรภาพ 1 หนองคาย","2023-12-12T00:00:00",20,37.3,56.2,26.3,33.9],
    [6181,"FF1721AC76217471","ด่านฯสะพานมิตรภาพ 1 หนองคาย","2023-12-12T00:00:00",21,34.3,49.5,25.2,34.5],
    [6182,"FF1721AC76217471","ด่านฯสะพานมิตรภาพ 1 หนองคาย","2023-12-12T00:00:00",22,33.1,49.4,23.4,37.2],
    [6183,"FF1721AC76217471","ด่านฯสะพานมิตรภาพ 1 หนองคาย","2023-12-12T00:00:00",23,28.6,37.7,22.9,37],
    [6184,"FF1721AC76217473","ด่านฯสถานีรถไฟหนองคาย","2023-12-12T00:00:00",0,92.2,126.2,22.5,43.7],
    [6185,"FF1721AC76217473","ด่านฯสถานีรถไฟหนองคาย","2023-12-12T00:00:00",1,98.4,132,22.3,44.4],
    [6186,"FF1721AC76217473","ด่านฯสถานีรถไฟหนองคาย","2023-12-12T00:00:00",2,109.5,146.3,22.3,45.1],
    [6187,"FF1721AC76217473","ด่านฯสถานีรถไฟหนองคาย","2023-12-12T00:00:00",3,107.2,146.6,22,44.5],
    [6188,"FF1721AC76217473","ด่านฯสถานีรถไฟหนองคาย","2023-12-12T00:00:00",4,100.6,135.5,22,44.8],
    [6189,"FF1721AC76217473","ด่านฯสถานีรถไฟหนองคาย","2023-12-12T00:00:00",5,76.9,108.7,21.6,44.3],
    [6190,"FF1721AC76217473","ด่านฯสถานีรถไฟหนองคาย","2023-12-12T00:00:00",6,58.3,86.8,21.4,44.2],
    [6191,"FF1721AC76217473","ด่านฯสถานีรถไฟหนองคาย","2023-12-12T00:00:00",7,47.4,72.5,22.6,41.2],
    [6192,"FF1721AC76217473","ด่านฯสถานีรถไฟหนองคาย","2023-12-12T00:00:00",8,37.1,53.4,24.8,36.9],
    [6193,"FF1721AC76217473","ด่านฯสถานีรถไฟหนองคาย","2023-12-12T00:00:00",9,34.3,47.3,26.7,33.7],
    [6194,"FF1721AC76217473","ด่านฯสถานีรถไฟหนองคาย","2023-12-12T00:00:00",10,33.2,44.5,28.5,31],
    [6195,"FF1721AC76217473","ด่านฯสถานีรถไฟหนองคาย","2023-12-12T00:00:00",11,33.4,51,29.9,28.8],
    [6196,"FF1721AC76217473","ด่านฯสถานีรถไฟหนองคาย","2023-12-12T00:00:00",12,37.6,53.1,31,27.4],
    [6197,"FF1721AC76217473","ด่านฯสถานีรถไฟหนองคาย","2023-12-12T00:00:00",13,36,51.1,31.7,25.7],
    [6198,"FF1721AC76217473","ด่านฯสถานีรถไฟหนองคาย","2023-12-12T00:00:00",14,35.7,47.7,31.1,26.8],
    [6199,"FF1721AC76217473","ด่านฯสถานีรถไฟหนองคาย","2023-12-12T00:00:00",15,35.1,51.8,30.2,27.3],
    [6200,"FF1721AC76217473","ด่านฯสถานีรถไฟหนองคาย","2023-12-12T00:00:00",16,36.2,55.4,29.7,27.8],
    [6201,"FF1721AC76217473","ด่านฯสถานีรถไฟหนองคาย","2023-12-12T00:00:00",17,50.3,80,28.7,29.9],
    [6202,"FF1721AC76217473","ด่านฯสถานีรถไฟหนองคาย","2023-12-12T00:00:00",18,65.6,91.7,27.5,32.2],
    [6203,"FF1721AC76217473","ด่านฯสถานีรถไฟหนองคาย","2023-12-12T00:00:00",19,54.4,75.7,26.5,33.9],
    [6204,"FF1721AC76217473","ด่านฯสถานีรถไฟหนองคาย","2023-12-12T00:00:00",20,41.4,60.2,25.3,35.2],
    [6205,"FF1721AC76217473","ด่านฯสถานีรถไฟหนองคาย","2023-12-12T00:00:00",21,36.9,55.4,24.2,35.6],
    [6206,"FF1721AC76217473","ด่านฯสถานีรถไฟหนองคาย","2023-12-12T00:00:00",22,38.4,57.4,23.4,36.7],
    [6207,"FF1721AC76217473","ด่านฯสถานีรถไฟหนองคาย","2023-12-12T00:00:00",23,32.7,46.9,22.7,37],
    [6208,"FF1721AC76217475","ด่านฯท่าอากาศยานอุดรธานี","2023-12-12T00:00:00",0,82.9,106.3,24.3,38],
    [6209,"FF1721AC76217475","ด่านฯท่าอากาศยานอุดรธานี","2023-12-12T00:00:00",1,100.6,128.7,23.8,39.5],
    [6210,"FF1721AC76217475","ด่านฯท่าอากาศยานอุดรธานี","2023-12-12T00:00:00",2,96.3,128.4,23.4,40.2],
    [6211,"FF1721AC76217475","ด่านฯท่าอากาศยานอุดรธานี","2023-12-12T00:00:00",3,103.2,133.5,22.4,42.1],
    [6212,"FF1721AC76217475","ด่านฯท่าอากาศยานอุดรธานี","2023-12-12T00:00:00",4,97.7,133.8,22.2,42.7],
    [6213,"FF1721AC76217475","ด่านฯท่าอากาศยานอุดรธานี","2023-12-12T00:00:00",5,94.9,129.1,21.6,43.1],
    [6214,"FF1721AC76217475","ด่านฯท่าอากาศยานอุดรธานี","2023-12-12T00:00:00",6,95.2,130.2,21.4,43.2],
    [6215,"FF1721AC76217475","ด่านฯท่าอากาศยานอุดรธานี","2023-12-12T00:00:00",7,100.6,134.8,23.2,40.7],
    [6216,"FF1721AC76217475","ด่านฯท่าอากาศยานอุดรธานี","2023-12-12T00:00:00",8,65.4,95.5,26.1,35],
    [6217,"FF1721AC76217475","ด่านฯท่าอากาศยานอุดรธานี","2023-12-12T00:00:00",9,50.8,75.1,28.9,30.9],
    [6218,"FF1721AC76217475","ด่านฯท่าอากาศยานอุดรธานี","2023-12-12T00:00:00",10,47.6,70.7,30.8,27.2],
    [6219,"FF1721AC76217475","ด่านฯท่าอากาศยานอุดรธานี","2023-12-12T00:00:00",11,43.1,63.2,32.5,25.7],
    [6220,"FF1721AC76217475","ด่านฯท่าอากาศยานอุดรธานี","2023-12-12T00:00:00",12,35.2,48.8,32.6,24.7],
    [6221,"FF1721AC76217475","ด่านฯท่าอากาศยานอุดรธานี","2023-12-12T00:00:00",13,29.9,40,33.5,23],
    [6222,"FF1721AC76217475","ด่านฯท่าอากาศยานอุดรธานี","2023-12-12T00:00:00",14,28.4,38,35,21.4],
    [6223,"FF1721AC76217475","ด่านฯท่าอากาศยานอุดรธานี","2023-12-12T00:00:00",15,26.6,33.3,33.2,21.5],
    [6224,"FF1721AC76217475","ด่านฯท่าอากาศยานอุดรธานี","2023-12-12T00:00:00",16,26.9,33.5,33,21.7],
    [6225,"FF1721AC76217475","ด่านฯท่าอากาศยานอุดรธานี","2023-12-12T00:00:00",17,30,39.2,30.5,25],
    [6226,"FF1721AC76217475","ด่านฯท่าอากาศยานอุดรธานี","2023-12-12T00:00:00",18,38.1,53.1,28.6,27.9],
    [6227,"FF1721AC76217475","ด่านฯท่าอากาศยานอุดรธานี","2023-12-12T00:00:00",19,37.5,54.6,27.3,29.3],
    [6228,"FF1721AC76217475","ด่านฯท่าอากาศยานอุดรธานี","2023-12-12T00:00:00",20,28.9,35.3,26.2,29.3],
    [6229,"FF1721AC76217475","ด่านฯท่าอากาศยานอุดรธานี","2023-12-12T00:00:00",21,17.6,25.4,25.4,29.8],
    [6230,"FF1721AC76217475","ด่านฯท่าอากาศยานอุดรธานี","2023-12-12T00:00:00",22,16.5,22.6,24.2,31.8],
    [6231,"FF1721AC76217475","ด่านฯท่าอากาศยานอุดรธานี","2023-12-12T00:00:00",23,13,24,23.9,33],
    [6232,"FF1721AC76217484","กองดิจิทัลเพื่อการควบคุมโรค","2023-12-12T00:00:00",0,54.1,85.6,27.8,36.1],
    [6233,"FF1721AC76217484","กองดิจิทัลเพื่อการควบคุมโรค","2023-12-12T00:00:00",1,53.7,84.5,27.4,36.5],
    [6234,"FF1721AC76217484","กองดิจิทัลเพื่อการควบคุมโรค","2023-12-12T00:00:00",2,51.8,84.3,27.2,36.9],
    [6235,"FF1721AC76217484","กองดิจิทัลเพื่อการควบคุมโรค","2023-12-12T00:00:00",3,54.6,86.6,26.8,37.4],
    [6236,"FF1721AC76217484","กองดิจิทัลเพื่อการควบคุมโรค","2023-12-12T00:00:00",4,64.3,94.7,26.7,37.9],
    [6237,"FF1721AC76217484","กองดิจิทัลเพื่อการควบคุมโรค","2023-12-12T00:00:00",5,75.7,106.3,26.1,38.9],
    [6238,"FF1721AC76217484","กองดิจิทัลเพื่อการควบคุมโรค","2023-12-12T00:00:00",6,95.8,131.4,25.9,40.3],
    [6239,"FF1721AC76217484","กองดิจิทัลเพื่อการควบคุมโรค","2023-12-12T00:00:00",7,84.4,118.9,26,39.8],
    [6240,"FF1721AC76217484","กองดิจิทัลเพื่อการควบคุมโรค","2023-12-12T00:00:00",8,59.4,89.5,27.5,36],
    [6241,"FF1721AC76217484","กองดิจิทัลเพื่อการควบคุมโรค","2023-12-12T00:00:00",9,52.2,84.1,29.9,32.2],
    [6242,"FF1721AC76217484","กองดิจิทัลเพื่อการควบคุมโรค","2023-12-12T00:00:00",10,41.5,65.8,32.8,28.2],
    [6243,"FF1721AC76217484","กองดิจิทัลเพื่อการควบคุมโรค","2023-12-12T00:00:00",11,32.3,48.2,33.8,26.3],
    [6244,"FF1721AC76217484","กองดิจิทัลเพื่อการควบคุมโรค","2023-12-12T00:00:00",12,23.3,32.9,34.9,24.3],
    [6245,"FF1721AC76217484","กองดิจิทัลเพื่อการควบคุมโรค","2023-12-12T00:00:00",13,22,33.3,34.5,23.5],
    [6246,"FF1721AC76217484","กองดิจิทัลเพื่อการควบคุมโรค","2023-12-12T00:00:00",14,22.1,30.5,34.7,23.5],
    [6247,"FF1721AC76217484","กองดิจิทัลเพื่อการควบคุมโรค","2023-12-12T00:00:00",15,25.2,37.6,33.3,25.3],
    [6248,"FF1721AC76217484","กองดิจิทัลเพื่อการควบคุมโรค","2023-12-12T00:00:00",16,25.6,36,34,24.6],
    [6249,"FF1721AC76217484","กองดิจิทัลเพื่อการควบคุมโรค","2023-12-12T00:00:00",17,27.8,41,32.2,26.6],
    [6250,"FF1721AC76217484","กองดิจิทัลเพื่อการควบคุมโรค","2023-12-12T00:00:00",18,30.3,45.9,31.1,28.7],
    [6251,"FF1721AC76217484","กองดิจิทัลเพื่อการควบคุมโรค","2023-12-12T00:00:00",19,32.6,52.3,29.8,31.3],
    [6252,"FF1721AC76217484","กองดิจิทัลเพื่อการควบคุมโรค","2023-12-12T00:00:00",20,43.4,68.9,29.5,32.7],
    [6253,"FF1721AC76217484","กองดิจิทัลเพื่อการควบคุมโรค","2023-12-12T00:00:00",21,49.6,78.9,29,33.6],
    [6254,"FF1721AC76217484","กองดิจิทัลเพื่อการควบคุมโรค","2023-12-12T00:00:00",22,52.1,84.4,28.4,34.6],
    [6255,"FF1721AC76217484","กองดิจิทัลเพื่อการควบคุมโรค","2023-12-12T00:00:00",23,51.8,83.6,28.2,35.3],
    [6256,"FF1721AC76217498","ด่านฯท่าลี่ จ.เลย","2023-12-12T00:00:00",17,31.8,37.8,28.4,30.3],
    [6257,"FF1721AC76217498","ด่านฯท่าลี่ จ.เลย","2023-12-12T00:00:00",18,44.3,63.1,26.9,32.5],
    [6258,"FF1721AC76217498","ด่านฯท่าลี่ จ.เลย","2023-12-12T00:00:00",19,41.3,58.2,25.8,33.2],
    [6259,"FF1721AC76217498","ด่านฯท่าลี่ จ.เลย","2023-12-12T00:00:00",20,34.6,51.6,24.8,32.4],
    [6260,"FF1721AC76217498","ด่านฯท่าลี่ จ.เลย","2023-12-12T00:00:00",21,28.6,36.4,23.8,33.5],
    [6261,"FF1721AC76217498","ด่านฯท่าลี่ จ.เลย","2023-12-12T00:00:00",22,23.3,32.5,22.8,35.6],
    [6262,"FF1721AC76217498","ด่านฯท่าลี่ จ.เลย","2023-12-12T00:00:00",23,20.1,26.6,22.2,36.1],
    [6263,"FF1721AC76217471","ด่านฯสะพานมิตรภาพ 1 หนองคาย","2023-12-13T00:00:00",0,26.5,33.8,22.1,38.5],
    [6264,"FF1721AC76217471","ด่านฯสะพานมิตรภาพ 1 หนองคาย","2023-12-13T00:00:00",1,22.2,27.7,21.9,38.6],
    [6265,"FF1721AC76217471","ด่านฯสะพานมิตรภาพ 1 หนองคาย","2023-12-13T00:00:00",2,18.4,25,21.4,38.9],
    [6266,"FF1721AC76217471","ด่านฯสะพานมิตรภาพ 1 หนองคาย","2023-12-13T00:00:00",3,17.3,23.7,20.8,40.4],
    [6267,"FF1721AC76217471","ด่านฯสะพานมิตรภาพ 1 หนองคาย","2023-12-13T00:00:00",4,20,27,20.5,41.8],
    [6268,"FF1721AC76217471","ด่านฯสะพานมิตรภาพ 1 หนองคาย","2023-12-13T00:00:00",5,25.3,41.6,20.2,42.6],
    [6269,"FF1721AC76217471","ด่านฯสะพานมิตรภาพ 1 หนองคาย","2023-12-13T00:00:00",6,32.8,48.7,20.1,42.4],
    [6270,"FF1721AC76217471","ด่านฯสะพานมิตรภาพ 1 หนองคาย","2023-12-13T00:00:00",7,31.8,45.9,20.2,42.1],
    [6271,"FF1721AC76217471","ด่านฯสะพานมิตรภาพ 1 หนองคาย","2023-12-13T00:00:00",8,22.6,33.8,22.1,38.9],
    [6272,"FF1721AC76217471","ด่านฯสะพานมิตรภาพ 1 หนองคาย","2023-12-13T00:00:00",9,17.8,26.1,23.9,35.2],
    [6273,"FF1721AC76217471","ด่านฯสะพานมิตรภาพ 1 หนองคาย","2023-12-13T00:00:00",10,19,25.3,25.5,32],
    [6274,"FF1721AC76217471","ด่านฯสะพานมิตรภาพ 1 หนองคาย","2023-12-13T00:00:00",11,16,23.5,26.9,28.9],
    [6275,"FF1721AC76217471","ด่านฯสะพานมิตรภาพ 1 หนองคาย","2023-12-13T00:00:00",12,13.4,19.2,29,25.5],
    [6276,"FF1721AC76217471","ด่านฯสะพานมิตรภาพ 1 หนองคาย","2023-12-13T00:00:00",13,13.8,17.9,28.9,25.4],
    [6277,"FF1721AC76217471","ด่านฯสะพานมิตรภาพ 1 หนองคาย","2023-12-13T00:00:00",14,10.7,16.5,30.7,22.5],
    [6278,"FF1721AC76217471","ด่านฯสะพานมิตรภาพ 1 หนองคาย","2023-12-13T00:00:00",15,11.7,13.5,29.4,23.8],
    [6279,"FF1721AC76217471","ด่านฯสะพานมิตรภาพ 1 หนองคาย","2023-12-13T00:00:00",16,13.2,16.6,29.2,24.5],
    [6280,"FF1721AC76217471","ด่านฯสะพานมิตรภาพ 1 หนองคาย","2023-12-13T00:00:00",17,18.9,23,26.8,29.3],
    [6281,"FF1721AC76217471","ด่านฯสะพานมิตรภาพ 1 หนองคาย","2023-12-13T00:00:00",18,34.8,50.6,24.6,34.9],
    [6282,"FF1721AC76217471","ด่านฯสะพานมิตรภาพ 1 หนองคาย","2023-12-13T00:00:00",19,52.4,75.8,23.2,38.4],
    [6283,"FF1721AC76217471","ด่านฯสะพานมิตรภาพ 1 หนองคาย","2023-12-13T00:00:00",20,56.1,79.9,22.8,39.7],
    [6284,"FF1721AC76217471","ด่านฯสะพานมิตรภาพ 1 หนองคาย","2023-12-13T00:00:00",21,48.6,74,22.2,39],
    [6285,"FF1721AC76217471","ด่านฯสะพานมิตรภาพ 1 หนองคาย","2023-12-13T00:00:00",22,47.7,72.4,21.4,41],
    [6286,"FF1721AC76217471","ด่านฯสะพานมิตรภาพ 1 หนองคาย","2023-12-13T00:00:00",23,47.6,70.7,21.2,41.5],
    [6287,"FF1721AC76217473","ด่านฯสถานีรถไฟหนองคาย","2023-12-13T00:00:00",0,30.2,42.8,21.9,38.4],
    [6288,"FF1721AC76217473","ด่านฯสถานีรถไฟหนองคาย","2023-12-13T00:00:00",1,23.9,35.6,21.5,38.6],
    [6289,"FF1721AC76217473","ด่านฯสถานีรถไฟหนองคาย","2023-12-13T00:00:00",2,24.4,32.3,21.1,38.7],
    [6290,"FF1721AC76217473","ด่านฯสถานีรถไฟหนองคาย","2023-12-13T00:00:00",3,25.2,33,20.5,40.7],
    [6291,"FF1721AC76217473","ด่านฯสถานีรถไฟหนองคาย","2023-12-13T00:00:00",4,27.7,37.7,19.9,42.2],
    [6292,"FF1721AC76217473","ด่านฯสถานีรถไฟหนองคาย","2023-12-13T00:00:00",5,31.7,37.5,19.2,43.3],
    [6293,"FF1721AC76217473","ด่านฯสถานีรถไฟหนองคาย","2023-12-13T00:00:00",6,41.5,62,19,43.8],
    [6294,"FF1721AC76217473","ด่านฯสถานีรถไฟหนองคาย","2023-12-13T00:00:00",7,34.4,49.7,21.9,38.4],
    [6295,"FF1721AC76217473","ด่านฯสถานีรถไฟหนองคาย","2023-12-13T00:00:00",8,24.8,35.1,23.7,35.1],
    [6296,"FF1721AC76217473","ด่านฯสถานีรถไฟหนองคาย","2023-12-13T00:00:00",9,20,27.8,25.3,32.4],
    [6297,"FF1721AC76217473","ด่านฯสถานีรถไฟหนองคาย","2023-12-13T00:00:00",10,21.3,27.8,26.6,30.2],
    [6298,"FF1721AC76217473","ด่านฯสถานีรถไฟหนองคาย","2023-12-13T00:00:00",11,17.2,23.9,28.1,27.4],
    [6299,"FF1721AC76217473","ด่านฯสถานีรถไฟหนองคาย","2023-12-13T00:00:00",12,18.2,22.2,29.3,24.7],
    [6300,"FF1721AC76217473","ด่านฯสถานีรถไฟหนองคาย","2023-12-13T00:00:00",13,16.3,19.7,29.8,23.7],
    [6301,"FF1721AC76217473","ด่านฯสถานีรถไฟหนองคาย","2023-12-13T00:00:00",14,12,16.4,29.6,22.9],
    [6302,"FF1721AC76217473","ด่านฯสถานีรถไฟหนองคาย","2023-12-13T00:00:00",15,12.9,16.5,28.4,23.6],
    [6303,"FF1721AC76217473","ด่านฯสถานีรถไฟหนองคาย","2023-12-13T00:00:00",16,17,25.4,27.9,24.5],
    [6304,"FF1721AC76217473","ด่านฯสถานีรถไฟหนองคาย","2023-12-13T00:00:00",17,27.6,37.7,26.9,27.1],
    [6305,"FF1721AC76217473","ด่านฯสถานีรถไฟหนองคาย","2023-12-13T00:00:00",18,40.7,59.5,24.9,31.5],
    [6306,"FF1721AC76217473","ด่านฯสถานีรถไฟหนองคาย","2023-12-13T00:00:00",19,43.7,68.8,23.5,34.1],
    [6307,"FF1721AC76217473","ด่านฯสถานีรถไฟหนองคาย","2023-12-13T00:00:00",20,46.9,71.8,22.5,36.1],
    [6308,"FF1721AC76217473","ด่านฯสถานีรถไฟหนองคาย","2023-12-13T00:00:00",21,55.7,83,21.7,38.7],
    [6309,"FF1721AC76217473","ด่านฯสถานีรถไฟหนองคาย","2023-12-13T00:00:00",22,51.9,78.8,21.5,40.1],
    [6310,"FF1721AC76217473","ด่านฯสถานีรถไฟหนองคาย","2023-12-13T00:00:00",23,46.5,71.9,21.1,40.9],
    [6311,"FF1721AC76217475","ด่านฯท่าอากาศยานอุดรธานี","2023-12-13T00:00:00",11,7.1,10.5,28.4,24],
    [6312,"FF1721AC76217475","ด่านฯท่าอากาศยานอุดรธานี","2023-12-13T00:00:00",12,7.2,8.7,30,22.7],
    [6313,"FF1721AC76217475","ด่านฯท่าอากาศยานอุดรธานี","2023-12-13T00:00:00",13,8.1,10.6,31.2,21.4],
    [6314,"FF1721AC76217475","ด่านฯท่าอากาศยานอุดรธานี","2023-12-13T00:00:00",14,9.1,11,30.7,21.4],
    [6315,"FF1721AC76217475","ด่านฯท่าอากาศยานอุดรธานี","2023-12-13T00:00:00",15,9.3,10.5,31.9,20.5],
    [6316,"FF1721AC76217475","ด่านฯท่าอากาศยานอุดรธานี","2023-12-13T00:00:00",16,9.2,9.7,30.6,21.7],
    [6317,"FF1721AC76217475","ด่านฯท่าอากาศยานอุดรธานี","2023-12-13T00:00:00",17,10,22.2,28.9,23.5],
    [6318,"FF1721AC76217475","ด่านฯท่าอากาศยานอุดรธานี","2023-12-13T00:00:00",18,21.2,34.8,27.6,26.6],
    [6319,"FF1721AC76217475","ด่านฯท่าอากาศยานอุดรธานี","2023-12-13T00:00:00",19,30.1,45.4,26.3,28.7],
    [6320,"FF1721AC76217475","ด่านฯท่าอากาศยานอุดรธานี","2023-12-13T00:00:00",20,42.6,66.8,24.7,32.3],
    [6321,"FF1721AC76217475","ด่านฯท่าอากาศยานอุดรธานี","2023-12-13T00:00:00",21,41.7,59.8,23.6,34.9],
    [6322,"FF1721AC76217475","ด่านฯท่าอากาศยานอุดรธานี","2023-12-13T00:00:00",22,38.4,56.2,22.9,35.8],
    [6323,"FF1721AC76217475","ด่านฯท่าอากาศยานอุดรธานี","2023-12-13T00:00:00",23,43.5,65.4,22,37.6],
    [6324,"FF1721AC76217484","กองดิจิทัลเพื่อการควบคุมโรค","2023-12-13T00:00:00",0,49.8,80.3,28.2,36.1],
    [6325,"FF1721AC76217484","กองดิจิทัลเพื่อการควบคุมโรค","2023-12-13T00:00:00",1,46.2,73.3,28.2,36.7],
    [6326,"FF1721AC76217484","กองดิจิทัลเพื่อการควบคุมโรค","2023-12-13T00:00:00",2,45.7,73.5,28.2,36.9],
    [6327,"FF1721AC76217484","กองดิจิทัลเพื่อการควบคุมโรค","2023-12-13T00:00:00",3,49.7,78.7,27.6,37.5],
    [6328,"FF1721AC76217484","กองดิจิทัลเพื่อการควบคุมโรค","2023-12-13T00:00:00",4,60.7,91.3,26.8,38.5],
    [6329,"FF1721AC76217484","กองดิจิทัลเพื่อการควบคุมโรค","2023-12-13T00:00:00",5,65.2,93.1,26.9,38.9],
    [6330,"FF1721AC76217484","กองดิจิทัลเพื่อการควบคุมโรค","2023-12-13T00:00:00",6,59.1,89.8,27.1,38.6],
    [6331,"FF1721AC76217484","กองดิจิทัลเพื่อการควบคุมโรค","2023-12-13T00:00:00",7,46.5,74.7,27.1,38.1],
    [6332,"FF1721AC76217484","กองดิจิทัลเพื่อการควบคุมโรค","2023-12-13T00:00:00",8,45.1,70.1,28.5,36.6],
    [6333,"FF1721AC76217484","กองดิจิทัลเพื่อการควบคุมโรค","2023-12-13T00:00:00",9,37.8,54.4,29.4,34.7],
    [6334,"FF1721AC76217484","กองดิจิทัลเพื่อการควบคุมโรค","2023-12-13T00:00:00",10,33.5,48.1,31.5,31.2],
    [6335,"FF1721AC76217484","กองดิจิทัลเพื่อการควบคุมโรค","2023-12-13T00:00:00",11,25.1,35.1,32.6,28.8],
    [6336,"FF1721AC76217484","กองดิจิทัลเพื่อการควบคุมโรค","2023-12-13T00:00:00",12,22.4,30.6,34.4,26.4],
    [6337,"FF1721AC76217484","กองดิจิทัลเพื่อการควบคุมโรค","2023-12-13T00:00:00",13,21.2,26.5,33.7,26.8],
    [6338,"FF1721AC76217484","กองดิจิทัลเพื่อการควบคุมโรค","2023-12-13T00:00:00",14,23,33,34.2,25.5],
    [6339,"FF1721AC76217484","กองดิจิทัลเพื่อการควบคุมโรค","2023-12-13T00:00:00",16,25.8,36.1,32.2,27.6],
    [6340,"FF1721AC76217484","กองดิจิทัลเพื่อการควบคุมโรค","2023-12-13T00:00:00",17,25.8,37.9,31,29.1],
    [6341,"FF1721AC76217484","กองดิจิทัลเพื่อการควบคุมโรค","2023-12-13T00:00:00",18,28.5,38.9,30.3,30.1],
    [6342,"FF1721AC76217484","กองดิจิทัลเพื่อการควบคุมโรค","2023-12-13T00:00:00",19,31,47.2,30,30.8],
    [6343,"FF1721AC76217484","กองดิจิทัลเพื่อการควบคุมโรค","2023-12-13T00:00:00",20,30.4,42.9,29.7,31.8],
    [6344,"FF1721AC76217484","กองดิจิทัลเพื่อการควบคุมโรค","2023-12-13T00:00:00",21,29.9,45.8,29.4,31.9],
    [6345,"FF1721AC76217484","กองดิจิทัลเพื่อการควบคุมโรค","2023-12-13T00:00:00",22,28.7,42.5,28.9,32.2],
    [6346,"FF1721AC76217484","กองดิจิทัลเพื่อการควบคุมโรค","2023-12-13T00:00:00",23,29.6,45.2,28.3,33.2],
    [6347,"FF1721AC76217486","ด่านฯเชียงคาน จ.เลย","2023-12-13T00:00:00",11,7,3,22.7,34],
    [6348,"FF1721AC76217486","ด่านฯเชียงคาน จ.เลย","2023-12-13T00:00:00",12,3.4,5,24.9,30.5],
    [6349,"FF1721AC76217486","ด่านฯเชียงคาน จ.เลย","2023-12-13T00:00:00",13,6.6,8,27.3,27.6],
    [6350,"FF1721AC76217486","ด่านฯเชียงคาน จ.เลย","2023-12-13T00:00:00",14,7.4,10.3,28.1,27],
    [6351,"FF1721AC76217498","ด่านฯท่าลี่ จ.เลย","2023-12-13T00:00:00",0,21.3,28.9,20.9,38.9],
    [6352,"FF1721AC76217498","ด่านฯท่าลี่ จ.เลย","2023-12-13T00:00:00",1,19.4,25.6,20.1,41.3],
    [6353,"FF1721AC76217498","ด่านฯท่าลี่ จ.เลย","2023-12-13T00:00:00",2,21.2,26.6,19.7,42],
    [6354,"FF1721AC76217498","ด่านฯท่าลี่ จ.เลย","2023-12-13T00:00:00",3,21,27.8,19.5,42.2],
    [6355,"FF1721AC76217498","ด่านฯท่าลี่ จ.เลย","2023-12-13T00:00:00",4,21.3,28.8,19.2,42.3],
    [6356,"FF1721AC76217498","ด่านฯท่าลี่ จ.เลย","2023-12-13T00:00:00",6,31.1,39.9,18.5,43.8],
    [6357,"FF1721AC76217498","ด่านฯท่าลี่ จ.เลย","2023-12-13T00:00:00",7,38,48,19.4,43.3],
    [6358,"FF1721AC76217498","ด่านฯท่าลี่ จ.เลย","2023-12-13T00:00:00",8,26.7,30.4,21.7,39],
    [6359,"FF1721AC76217498","ด่านฯท่าลี่ จ.เลย","2023-12-13T00:00:00",9,17,20.9,24,34.5],
    [6360,"FF1721AC76217498","ด่านฯท่าลี่ จ.เลย","2023-12-13T00:00:00",10,9.1,10.7,25.5,29.5],
    [6361,"FF1721AC76217498","ด่านฯท่าลี่ จ.เลย","2023-12-13T00:00:00",11,7.8,9.4,27.3,26.9],
    [6362,"FF1721AC76217498","ด่านฯท่าลี่ จ.เลย","2023-12-13T00:00:00",12,7.3,9,29.6,23.7],
    [6363,"FF1721AC76217498","ด่านฯท่าลี่ จ.เลย","2023-12-13T00:00:00",14,9,10,30.5,22.5],
    [6364,"FF1721AC76217498","ด่านฯท่าลี่ จ.เลย","2023-12-13T00:00:00",15,8,11,29.4,24.3],
    [6365,"FF1721AC76217498","ด่านฯท่าลี่ จ.เลย","2023-12-13T00:00:00",16,8.5,10,28.4,24.5],
    [6366,"FF1721AC76217498","ด่านฯท่าลี่ จ.เลย","2023-12-13T00:00:00",17,14,19,26.5,30],
    [6367,"FF1721AC76217498","ด่านฯท่าลี่ จ.เลย","2023-12-13T00:00:00",18,24.5,30,24.9,33.6],
    [6368,"FF1721AC76217498","ด่านฯท่าลี่ จ.เลย","2023-12-13T00:00:00",19,36.5,48.8,23.9,35.7],
    [6369,"FF1721AC76217498","ด่านฯท่าลี่ จ.เลย","2023-12-13T00:00:00",20,38.6,54.2,23,35.9],
    [6370,"FF1721AC76217498","ด่านฯท่าลี่ จ.เลย","2023-12-13T00:00:00",21,36.9,52.3,22.3,37],
    [6371,"FF1721AC76217498","ด่านฯท่าลี่ จ.เลย","2023-12-13T00:00:00",22,38.6,54.6,22.5,36.2],
    [6372,"FF1721AC76217498","ด่านฯท่าลี่ จ.เลย","2023-12-13T00:00:00",23,41.9,62.1,21.6,37.9],
    [6373,"FF1721AC76217471","ด่านฯสะพานมิตรภาพ 1 หนองคาย","2023-12-14T00:00:00",0,57.6,86.4,20.6,42.2],
    [6374,"FF1721AC76217471","ด่านฯสะพานมิตรภาพ 1 หนองคาย","2023-12-14T00:00:00",1,59.4,89.9,20.5,41.8],
    [6375,"FF1721AC76217471","ด่านฯสะพานมิตรภาพ 1 หนองคาย","2023-12-14T00:00:00",2,61.8,90.6,19.7,43.8],
    [6376,"FF1721AC76217471","ด่านฯสะพานมิตรภาพ 1 หนองคาย","2023-12-14T00:00:00",3,59.2,90.2,19.4,44.2],
    [6377,"FF1721AC76217471","ด่านฯสะพานมิตรภาพ 1 หนองคาย","2023-12-14T00:00:00",4,61.7,93,19.4,44.8],
    [6378,"FF1721AC76217471","ด่านฯสะพานมิตรภาพ 1 หนองคาย","2023-12-14T00:00:00",5,58.1,88.5,19.1,45],
    [6379,"FF1721AC76217471","ด่านฯสะพานมิตรภาพ 1 หนองคาย","2023-12-14T00:00:00",6,56.9,86.2,19.7,43.5],
    [6380,"FF1721AC76217471","ด่านฯสะพานมิตรภาพ 1 หนองคาย","2023-12-14T00:00:00",7,53.7,78.9,21.1,41.1],
    [6381,"FF1721AC76217471","ด่านฯสะพานมิตรภาพ 1 หนองคาย","2023-12-14T00:00:00",8,32.2,46.8,23.2,35.8],
    [6382,"FF1721AC76217471","ด่านฯสะพานมิตรภาพ 1 หนองคาย","2023-12-14T00:00:00",9,23,29.8,24.5,33.8],
    [6383,"FF1721AC76217471","ด่านฯสะพานมิตรภาพ 1 หนองคาย","2023-12-14T00:00:00",10,19.8,30.7,26.1,30.8],
    [6384,"FF1721AC76217471","ด่านฯสะพานมิตรภาพ 1 หนองคาย","2023-12-14T00:00:00",11,13.9,22.8,28.1,27.8],
    [6385,"FF1721AC76217471","ด่านฯสะพานมิตรภาพ 1 หนองคาย","2023-12-14T00:00:00",12,12.1,14.1,29.6,26.1],
    [6386,"FF1721AC76217471","ด่านฯสะพานมิตรภาพ 1 หนองคาย","2023-12-14T00:00:00",13,13.8,18.7,29.5,25.2],
    [6387,"FF1721AC76217471","ด่านฯสะพานมิตรภาพ 1 หนองคาย","2023-12-14T00:00:00",14,11.4,15,30.4,24],
    [6388,"FF1721AC76217471","ด่านฯสะพานมิตรภาพ 1 หนองคาย","2023-12-14T00:00:00",15,11.5,17.1,29.9,24.5],
    [6389,"FF1721AC76217471","ด่านฯสะพานมิตรภาพ 1 หนองคาย","2023-12-14T00:00:00",16,15.1,21.5,29.7,24.8],
    [6390,"FF1721AC76217471","ด่านฯสะพานมิตรภาพ 1 หนองคาย","2023-12-14T00:00:00",17,19.1,34.2,26.7,31.9],
    [6391,"FF1721AC76217471","ด่านฯสะพานมิตรภาพ 1 หนองคาย","2023-12-14T00:00:00",18,44.5,68.6,24.9,35.7],
    [6392,"FF1721AC76217471","ด่านฯสะพานมิตรภาพ 1 หนองคาย","2023-12-14T00:00:00",19,57.7,85.9,24,37.9],
    [6393,"FF1721AC76217471","ด่านฯสะพานมิตรภาพ 1 หนองคาย","2023-12-14T00:00:00",20,67.4,95.6,23.2,39.8],
    [6394,"FF1721AC76217471","ด่านฯสะพานมิตรภาพ 1 หนองคาย","2023-12-14T00:00:00",21,74.3,99.2,22.6,40.9],
    [6395,"FF1721AC76217471","ด่านฯสะพานมิตรภาพ 1 หนองคาย","2023-12-14T00:00:00",22,69,95.8,22.3,40.8],
    [6396,"FF1721AC76217471","ด่านฯสะพานมิตรภาพ 1 หนองคาย","2023-12-14T00:00:00",23,69,93.9,21.9,41.4],
    [6397,"FF1721AC76217473","ด่านฯสถานีรถไฟหนองคาย","2023-12-14T00:00:00",0,66.8,93.7,20.8,40.6],
    [6398,"FF1721AC76217473","ด่านฯสถานีรถไฟหนองคาย","2023-12-14T00:00:00",1,64.8,92,20.5,39.8],
    [6399,"FF1721AC76217473","ด่านฯสถานีรถไฟหนองคาย","2023-12-14T00:00:00",2,62.6,89.3,20.1,41.6],
    [6400,"FF1721AC76217473","ด่านฯสถานีรถไฟหนองคาย","2023-12-14T00:00:00",3,60.2,89.5,19.7,42.4],
    [6401,"FF1721AC76217473","ด่านฯสถานีรถไฟหนองคาย","2023-12-14T00:00:00",4,59.4,87,19.5,42.7],
    [6402,"FF1721AC76217473","ด่านฯสถานีรถไฟหนองคาย","2023-12-14T00:00:00",5,65.4,97.9,19.3,43.4],
    [6403,"FF1721AC76217473","ด่านฯสถานีรถไฟหนองคาย","2023-12-14T00:00:00",6,64.2,92.4,19.2,43.8],
    [6404,"FF1721AC76217473","ด่านฯสถานีรถไฟหนองคาย","2023-12-14T00:00:00",7,65.6,92.7,21.8,39.1],
    [6405,"FF1721AC76217473","ด่านฯสถานีรถไฟหนองคาย","2023-12-14T00:00:00",8,31.5,49.1,24.3,33.7],
    [6406,"FF1721AC76217473","ด่านฯสถานีรถไฟหนองคาย","2023-12-14T00:00:00",9,23.7,32.5,26.3,30.6],
    [6407,"FF1721AC76217473","ด่านฯสถานีรถไฟหนองคาย","2023-12-14T00:00:00",10,23.1,27,27.8,27.8],
    [6408,"FF1721AC76217473","ด่านฯสถานีรถไฟหนองคาย","2023-12-14T00:00:00",11,18.7,24.1,28.2,27.1],
    [6409,"FF1721AC76217473","ด่านฯสถานีรถไฟหนองคาย","2023-12-14T00:00:00",12,16.1,19.3,29.5,25],
    [6410,"FF1721AC76217473","ด่านฯสถานีรถไฟหนองคาย","2023-12-14T00:00:00",13,14,18.4,30.4,23.4],
    [6411,"FF1721AC76217473","ด่านฯสถานีรถไฟหนองคาย","2023-12-14T00:00:00",14,12.6,17.9,30,23.4],
    [6412,"FF1721AC76217473","ด่านฯสถานีรถไฟหนองคาย","2023-12-14T00:00:00",15,16.3,22.1,29.5,24.2],
    [6413,"FF1721AC76217473","ด่านฯสถานีรถไฟหนองคาย","2023-12-14T00:00:00",16,21.4,30.1,28.7,25.3],
    [6414,"FF1721AC76217473","ด่านฯสถานีรถไฟหนองคาย","2023-12-14T00:00:00",17,29.6,36.9,27.5,27.2],
    [6415,"FF1721AC76217473","ด่านฯสถานีรถไฟหนองคาย","2023-12-14T00:00:00",18,48.5,73.3,25.7,31.6],
    [6416,"FF1721AC76217473","ด่านฯสถานีรถไฟหนองคาย","2023-12-14T00:00:00",19,58.3,86.8,24.8,33.7],
    [6417,"FF1721AC76217473","ด่านฯสถานีรถไฟหนองคาย","2023-12-14T00:00:00",20,81.4,104.6,23.7,36],
    [6418,"FF1721AC76217473","ด่านฯสถานีรถไฟหนองคาย","2023-12-14T00:00:00",21,78,99.6,22.7,38],
    [6419,"FF1721AC76217473","ด่านฯสถานีรถไฟหนองคาย","2023-12-14T00:00:00",22,67.6,92.2,22.1,39.5],
    [6420,"FF1721AC76217473","ด่านฯสถานีรถไฟหนองคาย","2023-12-14T00:00:00",23,68.9,95,21.2,41.1],
    [6421,"FF1721AC76217475","ด่านฯท่าอากาศยานอุดรธานี","2023-12-14T00:00:00",0,45.1,67.6,21.9,38.4],
    [6422,"FF1721AC76217475","ด่านฯท่าอากาศยานอุดรธานี","2023-12-14T00:00:00",1,45.1,67.7,21.8,38.7],
    [6423,"FF1721AC76217475","ด่านฯท่าอากาศยานอุดรธานี","2023-12-14T00:00:00",2,47.8,69.8,20.7,40.7],
    [6424,"FF1721AC76217475","ด่านฯท่าอากาศยานอุดรธานี","2023-12-14T00:00:00",3,47.4,71.7,20.5,40.9],
    [6425,"FF1721AC76217475","ด่านฯท่าอากาศยานอุดรธานี","2023-12-14T00:00:00",4,47.8,73.2,20.1,41.2],
    [6426,"FF1721AC76217475","ด่านฯท่าอากาศยานอุดรธานี","2023-12-14T00:00:00",5,51,76.3,20,41.9],
    [6427,"FF1721AC76217475","ด่านฯท่าอากาศยานอุดรธานี","2023-12-14T00:00:00",6,57.2,83.7,19.8,41.9],
    [6428,"FF1721AC76217475","ด่านฯท่าอากาศยานอุดรธานี","2023-12-14T00:00:00",7,52.7,76.8,20.9,40.1],
    [6429,"FF1721AC76217475","ด่านฯท่าอากาศยานอุดรธานี","2023-12-14T00:00:00",8,31.1,42.6,24.9,32.7],
    [6430,"FF1721AC76217475","ด่านฯท่าอากาศยานอุดรธานี","2023-12-14T00:00:00",9,21.2,31.4,27.8,27.7],
    [6431,"FF1721AC76217475","ด่านฯท่าอากาศยานอุดรธานี","2023-12-14T00:00:00",10,14.9,18.4,28,27],
    [6432,"FF1721AC76217475","ด่านฯท่าอากาศยานอุดรธานี","2023-12-14T00:00:00",11,13.6,15.7,29.6,24.7],
    [6433,"FF1721AC76217475","ด่านฯท่าอากาศยานอุดรธานี","2023-12-14T00:00:00",12,12.5,14.8,30.1,23.9],
    [6434,"FF1721AC76217475","ด่านฯท่าอากาศยานอุดรธานี","2023-12-14T00:00:00",13,11.4,12.9,30.6,22.4],
    [6435,"FF1721AC76217475","ด่านฯท่าอากาศยานอุดรธานี","2023-12-14T00:00:00",14,11,21.2,32.4,21],
    [6436,"FF1721AC76217475","ด่านฯท่าอากาศยานอุดรธานี","2023-12-14T00:00:00",15,12.6,14.3,33.5,19.7],
    [6437,"FF1721AC76217475","ด่านฯท่าอากาศยานอุดรธานี","2023-12-14T00:00:00",16,13.8,17.8,31.1,21.8],
    [6438,"FF1721AC76217475","ด่านฯท่าอากาศยานอุดรธานี","2023-12-14T00:00:00",17,18.8,27.7,29.5,23.5],
    [6439,"FF1721AC76217475","ด่านฯท่าอากาศยานอุดรธานี","2023-12-14T00:00:00",18,21.1,29.4,27.6,27.3],
    [6440,"FF1721AC76217475","ด่านฯท่าอากาศยานอุดรธานี","2023-12-14T00:00:00",19,35.7,51.8,26,30.8],
    [6441,"FF1721AC76217475","ด่านฯท่าอากาศยานอุดรธานี","2023-12-14T00:00:00",20,41.9,60.7,24.8,33.7],
    [6442,"FF1721AC76217475","ด่านฯท่าอากาศยานอุดรธานี","2023-12-14T00:00:00",21,60.3,85,24.1,35.8],
    [6443,"FF1721AC76217475","ด่านฯท่าอากาศยานอุดรธานี","2023-12-14T00:00:00",22,59.4,91.2,23.2,37.3],
    [6444,"FF1721AC76217475","ด่านฯท่าอากาศยานอุดรธานี","2023-12-14T00:00:00",23,55.1,82.2,22.5,38.9],
    [6445,"FF1721AC76217484","กองดิจิทัลเพื่อการควบคุมโรค","2023-12-14T00:00:00",0,32.5,48.3,27.8,34.1],
    [6446,"FF1721AC76217484","กองดิจิทัลเพื่อการควบคุมโรค","2023-12-14T00:00:00",1,31.1,44.9,27.5,34.5],
    [6447,"FF1721AC76217484","กองดิจิทัลเพื่อการควบคุมโรค","2023-12-14T00:00:00",2,32.3,50.5,27.1,35.1],
    [6448,"FF1721AC76217484","กองดิจิทัลเพื่อการควบคุมโรค","2023-12-14T00:00:00",3,32.7,50.7,26.6,35.7],
    [6449,"FF1721AC76217484","กองดิจิทัลเพื่อการควบคุมโรค","2023-12-14T00:00:00",4,32.3,52,26.3,35.9],
    [6450,"FF1721AC76217484","กองดิจิทัลเพื่อการควบคุมโรค","2023-12-14T00:00:00",5,33.4,52.8,25.7,37.2],
    [6451,"FF1721AC76217484","กองดิจิทัลเพื่อการควบคุมโรค","2023-12-14T00:00:00",6,34.2,57.2,25.6,37.3],
    [6452,"FF1721AC76217484","กองดิจิทัลเพื่อการควบคุมโรค","2023-12-14T00:00:00",7,35.4,56.9,26.3,36.4],
    [6453,"FF1721AC76217484","กองดิจิทัลเพื่อการควบคุมโรค","2023-12-14T00:00:00",8,33,54.4,27.2,34.8],
    [6454,"FF1721AC76217484","กองดิจิทัลเพื่อการควบคุมโรค","2023-12-14T00:00:00",9,31.1,49.8,29.9,30.8],
    [6455,"FF1721AC76217484","กองดิจิทัลเพื่อการควบคุมโรค","2023-12-14T00:00:00",10,21.2,35.1,31.9,27.5],
    [6456,"FF1721AC76217484","กองดิจิทัลเพื่อการควบคุมโรค","2023-12-14T00:00:00",11,19.7,27.3,33.7,25.5],
    [6457,"FF1721AC76217484","กองดิจิทัลเพื่อการควบคุมโรค","2023-12-14T00:00:00",12,16.5,25.3,34.4,24.7],
    [6458,"FF1721AC76217484","กองดิจิทัลเพื่อการควบคุมโรค","2023-12-14T00:00:00",13,16,23.1,34,25],
    [6459,"FF1721AC76217484","กองดิจิทัลเพื่อการควบคุมโรค","2023-12-14T00:00:00",14,16.2,22.2,33.6,24.5],
    [6460,"FF1721AC76217484","กองดิจิทัลเพื่อการควบคุมโรค","2023-12-14T00:00:00",15,16.9,23.3,32.5,26],
    [6461,"FF1721AC76217484","กองดิจิทัลเพื่อการควบคุมโรค","2023-12-14T00:00:00",16,16.8,22,32.6,25.9],
    [6462,"FF1721AC76217484","กองดิจิทัลเพื่อการควบคุมโรค","2023-12-14T00:00:00",17,17.7,26.7,31.1,27.2],
    [6463,"FF1721AC76217484","กองดิจิทัลเพื่อการควบคุมโรค","2023-12-14T00:00:00",18,21.4,34.2,30.3,28.8],
    [6464,"FF1721AC76217484","กองดิจิทัลเพื่อการควบคุมโรค","2023-12-14T00:00:00",19,25.4,35.6,29.8,30.1],
    [6465,"FF1721AC76217484","กองดิจิทัลเพื่อการควบคุมโรค","2023-12-14T00:00:00",20,31.4,48.6,29.1,31.1],
    [6466,"FF1721AC76217484","กองดิจิทัลเพื่อการควบคุมโรค","2023-12-14T00:00:00",21,31.6,48.5,28.9,31.5],
    [6467,"FF1721AC76217484","กองดิจิทัลเพื่อการควบคุมโรค","2023-12-14T00:00:00",22,35.7,57.7,27.9,33.6],
    [6468,"FF1721AC76217484","กองดิจิทัลเพื่อการควบคุมโรค","2023-12-14T00:00:00",23,39.4,63.6,27.6,34.8],
    [6469,"FF1721AC76217498","ด่านฯท่าลี่ จ.เลย","2023-12-14T00:00:00",0,43.1,65.4,20.8,39.8],
    [6470,"FF1721AC76217498","ด่านฯท่าลี่ จ.เลย","2023-12-14T00:00:00",1,39.9,62.6,20.5,41],
    [6471,"FF1721AC76217498","ด่านฯท่าลี่ จ.เลย","2023-12-14T00:00:00",2,41.6,59.4,19.9,42.2],
    [6472,"FF1721AC76217498","ด่านฯท่าลี่ จ.เลย","2023-12-14T00:00:00",3,42,61.7,19.7,42.6],
    [6473,"FF1721AC76217498","ด่านฯท่าลี่ จ.เลย","2023-12-14T00:00:00",4,41.7,60.7,18.9,43],
    [6474,"FF1721AC76217498","ด่านฯท่าลี่ จ.เลย","2023-12-14T00:00:00",5,42.3,68,18.3,44.5],
    [6475,"FF1721AC76217498","ด่านฯท่าลี่ จ.เลย","2023-12-14T00:00:00",6,49,73.3,18.7,43.6],
    [6476,"FF1721AC76217498","ด่านฯท่าลี่ จ.เลย","2023-12-14T00:00:00",7,48.9,70.7,19.2,43.6],
    [6477,"FF1721AC76217498","ด่านฯท่าลี่ จ.เลย","2023-12-14T00:00:00",8,38,51,21.5,39],
    [6478,"FF1721AC76217498","ด่านฯท่าลี่ จ.เลย","2023-12-14T00:00:00",9,22.8,30.5,23.6,34.9],
    [6479,"FF1721AC76217498","ด่านฯท่าลี่ จ.เลย","2023-12-14T00:00:00",10,19.5,27.3,25.6,31.9],
    [6480,"FF1721AC76217498","ด่านฯท่าลี่ จ.เลย","2023-12-14T00:00:00",11,11,14,28.7,26.8],
    [6481,"FF1721AC76217498","ด่านฯท่าลี่ จ.เลย","2023-12-14T00:00:00",15,11,13,31.5,24],
    [6482,"FF1721AC76217498","ด่านฯท่าลี่ จ.เลย","2023-12-14T00:00:00",16,10,12,28.7,26.5],
    [6483,"FF1721AC76217498","ด่านฯท่าลี่ จ.เลย","2023-12-14T00:00:00",17,14.1,14.8,27,31.6],
    [6484,"FF1721AC76217498","ด่านฯท่าลี่ จ.เลย","2023-12-14T00:00:00",18,12,17,25.4,33.6],
    [6485,"FF1721AC76217498","ด่านฯท่าลี่ จ.เลย","2023-12-14T00:00:00",19,32,48,23.8,35.3],
    [6486,"FF1721AC76217498","ด่านฯท่าลี่ จ.เลย","2023-12-14T00:00:00",20,31.3,42,23.2,37],
    [6487,"FF1721AC76217498","ด่านฯท่าลี่ จ.เลย","2023-12-14T00:00:00",21,44,66.5,22.8,37.8],
    [6488,"FF1721AC76217498","ด่านฯท่าลี่ จ.เลย","2023-12-14T00:00:00",22,44,63.4,21.9,39.2],
    [6489,"FF1721AC76217498","ด่านฯท่าลี่ จ.เลย","2023-12-14T00:00:00",23,43.7,65.2,21.5,39.8],
    [6490,"FF1721AC76217471","ด่านฯสะพานมิตรภาพ 1 หนองคาย","2023-12-15T00:00:00",0,73.6,102.8,21,43.5],
    [6491,"FF1721AC76217471","ด่านฯสะพานมิตรภาพ 1 หนองคาย","2023-12-15T00:00:00",1,76.2,99.9,20.9,44],
    [6492,"FF1721AC76217471","ด่านฯสะพานมิตรภาพ 1 หนองคาย","2023-12-15T00:00:00",2,82.8,114.8,20.5,45.1],
    [6493,"FF1721AC76217471","ด่านฯสะพานมิตรภาพ 1 หนองคาย","2023-12-15T00:00:00",3,69.5,98.3,20.2,45.2],
    [6494,"FF1721AC76217471","ด่านฯสะพานมิตรภาพ 1 หนองคาย","2023-12-15T00:00:00",4,49,77.3,20.2,45.3],
    [6495,"FF1721AC76217471","ด่านฯสะพานมิตรภาพ 1 หนองคาย","2023-12-15T00:00:00",5,39.4,59.1,20.5,44],
    [6496,"FF1721AC76217471","ด่านฯสะพานมิตรภาพ 1 หนองคาย","2023-12-15T00:00:00",6,32.9,45.4,20.2,44.5],
    [6497,"FF1721AC76217471","ด่านฯสะพานมิตรภาพ 1 หนองคาย","2023-12-15T00:00:00",7,34.7,53.8,21,43.6],
    [6498,"FF1721AC76217471","ด่านฯสะพานมิตรภาพ 1 หนองคาย","2023-12-15T00:00:00",8,42,61.1,22.1,41.6],
    [6499,"FF1721AC76217471","ด่านฯสะพานมิตรภาพ 1 หนองคาย","2023-12-15T00:00:00",9,39.8,59.2,23.6,38.4],
    [6500,"FF1721AC76217471","ด่านฯสะพานมิตรภาพ 1 หนองคาย","2023-12-15T00:00:00",10,36.3,51,26.4,33.2],
    [6501,"FF1721AC76217471","ด่านฯสะพานมิตรภาพ 1 หนองคาย","2023-12-15T00:00:00",11,33.3,49,27.9,29.5],
    [6502,"FF1721AC76217471","ด่านฯสะพานมิตรภาพ 1 หนองคาย","2023-12-15T00:00:00",12,28.6,42.8,28.9,27.6],
    [6503,"FF1721AC76217471","ด่านฯสะพานมิตรภาพ 1 หนองคาย","2023-12-15T00:00:00",13,25.1,31.7,30.4,24.8],
    [6504,"FF1721AC76217471","ด่านฯสะพานมิตรภาพ 1 หนองคาย","2023-12-15T00:00:00",14,19.9,25.5,31.5,23],
    [6505,"FF1721AC76217471","ด่านฯสะพานมิตรภาพ 1 หนองคาย","2023-12-15T00:00:00",15,17,23.1,31.8,21.1],
    [6506,"FF1721AC76217471","ด่านฯสะพานมิตรภาพ 1 หนองคาย","2023-12-15T00:00:00",16,13.3,22.2,31.1,20.9],
    [6507,"FF1721AC76217471","ด่านฯสะพานมิตรภาพ 1 หนองคาย","2023-12-15T00:00:00",17,19.2,23.8,27.7,29.7],
    [6508,"FF1721AC76217471","ด่านฯสะพานมิตรภาพ 1 หนองคาย","2023-12-15T00:00:00",18,35.5,54.2,25.4,34.1],
    [6509,"FF1721AC76217471","ด่านฯสะพานมิตรภาพ 1 หนองคาย","2023-12-15T00:00:00",19,47.4,76.6,24.2,35.8],
    [6510,"FF1721AC76217471","ด่านฯสะพานมิตรภาพ 1 หนองคาย","2023-12-15T00:00:00",20,57.6,84,23.4,37.9],
    [6511,"FF1721AC76217471","ด่านฯสะพานมิตรภาพ 1 หนองคาย","2023-12-15T00:00:00",21,51.3,78.8,22.9,39.8],
    [6512,"FF1721AC76217471","ด่านฯสะพานมิตรภาพ 1 หนองคาย","2023-12-15T00:00:00",22,50.1,76.7,22.1,42],
    [6513,"FF1721AC76217471","ด่านฯสะพานมิตรภาพ 1 หนองคาย","2023-12-15T00:00:00",23,48.8,79.3,21.3,42.7],
    [6514,"FF1721AC76217473","ด่านฯสถานีรถไฟหนองคาย","2023-12-15T00:00:00",0,71.6,96.4,20.8,42.7],
    [6515,"FF1721AC76217473","ด่านฯสถานีรถไฟหนองคาย","2023-12-15T00:00:00",1,80.2,103,20.4,43.8],
    [6516,"FF1721AC76217473","ด่านฯสถานีรถไฟหนองคาย","2023-12-15T00:00:00",2,99.8,130,20.5,44.6],
    [6517,"FF1721AC76217473","ด่านฯสถานีรถไฟหนองคาย","2023-12-15T00:00:00",3,85.6,112.6,20.2,45.1],
    [6518,"FF1721AC76217473","ด่านฯสถานีรถไฟหนองคาย","2023-12-15T00:00:00",4,62.4,88.8,20,45.5],
    [6519,"FF1721AC76217473","ด่านฯสถานีรถไฟหนองคาย","2023-12-15T00:00:00",5,52.7,80.4,19.6,45.5],
    [6520,"FF1721AC76217473","ด่านฯสถานีรถไฟหนองคาย","2023-12-15T00:00:00",6,46.5,69.1,19.5,45.4],
    [6521,"FF1721AC76217473","ด่านฯสถานีรถไฟหนองคาย","2023-12-15T00:00:00",7,50.8,74.5,21,42.9],
    [6522,"FF1721AC76217473","ด่านฯสถานีรถไฟหนองคาย","2023-12-15T00:00:00",8,42.6,63.6,24.8,36.3],
    [6523,"FF1721AC76217473","ด่านฯสถานีรถไฟหนองคาย","2023-12-15T00:00:00",9,39.2,57.9,28.3,30.6],
    [6524,"FF1721AC76217473","ด่านฯสถานีรถไฟหนองคาย","2023-12-15T00:00:00",10,38.4,56.3,29.7,27.8],
    [6525,"FF1721AC76217473","ด่านฯสถานีรถไฟหนองคาย","2023-12-15T00:00:00",11,35.8,49.7,30.2,25.6],
    [6526,"FF1721AC76217473","ด่านฯสถานีรถไฟหนองคาย","2023-12-15T00:00:00",12,35,50.3,30.8,25.1],
    [6527,"FF1721AC76217473","ด่านฯสถานีรถไฟหนองคาย","2023-12-15T00:00:00",13,26.9,35.3,31.8,22.5],
    [6528,"FF1721AC76217473","ด่านฯสถานีรถไฟหนองคาย","2023-12-15T00:00:00",14,21.1,26.5,31.7,21.8],
    [6529,"FF1721AC76217473","ด่านฯสถานีรถไฟหนองคาย","2023-12-15T00:00:00",15,16.7,22.6,30.3,22.3],
    [6530,"FF1721AC76217473","ด่านฯสถานีรถไฟหนองคาย","2023-12-15T00:00:00",16,15.5,21,29.6,21.6],
    [6531,"FF1721AC76217473","ด่านฯสถานีรถไฟหนองคาย","2023-12-15T00:00:00",17,31.1,44.8,28.1,25.8],
    [6532,"FF1721AC76217473","ด่านฯสถานีรถไฟหนองคาย","2023-12-15T00:00:00",18,37.6,59.7,25.6,31],
    [6533,"FF1721AC76217473","ด่านฯสถานีรถไฟหนองคาย","2023-12-15T00:00:00",19,47.7,74.9,24.3,33.4],
    [6534,"FF1721AC76217473","ด่านฯสถานีรถไฟหนองคาย","2023-12-15T00:00:00",20,46.8,72.8,23.3,35.7],
    [6535,"FF1721AC76217473","ด่านฯสถานีรถไฟหนองคาย","2023-12-15T00:00:00",21,47.3,73.1,22.4,37.7],
    [6536,"FF1721AC76217473","ด่านฯสถานีรถไฟหนองคาย","2023-12-15T00:00:00",22,53.3,82.5,21.7,39.8],
    [6537,"FF1721AC76217473","ด่านฯสถานีรถไฟหนองคาย","2023-12-15T00:00:00",23,51,79.4,21.4,41.1],
    [6538,"FF1721AC76217475","ด่านฯท่าอากาศยานอุดรธานี","2023-12-15T00:00:00",0,49.6,74.4,21.8,40.1],
    [6539,"FF1721AC76217475","ด่านฯท่าอากาศยานอุดรธานี","2023-12-15T00:00:00",1,51.4,76.4,21.3,40.7],
    [6540,"FF1721AC76217475","ด่านฯท่าอากาศยานอุดรธานี","2023-12-15T00:00:00",2,50.4,77.1,21.6,40.2],
    [6541,"FF1721AC76217475","ด่านฯท่าอากาศยานอุดรธานี","2023-12-15T00:00:00",3,49,75.6,21.1,40.9],
    [6542,"FF1721AC76217475","ด่านฯท่าอากาศยานอุดรธานี","2023-12-15T00:00:00",4,53.5,81.9,21.3,41],
    [6543,"FF1721AC76217475","ด่านฯท่าอากาศยานอุดรธานี","2023-12-15T00:00:00",5,56.6,84.6,20.6,41.9],
    [6544,"FF1721AC76217475","ด่านฯท่าอากาศยานอุดรธานี","2023-12-15T00:00:00",6,57.4,83.8,20,43],
    [6545,"FF1721AC76217475","ด่านฯท่าอากาศยานอุดรธานี","2023-12-15T00:00:00",7,64.1,89.3,21.2,41.4],
    [6546,"FF1721AC76217475","ด่านฯท่าอากาศยานอุดรธานี","2023-12-15T00:00:00",8,55.2,80.8,25.5,33.6],
    [6547,"FF1721AC76217475","ด่านฯท่าอากาศยานอุดรธานี","2023-12-15T00:00:00",9,38.6,56.9,27.5,29.8],
    [6548,"FF1721AC76217475","ด่านฯท่าอากาศยานอุดรธานี","2023-12-15T00:00:00",10,30.5,41.9,29.6,26.2],
    [6549,"FF1721AC76217475","ด่านฯท่าอากาศยานอุดรธานี","2023-12-15T00:00:00",11,25.1,33.7,30.6,25],
    [6550,"FF1721AC76217475","ด่านฯท่าอากาศยานอุดรธานี","2023-12-15T00:00:00",12,24.5,30.9,31.5,23.3],
    [6551,"FF1721AC76217475","ด่านฯท่าอากาศยานอุดรธานี","2023-12-15T00:00:00",13,24.3,32.9,33.2,20.7],
    [6552,"FF1721AC76217475","ด่านฯท่าอากาศยานอุดรธานี","2023-12-15T00:00:00",14,18.4,25,33.6,19.6],
    [6553,"FF1721AC76217475","ด่านฯท่าอากาศยานอุดรธานี","2023-12-15T00:00:00",15,21.4,28.6,34.3,19.6],
    [6554,"FF1721AC76217475","ด่านฯท่าอากาศยานอุดรธานี","2023-12-15T00:00:00",16,17.9,27.9,32.9,20.3],
    [6555,"FF1721AC76217475","ด่านฯท่าอากาศยานอุดรธานี","2023-12-15T00:00:00",17,24.9,36.3,30.4,22.4],
    [6556,"FF1721AC76217475","ด่านฯท่าอากาศยานอุดรธานี","2023-12-15T00:00:00",18,27.8,39.3,28.1,27.2],
    [6557,"FF1721AC76217475","ด่านฯท่าอากาศยานอุดรธานี","2023-12-15T00:00:00",19,42,60.8,26.5,31],
    [6558,"FF1721AC76217475","ด่านฯท่าอากาศยานอุดรธานี","2023-12-15T00:00:00",20,46.5,68.8,25.2,33.3],
    [6559,"FF1721AC76217475","ด่านฯท่าอากาศยานอุดรธานี","2023-12-15T00:00:00",21,46,68.5,23.7,36.2],
    [6560,"FF1721AC76217475","ด่านฯท่าอากาศยานอุดรธานี","2023-12-15T00:00:00",22,48.7,74.5,23.2,37.2],
    [6561,"FF1721AC76217475","ด่านฯท่าอากาศยานอุดรธานี","2023-12-15T00:00:00",23,49.1,71.6,23.1,37.1],
    [6562,"FF1721AC76217484","กองดิจิทัลเพื่อการควบคุมโรค","2023-12-15T00:00:00",0,42,67.4,27.3,35.4],
    [6563,"FF1721AC76217484","กองดิจิทัลเพื่อการควบคุมโรค","2023-12-15T00:00:00",1,41.7,69.1,26.8,36],
    [6564,"FF1721AC76217484","กองดิจิทัลเพื่อการควบคุมโรค","2023-12-15T00:00:00",2,43.3,67.8,26.7,35.3],
    [6565,"FF1721AC76217484","กองดิจิทัลเพื่อการควบคุมโรค","2023-12-15T00:00:00",3,42.9,68.9,26.6,35.3],
    [6566,"FF1721AC76217484","กองดิจิทัลเพื่อการควบคุมโรค","2023-12-15T00:00:00",4,43.8,72.4,26.5,36],
    [6567,"FF1721AC76217484","กองดิจิทัลเพื่อการควบคุมโรค","2023-12-15T00:00:00",5,48.1,77.6,25.4,37.8],
    [6568,"FF1721AC76217484","กองดิจิทัลเพื่อการควบคุมโรค","2023-12-15T00:00:00",6,52.1,84,25.6,38.1],
    [6569,"FF1721AC76217484","กองดิจิทัลเพื่อการควบคุมโรค","2023-12-15T00:00:00",7,59.1,91,25.9,38.1],
    [6570,"FF1721AC76217484","กองดิจิทัลเพื่อการควบคุมโรค","2023-12-15T00:00:00",8,64.6,93.7,26.9,37.4],
    [6571,"FF1721AC76217484","กองดิจิทัลเพื่อการควบคุมโรค","2023-12-15T00:00:00",9,59.3,90,29.1,34],
    [6572,"FF1721AC76217484","กองดิจิทัลเพื่อการควบคุมโรค","2023-12-15T00:00:00",10,46.6,73.8,30.3,31.6],
    [6573,"FF1721AC76217484","กองดิจิทัลเพื่อการควบคุมโรค","2023-12-15T00:00:00",11,39,62.1,32.2,28],
    [6574,"FF1721AC76217484","กองดิจิทัลเพื่อการควบคุมโรค","2023-12-15T00:00:00",12,34.4,55.1,32,28.2],
    [6575,"FF1721AC76217484","กองดิจิทัลเพื่อการควบคุมโรค","2023-12-15T00:00:00",13,25.1,40.1,32.5,26.2],
    [6576,"FF1721AC76217484","กองดิจิทัลเพื่อการควบคุมโรค","2023-12-15T00:00:00",14,18.8,27.5,34.3,23.4],
    [6577,"FF1721AC76217484","กองดิจิทัลเพื่อการควบคุมโรค","2023-12-15T00:00:00",15,18.8,24.8,33.7,24],
    [6578,"FF1721AC76217484","กองดิจิทัลเพื่อการควบคุมโรค","2023-12-15T00:00:00",16,18.7,22.1,32.7,25.1],
    [6579,"FF1721AC76217484","กองดิจิทัลเพื่อการควบคุมโรค","2023-12-15T00:00:00",17,16.6,25.7,31.8,26],
    [6580,"FF1721AC76217484","กองดิจิทัลเพื่อการควบคุมโรค","2023-12-15T00:00:00",18,17.8,23.8,30.9,27],
    [6581,"FF1721AC76217484","กองดิจิทัลเพื่อการควบคุมโรค","2023-12-15T00:00:00",19,26,38.2,29.9,28],
    [6582,"FF1721AC76217484","กองดิจิทัลเพื่อการควบคุมโรค","2023-12-15T00:00:00",20,26.2,42.8,29.1,30.9],
    [6583,"FF1721AC76217484","กองดิจิทัลเพื่อการควบคุมโรค","2023-12-15T00:00:00",21,41.5,64.4,29.1,32],
    [6584,"FF1721AC76217484","กองดิจิทัลเพื่อการควบคุมโรค","2023-12-15T00:00:00",22,46.4,77,28.6,32.7],
    [6585,"FF1721AC76217484","กองดิจิทัลเพื่อการควบคุมโรค","2023-12-15T00:00:00",23,48.4,80,28,33.9],
    [6586,"FF1721AC76217498","ด่านฯท่าลี่ จ.เลย","2023-12-15T00:00:00",0,44.8,68.3,20.8,41],
    [6587,"FF1721AC76217498","ด่านฯท่าลี่ จ.เลย","2023-12-15T00:00:00",1,43.7,67.4,20.1,42],
    [6588,"FF1721AC76217498","ด่านฯท่าลี่ จ.เลย","2023-12-15T00:00:00",2,49.8,72,20.1,42.2],
    [6589,"FF1721AC76217498","ด่านฯท่าลี่ จ.เลย","2023-12-15T00:00:00",3,52.4,78.7,20.1,43.8],
    [6590,"FF1721AC76217498","ด่านฯท่าลี่ จ.เลย","2023-12-15T00:00:00",4,64,84,19.4,45.5],
    [6591,"FF1721AC76217498","ด่านฯท่าลี่ จ.เลย","2023-12-15T00:00:00",6,64,85,19.6,43.5],
    [6592,"FF1721AC76217498","ด่านฯท่าลี่ จ.เลย","2023-12-15T00:00:00",8,43,64,21.5,40],
    [6593,"FF1721AC76217498","ด่านฯท่าลี่ จ.เลย","2023-12-15T00:00:00",9,20,25,25.3,35],
    [6594,"FF1721AC76217498","ด่านฯท่าลี่ จ.เลย","2023-12-15T00:00:00",10,18,22.5,26.5,32.5],
    [6595,"FF1721AC76217498","ด่านฯท่าลี่ จ.เลย","2023-12-15T00:00:00",11,20,21,27.5,30.5],
    [6596,"FF1721AC76217471","ด่านฯสะพานมิตรภาพ 1 หนองคาย","2023-12-16T00:00:00",0,53.1,83.3,21.4,43.7],
    [6597,"FF1721AC76217471","ด่านฯสะพานมิตรภาพ 1 หนองคาย","2023-12-16T00:00:00",1,56.2,84.9,20.9,44.6],
    [6598,"FF1721AC76217471","ด่านฯสะพานมิตรภาพ 1 หนองคาย","2023-12-16T00:00:00",2,68.1,99.6,20.9,43.9],
    [6599,"FF1721AC76217471","ด่านฯสะพานมิตรภาพ 1 หนองคาย","2023-12-16T00:00:00",3,67.2,93,20.7,44.4],
    [6600,"FF1721AC76217471","ด่านฯสะพานมิตรภาพ 1 หนองคาย","2023-12-16T00:00:00",4,48.2,74.2,20.6,44.4],
    [6601,"FF1721AC76217471","ด่านฯสะพานมิตรภาพ 1 หนองคาย","2023-12-16T00:00:00",5,55.3,77.6,19.9,45.1],
    [6602,"FF1721AC76217471","ด่านฯสะพานมิตรภาพ 1 หนองคาย","2023-12-16T00:00:00",6,42.3,61.6,19.6,45.7],
    [6603,"FF1721AC76217471","ด่านฯสะพานมิตรภาพ 1 หนองคาย","2023-12-16T00:00:00",7,45,70.8,19.9,46],
    [6604,"FF1721AC76217471","ด่านฯสะพานมิตรภาพ 1 หนองคาย","2023-12-16T00:00:00",8,40.1,62.1,21.7,42.5],
    [6605,"FF1721AC76217471","ด่านฯสะพานมิตรภาพ 1 หนองคาย","2023-12-16T00:00:00",9,39,54.7,24.3,36.5],
    [6606,"FF1721AC76217471","ด่านฯสะพานมิตรภาพ 1 หนองคาย","2023-12-16T00:00:00",10,34.2,51.9,27,31.2],
    [6607,"FF1721AC76217471","ด่านฯสะพานมิตรภาพ 1 หนองคาย","2023-12-16T00:00:00",11,31.9,43.4,28.4,29.4],
    [6608,"FF1721AC76217471","ด่านฯสะพานมิตรภาพ 1 หนองคาย","2023-12-16T00:00:00",12,28.4,38.8,29.4,26.8],
    [6609,"FF1721AC76217471","ด่านฯสะพานมิตรภาพ 1 หนองคาย","2023-12-16T00:00:00",13,25.9,35.8,29.9,25.5],
    [6610,"FF1721AC76217471","ด่านฯสะพานมิตรภาพ 1 หนองคาย","2023-12-16T00:00:00",14,18.5,23.9,30.5,22.7],
    [6611,"FF1721AC76217471","ด่านฯสะพานมิตรภาพ 1 หนองคาย","2023-12-16T00:00:00",15,16.5,22.4,31.4,21.8],
    [6612,"FF1721AC76217471","ด่านฯสะพานมิตรภาพ 1 หนองคาย","2023-12-16T00:00:00",16,19.6,29.3,30.7,23.3],
    [6613,"FF1721AC76217471","ด่านฯสะพานมิตรภาพ 1 หนองคาย","2023-12-16T00:00:00",17,29.7,39.6,27.6,29.9],
    [6614,"FF1721AC76217471","ด่านฯสะพานมิตรภาพ 1 หนองคาย","2023-12-16T00:00:00",18,49.2,71,25.2,35.2],
    [6615,"FF1721AC76217471","ด่านฯสะพานมิตรภาพ 1 หนองคาย","2023-12-16T00:00:00",19,58.8,84.5,24.1,37.4],
    [6616,"FF1721AC76217471","ด่านฯสะพานมิตรภาพ 1 หนองคาย","2023-12-16T00:00:00",20,51.1,77,23.6,37.7],
    [6617,"FF1721AC76217471","ด่านฯสะพานมิตรภาพ 1 หนองคาย","2023-12-16T00:00:00",21,41.9,65.5,23.1,38.8],
    [6618,"FF1721AC76217471","ด่านฯสะพานมิตรภาพ 1 หนองคาย","2023-12-16T00:00:00",22,38.3,57.8,22.5,39.9],
    [6619,"FF1721AC76217471","ด่านฯสะพานมิตรภาพ 1 หนองคาย","2023-12-16T00:00:00",23,36.4,51.1,22.5,39.3],
    [6620,"FF1721AC76217473","ด่านฯสถานีรถไฟหนองคาย","2023-12-16T00:00:00",0,57.8,87.8,20.9,43.6],
    [6621,"FF1721AC76217473","ด่านฯสถานีรถไฟหนองคาย","2023-12-16T00:00:00",1,63.2,90.4,20.6,44],
    [6622,"FF1721AC76217473","ด่านฯสถานีรถไฟหนองคาย","2023-12-16T00:00:00",2,65.1,93.8,20.2,44.7],
    [6623,"FF1721AC76217473","ด่านฯสถานีรถไฟหนองคาย","2023-12-16T00:00:00",3,74.7,102.9,19.9,45.3],
    [6624,"FF1721AC76217473","ด่านฯสถานีรถไฟหนองคาย","2023-12-16T00:00:00",4,66.6,94,19.6,45.3],
    [6625,"FF1721AC76217473","ด่านฯสถานีรถไฟหนองคาย","2023-12-16T00:00:00",5,56.8,95.2,19.5,45.2],
    [6626,"FF1721AC76217473","ด่านฯสถานีรถไฟหนองคาย","2023-12-16T00:00:00",6,47.5,72.9,19.4,45.3],
    [6627,"FF1721AC76217473","ด่านฯสถานีรถไฟหนองคาย","2023-12-16T00:00:00",7,47.8,71.9,22.5,39.6],
    [6628,"FF1721AC76217473","ด่านฯสถานีรถไฟหนองคาย","2023-12-16T00:00:00",8,43.2,66.3,25.7,34.4],
    [6629,"FF1721AC76217473","ด่านฯสถานีรถไฟหนองคาย","2023-12-16T00:00:00",9,41.7,62,28.8,29.2],
    [6630,"FF1721AC76217473","ด่านฯสถานีรถไฟหนองคาย","2023-12-16T00:00:00",10,34.8,50.3,29.1,27],
    [6631,"FF1721AC76217473","ด่านฯสถานีรถไฟหนองคาย","2023-12-16T00:00:00",11,32,41.4,29.8,25.5],
    [6632,"FF1721AC76217473","ด่านฯสถานีรถไฟหนองคาย","2023-12-16T00:00:00",12,30.7,44,32.2,23.2],
    [6633,"FF1721AC76217473","ด่านฯสถานีรถไฟหนองคาย","2023-12-16T00:00:00",13,29.3,42,31.7,23.3],
    [6634,"FF1721AC76217473","ด่านฯสถานีรถไฟหนองคาย","2023-12-16T00:00:00",14,24.7,34.4,31.1,22.7],
    [6635,"FF1721AC76217473","ด่านฯสถานีรถไฟหนองคาย","2023-12-16T00:00:00",15,21.3,27.6,30.2,22.3],
    [6636,"FF1721AC76217473","ด่านฯสถานีรถไฟหนองคาย","2023-12-16T00:00:00",16,23.9,30.7,29.6,23.3],
    [6637,"FF1721AC76217473","ด่านฯสถานีรถไฟหนองคาย","2023-12-16T00:00:00",17,32.3,46.1,28.4,26.1],
    [6638,"FF1721AC76217473","ด่านฯสถานีรถไฟหนองคาย","2023-12-16T00:00:00",18,42.5,63,26.7,29.2],
    [6639,"FF1721AC76217473","ด่านฯสถานีรถไฟหนองคาย","2023-12-16T00:00:00",19,41.4,64.1,25.3,31.8],
    [6640,"FF1721AC76217473","ด่านฯสถานีรถไฟหนองคาย","2023-12-16T00:00:00",20,40.5,61.9,24.2,34.1],
    [6641,"FF1721AC76217473","ด่านฯสถานีรถไฟหนองคาย","2023-12-16T00:00:00",21,43.3,65.9,24.2,35],
    [6642,"FF1721AC76217473","ด่านฯสถานีรถไฟหนองคาย","2023-12-16T00:00:00",22,42.8,63.9,23.1,37.8],
    [6643,"FF1721AC76217473","ด่านฯสถานีรถไฟหนองคาย","2023-12-16T00:00:00",23,40.4,59.7,23,37.4],
    [6644,"FF1721AC76217475","ด่านฯท่าอากาศยานอุดรธานี","2023-12-16T00:00:00",0,48.8,74.5,22.2,39.6],
    [6645,"FF1721AC76217475","ด่านฯท่าอากาศยานอุดรธานี","2023-12-16T00:00:00",1,47.1,74,22.3,39.4],
    [6646,"FF1721AC76217475","ด่านฯท่าอากาศยานอุดรธานี","2023-12-16T00:00:00",2,51,74.5,21.9,40.1],
    [6647,"FF1721AC76217475","ด่านฯท่าอากาศยานอุดรธานี","2023-12-16T00:00:00",3,58.7,85.7,22.2,40.4],
    [6648,"FF1721AC76217475","ด่านฯท่าอากาศยานอุดรธานี","2023-12-16T00:00:00",4,67.8,90.6,21.8,40.4],
    [6649,"FF1721AC76217475","ด่านฯท่าอากาศยานอุดรธานี","2023-12-16T00:00:00",5,63.6,88.4,20.8,42.5],
    [6650,"FF1721AC76217475","ด่านฯท่าอากาศยานอุดรธานี","2023-12-16T00:00:00",6,70.5,94.8,21,41.6],
    [6651,"FF1721AC76217475","ด่านฯท่าอากาศยานอุดรธานี","2023-12-16T00:00:00",7,70.5,96.3,22.3,39.5],
    [6652,"FF1721AC76217475","ด่านฯท่าอากาศยานอุดรธานี","2023-12-16T00:00:00",8,56.8,80,24.8,34.4],
    [6653,"FF1721AC76217475","ด่านฯท่าอากาศยานอุดรธานี","2023-12-16T00:00:00",9,37.7,53.6,26.2,31.4],
    [6654,"FF1721AC76217475","ด่านฯท่าอากาศยานอุดรธานี","2023-12-16T00:00:00",10,33.3,41.2,28.4,28.2],
    [6655,"FF1721AC76217475","ด่านฯท่าอากาศยานอุดรธานี","2023-12-16T00:00:00",11,29.8,38.9,30.8,24.4],
    [6656,"FF1721AC76217475","ด่านฯท่าอากาศยานอุดรธานี","2023-12-16T00:00:00",12,24.3,32.9,31.7,22],
    [6657,"FF1721AC76217475","ด่านฯท่าอากาศยานอุดรธานี","2023-12-16T00:00:00",13,19.4,24,32.7,20.2],
    [6658,"FF1721AC76217475","ด่านฯท่าอากาศยานอุดรธานี","2023-12-16T00:00:00",14,16.4,22.2,33.2,18.8],
    [6659,"FF1721AC76217475","ด่านฯท่าอากาศยานอุดรธานี","2023-12-16T00:00:00",15,14.6,19.4,32.9,18.2],
    [6660,"FF1721AC76217475","ด่านฯท่าอากาศยานอุดรธานี","2023-12-16T00:00:00",16,15.7,20.3,32.1,18.9],
    [6661,"FF1721AC76217475","ด่านฯท่าอากาศยานอุดรธานี","2023-12-16T00:00:00",17,23.7,27.6,30.4,21.8],
    [6662,"FF1721AC76217475","ด่านฯท่าอากาศยานอุดรธานี","2023-12-16T00:00:00",18,32.1,45.8,29.2,24.3],
    [6663,"FF1721AC76217475","ด่านฯท่าอากาศยานอุดรธานี","2023-12-16T00:00:00",19,35.3,54.6,27.6,27.5],
    [6664,"FF1721AC76217475","ด่านฯท่าอากาศยานอุดรธานี","2023-12-16T00:00:00",20,37.7,57.2,26.6,28.8],
    [6665,"FF1721AC76217475","ด่านฯท่าอากาศยานอุดรธานี","2023-12-16T00:00:00",21,36.8,53.4,26.2,29.8],
    [6666,"FF1721AC76217475","ด่านฯท่าอากาศยานอุดรธานี","2023-12-16T00:00:00",22,43.5,65.9,24.9,32.7],
    [6667,"FF1721AC76217475","ด่านฯท่าอากาศยานอุดรธานี","2023-12-16T00:00:00",23,41.6,62,24.1,34],
    [6668,"FF1721AC76217484","กองดิจิทัลเพื่อการควบคุมโรค","2023-12-16T00:00:00",0,48.1,76.8,27.8,34.3],
    [6669,"FF1721AC76217484","กองดิจิทัลเพื่อการควบคุมโรค","2023-12-16T00:00:00",1,46.3,73.7,27.4,34.7],
    [6670,"FF1721AC76217484","กองดิจิทัลเพื่อการควบคุมโรค","2023-12-16T00:00:00",2,48.1,76.4,27.2,35.3],
    [6671,"FF1721AC76217484","กองดิจิทัลเพื่อการควบคุมโรค","2023-12-16T00:00:00",3,44.1,71,26.8,35.8],
    [6672,"FF1721AC76217484","กองดิจิทัลเพื่อการควบคุมโรค","2023-12-16T00:00:00",4,45,71.8,26.9,35.8],
    [6673,"FF1721AC76217484","กองดิจิทัลเพื่อการควบคุมโรค","2023-12-16T00:00:00",5,46.7,75.5,26.6,36.1],
    [6674,"FF1721AC76217484","กองดิจิทัลเพื่อการควบคุมโรค","2023-12-16T00:00:00",6,50,79.4,26.1,37.7],
    [6675,"FF1721AC76217484","กองดิจิทัลเพื่อการควบคุมโรค","2023-12-16T00:00:00",7,55.2,86.6,26.2,38.1],
    [6676,"FF1721AC76217484","กองดิจิทัลเพื่อการควบคุมโรค","2023-12-16T00:00:00",8,52.9,83.3,27.6,36.2],
    [6677,"FF1721AC76217484","กองดิจิทัลเพื่อการควบคุมโรค","2023-12-16T00:00:00",9,41.8,68.5,31,31.1],
    [6678,"FF1721AC76217484","กองดิจิทัลเพื่อการควบคุมโรค","2023-12-16T00:00:00",10,37.7,56.1,32.8,28],
    [6679,"FF1721AC76217484","กองดิจิทัลเพื่อการควบคุมโรค","2023-12-16T00:00:00",11,31.9,46.1,33.8,26],
    [6680,"FF1721AC76217484","กองดิจิทัลเพื่อการควบคุมโรค","2023-12-16T00:00:00",12,27.9,43.8,34.2,24.6],
    [6681,"FF1721AC76217484","กองดิจิทัลเพื่อการควบคุมโรค","2023-12-16T00:00:00",13,26.5,36.7,34.1,23.9],
    [6682,"FF1721AC76217484","กองดิจิทัลเพื่อการควบคุมโรค","2023-12-16T00:00:00",14,13.1,22,35.8,20.6],
    [6683,"FF1721AC76217484","กองดิจิทัลเพื่อการควบคุมโรค","2023-12-16T00:00:00",15,11.9,15.7,34.4,21.8],
    [6684,"FF1721AC76217484","กองดิจิทัลเพื่อการควบคุมโรค","2023-12-16T00:00:00",16,11,14.1,34.4,21.2],
    [6685,"FF1721AC76217484","กองดิจิทัลเพื่อการควบคุมโรค","2023-12-16T00:00:00",17,13.1,17.4,32.5,23.3],
    [6686,"FF1721AC76217484","กองดิจิทัลเพื่อการควบคุมโรค","2023-12-16T00:00:00",18,17.1,22,31.7,25.1],
    [6687,"FF1721AC76217484","กองดิจิทัลเพื่อการควบคุมโรค","2023-12-16T00:00:00",19,21,28.9,30.4,27.7],
    [6688,"FF1721AC76217484","กองดิจิทัลเพื่อการควบคุมโรค","2023-12-16T00:00:00",20,31.3,48.9,30.3,28.9],
    [6689,"FF1721AC76217484","กองดิจิทัลเพื่อการควบคุมโรค","2023-12-16T00:00:00",21,30.5,48.9,29.7,30],
    [6690,"FF1721AC76217484","กองดิจิทัลเพื่อการควบคุมโรค","2023-12-16T00:00:00",22,32.9,50.5,29.4,30.7],
    [6691,"FF1721AC76217484","กองดิจิทัลเพื่อการควบคุมโรค","2023-12-16T00:00:00",23,34,54.6,29.6,31],
    [6692,"FF1721AC76217471","ด่านฯสะพานมิตรภาพ 1 หนองคาย","2023-12-17T00:00:00",0,31.2,46,22.7,37.6],
    [6693,"FF1721AC76217471","ด่านฯสะพานมิตรภาพ 1 หนองคาย","2023-12-17T00:00:00",1,23.6,35.9,22.3,38.3],
    [6694,"FF1721AC76217471","ด่านฯสะพานมิตรภาพ 1 หนองคาย","2023-12-17T00:00:00",11,3.8,4.5,26.4,26.6],
    [6695,"FF1721AC76217471","ด่านฯสะพานมิตรภาพ 1 หนองคาย","2023-12-17T00:00:00",12,5.5,9.5,27.7,25.2],
    [6696,"FF1721AC76217471","ด่านฯสะพานมิตรภาพ 1 หนองคาย","2023-12-17T00:00:00",13,4.1,4.6,29.6,23.3],
    [6697,"FF1721AC76217471","ด่านฯสะพานมิตรภาพ 1 หนองคาย","2023-12-17T00:00:00",14,5.7,4.3,28.1,24.5],
    [6698,"FF1721AC76217471","ด่านฯสะพานมิตรภาพ 1 หนองคาย","2023-12-17T00:00:00",15,4.2,4.2,27.9,24.4],
    [6699,"FF1721AC76217471","ด่านฯสะพานมิตรภาพ 1 หนองคาย","2023-12-17T00:00:00",16,5.3,10.1,27.5,25.5],
    [6700,"FF1721AC76217471","ด่านฯสะพานมิตรภาพ 1 หนองคาย","2023-12-17T00:00:00",17,16.6,21.5,26,27.4],
    [6701,"FF1721AC76217471","ด่านฯสะพานมิตรภาพ 1 หนองคาย","2023-12-17T00:00:00",18,22.5,30.5,25.2,29],
    [6702,"FF1721AC76217471","ด่านฯสะพานมิตรภาพ 1 หนองคาย","2023-12-17T00:00:00",19,14.8,23.6,24.5,29.2],
    [6703,"FF1721AC76217471","ด่านฯสะพานมิตรภาพ 1 หนองคาย","2023-12-17T00:00:00",20,12.6,20.3,23.9,30],
    [6704,"FF1721AC76217471","ด่านฯสะพานมิตรภาพ 1 หนองคาย","2023-12-17T00:00:00",21,10.5,13.3,23.2,31.1],
    [6705,"FF1721AC76217471","ด่านฯสะพานมิตรภาพ 1 หนองคาย","2023-12-17T00:00:00",22,9.6,11.5,23,30.9],
    [6706,"FF1721AC76217471","ด่านฯสะพานมิตรภาพ 1 หนองคาย","2023-12-17T00:00:00",23,5.9,9.5,22.1,31.4],
    [6707,"FF1721AC76217473","ด่านฯสถานีรถไฟหนองคาย","2023-12-17T00:00:00",0,34.8,51.3,22.5,37.3],
    [6708,"FF1721AC76217473","ด่านฯสถานีรถไฟหนองคาย","2023-12-17T00:00:00",1,28.8,44.6,22,38.5],
    [6709,"FF1721AC76217473","ด่านฯสถานีรถไฟหนองคาย","2023-12-17T00:00:00",2,33.6,48.1,21.1,40.4],
    [6710,"FF1721AC76217473","ด่านฯสถานีรถไฟหนองคาย","2023-12-17T00:00:00",3,25.9,35.4,20.9,40.5],
    [6711,"FF1721AC76217473","ด่านฯสถานีรถไฟหนองคาย","2023-12-17T00:00:00",4,17.4,28.6,20.6,39.2],
    [6712,"FF1721AC76217473","ด่านฯสถานีรถไฟหนองคาย","2023-12-17T00:00:00",5,13.8,20.6,20.3,38.1],
    [6713,"FF1721AC76217473","ด่านฯสถานีรถไฟหนองคาย","2023-12-17T00:00:00",6,13.3,16.9,19.7,38.6],
    [6714,"FF1721AC76217473","ด่านฯสถานีรถไฟหนองคาย","2023-12-17T00:00:00",7,9.6,14.3,21.2,36.1],
    [6715,"FF1721AC76217473","ด่านฯสถานีรถไฟหนองคาย","2023-12-17T00:00:00",8,5,8.5,23.3,31.1],
    [6716,"FF1721AC76217473","ด่านฯสถานีรถไฟหนองคาย","2023-12-17T00:00:00",9,5.3,5,24.8,28],
    [6717,"FF1721AC76217473","ด่านฯสถานีรถไฟหนองคาย","2023-12-17T00:00:00",10,4.3,3.9,25.8,26.1],
    [6718,"FF1721AC76217473","ด่านฯสถานีรถไฟหนองคาย","2023-12-17T00:00:00",11,5.1,5.2,26.2,25.9],
    [6719,"FF1721AC76217473","ด่านฯสถานีรถไฟหนองคาย","2023-12-17T00:00:00",12,5.8,9.9,27.5,25.3],
    [6720,"FF1721AC76217473","ด่านฯสถานีรถไฟหนองคาย","2023-12-17T00:00:00",13,3.8,9.1,28.1,23.7],
    [6721,"FF1721AC76217473","ด่านฯสถานีรถไฟหนองคาย","2023-12-17T00:00:00",14,4.3,6,27.8,24.2],
    [6722,"FF1721AC76217473","ด่านฯสถานีรถไฟหนองคาย","2023-12-17T00:00:00",15,5.2,5.3,27.5,24.1],
    [6723,"FF1721AC76217473","ด่านฯสถานีรถไฟหนองคาย","2023-12-17T00:00:00",16,14.3,17,26.9,25.1],
    [6724,"FF1721AC76217473","ด่านฯสถานีรถไฟหนองคาย","2023-12-17T00:00:00",17,28.7,39.2,25.8,27],
    [6725,"FF1721AC76217473","ด่านฯสถานีรถไฟหนองคาย","2023-12-17T00:00:00",18,22.4,24.6,24.7,29.1],
    [6726,"FF1721AC76217473","ด่านฯสถานีรถไฟหนองคาย","2023-12-17T00:00:00",19,15.3,20.8,23.7,29.8],
    [6727,"FF1721AC76217473","ด่านฯสถานีรถไฟหนองคาย","2023-12-17T00:00:00",20,15.6,20,23.2,30.7],
    [6728,"FF1721AC76217473","ด่านฯสถานีรถไฟหนองคาย","2023-12-17T00:00:00",21,13.2,15.8,22.8,31.3],
    [6729,"FF1721AC76217473","ด่านฯสถานีรถไฟหนองคาย","2023-12-17T00:00:00",22,10.5,13.7,22.4,31.4],
    [6730,"FF1721AC76217473","ด่านฯสถานีรถไฟหนองคาย","2023-12-17T00:00:00",23,9.6,10.8,21.6,32.4],
    [6731,"FF1721AC76217475","ด่านฯท่าอากาศยานอุดรธานี","2023-12-17T00:00:00",0,33.8,49.6,23.9,34.5],
    [6732,"FF1721AC76217475","ด่านฯท่าอากาศยานอุดรธานี","2023-12-17T00:00:00",1,24.3,29.4,23.4,35.6],
    [6733,"FF1721AC76217475","ด่านฯท่าอากาศยานอุดรธานี","2023-12-17T00:00:00",2,18.4,24.4,22.7,36.7],
    [6734,"FF1721AC76217475","ด่านฯท่าอากาศยานอุดรธานี","2023-12-17T00:00:00",3,16.3,22.8,22.2,37.9],
    [6735,"FF1721AC76217475","ด่านฯท่าอากาศยานอุดรธานี","2023-12-17T00:00:00",4,12,23,21.9,37.8],
    [6736,"FF1721AC76217484","กองดิจิทัลเพื่อการควบคุมโรค","2023-12-17T00:00:00",0,36,58.8,29.2,32.1],
    [6737,"FF1721AC76217484","กองดิจิทัลเพื่อการควบคุมโรค","2023-12-17T00:00:00",1,36.1,56.8,28.5,33.6],
    [6738,"FF1721AC76217484","กองดิจิทัลเพื่อการควบคุมโรค","2023-12-17T00:00:00",2,40.9,65.4,28.8,34],
    [6739,"FF1721AC76217484","กองดิจิทัลเพื่อการควบคุมโรค","2023-12-17T00:00:00",3,42.6,67.4,28.4,35],
    [6740,"FF1721AC76217484","กองดิจิทัลเพื่อการควบคุมโรค","2023-12-17T00:00:00",4,42.7,67.5,27.9,35.7],
    [6741,"FF1721AC76217484","กองดิจิทัลเพื่อการควบคุมโรค","2023-12-17T00:00:00",5,37.8,59.6,27.1,36.1],
    [6742,"FF1721AC76217484","กองดิจิทัลเพื่อการควบคุมโรค","2023-12-17T00:00:00",6,37.6,57.6,27,36.5],
    [6743,"FF1721AC76217484","กองดิจิทัลเพื่อการควบคุมโรค","2023-12-17T00:00:00",7,33.3,53,27.2,35.7],
    [6744,"FF1721AC76217484","กองดิจิทัลเพื่อการควบคุมโรค","2023-12-17T00:00:00",8,22.5,34.3,28.4,32.3],
    [6745,"FF1721AC76217484","กองดิจิทัลเพื่อการควบคุมโรค","2023-12-17T00:00:00",9,17.9,28.5,30.3,29],
    [6746,"FF1721AC76217484","กองดิจิทัลเพื่อการควบคุมโรค","2023-12-17T00:00:00",10,14.9,24,30.9,28.8],
    [6747,"FF1721AC76217484","กองดิจิทัลเพื่อการควบคุมโรค","2023-12-17T00:00:00",11,12.8,18,32.1,27.9],
    [6748,"FF1721AC76217484","กองดิจิทัลเพื่อการควบคุมโรค","2023-12-17T00:00:00",12,11,14.3,33.5,26],
    [6749,"FF1721AC76217484","กองดิจิทัลเพื่อการควบคุมโรค","2023-12-17T00:00:00",13,7.9,11.4,34,24.8],
    [6750,"FF1721AC76217484","กองดิจิทัลเพื่อการควบคุมโรค","2023-12-17T00:00:00",14,8.8,9.5,34.4,24.4],
    [6751,"FF1721AC76217484","กองดิจิทัลเพื่อการควบคุมโรค","2023-12-17T00:00:00",15,10.1,14.3,32.8,25.7],
    [6752,"FF1721AC76217484","กองดิจิทัลเพื่อการควบคุมโรค","2023-12-17T00:00:00",16,9.8,15.4,32.5,26.1],
    [6753,"FF1721AC76217484","กองดิจิทัลเพื่อการควบคุมโรค","2023-12-17T00:00:00",17,10,15.4,31.4,27.5],
    [6754,"FF1721AC76217484","กองดิจิทัลเพื่อการควบคุมโรค","2023-12-17T00:00:00",18,14.3,19.7,30.9,28.9],
    [6755,"FF1721AC76217484","กองดิจิทัลเพื่อการควบคุมโรค","2023-12-17T00:00:00",19,15.4,22.8,30.2,30.2],
    [6756,"FF1721AC76217484","กองดิจิทัลเพื่อการควบคุมโรค","2023-12-17T00:00:00",20,30.8,49,29.5,31.6],
    [6757,"FF1721AC76217484","กองดิจิทัลเพื่อการควบคุมโรค","2023-12-17T00:00:00",21,27.8,40.6,29.8,30.9],
    [6758,"FF1721AC76217484","กองดิจิทัลเพื่อการควบคุมโรค","2023-12-17T00:00:00",22,17.6,23.6,28.6,31.5],
    [6759,"FF1721AC76217484","กองดิจิทัลเพื่อการควบคุมโรค","2023-12-17T00:00:00",23,16.2,21.9,28.5,31.8],
    [6760,"FF1721AC76217471","ด่านฯสะพานมิตรภาพ 1 หนองคาย","2023-12-18T00:00:00",0,6,10,21.6,31.5],
    [6761,"FF1721AC76217471","ด่านฯสะพานมิตรภาพ 1 หนองคาย","2023-12-18T00:00:00",1,6,10,21.6,31.5],
    [6762,"FF1721AC76217471","ด่านฯสะพานมิตรภาพ 1 หนองคาย","2023-12-18T00:00:00",2,6,10,21.6,31.5],
    [6763,"FF1721AC76217471","ด่านฯสะพานมิตรภาพ 1 หนองคาย","2023-12-18T00:00:00",3,6,10,21.6,31.5],
    [6764,"FF1721AC76217471","ด่านฯสะพานมิตรภาพ 1 หนองคาย","2023-12-18T00:00:00",4,6,10,21.6,31.5],
    [6765,"FF1721AC76217471","ด่านฯสะพานมิตรภาพ 1 หนองคาย","2023-12-18T00:00:00",5,6,10,21.6,31.5],
    [6766,"FF1721AC76217471","ด่านฯสะพานมิตรภาพ 1 หนองคาย","2023-12-18T00:00:00",6,6,10,21.6,31.5],
    [6767,"FF1721AC76217471","ด่านฯสะพานมิตรภาพ 1 หนองคาย","2023-12-18T00:00:00",7,6,10,21.6,31.5],
    [6768,"FF1721AC76217471","ด่านฯสะพานมิตรภาพ 1 หนองคาย","2023-12-18T00:00:00",8,6,10,21.6,31.5],
    [6769,"FF1721AC76217471","ด่านฯสะพานมิตรภาพ 1 หนองคาย","2023-12-18T00:00:00",9,6,10,21.6,31.5],
    [6770,"FF1721AC76217471","ด่านฯสะพานมิตรภาพ 1 หนองคาย","2023-12-18T00:00:00",10,6,10,21.6,31.5],
    [6771,"FF1721AC76217471","ด่านฯสะพานมิตรภาพ 1 หนองคาย","2023-12-18T00:00:00",11,6,10,21.6,31.5],
    [6772,"FF1721AC76217471","ด่านฯสะพานมิตรภาพ 1 หนองคาย","2023-12-18T00:00:00",12,6,10,21.6,31.5],
    [6773,"FF1721AC76217471","ด่านฯสะพานมิตรภาพ 1 หนองคาย","2023-12-18T00:00:00",13,6,10,21.6,31.5],
    [6774,"FF1721AC76217471","ด่านฯสะพานมิตรภาพ 1 หนองคาย","2023-12-18T00:00:00",14,6,10,21.6,31.5],
    [6775,"FF1721AC76217471","ด่านฯสะพานมิตรภาพ 1 หนองคาย","2023-12-18T00:00:00",15,6,10,21.6,31.5],
    [6776,"FF1721AC76217471","ด่านฯสะพานมิตรภาพ 1 หนองคาย","2023-12-18T00:00:00",16,6,10,21.6,31.5],
    [6777,"FF1721AC76217471","ด่านฯสะพานมิตรภาพ 1 หนองคาย","2023-12-18T00:00:00",17,6,10,21.6,31.5],
    [6778,"FF1721AC76217471","ด่านฯสะพานมิตรภาพ 1 หนองคาย","2023-12-18T00:00:00",18,6,10,21.6,31.5],
    [6779,"FF1721AC76217471","ด่านฯสะพานมิตรภาพ 1 หนองคาย","2023-12-18T00:00:00",19,6,10,21.6,31.5],
    [6780,"FF1721AC76217471","ด่านฯสะพานมิตรภาพ 1 หนองคาย","2023-12-18T00:00:00",20,6,10,21.6,31.5],
    [6781,"FF1721AC76217471","ด่านฯสะพานมิตรภาพ 1 หนองคาย","2023-12-18T00:00:00",21,6,10,21.6,31.5],
    [6782,"FF1721AC76217471","ด่านฯสะพานมิตรภาพ 1 หนองคาย","2023-12-18T00:00:00",22,6,10,21.6,31.5],
    [6783,"FF1721AC76217471","ด่านฯสะพานมิตรภาพ 1 หนองคาย","2023-12-18T00:00:00",23,6,10,21.6,31.5],
    [6784,"FF1721AC76217473","ด่านฯสถานีรถไฟหนองคาย","2023-12-18T00:00:00",0,9.1,12,21.2,32.8],
    [6785,"FF1721AC76217473","ด่านฯสถานีรถไฟหนองคาย","2023-12-18T00:00:00",1,8.6,12,20.9,33.4],
    [6786,"FF1721AC76217473","ด่านฯสถานีรถไฟหนองคาย","2023-12-18T00:00:00",2,9.4,12,20.6,33.8],
    [6787,"FF1721AC76217473","ด่านฯสถานีรถไฟหนองคาย","2023-12-18T00:00:00",3,9.6,12.3,20.3,34.3],
    [6788,"FF1721AC76217473","ด่านฯสถานีรถไฟหนองคาย","2023-12-18T00:00:00",4,18.1,23.5,20.1,34.6],
    [6789,"FF1721AC76217473","ด่านฯสถานีรถไฟหนองคาย","2023-12-18T00:00:00",5,15.3,33.3,19.8,34.5],
    [6790,"FF1721AC76217473","ด่านฯสถานีรถไฟหนองคาย","2023-12-18T00:00:00",6,21.4,33.2,19.7,35.2],
    [6791,"FF1721AC76217473","ด่านฯสถานีรถไฟหนองคาย","2023-12-18T00:00:00",7,29.5,43.4,20,35.3],
    [6792,"FF1721AC76217473","ด่านฯสถานีรถไฟหนองคาย","2023-12-18T00:00:00",8,29.7,48.1,22,32.7],
    [6793,"FF1721AC76217473","ด่านฯสถานีรถไฟหนองคาย","2023-12-18T00:00:00",9,21.3,27.5,26.3,26.6],
    [6794,"FF1721AC76217473","ด่านฯสถานีรถไฟหนองคาย","2023-12-18T00:00:00",10,19.2,26.2,26.8,25.6],
    [6795,"FF1721AC76217473","ด่านฯสถานีรถไฟหนองคาย","2023-12-18T00:00:00",11,19.5,38.3,28.5,23.8],
    [6796,"FF1721AC76217473","ด่านฯสถานีรถไฟหนองคาย","2023-12-18T00:00:00",12,18,22.2,28.9,23.6],
    [6797,"FF1721AC76217473","ด่านฯสถานีรถไฟหนองคาย","2023-12-18T00:00:00",13,18.4,27.9,29.4,23.5],
    [6798,"FF1721AC76217473","ด่านฯสถานีรถไฟหนองคาย","2023-12-18T00:00:00",14,13.1,19.2,29.6,23.3],
    [6799,"FF1721AC76217473","ด่านฯสถานีรถไฟหนองคาย","2023-12-18T00:00:00",15,10.8,14.5,28.1,24.8],
    [6800,"FF1721AC76217473","ด่านฯสถานีรถไฟหนองคาย","2023-12-18T00:00:00",16,9.5,9.6,27.1,26.1],
    [6801,"FF1721AC76217473","ด่านฯสถานีรถไฟหนองคาย","2023-12-18T00:00:00",17,12.9,30.2,26.5,27.2],
    [6802,"FF1721AC76217473","ด่านฯสถานีรถไฟหนองคาย","2023-12-18T00:00:00",18,34.8,49.8,25.3,29.5],
    [6803,"FF1721AC76217473","ด่านฯสถานีรถไฟหนองคาย","2023-12-18T00:00:00",19,32.8,43.2,24.1,32],
    [6804,"FF1721AC76217473","ด่านฯสถานีรถไฟหนองคาย","2023-12-18T00:00:00",20,31.6,44.8,22.6,35],
    [6805,"FF1721AC76217473","ด่านฯสถานีรถไฟหนองคาย","2023-12-18T00:00:00",21,40,58.3,22.1,37.2],
    [6806,"FF1721AC76217473","ด่านฯสถานีรถไฟหนองคาย","2023-12-18T00:00:00",22,38.6,57.5,21.6,38.6],
    [6807,"FF1721AC76217473","ด่านฯสถานีรถไฟหนองคาย","2023-12-18T00:00:00",23,41.6,62.2,21,39.8],
    [6808,"FF1721AC76217484","กองดิจิทัลเพื่อการควบคุมโรค","2023-12-18T00:00:00",0,14.3,23.3,28.4,31.9],
    [6809,"FF1721AC76217484","กองดิจิทัลเพื่อการควบคุมโรค","2023-12-18T00:00:00",1,19.2,30,27.7,33],
    [6810,"FF1721AC76217484","กองดิจิทัลเพื่อการควบคุมโรค","2023-12-18T00:00:00",2,12.6,17.9,26.7,32.9],
    [6811,"FF1721AC76217484","กองดิจิทัลเพื่อการควบคุมโรค","2023-12-18T00:00:00",3,9.9,13.9,25.9,33],
    [6812,"FF1721AC76217484","กองดิจิทัลเพื่อการควบคุมโรค","2023-12-18T00:00:00",4,10.2,13.4,25.6,33.8],
    [6813,"FF1721AC76217484","กองดิจิทัลเพื่อการควบคุมโรค","2023-12-18T00:00:00",5,12.8,18.5,25.5,34],
    [6814,"FF1721AC76217484","กองดิจิทัลเพื่อการควบคุมโรค","2023-12-18T00:00:00",6,12.9,18.5,25,34.6],
    [6815,"FF1721AC76217484","กองดิจิทัลเพื่อการควบคุมโรค","2023-12-18T00:00:00",7,13.1,23.5,25.3,34.4],
    [6816,"FF1721AC76217484","กองดิจิทัลเพื่อการควบคุมโรค","2023-12-18T00:00:00",8,16.4,23.3,26.3,33.3],
    [6817,"FF1721AC76217484","กองดิจิทัลเพื่อการควบคุมโรค","2023-12-18T00:00:00",9,19.6,30.8,28.2,31],
    [6818,"FF1721AC76217484","กองดิจิทัลเพื่อการควบคุมโรค","2023-12-18T00:00:00",10,23.1,32.1,29.4,29.4],
    [6819,"FF1721AC76217484","กองดิจิทัลเพื่อการควบคุมโรค","2023-12-18T00:00:00",11,23.4,34,30.5,28.3],
    [6820,"FF1721AC76217484","กองดิจิทัลเพื่อการควบคุมโรค","2023-12-18T00:00:00",12,23,37,31.3,27.3],
    [6821,"FF1721AC76217484","กองดิจิทัลเพื่อการควบคุมโรค","2023-12-18T00:00:00",13,20.3,32.3,31.4,27.1],
    [6822,"FF1721AC76217484","กองดิจิทัลเพื่อการควบคุมโรค","2023-12-18T00:00:00",14,10.8,15,33.2,24.8],
    [6823,"FF1721AC76217484","กองดิจิทัลเพื่อการควบคุมโรค","2023-12-18T00:00:00",15,12.4,16.4,31.1,27.3],
    [6824,"FF1721AC76217484","กองดิจิทัลเพื่อการควบคุมโรค","2023-12-18T00:00:00",16,23.6,32.8,29.9,29.5],
    [6825,"FF1721AC76217484","กองดิจิทัลเพื่อการควบคุมโรค","2023-12-18T00:00:00",17,24.9,38.4,29,30.8],
    [6826,"FF1721AC76217484","กองดิจิทัลเพื่อการควบคุมโรค","2023-12-18T00:00:00",18,31.4,48,28,31.7],
    [6827,"FF1721AC76217484","กองดิจิทัลเพื่อการควบคุมโรค","2023-12-18T00:00:00",19,29.9,45.8,27.5,32.3],
    [6828,"FF1721AC76217484","กองดิจิทัลเพื่อการควบคุมโรค","2023-12-18T00:00:00",20,38.5,61.6,27,33.3],
    [6829,"FF1721AC76217484","กองดิจิทัลเพื่อการควบคุมโรค","2023-12-18T00:00:00",21,35.4,56.3,26.7,33.5],
    [6830,"FF1721AC76217484","กองดิจิทัลเพื่อการควบคุมโรค","2023-12-18T00:00:00",22,35.3,55.4,27.2,33.1],
    [6831,"FF1721AC76217484","กองดิจิทัลเพื่อการควบคุมโรค","2023-12-18T00:00:00",23,36.2,53.1,26.9,33.5],
    [6832,"FF1721AC76217471","ด่านฯสะพานมิตรภาพ 1 หนองคาย","2023-12-19T00:00:00",0,6,10,21.6,31.5],
    [6833,"FF1721AC76217471","ด่านฯสะพานมิตรภาพ 1 หนองคาย","2023-12-19T00:00:00",1,6,10,21.6,31.5],
    [6834,"FF1721AC76217471","ด่านฯสะพานมิตรภาพ 1 หนองคาย","2023-12-19T00:00:00",2,6,10,21.6,31.5],
    [6835,"FF1721AC76217471","ด่านฯสะพานมิตรภาพ 1 หนองคาย","2023-12-19T00:00:00",3,6,10,21.6,31.5],
    [6836,"FF1721AC76217471","ด่านฯสะพานมิตรภาพ 1 หนองคาย","2023-12-19T00:00:00",4,6,10,21.6,31.5],
    [6837,"FF1721AC76217471","ด่านฯสะพานมิตรภาพ 1 หนองคาย","2023-12-19T00:00:00",5,6,10,21.6,31.5],
    [6838,"FF1721AC76217471","ด่านฯสะพานมิตรภาพ 1 หนองคาย","2023-12-19T00:00:00",6,6,10,21.6,31.5],
    [6839,"FF1721AC76217471","ด่านฯสะพานมิตรภาพ 1 หนองคาย","2023-12-19T00:00:00",7,6,10,21.6,31.5],
    [6840,"FF1721AC76217471","ด่านฯสะพานมิตรภาพ 1 หนองคาย","2023-12-19T00:00:00",8,6,10,21.6,31.5],
    [6841,"FF1721AC76217471","ด่านฯสะพานมิตรภาพ 1 หนองคาย","2023-12-19T00:00:00",9,6,10,21.6,31.5],
    [6842,"FF1721AC76217471","ด่านฯสะพานมิตรภาพ 1 หนองคาย","2023-12-19T00:00:00",10,6,10,21.6,31.5],
    [6843,"FF1721AC76217471","ด่านฯสะพานมิตรภาพ 1 หนองคาย","2023-12-19T00:00:00",11,6,10,21.6,31.5],
    [6844,"FF1721AC76217471","ด่านฯสะพานมิตรภาพ 1 หนองคาย","2023-12-19T00:00:00",12,6,10,21.6,31.5],
    [6845,"FF1721AC76217471","ด่านฯสะพานมิตรภาพ 1 หนองคาย","2023-12-19T00:00:00",13,6,10,21.6,31.5],
    [6846,"FF1721AC76217471","ด่านฯสะพานมิตรภาพ 1 หนองคาย","2023-12-19T00:00:00",14,6,10,21.6,31.5],
    [6847,"FF1721AC76217471","ด่านฯสะพานมิตรภาพ 1 หนองคาย","2023-12-19T00:00:00",15,6,10,21.6,31.5],
    [6848,"FF1721AC76217471","ด่านฯสะพานมิตรภาพ 1 หนองคาย","2023-12-19T00:00:00",16,6,10,21.6,31.5],
    [6849,"FF1721AC76217471","ด่านฯสะพานมิตรภาพ 1 หนองคาย","2023-12-19T00:00:00",17,6,10,21.6,31.5],
    [6850,"FF1721AC76217471","ด่านฯสะพานมิตรภาพ 1 หนองคาย","2023-12-19T00:00:00",18,6,10,21.6,31.5],
    [6851,"FF1721AC76217471","ด่านฯสะพานมิตรภาพ 1 หนองคาย","2023-12-19T00:00:00",19,6,10,21.6,31.5],
    [6852,"FF1721AC76217471","ด่านฯสะพานมิตรภาพ 1 หนองคาย","2023-12-19T00:00:00",20,6,10,21.6,31.5],
    [6853,"FF1721AC76217471","ด่านฯสะพานมิตรภาพ 1 หนองคาย","2023-12-19T00:00:00",21,6,10,21.6,31.5],
    [6854,"FF1721AC76217471","ด่านฯสะพานมิตรภาพ 1 หนองคาย","2023-12-19T00:00:00",22,6,10,21.6,31.5],
    [6855,"FF1721AC76217473","ด่านฯสถานีรถไฟหนองคาย","2023-12-19T00:00:00",0,42.8,63.2,20.6,41.3],
    [6856,"FF1721AC76217473","ด่านฯสถานีรถไฟหนองคาย","2023-12-19T00:00:00",1,42,64,20.3,42],
    [6857,"FF1721AC76217473","ด่านฯสถานีรถไฟหนองคาย","2023-12-19T00:00:00",2,44.2,66.4,19.8,42.3],
    [6858,"FF1721AC76217473","ด่านฯสถานีรถไฟหนองคาย","2023-12-19T00:00:00",3,44.5,68.9,19.4,43.2],
    [6859,"FF1721AC76217473","ด่านฯสถานีรถไฟหนองคาย","2023-12-19T00:00:00",4,43.4,66.4,18.9,44],
    [6860,"FF1721AC76217473","ด่านฯสถานีรถไฟหนองคาย","2023-12-19T00:00:00",5,44.3,68,18.7,43.9],
    [6861,"FF1721AC76217473","ด่านฯสถานีรถไฟหนองคาย","2023-12-19T00:00:00",6,93.8,89,18.7,44.4],
    [6862,"FF1721AC76217473","ด่านฯสถานีรถไฟหนองคาย","2023-12-19T00:00:00",7,56.3,79.3,21.5,39.9],
    [6863,"FF1721AC76217473","ด่านฯสถานีรถไฟหนองคาย","2023-12-19T00:00:00",8,46.2,68.7,25.2,33.2],
    [6864,"FF1721AC76217473","ด่านฯสถานีรถไฟหนองคาย","2023-12-19T00:00:00",9,33,46.3,27.4,28.7],
    [6865,"FF1721AC76217473","ด่านฯสถานีรถไฟหนองคาย","2023-12-19T00:00:00",10,28.6,39.4,28,27.3],
    [6866,"FF1721AC76217473","ด่านฯสถานีรถไฟหนองคาย","2023-12-19T00:00:00",11,17.6,22.7,29.6,25.1],
    [6867,"FF1721AC76217473","ด่านฯสถานีรถไฟหนองคาย","2023-12-19T00:00:00",12,19.8,24.8,29.9,24.5],
    [6868,"FF1721AC76217473","ด่านฯสถานีรถไฟหนองคาย","2023-12-19T00:00:00",13,16.1,22,30.6,23.6],
    [6869,"FF1721AC76217473","ด่านฯสถานีรถไฟหนองคาย","2023-12-19T00:00:00",14,11.2,15.9,29.5,24.8],
    [6870,"FF1721AC76217473","ด่านฯสถานีรถไฟหนองคาย","2023-12-19T00:00:00",15,9.3,12.8,28.4,26],
    [6871,"FF1721AC76217473","ด่านฯสถานีรถไฟหนองคาย","2023-12-19T00:00:00",16,13.1,21.7,27.8,26.8],
    [6872,"FF1721AC76217473","ด่านฯสถานีรถไฟหนองคาย","2023-12-19T00:00:00",17,18.2,18.1,27,28.1],
    [6873,"FF1721AC76217473","ด่านฯสถานีรถไฟหนองคาย","2023-12-19T00:00:00",18,30.4,37.4,25.1,31.7],
    [6874,"FF1721AC76217473","ด่านฯสถานีรถไฟหนองคาย","2023-12-19T00:00:00",19,36.9,53.6,24,35.1],
    [6875,"FF1721AC76217473","ด่านฯสถานีรถไฟหนองคาย","2023-12-19T00:00:00",20,38.3,58.6,23,37],
    [6876,"FF1721AC76217473","ด่านฯสถานีรถไฟหนองคาย","2023-12-19T00:00:00",21,44.1,66,22.3,38.4],
    [6877,"FF1721AC76217473","ด่านฯสถานีรถไฟหนองคาย","2023-12-19T00:00:00",22,45.1,67.3,22.1,38],
    [6878,"FF1721AC76217473","ด่านฯสถานีรถไฟหนองคาย","2023-12-19T00:00:00",23,32,48.6,21.6,37.8],
    [6879,"FF1721AC76217484","กองดิจิทัลเพื่อการควบคุมโรค","2023-12-19T00:00:00",0,35.1,54.3,26.9,33.6],
    [6880,"FF1721AC76217484","กองดิจิทัลเพื่อการควบคุมโรค","2023-12-19T00:00:00",1,39.3,62.8,25.8,35.1],
    [6881,"FF1721AC76217484","กองดิจิทัลเพื่อการควบคุมโรค","2023-12-19T00:00:00",2,41.4,67.9,25.1,36.5],
    [6882,"FF1721AC76217484","กองดิจิทัลเพื่อการควบคุมโรค","2023-12-19T00:00:00",3,48.3,77.9,24.7,38.6],
    [6883,"FF1721AC76217484","กองดิจิทัลเพื่อการควบคุมโรค","2023-12-19T00:00:00",4,44.4,71.9,24.1,39.2],
    [6884,"FF1721AC76217484","กองดิจิทัลเพื่อการควบคุมโรค","2023-12-19T00:00:00",5,35.1,57.3,24.1,37.4],
    [6885,"FF1721AC76217484","กองดิจิทัลเพื่อการควบคุมโรค","2023-12-19T00:00:00",6,34.9,55.8,23.6,38.2],
    [6886,"FF1721AC76217484","กองดิจิทัลเพื่อการควบคุมโรค","2023-12-19T00:00:00",7,38,60.7,24.2,37.6],
    [6887,"FF1721AC76217484","กองดิจิทัลเพื่อการควบคุมโรค","2023-12-19T00:00:00",8,31.1,50.1,26.5,33.7],
    [6888,"FF1721AC76217484","กองดิจิทัลเพื่อการควบคุมโรค","2023-12-19T00:00:00",9,24.1,38.8,29,30.3],
    [6889,"FF1721AC76217484","กองดิจิทัลเพื่อการควบคุมโรค","2023-12-19T00:00:00",10,14.1,20.3,30.7,27.1],
    [6890,"FF1721AC76217484","กองดิจิทัลเพื่อการควบคุมโรค","2023-12-19T00:00:00",11,10,15.9,33,24.3],
    [6891,"FF1721AC76217484","กองดิจิทัลเพื่อการควบคุมโรค","2023-12-19T00:00:00",12,9.6,11.5,33.8,23.1],
    [6892,"FF1721AC76217484","กองดิจิทัลเพื่อการควบคุมโรค","2023-12-19T00:00:00",13,8.3,10.3,34,22.5],
    [6893,"FF1721AC76217484","กองดิจิทัลเพื่อการควบคุมโรค","2023-12-19T00:00:00",14,10.5,13,32.8,24.5],
    [6894,"FF1721AC76217484","กองดิจิทัลเพื่อการควบคุมโรค","2023-12-19T00:00:00",15,12.2,17.2,32.3,24.9],
    [6895,"FF1721AC76217484","กองดิจิทัลเพื่อการควบคุมโรค","2023-12-19T00:00:00",16,17.4,26.7,32.2,25.9],
    [6896,"FF1721AC76217484","กองดิจิทัลเพื่อการควบคุมโรค","2023-12-19T00:00:00",17,23.5,34.3,30.3,28.7],
    [6897,"FF1721AC76217484","กองดิจิทัลเพื่อการควบคุมโรค","2023-12-19T00:00:00",18,19.7,27.9,29.2,30.6],
    [6898,"FF1721AC76217484","กองดิจิทัลเพื่อการควบคุมโรค","2023-12-19T00:00:00",19,24.8,36.2,28.7,30.8],
    [6899,"FF1721AC76217484","กองดิจิทัลเพื่อการควบคุมโรค","2023-12-19T00:00:00",20,31.2,47.6,28.3,31.7],
    [6900,"FF1721AC76217484","กองดิจิทัลเพื่อการควบคุมโรค","2023-12-19T00:00:00",21,30.6,49.3,28.2,31.7],
    [6901,"FF1721AC76217484","กองดิจิทัลเพื่อการควบคุมโรค","2023-12-19T00:00:00",22,35.8,56.3,27.9,32.7],
    [6902,"FF1721AC76217484","กองดิจิทัลเพื่อการควบคุมโรค","2023-12-19T00:00:00",23,40.5,66.6,28.3,32.6],
    [6903,"FF1721AC76217473","ด่านฯสถานีรถไฟหนองคาย","2023-12-20T00:00:00",0,16.2,25.4,20.8,38.8],
    [6904,"FF1721AC76217473","ด่านฯสถานีรถไฟหนองคาย","2023-12-20T00:00:00",1,13.6,18.2,20.2,38.9],
    [6905,"FF1721AC76217473","ด่านฯสถานีรถไฟหนองคาย","2023-12-20T00:00:00",2,9.6,14.3,19.6,39.3],
    [6906,"FF1721AC76217473","ด่านฯสถานีรถไฟหนองคาย","2023-12-20T00:00:00",3,12.7,15.7,19,40.5],
    [6907,"FF1721AC76217473","ด่านฯสถานีรถไฟหนองคาย","2023-12-20T00:00:00",4,12.7,19.7,18.3,41.8],
    [6908,"FF1721AC76217473","ด่านฯสถานีรถไฟหนองคาย","2023-12-20T00:00:00",5,22,23.9,18,42.3],
    [6909,"FF1721AC76217473","ด่านฯสถานีรถไฟหนองคาย","2023-12-20T00:00:00",6,22.4,42,17.6,42.5],
    [6910,"FF1721AC76217473","ด่านฯสถานีรถไฟหนองคาย","2023-12-20T00:00:00",7,19.7,24.7,19.8,37.6],
    [6911,"FF1721AC76217473","ด่านฯสถานีรถไฟหนองคาย","2023-12-20T00:00:00",8,11.9,13.4,21.7,34.1],
    [6912,"FF1721AC76217473","ด่านฯสถานีรถไฟหนองคาย","2023-12-20T00:00:00",9,9.7,16.2,23.4,31.5],
    [6913,"FF1721AC76217473","ด่านฯสถานีรถไฟหนองคาย","2023-12-20T00:00:00",10,8.4,12.9,24.7,30.2],
    [6914,"FF1721AC76217473","ด่านฯสถานีรถไฟหนองคาย","2023-12-20T00:00:00",11,12,15.6,26.2,29.1],
    [6915,"FF1721AC76217473","ด่านฯสถานีรถไฟหนองคาย","2023-12-20T00:00:00",12,14,15.8,27.5,27.3],
    [6916,"FF1721AC76217473","ด่านฯสถานีรถไฟหนองคาย","2023-12-20T00:00:00",13,10.6,15.3,27.8,27.1],
    [6917,"FF1721AC76217473","ด่านฯสถานีรถไฟหนองคาย","2023-12-20T00:00:00",14,12.4,13.8,27.9,27.1],
    [6918,"FF1721AC76217473","ด่านฯสถานีรถไฟหนองคาย","2023-12-20T00:00:00",15,11.8,13.2,27.2,27.1],
    [6919,"FF1721AC76217473","ด่านฯสถานีรถไฟหนองคาย","2023-12-20T00:00:00",16,12.4,13.4,27.4,26.9],
    [6920,"FF1721AC76217473","ด่านฯสถานีรถไฟหนองคาย","2023-12-20T00:00:00",17,13.5,17.5,26.3,28.1],
    [6921,"FF1721AC76217473","ด่านฯสถานีรถไฟหนองคาย","2023-12-20T00:00:00",18,19,27,24.8,30.6],
    [6922,"FF1721AC76217473","ด่านฯสถานีรถไฟหนองคาย","2023-12-20T00:00:00",19,33,42.9,23.7,31.1],
    [6923,"FF1721AC76217473","ด่านฯสถานีรถไฟหนองคาย","2023-12-20T00:00:00",20,14.2,16.6,22.9,29.6],
    [6924,"FF1721AC76217473","ด่านฯสถานีรถไฟหนองคาย","2023-12-20T00:00:00",21,6.1,10,21.3,29.4],
    [6925,"FF1721AC76217473","ด่านฯสถานีรถไฟหนองคาย","2023-12-20T00:00:00",22,6.5,8.8,19.9,30.8],
    [6926,"FF1721AC76217473","ด่านฯสถานีรถไฟหนองคาย","2023-12-20T00:00:00",23,4.5,6.5,18.8,32.1],
    [6927,"FF1721AC76217484","กองดิจิทัลเพื่อการควบคุมโรค","2023-12-20T00:00:00",0,40.1,63.4,27.5,33.9],
    [6928,"FF1721AC76217484","กองดิจิทัลเพื่อการควบคุมโรค","2023-12-20T00:00:00",1,42.1,68.5,27,35.1],
    [6929,"FF1721AC76217484","กองดิจิทัลเพื่อการควบคุมโรค","2023-12-20T00:00:00",2,44.2,71,26.3,36.7],
    [6930,"FF1721AC76217484","กองดิจิทัลเพื่อการควบคุมโรค","2023-12-20T00:00:00",3,45.4,74.1,25.6,38.3],
    [6931,"FF1721AC76217484","กองดิจิทัลเพื่อการควบคุมโรค","2023-12-20T00:00:00",4,45,73.1,24.8,39],
    [6932,"FF1721AC76217484","กองดิจิทัลเพื่อการควบคุมโรค","2023-12-20T00:00:00",5,43.7,70.6,25.1,38.1],
    [6933,"FF1721AC76217484","กองดิจิทัลเพื่อการควบคุมโรค","2023-12-20T00:00:00",6,42.5,67.2,24.7,38.6],
    [6934,"FF1721AC76217484","กองดิจิทัลเพื่อการควบคุมโรค","2023-12-20T00:00:00",7,43.6,69.1,25,38.1],
    [6935,"FF1721AC76217484","กองดิจิทัลเพื่อการควบคุมโรค","2023-12-20T00:00:00",8,26.8,41.5,27.3,33.5],
    [6936,"FF1721AC76217484","กองดิจิทัลเพื่อการควบคุมโรค","2023-12-20T00:00:00",9,23.3,34.2,29.4,30.5],
    [6937,"FF1721AC76217484","กองดิจิทัลเพื่อการควบคุมโรค","2023-12-20T00:00:00",10,31.5,50,30.8,28.9],
    [6938,"FF1721AC76217484","กองดิจิทัลเพื่อการควบคุมโรค","2023-12-20T00:00:00",11,27.2,42.8,32.2,27.2],
    [6939,"FF1721AC76217484","กองดิจิทัลเพื่อการควบคุมโรค","2023-12-20T00:00:00",12,15.4,20.5,32.5,25.8],
    [6940,"FF1721AC76217484","กองดิจิทัลเพื่อการควบคุมโรค","2023-12-20T00:00:00",13,14.2,21.1,32.8,25.4],
    [6941,"FF1721AC76217484","กองดิจิทัลเพื่อการควบคุมโรค","2023-12-20T00:00:00",14,13.9,18.6,32.8,25],
    [6942,"FF1721AC76217484","กองดิจิทัลเพื่อการควบคุมโรค","2023-12-20T00:00:00",15,13.3,18.2,31.8,25.5],
    [6943,"FF1721AC76217484","กองดิจิทัลเพื่อการควบคุมโรค","2023-12-20T00:00:00",16,14.5,19.5,30.9,27],
    [6944,"FF1721AC76217484","กองดิจิทัลเพื่อการควบคุมโรค","2023-12-20T00:00:00",17,12.7,16.9,29.4,29.3],
    [6945,"FF1721AC76217484","กองดิจิทัลเพื่อการควบคุมโรค","2023-12-20T00:00:00",18,13.3,19.4,28.9,29.8],
    [6946,"FF1721AC76217484","กองดิจิทัลเพื่อการควบคุมโรค","2023-12-20T00:00:00",19,17.3,21.4,29.6,29],
    [6947,"FF1721AC76217484","กองดิจิทัลเพื่อการควบคุมโรค","2023-12-20T00:00:00",20,9.6,14.6,29.3,28.5],
    [6948,"FF1721AC76217484","กองดิจิทัลเพื่อการควบคุมโรค","2023-12-20T00:00:00",21,12.3,17.4,28.5,29.3],
    [6949,"FF1721AC76217484","กองดิจิทัลเพื่อการควบคุมโรค","2023-12-20T00:00:00",22,19.6,29.8,28.5,30.5],
    [6950,"FF1721AC76217484","กองดิจิทัลเพื่อการควบคุมโรค","2023-12-20T00:00:00",23,19.4,27.8,27.9,31.4],
    [6951,"FF1721AC76217473","ด่านฯสถานีรถไฟหนองคาย","2023-12-21T00:00:00",0,4.5,6.6,17.8,33.7],
    [6952,"FF1721AC76217473","ด่านฯสถานีรถไฟหนองคาย","2023-12-21T00:00:00",1,4.6,6,16.8,34.1],
    [6953,"FF1721AC76217473","ด่านฯสถานีรถไฟหนองคาย","2023-12-21T00:00:00",2,5,6.7,16.1,34.9],
    [6954,"FF1721AC76217473","ด่านฯสถานีรถไฟหนองคาย","2023-12-21T00:00:00",3,7.8,13.3,15.3,36.2],
    [6955,"FF1721AC76217473","ด่านฯสถานีรถไฟหนองคาย","2023-12-21T00:00:00",4,12.5,20.1,14.8,37.4],
    [6956,"FF1721AC76217473","ด่านฯสถานีรถไฟหนองคาย","2023-12-21T00:00:00",5,19.7,57.1,14.4,38.2],
    [6957,"FF1721AC76217473","ด่านฯสถานีรถไฟหนองคาย","2023-12-21T00:00:00",6,38.5,66.2,14.5,38.1],
    [6958,"FF1721AC76217473","ด่านฯสถานีรถไฟหนองคาย","2023-12-21T00:00:00",7,28.1,41.3,16.6,34.3],
    [6959,"FF1721AC76217473","ด่านฯสถานีรถไฟหนองคาย","2023-12-21T00:00:00",8,16.7,20.8,18.2,31.3],
    [6960,"FF1721AC76217473","ด่านฯสถานีรถไฟหนองคาย","2023-12-21T00:00:00",9,7.8,12.7,20.1,28.9],
    [6961,"FF1721AC76217473","ด่านฯสถานีรถไฟหนองคาย","2023-12-21T00:00:00",10,6.5,7.2,21.6,27],
    [6962,"FF1721AC76217473","ด่านฯสถานีรถไฟหนองคาย","2023-12-21T00:00:00",11,8.2,9,23.1,25],
    [6963,"FF1721AC76217473","ด่านฯสถานีรถไฟหนองคาย","2023-12-21T00:00:00",12,7.8,8.1,24.6,23.2],
    [6964,"FF1721AC76217473","ด่านฯสถานีรถไฟหนองคาย","2023-12-21T00:00:00",13,4.8,5.9,24.5,22.5],
    [6965,"FF1721AC76217473","ด่านฯสถานีรถไฟหนองคาย","2023-12-21T00:00:00",14,5.3,7.2,24.3,22.7],
    [6966,"FF1721AC76217473","ด่านฯสถานีรถไฟหนองคาย","2023-12-21T00:00:00",15,7.8,11.1,23.8,23.5],
    [6967,"FF1721AC76217473","ด่านฯสถานีรถไฟหนองคาย","2023-12-21T00:00:00",16,10.1,13,23.6,24],
    [6968,"FF1721AC76217473","ด่านฯสถานีรถไฟหนองคาย","2023-12-21T00:00:00",17,17.3,22.6,22.8,25.2],
    [6969,"FF1721AC76217473","ด่านฯสถานีรถไฟหนองคาย","2023-12-21T00:00:00",18,18.9,26.5,21.9,25.6],
    [6970,"FF1721AC76217473","ด่านฯสถานีรถไฟหนองคาย","2023-12-21T00:00:00",19,17.5,27,20.5,26.6],
    [6971,"FF1721AC76217473","ด่านฯสถานีรถไฟหนองคาย","2023-12-21T00:00:00",20,22.2,32.7,19,27.1],
    [6972,"FF1721AC76217473","ด่านฯสถานีรถไฟหนองคาย","2023-12-21T00:00:00",21,20.9,34.2,17.4,27.8],
    [6973,"FF1721AC76217473","ด่านฯสถานีรถไฟหนองคาย","2023-12-21T00:00:00",22,22.3,28.8,16.2,28.5],
    [6974,"FF1721AC76217473","ด่านฯสถานีรถไฟหนองคาย","2023-12-21T00:00:00",23,25,31.2,15.3,29.4],
    [6975,"FF1721AC76217484","กองดิจิทัลเพื่อการควบคุมโรค","2023-12-21T00:00:00",0,14.7,21.9,27.2,31.3],
    [6976,"FF1721AC76217484","กองดิจิทัลเพื่อการควบคุมโรค","2023-12-21T00:00:00",1,10.9,15.5,26.4,31.7],
    [6977,"FF1721AC76217484","กองดิจิทัลเพื่อการควบคุมโรค","2023-12-21T00:00:00",2,13.3,19.3,25.9,32],
    [6978,"FF1721AC76217484","กองดิจิทัลเพื่อการควบคุมโรค","2023-12-21T00:00:00",3,13.7,19.4,25.3,32.3],
    [6979,"FF1721AC76217484","กองดิจิทัลเพื่อการควบคุมโรค","2023-12-21T00:00:00",4,13.9,20.6,24.8,33],
    [6980,"FF1721AC76217484","กองดิจิทัลเพื่อการควบคุมโรค","2023-12-21T00:00:00",5,16.5,22.6,24.3,34.2],
    [6981,"FF1721AC76217484","กองดิจิทัลเพื่อการควบคุมโรค","2023-12-21T00:00:00",6,18.1,25.5,24.1,34.6],
    [6982,"FF1721AC76217484","กองดิจิทัลเพื่อการควบคุมโรค","2023-12-21T00:00:00",7,15.9,21.1,23.8,34.7],
    [6983,"FF1721AC76217484","กองดิจิทัลเพื่อการควบคุมโรค","2023-12-21T00:00:00",8,6.4,10,24.5,31.7],
    [6984,"FF1721AC76217484","กองดิจิทัลเพื่อการควบคุมโรค","2023-12-21T00:00:00",9,4.1,6.4,26.3,28.6],
    [6985,"FF1721AC76217484","กองดิจิทัลเพื่อการควบคุมโรค","2023-12-21T00:00:00",10,4.8,6.3,28.4,26.5],
    [6986,"FF1721AC76217484","กองดิจิทัลเพื่อการควบคุมโรค","2023-12-21T00:00:00",11,4.8,8.4,30.2,24.6],
    [6987,"FF1721AC76217484","กองดิจิทัลเพื่อการควบคุมโรค","2023-12-21T00:00:00",12,4.2,6.3,31.1,23.4],
    [6988,"FF1721AC76217484","กองดิจิทัลเพื่อการควบคุมโรค","2023-12-21T00:00:00",13,9.5,12.9,32.2,23.6],
    [6989,"FF1721AC76217484","กองดิจิทัลเพื่อการควบคุมโรค","2023-12-21T00:00:00",14,17.1,26.2,29.8,26.9],
    [6990,"FF1721AC76217484","กองดิจิทัลเพื่อการควบคุมโรค","2023-12-21T00:00:00",15,13.6,18.7,28.8,27.1],
    [6991,"FF1721AC76217484","กองดิจิทัลเพื่อการควบคุมโรค","2023-12-21T00:00:00",16,16.1,25.3,28.9,26.3],
    [6992,"FF1721AC76217484","กองดิจิทัลเพื่อการควบคุมโรค","2023-12-21T00:00:00",17,14.3,20.3,27.2,28.7],
    [6993,"FF1721AC76217484","กองดิจิทัลเพื่อการควบคุมโรค","2023-12-21T00:00:00",18,17.9,25.4,26.6,29.1],
    [6994,"FF1721AC76217484","กองดิจิทัลเพื่อการควบคุมโรค","2023-12-21T00:00:00",19,26.5,42.3,27,28.5],
    [6995,"FF1721AC76217484","กองดิจิทัลเพื่อการควบคุมโรค","2023-12-21T00:00:00",20,17.7,24.6,26.8,28.9],
    [6996,"FF1721AC76217484","กองดิจิทัลเพื่อการควบคุมโรค","2023-12-21T00:00:00",21,16.7,24.4,26.2,29],
    [6997,"FF1721AC76217484","กองดิจิทัลเพื่อการควบคุมโรค","2023-12-21T00:00:00",22,17.4,24.8,25.9,29.4],
    [6998,"FF1721AC76217484","กองดิจิทัลเพื่อการควบคุมโรค","2023-12-21T00:00:00",23,16.5,24.6,25,29.3],
    [6999,"FF1721AC76217473","ด่านฯสถานีรถไฟหนองคาย","2023-12-22T00:00:00",0,23,32.2,15,30.2],
    [7000,"FF1721AC76217473","ด่านฯสถานีรถไฟหนองคาย","2023-12-22T00:00:00",1,17,26.8,14.9,30.4],
    [7001,"FF1721AC76217473","ด่านฯสถานีรถไฟหนองคาย","2023-12-22T00:00:00",2,22,29.9,14.5,31],
    [7002,"FF1721AC76217473","ด่านฯสถานีรถไฟหนองคาย","2023-12-22T00:00:00",3,25.5,34.2,14,31.9],
    [7003,"FF1721AC76217473","ด่านฯสถานีรถไฟหนองคาย","2023-12-22T00:00:00",4,29.7,41.3,13.3,33],
    [7004,"FF1721AC76217473","ด่านฯสถานีรถไฟหนองคาย","2023-12-22T00:00:00",5,32,48.4,12.9,33.2],
    [7005,"FF1721AC76217473","ด่านฯสถานีรถไฟหนองคาย","2023-12-22T00:00:00",6,38.9,59.9,12.8,32],
    [7006,"FF1721AC76217473","ด่านฯสถานีรถไฟหนองคาย","2023-12-22T00:00:00",7,39.8,68.3,13.6,30],
    [7007,"FF1721AC76217473","ด่านฯสถานีรถไฟหนองคาย","2023-12-22T00:00:00",8,33.1,48.9,15.6,26.7],
    [7008,"FF1721AC76217473","ด่านฯสถานีรถไฟหนองคาย","2023-12-22T00:00:00",9,31.2,41.9,17.2,24.7],
    [7009,"FF1721AC76217473","ด่านฯสถานีรถไฟหนองคาย","2023-12-22T00:00:00",10,33.1,46.1,18.6,22.3],
    [7010,"FF1721AC76217473","ด่านฯสถานีรถไฟหนองคาย","2023-12-22T00:00:00",11,30.6,45.7,19.6,20.9],
    [7011,"FF1721AC76217473","ด่านฯสถานีรถไฟหนองคาย","2023-12-22T00:00:00",12,28.9,37.9,20.4,19.3],
    [7012,"FF1721AC76217473","ด่านฯสถานีรถไฟหนองคาย","2023-12-22T00:00:00",13,26.6,42,21.3,18.9],
    [7013,"FF1721AC76217473","ด่านฯสถานีรถไฟหนองคาย","2023-12-22T00:00:00",14,29.2,39.4,21.1,18.7],
    [7014,"FF1721AC76217473","ด่านฯสถานีรถไฟหนองคาย","2023-12-22T00:00:00",15,28.7,42,20.6,19.3],
    [7015,"FF1721AC76217473","ด่านฯสถานีรถไฟหนองคาย","2023-12-22T00:00:00",16,27.8,44.8,20.2,19.9],
    [7016,"FF1721AC76217473","ด่านฯสถานีรถไฟหนองคาย","2023-12-22T00:00:00",17,33.6,48.2,19.2,21.4],
    [7017,"FF1721AC76217473","ด่านฯสถานีรถไฟหนองคาย","2023-12-22T00:00:00",18,53,73.8,17.8,23.4],
    [7018,"FF1721AC76217473","ด่านฯสถานีรถไฟหนองคาย","2023-12-22T00:00:00",19,43.1,63.8,16.7,25],
    [7019,"FF1721AC76217473","ด่านฯสถานีรถไฟหนองคาย","2023-12-22T00:00:00",20,39.2,59.4,16.1,24.9],
    [7020,"FF1721AC76217473","ด่านฯสถานีรถไฟหนองคาย","2023-12-22T00:00:00",21,35.5,56.3,15.3,25.1],
    [7021,"FF1721AC76217473","ด่านฯสถานีรถไฟหนองคาย","2023-12-22T00:00:00",22,33.7,50,14.3,25.6],
    [7022,"FF1721AC76217473","ด่านฯสถานีรถไฟหนองคาย","2023-12-22T00:00:00",23,31.7,48.1,13.4,27],
    [7023,"FF1721AC76217484","กองดิจิทัลเพื่อการควบคุมโรค","2023-12-22T00:00:00",0,17.5,24.8,24.4,30],
    [7024,"FF1721AC76217484","กองดิจิทัลเพื่อการควบคุมโรค","2023-12-22T00:00:00",1,19.3,27.8,24,30.3],
    [7025,"FF1721AC76217484","กองดิจิทัลเพื่อการควบคุมโรค","2023-12-22T00:00:00",2,21,32.7,23.3,31.9],
    [7026,"FF1721AC76217484","กองดิจิทัลเพื่อการควบคุมโรค","2023-12-22T00:00:00",3,25.6,39.9,22.3,32.3],
    [7027,"FF1721AC76217484","กองดิจิทัลเพื่อการควบคุมโรค","2023-12-22T00:00:00",4,23.4,33,21.9,32.4],
    [7028,"FF1721AC76217484","กองดิจิทัลเพื่อการควบคุมโรค","2023-12-22T00:00:00",5,18.7,28.4,21.4,32.5],
    [7029,"FF1721AC76217484","กองดิจิทัลเพื่อการควบคุมโรค","2023-12-22T00:00:00",6,17,26,20.8,33.1],
    [7030,"FF1721AC76217484","กองดิจิทัลเพื่อการควบคุมโรค","2023-12-22T00:00:00",7,12.3,18.7,20.4,32.7],
    [7031,"FF1721AC76217484","กองดิจิทัลเพื่อการควบคุมโรค","2023-12-22T00:00:00",8,11.1,17.6,20.8,31],
    [7032,"FF1721AC76217484","กองดิจิทัลเพื่อการควบคุมโรค","2023-12-22T00:00:00",9,10.1,14.1,22.6,28.3],
    [7033,"FF1721AC76217484","กองดิจิทัลเพื่อการควบคุมโรค","2023-12-22T00:00:00",10,10.4,14.5,24.1,26.7],
    [7034,"FF1721AC76217484","กองดิจิทัลเพื่อการควบคุมโรค","2023-12-22T00:00:00",11,12.3,17.8,26.2,25],
    [7035,"FF1721AC76217484","กองดิจิทัลเพื่อการควบคุมโรค","2023-12-22T00:00:00",12,14.1,19.8,27.5,23.6],
    [7036,"FF1721AC76217484","กองดิจิทัลเพื่อการควบคุมโรค","2023-12-22T00:00:00",13,25,34.2,26.3,26.1],
    [7037,"FF1721AC76217484","กองดิจิทัลเพื่อการควบคุมโรค","2023-12-22T00:00:00",14,20.5,30.7,26.4,25.8],
    [7038,"FF1721AC76217484","กองดิจิทัลเพื่อการควบคุมโรค","2023-12-22T00:00:00",15,17.9,25.8,25.7,26.1],
    [7039,"FF1721AC76217484","กองดิจิทัลเพื่อการควบคุมโรค","2023-12-22T00:00:00",16,20.6,29.5,25.6,25.6],
    [7040,"FF1721AC76217484","กองดิจิทัลเพื่อการควบคุมโรค","2023-12-22T00:00:00",17,22.9,38.3,24.7,26.2],
    [7041,"FF1721AC76217484","กองดิจิทัลเพื่อการควบคุมโรค","2023-12-22T00:00:00",18,22.2,32,24.3,26.5],
    [7042,"FF1721AC76217484","กองดิจิทัลเพื่อการควบคุมโรค","2023-12-22T00:00:00",19,23.9,34.9,23.9,26.7],
    [7043,"FF1721AC76217484","กองดิจิทัลเพื่อการควบคุมโรค","2023-12-22T00:00:00",20,26.1,41,23.5,26.9],
    [7044,"FF1721AC76217484","กองดิจิทัลเพื่อการควบคุมโรค","2023-12-22T00:00:00",21,28.2,44.9,23.1,27.7],
    [7045,"FF1721AC76217484","กองดิจิทัลเพื่อการควบคุมโรค","2023-12-22T00:00:00",22,32.1,51.6,22.6,29.7],
    [7046,"FF1721AC76217484","กองดิจิทัลเพื่อการควบคุมโรค","2023-12-22T00:00:00",23,27,39.5,21.4,30.2],
    [7047,"FF1721AC76217473","ด่านฯสถานีรถไฟหนองคาย","2023-12-23T00:00:00",0,29,42,12.8,27.1],
    [7048,"FF1721AC76217473","ด่านฯสถานีรถไฟหนองคาย","2023-12-23T00:00:00",1,31,41.7,12.4,27.2],
    [7049,"FF1721AC76217473","ด่านฯสถานีรถไฟหนองคาย","2023-12-23T00:00:00",2,30.2,45.8,11.6,28.6],
    [7050,"FF1721AC76217473","ด่านฯสถานีรถไฟหนองคาย","2023-12-23T00:00:00",3,33.1,44.8,11.2,29.6],
    [7051,"FF1721AC76217473","ด่านฯสถานีรถไฟหนองคาย","2023-12-23T00:00:00",4,61.6,50.4,10.8,29.6],
    [7052,"FF1721AC76217473","ด่านฯสถานีรถไฟหนองคาย","2023-12-23T00:00:00",5,41.6,59.9,10.6,30.1],
    [7053,"FF1721AC76217473","ด่านฯสถานีรถไฟหนองคาย","2023-12-23T00:00:00",6,42.9,64.7,10.2,30.9],
    [7054,"FF1721AC76217473","ด่านฯสถานีรถไฟหนองคาย","2023-12-23T00:00:00",7,43.7,69.6,11.8,28.1],
    [7055,"FF1721AC76217473","ด่านฯสถานีรถไฟหนองคาย","2023-12-23T00:00:00",8,38,62.8,14.4,24.6],
    [7056,"FF1721AC76217473","ด่านฯสถานีรถไฟหนองคาย","2023-12-23T00:00:00",9,40,63.1,16.7,23.5],
    [7057,"FF1721AC76217473","ด่านฯสถานีรถไฟหนองคาย","2023-12-23T00:00:00",10,34.8,54.9,18.4,22.2],
    [7058,"FF1721AC76217473","ด่านฯสถานีรถไฟหนองคาย","2023-12-23T00:00:00",11,33.4,49,19.7,20.6],
    [7059,"FF1721AC76217473","ด่านฯสถานีรถไฟหนองคาย","2023-12-23T00:00:00",12,26.4,36,21,18.9],
    [7060,"FF1721AC76217473","ด่านฯสถานีรถไฟหนองคาย","2023-12-23T00:00:00",13,23.2,30,21.6,18],
    [7061,"FF1721AC76217473","ด่านฯสถานีรถไฟหนองคาย","2023-12-23T00:00:00",14,22.9,31.3,21.7,18.4],
    [7062,"FF1721AC76217473","ด่านฯสถานีรถไฟหนองคาย","2023-12-23T00:00:00",15,21.9,30.8,21.2,18.9],
    [7063,"FF1721AC76217473","ด่านฯสถานีรถไฟหนองคาย","2023-12-23T00:00:00",16,23.8,34.4,20.8,19.5],
    [7064,"FF1721AC76217473","ด่านฯสถานีรถไฟหนองคาย","2023-12-23T00:00:00",17,32,44.6,19.9,20.9],
    [7065,"FF1721AC76217473","ด่านฯสถานีรถไฟหนองคาย","2023-12-23T00:00:00",18,32.6,65.3,18.2,23],
    [7066,"FF1721AC76217473","ด่านฯสถานีรถไฟหนองคาย","2023-12-23T00:00:00",19,37.7,57.7,17.2,24],
    [7067,"FF1721AC76217473","ด่านฯสถานีรถไฟหนองคาย","2023-12-23T00:00:00",20,33.8,52.4,16.5,23.6],
    [7068,"FF1721AC76217473","ด่านฯสถานีรถไฟหนองคาย","2023-12-23T00:00:00",21,31.3,50.5,15.7,23.9],
    [7069,"FF1721AC76217473","ด่านฯสถานีรถไฟหนองคาย","2023-12-23T00:00:00",22,32.8,44.6,14.6,26.4],
    [7070,"FF1721AC76217473","ด่านฯสถานีรถไฟหนองคาย","2023-12-23T00:00:00",23,29.3,44.9,13.9,27.7],
    [7071,"FF1721AC76217484","กองดิจิทัลเพื่อการควบคุมโรค","2023-12-23T00:00:00",0,29.7,44.8,21.1,29.9],
    [7072,"FF1721AC76217484","กองดิจิทัลเพื่อการควบคุมโรค","2023-12-23T00:00:00",1,29.6,46.6,20.1,30.7],
    [7073,"FF1721AC76217484","กองดิจิทัลเพื่อการควบคุมโรค","2023-12-23T00:00:00",2,29.7,43.5,19.6,30.6],
    [7074,"FF1721AC76217484","กองดิจิทัลเพื่อการควบคุมโรค","2023-12-23T00:00:00",3,25.4,42.7,19.2,29.7],
    [7075,"FF1721AC76217484","กองดิจิทัลเพื่อการควบคุมโรค","2023-12-23T00:00:00",4,24.6,42,18.5,30.2],
    [7076,"FF1721AC76217484","กองดิจิทัลเพื่อการควบคุมโรค","2023-12-23T00:00:00",5,24.9,40.3,17.9,31],
    [7077,"FF1721AC76217484","กองดิจิทัลเพื่อการควบคุมโรค","2023-12-23T00:00:00",6,28.4,42.8,17.5,31.6],
    [7078,"FF1721AC76217484","กองดิจิทัลเพื่อการควบคุมโรค","2023-12-23T00:00:00",7,29.3,44.9,17.6,31.9],
    [7079,"FF1721AC76217484","กองดิจิทัลเพื่อการควบคุมโรค","2023-12-23T00:00:00",8,29.6,45.5,18.5,31.1],
    [7080,"FF1721AC76217484","กองดิจิทัลเพื่อการควบคุมโรค","2023-12-23T00:00:00",9,27.1,39.2,19.9,29.4],
    [7081,"FF1721AC76217484","กองดิจิทัลเพื่อการควบคุมโรค","2023-12-23T00:00:00",10,26.3,44,21.9,27.6],
    [7082,"FF1721AC76217484","กองดิจิทัลเพื่อการควบคุมโรค","2023-12-23T00:00:00",11,24.7,37.1,24.6,25.2],
    [7083,"FF1721AC76217484","กองดิจิทัลเพื่อการควบคุมโรค","2023-12-23T00:00:00",12,23.7,35.1,24.9,24.6],
    [7084,"FF1721AC76217484","กองดิจิทัลเพื่อการควบคุมโรค","2023-12-23T00:00:00",13,27.1,42.8,25.5,23.8],
    [7085,"FF1721AC76217484","กองดิจิทัลเพื่อการควบคุมโรค","2023-12-23T00:00:00",14,26.5,43.9,26,23],
    [7086,"FF1721AC76217484","กองดิจิทัลเพื่อการควบคุมโรค","2023-12-23T00:00:00",15,24.9,38.3,25.8,23.3],
    [7087,"FF1721AC76217484","กองดิจิทัลเพื่อการควบคุมโรค","2023-12-23T00:00:00",16,24.6,35.4,25.6,22.9],
    [7088,"FF1721AC76217484","กองดิจิทัลเพื่อการควบคุมโรค","2023-12-23T00:00:00",17,23.8,38.8,24.7,23.7],
    [7089,"FF1721AC76217484","กองดิจิทัลเพื่อการควบคุมโรค","2023-12-23T00:00:00",18,27.2,43,24,24.6],
    [7090,"FF1721AC76217484","กองดิจิทัลเพื่อการควบคุมโรค","2023-12-23T00:00:00",19,32.9,51.8,23.6,25.2],
    [7091,"FF1721AC76217484","กองดิจิทัลเพื่อการควบคุมโรค","2023-12-23T00:00:00",20,35.6,55.7,23.5,24.9],
    [7092,"FF1721AC76217484","กองดิจิทัลเพื่อการควบคุมโรค","2023-12-23T00:00:00",21,36.4,60.2,23.2,24.7],
    [7093,"FF1721AC76217484","กองดิจิทัลเพื่อการควบคุมโรค","2023-12-23T00:00:00",22,36.3,57.8,22.4,24.7],
    [7094,"FF1721AC76217484","กองดิจิทัลเพื่อการควบคุมโรค","2023-12-23T00:00:00",23,36.6,59.3,21.9,24.7],
    [7095,"FF1721AC76217473","ด่านฯสถานีรถไฟหนองคาย","2023-12-24T00:00:00",0,31.7,45.7,13.1,29.8],
    [7096,"FF1721AC76217473","ด่านฯสถานีรถไฟหนองคาย","2023-12-24T00:00:00",1,30.9,41.3,13.1,29.4],
    [7097,"FF1721AC76217473","ด่านฯสถานีรถไฟหนองคาย","2023-12-24T00:00:00",2,30.3,43.7,12.5,30.7],
    [7098,"FF1721AC76217473","ด่านฯสถานีรถไฟหนองคาย","2023-12-24T00:00:00",3,30.5,44.8,11.9,33.2],
    [7099,"FF1721AC76217473","ด่านฯสถานีรถไฟหนองคาย","2023-12-24T00:00:00",4,34.7,51.2,11.1,34.9],
    [7100,"FF1721AC76217473","ด่านฯสถานีรถไฟหนองคาย","2023-12-24T00:00:00",5,39.2,56.9,10.7,36.8],
    [7101,"FF1721AC76217473","ด่านฯสถานีรถไฟหนองคาย","2023-12-24T00:00:00",6,47.8,82.5,11.4,36.5],
    [7102,"FF1721AC76217473","ด่านฯสถานีรถไฟหนองคาย","2023-12-24T00:00:00",7,51.1,100.2,12.9,32.8],
    [7103,"FF1721AC76217473","ด่านฯสถานีรถไฟหนองคาย","2023-12-24T00:00:00",8,47.8,73.2,15.1,30.1],
    [7104,"FF1721AC76217473","ด่านฯสถานีรถไฟหนองคาย","2023-12-24T00:00:00",9,47.5,73.3,17.2,27.4],
    [7105,"FF1721AC76217473","ด่านฯสถานีรถไฟหนองคาย","2023-12-24T00:00:00",10,42.6,62.2,20.3,23.4],
    [7106,"FF1721AC76217473","ด่านฯสถานีรถไฟหนองคาย","2023-12-24T00:00:00",11,38.3,56.4,20.5,22.9],
    [7107,"FF1721AC76217473","ด่านฯสถานีรถไฟหนองคาย","2023-12-24T00:00:00",12,32.6,44.1,22.4,21.3],
    [7108,"FF1721AC76217473","ด่านฯสถานีรถไฟหนองคาย","2023-12-24T00:00:00",13,23.5,29.5,23.1,19.7],
    [7109,"FF1721AC76217473","ด่านฯสถานีรถไฟหนองคาย","2023-12-24T00:00:00",14,27.7,40.8,22.7,19.8],
    [7110,"FF1721AC76217473","ด่านฯสถานีรถไฟหนองคาย","2023-12-24T00:00:00",15,29.3,39.3,22.5,19.8],
    [7111,"FF1721AC76217473","ด่านฯสถานีรถไฟหนองคาย","2023-12-24T00:00:00",16,37.5,50.2,22.3,19.9],
    [7112,"FF1721AC76217473","ด่านฯสถานีรถไฟหนองคาย","2023-12-24T00:00:00",17,35.9,47.9,21.2,21.5],
    [7113,"FF1721AC76217473","ด่านฯสถานีรถไฟหนองคาย","2023-12-24T00:00:00",18,38.6,60.7,20,23.6],
    [7114,"FF1721AC76217473","ด่านฯสถานีรถไฟหนองคาย","2023-12-24T00:00:00",19,35.8,53.9,19.2,23.3],
    [7115,"FF1721AC76217473","ด่านฯสถานีรถไฟหนองคาย","2023-12-24T00:00:00",20,35.1,51.7,18.3,23.7],
    [7116,"FF1721AC76217473","ด่านฯสถานีรถไฟหนองคาย","2023-12-24T00:00:00",21,35.4,54.4,17,25],
    [7117,"FF1721AC76217473","ด่านฯสถานีรถไฟหนองคาย","2023-12-24T00:00:00",22,36.7,56.3,16,26],
    [7118,"FF1721AC76217473","ด่านฯสถานีรถไฟหนองคาย","2023-12-24T00:00:00",23,38.5,57.7,15.1,27],
    [7119,"FF1721AC76217484","กองดิจิทัลเพื่อการควบคุมโรค","2023-12-24T00:00:00",0,36.7,58.3,21.6,25.2],
    [7120,"FF1721AC76217484","กองดิจิทัลเพื่อการควบคุมโรค","2023-12-24T00:00:00",1,38.9,62.9,21.2,26],
    [7121,"FF1721AC76217484","กองดิจิทัลเพื่อการควบคุมโรค","2023-12-24T00:00:00",2,40.6,65,21,26.7],
    [7122,"FF1721AC76217484","กองดิจิทัลเพื่อการควบคุมโรค","2023-12-24T00:00:00",3,39.5,65.1,20.8,27.4],
    [7123,"FF1721AC76217484","กองดิจิทัลเพื่อการควบคุมโรค","2023-12-24T00:00:00",4,30.6,47.3,20.3,28.6],
    [7124,"FF1721AC76217484","กองดิจิทัลเพื่อการควบคุมโรค","2023-12-24T00:00:00",5,22.5,34.3,19.7,29.1],
    [7125,"FF1721AC76217484","กองดิจิทัลเพื่อการควบคุมโรค","2023-12-24T00:00:00",6,20.5,30.8,19.3,29.5],
    [7126,"FF1721AC76217484","กองดิจิทัลเพื่อการควบคุมโรค","2023-12-24T00:00:00",7,23.1,32.5,19.2,29.6],
    [7127,"FF1721AC76217484","กองดิจิทัลเพื่อการควบคุมโรค","2023-12-24T00:00:00",8,23,36.4,19.5,29.4],
    [7128,"FF1721AC76217484","กองดิจิทัลเพื่อการควบคุมโรค","2023-12-24T00:00:00",9,26.8,43.5,20.9,28.3],
    [7129,"FF1721AC76217484","กองดิจิทัลเพื่อการควบคุมโรค","2023-12-24T00:00:00",10,30,44.7,22.3,27.3],
    [7130,"FF1721AC76217484","กองดิจิทัลเพื่อการควบคุมโรค","2023-12-24T00:00:00",11,28.4,44.6,22.4,27.5],
    [7131,"FF1721AC76217484","กองดิจิทัลเพื่อการควบคุมโรค","2023-12-24T00:00:00",12,28.5,46,23.3,26.9],
    [7132,"FF1721AC76217484","กองดิจิทัลเพื่อการควบคุมโรค","2023-12-24T00:00:00",13,24.8,36.3,23.6,26.4],
    [7133,"FF1721AC76217484","กองดิจิทัลเพื่อการควบคุมโรค","2023-12-24T00:00:00",14,24.5,36.3,23.5,26.5],
    [7134,"FF1721AC76217484","กองดิจิทัลเพื่อการควบคุมโรค","2023-12-24T00:00:00",15,23.5,34.5,23.9,26.1],
    [7135,"FF1721AC76217484","กองดิจิทัลเพื่อการควบคุมโรค","2023-12-24T00:00:00",16,26.1,39.8,23.7,26.1],
    [7136,"FF1721AC76217484","กองดิจิทัลเพื่อการควบคุมโรค","2023-12-24T00:00:00",17,26.8,39.1,23.3,26.6],
    [7137,"FF1721AC76217484","กองดิจิทัลเพื่อการควบคุมโรค","2023-12-24T00:00:00",18,27.4,43.4,23.1,26.6],
    [7138,"FF1721AC76217484","กองดิจิทัลเพื่อการควบคุมโรค","2023-12-24T00:00:00",19,31.7,51.9,23.1,26.6],
    [7139,"FF1721AC76217484","กองดิจิทัลเพื่อการควบคุมโรค","2023-12-24T00:00:00",20,33.3,57.5,23.1,26.4],
    [7140,"FF1721AC76217484","กองดิจิทัลเพื่อการควบคุมโรค","2023-12-24T00:00:00",21,32.6,49.3,22.9,26.5],
    [7141,"FF1721AC76217484","กองดิจิทัลเพื่อการควบคุมโรค","2023-12-24T00:00:00",22,30.6,49.6,22.7,26.9],
    [7142,"FF1721AC76217484","กองดิจิทัลเพื่อการควบคุมโรค","2023-12-24T00:00:00",23,30.3,51.1,22.3,27.5],
    [7143,"FF1721AC76217473","ด่านฯสถานีรถไฟหนองคาย","2023-12-25T00:00:00",0,40.7,62.7,14.4,27.6],
    [7144,"FF1721AC76217473","ด่านฯสถานีรถไฟหนองคาย","2023-12-25T00:00:00",1,42.9,65.5,13.9,27.9],
    [7145,"FF1721AC76217473","ด่านฯสถานีรถไฟหนองคาย","2023-12-25T00:00:00",2,42.3,67.6,13.8,27.7],
    [7146,"FF1721AC76217473","ด่านฯสถานีรถไฟหนองคาย","2023-12-25T00:00:00",3,41.3,66,13.7,27.8],
    [7147,"FF1721AC76217473","ด่านฯสถานีรถไฟหนองคาย","2023-12-25T00:00:00",4,44.5,68.7,13.3,29.1],
    [7148,"FF1721AC76217473","ด่านฯสถานีรถไฟหนองคาย","2023-12-25T00:00:00",5,46.4,69.6,13.3,29.7],
    [7149,"FF1721AC76217473","ด่านฯสถานีรถไฟหนองคาย","2023-12-25T00:00:00",6,57.8,79.5,13.3,29.5],
    [7150,"FF1721AC76217473","ด่านฯสถานีรถไฟหนองคาย","2023-12-25T00:00:00",7,52.1,82.8,13.9,29.1],
    [7151,"FF1721AC76217473","ด่านฯสถานีรถไฟหนองคาย","2023-12-25T00:00:00",8,47.1,71.9,16.6,26.5],
    [7152,"FF1721AC76217473","ด่านฯสถานีรถไฟหนองคาย","2023-12-25T00:00:00",9,41.5,66.4,18.5,23.1],
    [7153,"FF1721AC76217473","ด่านฯสถานีรถไฟหนองคาย","2023-12-25T00:00:00",10,38.3,61.4,19.3,21.9],
    [7154,"FF1721AC76217473","ด่านฯสถานีรถไฟหนองคาย","2023-12-25T00:00:00",11,39.9,62.5,20.1,21.3],
    [7155,"FF1721AC76217473","ด่านฯสถานีรถไฟหนองคาย","2023-12-25T00:00:00",12,38.9,60.9,21.2,20.8],
    [7156,"FF1721AC76217473","ด่านฯสถานีรถไฟหนองคาย","2023-12-25T00:00:00",13,41.1,61.8,22.1,20],
    [7157,"FF1721AC76217473","ด่านฯสถานีรถไฟหนองคาย","2023-12-25T00:00:00",14,38.6,57.6,22.4,19.3],
    [7158,"FF1721AC76217473","ด่านฯสถานีรถไฟหนองคาย","2023-12-25T00:00:00",15,35.7,60.1,22.5,19.3],
    [7159,"FF1721AC76217473","ด่านฯสถานีรถไฟหนองคาย","2023-12-25T00:00:00",16,35.3,54.5,22.1,19.4],
    [7160,"FF1721AC76217473","ด่านฯสถานีรถไฟหนองคาย","2023-12-25T00:00:00",17,38.9,61,21.3,20.5],
    [7161,"FF1721AC76217473","ด่านฯสถานีรถไฟหนองคาย","2023-12-25T00:00:00",18,52.3,80.4,19.8,23.5],
    [7162,"FF1721AC76217473","ด่านฯสถานีรถไฟหนองคาย","2023-12-25T00:00:00",19,64.4,96.9,18.6,27.3],
    [7163,"FF1721AC76217473","ด่านฯสถานีรถไฟหนองคาย","2023-12-25T00:00:00",20,63.6,94.4,18.7,27.7],
    [7164,"FF1721AC76217473","ด่านฯสถานีรถไฟหนองคาย","2023-12-25T00:00:00",21,56.5,82.7,18.2,28.5],
    [7165,"FF1721AC76217473","ด่านฯสถานีรถไฟหนองคาย","2023-12-25T00:00:00",22,55,85,17.5,30.2],
    [7166,"FF1721AC76217473","ด่านฯสถานีรถไฟหนองคาย","2023-12-25T00:00:00",23,51.6,82.1,16.9,30.4],
    [7167,"FF1721AC76217484","กองดิจิทัลเพื่อการควบคุมโรค","2023-12-25T00:00:00",0,31.4,53,22,28.4],
    [7168,"FF1721AC76217484","กองดิจิทัลเพื่อการควบคุมโรค","2023-12-25T00:00:00",1,31.8,51,21.8,28.7],
    [7169,"FF1721AC76217484","กองดิจิทัลเพื่อการควบคุมโรค","2023-12-25T00:00:00",2,32.7,51.3,21.6,28.6],
    [7170,"FF1721AC76217484","กองดิจิทัลเพื่อการควบคุมโรค","2023-12-25T00:00:00",3,30.9,48,21.4,29.1],
    [7171,"FF1721AC76217484","กองดิจิทัลเพื่อการควบคุมโรค","2023-12-25T00:00:00",4,25.9,38.7,20.8,28.6],
    [7172,"FF1721AC76217484","กองดิจิทัลเพื่อการควบคุมโรค","2023-12-25T00:00:00",5,24.2,36,20.3,28.8],
    [7173,"FF1721AC76217484","กองดิจิทัลเพื่อการควบคุมโรค","2023-12-25T00:00:00",6,28.1,45.5,19.9,29],
    [7174,"FF1721AC76217484","กองดิจิทัลเพื่อการควบคุมโรค","2023-12-25T00:00:00",7,29.9,46.9,19.9,29.4],
    [7175,"FF1721AC76217484","กองดิจิทัลเพื่อการควบคุมโรค","2023-12-25T00:00:00",8,32.7,51.1,20.8,28.3],
    [7176,"FF1721AC76217484","กองดิจิทัลเพื่อการควบคุมโรค","2023-12-25T00:00:00",9,32.8,50.6,22.4,27],
    [7177,"FF1721AC76217484","กองดิจิทัลเพื่อการควบคุมโรค","2023-12-25T00:00:00",10,33.2,55.5,22,27.4],
    [7178,"FF1721AC76217484","กองดิจิทัลเพื่อการควบคุมโรค","2023-12-25T00:00:00",11,34,57.1,22.8,26.7],
    [7179,"FF1721AC76217484","กองดิจิทัลเพื่อการควบคุมโรค","2023-12-25T00:00:00",12,34.4,54.5,25.2,24.7],
    [7180,"FF1721AC76217484","กองดิจิทัลเพื่อการควบคุมโรค","2023-12-25T00:00:00",13,32.2,48.9,26.1,23.5],
    [7181,"FF1721AC76217484","กองดิจิทัลเพื่อการควบคุมโรค","2023-12-25T00:00:00",14,31.3,51.9,27.1,22.6],
    [7182,"FF1721AC76217484","กองดิจิทัลเพื่อการควบคุมโรค","2023-12-25T00:00:00",15,31.3,55.1,25.9,23.5],
    [7183,"FF1721AC76217484","กองดิจิทัลเพื่อการควบคุมโรค","2023-12-25T00:00:00",16,36.4,61.9,25.4,23.8],
    [7184,"FF1721AC76217484","กองดิจิทัลเพื่อการควบคุมโรค","2023-12-25T00:00:00",17,37.6,61.7,24.8,24.3],
    [7185,"FF1721AC76217484","กองดิจิทัลเพื่อการควบคุมโรค","2023-12-25T00:00:00",18,37.3,61,24.3,25],
    [7186,"FF1721AC76217484","กองดิจิทัลเพื่อการควบคุมโรค","2023-12-25T00:00:00",19,40,65.5,24.6,27.1],
    [7187,"FF1721AC76217484","กองดิจิทัลเพื่อการควบคุมโรค","2023-12-25T00:00:00",20,43,70.1,24.4,29.2],
    [7188,"FF1721AC76217484","กองดิจิทัลเพื่อการควบคุมโรค","2023-12-25T00:00:00",21,44.3,71.4,24.3,28.7],
    [7189,"FF1721AC76217484","กองดิจิทัลเพื่อการควบคุมโรค","2023-12-25T00:00:00",22,42.8,73,23,30.1],
    [7190,"FF1721AC76217484","กองดิจิทัลเพื่อการควบคุมโรค","2023-12-25T00:00:00",23,47.4,77.3,22.6,29.3],
    [7191,"FF1721AC76217473","ด่านฯสถานีรถไฟหนองคาย","2023-12-26T00:00:00",0,53.7,83.9,16,32.1],
    [7192,"FF1721AC76217473","ด่านฯสถานีรถไฟหนองคาย","2023-12-26T00:00:00",1,58.4,87.2,15.1,34.8],
    [7193,"FF1721AC76217473","ด่านฯสถานีรถไฟหนองคาย","2023-12-26T00:00:00",2,58.5,86.2,14.3,36.8],
    [7194,"FF1721AC76217473","ด่านฯสถานีรถไฟหนองคาย","2023-12-26T00:00:00",3,57.1,85.9,14.2,37.2],
    [7195,"FF1721AC76217473","ด่านฯสถานีรถไฟหนองคาย","2023-12-26T00:00:00",4,54.5,86.4,13.8,38.7],
    [7196,"FF1721AC76217473","ด่านฯสถานีรถไฟหนองคาย","2023-12-26T00:00:00",5,66.2,92.4,12.8,40],
    [7197,"FF1721AC76217473","ด่านฯสถานีรถไฟหนองคาย","2023-12-26T00:00:00",6,77.9,119.1,12.5,40.7],
    [7198,"FF1721AC76217473","ด่านฯสถานีรถไฟหนองคาย","2023-12-26T00:00:00",7,98.1,125,14.9,36.5],
    [7199,"FF1721AC76217473","ด่านฯสถานีรถไฟหนองคาย","2023-12-26T00:00:00",8,56.8,85.6,18.1,29.5],
    [7200,"FF1721AC76217473","ด่านฯสถานีรถไฟหนองคาย","2023-12-26T00:00:00",9,48.4,73.9,20.1,25.7],
    [7201,"FF1721AC76217473","ด่านฯสถานีรถไฟหนองคาย","2023-12-26T00:00:00",10,45,67.1,21.1,23.2],
    [7202,"FF1721AC76217473","ด่านฯสถานีรถไฟหนองคาย","2023-12-26T00:00:00",11,47.3,71.4,22.8,22.9],
    [7203,"FF1721AC76217473","ด่านฯสถานีรถไฟหนองคาย","2023-12-26T00:00:00",12,49.3,76.6,24.1,21.6],
    [7204,"FF1721AC76217473","ด่านฯสถานีรถไฟหนองคาย","2023-12-26T00:00:00",13,50.2,78.8,25.5,20.1],
    [7205,"FF1721AC76217473","ด่านฯสถานีรถไฟหนองคาย","2023-12-26T00:00:00",14,42,64.4,24.8,20.7],
    [7206,"FF1721AC76217473","ด่านฯสถานีรถไฟหนองคาย","2023-12-26T00:00:00",15,38.7,59.1,23.7,21.7],
    [7207,"FF1721AC76217473","ด่านฯสถานีรถไฟหนองคาย","2023-12-26T00:00:00",16,39.8,63.6,23.4,22.1],
    [7208,"FF1721AC76217473","ด่านฯสถานีรถไฟหนองคาย","2023-12-26T00:00:00",17,48.1,71.3,22.7,23.6],
    [7209,"FF1721AC76217473","ด่านฯสถานีรถไฟหนองคาย","2023-12-26T00:00:00",18,66.8,101.5,20.5,28.1],
    [7210,"FF1721AC76217473","ด่านฯสถานีรถไฟหนองคาย","2023-12-26T00:00:00",19,91.4,131,18.8,31.1],
    [7211,"FF1721AC76217473","ด่านฯสถานีรถไฟหนองคาย","2023-12-26T00:00:00",20,92.6,130.3,17.9,34.7],
    [7212,"FF1721AC76217473","ด่านฯสถานีรถไฟหนองคาย","2023-12-26T00:00:00",21,93.4,122.2,17.1,36.4],
    [7213,"FF1721AC76217473","ด่านฯสถานีรถไฟหนองคาย","2023-12-26T00:00:00",22,93.4,128.4,16.7,38.1],
    [7214,"FF1721AC76217473","ด่านฯสถานีรถไฟหนองคาย","2023-12-26T00:00:00",23,89,124.9,16.1,39],
    [7215,"FF1721AC76217484","กองดิจิทัลเพื่อการควบคุมโรค","2023-12-26T00:00:00",0,44.8,75.9,22.3,27.2],
    [7216,"FF1721AC76217484","กองดิจิทัลเพื่อการควบคุมโรค","2023-12-26T00:00:00",1,45.7,78.5,22.1,27.4],
    [7217,"FF1721AC76217484","กองดิจิทัลเพื่อการควบคุมโรค","2023-12-26T00:00:00",2,49.5,80.5,21.7,28],
    [7218,"FF1721AC76217484","กองดิจิทัลเพื่อการควบคุมโรค","2023-12-26T00:00:00",3,47.3,78.7,21.4,28.7],
    [7219,"FF1721AC76217484","กองดิจิทัลเพื่อการควบคุมโรค","2023-12-26T00:00:00",4,48.9,80.3,21.2,29],
    [7220,"FF1721AC76217484","กองดิจิทัลเพื่อการควบคุมโรค","2023-12-26T00:00:00",5,47.5,76.7,20.8,30.3],
    [7221,"FF1721AC76217484","กองดิจิทัลเพื่อการควบคุมโรค","2023-12-26T00:00:00",6,46.9,77.9,20.7,30.9],
    [7222,"FF1721AC76217484","กองดิจิทัลเพื่อการควบคุมโรค","2023-12-26T00:00:00",7,48.8,76.2,20.9,29.8],
    [7223,"FF1721AC76217484","กองดิจิทัลเพื่อการควบคุมโรค","2023-12-26T00:00:00",8,39.9,65.3,21.1,29],
    [7224,"FF1721AC76217484","กองดิจิทัลเพื่อการควบคุมโรค","2023-12-26T00:00:00",9,41.2,68.4,22.2,28.6],
    [7225,"FF1721AC76217484","กองดิจิทัลเพื่อการควบคุมโรค","2023-12-26T00:00:00",10,39,62.2,24.9,25.9],
    [7226,"FF1721AC76217484","กองดิจิทัลเพื่อการควบคุมโรค","2023-12-26T00:00:00",11,40.9,63.1,26.6,24.2],
    [7227,"FF1721AC76217484","กองดิจิทัลเพื่อการควบคุมโรค","2023-12-26T00:00:00",12,36.6,56.1,27.8,23.4],
    [7228,"FF1721AC76217484","กองดิจิทัลเพื่อการควบคุมโรค","2023-12-26T00:00:00",13,32.6,49.7,29.9,21.9],
    [7229,"FF1721AC76217484","กองดิจิทัลเพื่อการควบคุมโรค","2023-12-26T00:00:00",14,34.4,53.9,29.6,22.4],
    [7230,"FF1721AC76217484","กองดิจิทัลเพื่อการควบคุมโรค","2023-12-26T00:00:00",15,34.7,55.6,26.8,25.6],
    [7231,"FF1721AC76217484","กองดิจิทัลเพื่อการควบคุมโรค","2023-12-26T00:00:00",16,32,53.3,26.6,26],
    [7232,"FF1721AC76217484","กองดิจิทัลเพื่อการควบคุมโรค","2023-12-26T00:00:00",17,31.8,49.5,25.4,27.4],
    [7233,"FF1721AC76217484","กองดิจิทัลเพื่อการควบคุมโรค","2023-12-26T00:00:00",18,30.2,48,25.4,27.3],
    [7234,"FF1721AC76217484","กองดิจิทัลเพื่อการควบคุมโรค","2023-12-26T00:00:00",19,34.7,54.8,25,28.6],
    [7235,"FF1721AC76217484","กองดิจิทัลเพื่อการควบคุมโรค","2023-12-26T00:00:00",20,42.8,69.2,24.8,29.4],
    [7236,"FF1721AC76217484","กองดิจิทัลเพื่อการควบคุมโรค","2023-12-26T00:00:00",21,48.6,79,23.8,31.3],
    [7237,"FF1721AC76217484","กองดิจิทัลเพื่อการควบคุมโรค","2023-12-26T00:00:00",22,44.3,72.6,23.6,31.8],
    [7238,"FF1721AC76217484","กองดิจิทัลเพื่อการควบคุมโรค","2023-12-26T00:00:00",23,47.4,76.2,23.5,32.3],
    [7239,"FF1721AC76217473","ด่านฯสถานีรถไฟหนองคาย","2023-12-27T00:00:00",0,90.6,123,15.3,39.8],
    [7240,"FF1721AC76217473","ด่านฯสถานีรถไฟหนองคาย","2023-12-27T00:00:00",1,89.8,121.9,15.7,40.9],
    [7241,"FF1721AC76217473","ด่านฯสถานีรถไฟหนองคาย","2023-12-27T00:00:00",2,65.8,95.4,16.2,39.5],
    [7242,"FF1721AC76217473","ด่านฯสถานีรถไฟหนองคาย","2023-12-27T00:00:00",3,47.1,73.3,16,38],
    [7243,"FF1721AC76217473","ด่านฯสถานีรถไฟหนองคาย","2023-12-27T00:00:00",4,47.3,71.8,15.6,39],
    [7244,"FF1721AC76217473","ด่านฯสถานีรถไฟหนองคาย","2023-12-27T00:00:00",5,49.9,77.5,14.4,41.9],
    [7245,"FF1721AC76217473","ด่านฯสถานีรถไฟหนองคาย","2023-12-27T00:00:00",6,60,88.4,13.9,43.3],
    [7246,"FF1721AC76217473","ด่านฯสถานีรถไฟหนองคาย","2023-12-27T00:00:00",7,90.9,116.3,17.1,38.4],
    [7247,"FF1721AC76217473","ด่านฯสถานีรถไฟหนองคาย","2023-12-27T00:00:00",8,58.6,87.6,20.1,31.3],
    [7248,"FF1721AC76217473","ด่านฯสถานีรถไฟหนองคาย","2023-12-27T00:00:00",9,49.4,77.8,21.5,28.8],
    [7249,"FF1721AC76217473","ด่านฯสถานีรถไฟหนองคาย","2023-12-27T00:00:00",10,43.7,65.9,23.5,25.4],
    [7250,"FF1721AC76217473","ด่านฯสถานีรถไฟหนองคาย","2023-12-27T00:00:00",11,41.8,59.7,25,23],
    [7251,"FF1721AC76217473","ด่านฯสถานีรถไฟหนองคาย","2023-12-27T00:00:00",12,39.2,61.2,26.1,21.4],
    [7252,"FF1721AC76217473","ด่านฯสถานีรถไฟหนองคาย","2023-12-27T00:00:00",13,34.6,50.8,27.2,20.4],
    [7253,"FF1721AC76217473","ด่านฯสถานีรถไฟหนองคาย","2023-12-27T00:00:00",14,30.5,45.6,27.2,20.4],
    [7254,"FF1721AC76217473","ด่านฯสถานีรถไฟหนองคาย","2023-12-27T00:00:00",15,32.3,41.7,26.1,21.2],
    [7255,"FF1721AC76217473","ด่านฯสถานีรถไฟหนองคาย","2023-12-27T00:00:00",16,27.7,35.6,25.6,21.2],
    [7256,"FF1721AC76217473","ด่านฯสถานีรถไฟหนองคาย","2023-12-27T00:00:00",17,35.6,51.6,24.5,23.7],
    [7257,"FF1721AC76217473","ด่านฯสถานีรถไฟหนองคาย","2023-12-27T00:00:00",18,42.1,64.7,21.7,28.9],
    [7258,"FF1721AC76217473","ด่านฯสถานีรถไฟหนองคาย","2023-12-27T00:00:00",19,47.2,75.5,19.7,32.6],
    [7259,"FF1721AC76217473","ด่านฯสถานีรถไฟหนองคาย","2023-12-27T00:00:00",20,60.3,82.4,18.6,35.2],
    [7260,"FF1721AC76217473","ด่านฯสถานีรถไฟหนองคาย","2023-12-27T00:00:00",21,52.3,80.7,17.5,36.9],
    [7261,"FF1721AC76217473","ด่านฯสถานีรถไฟหนองคาย","2023-12-27T00:00:00",22,72.6,99.4,16.8,39.4],
    [7262,"FF1721AC76217473","ด่านฯสถานีรถไฟหนองคาย","2023-12-27T00:00:00",23,95.3,126.5,16.1,41.1],
    [7263,"FF1721AC76217484","กองดิจิทัลเพื่อการควบคุมโรค","2023-12-27T00:00:00",0,51.6,83.1,22.5,34.2],
    [7264,"FF1721AC76217484","กองดิจิทัลเพื่อการควบคุมโรค","2023-12-27T00:00:00",1,56.6,88.8,22.1,34.8],
    [7265,"FF1721AC76217484","กองดิจิทัลเพื่อการควบคุมโรค","2023-12-27T00:00:00",2,52.2,85.3,21.5,35.1],
    [7266,"FF1721AC76217484","กองดิจิทัลเพื่อการควบคุมโรค","2023-12-27T00:00:00",3,49,79.3,20.8,35.9],
    [7267,"FF1721AC76217484","กองดิจิทัลเพื่อการควบคุมโรค","2023-12-27T00:00:00",4,50,82,20.5,36.3],
    [7268,"FF1721AC76217484","กองดิจิทัลเพื่อการควบคุมโรค","2023-12-27T00:00:00",5,46.7,76.5,20.2,36.8],
    [7269,"FF1721AC76217484","กองดิจิทัลเพื่อการควบคุมโรค","2023-12-27T00:00:00",6,45.4,74.2,20.1,36.7],
    [7270,"FF1721AC76217484","กองดิจิทัลเพื่อการควบคุมโรค","2023-12-27T00:00:00",7,43,69.5,20.9,34.9],
    [7271,"FF1721AC76217484","กองดิจิทัลเพื่อการควบคุมโรค","2023-12-27T00:00:00",8,38.9,62.1,22.2,33.1],
    [7272,"FF1721AC76217484","กองดิจิทัลเพื่อการควบคุมโรค","2023-12-27T00:00:00",9,34.1,56.1,24.4,30.6],
    [7273,"FF1721AC76217484","กองดิจิทัลเพื่อการควบคุมโรค","2023-12-27T00:00:00",10,30.9,49,27.1,27.2],
    [7274,"FF1721AC76217484","กองดิจิทัลเพื่อการควบคุมโรค","2023-12-27T00:00:00",11,29.5,44.4,29.4,25],
    [7275,"FF1721AC76217484","กองดิจิทัลเพื่อการควบคุมโรค","2023-12-27T00:00:00",12,28.9,40.5,30.1,24],
    [7276,"FF1721AC76217484","กองดิจิทัลเพื่อการควบคุมโรค","2023-12-27T00:00:00",13,27,41,30.3,23.9],
    [7277,"FF1721AC76217484","กองดิจิทัลเพื่อการควบคุมโรค","2023-12-27T00:00:00",14,22.6,33.1,31,23.3],
    [7278,"FF1721AC76217484","กองดิจิทัลเพื่อการควบคุมโรค","2023-12-27T00:00:00",15,22.4,32.6,30,23.9],
    [7279,"FF1721AC76217484","กองดิจิทัลเพื่อการควบคุมโรค","2023-12-27T00:00:00",16,19.4,26.4,31.1,22.7],
    [7280,"FF1721AC76217484","กองดิจิทัลเพื่อการควบคุมโรค","2023-12-27T00:00:00",17,21.9,33.1,29.7,24.1],
    [7281,"FF1721AC76217484","กองดิจิทัลเพื่อการควบคุมโรค","2023-12-27T00:00:00",18,27.4,40.6,28,26.9],
    [7282,"FF1721AC76217484","กองดิจิทัลเพื่อการควบคุมโรค","2023-12-27T00:00:00",19,42.1,66,27,29],
    [7283,"FF1721AC76217484","กองดิจิทัลเพื่อการควบคุมโรค","2023-12-27T00:00:00",20,38,66.6,26.8,29.9],
    [7284,"FF1721AC76217484","กองดิจิทัลเพื่อการควบคุมโรค","2023-12-27T00:00:00",21,36.6,58.6,26.2,31.2],
    [7285,"FF1721AC76217484","กองดิจิทัลเพื่อการควบคุมโรค","2023-12-27T00:00:00",22,41,64.8,25.7,31.8],
    [7286,"FF1721AC76217484","กองดิจิทัลเพื่อการควบคุมโรค","2023-12-27T00:00:00",23,44.3,72.1,25.3,32.4],
    [7287,"FF1721AC76217473","ด่านฯสถานีรถไฟหนองคาย","2023-12-28T00:00:00",0,82.2,109.4,16.1,41.9],
    [7288,"FF1721AC76217473","ด่านฯสถานีรถไฟหนองคาย","2023-12-28T00:00:00",1,55.2,85.2,16,41.5],
    [7289,"FF1721AC76217473","ด่านฯสถานีรถไฟหนองคาย","2023-12-28T00:00:00",2,66.8,94.1,15.8,42.8],
    [7290,"FF1721AC76217473","ด่านฯสถานีรถไฟหนองคาย","2023-12-28T00:00:00",3,64.1,91.5,15.3,42.1],
    [7291,"FF1721AC76217473","ด่านฯสถานีรถไฟหนองคาย","2023-12-28T00:00:00",4,59.7,87.5,14.3,43.3],
    [7292,"FF1721AC76217473","ด่านฯสถานีรถไฟหนองคาย","2023-12-28T00:00:00",5,63.2,93,13.9,43.9],
    [7293,"FF1721AC76217473","ด่านฯสถานีรถไฟหนองคาย","2023-12-28T00:00:00",6,91.8,136.6,14.1,44.2],
    [7294,"FF1721AC76217473","ด่านฯสถานีรถไฟหนองคาย","2023-12-28T00:00:00",7,137.2,166.6,17.4,39.9],
    [7295,"FF1721AC76217473","ด่านฯสถานีรถไฟหนองคาย","2023-12-28T00:00:00",8,81.5,110.4,21.6,33.5],
    [7296,"FF1721AC76217473","ด่านฯสถานีรถไฟหนองคาย","2023-12-28T00:00:00",9,55.1,79.3,23.7,29.8],
    [7297,"FF1721AC76217473","ด่านฯสถานีรถไฟหนองคาย","2023-12-28T00:00:00",10,46.6,68.6,25.3,27.4],
    [7298,"FF1721AC76217473","ด่านฯสถานีรถไฟหนองคาย","2023-12-28T00:00:00",11,39.7,61,26.1,26],
    [7299,"FF1721AC76217473","ด่านฯสถานีรถไฟหนองคาย","2023-12-28T00:00:00",12,31.6,44.5,27.6,22.2],
    [7300,"FF1721AC76217473","ด่านฯสถานีรถไฟหนองคาย","2023-12-28T00:00:00",13,29.8,38.9,28.4,21.3],
    [7301,"FF1721AC76217473","ด่านฯสถานีรถไฟหนองคาย","2023-12-28T00:00:00",14,26.3,34.3,28.3,21.2],
    [7302,"FF1721AC76217473","ด่านฯสถานีรถไฟหนองคาย","2023-12-28T00:00:00",15,16.3,22.2,27.1,20.2],
    [7303,"FF1721AC76217473","ด่านฯสถานีรถไฟหนองคาย","2023-12-28T00:00:00",16,23.7,29.6,26.5,20.8],
    [7304,"FF1721AC76217473","ด่านฯสถานีรถไฟหนองคาย","2023-12-28T00:00:00",17,28.8,38.1,25.1,23.1],
    [7305,"FF1721AC76217473","ด่านฯสถานีรถไฟหนองคาย","2023-12-28T00:00:00",18,48.8,72.3,22,28.2],
    [7306,"FF1721AC76217473","ด่านฯสถานีรถไฟหนองคาย","2023-12-28T00:00:00",19,63.1,91.5,20.4,32.9],
    [7307,"FF1721AC76217473","ด่านฯสถานีรถไฟหนองคาย","2023-12-28T00:00:00",20,64.2,91.2,19.3,35.3],
    [7308,"FF1721AC76217473","ด่านฯสถานีรถไฟหนองคาย","2023-12-28T00:00:00",21,79.3,105.4,18.8,36.8],
    [7309,"FF1721AC76217473","ด่านฯสถานีรถไฟหนองคาย","2023-12-28T00:00:00",22,76.2,108.5,18.3,38.5],
    [7310,"FF1721AC76217473","ด่านฯสถานีรถไฟหนองคาย","2023-12-28T00:00:00",23,73.6,100,18.4,39.8],
    [7311,"FF1721AC76217484","กองดิจิทัลเพื่อการควบคุมโรค","2023-12-28T00:00:00",0,44.8,73,24.8,33.1],
    [7312,"FF1721AC76217484","กองดิจิทัลเพื่อการควบคุมโรค","2023-12-28T00:00:00",1,49.4,81.3,23.7,35.2],
    [7313,"FF1721AC76217484","กองดิจิทัลเพื่อการควบคุมโรค","2023-12-28T00:00:00",2,54.2,86.1,23,36.9],
    [7314,"FF1721AC76217484","กองดิจิทัลเพื่อการควบคุมโรค","2023-12-28T00:00:00",3,45.4,73.2,22.9,35.3],
    [7315,"FF1721AC76217484","กองดิจิทัลเพื่อการควบคุมโรค","2023-12-28T00:00:00",4,42.8,69.2,22.3,35.5],
    [7316,"FF1721AC76217484","กองดิจิทัลเพื่อการควบคุมโรค","2023-12-28T00:00:00",5,46,74.6,21.5,36.5],
    [7317,"FF1721AC76217484","กองดิจิทัลเพื่อการควบคุมโรค","2023-12-28T00:00:00",6,50.3,80.4,20.9,37.3],
    [7318,"FF1721AC76217484","กองดิจิทัลเพื่อการควบคุมโรค","2023-12-28T00:00:00",7,47.8,79.6,21.3,36],
    [7319,"FF1721AC76217484","กองดิจิทัลเพื่อการควบคุมโรค","2023-12-28T00:00:00",8,41.1,67.1,22.8,32.7],
    [7320,"FF1721AC76217484","กองดิจิทัลเพื่อการควบคุมโรค","2023-12-28T00:00:00",9,33.5,49.8,25.9,29.7],
    [7321,"FF1721AC76217484","กองดิจิทัลเพื่อการควบคุมโรค","2023-12-28T00:00:00",10,29.5,42.5,28.3,27],
    [7322,"FF1721AC76217484","กองดิจิทัลเพื่อการควบคุมโรค","2023-12-28T00:00:00",11,27.2,40,30.3,25.1],
    [7323,"FF1721AC76217484","กองดิจิทัลเพื่อการควบคุมโรค","2023-12-28T00:00:00",12,26.6,40.7,31.7,23.8],
    [7324,"FF1721AC76217484","กองดิจิทัลเพื่อการควบคุมโรค","2023-12-28T00:00:00",13,25,39.6,31.3,23.8],
    [7325,"FF1721AC76217484","กองดิจิทัลเพื่อการควบคุมโรค","2023-12-28T00:00:00",14,19.5,27.7,31.5,23.4],
    [7326,"FF1721AC76217484","กองดิจิทัลเพื่อการควบคุมโรค","2023-12-28T00:00:00",15,19.6,26.2,30.6,24.4],
    [7327,"FF1721AC76217484","กองดิจิทัลเพื่อการควบคุมโรค","2023-12-28T00:00:00",16,18.9,26.1,30.1,25.8],
    [7328,"FF1721AC76217484","กองดิจิทัลเพื่อการควบคุมโรค","2023-12-28T00:00:00",17,18.5,27.7,28.2,28],
    [7329,"FF1721AC76217484","กองดิจิทัลเพื่อการควบคุมโรค","2023-12-28T00:00:00",18,21,28.8,27.5,28.7],
    [7330,"FF1721AC76217484","กองดิจิทัลเพื่อการควบคุมโรค","2023-12-28T00:00:00",19,28.6,46.4,26.7,29.8],
    [7331,"FF1721AC76217484","กองดิจิทัลเพื่อการควบคุมโรค","2023-12-28T00:00:00",20,34.8,56.7,26,31],
    [7332,"FF1721AC76217484","กองดิจิทัลเพื่อการควบคุมโรค","2023-12-28T00:00:00",21,41,63.5,25.5,32],
    [7333,"FF1721AC76217484","กองดิจิทัลเพื่อการควบคุมโรค","2023-12-28T00:00:00",22,45.8,72.8,25,32.8],
    [7334,"FF1721AC76217484","กองดิจิทัลเพื่อการควบคุมโรค","2023-12-28T00:00:00",23,41.5,67.5,25.5,30.9],
    [7335,"FF1721AC76217473","ด่านฯสถานีรถไฟหนองคาย","2023-12-29T00:00:00",0,55.2,78.2,18.8,39.4],
    [7336,"FF1721AC76217473","ด่านฯสถานีรถไฟหนองคาย","2023-12-29T00:00:00",1,38.4,53,19,39],
    [7337,"FF1721AC76217473","ด่านฯสถานีรถไฟหนองคาย","2023-12-29T00:00:00",2,51.5,79.7,18.1,41.6],
    [7338,"FF1721AC76217473","ด่านฯสถานีรถไฟหนองคาย","2023-12-29T00:00:00",3,50.4,77.8,17.6,42],
    [7339,"FF1721AC76217473","ด่านฯสถานีรถไฟหนองคาย","2023-12-29T00:00:00",4,46.8,72.2,16.9,43],
    [7340,"FF1721AC76217473","ด่านฯสถานีรถไฟหนองคาย","2023-12-29T00:00:00",5,53.3,78.3,16.7,43.9],
    [7341,"FF1721AC76217473","ด่านฯสถานีรถไฟหนองคาย","2023-12-29T00:00:00",6,71.7,103.5,16.6,44.3],
    [7342,"FF1721AC76217473","ด่านฯสถานีรถไฟหนองคาย","2023-12-29T00:00:00",7,89.1,115.3,20,38.3],
    [7343,"FF1721AC76217473","ด่านฯสถานีรถไฟหนองคาย","2023-12-29T00:00:00",8,53.1,84.4,23.6,31.6],
    [7344,"FF1721AC76217473","ด่านฯสถานีรถไฟหนองคาย","2023-12-29T00:00:00",9,37,55.6,26.3,27.7],
    [7345,"FF1721AC76217473","ด่านฯสถานีรถไฟหนองคาย","2023-12-29T00:00:00",10,38.1,55.4,27.1,27],
    [7346,"FF1721AC76217473","ด่านฯสถานีรถไฟหนองคาย","2023-12-29T00:00:00",11,34.5,50.6,28.1,25.6],
    [7347,"FF1721AC76217473","ด่านฯสถานีรถไฟหนองคาย","2023-12-29T00:00:00",12,22.5,28.4,28.4,24.6],
    [7348,"FF1721AC76217473","ด่านฯสถานีรถไฟหนองคาย","2023-12-29T00:00:00",13,20.5,21.1,28.5,24.9],
    [7349,"FF1721AC76217473","ด่านฯสถานีรถไฟหนองคาย","2023-12-29T00:00:00",14,12.5,19.8,28.7,24.8],
    [7350,"FF1721AC76217473","ด่านฯสถานีรถไฟหนองคาย","2023-12-29T00:00:00",15,9.5,15.2,27.9,25.4],
    [7351,"FF1721AC76217473","ด่านฯสถานีรถไฟหนองคาย","2023-12-29T00:00:00",16,14.7,18,27.4,26],
    [7352,"FF1721AC76217473","ด่านฯสถานีรถไฟหนองคาย","2023-12-29T00:00:00",17,15.9,19.7,26.3,27.5],
    [7353,"FF1721AC76217473","ด่านฯสถานีรถไฟหนองคาย","2023-12-29T00:00:00",18,36,55.8,24.1,31.9],
    [7354,"FF1721AC76217473","ด่านฯสถานีรถไฟหนองคาย","2023-12-29T00:00:00",19,40.6,60.7,22.7,35.3],
    [7355,"FF1721AC76217473","ด่านฯสถานีรถไฟหนองคาย","2023-12-29T00:00:00",20,51.3,76.6,21.5,37.1],
    [7356,"FF1721AC76217473","ด่านฯสถานีรถไฟหนองคาย","2023-12-29T00:00:00",21,53.8,83.8,21.1,38.5],
    [7357,"FF1721AC76217473","ด่านฯสถานีรถไฟหนองคาย","2023-12-29T00:00:00",22,53.1,81.4,20.5,40.2],
    [7358,"FF1721AC76217473","ด่านฯสถานีรถไฟหนองคาย","2023-12-29T00:00:00",23,56.4,84.7,20.5,40.9],
    [7359,"FF1721AC76217484","กองดิจิทัลเพื่อการควบคุมโรค","2023-12-29T00:00:00",0,41.6,69.2,24.6,32],
    [7360,"FF1721AC76217484","กองดิจิทัลเพื่อการควบคุมโรค","2023-12-29T00:00:00",1,51.8,79.9,23.8,34.2],
    [7361,"FF1721AC76217484","กองดิจิทัลเพื่อการควบคุมโรค","2023-12-29T00:00:00",2,60.6,92.3,23.1,36.3],
    [7362,"FF1721AC76217484","กองดิจิทัลเพื่อการควบคุมโรค","2023-12-29T00:00:00",3,58.7,91.6,22.7,36.5],
    [7363,"FF1721AC76217484","กองดิจิทัลเพื่อการควบคุมโรค","2023-12-29T00:00:00",4,59.2,90.3,22.3,36.5],
    [7364,"FF1721AC76217484","กองดิจิทัลเพื่อการควบคุมโรค","2023-12-29T00:00:00",5,53.2,85.5,21.9,36.5],
    [7365,"FF1721AC76217484","กองดิจิทัลเพื่อการควบคุมโรค","2023-12-29T00:00:00",6,51,85.2,21.6,36.8],
    [7366,"FF1721AC76217484","กองดิจิทัลเพื่อการควบคุมโรค","2023-12-29T00:00:00",7,48.3,78.7,22.1,35.8],
    [7367,"FF1721AC76217484","กองดิจิทัลเพื่อการควบคุมโรค","2023-12-29T00:00:00",8,41,64.8,23.6,33.1],
    [7368,"FF1721AC76217484","กองดิจิทัลเพื่อการควบคุมโรค","2023-12-29T00:00:00",9,33.4,53.3,26.8,29.4],
    [7369,"FF1721AC76217484","กองดิจิทัลเพื่อการควบคุมโรค","2023-12-29T00:00:00",10,28.1,44.5,29.7,26.1],
    [7370,"FF1721AC76217484","กองดิจิทัลเพื่อการควบคุมโรค","2023-12-29T00:00:00",11,26.5,38.3,31.2,24.3],
    [7371,"FF1721AC76217484","กองดิจิทัลเพื่อการควบคุมโรค","2023-12-29T00:00:00",12,22.4,35.9,32,23.9],
    [7372,"FF1721AC76217484","กองดิจิทัลเพื่อการควบคุมโรค","2023-12-29T00:00:00",13,21.3,28.3,32.4,23.5],
    [7373,"FF1721AC76217484","กองดิจิทัลเพื่อการควบคุมโรค","2023-12-29T00:00:00",14,20.2,30.6,31.2,24.5],
    [7374,"FF1721AC76217484","กองดิจิทัลเพื่อการควบคุมโรค","2023-12-29T00:00:00",15,23,38.1,30.5,26.5],
    [7375,"FF1721AC76217484","กองดิจิทัลเพื่อการควบคุมโรค","2023-12-29T00:00:00",16,24.6,35.5,30.8,26.1],
    [7376,"FF1721AC76217484","กองดิจิทัลเพื่อการควบคุมโรค","2023-12-29T00:00:00",17,23.1,33,29.2,27.1],
    [7377,"FF1721AC76217484","กองดิจิทัลเพื่อการควบคุมโรค","2023-12-29T00:00:00",18,25.2,38.9,28.2,27.9],
    [7378,"FF1721AC76217484","กองดิจิทัลเพื่อการควบคุมโรค","2023-12-29T00:00:00",19,33.1,53.6,27.7,29.2],
    [7379,"FF1721AC76217484","กองดิจิทัลเพื่อการควบคุมโรค","2023-12-29T00:00:00",20,35.8,59,27.4,30.5],
    [7380,"FF1721AC76217484","กองดิจิทัลเพื่อการควบคุมโรค","2023-12-29T00:00:00",21,41.2,67.5,26.5,31.7],
    [7381,"FF1721AC76217484","กองดิจิทัลเพื่อการควบคุมโรค","2023-12-29T00:00:00",22,50.9,82.5,25.6,33.2],
    [7382,"FF1721AC76217484","กองดิจิทัลเพื่อการควบคุมโรค","2023-12-29T00:00:00",23,51.9,83,25.1,33.2],
    [7383,"FF1721AC76217473","ด่านฯสถานีรถไฟหนองคาย","2023-12-30T00:00:00",0,53,81,20.2,41.4],
    [7384,"FF1721AC76217473","ด่านฯสถานีรถไฟหนองคาย","2023-12-30T00:00:00",1,54.5,81.5,20.1,42.6],
    [7385,"FF1721AC76217473","ด่านฯสถานีรถไฟหนองคาย","2023-12-30T00:00:00",2,47.8,74,19.9,42.4],
    [7386,"FF1721AC76217473","ด่านฯสถานีรถไฟหนองคาย","2023-12-30T00:00:00",3,45.2,69.5,19.4,43.5],
    [7387,"FF1721AC76217473","ด่านฯสถานีรถไฟหนองคาย","2023-12-30T00:00:00",4,46.4,70.4,18.9,44.1],
    [7388,"FF1721AC76217473","ด่านฯสถานีรถไฟหนองคาย","2023-12-30T00:00:00",5,70.2,83.6,18.6,44.1],
    [7389,"FF1721AC76217473","ด่านฯสถานีรถไฟหนองคาย","2023-12-30T00:00:00",6,102.6,122.4,18.2,44.5],
    [7390,"FF1721AC76217473","ด่านฯสถานีรถไฟหนองคาย","2023-12-30T00:00:00",7,100.4,140.1,19.5,42.3],
    [7391,"FF1721AC76217473","ด่านฯสถานีรถไฟหนองคาย","2023-12-30T00:00:00",8,61.1,91.7,22.9,35.8],
    [7392,"FF1721AC76217473","ด่านฯสถานีรถไฟหนองคาย","2023-12-30T00:00:00",9,40.7,61.1,24.6,32.8],
    [7393,"FF1721AC76217473","ด่านฯสถานีรถไฟหนองคาย","2023-12-30T00:00:00",10,33.9,52.2,26.3,30.2],
    [7394,"FF1721AC76217473","ด่านฯสถานีรถไฟหนองคาย","2023-12-30T00:00:00",11,29.1,35.2,28,27.7],
    [7395,"FF1721AC76217473","ด่านฯสถานีรถไฟหนองคาย","2023-12-30T00:00:00",12,29.5,38.9,29.3,26.3],
    [7396,"FF1721AC76217473","ด่านฯสถานีรถไฟหนองคาย","2023-12-30T00:00:00",13,17.9,25.7,29.4,25.4],
    [7397,"FF1721AC76217473","ด่านฯสถานีรถไฟหนองคาย","2023-12-30T00:00:00",14,15.6,20.8,29.1,25.4],
    [7398,"FF1721AC76217473","ด่านฯสถานีรถไฟหนองคาย","2023-12-30T00:00:00",15,17.6,21.2,28.6,25.9],
    [7399,"FF1721AC76217473","ด่านฯสถานีรถไฟหนองคาย","2023-12-30T00:00:00",16,17.3,22.8,27.9,25.7],
    [7400,"FF1721AC76217473","ด่านฯสถานีรถไฟหนองคาย","2023-12-30T00:00:00",17,18.3,27.2,26.6,27.7],
    [7401,"FF1721AC76217473","ด่านฯสถานีรถไฟหนองคาย","2023-12-30T00:00:00",18,34.8,50.2,24.4,32.4],
    [7402,"FF1721AC76217473","ด่านฯสถานีรถไฟหนองคาย","2023-12-30T00:00:00",19,42.9,63.1,22.6,35.3],
    [7403,"FF1721AC76217473","ด่านฯสถานีรถไฟหนองคาย","2023-12-30T00:00:00",20,46.2,71.4,21.5,38.2],
    [7404,"FF1721AC76217473","ด่านฯสถานีรถไฟหนองคาย","2023-12-30T00:00:00",21,48.1,72,20.9,39.8],
    [7405,"FF1721AC76217473","ด่านฯสถานีรถไฟหนองคาย","2023-12-30T00:00:00",22,53.2,81.1,20.3,40.7],
    [7406,"FF1721AC76217473","ด่านฯสถานีรถไฟหนองคาย","2023-12-30T00:00:00",23,51.2,79.2,19.8,41.3],
    [7407,"FF1721AC76217484","กองดิจิทัลเพื่อการควบคุมโรค","2023-12-30T00:00:00",0,53.2,86.4,24.6,33.6],
    [7408,"FF1721AC76217484","กองดิจิทัลเพื่อการควบคุมโรค","2023-12-30T00:00:00",1,53.1,86.5,24,34.7],
    [7409,"FF1721AC76217484","กองดิจิทัลเพื่อการควบคุมโรค","2023-12-30T00:00:00",2,50.2,81.3,23.6,34.8],
    [7410,"FF1721AC76217484","กองดิจิทัลเพื่อการควบคุมโรค","2023-12-30T00:00:00",3,48.5,81.7,23.2,35.2],
    [7411,"FF1721AC76217484","กองดิจิทัลเพื่อการควบคุมโรค","2023-12-30T00:00:00",4,49,78.8,23.1,35.4],
    [7412,"FF1721AC76217484","กองดิจิทัลเพื่อการควบคุมโรค","2023-12-30T00:00:00",5,49.6,80.5,22.6,36.4],
    [7413,"FF1721AC76217484","กองดิจิทัลเพื่อการควบคุมโรค","2023-12-30T00:00:00",6,53.4,86.4,22.3,37.3],
    [7414,"FF1721AC76217484","กองดิจิทัลเพื่อการควบคุมโรค","2023-12-30T00:00:00",7,55.1,88.7,22.3,37.5],
    [7415,"FF1721AC76217484","กองดิจิทัลเพื่อการควบคุมโรค","2023-12-30T00:00:00",8,51.1,82.6,23.6,35.8],
    [7416,"FF1721AC76217484","กองดิจิทัลเพื่อการควบคุมโรค","2023-12-30T00:00:00",9,46.9,76.6,26.5,32.1],
    [7417,"FF1721AC76217484","กองดิจิทัลเพื่อการควบคุมโรค","2023-12-30T00:00:00",10,39.5,66.9,29,28.7],
    [7418,"FF1721AC76217484","กองดิจิทัลเพื่อการควบคุมโรค","2023-12-30T00:00:00",11,33,50.1,31.3,26.1],
    [7419,"FF1721AC76217484","กองดิจิทัลเพื่อการควบคุมโรค","2023-12-30T00:00:00",12,28.7,40.6,31.9,25.7],
    [7420,"FF1721AC76217484","กองดิจิทัลเพื่อการควบคุมโรค","2023-12-30T00:00:00",13,23.1,35,32.2,25.2],
    [7421,"FF1721AC76217484","กองดิจิทัลเพื่อการควบคุมโรค","2023-12-30T00:00:00",14,21.6,32.3,32.3,25.4],
    [7422,"FF1721AC76217484","กองดิจิทัลเพื่อการควบคุมโรค","2023-12-30T00:00:00",15,26.1,38.8,31.2,27.5],
    [7423,"FF1721AC76217484","กองดิจิทัลเพื่อการควบคุมโรค","2023-12-30T00:00:00",16,20.8,28.1,30.6,28.2],
    [7424,"FF1721AC76217484","กองดิจิทัลเพื่อการควบคุมโรค","2023-12-30T00:00:00",17,17.4,26.7,29.5,29.2],
    [7425,"FF1721AC76217484","กองดิจิทัลเพื่อการควบคุมโรค","2023-12-30T00:00:00",18,21.9,31.5,28.8,29.7],
    [7426,"FF1721AC76217484","กองดิจิทัลเพื่อการควบคุมโรค","2023-12-30T00:00:00",19,27.1,39.1,28.1,31.3],
    [7427,"FF1721AC76217484","กองดิจิทัลเพื่อการควบคุมโรค","2023-12-30T00:00:00",20,31.8,48.4,27.6,32.4],
    [7428,"FF1721AC76217484","กองดิจิทัลเพื่อการควบคุมโรค","2023-12-30T00:00:00",21,36.5,58.5,27.2,33.2],
    [7429,"FF1721AC76217484","กองดิจิทัลเพื่อการควบคุมโรค","2023-12-30T00:00:00",22,37,58.4,26.8,34.1],
    [7430,"FF1721AC76217484","กองดิจิทัลเพื่อการควบคุมโรค","2023-12-30T00:00:00",23,40.3,62,26.3,33.8],
    [7431,"FF1721AC76217473","ด่านฯสถานีรถไฟหนองคาย","2023-12-31T00:00:00",0,68.4,92.9,19.7,43.3],
    [7432,"FF1721AC76217473","ด่านฯสถานีรถไฟหนองคาย","2023-12-31T00:00:00",1,63.4,89.9,19.6,43.9],
    [7433,"FF1721AC76217473","ด่านฯสถานีรถไฟหนองคาย","2023-12-31T00:00:00",2,43.4,65.4,19.7,43.2],
    [7434,"FF1721AC76217473","ด่านฯสถานีรถไฟหนองคาย","2023-12-31T00:00:00",3,35,48,19.4,42.9],
    [7435,"FF1721AC76217473","ด่านฯสถานีรถไฟหนองคาย","2023-12-31T00:00:00",4,29.3,40.1,19,43.1],
    [7436,"FF1721AC76217473","ด่านฯสถานีรถไฟหนองคาย","2023-12-31T00:00:00",5,32.6,42.6,18.1,44.5],
    [7437,"FF1721AC76217473","ด่านฯสถานีรถไฟหนองคาย","2023-12-31T00:00:00",6,44.3,69.8,18,44.8],
    [7438,"FF1721AC76217473","ด่านฯสถานีรถไฟหนองคาย","2023-12-31T00:00:00",7,63.9,98.5,20.9,40.4],
    [7439,"FF1721AC76217473","ด่านฯสถานีรถไฟหนองคาย","2023-12-31T00:00:00",8,37.1,58.9,23.8,34.9],
    [7440,"FF1721AC76217473","ด่านฯสถานีรถไฟหนองคาย","2023-12-31T00:00:00",9,19.7,24.5,24.8,32.5],
    [7441,"FF1721AC76217473","ด่านฯสถานีรถไฟหนองคาย","2023-12-31T00:00:00",10,12.5,18.5,26.2,30.3],
    [7442,"FF1721AC76217473","ด่านฯสถานีรถไฟหนองคาย","2023-12-31T00:00:00",11,12.9,15.5,27.9,27.9],
    [7443,"FF1721AC76217473","ด่านฯสถานีรถไฟหนองคาย","2023-12-31T00:00:00",12,12.9,13.2,29.5,26.3],
    [7444,"FF1721AC76217473","ด่านฯสถานีรถไฟหนองคาย","2023-12-31T00:00:00",13,9.6,9.3,29.2,25.5],
    [7445,"FF1721AC76217473","ด่านฯสถานีรถไฟหนองคาย","2023-12-31T00:00:00",14,6.7,10.1,30.4,22.4],
    [7446,"FF1721AC76217473","ด่านฯสถานีรถไฟหนองคาย","2023-12-31T00:00:00",15,7.2,13.5,29.2,23],
    [7447,"FF1721AC76217473","ด่านฯสถานีรถไฟหนองคาย","2023-12-31T00:00:00",16,11.3,14.4,28.1,24.8],
    [7448,"FF1721AC76217473","ด่านฯสถานีรถไฟหนองคาย","2023-12-31T00:00:00",17,23.4,34.8,26.6,26.6],
    [7449,"FF1721AC76217473","ด่านฯสถานีรถไฟหนองคาย","2023-12-31T00:00:00",18,33.2,50.5,24.1,31.5],
    [7450,"FF1721AC76217473","ด่านฯสถานีรถไฟหนองคาย","2023-12-31T00:00:00",19,46.4,73.7,22.5,35.2],
    [7451,"FF1721AC76217473","ด่านฯสถานีรถไฟหนองคาย","2023-12-31T00:00:00",20,63.9,91.8,21.4,37.6],
    [7452,"FF1721AC76217473","ด่านฯสถานีรถไฟหนองคาย","2023-12-31T00:00:00",21,73.4,100.8,20.5,39.5],
    [7453,"FF1721AC76217473","ด่านฯสถานีรถไฟหนองคาย","2023-12-31T00:00:00",22,64.5,91.8,20,40.6],
    [7454,"FF1721AC76217473","ด่านฯสถานีรถไฟหนองคาย","2023-12-31T00:00:00",23,83.6,112.8,19.4,41.6],
    [7455,"FF1721AC76217484","กองดิจิทัลเพื่อการควบคุมโรค","2023-12-31T00:00:00",0,36.9,61.1,25.9,33],
    [7456,"FF1721AC76217484","กองดิจิทัลเพื่อการควบคุมโรค","2023-12-31T00:00:00",1,39.8,65.1,25.3,34],
    [7457,"FF1721AC76217484","กองดิจิทัลเพื่อการควบคุมโรค","2023-12-31T00:00:00",2,41.2,65.2,24.9,34.9],
    [7458,"FF1721AC76217484","กองดิจิทัลเพื่อการควบคุมโรค","2023-12-31T00:00:00",3,44.1,67.4,24.4,36.1],
    [7459,"FF1721AC76217484","กองดิจิทัลเพื่อการควบคุมโรค","2023-12-31T00:00:00",4,44.8,73,24.1,36.9],
    [7460,"FF1721AC76217484","กองดิจิทัลเพื่อการควบคุมโรค","2023-12-31T00:00:00",5,46.5,75.2,23.4,38.3],
    [7461,"FF1721AC76217484","กองดิจิทัลเพื่อการควบคุมโรค","2023-12-31T00:00:00",6,48.2,79.8,23.1,39],
    [7462,"FF1721AC76217484","กองดิจิทัลเพื่อการควบคุมโรค","2023-12-31T00:00:00",7,50.4,80.5,23.2,38.8],
    [7463,"FF1721AC76217484","กองดิจิทัลเพื่อการควบคุมโรค","2023-12-31T00:00:00",8,50.4,81.4,24.5,37],
    [7464,"FF1721AC76217484","กองดิจิทัลเพื่อการควบคุมโรค","2023-12-31T00:00:00",9,45.2,72.4,27,33.6],
    [7465,"FF1721AC76217484","กองดิจิทัลเพื่อการควบคุมโรค","2023-12-31T00:00:00",10,37.9,61.4,30.3,28.8],
    [7466,"FF1721AC76217484","กองดิจิทัลเพื่อการควบคุมโรค","2023-12-31T00:00:00",11,30.8,50,33.4,25.2],
    [7467,"FF1721AC76217484","กองดิจิทัลเพื่อการควบคุมโรค","2023-12-31T00:00:00",12,24,33.7,32.8,24.8],
    [7468,"FF1721AC76217484","กองดิจิทัลเพื่อการควบคุมโรค","2023-12-31T00:00:00",13,19.8,28,33,23.9],
    [7469,"FF1721AC76217484","กองดิจิทัลเพื่อการควบคุมโรค","2023-12-31T00:00:00",14,16.7,24.3,34.6,22.4],
    [7470,"FF1721AC76217484","กองดิจิทัลเพื่อการควบคุมโรค","2023-12-31T00:00:00",15,14.7,19.6,33.1,23.6],
    [7471,"FF1721AC76217484","กองดิจิทัลเพื่อการควบคุมโรค","2023-12-31T00:00:00",16,14.9,19.1,33.1,23.6],
    [7472,"FF1721AC76217484","กองดิจิทัลเพื่อการควบคุมโรค","2023-12-31T00:00:00",17,18.5,26,30.5,27.5],
    [7473,"FF1721AC76217484","กองดิจิทัลเพื่อการควบคุมโรค","2023-12-31T00:00:00",18,22,33.7,29.2,29.1],
    [7474,"FF1721AC76217484","กองดิจิทัลเพื่อการควบคุมโรค","2023-12-31T00:00:00",19,26.1,41.9,28.5,30.1],
    [7475,"FF1721AC76217484","กองดิจิทัลเพื่อการควบคุมโรค","2023-12-31T00:00:00",20,28.3,41.2,28.4,30.6],
    [7476,"FF1721AC76217484","กองดิจิทัลเพื่อการควบคุมโรค","2023-12-31T00:00:00",21,35,56.7,27.9,31.6],
    [7477,"FF1721AC76217484","กองดิจิทัลเพื่อการควบคุมโรค","2023-12-31T00:00:00",22,37.4,59.2,26.8,33.1],
    [7478,"FF1721AC76217484","กองดิจิทัลเพื่อการควบคุมโรค","2023-12-31T00:00:00",23,39.7,63.3,26.3,34.2],
    [7479,null,null,null,79239,147983.1,214952.1,188587.6,239461]
]}
